<?xml version="1.0" encoding="UTF-8" standalone="no" ?>
<gpx xmlns="http://www.topografix.com/GPX/1/1" xmlns:xsi="http://www.w3.org/2001/XMLSchema-instance" xsi:schemaLocation="http://www.topografix.com/GPX/1/1 http://www.topografix.com/GPX/1/1/gpx.xsd" version="1.1" creator="VisuGPX - https://www.visugpx.com">
  <metadata>
    <name>Berteaucourt-les-dames</name>
  </metadata>
  <trk>
    <name><![CDATA[Berteaucourt-les-dames_1]]></name>
    <trkseg>
      <trkpt lat="50.04991" lon="2.15551">
        <ele>31.2</ele>
        <time>2023-10-04T12:09:40Z</time>
      </trkpt>
      <trkpt lat="50.04992" lon="2.1555">
        <ele>31.2</ele>
        <time>2023-10-04T12:09:41Z</time>
      </trkpt>
      <trkpt lat="50.04993" lon="2.15549">
        <ele>31.2</ele>
        <time>2023-10-04T12:09:42Z</time>
      </trkpt>
      <trkpt lat="50.04994" lon="2.15548">
        <ele>31.2</ele>
        <time>2023-10-04T12:09:43Z</time>
      </trkpt>
      <trkpt lat="50.04995" lon="2.15548">
        <ele>31.2</ele>
        <time>2023-10-04T12:09:44Z</time>
      </trkpt>
      <trkpt lat="50.04995" lon="2.15547">
        <ele>31.2</ele>
        <time>2023-10-04T12:09:45Z</time>
      </trkpt>
      <trkpt lat="50.04995" lon="2.15547">
        <ele>31.2</ele>
        <time>2023-10-04T12:09:46Z</time>
      </trkpt>
      <trkpt lat="50.04995" lon="2.15547">
        <ele>31.2</ele>
        <time>2023-10-04T12:09:47Z</time>
      </trkpt>
      <trkpt lat="50.04995" lon="2.15547">
        <ele>31.2</ele>
        <time>2023-10-04T12:09:49Z</time>
      </trkpt>
      <trkpt lat="50.04995" lon="2.15546">
        <ele>31.2</ele>
        <time>2023-10-04T12:09:50Z</time>
      </trkpt>
      <trkpt lat="50.04995" lon="2.15546">
        <ele>31.2</ele>
        <time>2023-10-04T12:09:51Z</time>
      </trkpt>
      <trkpt lat="50.04995" lon="2.15546">
        <ele>31.2</ele>
        <time>2023-10-04T12:09:52Z</time>
      </trkpt>
      <trkpt lat="50.04996" lon="2.15545">
        <ele>31.2</ele>
        <time>2023-10-04T12:09:54Z</time>
      </trkpt>
      <trkpt lat="50.04996" lon="2.15543">
        <ele>31.2</ele>
        <time>2023-10-04T12:09:55Z</time>
      </trkpt>
      <trkpt lat="50.04997" lon="2.15542">
        <ele>31.2</ele>
        <time>2023-10-04T12:09:56Z</time>
      </trkpt>
      <trkpt lat="50.04997" lon="2.15541">
        <ele>31.2</ele>
        <time>2023-10-04T12:09:57Z</time>
      </trkpt>
      <trkpt lat="50.04998" lon="2.15539">
        <ele>31.2</ele>
        <time>2023-10-04T12:09:58Z</time>
      </trkpt>
      <trkpt lat="50.04998" lon="2.15538">
        <ele>31.2</ele>
        <time>2023-10-04T12:09:59Z</time>
      </trkpt>
      <trkpt lat="50.04999" lon="2.15537">
        <ele>31.2</ele>
        <time>2023-10-04T12:10:01Z</time>
      </trkpt>
      <trkpt lat="50.04999" lon="2.15536">
        <ele>31.2</ele>
        <time>2023-10-04T12:10:02Z</time>
      </trkpt>
      <trkpt lat="50.04999" lon="2.15535">
        <ele>31.2</ele>
        <time>2023-10-04T12:10:03Z</time>
      </trkpt>
      <trkpt lat="50.05" lon="2.15534">
        <ele>31.2</ele>
        <time>2023-10-04T12:10:04Z</time>
      </trkpt>
      <trkpt lat="50.05" lon="2.15533">
        <ele>31.3</ele>
        <time>2023-10-04T12:10:06Z</time>
      </trkpt>
      <trkpt lat="50.05001" lon="2.15532">
        <ele>31.3</ele>
        <time>2023-10-04T12:10:07Z</time>
      </trkpt>
      <trkpt lat="50.05001" lon="2.15531">
        <ele>31.3</ele>
        <time>2023-10-04T12:10:08Z</time>
      </trkpt>
      <trkpt lat="50.05002" lon="2.1553">
        <ele>31.3</ele>
        <time>2023-10-04T12:10:09Z</time>
      </trkpt>
      <trkpt lat="50.05003" lon="2.15528">
        <ele>31.3</ele>
        <time>2023-10-04T12:10:11Z</time>
      </trkpt>
      <trkpt lat="50.05004" lon="2.15527">
        <ele>31.3</ele>
        <time>2023-10-04T12:10:12Z</time>
      </trkpt>
      <trkpt lat="50.05005" lon="2.15526">
        <ele>31.3</ele>
        <time>2023-10-04T12:10:13Z</time>
      </trkpt>
      <trkpt lat="50.05005" lon="2.15525">
        <ele>31.4</ele>
        <time>2023-10-04T12:10:15Z</time>
      </trkpt>
      <trkpt lat="50.05006" lon="2.15524">
        <ele>31.4</ele>
        <time>2023-10-04T12:10:16Z</time>
      </trkpt>
      <trkpt lat="50.05007" lon="2.15522">
        <ele>31.4</ele>
        <time>2023-10-04T12:10:17Z</time>
      </trkpt>
      <trkpt lat="50.05008" lon="2.15521">
        <ele>31.4</ele>
        <time>2023-10-04T12:10:18Z</time>
      </trkpt>
      <trkpt lat="50.05009" lon="2.15518">
        <ele>31.4</ele>
        <time>2023-10-04T12:10:19Z</time>
      </trkpt>
      <trkpt lat="50.0501" lon="2.15517">
        <ele>31.5</ele>
        <time>2023-10-04T12:10:21Z</time>
      </trkpt>
      <trkpt lat="50.0501" lon="2.15516">
        <ele>31.5</ele>
        <time>2023-10-04T12:10:22Z</time>
      </trkpt>
      <trkpt lat="50.05011" lon="2.15515">
        <ele>31.5</ele>
        <time>2023-10-04T12:10:23Z</time>
      </trkpt>
      <trkpt lat="50.05012" lon="2.15513">
        <ele>31.5</ele>
        <time>2023-10-04T12:10:24Z</time>
      </trkpt>
      <trkpt lat="50.05013" lon="2.15512">
        <ele>31.5</ele>
        <time>2023-10-04T12:10:26Z</time>
      </trkpt>
      <trkpt lat="50.05013" lon="2.15511">
        <ele>31.5</ele>
        <time>2023-10-04T12:10:27Z</time>
      </trkpt>
      <trkpt lat="50.05014" lon="2.15509">
        <ele>31.5</ele>
        <time>2023-10-04T12:10:28Z</time>
      </trkpt>
      <trkpt lat="50.05015" lon="2.15508">
        <ele>31.5</ele>
        <time>2023-10-04T12:10:30Z</time>
      </trkpt>
      <trkpt lat="50.05015" lon="2.15506">
        <ele>31.5</ele>
        <time>2023-10-04T12:10:31Z</time>
      </trkpt>
      <trkpt lat="50.05016" lon="2.15504">
        <ele>31.5</ele>
        <time>2023-10-04T12:10:32Z</time>
      </trkpt>
      <trkpt lat="50.05016" lon="2.15503">
        <ele>31.5</ele>
        <time>2023-10-04T12:10:33Z</time>
      </trkpt>
      <trkpt lat="50.05017" lon="2.15501">
        <ele>31.5</ele>
        <time>2023-10-04T12:10:35Z</time>
      </trkpt>
      <trkpt lat="50.05017" lon="2.155">
        <ele>31.5</ele>
        <time>2023-10-04T12:10:36Z</time>
      </trkpt>
      <trkpt lat="50.05018" lon="2.15498">
        <ele>31.5</ele>
        <time>2023-10-04T12:10:37Z</time>
      </trkpt>
      <trkpt lat="50.05018" lon="2.15497">
        <ele>31.5</ele>
        <time>2023-10-04T12:10:38Z</time>
      </trkpt>
      <trkpt lat="50.05019" lon="2.15496">
        <ele>31.5</ele>
        <time>2023-10-04T12:10:39Z</time>
      </trkpt>
      <trkpt lat="50.0502" lon="2.15495">
        <ele>31.5</ele>
        <time>2023-10-04T12:10:40Z</time>
      </trkpt>
      <trkpt lat="50.05021" lon="2.15494">
        <ele>31.5</ele>
        <time>2023-10-04T12:10:42Z</time>
      </trkpt>
      <trkpt lat="50.05021" lon="2.15493">
        <ele>31.5</ele>
        <time>2023-10-04T12:10:43Z</time>
      </trkpt>
      <trkpt lat="50.05022" lon="2.15492">
        <ele>31.5</ele>
        <time>2023-10-04T12:10:44Z</time>
      </trkpt>
      <trkpt lat="50.05023" lon="2.15491">
        <ele>31.5</ele>
        <time>2023-10-04T12:10:45Z</time>
      </trkpt>
      <trkpt lat="50.05024" lon="2.15491">
        <ele>31.5</ele>
        <time>2023-10-04T12:10:46Z</time>
      </trkpt>
      <trkpt lat="50.05025" lon="2.15491">
        <ele>31.5</ele>
        <time>2023-10-04T12:10:47Z</time>
      </trkpt>
      <trkpt lat="50.05027" lon="2.1549">
        <ele>31.5</ele>
        <time>2023-10-04T12:10:49Z</time>
      </trkpt>
      <trkpt lat="50.05029" lon="2.15489">
        <ele>31.5</ele>
        <time>2023-10-04T12:10:51Z</time>
      </trkpt>
      <trkpt lat="50.0503" lon="2.15487">
        <ele>31.5</ele>
        <time>2023-10-04T12:10:53Z</time>
      </trkpt>
      <trkpt lat="50.05032" lon="2.15487">
        <ele>31.5</ele>
        <time>2023-10-04T12:10:54Z</time>
      </trkpt>
      <trkpt lat="50.05033" lon="2.15487">
        <ele>31.5</ele>
        <time>2023-10-04T12:10:55Z</time>
      </trkpt>
      <trkpt lat="50.05034" lon="2.15486">
        <ele>31.5</ele>
        <time>2023-10-04T12:10:56Z</time>
      </trkpt>
      <trkpt lat="50.05035" lon="2.15486">
        <ele>31.5</ele>
        <time>2023-10-04T12:10:58Z</time>
      </trkpt>
      <trkpt lat="50.05037" lon="2.15486">
        <ele>31.5</ele>
        <time>2023-10-04T12:10:59Z</time>
      </trkpt>
      <trkpt lat="50.05038" lon="2.15485">
        <ele>31.5</ele>
        <time>2023-10-04T12:11:01Z</time>
      </trkpt>
      <trkpt lat="50.05039" lon="2.15485">
        <ele>31.5</ele>
        <time>2023-10-04T12:11:02Z</time>
      </trkpt>
      <trkpt lat="50.0504" lon="2.15485">
        <ele>31.5</ele>
        <time>2023-10-04T12:11:03Z</time>
      </trkpt>
      <trkpt lat="50.05041" lon="2.15485">
        <ele>31.5</ele>
        <time>2023-10-04T12:11:04Z</time>
      </trkpt>
      <trkpt lat="50.05042" lon="2.15484">
        <ele>31.5</ele>
        <time>2023-10-04T12:11:06Z</time>
      </trkpt>
      <trkpt lat="50.05043" lon="2.15483">
        <ele>31.5</ele>
        <time>2023-10-04T12:11:07Z</time>
      </trkpt>
      <trkpt lat="50.05044" lon="2.15482">
        <ele>31.5</ele>
        <time>2023-10-04T12:11:08Z</time>
      </trkpt>
      <trkpt lat="50.05045" lon="2.15481">
        <ele>31.5</ele>
        <time>2023-10-04T12:11:10Z</time>
      </trkpt>
      <trkpt lat="50.05045" lon="2.1548">
        <ele>31.5</ele>
        <time>2023-10-04T12:11:11Z</time>
      </trkpt>
      <trkpt lat="50.05047" lon="2.1548">
        <ele>31.5</ele>
        <time>2023-10-04T12:11:12Z</time>
      </trkpt>
      <trkpt lat="50.05048" lon="2.15479">
        <ele>31.5</ele>
        <time>2023-10-04T12:11:13Z</time>
      </trkpt>
      <trkpt lat="50.05049" lon="2.15479">
        <ele>31.5</ele>
        <time>2023-10-04T12:11:14Z</time>
      </trkpt>
      <trkpt lat="50.0505" lon="2.15478">
        <ele>31.5</ele>
        <time>2023-10-04T12:11:15Z</time>
      </trkpt>
      <trkpt lat="50.05052" lon="2.15477">
        <ele>31.5</ele>
        <time>2023-10-04T12:11:17Z</time>
      </trkpt>
      <trkpt lat="50.05055" lon="2.15475">
        <ele>31.5</ele>
        <time>2023-10-04T12:11:18Z</time>
      </trkpt>
      <trkpt lat="50.05056" lon="2.15475">
        <ele>31.5</ele>
        <time>2023-10-04T12:11:19Z</time>
      </trkpt>
      <trkpt lat="50.05058" lon="2.15474">
        <ele>31.5</ele>
        <time>2023-10-04T12:11:20Z</time>
      </trkpt>
      <trkpt lat="50.05059" lon="2.15473">
        <ele>31.5</ele>
        <time>2023-10-04T12:11:22Z</time>
      </trkpt>
      <trkpt lat="50.0506" lon="2.15473">
        <ele>31.5</ele>
        <time>2023-10-04T12:11:23Z</time>
      </trkpt>
      <trkpt lat="50.05062" lon="2.15473">
        <ele>31.5</ele>
        <time>2023-10-04T12:11:25Z</time>
      </trkpt>
      <trkpt lat="50.05062" lon="2.15473">
        <ele>31.5</ele>
        <time>2023-10-04T12:11:26Z</time>
      </trkpt>
      <trkpt lat="50.05063" lon="2.15473">
        <ele>31.5</ele>
        <time>2023-10-04T12:11:27Z</time>
      </trkpt>
      <trkpt lat="50.05064" lon="2.15473">
        <ele>31.5</ele>
        <time>2023-10-04T12:11:28Z</time>
      </trkpt>
      <trkpt lat="50.05064" lon="2.15473">
        <ele>31.5</ele>
        <time>2023-10-04T12:11:29Z</time>
      </trkpt>
      <trkpt lat="50.05065" lon="2.15473">
        <ele>31.5</ele>
        <time>2023-10-04T12:11:30Z</time>
      </trkpt>
      <trkpt lat="50.05067" lon="2.15472">
        <ele>31.5</ele>
        <time>2023-10-04T12:11:32Z</time>
      </trkpt>
      <trkpt lat="50.05068" lon="2.15471">
        <ele>31.5</ele>
        <time>2023-10-04T12:11:33Z</time>
      </trkpt>
      <trkpt lat="50.0507" lon="2.1547">
        <ele>31.6</ele>
        <time>2023-10-04T12:11:34Z</time>
      </trkpt>
      <trkpt lat="50.05071" lon="2.15469">
        <ele>31.6</ele>
        <time>2023-10-04T12:11:35Z</time>
      </trkpt>
      <trkpt lat="50.05071" lon="2.15469">
        <ele>31.6</ele>
        <time>2023-10-04T12:11:36Z</time>
      </trkpt>
      <trkpt lat="50.05073" lon="2.15469">
        <ele>31.6</ele>
        <time>2023-10-04T12:11:37Z</time>
      </trkpt>
      <trkpt lat="50.05074" lon="2.15468">
        <ele>31.6</ele>
        <time>2023-10-04T12:11:38Z</time>
      </trkpt>
      <trkpt lat="50.05075" lon="2.15468">
        <ele>31.7</ele>
        <time>2023-10-04T12:11:39Z</time>
      </trkpt>
      <trkpt lat="50.05077" lon="2.15467">
        <ele>31.7</ele>
        <time>2023-10-04T12:11:40Z</time>
      </trkpt>
      <trkpt lat="50.05079" lon="2.15466">
        <ele>31.7</ele>
        <time>2023-10-04T12:11:41Z</time>
      </trkpt>
      <trkpt lat="50.0508" lon="2.15466">
        <ele>31.8</ele>
        <time>2023-10-04T12:11:42Z</time>
      </trkpt>
      <trkpt lat="50.05083" lon="2.15465">
        <ele>31.8</ele>
        <time>2023-10-04T12:11:44Z</time>
      </trkpt>
      <trkpt lat="50.05086" lon="2.15465">
        <ele>31.9</ele>
        <time>2023-10-04T12:11:45Z</time>
      </trkpt>
      <trkpt lat="50.05086" lon="2.15465">
        <ele>31.9</ele>
        <time>2023-10-04T12:11:46Z</time>
      </trkpt>
      <trkpt lat="50.05088" lon="2.15464">
        <ele>32</ele>
        <time>2023-10-04T12:11:47Z</time>
      </trkpt>
      <trkpt lat="50.0509" lon="2.15464">
        <ele>32</ele>
        <time>2023-10-04T12:11:49Z</time>
      </trkpt>
      <trkpt lat="50.05091" lon="2.15463">
        <ele>32.1</ele>
        <time>2023-10-04T12:11:50Z</time>
      </trkpt>
      <trkpt lat="50.05092" lon="2.15463">
        <ele>32.1</ele>
        <time>2023-10-04T12:11:51Z</time>
      </trkpt>
      <trkpt lat="50.05094" lon="2.15462">
        <ele>32.2</ele>
        <time>2023-10-04T12:11:53Z</time>
      </trkpt>
      <trkpt lat="50.05096" lon="2.15461">
        <ele>32.2</ele>
        <time>2023-10-04T12:11:54Z</time>
      </trkpt>
      <trkpt lat="50.05097" lon="2.1546">
        <ele>32.3</ele>
        <time>2023-10-04T12:11:55Z</time>
      </trkpt>
      <trkpt lat="50.05099" lon="2.15458">
        <ele>32.4</ele>
        <time>2023-10-04T12:11:57Z</time>
      </trkpt>
      <trkpt lat="50.051" lon="2.15457">
        <ele>32.4</ele>
        <time>2023-10-04T12:11:58Z</time>
      </trkpt>
      <trkpt lat="50.05101" lon="2.15455">
        <ele>32.5</ele>
        <time>2023-10-04T12:11:59Z</time>
      </trkpt>
      <trkpt lat="50.05102" lon="2.15453">
        <ele>32.5</ele>
        <time>2023-10-04T12:12:00Z</time>
      </trkpt>
      <trkpt lat="50.05102" lon="2.15451">
        <ele>32.6</ele>
        <time>2023-10-04T12:12:01Z</time>
      </trkpt>
      <trkpt lat="50.05103" lon="2.15449">
        <ele>32.6</ele>
        <time>2023-10-04T12:12:02Z</time>
      </trkpt>
      <trkpt lat="50.05104" lon="2.15447">
        <ele>32.7</ele>
        <time>2023-10-04T12:12:04Z</time>
      </trkpt>
      <trkpt lat="50.05105" lon="2.15446">
        <ele>32.7</ele>
        <time>2023-10-04T12:12:05Z</time>
      </trkpt>
      <trkpt lat="50.05106" lon="2.15444">
        <ele>32.8</ele>
        <time>2023-10-04T12:12:06Z</time>
      </trkpt>
      <trkpt lat="50.05106" lon="2.15443">
        <ele>32.8</ele>
        <time>2023-10-04T12:12:07Z</time>
      </trkpt>
      <trkpt lat="50.05107" lon="2.15442">
        <ele>32.9</ele>
        <time>2023-10-04T12:12:08Z</time>
      </trkpt>
      <trkpt lat="50.05108" lon="2.1544">
        <ele>32.9</ele>
        <time>2023-10-04T12:12:10Z</time>
      </trkpt>
      <trkpt lat="50.05108" lon="2.1544">
        <ele>32.9</ele>
        <time>2023-10-04T12:12:11Z</time>
      </trkpt>
      <trkpt lat="50.05109" lon="2.15439">
        <ele>33</ele>
        <time>2023-10-04T12:12:12Z</time>
      </trkpt>
      <trkpt lat="50.0511" lon="2.15438">
        <ele>33</ele>
        <time>2023-10-04T12:12:13Z</time>
      </trkpt>
      <trkpt lat="50.05111" lon="2.15437">
        <ele>33.1</ele>
        <time>2023-10-04T12:12:14Z</time>
      </trkpt>
      <trkpt lat="50.05112" lon="2.15436">
        <ele>33.1</ele>
        <time>2023-10-04T12:12:15Z</time>
      </trkpt>
      <trkpt lat="50.05113" lon="2.15435">
        <ele>33.2</ele>
        <time>2023-10-04T12:12:16Z</time>
      </trkpt>
      <trkpt lat="50.05114" lon="2.15434">
        <ele>33.2</ele>
        <time>2023-10-04T12:12:18Z</time>
      </trkpt>
      <trkpt lat="50.05115" lon="2.15433">
        <ele>33.3</ele>
        <time>2023-10-04T12:12:19Z</time>
      </trkpt>
      <trkpt lat="50.05116" lon="2.15431">
        <ele>33.4</ele>
        <time>2023-10-04T12:12:20Z</time>
      </trkpt>
      <trkpt lat="50.05117" lon="2.1543">
        <ele>33.4</ele>
        <time>2023-10-04T12:12:21Z</time>
      </trkpt>
      <trkpt lat="50.05118" lon="2.15429">
        <ele>33.4</ele>
        <time>2023-10-04T12:12:22Z</time>
      </trkpt>
      <trkpt lat="50.05119" lon="2.15428">
        <ele>33.5</ele>
        <time>2023-10-04T12:12:23Z</time>
      </trkpt>
      <trkpt lat="50.0512" lon="2.15426">
        <ele>33.6</ele>
        <time>2023-10-04T12:12:24Z</time>
      </trkpt>
      <trkpt lat="50.05121" lon="2.15425">
        <ele>33.6</ele>
        <time>2023-10-04T12:12:25Z</time>
      </trkpt>
      <trkpt lat="50.05122" lon="2.15424">
        <ele>33.7</ele>
        <time>2023-10-04T12:12:27Z</time>
      </trkpt>
      <trkpt lat="50.05123" lon="2.15423">
        <ele>33.7</ele>
        <time>2023-10-04T12:12:28Z</time>
      </trkpt>
      <trkpt lat="50.05124" lon="2.15422">
        <ele>33.8</ele>
        <time>2023-10-04T12:12:29Z</time>
      </trkpt>
      <trkpt lat="50.05125" lon="2.1542">
        <ele>33.8</ele>
        <time>2023-10-04T12:12:30Z</time>
      </trkpt>
      <trkpt lat="50.05127" lon="2.15419">
        <ele>33.8</ele>
        <time>2023-10-04T12:12:32Z</time>
      </trkpt>
      <trkpt lat="50.05128" lon="2.15418">
        <ele>33.8</ele>
        <time>2023-10-04T12:12:33Z</time>
      </trkpt>
      <trkpt lat="50.05129" lon="2.15418">
        <ele>33.8</ele>
        <time>2023-10-04T12:12:34Z</time>
      </trkpt>
      <trkpt lat="50.0513" lon="2.15417">
        <ele>33.8</ele>
        <time>2023-10-04T12:12:36Z</time>
      </trkpt>
      <trkpt lat="50.0513" lon="2.15417">
        <ele>33.8</ele>
        <time>2023-10-04T12:12:37Z</time>
      </trkpt>
      <trkpt lat="50.05131" lon="2.15417">
        <ele>33.8</ele>
        <time>2023-10-04T12:12:38Z</time>
      </trkpt>
      <trkpt lat="50.05132" lon="2.15417">
        <ele>33.8</ele>
        <time>2023-10-04T12:12:40Z</time>
      </trkpt>
      <trkpt lat="50.05132" lon="2.15418">
        <ele>33.8</ele>
        <time>2023-10-04T12:12:41Z</time>
      </trkpt>
      <trkpt lat="50.05133" lon="2.15419">
        <ele>33.8</ele>
        <time>2023-10-04T12:12:42Z</time>
      </trkpt>
      <trkpt lat="50.05133" lon="2.15421">
        <ele>33.8</ele>
        <time>2023-10-04T12:12:43Z</time>
      </trkpt>
      <trkpt lat="50.05133" lon="2.15424">
        <ele>33.9</ele>
        <time>2023-10-04T12:12:44Z</time>
      </trkpt>
      <trkpt lat="50.05133" lon="2.15426">
        <ele>33.9</ele>
        <time>2023-10-04T12:12:45Z</time>
      </trkpt>
      <trkpt lat="50.05133" lon="2.15428">
        <ele>33.9</ele>
        <time>2023-10-04T12:12:46Z</time>
      </trkpt>
      <trkpt lat="50.05133" lon="2.15429">
        <ele>33.9</ele>
        <time>2023-10-04T12:12:48Z</time>
      </trkpt>
      <trkpt lat="50.05134" lon="2.15431">
        <ele>33.9</ele>
        <time>2023-10-04T12:12:49Z</time>
      </trkpt>
      <trkpt lat="50.05134" lon="2.15433">
        <ele>33.9</ele>
        <time>2023-10-04T12:12:50Z</time>
      </trkpt>
      <trkpt lat="50.05135" lon="2.15438">
        <ele>33.9</ele>
        <time>2023-10-04T12:12:51Z</time>
      </trkpt>
      <trkpt lat="50.05135" lon="2.15439">
        <ele>33.9</ele>
        <time>2023-10-04T12:12:52Z</time>
      </trkpt>
      <trkpt lat="50.05135" lon="2.15443">
        <ele>33.9</ele>
        <time>2023-10-04T12:12:53Z</time>
      </trkpt>
      <trkpt lat="50.05134" lon="2.15447">
        <ele>33.9</ele>
        <time>2023-10-04T12:12:55Z</time>
      </trkpt>
      <trkpt lat="50.05134" lon="2.15452">
        <ele>33.9</ele>
        <time>2023-10-04T12:12:56Z</time>
      </trkpt>
      <trkpt lat="50.05134" lon="2.15453">
        <ele>33.9</ele>
        <time>2023-10-04T12:12:57Z</time>
      </trkpt>
      <trkpt lat="50.05133" lon="2.1546">
        <ele>33.8</ele>
        <time>2023-10-04T12:12:59Z</time>
      </trkpt>
      <trkpt lat="50.05133" lon="2.15462">
        <ele>33.8</ele>
        <time>2023-10-04T12:13:00Z</time>
      </trkpt>
      <trkpt lat="50.05133" lon="2.15464">
        <ele>33.8</ele>
        <time>2023-10-04T12:13:01Z</time>
      </trkpt>
      <trkpt lat="50.05132" lon="2.15468">
        <ele>33.8</ele>
        <time>2023-10-04T12:13:02Z</time>
      </trkpt>
      <trkpt lat="50.05132" lon="2.15469">
        <ele>33.8</ele>
        <time>2023-10-04T12:13:03Z</time>
      </trkpt>
      <trkpt lat="50.05131" lon="2.15472">
        <ele>33.7</ele>
        <time>2023-10-04T12:13:05Z</time>
      </trkpt>
      <trkpt lat="50.05132" lon="2.15476">
        <ele>33.7</ele>
        <time>2023-10-04T12:13:07Z</time>
      </trkpt>
      <trkpt lat="50.05132" lon="2.15478">
        <ele>33.7</ele>
        <time>2023-10-04T12:13:08Z</time>
      </trkpt>
      <trkpt lat="50.05132" lon="2.1548">
        <ele>33.7</ele>
        <time>2023-10-04T12:13:09Z</time>
      </trkpt>
      <trkpt lat="50.05133" lon="2.15482">
        <ele>33.7</ele>
        <time>2023-10-04T12:13:10Z</time>
      </trkpt>
      <trkpt lat="50.05134" lon="2.15484">
        <ele>33.7</ele>
        <time>2023-10-04T12:13:11Z</time>
      </trkpt>
      <trkpt lat="50.05135" lon="2.15487">
        <ele>33.7</ele>
        <time>2023-10-04T12:13:13Z</time>
      </trkpt>
      <trkpt lat="50.05135" lon="2.15489">
        <ele>33.6</ele>
        <time>2023-10-04T12:13:14Z</time>
      </trkpt>
      <trkpt lat="50.05136" lon="2.15491">
        <ele>33.6</ele>
        <time>2023-10-04T12:13:15Z</time>
      </trkpt>
      <trkpt lat="50.05137" lon="2.15492">
        <ele>33.6</ele>
        <time>2023-10-04T12:13:16Z</time>
      </trkpt>
      <trkpt lat="50.05138" lon="2.15495">
        <ele>33.6</ele>
        <time>2023-10-04T12:13:18Z</time>
      </trkpt>
      <trkpt lat="50.05139" lon="2.15497">
        <ele>33.6</ele>
        <time>2023-10-04T12:13:19Z</time>
      </trkpt>
      <trkpt lat="50.0514" lon="2.15499">
        <ele>33.6</ele>
        <time>2023-10-04T12:13:20Z</time>
      </trkpt>
      <trkpt lat="50.05141" lon="2.15502">
        <ele>33.6</ele>
        <time>2023-10-04T12:13:22Z</time>
      </trkpt>
      <trkpt lat="50.05141" lon="2.15504">
        <ele>33.6</ele>
        <time>2023-10-04T12:13:23Z</time>
      </trkpt>
      <trkpt lat="50.05142" lon="2.15505">
        <ele>33.6</ele>
        <time>2023-10-04T12:13:24Z</time>
      </trkpt>
      <trkpt lat="50.05142" lon="2.15507">
        <ele>33.6</ele>
        <time>2023-10-04T12:13:25Z</time>
      </trkpt>
      <trkpt lat="50.05143" lon="2.1551">
        <ele>33.6</ele>
        <time>2023-10-04T12:13:27Z</time>
      </trkpt>
      <trkpt lat="50.05144" lon="2.15512">
        <ele>33.6</ele>
        <time>2023-10-04T12:13:28Z</time>
      </trkpt>
      <trkpt lat="50.05145" lon="2.15514">
        <ele>33.6</ele>
        <time>2023-10-04T12:13:29Z</time>
      </trkpt>
      <trkpt lat="50.05146" lon="2.15515">
        <ele>33.6</ele>
        <time>2023-10-04T12:13:30Z</time>
      </trkpt>
      <trkpt lat="50.05146" lon="2.15518">
        <ele>33.6</ele>
        <time>2023-10-04T12:13:31Z</time>
      </trkpt>
      <trkpt lat="50.05147" lon="2.1552">
        <ele>33.5</ele>
        <time>2023-10-04T12:13:33Z</time>
      </trkpt>
      <trkpt lat="50.05148" lon="2.15523">
        <ele>33.5</ele>
        <time>2023-10-04T12:13:35Z</time>
      </trkpt>
      <trkpt lat="50.05148" lon="2.15524">
        <ele>33.5</ele>
        <time>2023-10-04T12:13:36Z</time>
      </trkpt>
      <trkpt lat="50.05149" lon="2.15526">
        <ele>33.5</ele>
        <time>2023-10-04T12:13:37Z</time>
      </trkpt>
      <trkpt lat="50.05149" lon="2.15528">
        <ele>33.5</ele>
        <time>2023-10-04T12:13:38Z</time>
      </trkpt>
      <trkpt lat="50.05149" lon="2.15529">
        <ele>33.5</ele>
        <time>2023-10-04T12:13:39Z</time>
      </trkpt>
      <trkpt lat="50.05149" lon="2.15531">
        <ele>33.5</ele>
        <time>2023-10-04T12:13:40Z</time>
      </trkpt>
      <trkpt lat="50.0515" lon="2.15533">
        <ele>33.5</ele>
        <time>2023-10-04T12:13:41Z</time>
      </trkpt>
      <trkpt lat="50.0515" lon="2.15534">
        <ele>33.5</ele>
        <time>2023-10-04T12:13:43Z</time>
      </trkpt>
      <trkpt lat="50.0515" lon="2.15535">
        <ele>33.5</ele>
        <time>2023-10-04T12:13:44Z</time>
      </trkpt>
      <trkpt lat="50.05151" lon="2.15537">
        <ele>33.5</ele>
        <time>2023-10-04T12:13:45Z</time>
      </trkpt>
      <trkpt lat="50.05151" lon="2.15538">
        <ele>33.5</ele>
        <time>2023-10-04T12:13:46Z</time>
      </trkpt>
      <trkpt lat="50.05151" lon="2.1554">
        <ele>33.5</ele>
        <time>2023-10-04T12:13:47Z</time>
      </trkpt>
      <trkpt lat="50.05151" lon="2.15542">
        <ele>33.5</ele>
        <time>2023-10-04T12:13:48Z</time>
      </trkpt>
      <trkpt lat="50.05151" lon="2.15545">
        <ele>33.5</ele>
        <time>2023-10-04T12:13:49Z</time>
      </trkpt>
      <trkpt lat="50.05151" lon="2.15546">
        <ele>33.5</ele>
        <time>2023-10-04T12:13:50Z</time>
      </trkpt>
      <trkpt lat="50.05152" lon="2.15548">
        <ele>33.5</ele>
        <time>2023-10-04T12:13:51Z</time>
      </trkpt>
      <trkpt lat="50.05152" lon="2.15549">
        <ele>33.5</ele>
        <time>2023-10-04T12:13:53Z</time>
      </trkpt>
      <trkpt lat="50.05152" lon="2.15551">
        <ele>33.5</ele>
        <time>2023-10-04T12:13:54Z</time>
      </trkpt>
      <trkpt lat="50.05152" lon="2.15552">
        <ele>33.5</ele>
        <time>2023-10-04T12:13:55Z</time>
      </trkpt>
      <trkpt lat="50.05152" lon="2.15554">
        <ele>33.5</ele>
        <time>2023-10-04T12:13:56Z</time>
      </trkpt>
      <trkpt lat="50.05152" lon="2.15556">
        <ele>33.5</ele>
        <time>2023-10-04T12:13:57Z</time>
      </trkpt>
      <trkpt lat="50.05152" lon="2.15557">
        <ele>33.5</ele>
        <time>2023-10-04T12:13:58Z</time>
      </trkpt>
      <trkpt lat="50.05152" lon="2.15559">
        <ele>33.5</ele>
        <time>2023-10-04T12:13:59Z</time>
      </trkpt>
      <trkpt lat="50.05152" lon="2.15561">
        <ele>33.5</ele>
        <time>2023-10-04T12:14:00Z</time>
      </trkpt>
      <trkpt lat="50.05152" lon="2.15563">
        <ele>33.4</ele>
        <time>2023-10-04T12:14:02Z</time>
      </trkpt>
      <trkpt lat="50.05152" lon="2.15564">
        <ele>33.4</ele>
        <time>2023-10-04T12:14:03Z</time>
      </trkpt>
      <trkpt lat="50.05153" lon="2.15566">
        <ele>33.4</ele>
        <time>2023-10-04T12:14:04Z</time>
      </trkpt>
      <trkpt lat="50.05153" lon="2.15567">
        <ele>33.4</ele>
        <time>2023-10-04T12:14:05Z</time>
      </trkpt>
      <trkpt lat="50.05153" lon="2.15569">
        <ele>33.4</ele>
        <time>2023-10-04T12:14:06Z</time>
      </trkpt>
      <trkpt lat="50.05153" lon="2.15571">
        <ele>33.4</ele>
        <time>2023-10-04T12:14:07Z</time>
      </trkpt>
      <trkpt lat="50.05153" lon="2.15572">
        <ele>33.4</ele>
        <time>2023-10-04T12:14:08Z</time>
      </trkpt>
      <trkpt lat="50.05154" lon="2.15576">
        <ele>33.4</ele>
        <time>2023-10-04T12:14:10Z</time>
      </trkpt>
      <trkpt lat="50.05154" lon="2.15577">
        <ele>33.4</ele>
        <time>2023-10-04T12:14:11Z</time>
      </trkpt>
      <trkpt lat="50.05154" lon="2.15578">
        <ele>33.4</ele>
        <time>2023-10-04T12:14:12Z</time>
      </trkpt>
      <trkpt lat="50.05155" lon="2.15579">
        <ele>33.4</ele>
        <time>2023-10-04T12:14:13Z</time>
      </trkpt>
      <trkpt lat="50.05155" lon="2.15581">
        <ele>33.4</ele>
        <time>2023-10-04T12:14:14Z</time>
      </trkpt>
      <trkpt lat="50.05156" lon="2.15583">
        <ele>33.4</ele>
        <time>2023-10-04T12:14:16Z</time>
      </trkpt>
      <trkpt lat="50.05156" lon="2.15585">
        <ele>33.4</ele>
        <time>2023-10-04T12:14:17Z</time>
      </trkpt>
      <trkpt lat="50.05157" lon="2.15587">
        <ele>33.4</ele>
        <time>2023-10-04T12:14:18Z</time>
      </trkpt>
      <trkpt lat="50.05157" lon="2.1559">
        <ele>33.4</ele>
        <time>2023-10-04T12:14:19Z</time>
      </trkpt>
      <trkpt lat="50.05158" lon="2.15592">
        <ele>33.5</ele>
        <time>2023-10-04T12:14:20Z</time>
      </trkpt>
      <trkpt lat="50.05158" lon="2.15593">
        <ele>33.5</ele>
        <time>2023-10-04T12:14:21Z</time>
      </trkpt>
      <trkpt lat="50.05158" lon="2.15595">
        <ele>33.5</ele>
        <time>2023-10-04T12:14:22Z</time>
      </trkpt>
      <trkpt lat="50.05158" lon="2.15598">
        <ele>33.5</ele>
        <time>2023-10-04T12:14:24Z</time>
      </trkpt>
      <trkpt lat="50.05159" lon="2.156">
        <ele>33.5</ele>
        <time>2023-10-04T12:14:25Z</time>
      </trkpt>
      <trkpt lat="50.05159" lon="2.15603">
        <ele>33.5</ele>
        <time>2023-10-04T12:14:26Z</time>
      </trkpt>
      <trkpt lat="50.05159" lon="2.15605">
        <ele>33.4</ele>
        <time>2023-10-04T12:14:27Z</time>
      </trkpt>
      <trkpt lat="50.05159" lon="2.15606">
        <ele>33.4</ele>
        <time>2023-10-04T12:14:29Z</time>
      </trkpt>
      <trkpt lat="50.05159" lon="2.15608">
        <ele>33.4</ele>
        <time>2023-10-04T12:14:30Z</time>
      </trkpt>
      <trkpt lat="50.05159" lon="2.1561">
        <ele>33.4</ele>
        <time>2023-10-04T12:14:31Z</time>
      </trkpt>
      <trkpt lat="50.0516" lon="2.15611">
        <ele>33.4</ele>
        <time>2023-10-04T12:14:32Z</time>
      </trkpt>
      <trkpt lat="50.0516" lon="2.15613">
        <ele>33.4</ele>
        <time>2023-10-04T12:14:33Z</time>
      </trkpt>
      <trkpt lat="50.0516" lon="2.15615">
        <ele>33.4</ele>
        <time>2023-10-04T12:14:34Z</time>
      </trkpt>
      <trkpt lat="50.0516" lon="2.15618">
        <ele>33.4</ele>
        <time>2023-10-04T12:14:36Z</time>
      </trkpt>
      <trkpt lat="50.0516" lon="2.15619">
        <ele>33.4</ele>
        <time>2023-10-04T12:14:37Z</time>
      </trkpt>
      <trkpt lat="50.0516" lon="2.15621">
        <ele>33.4</ele>
        <time>2023-10-04T12:14:38Z</time>
      </trkpt>
      <trkpt lat="50.0516" lon="2.15623">
        <ele>33.4</ele>
        <time>2023-10-04T12:14:39Z</time>
      </trkpt>
      <trkpt lat="50.0516" lon="2.15625">
        <ele>33.4</ele>
        <time>2023-10-04T12:14:41Z</time>
      </trkpt>
      <trkpt lat="50.0516" lon="2.15627">
        <ele>33.4</ele>
        <time>2023-10-04T12:14:42Z</time>
      </trkpt>
      <trkpt lat="50.0516" lon="2.15629">
        <ele>33.3</ele>
        <time>2023-10-04T12:14:43Z</time>
      </trkpt>
      <trkpt lat="50.0516" lon="2.15631">
        <ele>33.3</ele>
        <time>2023-10-04T12:14:44Z</time>
      </trkpt>
      <trkpt lat="50.0516" lon="2.15633">
        <ele>33.3</ele>
        <time>2023-10-04T12:14:45Z</time>
      </trkpt>
      <trkpt lat="50.0516" lon="2.15635">
        <ele>33.3</ele>
        <time>2023-10-04T12:14:47Z</time>
      </trkpt>
      <trkpt lat="50.05161" lon="2.15637">
        <ele>33.3</ele>
        <time>2023-10-04T12:14:48Z</time>
      </trkpt>
      <trkpt lat="50.05161" lon="2.15638">
        <ele>33.3</ele>
        <time>2023-10-04T12:14:49Z</time>
      </trkpt>
      <trkpt lat="50.05161" lon="2.1564">
        <ele>33.3</ele>
        <time>2023-10-04T12:14:50Z</time>
      </trkpt>
      <trkpt lat="50.05161" lon="2.15644">
        <ele>33.3</ele>
        <time>2023-10-04T12:14:52Z</time>
      </trkpt>
      <trkpt lat="50.05161" lon="2.15645">
        <ele>33.3</ele>
        <time>2023-10-04T12:14:53Z</time>
      </trkpt>
      <trkpt lat="50.05162" lon="2.15648">
        <ele>33.3</ele>
        <time>2023-10-04T12:14:54Z</time>
      </trkpt>
      <trkpt lat="50.05162" lon="2.15651">
        <ele>33.3</ele>
        <time>2023-10-04T12:14:56Z</time>
      </trkpt>
      <trkpt lat="50.05162" lon="2.15654">
        <ele>33.3</ele>
        <time>2023-10-04T12:14:58Z</time>
      </trkpt>
      <trkpt lat="50.05163" lon="2.15657">
        <ele>33.3</ele>
        <time>2023-10-04T12:14:59Z</time>
      </trkpt>
      <trkpt lat="50.05162" lon="2.15659">
        <ele>33.3</ele>
        <time>2023-10-04T12:15:00Z</time>
      </trkpt>
      <trkpt lat="50.05162" lon="2.15661">
        <ele>33.3</ele>
        <time>2023-10-04T12:15:01Z</time>
      </trkpt>
      <trkpt lat="50.05162" lon="2.15663">
        <ele>33.3</ele>
        <time>2023-10-04T12:15:02Z</time>
      </trkpt>
      <trkpt lat="50.05161" lon="2.15665">
        <ele>33.3</ele>
        <time>2023-10-04T12:15:03Z</time>
      </trkpt>
      <trkpt lat="50.05161" lon="2.15667">
        <ele>33.3</ele>
        <time>2023-10-04T12:15:05Z</time>
      </trkpt>
      <trkpt lat="50.05161" lon="2.1567">
        <ele>33.3</ele>
        <time>2023-10-04T12:15:06Z</time>
      </trkpt>
      <trkpt lat="50.05161" lon="2.15672">
        <ele>33.3</ele>
        <time>2023-10-04T12:15:07Z</time>
      </trkpt>
      <trkpt lat="50.05161" lon="2.15674">
        <ele>33.3</ele>
        <time>2023-10-04T12:15:08Z</time>
      </trkpt>
      <trkpt lat="50.05161" lon="2.15675">
        <ele>33.3</ele>
        <time>2023-10-04T12:15:09Z</time>
      </trkpt>
      <trkpt lat="50.05161" lon="2.15677">
        <ele>33.3</ele>
        <time>2023-10-04T12:15:10Z</time>
      </trkpt>
      <trkpt lat="50.05161" lon="2.1568">
        <ele>33.3</ele>
        <time>2023-10-04T12:15:11Z</time>
      </trkpt>
      <trkpt lat="50.05161" lon="2.15682">
        <ele>33.3</ele>
        <time>2023-10-04T12:15:13Z</time>
      </trkpt>
      <trkpt lat="50.05162" lon="2.15683">
        <ele>33.3</ele>
        <time>2023-10-04T12:15:14Z</time>
      </trkpt>
      <trkpt lat="50.05162" lon="2.15685">
        <ele>33.3</ele>
        <time>2023-10-04T12:15:15Z</time>
      </trkpt>
      <trkpt lat="50.05162" lon="2.15687">
        <ele>33.3</ele>
        <time>2023-10-04T12:15:16Z</time>
      </trkpt>
      <trkpt lat="50.05162" lon="2.15688">
        <ele>33.3</ele>
        <time>2023-10-04T12:15:17Z</time>
      </trkpt>
      <trkpt lat="50.05162" lon="2.15689">
        <ele>33.3</ele>
        <time>2023-10-04T12:15:18Z</time>
      </trkpt>
      <trkpt lat="50.05162" lon="2.15691">
        <ele>33.3</ele>
        <time>2023-10-04T12:15:19Z</time>
      </trkpt>
      <trkpt lat="50.05162" lon="2.15692">
        <ele>33.3</ele>
        <time>2023-10-04T12:15:20Z</time>
      </trkpt>
      <trkpt lat="50.05162" lon="2.15693">
        <ele>33.3</ele>
        <time>2023-10-04T12:15:21Z</time>
      </trkpt>
      <trkpt lat="50.05163" lon="2.15695">
        <ele>33.3</ele>
        <time>2023-10-04T12:15:23Z</time>
      </trkpt>
      <trkpt lat="50.05163" lon="2.15695">
        <ele>33.3</ele>
        <time>2023-10-04T12:15:24Z</time>
      </trkpt>
      <trkpt lat="50.05163" lon="2.15697">
        <ele>33.3</ele>
        <time>2023-10-04T12:15:25Z</time>
      </trkpt>
      <trkpt lat="50.05163" lon="2.15699">
        <ele>33.3</ele>
        <time>2023-10-04T12:15:27Z</time>
      </trkpt>
      <trkpt lat="50.05164" lon="2.15699">
        <ele>33.3</ele>
        <time>2023-10-04T12:15:28Z</time>
      </trkpt>
      <trkpt lat="50.05164" lon="2.15701">
        <ele>33.3</ele>
        <time>2023-10-04T12:15:29Z</time>
      </trkpt>
      <trkpt lat="50.05164" lon="2.15702">
        <ele>33.3</ele>
        <time>2023-10-04T12:15:30Z</time>
      </trkpt>
      <trkpt lat="50.05165" lon="2.15705">
        <ele>33.3</ele>
        <time>2023-10-04T12:15:32Z</time>
      </trkpt>
      <trkpt lat="50.05166" lon="2.15708">
        <ele>33.3</ele>
        <time>2023-10-04T12:15:33Z</time>
      </trkpt>
      <trkpt lat="50.05166" lon="2.15709">
        <ele>33.3</ele>
        <time>2023-10-04T12:15:34Z</time>
      </trkpt>
      <trkpt lat="50.05166" lon="2.1571">
        <ele>33.3</ele>
        <time>2023-10-04T12:15:35Z</time>
      </trkpt>
      <trkpt lat="50.05166" lon="2.15714">
        <ele>33.3</ele>
        <time>2023-10-04T12:15:37Z</time>
      </trkpt>
      <trkpt lat="50.05166" lon="2.15715">
        <ele>33.3</ele>
        <time>2023-10-04T12:15:38Z</time>
      </trkpt>
      <trkpt lat="50.05167" lon="2.15716">
        <ele>33.3</ele>
        <time>2023-10-04T12:15:39Z</time>
      </trkpt>
      <trkpt lat="50.05167" lon="2.1572">
        <ele>33.3</ele>
        <time>2023-10-04T12:15:40Z</time>
      </trkpt>
      <trkpt lat="50.05167" lon="2.15721">
        <ele>33.3</ele>
        <time>2023-10-04T12:15:42Z</time>
      </trkpt>
      <trkpt lat="50.05167" lon="2.15723">
        <ele>33.3</ele>
        <time>2023-10-04T12:15:43Z</time>
      </trkpt>
      <trkpt lat="50.05167" lon="2.15725">
        <ele>33.3</ele>
        <time>2023-10-04T12:15:44Z</time>
      </trkpt>
      <trkpt lat="50.05167" lon="2.15727">
        <ele>33.3</ele>
        <time>2023-10-04T12:15:45Z</time>
      </trkpt>
      <trkpt lat="50.05167" lon="2.1573">
        <ele>33.3</ele>
        <time>2023-10-04T12:15:47Z</time>
      </trkpt>
      <trkpt lat="50.05167" lon="2.15732">
        <ele>33.3</ele>
        <time>2023-10-04T12:15:48Z</time>
      </trkpt>
      <trkpt lat="50.05167" lon="2.15733">
        <ele>33.3</ele>
        <time>2023-10-04T12:15:49Z</time>
      </trkpt>
      <trkpt lat="50.05167" lon="2.15735">
        <ele>33.3</ele>
        <time>2023-10-04T12:15:50Z</time>
      </trkpt>
      <trkpt lat="50.05168" lon="2.15737">
        <ele>33.3</ele>
        <time>2023-10-04T12:15:51Z</time>
      </trkpt>
      <trkpt lat="50.05168" lon="2.1574">
        <ele>33.3</ele>
        <time>2023-10-04T12:15:52Z</time>
      </trkpt>
      <trkpt lat="50.05168" lon="2.15744">
        <ele>33.3</ele>
        <time>2023-10-04T12:15:54Z</time>
      </trkpt>
      <trkpt lat="50.05168" lon="2.15747">
        <ele>33.3</ele>
        <time>2023-10-04T12:15:55Z</time>
      </trkpt>
      <trkpt lat="50.05168" lon="2.15748">
        <ele>33.3</ele>
        <time>2023-10-04T12:15:56Z</time>
      </trkpt>
      <trkpt lat="50.05169" lon="2.15749">
        <ele>33.3</ele>
        <time>2023-10-04T12:15:57Z</time>
      </trkpt>
      <trkpt lat="50.05169" lon="2.15752">
        <ele>33.3</ele>
        <time>2023-10-04T12:15:59Z</time>
      </trkpt>
      <trkpt lat="50.05169" lon="2.15755">
        <ele>33.3</ele>
        <time>2023-10-04T12:16:00Z</time>
      </trkpt>
      <trkpt lat="50.0517" lon="2.15757">
        <ele>33.2</ele>
        <time>2023-10-04T12:16:01Z</time>
      </trkpt>
      <trkpt lat="50.0517" lon="2.15759">
        <ele>33.2</ele>
        <time>2023-10-04T12:16:02Z</time>
      </trkpt>
      <trkpt lat="50.0517" lon="2.15761">
        <ele>33.2</ele>
        <time>2023-10-04T12:16:03Z</time>
      </trkpt>
      <trkpt lat="50.05171" lon="2.15763">
        <ele>33.2</ele>
        <time>2023-10-04T12:16:04Z</time>
      </trkpt>
      <trkpt lat="50.05172" lon="2.15767">
        <ele>33.2</ele>
        <time>2023-10-04T12:16:06Z</time>
      </trkpt>
      <trkpt lat="50.05172" lon="2.15768">
        <ele>33.2</ele>
        <time>2023-10-04T12:16:07Z</time>
      </trkpt>
      <trkpt lat="50.05172" lon="2.15769">
        <ele>33.2</ele>
        <time>2023-10-04T12:16:08Z</time>
      </trkpt>
      <trkpt lat="50.05173" lon="2.15773">
        <ele>33.3</ele>
        <time>2023-10-04T12:16:09Z</time>
      </trkpt>
      <trkpt lat="50.05173" lon="2.15775">
        <ele>33.3</ele>
        <time>2023-10-04T12:16:11Z</time>
      </trkpt>
      <trkpt lat="50.05173" lon="2.15776">
        <ele>33.3</ele>
        <time>2023-10-04T12:16:12Z</time>
      </trkpt>
      <trkpt lat="50.05173" lon="2.15778">
        <ele>33.3</ele>
        <time>2023-10-04T12:16:13Z</time>
      </trkpt>
      <trkpt lat="50.05174" lon="2.15779">
        <ele>33.3</ele>
        <time>2023-10-04T12:16:14Z</time>
      </trkpt>
      <trkpt lat="50.05174" lon="2.15781">
        <ele>33.3</ele>
        <time>2023-10-04T12:16:15Z</time>
      </trkpt>
      <trkpt lat="50.05174" lon="2.15782">
        <ele>33.3</ele>
        <time>2023-10-04T12:16:16Z</time>
      </trkpt>
      <trkpt lat="50.05174" lon="2.15784">
        <ele>33.3</ele>
        <time>2023-10-04T12:16:17Z</time>
      </trkpt>
      <trkpt lat="50.05174" lon="2.15785">
        <ele>33.3</ele>
        <time>2023-10-04T12:16:18Z</time>
      </trkpt>
      <trkpt lat="50.05174" lon="2.15787">
        <ele>33.3</ele>
        <time>2023-10-04T12:16:19Z</time>
      </trkpt>
      <trkpt lat="50.05175" lon="2.15789">
        <ele>33.3</ele>
        <time>2023-10-04T12:16:21Z</time>
      </trkpt>
      <trkpt lat="50.05175" lon="2.15791">
        <ele>33.3</ele>
        <time>2023-10-04T12:16:22Z</time>
      </trkpt>
      <trkpt lat="50.05175" lon="2.15793">
        <ele>33.3</ele>
        <time>2023-10-04T12:16:23Z</time>
      </trkpt>
      <trkpt lat="50.05175" lon="2.15794">
        <ele>33.3</ele>
        <time>2023-10-04T12:16:25Z</time>
      </trkpt>
      <trkpt lat="50.05175" lon="2.15796">
        <ele>33.3</ele>
        <time>2023-10-04T12:16:26Z</time>
      </trkpt>
      <trkpt lat="50.05176" lon="2.15798">
        <ele>33.3</ele>
        <time>2023-10-04T12:16:27Z</time>
      </trkpt>
      <trkpt lat="50.05176" lon="2.158">
        <ele>33.3</ele>
        <time>2023-10-04T12:16:28Z</time>
      </trkpt>
      <trkpt lat="50.05177" lon="2.15803">
        <ele>33.3</ele>
        <time>2023-10-04T12:16:29Z</time>
      </trkpt>
      <trkpt lat="50.05177" lon="2.15804">
        <ele>33.3</ele>
        <time>2023-10-04T12:16:30Z</time>
      </trkpt>
      <trkpt lat="50.05177" lon="2.15806">
        <ele>33.3</ele>
        <time>2023-10-04T12:16:31Z</time>
      </trkpt>
      <trkpt lat="50.05177" lon="2.15808">
        <ele>33.3</ele>
        <time>2023-10-04T12:16:32Z</time>
      </trkpt>
      <trkpt lat="50.05177" lon="2.1581">
        <ele>33.3</ele>
        <time>2023-10-04T12:16:33Z</time>
      </trkpt>
      <trkpt lat="50.05178" lon="2.15812">
        <ele>33.3</ele>
        <time>2023-10-04T12:16:34Z</time>
      </trkpt>
      <trkpt lat="50.05178" lon="2.15814">
        <ele>33.3</ele>
        <time>2023-10-04T12:16:35Z</time>
      </trkpt>
      <trkpt lat="50.05178" lon="2.15817">
        <ele>33.3</ele>
        <time>2023-10-04T12:16:37Z</time>
      </trkpt>
      <trkpt lat="50.05178" lon="2.1582">
        <ele>33.3</ele>
        <time>2023-10-04T12:16:38Z</time>
      </trkpt>
      <trkpt lat="50.05178" lon="2.15822">
        <ele>33.3</ele>
        <time>2023-10-04T12:16:39Z</time>
      </trkpt>
      <trkpt lat="50.05178" lon="2.15825">
        <ele>33.3</ele>
        <time>2023-10-04T12:16:40Z</time>
      </trkpt>
      <trkpt lat="50.05178" lon="2.15827">
        <ele>33.3</ele>
        <time>2023-10-04T12:16:41Z</time>
      </trkpt>
      <trkpt lat="50.05178" lon="2.1583">
        <ele>33.3</ele>
        <time>2023-10-04T12:16:42Z</time>
      </trkpt>
      <trkpt lat="50.05178" lon="2.15832">
        <ele>33.3</ele>
        <time>2023-10-04T12:16:44Z</time>
      </trkpt>
      <trkpt lat="50.05177" lon="2.15835">
        <ele>33.3</ele>
        <time>2023-10-04T12:16:45Z</time>
      </trkpt>
      <trkpt lat="50.05177" lon="2.15837">
        <ele>33.3</ele>
        <time>2023-10-04T12:16:46Z</time>
      </trkpt>
      <trkpt lat="50.05177" lon="2.15839">
        <ele>33.3</ele>
        <time>2023-10-04T12:16:47Z</time>
      </trkpt>
      <trkpt lat="50.05177" lon="2.15841">
        <ele>33.3</ele>
        <time>2023-10-04T12:16:48Z</time>
      </trkpt>
      <trkpt lat="50.05177" lon="2.15843">
        <ele>33.3</ele>
        <time>2023-10-04T12:16:49Z</time>
      </trkpt>
      <trkpt lat="50.05176" lon="2.15844">
        <ele>33.3</ele>
        <time>2023-10-04T12:16:50Z</time>
      </trkpt>
      <trkpt lat="50.05176" lon="2.15847">
        <ele>33.3</ele>
        <time>2023-10-04T12:16:52Z</time>
      </trkpt>
      <trkpt lat="50.05176" lon="2.15849">
        <ele>33.3</ele>
        <time>2023-10-04T12:16:53Z</time>
      </trkpt>
      <trkpt lat="50.05176" lon="2.15851">
        <ele>33.3</ele>
        <time>2023-10-04T12:16:54Z</time>
      </trkpt>
      <trkpt lat="50.05176" lon="2.15852">
        <ele>33.3</ele>
        <time>2023-10-04T12:16:55Z</time>
      </trkpt>
      <trkpt lat="50.05175" lon="2.15853">
        <ele>33.3</ele>
        <time>2023-10-04T12:16:56Z</time>
      </trkpt>
      <trkpt lat="50.05175" lon="2.15855">
        <ele>33.3</ele>
        <time>2023-10-04T12:16:57Z</time>
      </trkpt>
      <trkpt lat="50.05175" lon="2.15857">
        <ele>33.3</ele>
        <time>2023-10-04T12:16:59Z</time>
      </trkpt>
      <trkpt lat="50.05175" lon="2.15858">
        <ele>33.3</ele>
        <time>2023-10-04T12:17:00Z</time>
      </trkpt>
      <trkpt lat="50.05175" lon="2.15859">
        <ele>33.3</ele>
        <time>2023-10-04T12:17:01Z</time>
      </trkpt>
      <trkpt lat="50.05174" lon="2.15861">
        <ele>33.3</ele>
        <time>2023-10-04T12:17:02Z</time>
      </trkpt>
      <trkpt lat="50.05175" lon="2.15863">
        <ele>33.3</ele>
        <time>2023-10-04T12:17:03Z</time>
      </trkpt>
      <trkpt lat="50.05175" lon="2.15865">
        <ele>33.3</ele>
        <time>2023-10-04T12:17:04Z</time>
      </trkpt>
      <trkpt lat="50.05175" lon="2.15867">
        <ele>33.3</ele>
        <time>2023-10-04T12:17:06Z</time>
      </trkpt>
      <trkpt lat="50.05175" lon="2.15869">
        <ele>33.3</ele>
        <time>2023-10-04T12:17:07Z</time>
      </trkpt>
      <trkpt lat="50.05176" lon="2.15872">
        <ele>33.3</ele>
        <time>2023-10-04T12:17:08Z</time>
      </trkpt>
      <trkpt lat="50.05176" lon="2.15874">
        <ele>33.3</ele>
        <time>2023-10-04T12:17:09Z</time>
      </trkpt>
      <trkpt lat="50.05177" lon="2.15876">
        <ele>33.3</ele>
        <time>2023-10-04T12:17:10Z</time>
      </trkpt>
      <trkpt lat="50.05177" lon="2.15877">
        <ele>33.3</ele>
        <time>2023-10-04T12:17:11Z</time>
      </trkpt>
      <trkpt lat="50.05177" lon="2.15878">
        <ele>33.3</ele>
        <time>2023-10-04T12:17:12Z</time>
      </trkpt>
      <trkpt lat="50.05178" lon="2.1588">
        <ele>33.3</ele>
        <time>2023-10-04T12:17:13Z</time>
      </trkpt>
      <trkpt lat="50.05178" lon="2.15882">
        <ele>33.3</ele>
        <time>2023-10-04T12:17:14Z</time>
      </trkpt>
      <trkpt lat="50.05179" lon="2.15885">
        <ele>33.3</ele>
        <time>2023-10-04T12:17:16Z</time>
      </trkpt>
      <trkpt lat="50.05179" lon="2.15887">
        <ele>33.3</ele>
        <time>2023-10-04T12:17:17Z</time>
      </trkpt>
      <trkpt lat="50.05179" lon="2.15888">
        <ele>33.3</ele>
        <time>2023-10-04T12:17:18Z</time>
      </trkpt>
      <trkpt lat="50.05179" lon="2.1589">
        <ele>33.3</ele>
        <time>2023-10-04T12:17:19Z</time>
      </trkpt>
      <trkpt lat="50.0518" lon="2.15892">
        <ele>33.3</ele>
        <time>2023-10-04T12:17:20Z</time>
      </trkpt>
      <trkpt lat="50.0518" lon="2.15893">
        <ele>33.3</ele>
        <time>2023-10-04T12:17:21Z</time>
      </trkpt>
      <trkpt lat="50.0518" lon="2.15897">
        <ele>33.3</ele>
        <time>2023-10-04T12:17:22Z</time>
      </trkpt>
      <trkpt lat="50.05181" lon="2.15898">
        <ele>33.3</ele>
        <time>2023-10-04T12:17:24Z</time>
      </trkpt>
      <trkpt lat="50.05181" lon="2.159">
        <ele>33.3</ele>
        <time>2023-10-04T12:17:25Z</time>
      </trkpt>
      <trkpt lat="50.05181" lon="2.15902">
        <ele>33.4</ele>
        <time>2023-10-04T12:17:26Z</time>
      </trkpt>
      <trkpt lat="50.05182" lon="2.15904">
        <ele>33.4</ele>
        <time>2023-10-04T12:17:27Z</time>
      </trkpt>
      <trkpt lat="50.05182" lon="2.15906">
        <ele>33.4</ele>
        <time>2023-10-04T12:17:28Z</time>
      </trkpt>
      <trkpt lat="50.05182" lon="2.15908">
        <ele>33.4</ele>
        <time>2023-10-04T12:17:29Z</time>
      </trkpt>
      <trkpt lat="50.05183" lon="2.15911">
        <ele>33.4</ele>
        <time>2023-10-04T12:17:31Z</time>
      </trkpt>
      <trkpt lat="50.05183" lon="2.15912">
        <ele>33.4</ele>
        <time>2023-10-04T12:17:32Z</time>
      </trkpt>
      <trkpt lat="50.05183" lon="2.15914">
        <ele>33.4</ele>
        <time>2023-10-04T12:17:33Z</time>
      </trkpt>
      <trkpt lat="50.05183" lon="2.15917">
        <ele>33.4</ele>
        <time>2023-10-04T12:17:34Z</time>
      </trkpt>
      <trkpt lat="50.05184" lon="2.15918">
        <ele>33.4</ele>
        <time>2023-10-04T12:17:35Z</time>
      </trkpt>
      <trkpt lat="50.05184" lon="2.1592">
        <ele>33.5</ele>
        <time>2023-10-04T12:17:36Z</time>
      </trkpt>
      <trkpt lat="50.05184" lon="2.15922">
        <ele>33.5</ele>
        <time>2023-10-04T12:17:37Z</time>
      </trkpt>
      <trkpt lat="50.05184" lon="2.15924">
        <ele>33.5</ele>
        <time>2023-10-04T12:17:38Z</time>
      </trkpt>
      <trkpt lat="50.05185" lon="2.15928">
        <ele>33.5</ele>
        <time>2023-10-04T12:17:40Z</time>
      </trkpt>
      <trkpt lat="50.05185" lon="2.15929">
        <ele>33.5</ele>
        <time>2023-10-04T12:17:41Z</time>
      </trkpt>
      <trkpt lat="50.05185" lon="2.15933">
        <ele>33.5</ele>
        <time>2023-10-04T12:17:42Z</time>
      </trkpt>
      <trkpt lat="50.05185" lon="2.15934">
        <ele>33.5</ele>
        <time>2023-10-04T12:17:43Z</time>
      </trkpt>
      <trkpt lat="50.05185" lon="2.15935">
        <ele>33.5</ele>
        <time>2023-10-04T12:17:44Z</time>
      </trkpt>
      <trkpt lat="50.05185" lon="2.15939">
        <ele>33.6</ele>
        <time>2023-10-04T12:17:46Z</time>
      </trkpt>
      <trkpt lat="50.05185" lon="2.1594">
        <ele>33.6</ele>
        <time>2023-10-04T12:17:47Z</time>
      </trkpt>
      <trkpt lat="50.05185" lon="2.15941">
        <ele>33.6</ele>
        <time>2023-10-04T12:17:48Z</time>
      </trkpt>
      <trkpt lat="50.05185" lon="2.15943">
        <ele>33.6</ele>
        <time>2023-10-04T12:17:49Z</time>
      </trkpt>
      <trkpt lat="50.05185" lon="2.15945">
        <ele>33.6</ele>
        <time>2023-10-04T12:17:50Z</time>
      </trkpt>
      <trkpt lat="50.05185" lon="2.15946">
        <ele>33.6</ele>
        <time>2023-10-04T12:17:51Z</time>
      </trkpt>
      <trkpt lat="50.05185" lon="2.15948">
        <ele>33.6</ele>
        <time>2023-10-04T12:17:52Z</time>
      </trkpt>
      <trkpt lat="50.05185" lon="2.1595">
        <ele>33.6</ele>
        <time>2023-10-04T12:17:53Z</time>
      </trkpt>
      <trkpt lat="50.05186" lon="2.15952">
        <ele>33.6</ele>
        <time>2023-10-04T12:17:55Z</time>
      </trkpt>
      <trkpt lat="50.05186" lon="2.15953">
        <ele>33.6</ele>
        <time>2023-10-04T12:17:56Z</time>
      </trkpt>
      <trkpt lat="50.05186" lon="2.15955">
        <ele>33.6</ele>
        <time>2023-10-04T12:17:57Z</time>
      </trkpt>
      <trkpt lat="50.05187" lon="2.15957">
        <ele>33.7</ele>
        <time>2023-10-04T12:17:58Z</time>
      </trkpt>
      <trkpt lat="50.05187" lon="2.15959">
        <ele>33.7</ele>
        <time>2023-10-04T12:18:00Z</time>
      </trkpt>
      <trkpt lat="50.05187" lon="2.1596">
        <ele>33.7</ele>
        <time>2023-10-04T12:18:01Z</time>
      </trkpt>
      <trkpt lat="50.05187" lon="2.15961">
        <ele>33.7</ele>
        <time>2023-10-04T12:18:02Z</time>
      </trkpt>
      <trkpt lat="50.05187" lon="2.15962">
        <ele>33.7</ele>
        <time>2023-10-04T12:18:03Z</time>
      </trkpt>
      <trkpt lat="50.05187" lon="2.15964">
        <ele>33.7</ele>
        <time>2023-10-04T12:18:04Z</time>
      </trkpt>
      <trkpt lat="50.05187" lon="2.15966">
        <ele>33.7</ele>
        <time>2023-10-04T12:18:06Z</time>
      </trkpt>
      <trkpt lat="50.05187" lon="2.15967">
        <ele>33.7</ele>
        <time>2023-10-04T12:18:07Z</time>
      </trkpt>
      <trkpt lat="50.05187" lon="2.15969">
        <ele>33.7</ele>
        <time>2023-10-04T12:18:08Z</time>
      </trkpt>
      <trkpt lat="50.05188" lon="2.15971">
        <ele>33.7</ele>
        <time>2023-10-04T12:18:09Z</time>
      </trkpt>
      <trkpt lat="50.05188" lon="2.15973">
        <ele>33.7</ele>
        <time>2023-10-04T12:18:10Z</time>
      </trkpt>
      <trkpt lat="50.05188" lon="2.15974">
        <ele>33.7</ele>
        <time>2023-10-04T12:18:11Z</time>
      </trkpt>
      <trkpt lat="50.05188" lon="2.15976">
        <ele>33.7</ele>
        <time>2023-10-04T12:18:12Z</time>
      </trkpt>
      <trkpt lat="50.05188" lon="2.15979">
        <ele>33.7</ele>
        <time>2023-10-04T12:18:13Z</time>
      </trkpt>
      <trkpt lat="50.05188" lon="2.15981">
        <ele>33.7</ele>
        <time>2023-10-04T12:18:15Z</time>
      </trkpt>
      <trkpt lat="50.05188" lon="2.15982">
        <ele>33.7</ele>
        <time>2023-10-04T12:18:16Z</time>
      </trkpt>
      <trkpt lat="50.05188" lon="2.15985">
        <ele>33.7</ele>
        <time>2023-10-04T12:18:17Z</time>
      </trkpt>
      <trkpt lat="50.05188" lon="2.15987">
        <ele>33.6</ele>
        <time>2023-10-04T12:18:18Z</time>
      </trkpt>
      <trkpt lat="50.05188" lon="2.15988">
        <ele>33.6</ele>
        <time>2023-10-04T12:18:19Z</time>
      </trkpt>
      <trkpt lat="50.05188" lon="2.1599">
        <ele>33.6</ele>
        <time>2023-10-04T12:18:20Z</time>
      </trkpt>
      <trkpt lat="50.05188" lon="2.15992">
        <ele>33.6</ele>
        <time>2023-10-04T12:18:21Z</time>
      </trkpt>
      <trkpt lat="50.05188" lon="2.15994">
        <ele>33.6</ele>
        <time>2023-10-04T12:18:22Z</time>
      </trkpt>
      <trkpt lat="50.05188" lon="2.15995">
        <ele>33.6</ele>
        <time>2023-10-04T12:18:24Z</time>
      </trkpt>
      <trkpt lat="50.05188" lon="2.15997">
        <ele>33.6</ele>
        <time>2023-10-04T12:18:25Z</time>
      </trkpt>
      <trkpt lat="50.05188" lon="2.15999">
        <ele>33.6</ele>
        <time>2023-10-04T12:18:26Z</time>
      </trkpt>
      <trkpt lat="50.05188" lon="2.16001">
        <ele>33.6</ele>
        <time>2023-10-04T12:18:27Z</time>
      </trkpt>
      <trkpt lat="50.05188" lon="2.16003">
        <ele>33.6</ele>
        <time>2023-10-04T12:18:28Z</time>
      </trkpt>
      <trkpt lat="50.05188" lon="2.16004">
        <ele>33.6</ele>
        <time>2023-10-04T12:18:29Z</time>
      </trkpt>
      <trkpt lat="50.05188" lon="2.16006">
        <ele>33.6</ele>
        <time>2023-10-04T12:18:30Z</time>
      </trkpt>
      <trkpt lat="50.05188" lon="2.16008">
        <ele>33.6</ele>
        <time>2023-10-04T12:18:31Z</time>
      </trkpt>
      <trkpt lat="50.05188" lon="2.16012">
        <ele>33.6</ele>
        <time>2023-10-04T12:18:32Z</time>
      </trkpt>
      <trkpt lat="50.05188" lon="2.16013">
        <ele>33.6</ele>
        <time>2023-10-04T12:18:33Z</time>
      </trkpt>
      <trkpt lat="50.05188" lon="2.16014">
        <ele>33.6</ele>
        <time>2023-10-04T12:18:34Z</time>
      </trkpt>
      <trkpt lat="50.05189" lon="2.16017">
        <ele>33.6</ele>
        <time>2023-10-04T12:18:36Z</time>
      </trkpt>
      <trkpt lat="50.05189" lon="2.16019">
        <ele>33.6</ele>
        <time>2023-10-04T12:18:37Z</time>
      </trkpt>
      <trkpt lat="50.05189" lon="2.16022">
        <ele>33.6</ele>
        <time>2023-10-04T12:18:38Z</time>
      </trkpt>
      <trkpt lat="50.05189" lon="2.16024">
        <ele>33.6</ele>
        <time>2023-10-04T12:18:39Z</time>
      </trkpt>
      <trkpt lat="50.05189" lon="2.16025">
        <ele>33.6</ele>
        <time>2023-10-04T12:18:40Z</time>
      </trkpt>
      <trkpt lat="50.05189" lon="2.16028">
        <ele>33.7</ele>
        <time>2023-10-04T12:18:41Z</time>
      </trkpt>
      <trkpt lat="50.05189" lon="2.16029">
        <ele>33.7</ele>
        <time>2023-10-04T12:18:43Z</time>
      </trkpt>
      <trkpt lat="50.05189" lon="2.16031">
        <ele>33.7</ele>
        <time>2023-10-04T12:18:44Z</time>
      </trkpt>
      <trkpt lat="50.05189" lon="2.16032">
        <ele>33.7</ele>
        <time>2023-10-04T12:18:45Z</time>
      </trkpt>
      <trkpt lat="50.05189" lon="2.16034">
        <ele>33.7</ele>
        <time>2023-10-04T12:18:46Z</time>
      </trkpt>
      <trkpt lat="50.05189" lon="2.16036">
        <ele>33.7</ele>
        <time>2023-10-04T12:18:47Z</time>
      </trkpt>
      <trkpt lat="50.05189" lon="2.16038">
        <ele>33.7</ele>
        <time>2023-10-04T12:18:48Z</time>
      </trkpt>
      <trkpt lat="50.05189" lon="2.16039">
        <ele>33.7</ele>
        <time>2023-10-04T12:18:49Z</time>
      </trkpt>
      <trkpt lat="50.05189" lon="2.16042">
        <ele>33.7</ele>
        <time>2023-10-04T12:18:51Z</time>
      </trkpt>
      <trkpt lat="50.05189" lon="2.16043">
        <ele>33.7</ele>
        <time>2023-10-04T12:18:52Z</time>
      </trkpt>
      <trkpt lat="50.05189" lon="2.16045">
        <ele>33.7</ele>
        <time>2023-10-04T12:18:53Z</time>
      </trkpt>
      <trkpt lat="50.0519" lon="2.16047">
        <ele>33.7</ele>
        <time>2023-10-04T12:18:54Z</time>
      </trkpt>
      <trkpt lat="50.0519" lon="2.1605">
        <ele>33.7</ele>
        <time>2023-10-04T12:18:55Z</time>
      </trkpt>
      <trkpt lat="50.05191" lon="2.16051">
        <ele>33.7</ele>
        <time>2023-10-04T12:18:57Z</time>
      </trkpt>
      <trkpt lat="50.05191" lon="2.16053">
        <ele>33.7</ele>
        <time>2023-10-04T12:18:58Z</time>
      </trkpt>
      <trkpt lat="50.05192" lon="2.16055">
        <ele>33.7</ele>
        <time>2023-10-04T12:18:59Z</time>
      </trkpt>
      <trkpt lat="50.05192" lon="2.16057">
        <ele>33.7</ele>
        <time>2023-10-04T12:19:00Z</time>
      </trkpt>
      <trkpt lat="50.05193" lon="2.16058">
        <ele>33.7</ele>
        <time>2023-10-04T12:19:01Z</time>
      </trkpt>
      <trkpt lat="50.05193" lon="2.1606">
        <ele>33.7</ele>
        <time>2023-10-04T12:19:02Z</time>
      </trkpt>
      <trkpt lat="50.05194" lon="2.16062">
        <ele>33.7</ele>
        <time>2023-10-04T12:19:03Z</time>
      </trkpt>
      <trkpt lat="50.05194" lon="2.16064">
        <ele>33.7</ele>
        <time>2023-10-04T12:19:04Z</time>
      </trkpt>
      <trkpt lat="50.05194" lon="2.16066">
        <ele>33.7</ele>
        <time>2023-10-04T12:19:05Z</time>
      </trkpt>
      <trkpt lat="50.05195" lon="2.16069">
        <ele>33.7</ele>
        <time>2023-10-04T12:19:07Z</time>
      </trkpt>
      <trkpt lat="50.05195" lon="2.1607">
        <ele>33.7</ele>
        <time>2023-10-04T12:19:08Z</time>
      </trkpt>
      <trkpt lat="50.05195" lon="2.16072">
        <ele>33.7</ele>
        <time>2023-10-04T12:19:09Z</time>
      </trkpt>
      <trkpt lat="50.05196" lon="2.16075">
        <ele>33.7</ele>
        <time>2023-10-04T12:19:10Z</time>
      </trkpt>
      <trkpt lat="50.05196" lon="2.16076">
        <ele>33.7</ele>
        <time>2023-10-04T12:19:11Z</time>
      </trkpt>
      <trkpt lat="50.05196" lon="2.16077">
        <ele>33.7</ele>
        <time>2023-10-04T12:19:12Z</time>
      </trkpt>
      <trkpt lat="50.05196" lon="2.16079">
        <ele>33.7</ele>
        <time>2023-10-04T12:19:13Z</time>
      </trkpt>
      <trkpt lat="50.05197" lon="2.16081">
        <ele>33.7</ele>
        <time>2023-10-04T12:19:14Z</time>
      </trkpt>
      <trkpt lat="50.05197" lon="2.16082">
        <ele>33.7</ele>
        <time>2023-10-04T12:19:15Z</time>
      </trkpt>
      <trkpt lat="50.05197" lon="2.16085">
        <ele>33.7</ele>
        <time>2023-10-04T12:19:17Z</time>
      </trkpt>
      <trkpt lat="50.05197" lon="2.16087">
        <ele>33.7</ele>
        <time>2023-10-04T12:19:18Z</time>
      </trkpt>
      <trkpt lat="50.05198" lon="2.1609">
        <ele>33.7</ele>
        <time>2023-10-04T12:19:19Z</time>
      </trkpt>
      <trkpt lat="50.05198" lon="2.16091">
        <ele>33.7</ele>
        <time>2023-10-04T12:19:20Z</time>
      </trkpt>
      <trkpt lat="50.05198" lon="2.16092">
        <ele>33.7</ele>
        <time>2023-10-04T12:19:21Z</time>
      </trkpt>
      <trkpt lat="50.05198" lon="2.16094">
        <ele>33.7</ele>
        <time>2023-10-04T12:19:23Z</time>
      </trkpt>
      <trkpt lat="50.05198" lon="2.16095">
        <ele>33.7</ele>
        <time>2023-10-04T12:19:24Z</time>
      </trkpt>
      <trkpt lat="50.05198" lon="2.16097">
        <ele>33.7</ele>
        <time>2023-10-04T12:19:25Z</time>
      </trkpt>
      <trkpt lat="50.05198" lon="2.16098">
        <ele>33.8</ele>
        <time>2023-10-04T12:19:26Z</time>
      </trkpt>
      <trkpt lat="50.05198" lon="2.161">
        <ele>33.8</ele>
        <time>2023-10-04T12:19:27Z</time>
      </trkpt>
      <trkpt lat="50.05198" lon="2.16101">
        <ele>33.8</ele>
        <time>2023-10-04T12:19:28Z</time>
      </trkpt>
      <trkpt lat="50.05198" lon="2.16103">
        <ele>33.8</ele>
        <time>2023-10-04T12:19:29Z</time>
      </trkpt>
      <trkpt lat="50.05197" lon="2.16106">
        <ele>33.8</ele>
        <time>2023-10-04T12:19:31Z</time>
      </trkpt>
      <trkpt lat="50.05197" lon="2.16108">
        <ele>33.8</ele>
        <time>2023-10-04T12:19:32Z</time>
      </trkpt>
      <trkpt lat="50.05197" lon="2.16109">
        <ele>33.8</ele>
        <time>2023-10-04T12:19:33Z</time>
      </trkpt>
      <trkpt lat="50.05197" lon="2.16111">
        <ele>33.8</ele>
        <time>2023-10-04T12:19:34Z</time>
      </trkpt>
      <trkpt lat="50.05196" lon="2.16114">
        <ele>33.8</ele>
        <time>2023-10-04T12:19:36Z</time>
      </trkpt>
      <trkpt lat="50.05196" lon="2.16116">
        <ele>33.8</ele>
        <time>2023-10-04T12:19:37Z</time>
      </trkpt>
      <trkpt lat="50.05196" lon="2.16118">
        <ele>33.8</ele>
        <time>2023-10-04T12:19:38Z</time>
      </trkpt>
      <trkpt lat="50.05196" lon="2.16121">
        <ele>33.8</ele>
        <time>2023-10-04T12:19:39Z</time>
      </trkpt>
      <trkpt lat="50.05197" lon="2.16123">
        <ele>33.8</ele>
        <time>2023-10-04T12:19:40Z</time>
      </trkpt>
      <trkpt lat="50.05197" lon="2.16126">
        <ele>33.9</ele>
        <time>2023-10-04T12:19:41Z</time>
      </trkpt>
      <trkpt lat="50.05198" lon="2.1613">
        <ele>33.9</ele>
        <time>2023-10-04T12:19:42Z</time>
      </trkpt>
      <trkpt lat="50.05198" lon="2.16132">
        <ele>33.9</ele>
        <time>2023-10-04T12:19:44Z</time>
      </trkpt>
      <trkpt lat="50.05198" lon="2.16133">
        <ele>33.9</ele>
        <time>2023-10-04T12:19:45Z</time>
      </trkpt>
      <trkpt lat="50.05198" lon="2.16135">
        <ele>33.9</ele>
        <time>2023-10-04T12:19:46Z</time>
      </trkpt>
      <trkpt lat="50.05199" lon="2.16136">
        <ele>33.9</ele>
        <time>2023-10-04T12:19:47Z</time>
      </trkpt>
      <trkpt lat="50.05199" lon="2.1614">
        <ele>33.9</ele>
        <time>2023-10-04T12:19:48Z</time>
      </trkpt>
      <trkpt lat="50.052" lon="2.16141">
        <ele>33.9</ele>
        <time>2023-10-04T12:19:49Z</time>
      </trkpt>
      <trkpt lat="50.052" lon="2.16142">
        <ele>33.9</ele>
        <time>2023-10-04T12:19:50Z</time>
      </trkpt>
      <trkpt lat="50.052" lon="2.16144">
        <ele>33.9</ele>
        <time>2023-10-04T12:19:51Z</time>
      </trkpt>
      <trkpt lat="50.05201" lon="2.16147">
        <ele>33.9</ele>
        <time>2023-10-04T12:19:53Z</time>
      </trkpt>
      <trkpt lat="50.05201" lon="2.16149">
        <ele>33.9</ele>
        <time>2023-10-04T12:19:54Z</time>
      </trkpt>
      <trkpt lat="50.05201" lon="2.1615">
        <ele>33.9</ele>
        <time>2023-10-04T12:19:55Z</time>
      </trkpt>
      <trkpt lat="50.05202" lon="2.16152">
        <ele>33.9</ele>
        <time>2023-10-04T12:19:56Z</time>
      </trkpt>
      <trkpt lat="50.05203" lon="2.16155">
        <ele>33.9</ele>
        <time>2023-10-04T12:19:57Z</time>
      </trkpt>
      <trkpt lat="50.05203" lon="2.16157">
        <ele>33.9</ele>
        <time>2023-10-04T12:19:58Z</time>
      </trkpt>
      <trkpt lat="50.05203" lon="2.16158">
        <ele>33.9</ele>
        <time>2023-10-04T12:20:00Z</time>
      </trkpt>
      <trkpt lat="50.05204" lon="2.1616">
        <ele>33.9</ele>
        <time>2023-10-04T12:20:01Z</time>
      </trkpt>
      <trkpt lat="50.05204" lon="2.16161">
        <ele>33.9</ele>
        <time>2023-10-04T12:20:02Z</time>
      </trkpt>
      <trkpt lat="50.05204" lon="2.16163">
        <ele>33.9</ele>
        <time>2023-10-04T12:20:03Z</time>
      </trkpt>
      <trkpt lat="50.05205" lon="2.16166">
        <ele>33.9</ele>
        <time>2023-10-04T12:20:04Z</time>
      </trkpt>
      <trkpt lat="50.05205" lon="2.16167">
        <ele>33.9</ele>
        <time>2023-10-04T12:20:05Z</time>
      </trkpt>
      <trkpt lat="50.05205" lon="2.16168">
        <ele>33.9</ele>
        <time>2023-10-04T12:20:06Z</time>
      </trkpt>
      <trkpt lat="50.05206" lon="2.16171">
        <ele>33.9</ele>
        <time>2023-10-04T12:20:07Z</time>
      </trkpt>
      <trkpt lat="50.05206" lon="2.16173">
        <ele>33.9</ele>
        <time>2023-10-04T12:20:08Z</time>
      </trkpt>
      <trkpt lat="50.05207" lon="2.16177">
        <ele>33.9</ele>
        <time>2023-10-04T12:20:10Z</time>
      </trkpt>
      <trkpt lat="50.05207" lon="2.16179">
        <ele>33.9</ele>
        <time>2023-10-04T12:20:11Z</time>
      </trkpt>
      <trkpt lat="50.05207" lon="2.16182">
        <ele>33.9</ele>
        <time>2023-10-04T12:20:12Z</time>
      </trkpt>
      <trkpt lat="50.05208" lon="2.16184">
        <ele>33.9</ele>
        <time>2023-10-04T12:20:13Z</time>
      </trkpt>
      <trkpt lat="50.05208" lon="2.16188">
        <ele>33.9</ele>
        <time>2023-10-04T12:20:15Z</time>
      </trkpt>
      <trkpt lat="50.05208" lon="2.1619">
        <ele>33.9</ele>
        <time>2023-10-04T12:20:16Z</time>
      </trkpt>
      <trkpt lat="50.05208" lon="2.16192">
        <ele>33.9</ele>
        <time>2023-10-04T12:20:17Z</time>
      </trkpt>
      <trkpt lat="50.05208" lon="2.16194">
        <ele>33.9</ele>
        <time>2023-10-04T12:20:18Z</time>
      </trkpt>
      <trkpt lat="50.05208" lon="2.16197">
        <ele>33.9</ele>
        <time>2023-10-04T12:20:19Z</time>
      </trkpt>
      <trkpt lat="50.05208" lon="2.16199">
        <ele>33.9</ele>
        <time>2023-10-04T12:20:21Z</time>
      </trkpt>
      <trkpt lat="50.05208" lon="2.16201">
        <ele>33.9</ele>
        <time>2023-10-04T12:20:22Z</time>
      </trkpt>
      <trkpt lat="50.05209" lon="2.16204">
        <ele>33.9</ele>
        <time>2023-10-04T12:20:23Z</time>
      </trkpt>
      <trkpt lat="50.05209" lon="2.16207">
        <ele>33.9</ele>
        <time>2023-10-04T12:20:24Z</time>
      </trkpt>
      <trkpt lat="50.05209" lon="2.16208">
        <ele>33.9</ele>
        <time>2023-10-04T12:20:25Z</time>
      </trkpt>
      <trkpt lat="50.05209" lon="2.16209">
        <ele>33.9</ele>
        <time>2023-10-04T12:20:26Z</time>
      </trkpt>
      <trkpt lat="50.05209" lon="2.16211">
        <ele>33.9</ele>
        <time>2023-10-04T12:20:27Z</time>
      </trkpt>
      <trkpt lat="50.0521" lon="2.16213">
        <ele>33.9</ele>
        <time>2023-10-04T12:20:28Z</time>
      </trkpt>
      <trkpt lat="50.0521" lon="2.16216">
        <ele>33.9</ele>
        <time>2023-10-04T12:20:30Z</time>
      </trkpt>
      <trkpt lat="50.0521" lon="2.16219">
        <ele>33.9</ele>
        <time>2023-10-04T12:20:31Z</time>
      </trkpt>
      <trkpt lat="50.0521" lon="2.1622">
        <ele>33.9</ele>
        <time>2023-10-04T12:20:32Z</time>
      </trkpt>
      <trkpt lat="50.0521" lon="2.16222">
        <ele>33.9</ele>
        <time>2023-10-04T12:20:33Z</time>
      </trkpt>
      <trkpt lat="50.05211" lon="2.16223">
        <ele>33.9</ele>
        <time>2023-10-04T12:20:35Z</time>
      </trkpt>
      <trkpt lat="50.0521" lon="2.16225">
        <ele>33.9</ele>
        <time>2023-10-04T12:20:36Z</time>
      </trkpt>
      <trkpt lat="50.0521" lon="2.16226">
        <ele>33.9</ele>
        <time>2023-10-04T12:20:37Z</time>
      </trkpt>
      <trkpt lat="50.0521" lon="2.16228">
        <ele>33.9</ele>
        <time>2023-10-04T12:20:38Z</time>
      </trkpt>
      <trkpt lat="50.0521" lon="2.1623">
        <ele>33.9</ele>
        <time>2023-10-04T12:20:40Z</time>
      </trkpt>
      <trkpt lat="50.0521" lon="2.16232">
        <ele>33.9</ele>
        <time>2023-10-04T12:20:41Z</time>
      </trkpt>
      <trkpt lat="50.0521" lon="2.16233">
        <ele>33.9</ele>
        <time>2023-10-04T12:20:42Z</time>
      </trkpt>
      <trkpt lat="50.0521" lon="2.16235">
        <ele>34</ele>
        <time>2023-10-04T12:20:43Z</time>
      </trkpt>
      <trkpt lat="50.0521" lon="2.16236">
        <ele>34</ele>
        <time>2023-10-04T12:20:44Z</time>
      </trkpt>
      <trkpt lat="50.0521" lon="2.16239">
        <ele>34</ele>
        <time>2023-10-04T12:20:45Z</time>
      </trkpt>
      <trkpt lat="50.0521" lon="2.16241">
        <ele>34</ele>
        <time>2023-10-04T12:20:46Z</time>
      </trkpt>
      <trkpt lat="50.0521" lon="2.16242">
        <ele>34</ele>
        <time>2023-10-04T12:20:48Z</time>
      </trkpt>
      <trkpt lat="50.0521" lon="2.16244">
        <ele>34</ele>
        <time>2023-10-04T12:20:49Z</time>
      </trkpt>
      <trkpt lat="50.0521" lon="2.16245">
        <ele>34</ele>
        <time>2023-10-04T12:20:50Z</time>
      </trkpt>
      <trkpt lat="50.0521" lon="2.16247">
        <ele>34</ele>
        <time>2023-10-04T12:20:51Z</time>
      </trkpt>
      <trkpt lat="50.0521" lon="2.16248">
        <ele>34</ele>
        <time>2023-10-04T12:20:52Z</time>
      </trkpt>
      <trkpt lat="50.0521" lon="2.1625">
        <ele>34</ele>
        <time>2023-10-04T12:20:53Z</time>
      </trkpt>
      <trkpt lat="50.0521" lon="2.16252">
        <ele>34</ele>
        <time>2023-10-04T12:20:54Z</time>
      </trkpt>
      <trkpt lat="50.05209" lon="2.16255">
        <ele>34</ele>
        <time>2023-10-04T12:20:56Z</time>
      </trkpt>
      <trkpt lat="50.05209" lon="2.16256">
        <ele>34</ele>
        <time>2023-10-04T12:20:57Z</time>
      </trkpt>
      <trkpt lat="50.05209" lon="2.16257">
        <ele>34</ele>
        <time>2023-10-04T12:20:58Z</time>
      </trkpt>
      <trkpt lat="50.05209" lon="2.16259">
        <ele>34.1</ele>
        <time>2023-10-04T12:20:59Z</time>
      </trkpt>
      <trkpt lat="50.05209" lon="2.16261">
        <ele>34.1</ele>
        <time>2023-10-04T12:21:00Z</time>
      </trkpt>
      <trkpt lat="50.05209" lon="2.16262">
        <ele>34.1</ele>
        <time>2023-10-04T12:21:01Z</time>
      </trkpt>
      <trkpt lat="50.05209" lon="2.16264">
        <ele>34.1</ele>
        <time>2023-10-04T12:21:02Z</time>
      </trkpt>
      <trkpt lat="50.05209" lon="2.16265">
        <ele>34.1</ele>
        <time>2023-10-04T12:21:03Z</time>
      </trkpt>
      <trkpt lat="50.05209" lon="2.16267">
        <ele>34.1</ele>
        <time>2023-10-04T12:21:04Z</time>
      </trkpt>
      <trkpt lat="50.0521" lon="2.1627">
        <ele>34.1</ele>
        <time>2023-10-04T12:21:06Z</time>
      </trkpt>
      <trkpt lat="50.0521" lon="2.16272">
        <ele>34.1</ele>
        <time>2023-10-04T12:21:07Z</time>
      </trkpt>
      <trkpt lat="50.0521" lon="2.16273">
        <ele>34.1</ele>
        <time>2023-10-04T12:21:08Z</time>
      </trkpt>
      <trkpt lat="50.0521" lon="2.16277">
        <ele>34.1</ele>
        <time>2023-10-04T12:21:09Z</time>
      </trkpt>
      <trkpt lat="50.0521" lon="2.16278">
        <ele>34.1</ele>
        <time>2023-10-04T12:21:10Z</time>
      </trkpt>
      <trkpt lat="50.0521" lon="2.16279">
        <ele>34.1</ele>
        <time>2023-10-04T12:21:11Z</time>
      </trkpt>
      <trkpt lat="50.0521" lon="2.16282">
        <ele>34.2</ele>
        <time>2023-10-04T12:21:12Z</time>
      </trkpt>
      <trkpt lat="50.0521" lon="2.16284">
        <ele>34.2</ele>
        <time>2023-10-04T12:21:13Z</time>
      </trkpt>
      <trkpt lat="50.0521" lon="2.16285">
        <ele>34.2</ele>
        <time>2023-10-04T12:21:14Z</time>
      </trkpt>
      <trkpt lat="50.0521" lon="2.16287">
        <ele>34.2</ele>
        <time>2023-10-04T12:21:16Z</time>
      </trkpt>
      <trkpt lat="50.0521" lon="2.1629">
        <ele>34.2</ele>
        <time>2023-10-04T12:21:17Z</time>
      </trkpt>
      <trkpt lat="50.0521" lon="2.16292">
        <ele>34.2</ele>
        <time>2023-10-04T12:21:18Z</time>
      </trkpt>
      <trkpt lat="50.05211" lon="2.16294">
        <ele>34.2</ele>
        <time>2023-10-04T12:21:19Z</time>
      </trkpt>
      <trkpt lat="50.05211" lon="2.16298">
        <ele>34.2</ele>
        <time>2023-10-04T12:21:20Z</time>
      </trkpt>
      <trkpt lat="50.05211" lon="2.16299">
        <ele>34.2</ele>
        <time>2023-10-04T12:21:21Z</time>
      </trkpt>
      <trkpt lat="50.05211" lon="2.163">
        <ele>34.2</ele>
        <time>2023-10-04T12:21:22Z</time>
      </trkpt>
      <trkpt lat="50.05211" lon="2.16304">
        <ele>34.2</ele>
        <time>2023-10-04T12:21:23Z</time>
      </trkpt>
      <trkpt lat="50.05211" lon="2.16305">
        <ele>34.2</ele>
        <time>2023-10-04T12:21:25Z</time>
      </trkpt>
      <trkpt lat="50.05211" lon="2.16306">
        <ele>34.2</ele>
        <time>2023-10-04T12:21:26Z</time>
      </trkpt>
      <trkpt lat="50.05212" lon="2.16309">
        <ele>34.2</ele>
        <time>2023-10-04T12:21:27Z</time>
      </trkpt>
      <trkpt lat="50.05212" lon="2.16311">
        <ele>34.2</ele>
        <time>2023-10-04T12:21:28Z</time>
      </trkpt>
      <trkpt lat="50.05212" lon="2.16313">
        <ele>34.2</ele>
        <time>2023-10-04T12:21:29Z</time>
      </trkpt>
      <trkpt lat="50.05213" lon="2.16315">
        <ele>34.2</ele>
        <time>2023-10-04T12:21:30Z</time>
      </trkpt>
      <trkpt lat="50.05213" lon="2.16318">
        <ele>34.2</ele>
        <time>2023-10-04T12:21:31Z</time>
      </trkpt>
      <trkpt lat="50.05213" lon="2.1632">
        <ele>34.2</ele>
        <time>2023-10-04T12:21:32Z</time>
      </trkpt>
      <trkpt lat="50.05214" lon="2.16324">
        <ele>34.3</ele>
        <time>2023-10-04T12:21:34Z</time>
      </trkpt>
      <trkpt lat="50.05214" lon="2.16325">
        <ele>34.3</ele>
        <time>2023-10-04T12:21:35Z</time>
      </trkpt>
      <trkpt lat="50.05215" lon="2.16328">
        <ele>34.3</ele>
        <time>2023-10-04T12:21:37Z</time>
      </trkpt>
      <trkpt lat="50.05215" lon="2.1633">
        <ele>34.3</ele>
        <time>2023-10-04T12:21:38Z</time>
      </trkpt>
      <trkpt lat="50.05216" lon="2.16333">
        <ele>34.3</ele>
        <time>2023-10-04T12:21:39Z</time>
      </trkpt>
      <trkpt lat="50.05216" lon="2.16335">
        <ele>34.3</ele>
        <time>2023-10-04T12:21:40Z</time>
      </trkpt>
      <trkpt lat="50.05216" lon="2.16336">
        <ele>34.3</ele>
        <time>2023-10-04T12:21:41Z</time>
      </trkpt>
      <trkpt lat="50.05216" lon="2.16339">
        <ele>34.3</ele>
        <time>2023-10-04T12:21:42Z</time>
      </trkpt>
      <trkpt lat="50.05217" lon="2.1634">
        <ele>34.3</ele>
        <time>2023-10-04T12:21:43Z</time>
      </trkpt>
      <trkpt lat="50.05217" lon="2.16342">
        <ele>34.3</ele>
        <time>2023-10-04T12:21:44Z</time>
      </trkpt>
      <trkpt lat="50.05217" lon="2.16343">
        <ele>34.3</ele>
        <time>2023-10-04T12:21:46Z</time>
      </trkpt>
      <trkpt lat="50.05217" lon="2.16345">
        <ele>34.3</ele>
        <time>2023-10-04T12:21:47Z</time>
      </trkpt>
      <trkpt lat="50.05217" lon="2.16346">
        <ele>34.3</ele>
        <time>2023-10-04T12:21:48Z</time>
      </trkpt>
      <trkpt lat="50.05217" lon="2.16348">
        <ele>34.3</ele>
        <time>2023-10-04T12:21:49Z</time>
      </trkpt>
      <trkpt lat="50.05217" lon="2.16349">
        <ele>34.3</ele>
        <time>2023-10-04T12:21:50Z</time>
      </trkpt>
      <trkpt lat="50.05217" lon="2.16351">
        <ele>34.3</ele>
        <time>2023-10-04T12:21:51Z</time>
      </trkpt>
      <trkpt lat="50.05216" lon="2.16354">
        <ele>34.4</ele>
        <time>2023-10-04T12:21:52Z</time>
      </trkpt>
      <trkpt lat="50.05216" lon="2.16355">
        <ele>34.4</ele>
        <time>2023-10-04T12:21:53Z</time>
      </trkpt>
      <trkpt lat="50.05216" lon="2.16356">
        <ele>34.4</ele>
        <time>2023-10-04T12:21:54Z</time>
      </trkpt>
      <trkpt lat="50.05216" lon="2.16358">
        <ele>34.4</ele>
        <time>2023-10-04T12:21:56Z</time>
      </trkpt>
      <trkpt lat="50.05215" lon="2.1636">
        <ele>34.4</ele>
        <time>2023-10-04T12:21:57Z</time>
      </trkpt>
      <trkpt lat="50.05215" lon="2.16362">
        <ele>34.4</ele>
        <time>2023-10-04T12:21:58Z</time>
      </trkpt>
      <trkpt lat="50.05215" lon="2.16363">
        <ele>34.4</ele>
        <time>2023-10-04T12:21:59Z</time>
      </trkpt>
      <trkpt lat="50.05215" lon="2.16365">
        <ele>34.4</ele>
        <time>2023-10-04T12:22:00Z</time>
      </trkpt>
      <trkpt lat="50.05215" lon="2.16367">
        <ele>34.4</ele>
        <time>2023-10-04T12:22:01Z</time>
      </trkpt>
      <trkpt lat="50.05214" lon="2.16369">
        <ele>34.4</ele>
        <time>2023-10-04T12:22:02Z</time>
      </trkpt>
      <trkpt lat="50.05214" lon="2.16372">
        <ele>34.4</ele>
        <time>2023-10-04T12:22:04Z</time>
      </trkpt>
      <trkpt lat="50.05214" lon="2.16373">
        <ele>34.4</ele>
        <time>2023-10-04T12:22:05Z</time>
      </trkpt>
      <trkpt lat="50.05214" lon="2.16375">
        <ele>34.4</ele>
        <time>2023-10-04T12:22:06Z</time>
      </trkpt>
      <trkpt lat="50.05214" lon="2.16377">
        <ele>34.4</ele>
        <time>2023-10-04T12:22:07Z</time>
      </trkpt>
      <trkpt lat="50.05214" lon="2.16378">
        <ele>34.4</ele>
        <time>2023-10-04T12:22:08Z</time>
      </trkpt>
      <trkpt lat="50.05214" lon="2.1638">
        <ele>34.4</ele>
        <time>2023-10-04T12:22:10Z</time>
      </trkpt>
      <trkpt lat="50.05214" lon="2.16382">
        <ele>34.4</ele>
        <time>2023-10-04T12:22:11Z</time>
      </trkpt>
      <trkpt lat="50.05214" lon="2.16384">
        <ele>34.4</ele>
        <time>2023-10-04T12:22:12Z</time>
      </trkpt>
      <trkpt lat="50.05214" lon="2.16385">
        <ele>34.4</ele>
        <time>2023-10-04T12:22:13Z</time>
      </trkpt>
      <trkpt lat="50.05214" lon="2.16387">
        <ele>34.4</ele>
        <time>2023-10-04T12:22:14Z</time>
      </trkpt>
      <trkpt lat="50.05214" lon="2.16389">
        <ele>34.4</ele>
        <time>2023-10-04T12:22:15Z</time>
      </trkpt>
      <trkpt lat="50.05214" lon="2.1639">
        <ele>34.4</ele>
        <time>2023-10-04T12:22:16Z</time>
      </trkpt>
      <trkpt lat="50.05214" lon="2.16392">
        <ele>34.4</ele>
        <time>2023-10-04T12:22:17Z</time>
      </trkpt>
      <trkpt lat="50.05214" lon="2.16395">
        <ele>34.5</ele>
        <time>2023-10-04T12:22:18Z</time>
      </trkpt>
      <trkpt lat="50.05215" lon="2.16397">
        <ele>34.5</ele>
        <time>2023-10-04T12:22:20Z</time>
      </trkpt>
      <trkpt lat="50.05215" lon="2.16398">
        <ele>34.5</ele>
        <time>2023-10-04T12:22:21Z</time>
      </trkpt>
      <trkpt lat="50.05215" lon="2.16401">
        <ele>34.5</ele>
        <time>2023-10-04T12:22:22Z</time>
      </trkpt>
      <trkpt lat="50.05215" lon="2.16403">
        <ele>34.5</ele>
        <time>2023-10-04T12:22:23Z</time>
      </trkpt>
      <trkpt lat="50.05215" lon="2.16404">
        <ele>34.5</ele>
        <time>2023-10-04T12:22:24Z</time>
      </trkpt>
      <trkpt lat="50.05216" lon="2.16407">
        <ele>34.5</ele>
        <time>2023-10-04T12:22:25Z</time>
      </trkpt>
      <trkpt lat="50.05216" lon="2.16408">
        <ele>34.5</ele>
        <time>2023-10-04T12:22:26Z</time>
      </trkpt>
      <trkpt lat="50.05217" lon="2.16409">
        <ele>34.5</ele>
        <time>2023-10-04T12:22:27Z</time>
      </trkpt>
      <trkpt lat="50.05217" lon="2.16413">
        <ele>34.5</ele>
        <time>2023-10-04T12:22:28Z</time>
      </trkpt>
      <trkpt lat="50.05217" lon="2.16414">
        <ele>34.5</ele>
        <time>2023-10-04T12:22:30Z</time>
      </trkpt>
      <trkpt lat="50.05217" lon="2.16415">
        <ele>34.5</ele>
        <time>2023-10-04T12:22:31Z</time>
      </trkpt>
      <trkpt lat="50.05218" lon="2.16419">
        <ele>34.5</ele>
        <time>2023-10-04T12:22:32Z</time>
      </trkpt>
      <trkpt lat="50.05218" lon="2.1642">
        <ele>34.5</ele>
        <time>2023-10-04T12:22:33Z</time>
      </trkpt>
      <trkpt lat="50.05218" lon="2.16422">
        <ele>34.5</ele>
        <time>2023-10-04T12:22:34Z</time>
      </trkpt>
      <trkpt lat="50.05219" lon="2.16425">
        <ele>34.5</ele>
        <time>2023-10-04T12:22:36Z</time>
      </trkpt>
      <trkpt lat="50.05219" lon="2.16426">
        <ele>34.5</ele>
        <time>2023-10-04T12:22:37Z</time>
      </trkpt>
      <trkpt lat="50.05219" lon="2.16427">
        <ele>34.5</ele>
        <time>2023-10-04T12:22:38Z</time>
      </trkpt>
      <trkpt lat="50.05219" lon="2.16431">
        <ele>34.6</ele>
        <time>2023-10-04T12:22:39Z</time>
      </trkpt>
      <trkpt lat="50.05219" lon="2.16432">
        <ele>34.6</ele>
        <time>2023-10-04T12:22:41Z</time>
      </trkpt>
      <trkpt lat="50.0522" lon="2.16434">
        <ele>34.6</ele>
        <time>2023-10-04T12:22:42Z</time>
      </trkpt>
      <trkpt lat="50.0522" lon="2.16436">
        <ele>34.6</ele>
        <time>2023-10-04T12:22:43Z</time>
      </trkpt>
      <trkpt lat="50.0522" lon="2.16438">
        <ele>34.6</ele>
        <time>2023-10-04T12:22:44Z</time>
      </trkpt>
      <trkpt lat="50.0522" lon="2.16439">
        <ele>34.6</ele>
        <time>2023-10-04T12:22:45Z</time>
      </trkpt>
      <trkpt lat="50.0522" lon="2.16441">
        <ele>34.6</ele>
        <time>2023-10-04T12:22:46Z</time>
      </trkpt>
      <trkpt lat="50.0522" lon="2.16442">
        <ele>34.6</ele>
        <time>2023-10-04T12:22:47Z</time>
      </trkpt>
      <trkpt lat="50.0522" lon="2.16445">
        <ele>34.6</ele>
        <time>2023-10-04T12:22:49Z</time>
      </trkpt>
      <trkpt lat="50.0522" lon="2.16446">
        <ele>34.6</ele>
        <time>2023-10-04T12:22:50Z</time>
      </trkpt>
      <trkpt lat="50.0522" lon="2.16448">
        <ele>34.6</ele>
        <time>2023-10-04T12:22:51Z</time>
      </trkpt>
      <trkpt lat="50.0522" lon="2.1645">
        <ele>34.6</ele>
        <time>2023-10-04T12:22:52Z</time>
      </trkpt>
      <trkpt lat="50.0522" lon="2.16452">
        <ele>34.6</ele>
        <time>2023-10-04T12:22:54Z</time>
      </trkpt>
      <trkpt lat="50.0522" lon="2.16453">
        <ele>34.6</ele>
        <time>2023-10-04T12:22:55Z</time>
      </trkpt>
      <trkpt lat="50.0522" lon="2.16455">
        <ele>34.6</ele>
        <time>2023-10-04T12:22:56Z</time>
      </trkpt>
      <trkpt lat="50.0522" lon="2.16457">
        <ele>34.6</ele>
        <time>2023-10-04T12:22:57Z</time>
      </trkpt>
      <trkpt lat="50.0522" lon="2.16459">
        <ele>34.6</ele>
        <time>2023-10-04T12:22:58Z</time>
      </trkpt>
      <trkpt lat="50.0522" lon="2.1646">
        <ele>34.6</ele>
        <time>2023-10-04T12:22:59Z</time>
      </trkpt>
      <trkpt lat="50.0522" lon="2.16462">
        <ele>34.6</ele>
        <time>2023-10-04T12:23:00Z</time>
      </trkpt>
      <trkpt lat="50.0522" lon="2.16464">
        <ele>34.6</ele>
        <time>2023-10-04T12:23:01Z</time>
      </trkpt>
      <trkpt lat="50.0522" lon="2.16466">
        <ele>34.6</ele>
        <time>2023-10-04T12:23:03Z</time>
      </trkpt>
      <trkpt lat="50.0522" lon="2.16468">
        <ele>34.6</ele>
        <time>2023-10-04T12:23:04Z</time>
      </trkpt>
      <trkpt lat="50.0522" lon="2.16469">
        <ele>34.6</ele>
        <time>2023-10-04T12:23:05Z</time>
      </trkpt>
      <trkpt lat="50.0522" lon="2.1647">
        <ele>34.6</ele>
        <time>2023-10-04T12:23:06Z</time>
      </trkpt>
      <trkpt lat="50.0522" lon="2.16472">
        <ele>34.6</ele>
        <time>2023-10-04T12:23:08Z</time>
      </trkpt>
      <trkpt lat="50.0522" lon="2.16474">
        <ele>34.6</ele>
        <time>2023-10-04T12:23:09Z</time>
      </trkpt>
      <trkpt lat="50.0522" lon="2.16476">
        <ele>34.6</ele>
        <time>2023-10-04T12:23:10Z</time>
      </trkpt>
      <trkpt lat="50.0522" lon="2.16478">
        <ele>34.6</ele>
        <time>2023-10-04T12:23:11Z</time>
      </trkpt>
      <trkpt lat="50.0522" lon="2.1648">
        <ele>34.6</ele>
        <time>2023-10-04T12:23:12Z</time>
      </trkpt>
      <trkpt lat="50.0522" lon="2.16481">
        <ele>34.6</ele>
        <time>2023-10-04T12:23:13Z</time>
      </trkpt>
      <trkpt lat="50.0522" lon="2.16484">
        <ele>34.6</ele>
        <time>2023-10-04T12:23:14Z</time>
      </trkpt>
      <trkpt lat="50.0522" lon="2.16486">
        <ele>34.6</ele>
        <time>2023-10-04T12:23:15Z</time>
      </trkpt>
      <trkpt lat="50.0522" lon="2.16487">
        <ele>34.6</ele>
        <time>2023-10-04T12:23:17Z</time>
      </trkpt>
      <trkpt lat="50.0522" lon="2.16489">
        <ele>34.6</ele>
        <time>2023-10-04T12:23:18Z</time>
      </trkpt>
      <trkpt lat="50.0522" lon="2.1649">
        <ele>34.6</ele>
        <time>2023-10-04T12:23:19Z</time>
      </trkpt>
      <trkpt lat="50.0522" lon="2.16492">
        <ele>34.6</ele>
        <time>2023-10-04T12:23:20Z</time>
      </trkpt>
      <trkpt lat="50.0522" lon="2.16494">
        <ele>34.6</ele>
        <time>2023-10-04T12:23:21Z</time>
      </trkpt>
      <trkpt lat="50.0522" lon="2.16495">
        <ele>34.6</ele>
        <time>2023-10-04T12:23:22Z</time>
      </trkpt>
      <trkpt lat="50.0522" lon="2.16497">
        <ele>34.6</ele>
        <time>2023-10-04T12:23:23Z</time>
      </trkpt>
      <trkpt lat="50.0522" lon="2.165">
        <ele>34.6</ele>
        <time>2023-10-04T12:23:24Z</time>
      </trkpt>
      <trkpt lat="50.0522" lon="2.16501">
        <ele>34.6</ele>
        <time>2023-10-04T12:23:25Z</time>
      </trkpt>
      <trkpt lat="50.0522" lon="2.16503">
        <ele>34.6</ele>
        <time>2023-10-04T12:23:27Z</time>
      </trkpt>
      <trkpt lat="50.0522" lon="2.16505">
        <ele>34.6</ele>
        <time>2023-10-04T12:23:28Z</time>
      </trkpt>
      <trkpt lat="50.0522" lon="2.16506">
        <ele>34.6</ele>
        <time>2023-10-04T12:23:29Z</time>
      </trkpt>
      <trkpt lat="50.05221" lon="2.16508">
        <ele>34.6</ele>
        <time>2023-10-04T12:23:30Z</time>
      </trkpt>
      <trkpt lat="50.05221" lon="2.16509">
        <ele>34.6</ele>
        <time>2023-10-04T12:23:31Z</time>
      </trkpt>
      <trkpt lat="50.0522" lon="2.16511">
        <ele>34.6</ele>
        <time>2023-10-04T12:23:32Z</time>
      </trkpt>
      <trkpt lat="50.0522" lon="2.16513">
        <ele>34.6</ele>
        <time>2023-10-04T12:23:33Z</time>
      </trkpt>
      <trkpt lat="50.0522" lon="2.16515">
        <ele>34.6</ele>
        <time>2023-10-04T12:23:34Z</time>
      </trkpt>
      <trkpt lat="50.0522" lon="2.16517">
        <ele>34.6</ele>
        <time>2023-10-04T12:23:35Z</time>
      </trkpt>
      <trkpt lat="50.0522" lon="2.1652">
        <ele>34.6</ele>
        <time>2023-10-04T12:23:37Z</time>
      </trkpt>
      <trkpt lat="50.0522" lon="2.16524">
        <ele>34.6</ele>
        <time>2023-10-04T12:23:39Z</time>
      </trkpt>
      <trkpt lat="50.0522" lon="2.16527">
        <ele>34.6</ele>
        <time>2023-10-04T12:23:40Z</time>
      </trkpt>
      <trkpt lat="50.0522" lon="2.16529">
        <ele>34.6</ele>
        <time>2023-10-04T12:23:41Z</time>
      </trkpt>
      <trkpt lat="50.05219" lon="2.1653">
        <ele>34.6</ele>
        <time>2023-10-04T12:23:42Z</time>
      </trkpt>
      <trkpt lat="50.05219" lon="2.16532">
        <ele>34.6</ele>
        <time>2023-10-04T12:23:43Z</time>
      </trkpt>
      <trkpt lat="50.05219" lon="2.16534">
        <ele>34.6</ele>
        <time>2023-10-04T12:23:44Z</time>
      </trkpt>
      <trkpt lat="50.05219" lon="2.16537">
        <ele>34.6</ele>
        <time>2023-10-04T12:23:46Z</time>
      </trkpt>
      <trkpt lat="50.05219" lon="2.16538">
        <ele>34.6</ele>
        <time>2023-10-04T12:23:47Z</time>
      </trkpt>
      <trkpt lat="50.05219" lon="2.1654">
        <ele>34.6</ele>
        <time>2023-10-04T12:23:48Z</time>
      </trkpt>
      <trkpt lat="50.05219" lon="2.16541">
        <ele>34.6</ele>
        <time>2023-10-04T12:23:49Z</time>
      </trkpt>
      <trkpt lat="50.05218" lon="2.16543">
        <ele>34.6</ele>
        <time>2023-10-04T12:23:50Z</time>
      </trkpt>
      <trkpt lat="50.05218" lon="2.16545">
        <ele>34.6</ele>
        <time>2023-10-04T12:23:51Z</time>
      </trkpt>
      <trkpt lat="50.05218" lon="2.16548">
        <ele>34.6</ele>
        <time>2023-10-04T12:23:53Z</time>
      </trkpt>
      <trkpt lat="50.05218" lon="2.1655">
        <ele>34.6</ele>
        <time>2023-10-04T12:23:54Z</time>
      </trkpt>
      <trkpt lat="50.05218" lon="2.16552">
        <ele>34.6</ele>
        <time>2023-10-04T12:23:55Z</time>
      </trkpt>
      <trkpt lat="50.05217" lon="2.16555">
        <ele>34.6</ele>
        <time>2023-10-04T12:23:57Z</time>
      </trkpt>
      <trkpt lat="50.05217" lon="2.16558">
        <ele>34.6</ele>
        <time>2023-10-04T12:23:58Z</time>
      </trkpt>
      <trkpt lat="50.05217" lon="2.1656">
        <ele>34.6</ele>
        <time>2023-10-04T12:23:59Z</time>
      </trkpt>
      <trkpt lat="50.05216" lon="2.16563">
        <ele>34.6</ele>
        <time>2023-10-04T12:24:00Z</time>
      </trkpt>
      <trkpt lat="50.05216" lon="2.16565">
        <ele>34.6</ele>
        <time>2023-10-04T12:24:01Z</time>
      </trkpt>
      <trkpt lat="50.05216" lon="2.16566">
        <ele>34.6</ele>
        <time>2023-10-04T12:24:02Z</time>
      </trkpt>
      <trkpt lat="50.05216" lon="2.16568">
        <ele>34.6</ele>
        <time>2023-10-04T12:24:04Z</time>
      </trkpt>
      <trkpt lat="50.05216" lon="2.16571">
        <ele>34.6</ele>
        <time>2023-10-04T12:24:05Z</time>
      </trkpt>
      <trkpt lat="50.05215" lon="2.16573">
        <ele>34.6</ele>
        <time>2023-10-04T12:24:06Z</time>
      </trkpt>
      <trkpt lat="50.05215" lon="2.16575">
        <ele>34.6</ele>
        <time>2023-10-04T12:24:07Z</time>
      </trkpt>
      <trkpt lat="50.05215" lon="2.16579">
        <ele>34.5</ele>
        <time>2023-10-04T12:24:08Z</time>
      </trkpt>
      <trkpt lat="50.05215" lon="2.1658">
        <ele>34.5</ele>
        <time>2023-10-04T12:24:09Z</time>
      </trkpt>
      <trkpt lat="50.05215" lon="2.16581">
        <ele>34.5</ele>
        <time>2023-10-04T12:24:10Z</time>
      </trkpt>
      <trkpt lat="50.05214" lon="2.16583">
        <ele>34.5</ele>
        <time>2023-10-04T12:24:11Z</time>
      </trkpt>
      <trkpt lat="50.05214" lon="2.16585">
        <ele>34.5</ele>
        <time>2023-10-04T12:24:12Z</time>
      </trkpt>
      <trkpt lat="50.05214" lon="2.16587">
        <ele>34.5</ele>
        <time>2023-10-04T12:24:14Z</time>
      </trkpt>
      <trkpt lat="50.05214" lon="2.16589">
        <ele>34.5</ele>
        <time>2023-10-04T12:24:15Z</time>
      </trkpt>
      <trkpt lat="50.05213" lon="2.16592">
        <ele>34.5</ele>
        <time>2023-10-04T12:24:16Z</time>
      </trkpt>
      <trkpt lat="50.05213" lon="2.16595">
        <ele>34.5</ele>
        <time>2023-10-04T12:24:18Z</time>
      </trkpt>
      <trkpt lat="50.05212" lon="2.16597">
        <ele>34.5</ele>
        <time>2023-10-04T12:24:19Z</time>
      </trkpt>
      <trkpt lat="50.05212" lon="2.16599">
        <ele>34.5</ele>
        <time>2023-10-04T12:24:20Z</time>
      </trkpt>
      <trkpt lat="50.05211" lon="2.166">
        <ele>34.5</ele>
        <time>2023-10-04T12:24:21Z</time>
      </trkpt>
      <trkpt lat="50.05211" lon="2.16602">
        <ele>34.5</ele>
        <time>2023-10-04T12:24:23Z</time>
      </trkpt>
      <trkpt lat="50.05211" lon="2.16604">
        <ele>34.5</ele>
        <time>2023-10-04T12:24:24Z</time>
      </trkpt>
      <trkpt lat="50.05211" lon="2.16605">
        <ele>34.6</ele>
        <time>2023-10-04T12:24:25Z</time>
      </trkpt>
      <trkpt lat="50.05211" lon="2.16607">
        <ele>34.6</ele>
        <time>2023-10-04T12:24:26Z</time>
      </trkpt>
      <trkpt lat="50.0521" lon="2.16609">
        <ele>34.6</ele>
        <time>2023-10-04T12:24:27Z</time>
      </trkpt>
      <trkpt lat="50.0521" lon="2.1661">
        <ele>34.6</ele>
        <time>2023-10-04T12:24:28Z</time>
      </trkpt>
      <trkpt lat="50.0521" lon="2.16612">
        <ele>34.6</ele>
        <time>2023-10-04T12:24:29Z</time>
      </trkpt>
      <trkpt lat="50.0521" lon="2.16614">
        <ele>34.6</ele>
        <time>2023-10-04T12:24:30Z</time>
      </trkpt>
      <trkpt lat="50.0521" lon="2.16616">
        <ele>34.6</ele>
        <time>2023-10-04T12:24:31Z</time>
      </trkpt>
      <trkpt lat="50.0521" lon="2.16618">
        <ele>34.6</ele>
        <time>2023-10-04T12:24:33Z</time>
      </trkpt>
      <trkpt lat="50.05209" lon="2.1662">
        <ele>34.6</ele>
        <time>2023-10-04T12:24:34Z</time>
      </trkpt>
      <trkpt lat="50.05209" lon="2.16622">
        <ele>34.6</ele>
        <time>2023-10-04T12:24:35Z</time>
      </trkpt>
      <trkpt lat="50.05209" lon="2.16626">
        <ele>34.6</ele>
        <time>2023-10-04T12:24:36Z</time>
      </trkpt>
      <trkpt lat="50.05209" lon="2.16627">
        <ele>34.6</ele>
        <time>2023-10-04T12:24:37Z</time>
      </trkpt>
      <trkpt lat="50.05209" lon="2.16628">
        <ele>34.6</ele>
        <time>2023-10-04T12:24:38Z</time>
      </trkpt>
      <trkpt lat="50.05208" lon="2.1663">
        <ele>34.6</ele>
        <time>2023-10-04T12:24:39Z</time>
      </trkpt>
      <trkpt lat="50.05208" lon="2.16632">
        <ele>34.7</ele>
        <time>2023-10-04T12:24:40Z</time>
      </trkpt>
      <trkpt lat="50.05207" lon="2.16636">
        <ele>34.7</ele>
        <time>2023-10-04T12:24:42Z</time>
      </trkpt>
      <trkpt lat="50.05207" lon="2.16637">
        <ele>34.7</ele>
        <time>2023-10-04T12:24:43Z</time>
      </trkpt>
      <trkpt lat="50.05207" lon="2.16641">
        <ele>34.7</ele>
        <time>2023-10-04T12:24:44Z</time>
      </trkpt>
      <trkpt lat="50.05207" lon="2.16642">
        <ele>34.7</ele>
        <time>2023-10-04T12:24:45Z</time>
      </trkpt>
      <trkpt lat="50.05207" lon="2.16643">
        <ele>34.7</ele>
        <time>2023-10-04T12:24:46Z</time>
      </trkpt>
      <trkpt lat="50.05206" lon="2.16646">
        <ele>34.7</ele>
        <time>2023-10-04T12:24:48Z</time>
      </trkpt>
      <trkpt lat="50.05206" lon="2.16648">
        <ele>34.7</ele>
        <time>2023-10-04T12:24:49Z</time>
      </trkpt>
      <trkpt lat="50.05206" lon="2.16649">
        <ele>34.7</ele>
        <time>2023-10-04T12:24:50Z</time>
      </trkpt>
      <trkpt lat="50.05205" lon="2.16651">
        <ele>34.7</ele>
        <time>2023-10-04T12:24:51Z</time>
      </trkpt>
      <trkpt lat="50.05205" lon="2.16652">
        <ele>34.7</ele>
        <time>2023-10-04T12:24:52Z</time>
      </trkpt>
      <trkpt lat="50.05205" lon="2.16654">
        <ele>34.7</ele>
        <time>2023-10-04T12:24:53Z</time>
      </trkpt>
      <trkpt lat="50.05204" lon="2.16655">
        <ele>34.7</ele>
        <time>2023-10-04T12:24:54Z</time>
      </trkpt>
      <trkpt lat="50.05204" lon="2.16657">
        <ele>34.7</ele>
        <time>2023-10-04T12:24:55Z</time>
      </trkpt>
      <trkpt lat="50.05203" lon="2.16659">
        <ele>34.7</ele>
        <time>2023-10-04T12:24:57Z</time>
      </trkpt>
      <trkpt lat="50.05203" lon="2.16661">
        <ele>34.7</ele>
        <time>2023-10-04T12:24:58Z</time>
      </trkpt>
      <trkpt lat="50.05202" lon="2.16663">
        <ele>34.7</ele>
        <time>2023-10-04T12:24:59Z</time>
      </trkpt>
      <trkpt lat="50.05201" lon="2.16666">
        <ele>34.7</ele>
        <time>2023-10-04T12:25:00Z</time>
      </trkpt>
      <trkpt lat="50.05201" lon="2.16668">
        <ele>34.7</ele>
        <time>2023-10-04T12:25:01Z</time>
      </trkpt>
      <trkpt lat="50.05201" lon="2.16669">
        <ele>34.8</ele>
        <time>2023-10-04T12:25:02Z</time>
      </trkpt>
      <trkpt lat="50.052" lon="2.16672">
        <ele>34.8</ele>
        <time>2023-10-04T12:25:03Z</time>
      </trkpt>
      <trkpt lat="50.05199" lon="2.16673">
        <ele>34.8</ele>
        <time>2023-10-04T12:25:05Z</time>
      </trkpt>
      <trkpt lat="50.05199" lon="2.16675">
        <ele>34.8</ele>
        <time>2023-10-04T12:25:06Z</time>
      </trkpt>
      <trkpt lat="50.05199" lon="2.16677">
        <ele>34.8</ele>
        <time>2023-10-04T12:25:07Z</time>
      </trkpt>
      <trkpt lat="50.05198" lon="2.16679">
        <ele>34.8</ele>
        <time>2023-10-04T12:25:08Z</time>
      </trkpt>
      <trkpt lat="50.05197" lon="2.16681">
        <ele>34.8</ele>
        <time>2023-10-04T12:25:10Z</time>
      </trkpt>
      <trkpt lat="50.05197" lon="2.16683">
        <ele>34.8</ele>
        <time>2023-10-04T12:25:11Z</time>
      </trkpt>
      <trkpt lat="50.05196" lon="2.16685">
        <ele>34.8</ele>
        <time>2023-10-04T12:25:12Z</time>
      </trkpt>
      <trkpt lat="50.05196" lon="2.16687">
        <ele>34.8</ele>
        <time>2023-10-04T12:25:13Z</time>
      </trkpt>
      <trkpt lat="50.05195" lon="2.16691">
        <ele>34.8</ele>
        <time>2023-10-04T12:25:14Z</time>
      </trkpt>
      <trkpt lat="50.05195" lon="2.16692">
        <ele>34.8</ele>
        <time>2023-10-04T12:25:16Z</time>
      </trkpt>
      <trkpt lat="50.05194" lon="2.16693">
        <ele>34.8</ele>
        <time>2023-10-04T12:25:17Z</time>
      </trkpt>
      <trkpt lat="50.05194" lon="2.16695">
        <ele>34.8</ele>
        <time>2023-10-04T12:25:18Z</time>
      </trkpt>
      <trkpt lat="50.05194" lon="2.16697">
        <ele>34.8</ele>
        <time>2023-10-04T12:25:19Z</time>
      </trkpt>
      <trkpt lat="50.05194" lon="2.16699">
        <ele>34.8</ele>
        <time>2023-10-04T12:25:20Z</time>
      </trkpt>
      <trkpt lat="50.05194" lon="2.167">
        <ele>34.8</ele>
        <time>2023-10-04T12:25:21Z</time>
      </trkpt>
      <trkpt lat="50.05193" lon="2.16702">
        <ele>34.8</ele>
        <time>2023-10-04T12:25:22Z</time>
      </trkpt>
      <trkpt lat="50.05193" lon="2.16704">
        <ele>34.8</ele>
        <time>2023-10-04T12:25:23Z</time>
      </trkpt>
      <trkpt lat="50.05193" lon="2.16706">
        <ele>34.8</ele>
        <time>2023-10-04T12:25:25Z</time>
      </trkpt>
      <trkpt lat="50.05193" lon="2.16708">
        <ele>34.8</ele>
        <time>2023-10-04T12:25:26Z</time>
      </trkpt>
      <trkpt lat="50.05193" lon="2.1671">
        <ele>34.8</ele>
        <time>2023-10-04T12:25:27Z</time>
      </trkpt>
      <trkpt lat="50.05192" lon="2.16712">
        <ele>34.8</ele>
        <time>2023-10-04T12:25:28Z</time>
      </trkpt>
      <trkpt lat="50.05192" lon="2.16714">
        <ele>34.8</ele>
        <time>2023-10-04T12:25:30Z</time>
      </trkpt>
      <trkpt lat="50.05192" lon="2.16715">
        <ele>34.8</ele>
        <time>2023-10-04T12:25:31Z</time>
      </trkpt>
      <trkpt lat="50.05192" lon="2.16717">
        <ele>34.8</ele>
        <time>2023-10-04T12:25:32Z</time>
      </trkpt>
      <trkpt lat="50.05191" lon="2.16719">
        <ele>34.9</ele>
        <time>2023-10-04T12:25:33Z</time>
      </trkpt>
      <trkpt lat="50.05191" lon="2.16723">
        <ele>34.9</ele>
        <time>2023-10-04T12:25:34Z</time>
      </trkpt>
      <trkpt lat="50.0519" lon="2.16724">
        <ele>34.9</ele>
        <time>2023-10-04T12:25:35Z</time>
      </trkpt>
      <trkpt lat="50.0519" lon="2.16725">
        <ele>34.9</ele>
        <time>2023-10-04T12:25:36Z</time>
      </trkpt>
      <trkpt lat="50.05189" lon="2.16729">
        <ele>34.9</ele>
        <time>2023-10-04T12:25:37Z</time>
      </trkpt>
      <trkpt lat="50.05189" lon="2.16731">
        <ele>34.9</ele>
        <time>2023-10-04T12:25:39Z</time>
      </trkpt>
      <trkpt lat="50.05189" lon="2.16733">
        <ele>34.9</ele>
        <time>2023-10-04T12:25:40Z</time>
      </trkpt>
      <trkpt lat="50.05188" lon="2.16734">
        <ele>34.9</ele>
        <time>2023-10-04T12:25:41Z</time>
      </trkpt>
      <trkpt lat="50.05188" lon="2.16736">
        <ele>34.9</ele>
        <time>2023-10-04T12:25:42Z</time>
      </trkpt>
      <trkpt lat="50.05187" lon="2.16739">
        <ele>34.9</ele>
        <time>2023-10-04T12:25:43Z</time>
      </trkpt>
      <trkpt lat="50.05187" lon="2.16741">
        <ele>34.9</ele>
        <time>2023-10-04T12:25:45Z</time>
      </trkpt>
      <trkpt lat="50.05187" lon="2.16742">
        <ele>34.9</ele>
        <time>2023-10-04T12:25:46Z</time>
      </trkpt>
      <trkpt lat="50.05186" lon="2.16745">
        <ele>34.9</ele>
        <time>2023-10-04T12:25:47Z</time>
      </trkpt>
      <trkpt lat="50.05186" lon="2.16746">
        <ele>34.9</ele>
        <time>2023-10-04T12:25:48Z</time>
      </trkpt>
      <trkpt lat="50.05186" lon="2.16748">
        <ele>35</ele>
        <time>2023-10-04T12:25:49Z</time>
      </trkpt>
      <trkpt lat="50.05185" lon="2.16751">
        <ele>35</ele>
        <time>2023-10-04T12:25:50Z</time>
      </trkpt>
      <trkpt lat="50.05184" lon="2.16753">
        <ele>35</ele>
        <time>2023-10-04T12:25:52Z</time>
      </trkpt>
      <trkpt lat="50.05184" lon="2.16754">
        <ele>35</ele>
        <time>2023-10-04T12:25:53Z</time>
      </trkpt>
      <trkpt lat="50.05184" lon="2.16756">
        <ele>35</ele>
        <time>2023-10-04T12:25:54Z</time>
      </trkpt>
      <trkpt lat="50.05183" lon="2.16758">
        <ele>35</ele>
        <time>2023-10-04T12:25:55Z</time>
      </trkpt>
      <trkpt lat="50.05183" lon="2.1676">
        <ele>35</ele>
        <time>2023-10-04T12:25:56Z</time>
      </trkpt>
      <trkpt lat="50.05182" lon="2.16762">
        <ele>35</ele>
        <time>2023-10-04T12:25:57Z</time>
      </trkpt>
      <trkpt lat="50.05181" lon="2.16764">
        <ele>35</ele>
        <time>2023-10-04T12:25:59Z</time>
      </trkpt>
      <trkpt lat="50.05181" lon="2.16766">
        <ele>35</ele>
        <time>2023-10-04T12:26:00Z</time>
      </trkpt>
      <trkpt lat="50.0518" lon="2.16767">
        <ele>35</ele>
        <time>2023-10-04T12:26:01Z</time>
      </trkpt>
      <trkpt lat="50.05179" lon="2.1677">
        <ele>35</ele>
        <time>2023-10-04T12:26:02Z</time>
      </trkpt>
      <trkpt lat="50.05179" lon="2.16771">
        <ele>35</ele>
        <time>2023-10-04T12:26:03Z</time>
      </trkpt>
      <trkpt lat="50.05179" lon="2.16772">
        <ele>35</ele>
        <time>2023-10-04T12:26:04Z</time>
      </trkpt>
      <trkpt lat="50.05178" lon="2.16776">
        <ele>35</ele>
        <time>2023-10-04T12:26:05Z</time>
      </trkpt>
      <trkpt lat="50.05178" lon="2.16777">
        <ele>35</ele>
        <time>2023-10-04T12:26:07Z</time>
      </trkpt>
      <trkpt lat="50.05177" lon="2.16778">
        <ele>35</ele>
        <time>2023-10-04T12:26:08Z</time>
      </trkpt>
      <trkpt lat="50.05177" lon="2.1678">
        <ele>35</ele>
        <time>2023-10-04T12:26:09Z</time>
      </trkpt>
      <trkpt lat="50.05176" lon="2.16782">
        <ele>35</ele>
        <time>2023-10-04T12:26:10Z</time>
      </trkpt>
      <trkpt lat="50.05175" lon="2.16785">
        <ele>35</ele>
        <time>2023-10-04T12:26:12Z</time>
      </trkpt>
      <trkpt lat="50.05175" lon="2.16786">
        <ele>35</ele>
        <time>2023-10-04T12:26:13Z</time>
      </trkpt>
      <trkpt lat="50.05175" lon="2.16788">
        <ele>35</ele>
        <time>2023-10-04T12:26:14Z</time>
      </trkpt>
      <trkpt lat="50.05174" lon="2.1679">
        <ele>35</ele>
        <time>2023-10-04T12:26:15Z</time>
      </trkpt>
      <trkpt lat="50.05173" lon="2.16792">
        <ele>35</ele>
        <time>2023-10-04T12:26:16Z</time>
      </trkpt>
      <trkpt lat="50.05172" lon="2.16794">
        <ele>35</ele>
        <time>2023-10-04T12:26:18Z</time>
      </trkpt>
      <trkpt lat="50.05172" lon="2.16795">
        <ele>35</ele>
        <time>2023-10-04T12:26:19Z</time>
      </trkpt>
      <trkpt lat="50.05171" lon="2.16796">
        <ele>35</ele>
        <time>2023-10-04T12:26:20Z</time>
      </trkpt>
      <trkpt lat="50.0517" lon="2.16798">
        <ele>35</ele>
        <time>2023-10-04T12:26:21Z</time>
      </trkpt>
      <trkpt lat="50.05169" lon="2.168">
        <ele>35</ele>
        <time>2023-10-04T12:26:22Z</time>
      </trkpt>
      <trkpt lat="50.05169" lon="2.16802">
        <ele>35</ele>
        <time>2023-10-04T12:26:23Z</time>
      </trkpt>
      <trkpt lat="50.05167" lon="2.16804">
        <ele>35</ele>
        <time>2023-10-04T12:26:24Z</time>
      </trkpt>
      <trkpt lat="50.05167" lon="2.16806">
        <ele>35</ele>
        <time>2023-10-04T12:26:25Z</time>
      </trkpt>
      <trkpt lat="50.05166" lon="2.16807">
        <ele>34.9</ele>
        <time>2023-10-04T12:26:26Z</time>
      </trkpt>
      <trkpt lat="50.05165" lon="2.16809">
        <ele>34.9</ele>
        <time>2023-10-04T12:26:27Z</time>
      </trkpt>
      <trkpt lat="50.05164" lon="2.16811">
        <ele>34.9</ele>
        <time>2023-10-04T12:26:29Z</time>
      </trkpt>
      <trkpt lat="50.05164" lon="2.16813">
        <ele>34.9</ele>
        <time>2023-10-04T12:26:30Z</time>
      </trkpt>
      <trkpt lat="50.05163" lon="2.16815">
        <ele>34.9</ele>
        <time>2023-10-04T12:26:32Z</time>
      </trkpt>
      <trkpt lat="50.05162" lon="2.16817">
        <ele>34.9</ele>
        <time>2023-10-04T12:26:33Z</time>
      </trkpt>
      <trkpt lat="50.05161" lon="2.16819">
        <ele>34.9</ele>
        <time>2023-10-04T12:26:34Z</time>
      </trkpt>
      <trkpt lat="50.0516" lon="2.16822">
        <ele>34.9</ele>
        <time>2023-10-04T12:26:35Z</time>
      </trkpt>
      <trkpt lat="50.0516" lon="2.16823">
        <ele>34.9</ele>
        <time>2023-10-04T12:26:36Z</time>
      </trkpt>
      <trkpt lat="50.0516" lon="2.16825">
        <ele>34.9</ele>
        <time>2023-10-04T12:26:37Z</time>
      </trkpt>
      <trkpt lat="50.05159" lon="2.16828">
        <ele>34.9</ele>
        <time>2023-10-04T12:26:39Z</time>
      </trkpt>
      <trkpt lat="50.05158" lon="2.16829">
        <ele>34.9</ele>
        <time>2023-10-04T12:26:40Z</time>
      </trkpt>
      <trkpt lat="50.05158" lon="2.1683">
        <ele>34.9</ele>
        <time>2023-10-04T12:26:41Z</time>
      </trkpt>
      <trkpt lat="50.05158" lon="2.16832">
        <ele>34.9</ele>
        <time>2023-10-04T12:26:42Z</time>
      </trkpt>
      <trkpt lat="50.05157" lon="2.16833">
        <ele>34.9</ele>
        <time>2023-10-04T12:26:43Z</time>
      </trkpt>
      <trkpt lat="50.05157" lon="2.16835">
        <ele>34.9</ele>
        <time>2023-10-04T12:26:44Z</time>
      </trkpt>
      <trkpt lat="50.05156" lon="2.16836">
        <ele>34.9</ele>
        <time>2023-10-04T12:26:45Z</time>
      </trkpt>
      <trkpt lat="50.05156" lon="2.16837">
        <ele>34.9</ele>
        <time>2023-10-04T12:26:47Z</time>
      </trkpt>
      <trkpt lat="50.05155" lon="2.16839">
        <ele>34.9</ele>
        <time>2023-10-04T12:26:48Z</time>
      </trkpt>
      <trkpt lat="50.05155" lon="2.1684">
        <ele>34.9</ele>
        <time>2023-10-04T12:26:49Z</time>
      </trkpt>
      <trkpt lat="50.05154" lon="2.16842">
        <ele>34.9</ele>
        <time>2023-10-04T12:26:50Z</time>
      </trkpt>
      <trkpt lat="50.05154" lon="2.16843">
        <ele>34.9</ele>
        <time>2023-10-04T12:26:51Z</time>
      </trkpt>
      <trkpt lat="50.05153" lon="2.16845">
        <ele>34.9</ele>
        <time>2023-10-04T12:26:52Z</time>
      </trkpt>
      <trkpt lat="50.05152" lon="2.16847">
        <ele>34.9</ele>
        <time>2023-10-04T12:26:53Z</time>
      </trkpt>
      <trkpt lat="50.05151" lon="2.1685">
        <ele>34.9</ele>
        <time>2023-10-04T12:26:55Z</time>
      </trkpt>
      <trkpt lat="50.05151" lon="2.16851">
        <ele>34.9</ele>
        <time>2023-10-04T12:26:56Z</time>
      </trkpt>
      <trkpt lat="50.0515" lon="2.16853">
        <ele>34.9</ele>
        <time>2023-10-04T12:26:57Z</time>
      </trkpt>
      <trkpt lat="50.05149" lon="2.16854">
        <ele>34.9</ele>
        <time>2023-10-04T12:26:58Z</time>
      </trkpt>
      <trkpt lat="50.05149" lon="2.16856">
        <ele>34.9</ele>
        <time>2023-10-04T12:26:59Z</time>
      </trkpt>
      <trkpt lat="50.05148" lon="2.16858">
        <ele>34.9</ele>
        <time>2023-10-04T12:27:00Z</time>
      </trkpt>
      <trkpt lat="50.05147" lon="2.16859">
        <ele>34.9</ele>
        <time>2023-10-04T12:27:01Z</time>
      </trkpt>
      <trkpt lat="50.05146" lon="2.16862">
        <ele>34.9</ele>
        <time>2023-10-04T12:27:03Z</time>
      </trkpt>
      <trkpt lat="50.05145" lon="2.16864">
        <ele>34.9</ele>
        <time>2023-10-04T12:27:04Z</time>
      </trkpt>
      <trkpt lat="50.05145" lon="2.16866">
        <ele>34.9</ele>
        <time>2023-10-04T12:27:05Z</time>
      </trkpt>
      <trkpt lat="50.05144" lon="2.16868">
        <ele>34.9</ele>
        <time>2023-10-04T12:27:06Z</time>
      </trkpt>
      <trkpt lat="50.05143" lon="2.1687">
        <ele>34.9</ele>
        <time>2023-10-04T12:27:08Z</time>
      </trkpt>
      <trkpt lat="50.05142" lon="2.16872">
        <ele>34.9</ele>
        <time>2023-10-04T12:27:09Z</time>
      </trkpt>
      <trkpt lat="50.05141" lon="2.16874">
        <ele>34.9</ele>
        <time>2023-10-04T12:27:10Z</time>
      </trkpt>
      <trkpt lat="50.05141" lon="2.16875">
        <ele>34.9</ele>
        <time>2023-10-04T12:27:11Z</time>
      </trkpt>
      <trkpt lat="50.0514" lon="2.16876">
        <ele>34.9</ele>
        <time>2023-10-04T12:27:12Z</time>
      </trkpt>
      <trkpt lat="50.0514" lon="2.16878">
        <ele>34.9</ele>
        <time>2023-10-04T12:27:13Z</time>
      </trkpt>
      <trkpt lat="50.05139" lon="2.16879">
        <ele>34.9</ele>
        <time>2023-10-04T12:27:14Z</time>
      </trkpt>
      <trkpt lat="50.05138" lon="2.16881">
        <ele>34.9</ele>
        <time>2023-10-04T12:27:16Z</time>
      </trkpt>
      <trkpt lat="50.05138" lon="2.16882">
        <ele>34.9</ele>
        <time>2023-10-04T12:27:17Z</time>
      </trkpt>
      <trkpt lat="50.05137" lon="2.16885">
        <ele>34.9</ele>
        <time>2023-10-04T12:27:18Z</time>
      </trkpt>
      <trkpt lat="50.05136" lon="2.16886">
        <ele>34.9</ele>
        <time>2023-10-04T12:27:19Z</time>
      </trkpt>
      <trkpt lat="50.05136" lon="2.16888">
        <ele>34.9</ele>
        <time>2023-10-04T12:27:20Z</time>
      </trkpt>
      <trkpt lat="50.05136" lon="2.16889">
        <ele>34.9</ele>
        <time>2023-10-04T12:27:21Z</time>
      </trkpt>
      <trkpt lat="50.05135" lon="2.1689">
        <ele>34.9</ele>
        <time>2023-10-04T12:27:22Z</time>
      </trkpt>
      <trkpt lat="50.05135" lon="2.16892">
        <ele>34.9</ele>
        <time>2023-10-04T12:27:23Z</time>
      </trkpt>
      <trkpt lat="50.05135" lon="2.16895">
        <ele>34.9</ele>
        <time>2023-10-04T12:27:24Z</time>
      </trkpt>
      <trkpt lat="50.05134" lon="2.16896">
        <ele>34.9</ele>
        <time>2023-10-04T12:27:26Z</time>
      </trkpt>
      <trkpt lat="50.05134" lon="2.16897">
        <ele>34.9</ele>
        <time>2023-10-04T12:27:27Z</time>
      </trkpt>
      <trkpt lat="50.05134" lon="2.169">
        <ele>34.9</ele>
        <time>2023-10-04T12:27:28Z</time>
      </trkpt>
      <trkpt lat="50.05133" lon="2.16902">
        <ele>34.9</ele>
        <time>2023-10-04T12:27:29Z</time>
      </trkpt>
      <trkpt lat="50.05133" lon="2.16904">
        <ele>34.9</ele>
        <time>2023-10-04T12:27:30Z</time>
      </trkpt>
      <trkpt lat="50.05133" lon="2.16906">
        <ele>34.9</ele>
        <time>2023-10-04T12:27:31Z</time>
      </trkpt>
      <trkpt lat="50.05132" lon="2.1691">
        <ele>34.9</ele>
        <time>2023-10-04T12:27:33Z</time>
      </trkpt>
      <trkpt lat="50.05132" lon="2.16912">
        <ele>34.9</ele>
        <time>2023-10-04T12:27:34Z</time>
      </trkpt>
      <trkpt lat="50.05131" lon="2.16914">
        <ele>34.9</ele>
        <time>2023-10-04T12:27:35Z</time>
      </trkpt>
      <trkpt lat="50.05131" lon="2.16916">
        <ele>34.9</ele>
        <time>2023-10-04T12:27:37Z</time>
      </trkpt>
      <trkpt lat="50.0513" lon="2.16919">
        <ele>34.9</ele>
        <time>2023-10-04T12:27:38Z</time>
      </trkpt>
      <trkpt lat="50.0513" lon="2.16921">
        <ele>34.9</ele>
        <time>2023-10-04T12:27:39Z</time>
      </trkpt>
      <trkpt lat="50.05129" lon="2.16922">
        <ele>34.9</ele>
        <time>2023-10-04T12:27:40Z</time>
      </trkpt>
      <trkpt lat="50.05129" lon="2.16924">
        <ele>34.9</ele>
        <time>2023-10-04T12:27:41Z</time>
      </trkpt>
      <trkpt lat="50.05128" lon="2.16925">
        <ele>34.9</ele>
        <time>2023-10-04T12:27:42Z</time>
      </trkpt>
      <trkpt lat="50.05128" lon="2.16927">
        <ele>34.9</ele>
        <time>2023-10-04T12:27:43Z</time>
      </trkpt>
      <trkpt lat="50.05127" lon="2.1693">
        <ele>34.9</ele>
        <time>2023-10-04T12:27:45Z</time>
      </trkpt>
      <trkpt lat="50.05127" lon="2.16931">
        <ele>34.9</ele>
        <time>2023-10-04T12:27:46Z</time>
      </trkpt>
      <trkpt lat="50.05126" lon="2.16935">
        <ele>34.9</ele>
        <time>2023-10-04T12:27:47Z</time>
      </trkpt>
      <trkpt lat="50.05125" lon="2.16936">
        <ele>35</ele>
        <time>2023-10-04T12:27:48Z</time>
      </trkpt>
      <trkpt lat="50.05125" lon="2.16937">
        <ele>35</ele>
        <time>2023-10-04T12:27:50Z</time>
      </trkpt>
      <trkpt lat="50.05125" lon="2.16939">
        <ele>35</ele>
        <time>2023-10-04T12:27:51Z</time>
      </trkpt>
      <trkpt lat="50.05124" lon="2.1694">
        <ele>35</ele>
        <time>2023-10-04T12:27:52Z</time>
      </trkpt>
      <trkpt lat="50.05124" lon="2.16942">
        <ele>35</ele>
        <time>2023-10-04T12:27:53Z</time>
      </trkpt>
      <trkpt lat="50.05123" lon="2.16943">
        <ele>35</ele>
        <time>2023-10-04T12:27:54Z</time>
      </trkpt>
      <trkpt lat="50.05122" lon="2.16945">
        <ele>35</ele>
        <time>2023-10-04T12:27:55Z</time>
      </trkpt>
      <trkpt lat="50.05121" lon="2.16947">
        <ele>35</ele>
        <time>2023-10-04T12:27:56Z</time>
      </trkpt>
      <trkpt lat="50.05121" lon="2.16949">
        <ele>35</ele>
        <time>2023-10-04T12:27:57Z</time>
      </trkpt>
      <trkpt lat="50.05119" lon="2.16951">
        <ele>35</ele>
        <time>2023-10-04T12:27:59Z</time>
      </trkpt>
      <trkpt lat="50.05119" lon="2.16952">
        <ele>35</ele>
        <time>2023-10-04T12:28:00Z</time>
      </trkpt>
      <trkpt lat="50.05118" lon="2.16953">
        <ele>35.1</ele>
        <time>2023-10-04T12:28:01Z</time>
      </trkpt>
      <trkpt lat="50.05117" lon="2.16956">
        <ele>35.1</ele>
        <time>2023-10-04T12:28:02Z</time>
      </trkpt>
      <trkpt lat="50.05117" lon="2.16957">
        <ele>35.1</ele>
        <time>2023-10-04T12:28:03Z</time>
      </trkpt>
      <trkpt lat="50.05116" lon="2.16959">
        <ele>35.1</ele>
        <time>2023-10-04T12:28:04Z</time>
      </trkpt>
      <trkpt lat="50.05115" lon="2.1696">
        <ele>35.1</ele>
        <time>2023-10-04T12:28:05Z</time>
      </trkpt>
      <trkpt lat="50.05115" lon="2.16962">
        <ele>35.1</ele>
        <time>2023-10-04T12:28:06Z</time>
      </trkpt>
      <trkpt lat="50.05114" lon="2.16964">
        <ele>35.1</ele>
        <time>2023-10-04T12:28:08Z</time>
      </trkpt>
      <trkpt lat="50.05113" lon="2.16966">
        <ele>35.1</ele>
        <time>2023-10-04T12:28:09Z</time>
      </trkpt>
      <trkpt lat="50.05113" lon="2.16967">
        <ele>35.2</ele>
        <time>2023-10-04T12:28:10Z</time>
      </trkpt>
      <trkpt lat="50.05112" lon="2.1697">
        <ele>35.2</ele>
        <time>2023-10-04T12:28:11Z</time>
      </trkpt>
      <trkpt lat="50.05111" lon="2.16971">
        <ele>35.2</ele>
        <time>2023-10-04T12:28:12Z</time>
      </trkpt>
      <trkpt lat="50.05111" lon="2.16972">
        <ele>35.2</ele>
        <time>2023-10-04T12:28:13Z</time>
      </trkpt>
      <trkpt lat="50.0511" lon="2.16974">
        <ele>35.2</ele>
        <time>2023-10-04T12:28:14Z</time>
      </trkpt>
      <trkpt lat="50.05109" lon="2.16975">
        <ele>35.2</ele>
        <time>2023-10-04T12:28:15Z</time>
      </trkpt>
      <trkpt lat="50.05108" lon="2.16977">
        <ele>35.2</ele>
        <time>2023-10-04T12:28:17Z</time>
      </trkpt>
      <trkpt lat="50.05108" lon="2.16978">
        <ele>35.2</ele>
        <time>2023-10-04T12:28:18Z</time>
      </trkpt>
      <trkpt lat="50.05107" lon="2.1698">
        <ele>35.3</ele>
        <time>2023-10-04T12:28:19Z</time>
      </trkpt>
      <trkpt lat="50.05107" lon="2.16981">
        <ele>35.3</ele>
        <time>2023-10-04T12:28:20Z</time>
      </trkpt>
      <trkpt lat="50.05106" lon="2.16982">
        <ele>35.3</ele>
        <time>2023-10-04T12:28:21Z</time>
      </trkpt>
      <trkpt lat="50.05105" lon="2.16984">
        <ele>35.3</ele>
        <time>2023-10-04T12:28:22Z</time>
      </trkpt>
      <trkpt lat="50.05104" lon="2.16987">
        <ele>35.3</ele>
        <time>2023-10-04T12:28:24Z</time>
      </trkpt>
      <trkpt lat="50.05104" lon="2.16988">
        <ele>35.3</ele>
        <time>2023-10-04T12:28:25Z</time>
      </trkpt>
      <trkpt lat="50.05103" lon="2.1699">
        <ele>35.3</ele>
        <time>2023-10-04T12:28:26Z</time>
      </trkpt>
      <trkpt lat="50.05103" lon="2.1699">
        <ele>35.3</ele>
        <time>2023-10-04T12:28:27Z</time>
      </trkpt>
      <trkpt lat="50.05102" lon="2.16992">
        <ele>35.4</ele>
        <time>2023-10-04T12:28:28Z</time>
      </trkpt>
      <trkpt lat="50.05101" lon="2.16994">
        <ele>35.4</ele>
        <time>2023-10-04T12:28:29Z</time>
      </trkpt>
      <trkpt lat="50.051" lon="2.16995">
        <ele>35.4</ele>
        <time>2023-10-04T12:28:31Z</time>
      </trkpt>
      <trkpt lat="50.051" lon="2.16997">
        <ele>35.4</ele>
        <time>2023-10-04T12:28:32Z</time>
      </trkpt>
      <trkpt lat="50.05099" lon="2.16999">
        <ele>35.4</ele>
        <time>2023-10-04T12:28:33Z</time>
      </trkpt>
      <trkpt lat="50.05098" lon="2.17">
        <ele>35.4</ele>
        <time>2023-10-04T12:28:34Z</time>
      </trkpt>
      <trkpt lat="50.05098" lon="2.17001">
        <ele>35.4</ele>
        <time>2023-10-04T12:28:35Z</time>
      </trkpt>
      <trkpt lat="50.05097" lon="2.17002">
        <ele>35.4</ele>
        <time>2023-10-04T12:28:36Z</time>
      </trkpt>
      <trkpt lat="50.05096" lon="2.17003">
        <ele>35.5</ele>
        <time>2023-10-04T12:28:38Z</time>
      </trkpt>
      <trkpt lat="50.05096" lon="2.17004">
        <ele>35.5</ele>
        <time>2023-10-04T12:28:39Z</time>
      </trkpt>
      <trkpt lat="50.05095" lon="2.17006">
        <ele>35.5</ele>
        <time>2023-10-04T12:28:40Z</time>
      </trkpt>
      <trkpt lat="50.05094" lon="2.17007">
        <ele>35.5</ele>
        <time>2023-10-04T12:28:41Z</time>
      </trkpt>
      <trkpt lat="50.05093" lon="2.17009">
        <ele>35.5</ele>
        <time>2023-10-04T12:28:42Z</time>
      </trkpt>
      <trkpt lat="50.05093" lon="2.1701">
        <ele>35.5</ele>
        <time>2023-10-04T12:28:43Z</time>
      </trkpt>
      <trkpt lat="50.05092" lon="2.17012">
        <ele>35.5</ele>
        <time>2023-10-04T12:28:44Z</time>
      </trkpt>
      <trkpt lat="50.05091" lon="2.17014">
        <ele>35.6</ele>
        <time>2023-10-04T12:28:45Z</time>
      </trkpt>
      <trkpt lat="50.0509" lon="2.17016">
        <ele>35.6</ele>
        <time>2023-10-04T12:28:46Z</time>
      </trkpt>
      <trkpt lat="50.05089" lon="2.17019">
        <ele>35.6</ele>
        <time>2023-10-04T12:28:48Z</time>
      </trkpt>
      <trkpt lat="50.05089" lon="2.17021">
        <ele>35.6</ele>
        <time>2023-10-04T12:28:49Z</time>
      </trkpt>
      <trkpt lat="50.05088" lon="2.17023">
        <ele>35.6</ele>
        <time>2023-10-04T12:28:51Z</time>
      </trkpt>
      <trkpt lat="50.05087" lon="2.17025">
        <ele>35.6</ele>
        <time>2023-10-04T12:28:52Z</time>
      </trkpt>
      <trkpt lat="50.05087" lon="2.17027">
        <ele>35.6</ele>
        <time>2023-10-04T12:28:53Z</time>
      </trkpt>
      <trkpt lat="50.05086" lon="2.17029">
        <ele>35.7</ele>
        <time>2023-10-04T12:28:55Z</time>
      </trkpt>
      <trkpt lat="50.05085" lon="2.17031">
        <ele>35.7</ele>
        <time>2023-10-04T12:28:56Z</time>
      </trkpt>
      <trkpt lat="50.05085" lon="2.17033">
        <ele>35.7</ele>
        <time>2023-10-04T12:28:57Z</time>
      </trkpt>
      <trkpt lat="50.05084" lon="2.17035">
        <ele>35.7</ele>
        <time>2023-10-04T12:28:58Z</time>
      </trkpt>
      <trkpt lat="50.05084" lon="2.17036">
        <ele>35.7</ele>
        <time>2023-10-04T12:28:59Z</time>
      </trkpt>
      <trkpt lat="50.05083" lon="2.17038">
        <ele>35.7</ele>
        <time>2023-10-04T12:29:00Z</time>
      </trkpt>
      <trkpt lat="50.05082" lon="2.17039">
        <ele>35.7</ele>
        <time>2023-10-04T12:29:01Z</time>
      </trkpt>
      <trkpt lat="50.05082" lon="2.17042">
        <ele>35.7</ele>
        <time>2023-10-04T12:29:03Z</time>
      </trkpt>
      <trkpt lat="50.05081" lon="2.17044">
        <ele>35.7</ele>
        <time>2023-10-04T12:29:04Z</time>
      </trkpt>
      <trkpt lat="50.05081" lon="2.17046">
        <ele>35.7</ele>
        <time>2023-10-04T12:29:05Z</time>
      </trkpt>
      <trkpt lat="50.0508" lon="2.17049">
        <ele>35.7</ele>
        <time>2023-10-04T12:29:06Z</time>
      </trkpt>
      <trkpt lat="50.0508" lon="2.1705">
        <ele>35.7</ele>
        <time>2023-10-04T12:29:08Z</time>
      </trkpt>
      <trkpt lat="50.0508" lon="2.17051">
        <ele>35.7</ele>
        <time>2023-10-04T12:29:09Z</time>
      </trkpt>
      <trkpt lat="50.05079" lon="2.17054">
        <ele>35.7</ele>
        <time>2023-10-04T12:29:10Z</time>
      </trkpt>
      <trkpt lat="50.05079" lon="2.17056">
        <ele>35.7</ele>
        <time>2023-10-04T12:29:11Z</time>
      </trkpt>
      <trkpt lat="50.05078" lon="2.17057">
        <ele>35.7</ele>
        <time>2023-10-04T12:29:12Z</time>
      </trkpt>
      <trkpt lat="50.05078" lon="2.17058">
        <ele>35.7</ele>
        <time>2023-10-04T12:29:13Z</time>
      </trkpt>
      <trkpt lat="50.05077" lon="2.17061">
        <ele>35.7</ele>
        <time>2023-10-04T12:29:15Z</time>
      </trkpt>
      <trkpt lat="50.05076" lon="2.17063">
        <ele>35.7</ele>
        <time>2023-10-04T12:29:16Z</time>
      </trkpt>
      <trkpt lat="50.05075" lon="2.17064">
        <ele>35.7</ele>
        <time>2023-10-04T12:29:17Z</time>
      </trkpt>
      <trkpt lat="50.05075" lon="2.17065">
        <ele>35.7</ele>
        <time>2023-10-04T12:29:18Z</time>
      </trkpt>
      <trkpt lat="50.05074" lon="2.17068">
        <ele>35.7</ele>
        <time>2023-10-04T12:29:20Z</time>
      </trkpt>
      <trkpt lat="50.05073" lon="2.17069">
        <ele>35.7</ele>
        <time>2023-10-04T12:29:21Z</time>
      </trkpt>
      <trkpt lat="50.05072" lon="2.17072">
        <ele>35.7</ele>
        <time>2023-10-04T12:29:22Z</time>
      </trkpt>
      <trkpt lat="50.05072" lon="2.17073">
        <ele>35.7</ele>
        <time>2023-10-04T12:29:23Z</time>
      </trkpt>
      <trkpt lat="50.05072" lon="2.17074">
        <ele>35.7</ele>
        <time>2023-10-04T12:29:24Z</time>
      </trkpt>
      <trkpt lat="50.05071" lon="2.17076">
        <ele>35.7</ele>
        <time>2023-10-04T12:29:25Z</time>
      </trkpt>
      <trkpt lat="50.05071" lon="2.17078">
        <ele>35.7</ele>
        <time>2023-10-04T12:29:27Z</time>
      </trkpt>
      <trkpt lat="50.05071" lon="2.17079">
        <ele>35.7</ele>
        <time>2023-10-04T12:29:28Z</time>
      </trkpt>
      <trkpt lat="50.0507" lon="2.17082">
        <ele>35.7</ele>
        <time>2023-10-04T12:29:29Z</time>
      </trkpt>
      <trkpt lat="50.0507" lon="2.17083">
        <ele>35.7</ele>
        <time>2023-10-04T12:29:30Z</time>
      </trkpt>
      <trkpt lat="50.0507" lon="2.17085">
        <ele>35.7</ele>
        <time>2023-10-04T12:29:31Z</time>
      </trkpt>
      <trkpt lat="50.05069" lon="2.17088">
        <ele>35.7</ele>
        <time>2023-10-04T12:29:32Z</time>
      </trkpt>
      <trkpt lat="50.05069" lon="2.1709">
        <ele>35.7</ele>
        <time>2023-10-04T12:29:33Z</time>
      </trkpt>
      <trkpt lat="50.05069" lon="2.17091">
        <ele>35.7</ele>
        <time>2023-10-04T12:29:34Z</time>
      </trkpt>
      <trkpt lat="50.05069" lon="2.17093">
        <ele>35.7</ele>
        <time>2023-10-04T12:29:35Z</time>
      </trkpt>
      <trkpt lat="50.05069" lon="2.17095">
        <ele>35.7</ele>
        <time>2023-10-04T12:29:36Z</time>
      </trkpt>
      <trkpt lat="50.05069" lon="2.17096">
        <ele>35.7</ele>
        <time>2023-10-04T12:29:38Z</time>
      </trkpt>
      <trkpt lat="50.05069" lon="2.17098">
        <ele>35.7</ele>
        <time>2023-10-04T12:29:39Z</time>
      </trkpt>
      <trkpt lat="50.05069" lon="2.171">
        <ele>35.7</ele>
        <time>2023-10-04T12:29:40Z</time>
      </trkpt>
      <trkpt lat="50.05069" lon="2.17101">
        <ele>35.7</ele>
        <time>2023-10-04T12:29:41Z</time>
      </trkpt>
      <trkpt lat="50.05068" lon="2.17103">
        <ele>35.7</ele>
        <time>2023-10-04T12:29:42Z</time>
      </trkpt>
      <trkpt lat="50.05068" lon="2.17104">
        <ele>35.7</ele>
        <time>2023-10-04T12:29:43Z</time>
      </trkpt>
      <trkpt lat="50.05067" lon="2.17106">
        <ele>35.7</ele>
        <time>2023-10-04T12:29:44Z</time>
      </trkpt>
      <trkpt lat="50.05067" lon="2.17108">
        <ele>35.7</ele>
        <time>2023-10-04T12:29:45Z</time>
      </trkpt>
      <trkpt lat="50.05067" lon="2.1711">
        <ele>35.7</ele>
        <time>2023-10-04T12:29:46Z</time>
      </trkpt>
      <trkpt lat="50.05067" lon="2.17111">
        <ele>35.7</ele>
        <time>2023-10-04T12:29:48Z</time>
      </trkpt>
      <trkpt lat="50.05066" lon="2.17114">
        <ele>35.7</ele>
        <time>2023-10-04T12:29:49Z</time>
      </trkpt>
      <trkpt lat="50.05066" lon="2.17116">
        <ele>35.7</ele>
        <time>2023-10-04T12:29:50Z</time>
      </trkpt>
      <trkpt lat="50.05066" lon="2.17119">
        <ele>35.7</ele>
        <time>2023-10-04T12:29:52Z</time>
      </trkpt>
      <trkpt lat="50.05065" lon="2.17121">
        <ele>35.7</ele>
        <time>2023-10-04T12:29:53Z</time>
      </trkpt>
      <trkpt lat="50.05065" lon="2.17124">
        <ele>35.7</ele>
        <time>2023-10-04T12:29:54Z</time>
      </trkpt>
      <trkpt lat="50.05065" lon="2.17125">
        <ele>35.8</ele>
        <time>2023-10-04T12:29:55Z</time>
      </trkpt>
      <trkpt lat="50.05065" lon="2.17127">
        <ele>35.8</ele>
        <time>2023-10-04T12:29:56Z</time>
      </trkpt>
      <trkpt lat="50.05064" lon="2.17129">
        <ele>35.8</ele>
        <time>2023-10-04T12:29:58Z</time>
      </trkpt>
      <trkpt lat="50.05064" lon="2.17131">
        <ele>35.8</ele>
        <time>2023-10-04T12:29:59Z</time>
      </trkpt>
      <trkpt lat="50.05063" lon="2.17133">
        <ele>35.8</ele>
        <time>2023-10-04T12:30:00Z</time>
      </trkpt>
      <trkpt lat="50.05062" lon="2.17135">
        <ele>35.8</ele>
        <time>2023-10-04T12:30:01Z</time>
      </trkpt>
      <trkpt lat="50.05061" lon="2.17138">
        <ele>35.8</ele>
        <time>2023-10-04T12:30:02Z</time>
      </trkpt>
      <trkpt lat="50.05061" lon="2.17139">
        <ele>35.8</ele>
        <time>2023-10-04T12:30:03Z</time>
      </trkpt>
      <trkpt lat="50.05061" lon="2.1714">
        <ele>35.8</ele>
        <time>2023-10-04T12:30:04Z</time>
      </trkpt>
      <trkpt lat="50.0506" lon="2.17142">
        <ele>35.8</ele>
        <time>2023-10-04T12:30:05Z</time>
      </trkpt>
      <trkpt lat="50.0506" lon="2.17144">
        <ele>35.8</ele>
        <time>2023-10-04T12:30:06Z</time>
      </trkpt>
      <trkpt lat="50.05059" lon="2.17146">
        <ele>35.8</ele>
        <time>2023-10-04T12:30:08Z</time>
      </trkpt>
      <trkpt lat="50.05058" lon="2.17148">
        <ele>35.9</ele>
        <time>2023-10-04T12:30:09Z</time>
      </trkpt>
      <trkpt lat="50.05058" lon="2.17151">
        <ele>35.9</ele>
        <time>2023-10-04T12:30:10Z</time>
      </trkpt>
      <trkpt lat="50.05057" lon="2.17154">
        <ele>35.9</ele>
        <time>2023-10-04T12:30:11Z</time>
      </trkpt>
      <trkpt lat="50.05057" lon="2.17156">
        <ele>35.9</ele>
        <time>2023-10-04T12:30:13Z</time>
      </trkpt>
      <trkpt lat="50.05056" lon="2.17158">
        <ele>35.9</ele>
        <time>2023-10-04T12:30:14Z</time>
      </trkpt>
      <trkpt lat="50.05056" lon="2.1716">
        <ele>35.9</ele>
        <time>2023-10-04T12:30:15Z</time>
      </trkpt>
      <trkpt lat="50.05056" lon="2.17162">
        <ele>35.9</ele>
        <time>2023-10-04T12:30:16Z</time>
      </trkpt>
      <trkpt lat="50.05056" lon="2.17164">
        <ele>35.9</ele>
        <time>2023-10-04T12:30:17Z</time>
      </trkpt>
      <trkpt lat="50.05055" lon="2.17166">
        <ele>35.9</ele>
        <time>2023-10-04T12:30:18Z</time>
      </trkpt>
      <trkpt lat="50.05055" lon="2.17169">
        <ele>35.9</ele>
        <time>2023-10-04T12:30:19Z</time>
      </trkpt>
      <trkpt lat="50.05054" lon="2.17171">
        <ele>35.9</ele>
        <time>2023-10-04T12:30:21Z</time>
      </trkpt>
      <trkpt lat="50.05054" lon="2.17173">
        <ele>36</ele>
        <time>2023-10-04T12:30:22Z</time>
      </trkpt>
      <trkpt lat="50.05053" lon="2.17175">
        <ele>36</ele>
        <time>2023-10-04T12:30:23Z</time>
      </trkpt>
      <trkpt lat="50.05053" lon="2.17176">
        <ele>36</ele>
        <time>2023-10-04T12:30:24Z</time>
      </trkpt>
      <trkpt lat="50.05052" lon="2.17179">
        <ele>36</ele>
        <time>2023-10-04T12:30:26Z</time>
      </trkpt>
      <trkpt lat="50.05051" lon="2.17183">
        <ele>36</ele>
        <time>2023-10-04T12:30:27Z</time>
      </trkpt>
      <trkpt lat="50.05051" lon="2.17185">
        <ele>36</ele>
        <time>2023-10-04T12:30:29Z</time>
      </trkpt>
      <trkpt lat="50.0505" lon="2.17186">
        <ele>36</ele>
        <time>2023-10-04T12:30:30Z</time>
      </trkpt>
      <trkpt lat="50.0505" lon="2.17188">
        <ele>36</ele>
        <time>2023-10-04T12:30:31Z</time>
      </trkpt>
      <trkpt lat="50.05049" lon="2.17189">
        <ele>36</ele>
        <time>2023-10-04T12:30:32Z</time>
      </trkpt>
      <trkpt lat="50.05049" lon="2.17193">
        <ele>36</ele>
        <time>2023-10-04T12:30:33Z</time>
      </trkpt>
      <trkpt lat="50.05048" lon="2.17194">
        <ele>36</ele>
        <time>2023-10-04T12:30:35Z</time>
      </trkpt>
      <trkpt lat="50.05048" lon="2.17195">
        <ele>36</ele>
        <time>2023-10-04T12:30:36Z</time>
      </trkpt>
      <trkpt lat="50.05048" lon="2.17198">
        <ele>36</ele>
        <time>2023-10-04T12:30:37Z</time>
      </trkpt>
      <trkpt lat="50.05047" lon="2.172">
        <ele>36</ele>
        <time>2023-10-04T12:30:38Z</time>
      </trkpt>
      <trkpt lat="50.05047" lon="2.17201">
        <ele>36</ele>
        <time>2023-10-04T12:30:39Z</time>
      </trkpt>
      <trkpt lat="50.05047" lon="2.17203">
        <ele>36</ele>
        <time>2023-10-04T12:30:40Z</time>
      </trkpt>
      <trkpt lat="50.05047" lon="2.17205">
        <ele>36.1</ele>
        <time>2023-10-04T12:30:42Z</time>
      </trkpt>
      <trkpt lat="50.05046" lon="2.17207">
        <ele>36.1</ele>
        <time>2023-10-04T12:30:43Z</time>
      </trkpt>
      <trkpt lat="50.05046" lon="2.17208">
        <ele>36.1</ele>
        <time>2023-10-04T12:30:44Z</time>
      </trkpt>
      <trkpt lat="50.05046" lon="2.1721">
        <ele>36.1</ele>
        <time>2023-10-04T12:30:45Z</time>
      </trkpt>
      <trkpt lat="50.05045" lon="2.17212">
        <ele>36.1</ele>
        <time>2023-10-04T12:30:47Z</time>
      </trkpt>
      <trkpt lat="50.05045" lon="2.17213">
        <ele>36.1</ele>
        <time>2023-10-04T12:30:48Z</time>
      </trkpt>
      <trkpt lat="50.05045" lon="2.17215">
        <ele>36.1</ele>
        <time>2023-10-04T12:30:49Z</time>
      </trkpt>
      <trkpt lat="50.05045" lon="2.17217">
        <ele>36.1</ele>
        <time>2023-10-04T12:30:51Z</time>
      </trkpt>
      <trkpt lat="50.05045" lon="2.17219">
        <ele>36.1</ele>
        <time>2023-10-04T12:30:52Z</time>
      </trkpt>
      <trkpt lat="50.05045" lon="2.1722">
        <ele>36.1</ele>
        <time>2023-10-04T12:30:53Z</time>
      </trkpt>
      <trkpt lat="50.05045" lon="2.1722">
        <ele>36.1</ele>
        <time>2023-10-04T12:30:54Z</time>
      </trkpt>
      <trkpt lat="50.05045" lon="2.17221">
        <ele>36.1</ele>
        <time>2023-10-04T12:30:55Z</time>
      </trkpt>
      <trkpt lat="50.05045" lon="2.17222">
        <ele>36.1</ele>
        <time>2023-10-04T12:30:57Z</time>
      </trkpt>
      <trkpt lat="50.05045" lon="2.17223">
        <ele>36.1</ele>
        <time>2023-10-04T12:30:58Z</time>
      </trkpt>
      <trkpt lat="50.05045" lon="2.17224">
        <ele>36.1</ele>
        <time>2023-10-04T12:31:00Z</time>
      </trkpt>
      <trkpt lat="50.05045" lon="2.17226">
        <ele>36.1</ele>
        <time>2023-10-04T12:31:01Z</time>
      </trkpt>
      <trkpt lat="50.05045" lon="2.17228">
        <ele>36.1</ele>
        <time>2023-10-04T12:31:03Z</time>
      </trkpt>
      <trkpt lat="50.05045" lon="2.17229">
        <ele>36.1</ele>
        <time>2023-10-04T12:31:04Z</time>
      </trkpt>
      <trkpt lat="50.05045" lon="2.17231">
        <ele>36.2</ele>
        <time>2023-10-04T12:31:06Z</time>
      </trkpt>
      <trkpt lat="50.05045" lon="2.17232">
        <ele>36.2</ele>
        <time>2023-10-04T12:31:07Z</time>
      </trkpt>
      <trkpt lat="50.05045" lon="2.17233">
        <ele>36.2</ele>
        <time>2023-10-04T12:31:09Z</time>
      </trkpt>
      <trkpt lat="50.05045" lon="2.17233">
        <ele>36.2</ele>
        <time>2023-10-04T12:31:10Z</time>
      </trkpt>
      <trkpt lat="50.05045" lon="2.17232">
        <ele>36.2</ele>
        <time>2023-10-04T12:31:11Z</time>
      </trkpt>
      <trkpt lat="50.05045" lon="2.17232">
        <ele>36.2</ele>
        <time>2023-10-04T12:31:12Z</time>
      </trkpt>
      <trkpt lat="50.05045" lon="2.17231">
        <ele>36.2</ele>
        <time>2023-10-04T12:31:13Z</time>
      </trkpt>
      <trkpt lat="50.05045" lon="2.1723">
        <ele>36.2</ele>
        <time>2023-10-04T12:31:14Z</time>
      </trkpt>
      <trkpt lat="50.05046" lon="2.17229">
        <ele>36.2</ele>
        <time>2023-10-04T12:31:15Z</time>
      </trkpt>
      <trkpt lat="50.05046" lon="2.17229">
        <ele>36.2</ele>
        <time>2023-10-04T12:31:16Z</time>
      </trkpt>
      <trkpt lat="50.05046" lon="2.17228">
        <ele>36.2</ele>
        <time>2023-10-04T12:31:17Z</time>
      </trkpt>
      <trkpt lat="50.05046" lon="2.17228">
        <ele>36.2</ele>
        <time>2023-10-04T12:31:18Z</time>
      </trkpt>
      <trkpt lat="50.05046" lon="2.17228">
        <ele>36.2</ele>
        <time>2023-10-04T12:31:19Z</time>
      </trkpt>
      <trkpt lat="50.05046" lon="2.17228">
        <ele>36.2</ele>
        <time>2023-10-04T12:31:20Z</time>
      </trkpt>
      <trkpt lat="50.05046" lon="2.17227">
        <ele>36.2</ele>
        <time>2023-10-04T12:31:21Z</time>
      </trkpt>
      <trkpt lat="50.05046" lon="2.17227">
        <ele>36.2</ele>
        <time>2023-10-04T12:31:22Z</time>
      </trkpt>
      <trkpt lat="50.05046" lon="2.17227">
        <ele>36.2</ele>
        <time>2023-10-04T12:31:23Z</time>
      </trkpt>
      <trkpt lat="50.05046" lon="2.17227">
        <ele>36.2</ele>
        <time>2023-10-04T12:31:24Z</time>
      </trkpt>
      <trkpt lat="50.05046" lon="2.17227">
        <ele>36.2</ele>
        <time>2023-10-04T12:31:25Z</time>
      </trkpt>
      <trkpt lat="50.05046" lon="2.17227">
        <ele>36.2</ele>
        <time>2023-10-04T12:31:26Z</time>
      </trkpt>
      <trkpt lat="50.05046" lon="2.17226">
        <ele>36.2</ele>
        <time>2023-10-04T12:31:27Z</time>
      </trkpt>
      <trkpt lat="50.05046" lon="2.17226">
        <ele>36.2</ele>
        <time>2023-10-04T12:31:28Z</time>
      </trkpt>
      <trkpt lat="50.05046" lon="2.17225">
        <ele>36.2</ele>
        <time>2023-10-04T12:31:29Z</time>
      </trkpt>
      <trkpt lat="50.05046" lon="2.17225">
        <ele>36.2</ele>
        <time>2023-10-04T12:31:30Z</time>
      </trkpt>
      <trkpt lat="50.05046" lon="2.17225">
        <ele>36.2</ele>
        <time>2023-10-04T12:31:31Z</time>
      </trkpt>
      <trkpt lat="50.05046" lon="2.17225">
        <ele>36.2</ele>
        <time>2023-10-04T12:31:32Z</time>
      </trkpt>
      <trkpt lat="50.05046" lon="2.17225">
        <ele>36.2</ele>
        <time>2023-10-04T12:31:33Z</time>
      </trkpt>
      <trkpt lat="50.05046" lon="2.17225">
        <ele>36.2</ele>
        <time>2023-10-04T12:31:34Z</time>
      </trkpt>
      <trkpt lat="50.05046" lon="2.17225">
        <ele>36.2</ele>
        <time>2023-10-04T12:31:35Z</time>
      </trkpt>
      <trkpt lat="50.05046" lon="2.17225">
        <ele>36.2</ele>
        <time>2023-10-04T12:31:36Z</time>
      </trkpt>
      <trkpt lat="50.05046" lon="2.17225">
        <ele>36.2</ele>
        <time>2023-10-04T12:31:37Z</time>
      </trkpt>
      <trkpt lat="50.05046" lon="2.17225">
        <ele>36.2</ele>
        <time>2023-10-04T12:31:38Z</time>
      </trkpt>
      <trkpt lat="50.05046" lon="2.17225">
        <ele>36.2</ele>
        <time>2023-10-04T12:31:39Z</time>
      </trkpt>
      <trkpt lat="50.05046" lon="2.17225">
        <ele>36.2</ele>
        <time>2023-10-04T12:31:40Z</time>
      </trkpt>
      <trkpt lat="50.05046" lon="2.17225">
        <ele>36.2</ele>
        <time>2023-10-04T12:31:41Z</time>
      </trkpt>
      <trkpt lat="50.05046" lon="2.17225">
        <ele>36.2</ele>
        <time>2023-10-04T12:31:42Z</time>
      </trkpt>
      <trkpt lat="50.05046" lon="2.17225">
        <ele>36.2</ele>
        <time>2023-10-04T12:31:43Z</time>
      </trkpt>
      <trkpt lat="50.05046" lon="2.17225">
        <ele>36.2</ele>
        <time>2023-10-04T12:31:44Z</time>
      </trkpt>
      <trkpt lat="50.05046" lon="2.17225">
        <ele>36.2</ele>
        <time>2023-10-04T12:31:45Z</time>
      </trkpt>
      <trkpt lat="50.05046" lon="2.17225">
        <ele>36.2</ele>
        <time>2023-10-04T12:31:46Z</time>
      </trkpt>
      <trkpt lat="50.05046" lon="2.17225">
        <ele>36.2</ele>
        <time>2023-10-04T12:31:47Z</time>
      </trkpt>
      <trkpt lat="50.05046" lon="2.17225">
        <ele>36.2</ele>
        <time>2023-10-04T12:31:48Z</time>
      </trkpt>
      <trkpt lat="50.05046" lon="2.17225">
        <ele>36.2</ele>
        <time>2023-10-04T12:31:49Z</time>
      </trkpt>
      <trkpt lat="50.05046" lon="2.17225">
        <ele>36.2</ele>
        <time>2023-10-04T12:31:50Z</time>
      </trkpt>
      <trkpt lat="50.05046" lon="2.17225">
        <ele>36.2</ele>
        <time>2023-10-04T12:31:51Z</time>
      </trkpt>
      <trkpt lat="50.05046" lon="2.17225">
        <ele>36.2</ele>
        <time>2023-10-04T12:31:52Z</time>
      </trkpt>
      <trkpt lat="50.05046" lon="2.17225">
        <ele>36.2</ele>
        <time>2023-10-04T12:31:53Z</time>
      </trkpt>
      <trkpt lat="50.05046" lon="2.17225">
        <ele>36.2</ele>
        <time>2023-10-04T12:31:54Z</time>
      </trkpt>
      <trkpt lat="50.05046" lon="2.17225">
        <ele>36.2</ele>
        <time>2023-10-04T12:31:55Z</time>
      </trkpt>
      <trkpt lat="50.05046" lon="2.17225">
        <ele>36.2</ele>
        <time>2023-10-04T12:31:56Z</time>
      </trkpt>
      <trkpt lat="50.05046" lon="2.17225">
        <ele>36.2</ele>
        <time>2023-10-04T12:31:57Z</time>
      </trkpt>
      <trkpt lat="50.05046" lon="2.17225">
        <ele>36.2</ele>
        <time>2023-10-04T12:31:58Z</time>
      </trkpt>
      <trkpt lat="50.05046" lon="2.17225">
        <ele>36.2</ele>
        <time>2023-10-04T12:31:59Z</time>
      </trkpt>
      <trkpt lat="50.05046" lon="2.17225">
        <ele>36.2</ele>
        <time>2023-10-04T12:32:00Z</time>
      </trkpt>
      <trkpt lat="50.05046" lon="2.17225">
        <ele>36.2</ele>
        <time>2023-10-04T12:32:01Z</time>
      </trkpt>
      <trkpt lat="50.05046" lon="2.17225">
        <ele>36.2</ele>
        <time>2023-10-04T12:32:02Z</time>
      </trkpt>
      <trkpt lat="50.05046" lon="2.17225">
        <ele>36.2</ele>
        <time>2023-10-04T12:32:03Z</time>
      </trkpt>
      <trkpt lat="50.05046" lon="2.17225">
        <ele>36.2</ele>
        <time>2023-10-04T12:32:04Z</time>
      </trkpt>
      <trkpt lat="50.05046" lon="2.17225">
        <ele>36.2</ele>
        <time>2023-10-04T12:32:05Z</time>
      </trkpt>
      <trkpt lat="50.05046" lon="2.17225">
        <ele>36.2</ele>
        <time>2023-10-04T12:32:06Z</time>
      </trkpt>
      <trkpt lat="50.05046" lon="2.17225">
        <ele>36.2</ele>
        <time>2023-10-04T12:32:07Z</time>
      </trkpt>
      <trkpt lat="50.05046" lon="2.17225">
        <ele>36.2</ele>
        <time>2023-10-04T12:32:08Z</time>
      </trkpt>
      <trkpt lat="50.05046" lon="2.17225">
        <ele>36.2</ele>
        <time>2023-10-04T12:32:09Z</time>
      </trkpt>
      <trkpt lat="50.05046" lon="2.17225">
        <ele>36.2</ele>
        <time>2023-10-04T12:32:10Z</time>
      </trkpt>
      <trkpt lat="50.05046" lon="2.17225">
        <ele>36.2</ele>
        <time>2023-10-04T12:32:11Z</time>
      </trkpt>
      <trkpt lat="50.05046" lon="2.17225">
        <ele>36.2</ele>
        <time>2023-10-04T12:32:12Z</time>
      </trkpt>
      <trkpt lat="50.05046" lon="2.17225">
        <ele>36.2</ele>
        <time>2023-10-04T12:32:13Z</time>
      </trkpt>
      <trkpt lat="50.05046" lon="2.17225">
        <ele>36.2</ele>
        <time>2023-10-04T12:32:14Z</time>
      </trkpt>
      <trkpt lat="50.05046" lon="2.17225">
        <ele>36.2</ele>
        <time>2023-10-04T12:32:15Z</time>
      </trkpt>
      <trkpt lat="50.05046" lon="2.17225">
        <ele>36.2</ele>
        <time>2023-10-04T12:32:16Z</time>
      </trkpt>
      <trkpt lat="50.05046" lon="2.17225">
        <ele>36.2</ele>
        <time>2023-10-04T12:32:17Z</time>
      </trkpt>
      <trkpt lat="50.05046" lon="2.17225">
        <ele>36.2</ele>
        <time>2023-10-04T12:32:18Z</time>
      </trkpt>
      <trkpt lat="50.05046" lon="2.17225">
        <ele>36.2</ele>
        <time>2023-10-04T12:32:19Z</time>
      </trkpt>
      <trkpt lat="50.05046" lon="2.17225">
        <ele>36.2</ele>
        <time>2023-10-04T12:32:20Z</time>
      </trkpt>
      <trkpt lat="50.05046" lon="2.17225">
        <ele>36.2</ele>
        <time>2023-10-04T12:32:21Z</time>
      </trkpt>
      <trkpt lat="50.05046" lon="2.17222">
        <ele>36.2</ele>
        <time>2023-10-04T12:32:22Z</time>
      </trkpt>
      <trkpt lat="50.05047" lon="2.1722">
        <ele>36.2</ele>
        <time>2023-10-04T12:32:23Z</time>
      </trkpt>
      <trkpt lat="50.05047" lon="2.1722">
        <ele>36.2</ele>
        <time>2023-10-04T12:32:24Z</time>
      </trkpt>
      <trkpt lat="50.05047" lon="2.17219">
        <ele>36.2</ele>
        <time>2023-10-04T12:32:25Z</time>
      </trkpt>
      <trkpt lat="50.05047" lon="2.17219">
        <ele>36.2</ele>
        <time>2023-10-04T12:32:26Z</time>
      </trkpt>
      <trkpt lat="50.05046" lon="2.17219">
        <ele>36.2</ele>
        <time>2023-10-04T12:32:27Z</time>
      </trkpt>
      <trkpt lat="50.05046" lon="2.17219">
        <ele>36.2</ele>
        <time>2023-10-04T12:32:28Z</time>
      </trkpt>
      <trkpt lat="50.05046" lon="2.17219">
        <ele>36.2</ele>
        <time>2023-10-04T12:32:29Z</time>
      </trkpt>
      <trkpt lat="50.05046" lon="2.17219">
        <ele>36.2</ele>
        <time>2023-10-04T12:32:30Z</time>
      </trkpt>
      <trkpt lat="50.05046" lon="2.17219">
        <ele>36.2</ele>
        <time>2023-10-04T12:32:31Z</time>
      </trkpt>
      <trkpt lat="50.05046" lon="2.17219">
        <ele>36.2</ele>
        <time>2023-10-04T12:32:32Z</time>
      </trkpt>
      <trkpt lat="50.05046" lon="2.17219">
        <ele>36.2</ele>
        <time>2023-10-04T12:32:33Z</time>
      </trkpt>
      <trkpt lat="50.05046" lon="2.17219">
        <ele>36.2</ele>
        <time>2023-10-04T12:32:34Z</time>
      </trkpt>
      <trkpt lat="50.05046" lon="2.17219">
        <ele>36.2</ele>
        <time>2023-10-04T12:32:35Z</time>
      </trkpt>
      <trkpt lat="50.05046" lon="2.17219">
        <ele>36.2</ele>
        <time>2023-10-04T12:32:36Z</time>
      </trkpt>
      <trkpt lat="50.05046" lon="2.17219">
        <ele>36.2</ele>
        <time>2023-10-04T12:32:37Z</time>
      </trkpt>
      <trkpt lat="50.05046" lon="2.17219">
        <ele>36.2</ele>
        <time>2023-10-04T12:32:38Z</time>
      </trkpt>
      <trkpt lat="50.05046" lon="2.17219">
        <ele>36.2</ele>
        <time>2023-10-04T12:32:39Z</time>
      </trkpt>
      <trkpt lat="50.05046" lon="2.17219">
        <ele>36.2</ele>
        <time>2023-10-04T12:32:40Z</time>
      </trkpt>
      <trkpt lat="50.05046" lon="2.17219">
        <ele>36.2</ele>
        <time>2023-10-04T12:32:41Z</time>
      </trkpt>
      <trkpt lat="50.05046" lon="2.17219">
        <ele>36.2</ele>
        <time>2023-10-04T12:32:42Z</time>
      </trkpt>
      <trkpt lat="50.05046" lon="2.17219">
        <ele>36.2</ele>
        <time>2023-10-04T12:32:43Z</time>
      </trkpt>
      <trkpt lat="50.05046" lon="2.17219">
        <ele>36.2</ele>
        <time>2023-10-04T12:32:44Z</time>
      </trkpt>
      <trkpt lat="50.05046" lon="2.17219">
        <ele>36.2</ele>
        <time>2023-10-04T12:32:45Z</time>
      </trkpt>
      <trkpt lat="50.05046" lon="2.17219">
        <ele>36.2</ele>
        <time>2023-10-04T12:32:46Z</time>
      </trkpt>
      <trkpt lat="50.05046" lon="2.17219">
        <ele>36.2</ele>
        <time>2023-10-04T12:32:47Z</time>
      </trkpt>
      <trkpt lat="50.05046" lon="2.17219">
        <ele>36.2</ele>
        <time>2023-10-04T12:32:48Z</time>
      </trkpt>
      <trkpt lat="50.05046" lon="2.17219">
        <ele>36.2</ele>
        <time>2023-10-04T12:32:49Z</time>
      </trkpt>
      <trkpt lat="50.05046" lon="2.17219">
        <ele>36.2</ele>
        <time>2023-10-04T12:32:50Z</time>
      </trkpt>
      <trkpt lat="50.05046" lon="2.17219">
        <ele>36.2</ele>
        <time>2023-10-04T12:32:51Z</time>
      </trkpt>
      <trkpt lat="50.05046" lon="2.17219">
        <ele>36.2</ele>
        <time>2023-10-04T12:32:52Z</time>
      </trkpt>
      <trkpt lat="50.05046" lon="2.17219">
        <ele>36.2</ele>
        <time>2023-10-04T12:32:53Z</time>
      </trkpt>
      <trkpt lat="50.05046" lon="2.17219">
        <ele>36.2</ele>
        <time>2023-10-04T12:32:54Z</time>
      </trkpt>
      <trkpt lat="50.05046" lon="2.17219">
        <ele>36.2</ele>
        <time>2023-10-04T12:32:55Z</time>
      </trkpt>
      <trkpt lat="50.05046" lon="2.17219">
        <ele>36.2</ele>
        <time>2023-10-04T12:32:56Z</time>
      </trkpt>
      <trkpt lat="50.05046" lon="2.17219">
        <ele>36.2</ele>
        <time>2023-10-04T12:32:57Z</time>
      </trkpt>
      <trkpt lat="50.05046" lon="2.17219">
        <ele>36.2</ele>
        <time>2023-10-04T12:32:58Z</time>
      </trkpt>
      <trkpt lat="50.05046" lon="2.17219">
        <ele>36.2</ele>
        <time>2023-10-04T12:32:59Z</time>
      </trkpt>
      <trkpt lat="50.05046" lon="2.17219">
        <ele>36.2</ele>
        <time>2023-10-04T12:33:00Z</time>
      </trkpt>
      <trkpt lat="50.05046" lon="2.17219">
        <ele>36.2</ele>
        <time>2023-10-04T12:33:01Z</time>
      </trkpt>
      <trkpt lat="50.05046" lon="2.17219">
        <ele>36.2</ele>
        <time>2023-10-04T12:33:02Z</time>
      </trkpt>
      <trkpt lat="50.05046" lon="2.17219">
        <ele>36.2</ele>
        <time>2023-10-04T12:33:03Z</time>
      </trkpt>
      <trkpt lat="50.05046" lon="2.17219">
        <ele>36.2</ele>
        <time>2023-10-04T12:33:04Z</time>
      </trkpt>
      <trkpt lat="50.05046" lon="2.17219">
        <ele>36.2</ele>
        <time>2023-10-04T12:33:05Z</time>
      </trkpt>
      <trkpt lat="50.05046" lon="2.17219">
        <ele>36.2</ele>
        <time>2023-10-04T12:33:06Z</time>
      </trkpt>
      <trkpt lat="50.05045" lon="2.17224">
        <ele>36.3</ele>
        <time>2023-10-04T12:33:07Z</time>
      </trkpt>
      <trkpt lat="50.05044" lon="2.17226">
        <ele>36.3</ele>
        <time>2023-10-04T12:33:08Z</time>
      </trkpt>
      <trkpt lat="50.05043" lon="2.17228">
        <ele>36.3</ele>
        <time>2023-10-04T12:33:09Z</time>
      </trkpt>
      <trkpt lat="50.05043" lon="2.17229">
        <ele>36.3</ele>
        <time>2023-10-04T12:33:10Z</time>
      </trkpt>
      <trkpt lat="50.05042" lon="2.1723">
        <ele>36.3</ele>
        <time>2023-10-04T12:33:11Z</time>
      </trkpt>
      <trkpt lat="50.05042" lon="2.17232">
        <ele>36.3</ele>
        <time>2023-10-04T12:33:12Z</time>
      </trkpt>
      <trkpt lat="50.05042" lon="2.17233">
        <ele>36.3</ele>
        <time>2023-10-04T12:33:13Z</time>
      </trkpt>
      <trkpt lat="50.05041" lon="2.17234">
        <ele>36.3</ele>
        <time>2023-10-04T12:33:14Z</time>
      </trkpt>
      <trkpt lat="50.05041" lon="2.17236">
        <ele>36.3</ele>
        <time>2023-10-04T12:33:15Z</time>
      </trkpt>
      <trkpt lat="50.05041" lon="2.17237">
        <ele>36.3</ele>
        <time>2023-10-04T12:33:16Z</time>
      </trkpt>
      <trkpt lat="50.05041" lon="2.17239">
        <ele>36.3</ele>
        <time>2023-10-04T12:33:17Z</time>
      </trkpt>
      <trkpt lat="50.0504" lon="2.1724">
        <ele>36.4</ele>
        <time>2023-10-04T12:33:18Z</time>
      </trkpt>
      <trkpt lat="50.0504" lon="2.17242">
        <ele>36.4</ele>
        <time>2023-10-04T12:33:19Z</time>
      </trkpt>
      <trkpt lat="50.0504" lon="2.17243">
        <ele>36.4</ele>
        <time>2023-10-04T12:33:20Z</time>
      </trkpt>
      <trkpt lat="50.05039" lon="2.17245">
        <ele>36.4</ele>
        <time>2023-10-04T12:33:21Z</time>
      </trkpt>
      <trkpt lat="50.05039" lon="2.17247">
        <ele>36.4</ele>
        <time>2023-10-04T12:33:22Z</time>
      </trkpt>
      <trkpt lat="50.05039" lon="2.17248">
        <ele>36.4</ele>
        <time>2023-10-04T12:33:23Z</time>
      </trkpt>
      <trkpt lat="50.05038" lon="2.17249">
        <ele>36.4</ele>
        <time>2023-10-04T12:33:24Z</time>
      </trkpt>
      <trkpt lat="50.05038" lon="2.1725">
        <ele>36.4</ele>
        <time>2023-10-04T12:33:25Z</time>
      </trkpt>
      <trkpt lat="50.05038" lon="2.17252">
        <ele>36.4</ele>
        <time>2023-10-04T12:33:26Z</time>
      </trkpt>
      <trkpt lat="50.05038" lon="2.17254">
        <ele>36.3</ele>
        <time>2023-10-04T12:33:27Z</time>
      </trkpt>
      <trkpt lat="50.05038" lon="2.17256">
        <ele>36.3</ele>
        <time>2023-10-04T12:33:28Z</time>
      </trkpt>
      <trkpt lat="50.05037" lon="2.17258">
        <ele>36.3</ele>
        <time>2023-10-04T12:33:29Z</time>
      </trkpt>
      <trkpt lat="50.05037" lon="2.1726">
        <ele>36.3</ele>
        <time>2023-10-04T12:33:30Z</time>
      </trkpt>
      <trkpt lat="50.05037" lon="2.17261">
        <ele>36.3</ele>
        <time>2023-10-04T12:33:31Z</time>
      </trkpt>
      <trkpt lat="50.05037" lon="2.17263">
        <ele>36.3</ele>
        <time>2023-10-04T12:33:32Z</time>
      </trkpt>
      <trkpt lat="50.05037" lon="2.17264">
        <ele>36.3</ele>
        <time>2023-10-04T12:33:33Z</time>
      </trkpt>
      <trkpt lat="50.05036" lon="2.17265">
        <ele>36.3</ele>
        <time>2023-10-04T12:33:34Z</time>
      </trkpt>
      <trkpt lat="50.05036" lon="2.17266">
        <ele>36.3</ele>
        <time>2023-10-04T12:33:35Z</time>
      </trkpt>
      <trkpt lat="50.05036" lon="2.17267">
        <ele>36.3</ele>
        <time>2023-10-04T12:33:36Z</time>
      </trkpt>
      <trkpt lat="50.05036" lon="2.17268">
        <ele>36.3</ele>
        <time>2023-10-04T12:33:37Z</time>
      </trkpt>
      <trkpt lat="50.05035" lon="2.17271">
        <ele>36.3</ele>
        <time>2023-10-04T12:33:38Z</time>
      </trkpt>
      <trkpt lat="50.05035" lon="2.17272">
        <ele>36.3</ele>
        <time>2023-10-04T12:33:39Z</time>
      </trkpt>
      <trkpt lat="50.05035" lon="2.17273">
        <ele>36.3</ele>
        <time>2023-10-04T12:33:40Z</time>
      </trkpt>
      <trkpt lat="50.05035" lon="2.17274">
        <ele>36.3</ele>
        <time>2023-10-04T12:33:41Z</time>
      </trkpt>
      <trkpt lat="50.05034" lon="2.17275">
        <ele>36.3</ele>
        <time>2023-10-04T12:33:42Z</time>
      </trkpt>
      <trkpt lat="50.05034" lon="2.17277">
        <ele>36.3</ele>
        <time>2023-10-04T12:33:43Z</time>
      </trkpt>
      <trkpt lat="50.05034" lon="2.17278">
        <ele>36.3</ele>
        <time>2023-10-04T12:33:44Z</time>
      </trkpt>
      <trkpt lat="50.05033" lon="2.17279">
        <ele>36.3</ele>
        <time>2023-10-04T12:33:45Z</time>
      </trkpt>
      <trkpt lat="50.05033" lon="2.1728">
        <ele>36.3</ele>
        <time>2023-10-04T12:33:46Z</time>
      </trkpt>
      <trkpt lat="50.05033" lon="2.17282">
        <ele>36.3</ele>
        <time>2023-10-04T12:33:47Z</time>
      </trkpt>
      <trkpt lat="50.05033" lon="2.17283">
        <ele>36.3</ele>
        <time>2023-10-04T12:33:48Z</time>
      </trkpt>
      <trkpt lat="50.05032" lon="2.17284">
        <ele>36.3</ele>
        <time>2023-10-04T12:33:49Z</time>
      </trkpt>
      <trkpt lat="50.05032" lon="2.17286">
        <ele>36.3</ele>
        <time>2023-10-04T12:33:50Z</time>
      </trkpt>
      <trkpt lat="50.05032" lon="2.17288">
        <ele>36.4</ele>
        <time>2023-10-04T12:33:51Z</time>
      </trkpt>
      <trkpt lat="50.05032" lon="2.17289">
        <ele>36.4</ele>
        <time>2023-10-04T12:33:52Z</time>
      </trkpt>
      <trkpt lat="50.05032" lon="2.17291">
        <ele>36.4</ele>
        <time>2023-10-04T12:33:53Z</time>
      </trkpt>
      <trkpt lat="50.05032" lon="2.17292">
        <ele>36.4</ele>
        <time>2023-10-04T12:33:54Z</time>
      </trkpt>
      <trkpt lat="50.05032" lon="2.17294">
        <ele>36.4</ele>
        <time>2023-10-04T12:33:55Z</time>
      </trkpt>
      <trkpt lat="50.05032" lon="2.17295">
        <ele>36.4</ele>
        <time>2023-10-04T12:33:56Z</time>
      </trkpt>
      <trkpt lat="50.05032" lon="2.17296">
        <ele>36.4</ele>
        <time>2023-10-04T12:33:57Z</time>
      </trkpt>
      <trkpt lat="50.05032" lon="2.17297">
        <ele>36.4</ele>
        <time>2023-10-04T12:33:58Z</time>
      </trkpt>
      <trkpt lat="50.05032" lon="2.17299">
        <ele>36.4</ele>
        <time>2023-10-04T12:33:59Z</time>
      </trkpt>
      <trkpt lat="50.05032" lon="2.173">
        <ele>36.4</ele>
        <time>2023-10-04T12:34:00Z</time>
      </trkpt>
      <trkpt lat="50.05032" lon="2.17302">
        <ele>36.4</ele>
        <time>2023-10-04T12:34:01Z</time>
      </trkpt>
      <trkpt lat="50.05032" lon="2.17303">
        <ele>36.4</ele>
        <time>2023-10-04T12:34:02Z</time>
      </trkpt>
      <trkpt lat="50.05032" lon="2.17304">
        <ele>36.4</ele>
        <time>2023-10-04T12:34:03Z</time>
      </trkpt>
      <trkpt lat="50.05032" lon="2.17306">
        <ele>36.4</ele>
        <time>2023-10-04T12:34:04Z</time>
      </trkpt>
      <trkpt lat="50.05032" lon="2.17307">
        <ele>36.4</ele>
        <time>2023-10-04T12:34:05Z</time>
      </trkpt>
      <trkpt lat="50.05032" lon="2.17309">
        <ele>36.4</ele>
        <time>2023-10-04T12:34:06Z</time>
      </trkpt>
      <trkpt lat="50.05032" lon="2.1731">
        <ele>36.4</ele>
        <time>2023-10-04T12:34:07Z</time>
      </trkpt>
      <trkpt lat="50.05032" lon="2.17312">
        <ele>36.4</ele>
        <time>2023-10-04T12:34:08Z</time>
      </trkpt>
      <trkpt lat="50.05032" lon="2.17313">
        <ele>36.4</ele>
        <time>2023-10-04T12:34:09Z</time>
      </trkpt>
      <trkpt lat="50.05032" lon="2.17314">
        <ele>36.4</ele>
        <time>2023-10-04T12:34:10Z</time>
      </trkpt>
      <trkpt lat="50.05032" lon="2.17316">
        <ele>36.4</ele>
        <time>2023-10-04T12:34:11Z</time>
      </trkpt>
      <trkpt lat="50.05032" lon="2.17317">
        <ele>36.4</ele>
        <time>2023-10-04T12:34:12Z</time>
      </trkpt>
      <trkpt lat="50.05032" lon="2.17319">
        <ele>36.4</ele>
        <time>2023-10-04T12:34:13Z</time>
      </trkpt>
      <trkpt lat="50.05032" lon="2.1732">
        <ele>36.4</ele>
        <time>2023-10-04T12:34:14Z</time>
      </trkpt>
      <trkpt lat="50.05033" lon="2.17322">
        <ele>36.4</ele>
        <time>2023-10-04T12:34:15Z</time>
      </trkpt>
      <trkpt lat="50.05033" lon="2.17323">
        <ele>36.4</ele>
        <time>2023-10-04T12:34:16Z</time>
      </trkpt>
      <trkpt lat="50.05032" lon="2.17325">
        <ele>36.4</ele>
        <time>2023-10-04T12:34:17Z</time>
      </trkpt>
      <trkpt lat="50.05032" lon="2.17327">
        <ele>36.4</ele>
        <time>2023-10-04T12:34:18Z</time>
      </trkpt>
      <trkpt lat="50.05033" lon="2.17329">
        <ele>36.4</ele>
        <time>2023-10-04T12:34:19Z</time>
      </trkpt>
      <trkpt lat="50.05033" lon="2.17331">
        <ele>36.4</ele>
        <time>2023-10-04T12:34:20Z</time>
      </trkpt>
      <trkpt lat="50.05033" lon="2.17332">
        <ele>36.4</ele>
        <time>2023-10-04T12:34:21Z</time>
      </trkpt>
      <trkpt lat="50.05033" lon="2.17333">
        <ele>36.4</ele>
        <time>2023-10-04T12:34:22Z</time>
      </trkpt>
      <trkpt lat="50.05033" lon="2.17335">
        <ele>36.4</ele>
        <time>2023-10-04T12:34:23Z</time>
      </trkpt>
      <trkpt lat="50.05033" lon="2.17336">
        <ele>36.4</ele>
        <time>2023-10-04T12:34:24Z</time>
      </trkpt>
      <trkpt lat="50.05033" lon="2.17337">
        <ele>36.5</ele>
        <time>2023-10-04T12:34:25Z</time>
      </trkpt>
      <trkpt lat="50.05033" lon="2.17338">
        <ele>36.5</ele>
        <time>2023-10-04T12:34:26Z</time>
      </trkpt>
      <trkpt lat="50.05033" lon="2.1734">
        <ele>36.5</ele>
        <time>2023-10-04T12:34:27Z</time>
      </trkpt>
      <trkpt lat="50.05033" lon="2.17342">
        <ele>36.5</ele>
        <time>2023-10-04T12:34:28Z</time>
      </trkpt>
      <trkpt lat="50.05032" lon="2.17345">
        <ele>36.5</ele>
        <time>2023-10-04T12:34:29Z</time>
      </trkpt>
      <trkpt lat="50.05032" lon="2.17346">
        <ele>36.5</ele>
        <time>2023-10-04T12:34:30Z</time>
      </trkpt>
      <trkpt lat="50.05032" lon="2.17348">
        <ele>36.5</ele>
        <time>2023-10-04T12:34:31Z</time>
      </trkpt>
      <trkpt lat="50.05032" lon="2.17349">
        <ele>36.5</ele>
        <time>2023-10-04T12:34:32Z</time>
      </trkpt>
      <trkpt lat="50.05032" lon="2.17351">
        <ele>36.5</ele>
        <time>2023-10-04T12:34:33Z</time>
      </trkpt>
      <trkpt lat="50.05032" lon="2.17353">
        <ele>36.5</ele>
        <time>2023-10-04T12:34:34Z</time>
      </trkpt>
      <trkpt lat="50.05031" lon="2.17356">
        <ele>36.6</ele>
        <time>2023-10-04T12:34:35Z</time>
      </trkpt>
      <trkpt lat="50.05031" lon="2.17357">
        <ele>36.6</ele>
        <time>2023-10-04T12:34:36Z</time>
      </trkpt>
      <trkpt lat="50.05031" lon="2.17359">
        <ele>36.6</ele>
        <time>2023-10-04T12:34:37Z</time>
      </trkpt>
      <trkpt lat="50.05031" lon="2.17361">
        <ele>36.6</ele>
        <time>2023-10-04T12:34:38Z</time>
      </trkpt>
      <trkpt lat="50.0503" lon="2.17363">
        <ele>36.6</ele>
        <time>2023-10-04T12:34:39Z</time>
      </trkpt>
      <trkpt lat="50.0503" lon="2.17365">
        <ele>36.6</ele>
        <time>2023-10-04T12:34:40Z</time>
      </trkpt>
      <trkpt lat="50.0503" lon="2.17367">
        <ele>36.6</ele>
        <time>2023-10-04T12:34:41Z</time>
      </trkpt>
      <trkpt lat="50.0503" lon="2.17368">
        <ele>36.6</ele>
        <time>2023-10-04T12:34:42Z</time>
      </trkpt>
      <trkpt lat="50.0503" lon="2.1737">
        <ele>36.7</ele>
        <time>2023-10-04T12:34:43Z</time>
      </trkpt>
      <trkpt lat="50.05029" lon="2.17371">
        <ele>36.7</ele>
        <time>2023-10-04T12:34:44Z</time>
      </trkpt>
      <trkpt lat="50.05029" lon="2.17373">
        <ele>36.7</ele>
        <time>2023-10-04T12:34:45Z</time>
      </trkpt>
      <trkpt lat="50.05029" lon="2.17374">
        <ele>36.7</ele>
        <time>2023-10-04T12:34:46Z</time>
      </trkpt>
      <trkpt lat="50.05029" lon="2.17375">
        <ele>36.7</ele>
        <time>2023-10-04T12:34:47Z</time>
      </trkpt>
      <trkpt lat="50.05029" lon="2.17376">
        <ele>36.7</ele>
        <time>2023-10-04T12:34:48Z</time>
      </trkpt>
      <trkpt lat="50.05029" lon="2.17378">
        <ele>36.7</ele>
        <time>2023-10-04T12:34:49Z</time>
      </trkpt>
      <trkpt lat="50.05029" lon="2.17379">
        <ele>36.7</ele>
        <time>2023-10-04T12:34:50Z</time>
      </trkpt>
      <trkpt lat="50.05029" lon="2.17381">
        <ele>36.7</ele>
        <time>2023-10-04T12:34:51Z</time>
      </trkpt>
      <trkpt lat="50.05029" lon="2.17383">
        <ele>36.7</ele>
        <time>2023-10-04T12:34:52Z</time>
      </trkpt>
      <trkpt lat="50.05029" lon="2.17385">
        <ele>36.7</ele>
        <time>2023-10-04T12:34:53Z</time>
      </trkpt>
      <trkpt lat="50.05029" lon="2.17387">
        <ele>36.7</ele>
        <time>2023-10-04T12:34:54Z</time>
      </trkpt>
      <trkpt lat="50.05029" lon="2.1739">
        <ele>36.8</ele>
        <time>2023-10-04T12:34:55Z</time>
      </trkpt>
      <trkpt lat="50.05028" lon="2.17393">
        <ele>36.8</ele>
        <time>2023-10-04T12:34:56Z</time>
      </trkpt>
      <trkpt lat="50.05028" lon="2.17397">
        <ele>36.8</ele>
        <time>2023-10-04T12:34:57Z</time>
      </trkpt>
      <trkpt lat="50.05028" lon="2.17398">
        <ele>36.8</ele>
        <time>2023-10-04T12:34:58Z</time>
      </trkpt>
      <trkpt lat="50.05027" lon="2.17401">
        <ele>36.8</ele>
        <time>2023-10-04T12:34:59Z</time>
      </trkpt>
      <trkpt lat="50.05027" lon="2.17404">
        <ele>36.8</ele>
        <time>2023-10-04T12:35:00Z</time>
      </trkpt>
      <trkpt lat="50.05027" lon="2.17406">
        <ele>36.9</ele>
        <time>2023-10-04T12:35:01Z</time>
      </trkpt>
      <trkpt lat="50.05027" lon="2.17408">
        <ele>36.9</ele>
        <time>2023-10-04T12:35:02Z</time>
      </trkpt>
      <trkpt lat="50.05026" lon="2.17411">
        <ele>36.9</ele>
        <time>2023-10-04T12:35:03Z</time>
      </trkpt>
      <trkpt lat="50.05026" lon="2.17413">
        <ele>36.9</ele>
        <time>2023-10-04T12:35:04Z</time>
      </trkpt>
      <trkpt lat="50.05026" lon="2.17414">
        <ele>36.9</ele>
        <time>2023-10-04T12:35:05Z</time>
      </trkpt>
      <trkpt lat="50.05025" lon="2.17416">
        <ele>36.9</ele>
        <time>2023-10-04T12:35:06Z</time>
      </trkpt>
      <trkpt lat="50.05025" lon="2.17418">
        <ele>36.9</ele>
        <time>2023-10-04T12:35:07Z</time>
      </trkpt>
      <trkpt lat="50.05025" lon="2.17422">
        <ele>36.9</ele>
        <time>2023-10-04T12:35:08Z</time>
      </trkpt>
      <trkpt lat="50.05025" lon="2.17423">
        <ele>36.9</ele>
        <time>2023-10-04T12:35:09Z</time>
      </trkpt>
      <trkpt lat="50.05025" lon="2.17424">
        <ele>36.9</ele>
        <time>2023-10-04T12:35:10Z</time>
      </trkpt>
      <trkpt lat="50.05025" lon="2.17426">
        <ele>36.9</ele>
        <time>2023-10-04T12:35:11Z</time>
      </trkpt>
      <trkpt lat="50.05025" lon="2.17428">
        <ele>36.9</ele>
        <time>2023-10-04T12:35:12Z</time>
      </trkpt>
      <trkpt lat="50.05024" lon="2.17429">
        <ele>36.9</ele>
        <time>2023-10-04T12:35:13Z</time>
      </trkpt>
      <trkpt lat="50.05024" lon="2.17431">
        <ele>36.9</ele>
        <time>2023-10-04T12:35:14Z</time>
      </trkpt>
      <trkpt lat="50.05024" lon="2.17432">
        <ele>37</ele>
        <time>2023-10-04T12:35:15Z</time>
      </trkpt>
      <trkpt lat="50.05024" lon="2.17434">
        <ele>37</ele>
        <time>2023-10-04T12:35:16Z</time>
      </trkpt>
      <trkpt lat="50.05024" lon="2.17435">
        <ele>37</ele>
        <time>2023-10-04T12:35:17Z</time>
      </trkpt>
      <trkpt lat="50.05024" lon="2.17437">
        <ele>37</ele>
        <time>2023-10-04T12:35:18Z</time>
      </trkpt>
      <trkpt lat="50.05023" lon="2.17438">
        <ele>37</ele>
        <time>2023-10-04T12:35:19Z</time>
      </trkpt>
      <trkpt lat="50.05023" lon="2.1744">
        <ele>37</ele>
        <time>2023-10-04T12:35:20Z</time>
      </trkpt>
      <trkpt lat="50.05023" lon="2.17441">
        <ele>37</ele>
        <time>2023-10-04T12:35:21Z</time>
      </trkpt>
      <trkpt lat="50.05023" lon="2.17443">
        <ele>37</ele>
        <time>2023-10-04T12:35:22Z</time>
      </trkpt>
      <trkpt lat="50.05023" lon="2.17444">
        <ele>37</ele>
        <time>2023-10-04T12:35:23Z</time>
      </trkpt>
      <trkpt lat="50.05023" lon="2.17445">
        <ele>37</ele>
        <time>2023-10-04T12:35:24Z</time>
      </trkpt>
      <trkpt lat="50.05023" lon="2.17446">
        <ele>37</ele>
        <time>2023-10-04T12:35:25Z</time>
      </trkpt>
      <trkpt lat="50.05023" lon="2.17448">
        <ele>37</ele>
        <time>2023-10-04T12:35:26Z</time>
      </trkpt>
      <trkpt lat="50.05023" lon="2.17451">
        <ele>37</ele>
        <time>2023-10-04T12:35:27Z</time>
      </trkpt>
      <trkpt lat="50.05023" lon="2.17452">
        <ele>37</ele>
        <time>2023-10-04T12:35:28Z</time>
      </trkpt>
      <trkpt lat="50.05022" lon="2.17454">
        <ele>37</ele>
        <time>2023-10-04T12:35:29Z</time>
      </trkpt>
      <trkpt lat="50.05022" lon="2.17457">
        <ele>37</ele>
        <time>2023-10-04T12:35:30Z</time>
      </trkpt>
      <trkpt lat="50.05022" lon="2.17458">
        <ele>37</ele>
        <time>2023-10-04T12:35:31Z</time>
      </trkpt>
      <trkpt lat="50.05022" lon="2.1746">
        <ele>37.1</ele>
        <time>2023-10-04T12:35:32Z</time>
      </trkpt>
      <trkpt lat="50.05022" lon="2.17463">
        <ele>37.1</ele>
        <time>2023-10-04T12:35:33Z</time>
      </trkpt>
      <trkpt lat="50.05022" lon="2.17464">
        <ele>37.1</ele>
        <time>2023-10-04T12:35:34Z</time>
      </trkpt>
      <trkpt lat="50.05022" lon="2.17466">
        <ele>37.1</ele>
        <time>2023-10-04T12:35:35Z</time>
      </trkpt>
      <trkpt lat="50.05022" lon="2.17467">
        <ele>37.1</ele>
        <time>2023-10-04T12:35:36Z</time>
      </trkpt>
      <trkpt lat="50.05022" lon="2.17469">
        <ele>37.1</ele>
        <time>2023-10-04T12:35:37Z</time>
      </trkpt>
      <trkpt lat="50.05022" lon="2.17471">
        <ele>37.1</ele>
        <time>2023-10-04T12:35:38Z</time>
      </trkpt>
      <trkpt lat="50.05021" lon="2.17473">
        <ele>37.1</ele>
        <time>2023-10-04T12:35:39Z</time>
      </trkpt>
      <trkpt lat="50.05021" lon="2.17475">
        <ele>37.1</ele>
        <time>2023-10-04T12:35:40Z</time>
      </trkpt>
      <trkpt lat="50.05021" lon="2.17477">
        <ele>37.1</ele>
        <time>2023-10-04T12:35:41Z</time>
      </trkpt>
      <trkpt lat="50.05021" lon="2.17478">
        <ele>37.1</ele>
        <time>2023-10-04T12:35:42Z</time>
      </trkpt>
      <trkpt lat="50.05022" lon="2.1748">
        <ele>37.1</ele>
        <time>2023-10-04T12:35:43Z</time>
      </trkpt>
      <trkpt lat="50.05022" lon="2.17482">
        <ele>37.1</ele>
        <time>2023-10-04T12:35:44Z</time>
      </trkpt>
      <trkpt lat="50.05022" lon="2.17483">
        <ele>37.1</ele>
        <time>2023-10-04T12:35:45Z</time>
      </trkpt>
      <trkpt lat="50.05021" lon="2.17485">
        <ele>37.1</ele>
        <time>2023-10-04T12:35:46Z</time>
      </trkpt>
      <trkpt lat="50.05021" lon="2.17487">
        <ele>37.1</ele>
        <time>2023-10-04T12:35:47Z</time>
      </trkpt>
      <trkpt lat="50.05021" lon="2.1749">
        <ele>37.1</ele>
        <time>2023-10-04T12:35:48Z</time>
      </trkpt>
      <trkpt lat="50.05021" lon="2.17491">
        <ele>37.1</ele>
        <time>2023-10-04T12:35:49Z</time>
      </trkpt>
      <trkpt lat="50.0502" lon="2.17493">
        <ele>37.1</ele>
        <time>2023-10-04T12:35:50Z</time>
      </trkpt>
      <trkpt lat="50.0502" lon="2.17495">
        <ele>37.1</ele>
        <time>2023-10-04T12:35:51Z</time>
      </trkpt>
      <trkpt lat="50.0502" lon="2.17497">
        <ele>37.1</ele>
        <time>2023-10-04T12:35:52Z</time>
      </trkpt>
      <trkpt lat="50.05019" lon="2.175">
        <ele>37.1</ele>
        <time>2023-10-04T12:35:53Z</time>
      </trkpt>
      <trkpt lat="50.05019" lon="2.17501">
        <ele>37.1</ele>
        <time>2023-10-04T12:35:54Z</time>
      </trkpt>
      <trkpt lat="50.05019" lon="2.17503">
        <ele>37.1</ele>
        <time>2023-10-04T12:35:55Z</time>
      </trkpt>
      <trkpt lat="50.05019" lon="2.17506">
        <ele>37.1</ele>
        <time>2023-10-04T12:35:56Z</time>
      </trkpt>
      <trkpt lat="50.05019" lon="2.17507">
        <ele>37.1</ele>
        <time>2023-10-04T12:35:57Z</time>
      </trkpt>
      <trkpt lat="50.05019" lon="2.17508">
        <ele>37.2</ele>
        <time>2023-10-04T12:35:58Z</time>
      </trkpt>
      <trkpt lat="50.05019" lon="2.17512">
        <ele>37.2</ele>
        <time>2023-10-04T12:35:59Z</time>
      </trkpt>
      <trkpt lat="50.05019" lon="2.17513">
        <ele>37.2</ele>
        <time>2023-10-04T12:36:00Z</time>
      </trkpt>
      <trkpt lat="50.05018" lon="2.17514">
        <ele>37.2</ele>
        <time>2023-10-04T12:36:01Z</time>
      </trkpt>
      <trkpt lat="50.05018" lon="2.17516">
        <ele>37.2</ele>
        <time>2023-10-04T12:36:02Z</time>
      </trkpt>
      <trkpt lat="50.05018" lon="2.17517">
        <ele>37.2</ele>
        <time>2023-10-04T12:36:03Z</time>
      </trkpt>
      <trkpt lat="50.05018" lon="2.17519">
        <ele>37.2</ele>
        <time>2023-10-04T12:36:04Z</time>
      </trkpt>
      <trkpt lat="50.05018" lon="2.1752">
        <ele>37.2</ele>
        <time>2023-10-04T12:36:05Z</time>
      </trkpt>
      <trkpt lat="50.05018" lon="2.17522">
        <ele>37.2</ele>
        <time>2023-10-04T12:36:06Z</time>
      </trkpt>
      <trkpt lat="50.05018" lon="2.17524">
        <ele>37.2</ele>
        <time>2023-10-04T12:36:07Z</time>
      </trkpt>
      <trkpt lat="50.05019" lon="2.17526">
        <ele>37.2</ele>
        <time>2023-10-04T12:36:08Z</time>
      </trkpt>
      <trkpt lat="50.05019" lon="2.17527">
        <ele>37.2</ele>
        <time>2023-10-04T12:36:09Z</time>
      </trkpt>
      <trkpt lat="50.05019" lon="2.17529">
        <ele>37.2</ele>
        <time>2023-10-04T12:36:10Z</time>
      </trkpt>
      <trkpt lat="50.05019" lon="2.17531">
        <ele>37.2</ele>
        <time>2023-10-04T12:36:11Z</time>
      </trkpt>
      <trkpt lat="50.05019" lon="2.17533">
        <ele>37.2</ele>
        <time>2023-10-04T12:36:12Z</time>
      </trkpt>
      <trkpt lat="50.05019" lon="2.17534">
        <ele>37.2</ele>
        <time>2023-10-04T12:36:13Z</time>
      </trkpt>
      <trkpt lat="50.0502" lon="2.17536">
        <ele>37.3</ele>
        <time>2023-10-04T12:36:14Z</time>
      </trkpt>
      <trkpt lat="50.0502" lon="2.17537">
        <ele>37.3</ele>
        <time>2023-10-04T12:36:15Z</time>
      </trkpt>
      <trkpt lat="50.0502" lon="2.17539">
        <ele>37.3</ele>
        <time>2023-10-04T12:36:16Z</time>
      </trkpt>
      <trkpt lat="50.0502" lon="2.1754">
        <ele>37.3</ele>
        <time>2023-10-04T12:36:17Z</time>
      </trkpt>
      <trkpt lat="50.0502" lon="2.17542">
        <ele>37.3</ele>
        <time>2023-10-04T12:36:18Z</time>
      </trkpt>
      <trkpt lat="50.0502" lon="2.17543">
        <ele>37.3</ele>
        <time>2023-10-04T12:36:19Z</time>
      </trkpt>
      <trkpt lat="50.0502" lon="2.17545">
        <ele>37.3</ele>
        <time>2023-10-04T12:36:20Z</time>
      </trkpt>
      <trkpt lat="50.0502" lon="2.17546">
        <ele>37.3</ele>
        <time>2023-10-04T12:36:21Z</time>
      </trkpt>
      <trkpt lat="50.0502" lon="2.17547">
        <ele>37.3</ele>
        <time>2023-10-04T12:36:22Z</time>
      </trkpt>
      <trkpt lat="50.0502" lon="2.17549">
        <ele>37.3</ele>
        <time>2023-10-04T12:36:23Z</time>
      </trkpt>
      <trkpt lat="50.0502" lon="2.17551">
        <ele>37.3</ele>
        <time>2023-10-04T12:36:24Z</time>
      </trkpt>
      <trkpt lat="50.0502" lon="2.17552">
        <ele>37.3</ele>
        <time>2023-10-04T12:36:25Z</time>
      </trkpt>
      <trkpt lat="50.0502" lon="2.17553">
        <ele>37.3</ele>
        <time>2023-10-04T12:36:26Z</time>
      </trkpt>
      <trkpt lat="50.0502" lon="2.17555">
        <ele>37.3</ele>
        <time>2023-10-04T12:36:27Z</time>
      </trkpt>
      <trkpt lat="50.0502" lon="2.17556">
        <ele>37.3</ele>
        <time>2023-10-04T12:36:28Z</time>
      </trkpt>
      <trkpt lat="50.0502" lon="2.17557">
        <ele>37.3</ele>
        <time>2023-10-04T12:36:29Z</time>
      </trkpt>
      <trkpt lat="50.0502" lon="2.17559">
        <ele>37.3</ele>
        <time>2023-10-04T12:36:30Z</time>
      </trkpt>
      <trkpt lat="50.0502" lon="2.1756">
        <ele>37.3</ele>
        <time>2023-10-04T12:36:31Z</time>
      </trkpt>
      <trkpt lat="50.0502" lon="2.17561">
        <ele>37.3</ele>
        <time>2023-10-04T12:36:32Z</time>
      </trkpt>
      <trkpt lat="50.0502" lon="2.17562">
        <ele>37.3</ele>
        <time>2023-10-04T12:36:33Z</time>
      </trkpt>
      <trkpt lat="50.0502" lon="2.17564">
        <ele>37.3</ele>
        <time>2023-10-04T12:36:34Z</time>
      </trkpt>
      <trkpt lat="50.0502" lon="2.17565">
        <ele>37.3</ele>
        <time>2023-10-04T12:36:35Z</time>
      </trkpt>
      <trkpt lat="50.0502" lon="2.17566">
        <ele>37.3</ele>
        <time>2023-10-04T12:36:36Z</time>
      </trkpt>
      <trkpt lat="50.0502" lon="2.17568">
        <ele>37.3</ele>
        <time>2023-10-04T12:36:37Z</time>
      </trkpt>
      <trkpt lat="50.05019" lon="2.1757">
        <ele>37.3</ele>
        <time>2023-10-04T12:36:38Z</time>
      </trkpt>
      <trkpt lat="50.05019" lon="2.17571">
        <ele>37.3</ele>
        <time>2023-10-04T12:36:39Z</time>
      </trkpt>
      <trkpt lat="50.05019" lon="2.17572">
        <ele>37.3</ele>
        <time>2023-10-04T12:36:40Z</time>
      </trkpt>
      <trkpt lat="50.05019" lon="2.17573">
        <ele>37.3</ele>
        <time>2023-10-04T12:36:41Z</time>
      </trkpt>
      <trkpt lat="50.05019" lon="2.17575">
        <ele>37.3</ele>
        <time>2023-10-04T12:36:42Z</time>
      </trkpt>
      <trkpt lat="50.05019" lon="2.17577">
        <ele>37.3</ele>
        <time>2023-10-04T12:36:43Z</time>
      </trkpt>
      <trkpt lat="50.05019" lon="2.17579">
        <ele>37.3</ele>
        <time>2023-10-04T12:36:44Z</time>
      </trkpt>
      <trkpt lat="50.05019" lon="2.17582">
        <ele>37.3</ele>
        <time>2023-10-04T12:36:45Z</time>
      </trkpt>
      <trkpt lat="50.05019" lon="2.17583">
        <ele>37.3</ele>
        <time>2023-10-04T12:36:46Z</time>
      </trkpt>
      <trkpt lat="50.05019" lon="2.17585">
        <ele>37.3</ele>
        <time>2023-10-04T12:36:47Z</time>
      </trkpt>
      <trkpt lat="50.05019" lon="2.17587">
        <ele>37.3</ele>
        <time>2023-10-04T12:36:48Z</time>
      </trkpt>
      <trkpt lat="50.05019" lon="2.17589">
        <ele>37.3</ele>
        <time>2023-10-04T12:36:49Z</time>
      </trkpt>
      <trkpt lat="50.05019" lon="2.1759">
        <ele>37.3</ele>
        <time>2023-10-04T12:36:50Z</time>
      </trkpt>
      <trkpt lat="50.05019" lon="2.17592">
        <ele>37.3</ele>
        <time>2023-10-04T12:36:51Z</time>
      </trkpt>
      <trkpt lat="50.05019" lon="2.17593">
        <ele>37.3</ele>
        <time>2023-10-04T12:36:52Z</time>
      </trkpt>
      <trkpt lat="50.05019" lon="2.17595">
        <ele>37.3</ele>
        <time>2023-10-04T12:36:53Z</time>
      </trkpt>
      <trkpt lat="50.05019" lon="2.17596">
        <ele>37.3</ele>
        <time>2023-10-04T12:36:54Z</time>
      </trkpt>
      <trkpt lat="50.05019" lon="2.17598">
        <ele>37.3</ele>
        <time>2023-10-04T12:36:55Z</time>
      </trkpt>
      <trkpt lat="50.05019" lon="2.17599">
        <ele>37.3</ele>
        <time>2023-10-04T12:36:56Z</time>
      </trkpt>
      <trkpt lat="50.05019" lon="2.17601">
        <ele>37.3</ele>
        <time>2023-10-04T12:36:57Z</time>
      </trkpt>
      <trkpt lat="50.05019" lon="2.17602">
        <ele>37.3</ele>
        <time>2023-10-04T12:36:58Z</time>
      </trkpt>
      <trkpt lat="50.05019" lon="2.17603">
        <ele>37.3</ele>
        <time>2023-10-04T12:36:59Z</time>
      </trkpt>
      <trkpt lat="50.05019" lon="2.17605">
        <ele>37.3</ele>
        <time>2023-10-04T12:37:00Z</time>
      </trkpt>
      <trkpt lat="50.05018" lon="2.17606">
        <ele>37.3</ele>
        <time>2023-10-04T12:37:01Z</time>
      </trkpt>
      <trkpt lat="50.05018" lon="2.17607">
        <ele>37.4</ele>
        <time>2023-10-04T12:37:02Z</time>
      </trkpt>
      <trkpt lat="50.05018" lon="2.17608">
        <ele>37.4</ele>
        <time>2023-10-04T12:37:03Z</time>
      </trkpt>
      <trkpt lat="50.05018" lon="2.17609">
        <ele>37.4</ele>
        <time>2023-10-04T12:37:04Z</time>
      </trkpt>
      <trkpt lat="50.05018" lon="2.1761">
        <ele>37.4</ele>
        <time>2023-10-04T12:37:05Z</time>
      </trkpt>
      <trkpt lat="50.05017" lon="2.17612">
        <ele>37.4</ele>
        <time>2023-10-04T12:37:06Z</time>
      </trkpt>
      <trkpt lat="50.05017" lon="2.17613">
        <ele>37.4</ele>
        <time>2023-10-04T12:37:07Z</time>
      </trkpt>
      <trkpt lat="50.05017" lon="2.17615">
        <ele>37.4</ele>
        <time>2023-10-04T12:37:08Z</time>
      </trkpt>
      <trkpt lat="50.05017" lon="2.17617">
        <ele>37.4</ele>
        <time>2023-10-04T12:37:09Z</time>
      </trkpt>
      <trkpt lat="50.05017" lon="2.17618">
        <ele>37.4</ele>
        <time>2023-10-04T12:37:10Z</time>
      </trkpt>
      <trkpt lat="50.05017" lon="2.1762">
        <ele>37.4</ele>
        <time>2023-10-04T12:37:11Z</time>
      </trkpt>
      <trkpt lat="50.05016" lon="2.17622">
        <ele>37.4</ele>
        <time>2023-10-04T12:37:12Z</time>
      </trkpt>
      <trkpt lat="50.05016" lon="2.17624">
        <ele>37.4</ele>
        <time>2023-10-04T12:37:13Z</time>
      </trkpt>
      <trkpt lat="50.05016" lon="2.17625">
        <ele>37.4</ele>
        <time>2023-10-04T12:37:14Z</time>
      </trkpt>
      <trkpt lat="50.05015" lon="2.17627">
        <ele>37.4</ele>
        <time>2023-10-04T12:37:15Z</time>
      </trkpt>
      <trkpt lat="50.05015" lon="2.17629">
        <ele>37.4</ele>
        <time>2023-10-04T12:37:16Z</time>
      </trkpt>
      <trkpt lat="50.05015" lon="2.1763">
        <ele>37.4</ele>
        <time>2023-10-04T12:37:17Z</time>
      </trkpt>
      <trkpt lat="50.05015" lon="2.17632">
        <ele>37.4</ele>
        <time>2023-10-04T12:37:18Z</time>
      </trkpt>
      <trkpt lat="50.05014" lon="2.17634">
        <ele>37.4</ele>
        <time>2023-10-04T12:37:19Z</time>
      </trkpt>
      <trkpt lat="50.05014" lon="2.17637">
        <ele>37.4</ele>
        <time>2023-10-04T12:37:20Z</time>
      </trkpt>
      <trkpt lat="50.05014" lon="2.17638">
        <ele>37.5</ele>
        <time>2023-10-04T12:37:21Z</time>
      </trkpt>
      <trkpt lat="50.05014" lon="2.17639">
        <ele>37.5</ele>
        <time>2023-10-04T12:37:22Z</time>
      </trkpt>
      <trkpt lat="50.05014" lon="2.17641">
        <ele>37.5</ele>
        <time>2023-10-04T12:37:23Z</time>
      </trkpt>
      <trkpt lat="50.05013" lon="2.17643">
        <ele>37.5</ele>
        <time>2023-10-04T12:37:24Z</time>
      </trkpt>
      <trkpt lat="50.05013" lon="2.17645">
        <ele>37.5</ele>
        <time>2023-10-04T12:37:25Z</time>
      </trkpt>
      <trkpt lat="50.05013" lon="2.17646">
        <ele>37.5</ele>
        <time>2023-10-04T12:37:26Z</time>
      </trkpt>
      <trkpt lat="50.05013" lon="2.17648">
        <ele>37.5</ele>
        <time>2023-10-04T12:37:27Z</time>
      </trkpt>
      <trkpt lat="50.05013" lon="2.1765">
        <ele>37.5</ele>
        <time>2023-10-04T12:37:28Z</time>
      </trkpt>
      <trkpt lat="50.05012" lon="2.17651">
        <ele>37.5</ele>
        <time>2023-10-04T12:37:29Z</time>
      </trkpt>
      <trkpt lat="50.05012" lon="2.17653">
        <ele>37.5</ele>
        <time>2023-10-04T12:37:30Z</time>
      </trkpt>
      <trkpt lat="50.05012" lon="2.17655">
        <ele>37.5</ele>
        <time>2023-10-04T12:37:31Z</time>
      </trkpt>
      <trkpt lat="50.05012" lon="2.17657">
        <ele>37.5</ele>
        <time>2023-10-04T12:37:32Z</time>
      </trkpt>
      <trkpt lat="50.05012" lon="2.17658">
        <ele>37.5</ele>
        <time>2023-10-04T12:37:33Z</time>
      </trkpt>
      <trkpt lat="50.05011" lon="2.1766">
        <ele>37.5</ele>
        <time>2023-10-04T12:37:34Z</time>
      </trkpt>
      <trkpt lat="50.05011" lon="2.17662">
        <ele>37.5</ele>
        <time>2023-10-04T12:37:35Z</time>
      </trkpt>
      <trkpt lat="50.05011" lon="2.17663">
        <ele>37.5</ele>
        <time>2023-10-04T12:37:36Z</time>
      </trkpt>
      <trkpt lat="50.05011" lon="2.17665">
        <ele>37.5</ele>
        <time>2023-10-04T12:37:37Z</time>
      </trkpt>
      <trkpt lat="50.05011" lon="2.17668">
        <ele>37.5</ele>
        <time>2023-10-04T12:37:38Z</time>
      </trkpt>
      <trkpt lat="50.0501" lon="2.1767">
        <ele>37.5</ele>
        <time>2023-10-04T12:37:39Z</time>
      </trkpt>
      <trkpt lat="50.0501" lon="2.17671">
        <ele>37.5</ele>
        <time>2023-10-04T12:37:40Z</time>
      </trkpt>
      <trkpt lat="50.0501" lon="2.17673">
        <ele>37.5</ele>
        <time>2023-10-04T12:37:41Z</time>
      </trkpt>
      <trkpt lat="50.0501" lon="2.17674">
        <ele>37.5</ele>
        <time>2023-10-04T12:37:42Z</time>
      </trkpt>
      <trkpt lat="50.0501" lon="2.17676">
        <ele>37.5</ele>
        <time>2023-10-04T12:37:43Z</time>
      </trkpt>
      <trkpt lat="50.0501" lon="2.17679">
        <ele>37.5</ele>
        <time>2023-10-04T12:37:44Z</time>
      </trkpt>
      <trkpt lat="50.0501" lon="2.17681">
        <ele>37.5</ele>
        <time>2023-10-04T12:37:45Z</time>
      </trkpt>
      <trkpt lat="50.0501" lon="2.17682">
        <ele>37.5</ele>
        <time>2023-10-04T12:37:46Z</time>
      </trkpt>
      <trkpt lat="50.0501" lon="2.17684">
        <ele>37.5</ele>
        <time>2023-10-04T12:37:47Z</time>
      </trkpt>
      <trkpt lat="50.0501" lon="2.17686">
        <ele>37.4</ele>
        <time>2023-10-04T12:37:48Z</time>
      </trkpt>
      <trkpt lat="50.0501" lon="2.17689">
        <ele>37.4</ele>
        <time>2023-10-04T12:37:49Z</time>
      </trkpt>
      <trkpt lat="50.0501" lon="2.17691">
        <ele>37.4</ele>
        <time>2023-10-04T12:37:50Z</time>
      </trkpt>
      <trkpt lat="50.0501" lon="2.17693">
        <ele>37.4</ele>
        <time>2023-10-04T12:37:51Z</time>
      </trkpt>
      <trkpt lat="50.0501" lon="2.17695">
        <ele>37.4</ele>
        <time>2023-10-04T12:37:52Z</time>
      </trkpt>
      <trkpt lat="50.0501" lon="2.17697">
        <ele>37.4</ele>
        <time>2023-10-04T12:37:53Z</time>
      </trkpt>
      <trkpt lat="50.0501" lon="2.17698">
        <ele>37.4</ele>
        <time>2023-10-04T12:37:54Z</time>
      </trkpt>
      <trkpt lat="50.0501" lon="2.177">
        <ele>37.4</ele>
        <time>2023-10-04T12:37:55Z</time>
      </trkpt>
      <trkpt lat="50.05009" lon="2.17702">
        <ele>37.4</ele>
        <time>2023-10-04T12:37:56Z</time>
      </trkpt>
      <trkpt lat="50.05009" lon="2.17704">
        <ele>37.4</ele>
        <time>2023-10-04T12:37:57Z</time>
      </trkpt>
      <trkpt lat="50.05009" lon="2.17706">
        <ele>37.4</ele>
        <time>2023-10-04T12:37:58Z</time>
      </trkpt>
      <trkpt lat="50.05009" lon="2.1771">
        <ele>37.4</ele>
        <time>2023-10-04T12:37:59Z</time>
      </trkpt>
      <trkpt lat="50.05009" lon="2.17711">
        <ele>37.4</ele>
        <time>2023-10-04T12:38:00Z</time>
      </trkpt>
      <trkpt lat="50.05009" lon="2.17712">
        <ele>37.4</ele>
        <time>2023-10-04T12:38:01Z</time>
      </trkpt>
      <trkpt lat="50.05009" lon="2.17714">
        <ele>37.4</ele>
        <time>2023-10-04T12:38:02Z</time>
      </trkpt>
      <trkpt lat="50.05009" lon="2.17716">
        <ele>37.4</ele>
        <time>2023-10-04T12:38:03Z</time>
      </trkpt>
      <trkpt lat="50.05009" lon="2.17717">
        <ele>37.4</ele>
        <time>2023-10-04T12:38:04Z</time>
      </trkpt>
      <trkpt lat="50.05009" lon="2.17719">
        <ele>37.3</ele>
        <time>2023-10-04T12:38:05Z</time>
      </trkpt>
      <trkpt lat="50.05009" lon="2.17721">
        <ele>37.3</ele>
        <time>2023-10-04T12:38:06Z</time>
      </trkpt>
      <trkpt lat="50.05009" lon="2.17723">
        <ele>37.3</ele>
        <time>2023-10-04T12:38:07Z</time>
      </trkpt>
      <trkpt lat="50.05008" lon="2.17725">
        <ele>37.3</ele>
        <time>2023-10-04T12:38:08Z</time>
      </trkpt>
      <trkpt lat="50.05008" lon="2.17726">
        <ele>37.3</ele>
        <time>2023-10-04T12:38:09Z</time>
      </trkpt>
      <trkpt lat="50.05008" lon="2.17728">
        <ele>37.3</ele>
        <time>2023-10-04T12:38:10Z</time>
      </trkpt>
      <trkpt lat="50.05008" lon="2.17729">
        <ele>37.3</ele>
        <time>2023-10-04T12:38:11Z</time>
      </trkpt>
      <trkpt lat="50.05008" lon="2.17731">
        <ele>37.3</ele>
        <time>2023-10-04T12:38:12Z</time>
      </trkpt>
      <trkpt lat="50.05008" lon="2.17732">
        <ele>37.3</ele>
        <time>2023-10-04T12:38:13Z</time>
      </trkpt>
      <trkpt lat="50.05008" lon="2.17733">
        <ele>37.3</ele>
        <time>2023-10-04T12:38:14Z</time>
      </trkpt>
      <trkpt lat="50.05007" lon="2.17735">
        <ele>37.3</ele>
        <time>2023-10-04T12:38:15Z</time>
      </trkpt>
      <trkpt lat="50.05007" lon="2.17736">
        <ele>37.3</ele>
        <time>2023-10-04T12:38:16Z</time>
      </trkpt>
      <trkpt lat="50.05006" lon="2.17738">
        <ele>37.3</ele>
        <time>2023-10-04T12:38:17Z</time>
      </trkpt>
      <trkpt lat="50.05005" lon="2.17741">
        <ele>37.3</ele>
        <time>2023-10-04T12:38:18Z</time>
      </trkpt>
      <trkpt lat="50.05005" lon="2.17742">
        <ele>37.3</ele>
        <time>2023-10-04T12:38:19Z</time>
      </trkpt>
      <trkpt lat="50.05005" lon="2.17744">
        <ele>37.3</ele>
        <time>2023-10-04T12:38:20Z</time>
      </trkpt>
      <trkpt lat="50.05004" lon="2.17746">
        <ele>37.3</ele>
        <time>2023-10-04T12:38:21Z</time>
      </trkpt>
      <trkpt lat="50.05004" lon="2.17747">
        <ele>37.3</ele>
        <time>2023-10-04T12:38:22Z</time>
      </trkpt>
      <trkpt lat="50.05004" lon="2.17749">
        <ele>37.3</ele>
        <time>2023-10-04T12:38:23Z</time>
      </trkpt>
      <trkpt lat="50.05004" lon="2.17751">
        <ele>37.3</ele>
        <time>2023-10-04T12:38:24Z</time>
      </trkpt>
      <trkpt lat="50.05004" lon="2.17752">
        <ele>37.3</ele>
        <time>2023-10-04T12:38:25Z</time>
      </trkpt>
      <trkpt lat="50.05004" lon="2.17754">
        <ele>37.3</ele>
        <time>2023-10-04T12:38:26Z</time>
      </trkpt>
      <trkpt lat="50.05004" lon="2.17755">
        <ele>37.3</ele>
        <time>2023-10-04T12:38:27Z</time>
      </trkpt>
      <trkpt lat="50.05003" lon="2.17756">
        <ele>37.3</ele>
        <time>2023-10-04T12:38:28Z</time>
      </trkpt>
      <trkpt lat="50.05003" lon="2.17758">
        <ele>37.3</ele>
        <time>2023-10-04T12:38:29Z</time>
      </trkpt>
      <trkpt lat="50.05003" lon="2.17759">
        <ele>37.3</ele>
        <time>2023-10-04T12:38:30Z</time>
      </trkpt>
      <trkpt lat="50.05003" lon="2.17761">
        <ele>37.3</ele>
        <time>2023-10-04T12:38:31Z</time>
      </trkpt>
      <trkpt lat="50.05003" lon="2.17762">
        <ele>37.3</ele>
        <time>2023-10-04T12:38:32Z</time>
      </trkpt>
      <trkpt lat="50.05003" lon="2.17763">
        <ele>37.3</ele>
        <time>2023-10-04T12:38:33Z</time>
      </trkpt>
      <trkpt lat="50.05003" lon="2.17764">
        <ele>37.3</ele>
        <time>2023-10-04T12:38:34Z</time>
      </trkpt>
      <trkpt lat="50.05002" lon="2.17765">
        <ele>37.3</ele>
        <time>2023-10-04T12:38:35Z</time>
      </trkpt>
      <trkpt lat="50.05002" lon="2.17766">
        <ele>37.3</ele>
        <time>2023-10-04T12:38:36Z</time>
      </trkpt>
      <trkpt lat="50.05001" lon="2.17767">
        <ele>37.3</ele>
        <time>2023-10-04T12:38:37Z</time>
      </trkpt>
      <trkpt lat="50.05001" lon="2.17769">
        <ele>37.3</ele>
        <time>2023-10-04T12:38:38Z</time>
      </trkpt>
      <trkpt lat="50.05001" lon="2.1777">
        <ele>37.3</ele>
        <time>2023-10-04T12:38:39Z</time>
      </trkpt>
      <trkpt lat="50.05001" lon="2.17772">
        <ele>37.3</ele>
        <time>2023-10-04T12:38:40Z</time>
      </trkpt>
      <trkpt lat="50.05001" lon="2.17773">
        <ele>37.3</ele>
        <time>2023-10-04T12:38:41Z</time>
      </trkpt>
      <trkpt lat="50.05001" lon="2.17775">
        <ele>37.3</ele>
        <time>2023-10-04T12:38:42Z</time>
      </trkpt>
      <trkpt lat="50.05001" lon="2.17777">
        <ele>37.3</ele>
        <time>2023-10-04T12:38:43Z</time>
      </trkpt>
      <trkpt lat="50.05001" lon="2.17778">
        <ele>37.3</ele>
        <time>2023-10-04T12:38:44Z</time>
      </trkpt>
      <trkpt lat="50.05001" lon="2.1778">
        <ele>37.3</ele>
        <time>2023-10-04T12:38:45Z</time>
      </trkpt>
      <trkpt lat="50.05001" lon="2.17782">
        <ele>37.3</ele>
        <time>2023-10-04T12:38:46Z</time>
      </trkpt>
      <trkpt lat="50.05001" lon="2.17784">
        <ele>37.3</ele>
        <time>2023-10-04T12:38:47Z</time>
      </trkpt>
      <trkpt lat="50.05" lon="2.17785">
        <ele>37.3</ele>
        <time>2023-10-04T12:38:48Z</time>
      </trkpt>
      <trkpt lat="50.05" lon="2.17787">
        <ele>37.3</ele>
        <time>2023-10-04T12:38:49Z</time>
      </trkpt>
      <trkpt lat="50.05" lon="2.17789">
        <ele>37.3</ele>
        <time>2023-10-04T12:38:50Z</time>
      </trkpt>
      <trkpt lat="50.05" lon="2.17791">
        <ele>37.3</ele>
        <time>2023-10-04T12:38:51Z</time>
      </trkpt>
      <trkpt lat="50.05" lon="2.17792">
        <ele>37.4</ele>
        <time>2023-10-04T12:38:52Z</time>
      </trkpt>
      <trkpt lat="50.04999" lon="2.17794">
        <ele>37.4</ele>
        <time>2023-10-04T12:38:53Z</time>
      </trkpt>
      <trkpt lat="50.04999" lon="2.17795">
        <ele>37.4</ele>
        <time>2023-10-04T12:38:54Z</time>
      </trkpt>
      <trkpt lat="50.04998" lon="2.17798">
        <ele>37.4</ele>
        <time>2023-10-04T12:38:55Z</time>
      </trkpt>
      <trkpt lat="50.04998" lon="2.178">
        <ele>37.4</ele>
        <time>2023-10-04T12:38:56Z</time>
      </trkpt>
      <trkpt lat="50.04998" lon="2.17801">
        <ele>37.4</ele>
        <time>2023-10-04T12:38:57Z</time>
      </trkpt>
      <trkpt lat="50.04998" lon="2.17804">
        <ele>37.4</ele>
        <time>2023-10-04T12:38:58Z</time>
      </trkpt>
      <trkpt lat="50.04998" lon="2.17806">
        <ele>37.4</ele>
        <time>2023-10-04T12:38:59Z</time>
      </trkpt>
      <trkpt lat="50.04998" lon="2.17807">
        <ele>37.4</ele>
        <time>2023-10-04T12:39:00Z</time>
      </trkpt>
      <trkpt lat="50.04998" lon="2.1781">
        <ele>37.4</ele>
        <time>2023-10-04T12:39:01Z</time>
      </trkpt>
      <trkpt lat="50.04998" lon="2.17812">
        <ele>37.4</ele>
        <time>2023-10-04T12:39:02Z</time>
      </trkpt>
      <trkpt lat="50.04998" lon="2.17813">
        <ele>37.4</ele>
        <time>2023-10-04T12:39:03Z</time>
      </trkpt>
      <trkpt lat="50.04998" lon="2.17815">
        <ele>37.4</ele>
        <time>2023-10-04T12:39:04Z</time>
      </trkpt>
      <trkpt lat="50.04998" lon="2.17816">
        <ele>37.4</ele>
        <time>2023-10-04T12:39:05Z</time>
      </trkpt>
      <trkpt lat="50.04998" lon="2.17818">
        <ele>37.4</ele>
        <time>2023-10-04T12:39:06Z</time>
      </trkpt>
      <trkpt lat="50.04998" lon="2.1782">
        <ele>37.4</ele>
        <time>2023-10-04T12:39:07Z</time>
      </trkpt>
      <trkpt lat="50.04998" lon="2.17821">
        <ele>37.5</ele>
        <time>2023-10-04T12:39:08Z</time>
      </trkpt>
      <trkpt lat="50.04998" lon="2.17823">
        <ele>37.5</ele>
        <time>2023-10-04T12:39:09Z</time>
      </trkpt>
      <trkpt lat="50.04998" lon="2.17827">
        <ele>37.5</ele>
        <time>2023-10-04T12:39:10Z</time>
      </trkpt>
      <trkpt lat="50.04998" lon="2.17828">
        <ele>37.5</ele>
        <time>2023-10-04T12:39:11Z</time>
      </trkpt>
      <trkpt lat="50.04998" lon="2.1783">
        <ele>37.5</ele>
        <time>2023-10-04T12:39:12Z</time>
      </trkpt>
      <trkpt lat="50.04998" lon="2.17832">
        <ele>37.5</ele>
        <time>2023-10-04T12:39:13Z</time>
      </trkpt>
      <trkpt lat="50.04997" lon="2.17833">
        <ele>37.5</ele>
        <time>2023-10-04T12:39:14Z</time>
      </trkpt>
      <trkpt lat="50.04997" lon="2.17835">
        <ele>37.5</ele>
        <time>2023-10-04T12:39:15Z</time>
      </trkpt>
      <trkpt lat="50.04997" lon="2.17837">
        <ele>37.5</ele>
        <time>2023-10-04T12:39:16Z</time>
      </trkpt>
      <trkpt lat="50.04997" lon="2.17839">
        <ele>37.6</ele>
        <time>2023-10-04T12:39:17Z</time>
      </trkpt>
      <trkpt lat="50.04997" lon="2.1784">
        <ele>37.6</ele>
        <time>2023-10-04T12:39:18Z</time>
      </trkpt>
      <trkpt lat="50.04997" lon="2.17842">
        <ele>37.6</ele>
        <time>2023-10-04T12:39:19Z</time>
      </trkpt>
      <trkpt lat="50.04997" lon="2.17844">
        <ele>37.6</ele>
        <time>2023-10-04T12:39:20Z</time>
      </trkpt>
      <trkpt lat="50.04997" lon="2.17846">
        <ele>37.6</ele>
        <time>2023-10-04T12:39:21Z</time>
      </trkpt>
      <trkpt lat="50.04997" lon="2.17848">
        <ele>37.6</ele>
        <time>2023-10-04T12:39:22Z</time>
      </trkpt>
      <trkpt lat="50.04997" lon="2.17849">
        <ele>37.6</ele>
        <time>2023-10-04T12:39:23Z</time>
      </trkpt>
      <trkpt lat="50.04996" lon="2.17851">
        <ele>37.6</ele>
        <time>2023-10-04T12:39:24Z</time>
      </trkpt>
      <trkpt lat="50.04996" lon="2.17854">
        <ele>37.6</ele>
        <time>2023-10-04T12:39:25Z</time>
      </trkpt>
      <trkpt lat="50.04996" lon="2.17856">
        <ele>37.6</ele>
        <time>2023-10-04T12:39:26Z</time>
      </trkpt>
      <trkpt lat="50.04996" lon="2.17857">
        <ele>37.6</ele>
        <time>2023-10-04T12:39:27Z</time>
      </trkpt>
      <trkpt lat="50.04996" lon="2.17859">
        <ele>37.6</ele>
        <time>2023-10-04T12:39:28Z</time>
      </trkpt>
      <trkpt lat="50.04996" lon="2.17861">
        <ele>37.6</ele>
        <time>2023-10-04T12:39:29Z</time>
      </trkpt>
      <trkpt lat="50.04996" lon="2.17865">
        <ele>37.7</ele>
        <time>2023-10-04T12:39:30Z</time>
      </trkpt>
      <trkpt lat="50.04996" lon="2.17866">
        <ele>37.7</ele>
        <time>2023-10-04T12:39:31Z</time>
      </trkpt>
      <trkpt lat="50.04996" lon="2.17867">
        <ele>37.7</ele>
        <time>2023-10-04T12:39:32Z</time>
      </trkpt>
      <trkpt lat="50.04997" lon="2.17871">
        <ele>37.7</ele>
        <time>2023-10-04T12:39:33Z</time>
      </trkpt>
      <trkpt lat="50.04997" lon="2.17872">
        <ele>37.7</ele>
        <time>2023-10-04T12:39:34Z</time>
      </trkpt>
      <trkpt lat="50.04997" lon="2.17873">
        <ele>37.7</ele>
        <time>2023-10-04T12:39:35Z</time>
      </trkpt>
      <trkpt lat="50.04997" lon="2.17875">
        <ele>37.7</ele>
        <time>2023-10-04T12:39:36Z</time>
      </trkpt>
      <trkpt lat="50.04997" lon="2.17877">
        <ele>37.7</ele>
        <time>2023-10-04T12:39:37Z</time>
      </trkpt>
      <trkpt lat="50.04997" lon="2.17878">
        <ele>37.7</ele>
        <time>2023-10-04T12:39:38Z</time>
      </trkpt>
      <trkpt lat="50.04997" lon="2.1788">
        <ele>37.7</ele>
        <time>2023-10-04T12:39:39Z</time>
      </trkpt>
      <trkpt lat="50.04997" lon="2.17881">
        <ele>37.7</ele>
        <time>2023-10-04T12:39:40Z</time>
      </trkpt>
      <trkpt lat="50.04997" lon="2.17882">
        <ele>37.7</ele>
        <time>2023-10-04T12:39:41Z</time>
      </trkpt>
      <trkpt lat="50.04997" lon="2.17884">
        <ele>37.7</ele>
        <time>2023-10-04T12:39:42Z</time>
      </trkpt>
      <trkpt lat="50.04997" lon="2.17885">
        <ele>37.7</ele>
        <time>2023-10-04T12:39:43Z</time>
      </trkpt>
      <trkpt lat="50.04997" lon="2.17887">
        <ele>37.7</ele>
        <time>2023-10-04T12:39:44Z</time>
      </trkpt>
      <trkpt lat="50.04997" lon="2.17888">
        <ele>37.7</ele>
        <time>2023-10-04T12:39:45Z</time>
      </trkpt>
      <trkpt lat="50.04997" lon="2.1789">
        <ele>37.7</ele>
        <time>2023-10-04T12:39:46Z</time>
      </trkpt>
      <trkpt lat="50.04996" lon="2.17891">
        <ele>37.7</ele>
        <time>2023-10-04T12:39:47Z</time>
      </trkpt>
      <trkpt lat="50.04996" lon="2.17893">
        <ele>37.7</ele>
        <time>2023-10-04T12:39:48Z</time>
      </trkpt>
      <trkpt lat="50.04996" lon="2.17895">
        <ele>37.7</ele>
        <time>2023-10-04T12:39:49Z</time>
      </trkpt>
      <trkpt lat="50.04996" lon="2.17896">
        <ele>37.7</ele>
        <time>2023-10-04T12:39:50Z</time>
      </trkpt>
      <trkpt lat="50.04996" lon="2.17898">
        <ele>37.7</ele>
        <time>2023-10-04T12:39:51Z</time>
      </trkpt>
      <trkpt lat="50.04996" lon="2.179">
        <ele>37.7</ele>
        <time>2023-10-04T12:39:52Z</time>
      </trkpt>
      <trkpt lat="50.04996" lon="2.17901">
        <ele>37.8</ele>
        <time>2023-10-04T12:39:53Z</time>
      </trkpt>
      <trkpt lat="50.04996" lon="2.17902">
        <ele>37.8</ele>
        <time>2023-10-04T12:39:54Z</time>
      </trkpt>
      <trkpt lat="50.04996" lon="2.17904">
        <ele>37.8</ele>
        <time>2023-10-04T12:39:55Z</time>
      </trkpt>
      <trkpt lat="50.04996" lon="2.17905">
        <ele>37.8</ele>
        <time>2023-10-04T12:39:56Z</time>
      </trkpt>
      <trkpt lat="50.04997" lon="2.17907">
        <ele>37.8</ele>
        <time>2023-10-04T12:39:57Z</time>
      </trkpt>
      <trkpt lat="50.04997" lon="2.1791">
        <ele>37.8</ele>
        <time>2023-10-04T12:39:58Z</time>
      </trkpt>
      <trkpt lat="50.04997" lon="2.17912">
        <ele>37.8</ele>
        <time>2023-10-04T12:39:59Z</time>
      </trkpt>
      <trkpt lat="50.04997" lon="2.17913">
        <ele>37.8</ele>
        <time>2023-10-04T12:40:00Z</time>
      </trkpt>
      <trkpt lat="50.04997" lon="2.17916">
        <ele>37.8</ele>
        <time>2023-10-04T12:40:01Z</time>
      </trkpt>
      <trkpt lat="50.04997" lon="2.17918">
        <ele>37.8</ele>
        <time>2023-10-04T12:40:02Z</time>
      </trkpt>
      <trkpt lat="50.04997" lon="2.17919">
        <ele>37.8</ele>
        <time>2023-10-04T12:40:03Z</time>
      </trkpt>
      <trkpt lat="50.04997" lon="2.17922">
        <ele>37.8</ele>
        <time>2023-10-04T12:40:04Z</time>
      </trkpt>
      <trkpt lat="50.04997" lon="2.17924">
        <ele>37.8</ele>
        <time>2023-10-04T12:40:05Z</time>
      </trkpt>
      <trkpt lat="50.04997" lon="2.17925">
        <ele>37.8</ele>
        <time>2023-10-04T12:40:06Z</time>
      </trkpt>
      <trkpt lat="50.04997" lon="2.17927">
        <ele>37.8</ele>
        <time>2023-10-04T12:40:07Z</time>
      </trkpt>
      <trkpt lat="50.04997" lon="2.17928">
        <ele>37.8</ele>
        <time>2023-10-04T12:40:08Z</time>
      </trkpt>
      <trkpt lat="50.04997" lon="2.1793">
        <ele>37.8</ele>
        <time>2023-10-04T12:40:09Z</time>
      </trkpt>
      <trkpt lat="50.04997" lon="2.17932">
        <ele>37.8</ele>
        <time>2023-10-04T12:40:10Z</time>
      </trkpt>
      <trkpt lat="50.04997" lon="2.17933">
        <ele>37.8</ele>
        <time>2023-10-04T12:40:11Z</time>
      </trkpt>
      <trkpt lat="50.04997" lon="2.17935">
        <ele>37.8</ele>
        <time>2023-10-04T12:40:12Z</time>
      </trkpt>
      <trkpt lat="50.04997" lon="2.17938">
        <ele>37.8</ele>
        <time>2023-10-04T12:40:13Z</time>
      </trkpt>
      <trkpt lat="50.04997" lon="2.1794">
        <ele>37.8</ele>
        <time>2023-10-04T12:40:14Z</time>
      </trkpt>
      <trkpt lat="50.04997" lon="2.17941">
        <ele>37.8</ele>
        <time>2023-10-04T12:40:15Z</time>
      </trkpt>
      <trkpt lat="50.04998" lon="2.17943">
        <ele>37.8</ele>
        <time>2023-10-04T12:40:16Z</time>
      </trkpt>
      <trkpt lat="50.04998" lon="2.17945">
        <ele>37.8</ele>
        <time>2023-10-04T12:40:17Z</time>
      </trkpt>
      <trkpt lat="50.04998" lon="2.17946">
        <ele>37.8</ele>
        <time>2023-10-04T12:40:18Z</time>
      </trkpt>
      <trkpt lat="50.04998" lon="2.17948">
        <ele>37.8</ele>
        <time>2023-10-04T12:40:19Z</time>
      </trkpt>
      <trkpt lat="50.04998" lon="2.1795">
        <ele>37.8</ele>
        <time>2023-10-04T12:40:20Z</time>
      </trkpt>
      <trkpt lat="50.04998" lon="2.17951">
        <ele>37.8</ele>
        <time>2023-10-04T12:40:21Z</time>
      </trkpt>
      <trkpt lat="50.04997" lon="2.17954">
        <ele>37.8</ele>
        <time>2023-10-04T12:40:22Z</time>
      </trkpt>
      <trkpt lat="50.04997" lon="2.17956">
        <ele>37.8</ele>
        <time>2023-10-04T12:40:23Z</time>
      </trkpt>
      <trkpt lat="50.04997" lon="2.17958">
        <ele>37.8</ele>
        <time>2023-10-04T12:40:24Z</time>
      </trkpt>
      <trkpt lat="50.04997" lon="2.17961">
        <ele>37.8</ele>
        <time>2023-10-04T12:40:25Z</time>
      </trkpt>
      <trkpt lat="50.04997" lon="2.17963">
        <ele>37.8</ele>
        <time>2023-10-04T12:40:26Z</time>
      </trkpt>
      <trkpt lat="50.04996" lon="2.17966">
        <ele>37.8</ele>
        <time>2023-10-04T12:40:27Z</time>
      </trkpt>
      <trkpt lat="50.04996" lon="2.17968">
        <ele>37.8</ele>
        <time>2023-10-04T12:40:28Z</time>
      </trkpt>
      <trkpt lat="50.04996" lon="2.17971">
        <ele>37.9</ele>
        <time>2023-10-04T12:40:29Z</time>
      </trkpt>
      <trkpt lat="50.04996" lon="2.17973">
        <ele>37.9</ele>
        <time>2023-10-04T12:40:30Z</time>
      </trkpt>
      <trkpt lat="50.04996" lon="2.17975">
        <ele>37.9</ele>
        <time>2023-10-04T12:40:31Z</time>
      </trkpt>
      <trkpt lat="50.04995" lon="2.17977">
        <ele>37.9</ele>
        <time>2023-10-04T12:40:32Z</time>
      </trkpt>
      <trkpt lat="50.04995" lon="2.17979">
        <ele>37.9</ele>
        <time>2023-10-04T12:40:33Z</time>
      </trkpt>
      <trkpt lat="50.04995" lon="2.17983">
        <ele>37.9</ele>
        <time>2023-10-04T12:40:34Z</time>
      </trkpt>
      <trkpt lat="50.04995" lon="2.17984">
        <ele>37.9</ele>
        <time>2023-10-04T12:40:35Z</time>
      </trkpt>
      <trkpt lat="50.04995" lon="2.17985">
        <ele>37.9</ele>
        <time>2023-10-04T12:40:36Z</time>
      </trkpt>
      <trkpt lat="50.04994" lon="2.17987">
        <ele>38</ele>
        <time>2023-10-04T12:40:37Z</time>
      </trkpt>
      <trkpt lat="50.04994" lon="2.17988">
        <ele>38</ele>
        <time>2023-10-04T12:40:38Z</time>
      </trkpt>
      <trkpt lat="50.04994" lon="2.17989">
        <ele>38</ele>
        <time>2023-10-04T12:40:39Z</time>
      </trkpt>
      <trkpt lat="50.04994" lon="2.1799">
        <ele>38</ele>
        <time>2023-10-04T12:40:40Z</time>
      </trkpt>
      <trkpt lat="50.04994" lon="2.17992">
        <ele>38</ele>
        <time>2023-10-04T12:40:41Z</time>
      </trkpt>
      <trkpt lat="50.04993" lon="2.17993">
        <ele>38</ele>
        <time>2023-10-04T12:40:42Z</time>
      </trkpt>
      <trkpt lat="50.04993" lon="2.17995">
        <ele>38</ele>
        <time>2023-10-04T12:40:43Z</time>
      </trkpt>
      <trkpt lat="50.04993" lon="2.17996">
        <ele>38</ele>
        <time>2023-10-04T12:40:44Z</time>
      </trkpt>
      <trkpt lat="50.04993" lon="2.17997">
        <ele>38</ele>
        <time>2023-10-04T12:40:45Z</time>
      </trkpt>
      <trkpt lat="50.04993" lon="2.17999">
        <ele>38</ele>
        <time>2023-10-04T12:40:46Z</time>
      </trkpt>
      <trkpt lat="50.04993" lon="2.18">
        <ele>38</ele>
        <time>2023-10-04T12:40:47Z</time>
      </trkpt>
      <trkpt lat="50.04993" lon="2.18001">
        <ele>38</ele>
        <time>2023-10-04T12:40:48Z</time>
      </trkpt>
      <trkpt lat="50.04993" lon="2.18002">
        <ele>38</ele>
        <time>2023-10-04T12:40:49Z</time>
      </trkpt>
      <trkpt lat="50.04992" lon="2.18003">
        <ele>38</ele>
        <time>2023-10-04T12:40:50Z</time>
      </trkpt>
      <trkpt lat="50.04992" lon="2.18004">
        <ele>38.1</ele>
        <time>2023-10-04T12:40:51Z</time>
      </trkpt>
      <trkpt lat="50.04992" lon="2.18006">
        <ele>38.1</ele>
        <time>2023-10-04T12:40:52Z</time>
      </trkpt>
      <trkpt lat="50.04992" lon="2.18007">
        <ele>38.1</ele>
        <time>2023-10-04T12:40:53Z</time>
      </trkpt>
      <trkpt lat="50.04992" lon="2.18008">
        <ele>38.1</ele>
        <time>2023-10-04T12:40:54Z</time>
      </trkpt>
      <trkpt lat="50.04992" lon="2.1801">
        <ele>38.1</ele>
        <time>2023-10-04T12:40:55Z</time>
      </trkpt>
      <trkpt lat="50.04992" lon="2.18011">
        <ele>38.1</ele>
        <time>2023-10-04T12:40:56Z</time>
      </trkpt>
      <trkpt lat="50.04992" lon="2.18012">
        <ele>38.1</ele>
        <time>2023-10-04T12:40:57Z</time>
      </trkpt>
      <trkpt lat="50.04992" lon="2.18014">
        <ele>38.1</ele>
        <time>2023-10-04T12:40:58Z</time>
      </trkpt>
      <trkpt lat="50.04992" lon="2.18015">
        <ele>38.1</ele>
        <time>2023-10-04T12:40:59Z</time>
      </trkpt>
      <trkpt lat="50.04992" lon="2.18017">
        <ele>38.1</ele>
        <time>2023-10-04T12:41:00Z</time>
      </trkpt>
      <trkpt lat="50.04992" lon="2.18018">
        <ele>38.1</ele>
        <time>2023-10-04T12:41:01Z</time>
      </trkpt>
      <trkpt lat="50.04992" lon="2.1802">
        <ele>38.1</ele>
        <time>2023-10-04T12:41:02Z</time>
      </trkpt>
      <trkpt lat="50.04991" lon="2.18021">
        <ele>38.1</ele>
        <time>2023-10-04T12:41:03Z</time>
      </trkpt>
      <trkpt lat="50.04991" lon="2.18022">
        <ele>38.1</ele>
        <time>2023-10-04T12:41:04Z</time>
      </trkpt>
      <trkpt lat="50.04991" lon="2.18023">
        <ele>38.1</ele>
        <time>2023-10-04T12:41:05Z</time>
      </trkpt>
      <trkpt lat="50.04991" lon="2.18025">
        <ele>38.1</ele>
        <time>2023-10-04T12:41:06Z</time>
      </trkpt>
      <trkpt lat="50.04991" lon="2.18026">
        <ele>38.1</ele>
        <time>2023-10-04T12:41:07Z</time>
      </trkpt>
      <trkpt lat="50.04991" lon="2.18028">
        <ele>38.1</ele>
        <time>2023-10-04T12:41:08Z</time>
      </trkpt>
      <trkpt lat="50.04991" lon="2.1803">
        <ele>38.1</ele>
        <time>2023-10-04T12:41:09Z</time>
      </trkpt>
      <trkpt lat="50.0499" lon="2.18031">
        <ele>38.1</ele>
        <time>2023-10-04T12:41:10Z</time>
      </trkpt>
      <trkpt lat="50.0499" lon="2.18033">
        <ele>38.2</ele>
        <time>2023-10-04T12:41:11Z</time>
      </trkpt>
      <trkpt lat="50.0499" lon="2.18035">
        <ele>38.2</ele>
        <time>2023-10-04T12:41:12Z</time>
      </trkpt>
      <trkpt lat="50.0499" lon="2.18036">
        <ele>38.2</ele>
        <time>2023-10-04T12:41:13Z</time>
      </trkpt>
      <trkpt lat="50.0499" lon="2.18037">
        <ele>38.2</ele>
        <time>2023-10-04T12:41:14Z</time>
      </trkpt>
      <trkpt lat="50.0499" lon="2.18039">
        <ele>38.2</ele>
        <time>2023-10-04T12:41:15Z</time>
      </trkpt>
      <trkpt lat="50.04989" lon="2.1804">
        <ele>38.2</ele>
        <time>2023-10-04T12:41:16Z</time>
      </trkpt>
      <trkpt lat="50.04989" lon="2.18042">
        <ele>38.2</ele>
        <time>2023-10-04T12:41:17Z</time>
      </trkpt>
      <trkpt lat="50.04989" lon="2.18043">
        <ele>38.2</ele>
        <time>2023-10-04T12:41:18Z</time>
      </trkpt>
      <trkpt lat="50.04989" lon="2.18045">
        <ele>38.2</ele>
        <time>2023-10-04T12:41:19Z</time>
      </trkpt>
      <trkpt lat="50.04989" lon="2.18047">
        <ele>38.2</ele>
        <time>2023-10-04T12:41:20Z</time>
      </trkpt>
      <trkpt lat="50.04989" lon="2.1805">
        <ele>38.2</ele>
        <time>2023-10-04T12:41:21Z</time>
      </trkpt>
      <trkpt lat="50.04989" lon="2.18052">
        <ele>38.3</ele>
        <time>2023-10-04T12:41:22Z</time>
      </trkpt>
      <trkpt lat="50.04989" lon="2.18053">
        <ele>38.3</ele>
        <time>2023-10-04T12:41:23Z</time>
      </trkpt>
      <trkpt lat="50.04989" lon="2.18055">
        <ele>38.3</ele>
        <time>2023-10-04T12:41:24Z</time>
      </trkpt>
      <trkpt lat="50.04989" lon="2.18057">
        <ele>38.3</ele>
        <time>2023-10-04T12:41:25Z</time>
      </trkpt>
      <trkpt lat="50.04989" lon="2.18059">
        <ele>38.3</ele>
        <time>2023-10-04T12:41:26Z</time>
      </trkpt>
      <trkpt lat="50.04989" lon="2.1806">
        <ele>38.3</ele>
        <time>2023-10-04T12:41:27Z</time>
      </trkpt>
      <trkpt lat="50.04989" lon="2.18062">
        <ele>38.3</ele>
        <time>2023-10-04T12:41:28Z</time>
      </trkpt>
      <trkpt lat="50.04989" lon="2.18064">
        <ele>38.3</ele>
        <time>2023-10-04T12:41:29Z</time>
      </trkpt>
      <trkpt lat="50.04988" lon="2.18067">
        <ele>38.3</ele>
        <time>2023-10-04T12:41:30Z</time>
      </trkpt>
      <trkpt lat="50.04989" lon="2.18069">
        <ele>38.3</ele>
        <time>2023-10-04T12:41:31Z</time>
      </trkpt>
      <trkpt lat="50.04989" lon="2.1807">
        <ele>38.3</ele>
        <time>2023-10-04T12:41:32Z</time>
      </trkpt>
      <trkpt lat="50.04989" lon="2.18073">
        <ele>38.4</ele>
        <time>2023-10-04T12:41:33Z</time>
      </trkpt>
      <trkpt lat="50.04989" lon="2.18075">
        <ele>38.4</ele>
        <time>2023-10-04T12:41:34Z</time>
      </trkpt>
      <trkpt lat="50.04988" lon="2.18077">
        <ele>38.4</ele>
        <time>2023-10-04T12:41:35Z</time>
      </trkpt>
      <trkpt lat="50.04988" lon="2.18079">
        <ele>38.4</ele>
        <time>2023-10-04T12:41:36Z</time>
      </trkpt>
      <trkpt lat="50.04988" lon="2.18083">
        <ele>38.4</ele>
        <time>2023-10-04T12:41:37Z</time>
      </trkpt>
      <trkpt lat="50.04988" lon="2.18084">
        <ele>38.4</ele>
        <time>2023-10-04T12:41:38Z</time>
      </trkpt>
      <trkpt lat="50.04988" lon="2.18085">
        <ele>38.4</ele>
        <time>2023-10-04T12:41:39Z</time>
      </trkpt>
      <trkpt lat="50.04988" lon="2.18087">
        <ele>38.4</ele>
        <time>2023-10-04T12:41:40Z</time>
      </trkpt>
      <trkpt lat="50.04988" lon="2.18089">
        <ele>38.4</ele>
        <time>2023-10-04T12:41:41Z</time>
      </trkpt>
      <trkpt lat="50.04988" lon="2.18091">
        <ele>38.4</ele>
        <time>2023-10-04T12:41:42Z</time>
      </trkpt>
      <trkpt lat="50.04987" lon="2.18092">
        <ele>38.4</ele>
        <time>2023-10-04T12:41:43Z</time>
      </trkpt>
      <trkpt lat="50.04987" lon="2.18094">
        <ele>38.4</ele>
        <time>2023-10-04T12:41:44Z</time>
      </trkpt>
      <trkpt lat="50.04987" lon="2.18095">
        <ele>38.4</ele>
        <time>2023-10-04T12:41:45Z</time>
      </trkpt>
      <trkpt lat="50.04987" lon="2.18097">
        <ele>38.5</ele>
        <time>2023-10-04T12:41:46Z</time>
      </trkpt>
      <trkpt lat="50.04987" lon="2.18098">
        <ele>38.5</ele>
        <time>2023-10-04T12:41:47Z</time>
      </trkpt>
      <trkpt lat="50.04987" lon="2.181">
        <ele>38.5</ele>
        <time>2023-10-04T12:41:48Z</time>
      </trkpt>
      <trkpt lat="50.04987" lon="2.18102">
        <ele>38.5</ele>
        <time>2023-10-04T12:41:49Z</time>
      </trkpt>
      <trkpt lat="50.04987" lon="2.18104">
        <ele>38.5</ele>
        <time>2023-10-04T12:41:50Z</time>
      </trkpt>
      <trkpt lat="50.04987" lon="2.18106">
        <ele>38.5</ele>
        <time>2023-10-04T12:41:51Z</time>
      </trkpt>
      <trkpt lat="50.04987" lon="2.18107">
        <ele>38.5</ele>
        <time>2023-10-04T12:41:52Z</time>
      </trkpt>
      <trkpt lat="50.04987" lon="2.18109">
        <ele>38.5</ele>
        <time>2023-10-04T12:41:53Z</time>
      </trkpt>
      <trkpt lat="50.04987" lon="2.18111">
        <ele>38.5</ele>
        <time>2023-10-04T12:41:54Z</time>
      </trkpt>
      <trkpt lat="50.04988" lon="2.18114">
        <ele>38.5</ele>
        <time>2023-10-04T12:41:55Z</time>
      </trkpt>
      <trkpt lat="50.04988" lon="2.18116">
        <ele>38.5</ele>
        <time>2023-10-04T12:41:56Z</time>
      </trkpt>
      <trkpt lat="50.04988" lon="2.18117">
        <ele>38.5</ele>
        <time>2023-10-04T12:41:57Z</time>
      </trkpt>
      <trkpt lat="50.04988" lon="2.1812">
        <ele>38.5</ele>
        <time>2023-10-04T12:41:58Z</time>
      </trkpt>
      <trkpt lat="50.04988" lon="2.18121">
        <ele>38.5</ele>
        <time>2023-10-04T12:41:59Z</time>
      </trkpt>
      <trkpt lat="50.04988" lon="2.18123">
        <ele>38.5</ele>
        <time>2023-10-04T12:42:00Z</time>
      </trkpt>
      <trkpt lat="50.04988" lon="2.18124">
        <ele>38.5</ele>
        <time>2023-10-04T12:42:01Z</time>
      </trkpt>
      <trkpt lat="50.04988" lon="2.18126">
        <ele>38.5</ele>
        <time>2023-10-04T12:42:02Z</time>
      </trkpt>
      <trkpt lat="50.04988" lon="2.18127">
        <ele>38.5</ele>
        <time>2023-10-04T12:42:03Z</time>
      </trkpt>
      <trkpt lat="50.04988" lon="2.18129">
        <ele>38.5</ele>
        <time>2023-10-04T12:42:04Z</time>
      </trkpt>
      <trkpt lat="50.04988" lon="2.1813">
        <ele>38.5</ele>
        <time>2023-10-04T12:42:05Z</time>
      </trkpt>
      <trkpt lat="50.04988" lon="2.18132">
        <ele>38.5</ele>
        <time>2023-10-04T12:42:06Z</time>
      </trkpt>
      <trkpt lat="50.04988" lon="2.18134">
        <ele>38.5</ele>
        <time>2023-10-04T12:42:07Z</time>
      </trkpt>
      <trkpt lat="50.04988" lon="2.18135">
        <ele>38.5</ele>
        <time>2023-10-04T12:42:08Z</time>
      </trkpt>
      <trkpt lat="50.04988" lon="2.18137">
        <ele>38.5</ele>
        <time>2023-10-04T12:42:09Z</time>
      </trkpt>
      <trkpt lat="50.04988" lon="2.18138">
        <ele>38.6</ele>
        <time>2023-10-04T12:42:10Z</time>
      </trkpt>
      <trkpt lat="50.04988" lon="2.1814">
        <ele>38.6</ele>
        <time>2023-10-04T12:42:11Z</time>
      </trkpt>
      <trkpt lat="50.04988" lon="2.18141">
        <ele>38.6</ele>
        <time>2023-10-04T12:42:12Z</time>
      </trkpt>
      <trkpt lat="50.04988" lon="2.18142">
        <ele>38.6</ele>
        <time>2023-10-04T12:42:13Z</time>
      </trkpt>
      <trkpt lat="50.04989" lon="2.18144">
        <ele>38.6</ele>
        <time>2023-10-04T12:42:14Z</time>
      </trkpt>
      <trkpt lat="50.04989" lon="2.18145">
        <ele>38.6</ele>
        <time>2023-10-04T12:42:15Z</time>
      </trkpt>
      <trkpt lat="50.04989" lon="2.18146">
        <ele>38.6</ele>
        <time>2023-10-04T12:42:16Z</time>
      </trkpt>
      <trkpt lat="50.04989" lon="2.18147">
        <ele>38.6</ele>
        <time>2023-10-04T12:42:17Z</time>
      </trkpt>
      <trkpt lat="50.04989" lon="2.18149">
        <ele>38.6</ele>
        <time>2023-10-04T12:42:18Z</time>
      </trkpt>
      <trkpt lat="50.04989" lon="2.1815">
        <ele>38.6</ele>
        <time>2023-10-04T12:42:19Z</time>
      </trkpt>
      <trkpt lat="50.04989" lon="2.18152">
        <ele>38.6</ele>
        <time>2023-10-04T12:42:20Z</time>
      </trkpt>
      <trkpt lat="50.04989" lon="2.18153">
        <ele>38.6</ele>
        <time>2023-10-04T12:42:21Z</time>
      </trkpt>
      <trkpt lat="50.04989" lon="2.18155">
        <ele>38.6</ele>
        <time>2023-10-04T12:42:22Z</time>
      </trkpt>
      <trkpt lat="50.04989" lon="2.18156">
        <ele>38.6</ele>
        <time>2023-10-04T12:42:23Z</time>
      </trkpt>
      <trkpt lat="50.04989" lon="2.18157">
        <ele>38.6</ele>
        <time>2023-10-04T12:42:24Z</time>
      </trkpt>
      <trkpt lat="50.04989" lon="2.18159">
        <ele>38.6</ele>
        <time>2023-10-04T12:42:25Z</time>
      </trkpt>
      <trkpt lat="50.04989" lon="2.18161">
        <ele>38.6</ele>
        <time>2023-10-04T12:42:26Z</time>
      </trkpt>
      <trkpt lat="50.04989" lon="2.18162">
        <ele>38.6</ele>
        <time>2023-10-04T12:42:27Z</time>
      </trkpt>
      <trkpt lat="50.04989" lon="2.18164">
        <ele>38.6</ele>
        <time>2023-10-04T12:42:28Z</time>
      </trkpt>
      <trkpt lat="50.04989" lon="2.18166">
        <ele>38.6</ele>
        <time>2023-10-04T12:42:29Z</time>
      </trkpt>
      <trkpt lat="50.04989" lon="2.18168">
        <ele>38.6</ele>
        <time>2023-10-04T12:42:30Z</time>
      </trkpt>
      <trkpt lat="50.04989" lon="2.1817">
        <ele>38.6</ele>
        <time>2023-10-04T12:42:31Z</time>
      </trkpt>
      <trkpt lat="50.0499" lon="2.18171">
        <ele>38.6</ele>
        <time>2023-10-04T12:42:32Z</time>
      </trkpt>
      <trkpt lat="50.0499" lon="2.18173">
        <ele>38.6</ele>
        <time>2023-10-04T12:42:33Z</time>
      </trkpt>
      <trkpt lat="50.0499" lon="2.18175">
        <ele>38.6</ele>
        <time>2023-10-04T12:42:34Z</time>
      </trkpt>
      <trkpt lat="50.0499" lon="2.18176">
        <ele>38.6</ele>
        <time>2023-10-04T12:42:35Z</time>
      </trkpt>
      <trkpt lat="50.0499" lon="2.18178">
        <ele>38.6</ele>
        <time>2023-10-04T12:42:36Z</time>
      </trkpt>
      <trkpt lat="50.0499" lon="2.1818">
        <ele>38.7</ele>
        <time>2023-10-04T12:42:37Z</time>
      </trkpt>
      <trkpt lat="50.0499" lon="2.18182">
        <ele>38.7</ele>
        <time>2023-10-04T12:42:38Z</time>
      </trkpt>
      <trkpt lat="50.04991" lon="2.18185">
        <ele>38.7</ele>
        <time>2023-10-04T12:42:39Z</time>
      </trkpt>
      <trkpt lat="50.04991" lon="2.18186">
        <ele>38.7</ele>
        <time>2023-10-04T12:42:40Z</time>
      </trkpt>
      <trkpt lat="50.04991" lon="2.18188">
        <ele>38.7</ele>
        <time>2023-10-04T12:42:41Z</time>
      </trkpt>
      <trkpt lat="50.04991" lon="2.1819">
        <ele>38.7</ele>
        <time>2023-10-04T12:42:42Z</time>
      </trkpt>
      <trkpt lat="50.04991" lon="2.18191">
        <ele>38.7</ele>
        <time>2023-10-04T12:42:43Z</time>
      </trkpt>
      <trkpt lat="50.04992" lon="2.18193">
        <ele>38.7</ele>
        <time>2023-10-04T12:42:44Z</time>
      </trkpt>
      <trkpt lat="50.04992" lon="2.18195">
        <ele>38.7</ele>
        <time>2023-10-04T12:42:45Z</time>
      </trkpt>
      <trkpt lat="50.04992" lon="2.18196">
        <ele>38.7</ele>
        <time>2023-10-04T12:42:46Z</time>
      </trkpt>
      <trkpt lat="50.04992" lon="2.18197">
        <ele>38.7</ele>
        <time>2023-10-04T12:42:47Z</time>
      </trkpt>
      <trkpt lat="50.04992" lon="2.18199">
        <ele>38.7</ele>
        <time>2023-10-04T12:42:48Z</time>
      </trkpt>
      <trkpt lat="50.04992" lon="2.182">
        <ele>38.7</ele>
        <time>2023-10-04T12:42:49Z</time>
      </trkpt>
      <trkpt lat="50.04992" lon="2.18201">
        <ele>38.7</ele>
        <time>2023-10-04T12:42:50Z</time>
      </trkpt>
      <trkpt lat="50.04992" lon="2.18202">
        <ele>38.7</ele>
        <time>2023-10-04T12:42:51Z</time>
      </trkpt>
      <trkpt lat="50.04992" lon="2.18204">
        <ele>38.7</ele>
        <time>2023-10-04T12:42:52Z</time>
      </trkpt>
      <trkpt lat="50.04992" lon="2.18206">
        <ele>38.7</ele>
        <time>2023-10-04T12:42:53Z</time>
      </trkpt>
      <trkpt lat="50.04992" lon="2.18207">
        <ele>38.7</ele>
        <time>2023-10-04T12:42:54Z</time>
      </trkpt>
      <trkpt lat="50.04992" lon="2.18209">
        <ele>38.7</ele>
        <time>2023-10-04T12:42:55Z</time>
      </trkpt>
      <trkpt lat="50.04992" lon="2.18211">
        <ele>38.7</ele>
        <time>2023-10-04T12:42:56Z</time>
      </trkpt>
      <trkpt lat="50.04992" lon="2.18213">
        <ele>38.7</ele>
        <time>2023-10-04T12:42:57Z</time>
      </trkpt>
      <trkpt lat="50.04991" lon="2.18214">
        <ele>38.7</ele>
        <time>2023-10-04T12:42:58Z</time>
      </trkpt>
      <trkpt lat="50.04991" lon="2.18216">
        <ele>38.7</ele>
        <time>2023-10-04T12:42:59Z</time>
      </trkpt>
      <trkpt lat="50.04991" lon="2.18217">
        <ele>38.7</ele>
        <time>2023-10-04T12:43:00Z</time>
      </trkpt>
      <trkpt lat="50.04991" lon="2.18219">
        <ele>38.7</ele>
        <time>2023-10-04T12:43:01Z</time>
      </trkpt>
      <trkpt lat="50.04991" lon="2.18221">
        <ele>38.7</ele>
        <time>2023-10-04T12:43:02Z</time>
      </trkpt>
      <trkpt lat="50.04991" lon="2.18223">
        <ele>38.7</ele>
        <time>2023-10-04T12:43:03Z</time>
      </trkpt>
      <trkpt lat="50.04991" lon="2.18224">
        <ele>38.7</ele>
        <time>2023-10-04T12:43:04Z</time>
      </trkpt>
      <trkpt lat="50.04991" lon="2.18226">
        <ele>38.8</ele>
        <time>2023-10-04T12:43:05Z</time>
      </trkpt>
      <trkpt lat="50.04991" lon="2.18228">
        <ele>38.8</ele>
        <time>2023-10-04T12:43:06Z</time>
      </trkpt>
      <trkpt lat="50.04991" lon="2.18231">
        <ele>38.8</ele>
        <time>2023-10-04T12:43:07Z</time>
      </trkpt>
      <trkpt lat="50.04991" lon="2.18232">
        <ele>38.8</ele>
        <time>2023-10-04T12:43:08Z</time>
      </trkpt>
      <trkpt lat="50.04991" lon="2.18233">
        <ele>38.8</ele>
        <time>2023-10-04T12:43:09Z</time>
      </trkpt>
      <trkpt lat="50.04991" lon="2.18235">
        <ele>38.8</ele>
        <time>2023-10-04T12:43:10Z</time>
      </trkpt>
      <trkpt lat="50.04991" lon="2.18237">
        <ele>38.8</ele>
        <time>2023-10-04T12:43:11Z</time>
      </trkpt>
      <trkpt lat="50.04991" lon="2.18239">
        <ele>38.8</ele>
        <time>2023-10-04T12:43:12Z</time>
      </trkpt>
      <trkpt lat="50.04991" lon="2.1824">
        <ele>38.8</ele>
        <time>2023-10-04T12:43:13Z</time>
      </trkpt>
      <trkpt lat="50.04991" lon="2.18242">
        <ele>38.8</ele>
        <time>2023-10-04T12:43:14Z</time>
      </trkpt>
      <trkpt lat="50.0499" lon="2.18244">
        <ele>38.8</ele>
        <time>2023-10-04T12:43:15Z</time>
      </trkpt>
      <trkpt lat="50.0499" lon="2.18245">
        <ele>38.8</ele>
        <time>2023-10-04T12:43:16Z</time>
      </trkpt>
      <trkpt lat="50.0499" lon="2.18247">
        <ele>38.8</ele>
        <time>2023-10-04T12:43:17Z</time>
      </trkpt>
      <trkpt lat="50.0499" lon="2.18248">
        <ele>38.8</ele>
        <time>2023-10-04T12:43:18Z</time>
      </trkpt>
      <trkpt lat="50.04989" lon="2.18249">
        <ele>38.8</ele>
        <time>2023-10-04T12:43:19Z</time>
      </trkpt>
      <trkpt lat="50.04989" lon="2.1825">
        <ele>38.8</ele>
        <time>2023-10-04T12:43:20Z</time>
      </trkpt>
      <trkpt lat="50.04988" lon="2.18251">
        <ele>38.8</ele>
        <time>2023-10-04T12:43:21Z</time>
      </trkpt>
      <trkpt lat="50.04988" lon="2.18252">
        <ele>38.8</ele>
        <time>2023-10-04T12:43:22Z</time>
      </trkpt>
      <trkpt lat="50.04988" lon="2.18252">
        <ele>38.8</ele>
        <time>2023-10-04T12:43:23Z</time>
      </trkpt>
      <trkpt lat="50.04988" lon="2.18253">
        <ele>38.8</ele>
        <time>2023-10-04T12:43:24Z</time>
      </trkpt>
      <trkpt lat="50.04988" lon="2.18254">
        <ele>38.8</ele>
        <time>2023-10-04T12:43:25Z</time>
      </trkpt>
      <trkpt lat="50.04989" lon="2.18256">
        <ele>38.7</ele>
        <time>2023-10-04T12:43:26Z</time>
      </trkpt>
      <trkpt lat="50.04989" lon="2.18256">
        <ele>38.7</ele>
        <time>2023-10-04T12:43:27Z</time>
      </trkpt>
      <trkpt lat="50.0499" lon="2.18257">
        <ele>38.7</ele>
        <time>2023-10-04T12:43:28Z</time>
      </trkpt>
      <trkpt lat="50.04991" lon="2.18257">
        <ele>38.7</ele>
        <time>2023-10-04T12:43:29Z</time>
      </trkpt>
      <trkpt lat="50.04991" lon="2.18258">
        <ele>38.7</ele>
        <time>2023-10-04T12:43:30Z</time>
      </trkpt>
      <trkpt lat="50.04992" lon="2.18258">
        <ele>38.7</ele>
        <time>2023-10-04T12:43:31Z</time>
      </trkpt>
      <trkpt lat="50.04992" lon="2.18257">
        <ele>38.7</ele>
        <time>2023-10-04T12:43:32Z</time>
      </trkpt>
      <trkpt lat="50.04992" lon="2.18257">
        <ele>38.7</ele>
        <time>2023-10-04T12:43:33Z</time>
      </trkpt>
      <trkpt lat="50.04992" lon="2.18257">
        <ele>38.7</ele>
        <time>2023-10-04T12:43:34Z</time>
      </trkpt>
      <trkpt lat="50.04992" lon="2.18257">
        <ele>38.7</ele>
        <time>2023-10-04T12:43:35Z</time>
      </trkpt>
      <trkpt lat="50.04992" lon="2.18257">
        <ele>38.7</ele>
        <time>2023-10-04T12:43:36Z</time>
      </trkpt>
      <trkpt lat="50.04992" lon="2.18257">
        <ele>38.7</ele>
        <time>2023-10-04T12:43:37Z</time>
      </trkpt>
      <trkpt lat="50.04992" lon="2.18257">
        <ele>38.7</ele>
        <time>2023-10-04T12:43:38Z</time>
      </trkpt>
      <trkpt lat="50.04992" lon="2.18257">
        <ele>38.7</ele>
        <time>2023-10-04T12:43:39Z</time>
      </trkpt>
      <trkpt lat="50.04992" lon="2.18257">
        <ele>38.7</ele>
        <time>2023-10-04T12:43:40Z</time>
      </trkpt>
      <trkpt lat="50.04992" lon="2.18257">
        <ele>38.7</ele>
        <time>2023-10-04T12:43:41Z</time>
      </trkpt>
      <trkpt lat="50.04991" lon="2.18257">
        <ele>38.7</ele>
        <time>2023-10-04T12:43:42Z</time>
      </trkpt>
      <trkpt lat="50.04991" lon="2.18256">
        <ele>38.7</ele>
        <time>2023-10-04T12:43:43Z</time>
      </trkpt>
      <trkpt lat="50.04991" lon="2.18256">
        <ele>38.7</ele>
        <time>2023-10-04T12:43:44Z</time>
      </trkpt>
      <trkpt lat="50.04991" lon="2.18256">
        <ele>38.7</ele>
        <time>2023-10-04T12:43:45Z</time>
      </trkpt>
      <trkpt lat="50.04991" lon="2.18256">
        <ele>38.7</ele>
        <time>2023-10-04T12:43:46Z</time>
      </trkpt>
      <trkpt lat="50.04991" lon="2.18256">
        <ele>38.7</ele>
        <time>2023-10-04T12:43:47Z</time>
      </trkpt>
      <trkpt lat="50.04991" lon="2.18256">
        <ele>38.7</ele>
        <time>2023-10-04T12:43:48Z</time>
      </trkpt>
      <trkpt lat="50.04991" lon="2.18256">
        <ele>38.7</ele>
        <time>2023-10-04T12:43:49Z</time>
      </trkpt>
      <trkpt lat="50.04991" lon="2.18256">
        <ele>38.7</ele>
        <time>2023-10-04T12:43:50Z</time>
      </trkpt>
      <trkpt lat="50.04991" lon="2.18256">
        <ele>38.7</ele>
        <time>2023-10-04T12:43:51Z</time>
      </trkpt>
      <trkpt lat="50.04991" lon="2.18256">
        <ele>38.7</ele>
        <time>2023-10-04T12:43:52Z</time>
      </trkpt>
      <trkpt lat="50.04991" lon="2.18256">
        <ele>38.7</ele>
        <time>2023-10-04T12:43:53Z</time>
      </trkpt>
      <trkpt lat="50.04991" lon="2.18256">
        <ele>38.7</ele>
        <time>2023-10-04T12:43:54Z</time>
      </trkpt>
      <trkpt lat="50.04991" lon="2.18256">
        <ele>38.7</ele>
        <time>2023-10-04T12:43:55Z</time>
      </trkpt>
      <trkpt lat="50.04991" lon="2.18256">
        <ele>38.7</ele>
        <time>2023-10-04T12:43:56Z</time>
      </trkpt>
      <trkpt lat="50.04991" lon="2.18256">
        <ele>38.7</ele>
        <time>2023-10-04T12:43:57Z</time>
      </trkpt>
      <trkpt lat="50.04991" lon="2.18256">
        <ele>38.7</ele>
        <time>2023-10-04T12:43:58Z</time>
      </trkpt>
      <trkpt lat="50.04991" lon="2.18256">
        <ele>38.7</ele>
        <time>2023-10-04T12:43:59Z</time>
      </trkpt>
      <trkpt lat="50.0499" lon="2.18256">
        <ele>38.7</ele>
        <time>2023-10-04T12:44:00Z</time>
      </trkpt>
      <trkpt lat="50.0499" lon="2.18255">
        <ele>38.7</ele>
        <time>2023-10-04T12:44:01Z</time>
      </trkpt>
      <trkpt lat="50.0499" lon="2.18255">
        <ele>38.7</ele>
        <time>2023-10-04T12:44:02Z</time>
      </trkpt>
      <trkpt lat="50.0499" lon="2.18255">
        <ele>38.7</ele>
        <time>2023-10-04T12:44:03Z</time>
      </trkpt>
      <trkpt lat="50.0499" lon="2.18255">
        <ele>38.7</ele>
        <time>2023-10-04T12:44:04Z</time>
      </trkpt>
      <trkpt lat="50.0499" lon="2.18255">
        <ele>38.7</ele>
        <time>2023-10-04T12:44:05Z</time>
      </trkpt>
      <trkpt lat="50.0499" lon="2.18255">
        <ele>38.7</ele>
        <time>2023-10-04T12:44:06Z</time>
      </trkpt>
      <trkpt lat="50.0499" lon="2.18255">
        <ele>38.7</ele>
        <time>2023-10-04T12:44:07Z</time>
      </trkpt>
      <trkpt lat="50.0499" lon="2.18255">
        <ele>38.7</ele>
        <time>2023-10-04T12:44:08Z</time>
      </trkpt>
      <trkpt lat="50.0499" lon="2.18255">
        <ele>38.7</ele>
        <time>2023-10-04T12:44:09Z</time>
      </trkpt>
      <trkpt lat="50.0499" lon="2.18255">
        <ele>38.7</ele>
        <time>2023-10-04T12:44:10Z</time>
      </trkpt>
      <trkpt lat="50.0499" lon="2.18255">
        <ele>38.7</ele>
        <time>2023-10-04T12:44:11Z</time>
      </trkpt>
      <trkpt lat="50.0499" lon="2.18255">
        <ele>38.7</ele>
        <time>2023-10-04T12:44:12Z</time>
      </trkpt>
      <trkpt lat="50.0499" lon="2.18255">
        <ele>38.7</ele>
        <time>2023-10-04T12:44:13Z</time>
      </trkpt>
      <trkpt lat="50.0499" lon="2.18255">
        <ele>38.7</ele>
        <time>2023-10-04T12:44:14Z</time>
      </trkpt>
      <trkpt lat="50.0499" lon="2.18255">
        <ele>38.7</ele>
        <time>2023-10-04T12:44:15Z</time>
      </trkpt>
      <trkpt lat="50.0499" lon="2.18255">
        <ele>38.7</ele>
        <time>2023-10-04T12:44:16Z</time>
      </trkpt>
      <trkpt lat="50.0499" lon="2.18255">
        <ele>38.7</ele>
        <time>2023-10-04T12:44:17Z</time>
      </trkpt>
      <trkpt lat="50.04989" lon="2.18255">
        <ele>38.7</ele>
        <time>2023-10-04T12:44:18Z</time>
      </trkpt>
      <trkpt lat="50.04989" lon="2.18254">
        <ele>38.7</ele>
        <time>2023-10-04T12:44:19Z</time>
      </trkpt>
      <trkpt lat="50.04989" lon="2.18254">
        <ele>38.7</ele>
        <time>2023-10-04T12:44:20Z</time>
      </trkpt>
      <trkpt lat="50.04989" lon="2.18254">
        <ele>38.7</ele>
        <time>2023-10-04T12:44:21Z</time>
      </trkpt>
      <trkpt lat="50.04989" lon="2.18254">
        <ele>38.7</ele>
        <time>2023-10-04T12:44:22Z</time>
      </trkpt>
      <trkpt lat="50.04989" lon="2.18254">
        <ele>38.7</ele>
        <time>2023-10-04T12:44:23Z</time>
      </trkpt>
      <trkpt lat="50.04989" lon="2.18254">
        <ele>38.7</ele>
        <time>2023-10-04T12:44:24Z</time>
      </trkpt>
      <trkpt lat="50.04989" lon="2.18254">
        <ele>38.7</ele>
        <time>2023-10-04T12:44:25Z</time>
      </trkpt>
      <trkpt lat="50.04989" lon="2.18254">
        <ele>38.7</ele>
        <time>2023-10-04T12:44:26Z</time>
      </trkpt>
      <trkpt lat="50.04989" lon="2.18254">
        <ele>38.7</ele>
        <time>2023-10-04T12:44:27Z</time>
      </trkpt>
      <trkpt lat="50.04989" lon="2.18254">
        <ele>38.7</ele>
        <time>2023-10-04T12:44:28Z</time>
      </trkpt>
      <trkpt lat="50.04988" lon="2.18254">
        <ele>38.7</ele>
        <time>2023-10-04T12:44:29Z</time>
      </trkpt>
      <trkpt lat="50.04988" lon="2.18254">
        <ele>38.7</ele>
        <time>2023-10-04T12:44:30Z</time>
      </trkpt>
      <trkpt lat="50.04987" lon="2.18254">
        <ele>38.7</ele>
        <time>2023-10-04T12:44:31Z</time>
      </trkpt>
      <trkpt lat="50.04987" lon="2.18254">
        <ele>38.7</ele>
        <time>2023-10-04T12:44:32Z</time>
      </trkpt>
      <trkpt lat="50.04988" lon="2.18254">
        <ele>38.7</ele>
        <time>2023-10-04T12:44:33Z</time>
      </trkpt>
      <trkpt lat="50.04988" lon="2.18255">
        <ele>38.7</ele>
        <time>2023-10-04T12:44:34Z</time>
      </trkpt>
      <trkpt lat="50.04988" lon="2.18255">
        <ele>38.7</ele>
        <time>2023-10-04T12:44:35Z</time>
      </trkpt>
      <trkpt lat="50.04988" lon="2.18255">
        <ele>38.7</ele>
        <time>2023-10-04T12:44:36Z</time>
      </trkpt>
      <trkpt lat="50.04988" lon="2.18255">
        <ele>38.7</ele>
        <time>2023-10-04T12:44:37Z</time>
      </trkpt>
      <trkpt lat="50.04988" lon="2.18255">
        <ele>38.7</ele>
        <time>2023-10-04T12:44:38Z</time>
      </trkpt>
      <trkpt lat="50.04988" lon="2.18255">
        <ele>38.7</ele>
        <time>2023-10-04T12:44:39Z</time>
      </trkpt>
      <trkpt lat="50.04987" lon="2.18255">
        <ele>38.7</ele>
        <time>2023-10-04T12:44:40Z</time>
      </trkpt>
      <trkpt lat="50.04987" lon="2.18255">
        <ele>38.7</ele>
        <time>2023-10-04T12:44:41Z</time>
      </trkpt>
      <trkpt lat="50.04987" lon="2.18256">
        <ele>38.7</ele>
        <time>2023-10-04T12:44:42Z</time>
      </trkpt>
      <trkpt lat="50.04987" lon="2.18256">
        <ele>38.7</ele>
        <time>2023-10-04T12:44:43Z</time>
      </trkpt>
      <trkpt lat="50.04987" lon="2.18256">
        <ele>38.7</ele>
        <time>2023-10-04T12:44:44Z</time>
      </trkpt>
      <trkpt lat="50.04987" lon="2.18256">
        <ele>38.7</ele>
        <time>2023-10-04T12:44:45Z</time>
      </trkpt>
      <trkpt lat="50.04987" lon="2.18256">
        <ele>38.7</ele>
        <time>2023-10-04T12:44:46Z</time>
      </trkpt>
      <trkpt lat="50.04987" lon="2.18257">
        <ele>38.7</ele>
        <time>2023-10-04T12:44:47Z</time>
      </trkpt>
      <trkpt lat="50.04987" lon="2.18257">
        <ele>38.7</ele>
        <time>2023-10-04T12:44:48Z</time>
      </trkpt>
      <trkpt lat="50.04987" lon="2.18257">
        <ele>38.7</ele>
        <time>2023-10-04T12:44:49Z</time>
      </trkpt>
      <trkpt lat="50.04987" lon="2.18257">
        <ele>38.7</ele>
        <time>2023-10-04T12:44:50Z</time>
      </trkpt>
      <trkpt lat="50.04987" lon="2.18257">
        <ele>38.7</ele>
        <time>2023-10-04T12:44:51Z</time>
      </trkpt>
      <trkpt lat="50.04987" lon="2.18257">
        <ele>38.7</ele>
        <time>2023-10-04T12:44:52Z</time>
      </trkpt>
      <trkpt lat="50.04987" lon="2.18257">
        <ele>38.7</ele>
        <time>2023-10-04T12:44:53Z</time>
      </trkpt>
      <trkpt lat="50.04987" lon="2.18257">
        <ele>38.7</ele>
        <time>2023-10-04T12:44:54Z</time>
      </trkpt>
      <trkpt lat="50.04987" lon="2.18257">
        <ele>38.7</ele>
        <time>2023-10-04T12:44:55Z</time>
      </trkpt>
      <trkpt lat="50.04987" lon="2.18257">
        <ele>38.7</ele>
        <time>2023-10-04T12:44:56Z</time>
      </trkpt>
      <trkpt lat="50.04987" lon="2.18257">
        <ele>38.7</ele>
        <time>2023-10-04T12:44:57Z</time>
      </trkpt>
      <trkpt lat="50.04987" lon="2.18257">
        <ele>38.7</ele>
        <time>2023-10-04T12:44:58Z</time>
      </trkpt>
      <trkpt lat="50.04987" lon="2.18257">
        <ele>38.7</ele>
        <time>2023-10-04T12:44:59Z</time>
      </trkpt>
      <trkpt lat="50.04987" lon="2.18257">
        <ele>38.7</ele>
        <time>2023-10-04T12:45:00Z</time>
      </trkpt>
      <trkpt lat="50.04987" lon="2.18257">
        <ele>38.7</ele>
        <time>2023-10-04T12:45:01Z</time>
      </trkpt>
      <trkpt lat="50.04987" lon="2.18257">
        <ele>38.7</ele>
        <time>2023-10-04T12:45:02Z</time>
      </trkpt>
      <trkpt lat="50.04987" lon="2.18257">
        <ele>38.7</ele>
        <time>2023-10-04T12:45:03Z</time>
      </trkpt>
      <trkpt lat="50.04987" lon="2.18257">
        <ele>38.7</ele>
        <time>2023-10-04T12:45:04Z</time>
      </trkpt>
      <trkpt lat="50.04987" lon="2.18257">
        <ele>38.7</ele>
        <time>2023-10-04T12:45:05Z</time>
      </trkpt>
      <trkpt lat="50.04987" lon="2.18257">
        <ele>38.7</ele>
        <time>2023-10-04T12:45:06Z</time>
      </trkpt>
      <trkpt lat="50.04987" lon="2.18257">
        <ele>38.7</ele>
        <time>2023-10-04T12:45:07Z</time>
      </trkpt>
      <trkpt lat="50.04987" lon="2.18257">
        <ele>38.7</ele>
        <time>2023-10-04T12:45:08Z</time>
      </trkpt>
      <trkpt lat="50.04987" lon="2.18257">
        <ele>38.7</ele>
        <time>2023-10-04T12:45:09Z</time>
      </trkpt>
      <trkpt lat="50.04987" lon="2.18257">
        <ele>38.7</ele>
        <time>2023-10-04T12:45:10Z</time>
      </trkpt>
      <trkpt lat="50.04987" lon="2.18257">
        <ele>38.7</ele>
        <time>2023-10-04T12:45:11Z</time>
      </trkpt>
      <trkpt lat="50.04987" lon="2.18257">
        <ele>38.7</ele>
        <time>2023-10-04T12:45:12Z</time>
      </trkpt>
      <trkpt lat="50.04987" lon="2.18257">
        <ele>38.7</ele>
        <time>2023-10-04T12:45:13Z</time>
      </trkpt>
      <trkpt lat="50.04987" lon="2.18257">
        <ele>38.7</ele>
        <time>2023-10-04T12:45:14Z</time>
      </trkpt>
      <trkpt lat="50.04987" lon="2.18257">
        <ele>38.7</ele>
        <time>2023-10-04T12:45:15Z</time>
      </trkpt>
      <trkpt lat="50.04987" lon="2.18257">
        <ele>38.7</ele>
        <time>2023-10-04T12:45:16Z</time>
      </trkpt>
      <trkpt lat="50.04987" lon="2.18257">
        <ele>38.7</ele>
        <time>2023-10-04T12:45:17Z</time>
      </trkpt>
      <trkpt lat="50.04987" lon="2.18257">
        <ele>38.7</ele>
        <time>2023-10-04T12:45:18Z</time>
      </trkpt>
      <trkpt lat="50.04987" lon="2.18257">
        <ele>38.7</ele>
        <time>2023-10-04T12:45:19Z</time>
      </trkpt>
      <trkpt lat="50.04987" lon="2.18257">
        <ele>38.7</ele>
        <time>2023-10-04T12:45:20Z</time>
      </trkpt>
      <trkpt lat="50.04987" lon="2.18257">
        <ele>38.7</ele>
        <time>2023-10-04T12:45:21Z</time>
      </trkpt>
      <trkpt lat="50.04987" lon="2.18257">
        <ele>38.7</ele>
        <time>2023-10-04T12:45:22Z</time>
      </trkpt>
      <trkpt lat="50.04987" lon="2.18257">
        <ele>38.7</ele>
        <time>2023-10-04T12:45:23Z</time>
      </trkpt>
      <trkpt lat="50.04987" lon="2.18257">
        <ele>38.7</ele>
        <time>2023-10-04T12:45:24Z</time>
      </trkpt>
      <trkpt lat="50.04987" lon="2.18257">
        <ele>38.7</ele>
        <time>2023-10-04T12:45:25Z</time>
      </trkpt>
      <trkpt lat="50.04987" lon="2.18257">
        <ele>38.7</ele>
        <time>2023-10-04T12:45:26Z</time>
      </trkpt>
      <trkpt lat="50.04987" lon="2.18257">
        <ele>38.7</ele>
        <time>2023-10-04T12:45:27Z</time>
      </trkpt>
      <trkpt lat="50.04987" lon="2.18257">
        <ele>38.7</ele>
        <time>2023-10-04T12:45:28Z</time>
      </trkpt>
      <trkpt lat="50.04987" lon="2.18257">
        <ele>38.7</ele>
        <time>2023-10-04T12:45:29Z</time>
      </trkpt>
      <trkpt lat="50.04987" lon="2.18257">
        <ele>38.7</ele>
        <time>2023-10-04T12:45:30Z</time>
      </trkpt>
      <trkpt lat="50.04987" lon="2.18257">
        <ele>38.7</ele>
        <time>2023-10-04T12:45:31Z</time>
      </trkpt>
      <trkpt lat="50.04987" lon="2.18257">
        <ele>38.7</ele>
        <time>2023-10-04T12:45:32Z</time>
      </trkpt>
      <trkpt lat="50.04987" lon="2.18257">
        <ele>38.7</ele>
        <time>2023-10-04T12:45:33Z</time>
      </trkpt>
      <trkpt lat="50.04987" lon="2.18257">
        <ele>38.7</ele>
        <time>2023-10-04T12:45:34Z</time>
      </trkpt>
      <trkpt lat="50.04987" lon="2.18257">
        <ele>38.7</ele>
        <time>2023-10-04T12:45:35Z</time>
      </trkpt>
      <trkpt lat="50.04987" lon="2.18257">
        <ele>38.7</ele>
        <time>2023-10-04T12:45:36Z</time>
      </trkpt>
      <trkpt lat="50.04987" lon="2.18257">
        <ele>38.7</ele>
        <time>2023-10-04T12:45:37Z</time>
      </trkpt>
      <trkpt lat="50.04987" lon="2.18257">
        <ele>38.7</ele>
        <time>2023-10-04T12:45:38Z</time>
      </trkpt>
      <trkpt lat="50.04987" lon="2.18257">
        <ele>38.7</ele>
        <time>2023-10-04T12:45:39Z</time>
      </trkpt>
      <trkpt lat="50.04987" lon="2.18257">
        <ele>38.7</ele>
        <time>2023-10-04T12:45:40Z</time>
      </trkpt>
      <trkpt lat="50.04987" lon="2.18257">
        <ele>38.7</ele>
        <time>2023-10-04T12:45:41Z</time>
      </trkpt>
      <trkpt lat="50.04987" lon="2.18257">
        <ele>38.7</ele>
        <time>2023-10-04T12:45:42Z</time>
      </trkpt>
      <trkpt lat="50.04987" lon="2.18257">
        <ele>38.7</ele>
        <time>2023-10-04T12:45:43Z</time>
      </trkpt>
      <trkpt lat="50.04987" lon="2.18257">
        <ele>38.7</ele>
        <time>2023-10-04T12:45:44Z</time>
      </trkpt>
      <trkpt lat="50.04987" lon="2.18257">
        <ele>38.7</ele>
        <time>2023-10-04T12:45:45Z</time>
      </trkpt>
      <trkpt lat="50.04987" lon="2.18257">
        <ele>38.7</ele>
        <time>2023-10-04T12:45:46Z</time>
      </trkpt>
      <trkpt lat="50.04987" lon="2.18257">
        <ele>38.7</ele>
        <time>2023-10-04T12:45:47Z</time>
      </trkpt>
      <trkpt lat="50.04987" lon="2.18257">
        <ele>38.7</ele>
        <time>2023-10-04T12:45:48Z</time>
      </trkpt>
      <trkpt lat="50.04987" lon="2.18257">
        <ele>38.7</ele>
        <time>2023-10-04T12:45:49Z</time>
      </trkpt>
      <trkpt lat="50.04987" lon="2.18257">
        <ele>38.7</ele>
        <time>2023-10-04T12:45:50Z</time>
      </trkpt>
      <trkpt lat="50.04987" lon="2.18257">
        <ele>38.7</ele>
        <time>2023-10-04T12:45:51Z</time>
      </trkpt>
      <trkpt lat="50.04987" lon="2.18257">
        <ele>38.7</ele>
        <time>2023-10-04T12:45:52Z</time>
      </trkpt>
      <trkpt lat="50.04987" lon="2.18257">
        <ele>38.7</ele>
        <time>2023-10-04T12:45:53Z</time>
      </trkpt>
      <trkpt lat="50.04987" lon="2.18257">
        <ele>38.7</ele>
        <time>2023-10-04T12:45:54Z</time>
      </trkpt>
      <trkpt lat="50.04987" lon="2.18257">
        <ele>38.7</ele>
        <time>2023-10-04T12:45:55Z</time>
      </trkpt>
      <trkpt lat="50.04987" lon="2.18257">
        <ele>38.7</ele>
        <time>2023-10-04T12:45:56Z</time>
      </trkpt>
      <trkpt lat="50.04987" lon="2.18257">
        <ele>38.7</ele>
        <time>2023-10-04T12:45:57Z</time>
      </trkpt>
      <trkpt lat="50.04987" lon="2.18257">
        <ele>38.7</ele>
        <time>2023-10-04T12:45:58Z</time>
      </trkpt>
      <trkpt lat="50.04987" lon="2.18257">
        <ele>38.7</ele>
        <time>2023-10-04T12:45:59Z</time>
      </trkpt>
      <trkpt lat="50.04987" lon="2.18257">
        <ele>38.7</ele>
        <time>2023-10-04T12:46:00Z</time>
      </trkpt>
      <trkpt lat="50.04987" lon="2.18257">
        <ele>38.7</ele>
        <time>2023-10-04T12:46:01Z</time>
      </trkpt>
      <trkpt lat="50.04987" lon="2.18257">
        <ele>38.7</ele>
        <time>2023-10-04T12:46:02Z</time>
      </trkpt>
      <trkpt lat="50.04987" lon="2.18257">
        <ele>38.7</ele>
        <time>2023-10-04T12:46:03Z</time>
      </trkpt>
      <trkpt lat="50.04987" lon="2.18257">
        <ele>38.7</ele>
        <time>2023-10-04T12:46:04Z</time>
      </trkpt>
      <trkpt lat="50.04987" lon="2.18257">
        <ele>38.7</ele>
        <time>2023-10-04T12:46:05Z</time>
      </trkpt>
      <trkpt lat="50.04987" lon="2.18257">
        <ele>38.7</ele>
        <time>2023-10-04T12:46:06Z</time>
      </trkpt>
      <trkpt lat="50.04987" lon="2.18257">
        <ele>38.7</ele>
        <time>2023-10-04T12:46:07Z</time>
      </trkpt>
      <trkpt lat="50.04987" lon="2.18257">
        <ele>38.7</ele>
        <time>2023-10-04T12:46:08Z</time>
      </trkpt>
      <trkpt lat="50.04987" lon="2.18257">
        <ele>38.7</ele>
        <time>2023-10-04T12:46:09Z</time>
      </trkpt>
      <trkpt lat="50.04987" lon="2.18257">
        <ele>38.7</ele>
        <time>2023-10-04T12:46:10Z</time>
      </trkpt>
      <trkpt lat="50.04987" lon="2.18257">
        <ele>38.7</ele>
        <time>2023-10-04T12:46:11Z</time>
      </trkpt>
      <trkpt lat="50.04987" lon="2.18257">
        <ele>38.7</ele>
        <time>2023-10-04T12:46:12Z</time>
      </trkpt>
      <trkpt lat="50.04987" lon="2.18257">
        <ele>38.7</ele>
        <time>2023-10-04T12:46:13Z</time>
      </trkpt>
      <trkpt lat="50.04987" lon="2.18257">
        <ele>38.7</ele>
        <time>2023-10-04T12:46:14Z</time>
      </trkpt>
      <trkpt lat="50.04987" lon="2.18257">
        <ele>38.7</ele>
        <time>2023-10-04T12:46:15Z</time>
      </trkpt>
      <trkpt lat="50.04988" lon="2.18258">
        <ele>38.7</ele>
        <time>2023-10-04T12:46:16Z</time>
      </trkpt>
      <trkpt lat="50.04989" lon="2.18259">
        <ele>38.7</ele>
        <time>2023-10-04T12:46:17Z</time>
      </trkpt>
      <trkpt lat="50.04989" lon="2.1826">
        <ele>38.7</ele>
        <time>2023-10-04T12:46:18Z</time>
      </trkpt>
      <trkpt lat="50.0499" lon="2.1826">
        <ele>38.7</ele>
        <time>2023-10-04T12:46:19Z</time>
      </trkpt>
      <trkpt lat="50.04991" lon="2.1826">
        <ele>38.7</ele>
        <time>2023-10-04T12:46:20Z</time>
      </trkpt>
      <trkpt lat="50.04991" lon="2.1826">
        <ele>38.7</ele>
        <time>2023-10-04T12:46:21Z</time>
      </trkpt>
      <trkpt lat="50.04992" lon="2.1826">
        <ele>38.7</ele>
        <time>2023-10-04T12:46:22Z</time>
      </trkpt>
      <trkpt lat="50.04992" lon="2.1826">
        <ele>38.7</ele>
        <time>2023-10-04T12:46:23Z</time>
      </trkpt>
      <trkpt lat="50.04992" lon="2.18259">
        <ele>38.7</ele>
        <time>2023-10-04T12:46:24Z</time>
      </trkpt>
      <trkpt lat="50.04992" lon="2.18259">
        <ele>38.7</ele>
        <time>2023-10-04T12:46:25Z</time>
      </trkpt>
      <trkpt lat="50.04992" lon="2.18259">
        <ele>38.7</ele>
        <time>2023-10-04T12:46:26Z</time>
      </trkpt>
      <trkpt lat="50.04992" lon="2.18259">
        <ele>38.7</ele>
        <time>2023-10-04T12:46:27Z</time>
      </trkpt>
      <trkpt lat="50.04992" lon="2.18259">
        <ele>38.7</ele>
        <time>2023-10-04T12:46:28Z</time>
      </trkpt>
      <trkpt lat="50.04992" lon="2.18259">
        <ele>38.7</ele>
        <time>2023-10-04T12:46:29Z</time>
      </trkpt>
      <trkpt lat="50.04992" lon="2.18259">
        <ele>38.7</ele>
        <time>2023-10-04T12:46:30Z</time>
      </trkpt>
      <trkpt lat="50.04992" lon="2.18259">
        <ele>38.7</ele>
        <time>2023-10-04T12:46:31Z</time>
      </trkpt>
      <trkpt lat="50.04992" lon="2.18259">
        <ele>38.7</ele>
        <time>2023-10-04T12:46:32Z</time>
      </trkpt>
      <trkpt lat="50.04992" lon="2.18259">
        <ele>38.7</ele>
        <time>2023-10-04T12:46:33Z</time>
      </trkpt>
      <trkpt lat="50.04992" lon="2.18259">
        <ele>38.7</ele>
        <time>2023-10-04T12:46:34Z</time>
      </trkpt>
      <trkpt lat="50.04992" lon="2.18259">
        <ele>38.7</ele>
        <time>2023-10-04T12:46:35Z</time>
      </trkpt>
      <trkpt lat="50.04992" lon="2.18259">
        <ele>38.7</ele>
        <time>2023-10-04T12:46:36Z</time>
      </trkpt>
      <trkpt lat="50.04992" lon="2.18259">
        <ele>38.7</ele>
        <time>2023-10-04T12:46:37Z</time>
      </trkpt>
      <trkpt lat="50.04992" lon="2.18259">
        <ele>38.7</ele>
        <time>2023-10-04T12:46:38Z</time>
      </trkpt>
      <trkpt lat="50.04992" lon="2.18259">
        <ele>38.7</ele>
        <time>2023-10-04T12:46:39Z</time>
      </trkpt>
      <trkpt lat="50.04992" lon="2.18259">
        <ele>38.7</ele>
        <time>2023-10-04T12:46:40Z</time>
      </trkpt>
      <trkpt lat="50.04992" lon="2.18259">
        <ele>38.7</ele>
        <time>2023-10-04T12:46:41Z</time>
      </trkpt>
      <trkpt lat="50.04992" lon="2.18259">
        <ele>38.7</ele>
        <time>2023-10-04T12:46:42Z</time>
      </trkpt>
      <trkpt lat="50.04992" lon="2.18259">
        <ele>38.7</ele>
        <time>2023-10-04T12:46:43Z</time>
      </trkpt>
      <trkpt lat="50.04992" lon="2.18259">
        <ele>38.7</ele>
        <time>2023-10-04T12:46:44Z</time>
      </trkpt>
      <trkpt lat="50.04992" lon="2.18259">
        <ele>38.7</ele>
        <time>2023-10-04T12:46:45Z</time>
      </trkpt>
      <trkpt lat="50.04992" lon="2.18259">
        <ele>38.7</ele>
        <time>2023-10-04T12:46:46Z</time>
      </trkpt>
      <trkpt lat="50.04992" lon="2.18259">
        <ele>38.7</ele>
        <time>2023-10-04T12:46:47Z</time>
      </trkpt>
      <trkpt lat="50.04992" lon="2.18259">
        <ele>38.7</ele>
        <time>2023-10-04T12:46:48Z</time>
      </trkpt>
      <trkpt lat="50.04992" lon="2.18259">
        <ele>38.7</ele>
        <time>2023-10-04T12:46:49Z</time>
      </trkpt>
      <trkpt lat="50.04992" lon="2.18259">
        <ele>38.7</ele>
        <time>2023-10-04T12:46:50Z</time>
      </trkpt>
      <trkpt lat="50.04992" lon="2.18259">
        <ele>38.7</ele>
        <time>2023-10-04T12:46:51Z</time>
      </trkpt>
      <trkpt lat="50.04992" lon="2.18259">
        <ele>38.7</ele>
        <time>2023-10-04T12:46:52Z</time>
      </trkpt>
      <trkpt lat="50.04992" lon="2.18259">
        <ele>38.7</ele>
        <time>2023-10-04T12:46:53Z</time>
      </trkpt>
      <trkpt lat="50.04992" lon="2.18259">
        <ele>38.7</ele>
        <time>2023-10-04T12:46:54Z</time>
      </trkpt>
      <trkpt lat="50.04992" lon="2.18259">
        <ele>38.7</ele>
        <time>2023-10-04T12:46:55Z</time>
      </trkpt>
      <trkpt lat="50.04992" lon="2.18259">
        <ele>38.7</ele>
        <time>2023-10-04T12:46:56Z</time>
      </trkpt>
      <trkpt lat="50.04992" lon="2.18259">
        <ele>38.7</ele>
        <time>2023-10-04T12:46:57Z</time>
      </trkpt>
      <trkpt lat="50.04992" lon="2.18259">
        <ele>38.7</ele>
        <time>2023-10-04T12:46:58Z</time>
      </trkpt>
      <trkpt lat="50.04992" lon="2.18259">
        <ele>38.7</ele>
        <time>2023-10-04T12:46:59Z</time>
      </trkpt>
      <trkpt lat="50.04992" lon="2.18259">
        <ele>38.7</ele>
        <time>2023-10-04T12:47:00Z</time>
      </trkpt>
      <trkpt lat="50.04992" lon="2.18259">
        <ele>38.7</ele>
        <time>2023-10-04T12:47:01Z</time>
      </trkpt>
      <trkpt lat="50.04992" lon="2.18259">
        <ele>38.7</ele>
        <time>2023-10-04T12:47:02Z</time>
      </trkpt>
      <trkpt lat="50.04992" lon="2.18259">
        <ele>38.7</ele>
        <time>2023-10-04T12:47:03Z</time>
      </trkpt>
      <trkpt lat="50.04992" lon="2.18259">
        <ele>38.7</ele>
        <time>2023-10-04T12:47:04Z</time>
      </trkpt>
      <trkpt lat="50.04992" lon="2.18259">
        <ele>38.7</ele>
        <time>2023-10-04T12:47:05Z</time>
      </trkpt>
      <trkpt lat="50.04992" lon="2.18259">
        <ele>38.7</ele>
        <time>2023-10-04T12:47:06Z</time>
      </trkpt>
      <trkpt lat="50.04992" lon="2.18259">
        <ele>38.7</ele>
        <time>2023-10-04T12:47:07Z</time>
      </trkpt>
      <trkpt lat="50.04992" lon="2.18259">
        <ele>38.7</ele>
        <time>2023-10-04T12:47:08Z</time>
      </trkpt>
      <trkpt lat="50.04992" lon="2.18259">
        <ele>38.7</ele>
        <time>2023-10-04T12:47:09Z</time>
      </trkpt>
      <trkpt lat="50.04992" lon="2.18259">
        <ele>38.7</ele>
        <time>2023-10-04T12:47:10Z</time>
      </trkpt>
      <trkpt lat="50.04992" lon="2.18259">
        <ele>38.7</ele>
        <time>2023-10-04T12:47:11Z</time>
      </trkpt>
      <trkpt lat="50.04992" lon="2.18259">
        <ele>38.7</ele>
        <time>2023-10-04T12:47:12Z</time>
      </trkpt>
      <trkpt lat="50.04992" lon="2.18259">
        <ele>38.7</ele>
        <time>2023-10-04T12:47:13Z</time>
      </trkpt>
      <trkpt lat="50.04992" lon="2.18259">
        <ele>38.7</ele>
        <time>2023-10-04T12:47:14Z</time>
      </trkpt>
      <trkpt lat="50.04992" lon="2.18259">
        <ele>38.7</ele>
        <time>2023-10-04T12:47:15Z</time>
      </trkpt>
      <trkpt lat="50.04992" lon="2.18259">
        <ele>38.7</ele>
        <time>2023-10-04T12:47:16Z</time>
      </trkpt>
      <trkpt lat="50.04992" lon="2.18259">
        <ele>38.7</ele>
        <time>2023-10-04T12:47:17Z</time>
      </trkpt>
      <trkpt lat="50.04992" lon="2.18259">
        <ele>38.7</ele>
        <time>2023-10-04T12:47:18Z</time>
      </trkpt>
      <trkpt lat="50.04988" lon="2.18263">
        <ele>38.7</ele>
        <time>2023-10-04T12:47:19Z</time>
      </trkpt>
      <trkpt lat="50.04987" lon="2.18265">
        <ele>38.7</ele>
        <time>2023-10-04T12:47:20Z</time>
      </trkpt>
      <trkpt lat="50.04987" lon="2.18266">
        <ele>38.7</ele>
        <time>2023-10-04T12:47:21Z</time>
      </trkpt>
      <trkpt lat="50.04987" lon="2.18267">
        <ele>38.7</ele>
        <time>2023-10-04T12:47:22Z</time>
      </trkpt>
      <trkpt lat="50.04987" lon="2.18268">
        <ele>38.7</ele>
        <time>2023-10-04T12:47:23Z</time>
      </trkpt>
      <trkpt lat="50.04988" lon="2.1827">
        <ele>38.7</ele>
        <time>2023-10-04T12:47:24Z</time>
      </trkpt>
      <trkpt lat="50.04988" lon="2.18272">
        <ele>38.7</ele>
        <time>2023-10-04T12:47:25Z</time>
      </trkpt>
      <trkpt lat="50.04988" lon="2.18273">
        <ele>38.7</ele>
        <time>2023-10-04T12:47:26Z</time>
      </trkpt>
      <trkpt lat="50.04989" lon="2.18275">
        <ele>38.7</ele>
        <time>2023-10-04T12:47:27Z</time>
      </trkpt>
      <trkpt lat="50.04989" lon="2.18277">
        <ele>38.7</ele>
        <time>2023-10-04T12:47:28Z</time>
      </trkpt>
      <trkpt lat="50.04989" lon="2.18278">
        <ele>38.7</ele>
        <time>2023-10-04T12:47:29Z</time>
      </trkpt>
      <trkpt lat="50.04989" lon="2.1828">
        <ele>38.7</ele>
        <time>2023-10-04T12:47:30Z</time>
      </trkpt>
      <trkpt lat="50.04989" lon="2.18281">
        <ele>38.7</ele>
        <time>2023-10-04T12:47:31Z</time>
      </trkpt>
      <trkpt lat="50.0499" lon="2.18283">
        <ele>38.7</ele>
        <time>2023-10-04T12:47:32Z</time>
      </trkpt>
      <trkpt lat="50.0499" lon="2.18284">
        <ele>38.7</ele>
        <time>2023-10-04T12:47:33Z</time>
      </trkpt>
      <trkpt lat="50.0499" lon="2.18285">
        <ele>38.7</ele>
        <time>2023-10-04T12:47:34Z</time>
      </trkpt>
      <trkpt lat="50.0499" lon="2.18287">
        <ele>38.7</ele>
        <time>2023-10-04T12:47:35Z</time>
      </trkpt>
      <trkpt lat="50.0499" lon="2.18288">
        <ele>38.7</ele>
        <time>2023-10-04T12:47:36Z</time>
      </trkpt>
      <trkpt lat="50.0499" lon="2.1829">
        <ele>38.7</ele>
        <time>2023-10-04T12:47:37Z</time>
      </trkpt>
      <trkpt lat="50.0499" lon="2.18292">
        <ele>38.7</ele>
        <time>2023-10-04T12:47:38Z</time>
      </trkpt>
      <trkpt lat="50.04991" lon="2.18293">
        <ele>38.7</ele>
        <time>2023-10-04T12:47:39Z</time>
      </trkpt>
      <trkpt lat="50.04991" lon="2.18295">
        <ele>38.7</ele>
        <time>2023-10-04T12:47:40Z</time>
      </trkpt>
      <trkpt lat="50.04991" lon="2.18297">
        <ele>38.7</ele>
        <time>2023-10-04T12:47:41Z</time>
      </trkpt>
      <trkpt lat="50.04991" lon="2.18299">
        <ele>38.7</ele>
        <time>2023-10-04T12:47:42Z</time>
      </trkpt>
      <trkpt lat="50.04992" lon="2.183">
        <ele>38.7</ele>
        <time>2023-10-04T12:47:43Z</time>
      </trkpt>
      <trkpt lat="50.04992" lon="2.18302">
        <ele>38.7</ele>
        <time>2023-10-04T12:47:44Z</time>
      </trkpt>
      <trkpt lat="50.04992" lon="2.18304">
        <ele>38.7</ele>
        <time>2023-10-04T12:47:45Z</time>
      </trkpt>
      <trkpt lat="50.04993" lon="2.18305">
        <ele>38.7</ele>
        <time>2023-10-04T12:47:46Z</time>
      </trkpt>
      <trkpt lat="50.04993" lon="2.18307">
        <ele>38.7</ele>
        <time>2023-10-04T12:47:47Z</time>
      </trkpt>
      <trkpt lat="50.04993" lon="2.18308">
        <ele>38.7</ele>
        <time>2023-10-04T12:47:48Z</time>
      </trkpt>
      <trkpt lat="50.04993" lon="2.1831">
        <ele>38.7</ele>
        <time>2023-10-04T12:47:49Z</time>
      </trkpt>
      <trkpt lat="50.04994" lon="2.18311">
        <ele>38.7</ele>
        <time>2023-10-04T12:47:50Z</time>
      </trkpt>
      <trkpt lat="50.04994" lon="2.18312">
        <ele>38.7</ele>
        <time>2023-10-04T12:47:51Z</time>
      </trkpt>
      <trkpt lat="50.04994" lon="2.18314">
        <ele>38.7</ele>
        <time>2023-10-04T12:47:52Z</time>
      </trkpt>
      <trkpt lat="50.04994" lon="2.18316">
        <ele>38.7</ele>
        <time>2023-10-04T12:47:53Z</time>
      </trkpt>
      <trkpt lat="50.04994" lon="2.18317">
        <ele>38.7</ele>
        <time>2023-10-04T12:47:54Z</time>
      </trkpt>
      <trkpt lat="50.04995" lon="2.18319">
        <ele>38.7</ele>
        <time>2023-10-04T12:47:55Z</time>
      </trkpt>
      <trkpt lat="50.04995" lon="2.18321">
        <ele>38.7</ele>
        <time>2023-10-04T12:47:56Z</time>
      </trkpt>
      <trkpt lat="50.04995" lon="2.18322">
        <ele>38.7</ele>
        <time>2023-10-04T12:47:57Z</time>
      </trkpt>
      <trkpt lat="50.04995" lon="2.18324">
        <ele>38.7</ele>
        <time>2023-10-04T12:47:58Z</time>
      </trkpt>
      <trkpt lat="50.04995" lon="2.18326">
        <ele>38.7</ele>
        <time>2023-10-04T12:47:59Z</time>
      </trkpt>
      <trkpt lat="50.04995" lon="2.18327">
        <ele>38.7</ele>
        <time>2023-10-04T12:48:00Z</time>
      </trkpt>
      <trkpt lat="50.04995" lon="2.18329">
        <ele>38.7</ele>
        <time>2023-10-04T12:48:01Z</time>
      </trkpt>
      <trkpt lat="50.04995" lon="2.18331">
        <ele>38.8</ele>
        <time>2023-10-04T12:48:02Z</time>
      </trkpt>
      <trkpt lat="50.04996" lon="2.18333">
        <ele>38.8</ele>
        <time>2023-10-04T12:48:03Z</time>
      </trkpt>
      <trkpt lat="50.04996" lon="2.18335">
        <ele>38.8</ele>
        <time>2023-10-04T12:48:04Z</time>
      </trkpt>
      <trkpt lat="50.04996" lon="2.18338">
        <ele>38.8</ele>
        <time>2023-10-04T12:48:05Z</time>
      </trkpt>
      <trkpt lat="50.04996" lon="2.18339">
        <ele>38.8</ele>
        <time>2023-10-04T12:48:06Z</time>
      </trkpt>
      <trkpt lat="50.04996" lon="2.18341">
        <ele>38.8</ele>
        <time>2023-10-04T12:48:07Z</time>
      </trkpt>
      <trkpt lat="50.04996" lon="2.18343">
        <ele>38.8</ele>
        <time>2023-10-04T12:48:08Z</time>
      </trkpt>
      <trkpt lat="50.04996" lon="2.18345">
        <ele>38.8</ele>
        <time>2023-10-04T12:48:09Z</time>
      </trkpt>
      <trkpt lat="50.04996" lon="2.18347">
        <ele>38.8</ele>
        <time>2023-10-04T12:48:10Z</time>
      </trkpt>
      <trkpt lat="50.04997" lon="2.1835">
        <ele>38.8</ele>
        <time>2023-10-04T12:48:11Z</time>
      </trkpt>
      <trkpt lat="50.04997" lon="2.18352">
        <ele>38.8</ele>
        <time>2023-10-04T12:48:12Z</time>
      </trkpt>
      <trkpt lat="50.04997" lon="2.18354">
        <ele>38.8</ele>
        <time>2023-10-04T12:48:13Z</time>
      </trkpt>
      <trkpt lat="50.04997" lon="2.18357">
        <ele>38.8</ele>
        <time>2023-10-04T12:48:14Z</time>
      </trkpt>
      <trkpt lat="50.04997" lon="2.18358">
        <ele>38.8</ele>
        <time>2023-10-04T12:48:15Z</time>
      </trkpt>
      <trkpt lat="50.04998" lon="2.1836">
        <ele>38.8</ele>
        <time>2023-10-04T12:48:16Z</time>
      </trkpt>
      <trkpt lat="50.04998" lon="2.18361">
        <ele>38.8</ele>
        <time>2023-10-04T12:48:17Z</time>
      </trkpt>
      <trkpt lat="50.04998" lon="2.18362">
        <ele>38.8</ele>
        <time>2023-10-04T12:48:18Z</time>
      </trkpt>
      <trkpt lat="50.04998" lon="2.18364">
        <ele>38.8</ele>
        <time>2023-10-04T12:48:19Z</time>
      </trkpt>
      <trkpt lat="50.04999" lon="2.18365">
        <ele>38.8</ele>
        <time>2023-10-04T12:48:20Z</time>
      </trkpt>
      <trkpt lat="50.04999" lon="2.18367">
        <ele>38.8</ele>
        <time>2023-10-04T12:48:21Z</time>
      </trkpt>
      <trkpt lat="50.04999" lon="2.18368">
        <ele>38.8</ele>
        <time>2023-10-04T12:48:22Z</time>
      </trkpt>
      <trkpt lat="50.04999" lon="2.1837">
        <ele>38.8</ele>
        <time>2023-10-04T12:48:23Z</time>
      </trkpt>
      <trkpt lat="50.05" lon="2.18372">
        <ele>38.8</ele>
        <time>2023-10-04T12:48:24Z</time>
      </trkpt>
      <trkpt lat="50.05" lon="2.18374">
        <ele>38.8</ele>
        <time>2023-10-04T12:48:25Z</time>
      </trkpt>
      <trkpt lat="50.05001" lon="2.18377">
        <ele>38.8</ele>
        <time>2023-10-04T12:48:26Z</time>
      </trkpt>
      <trkpt lat="50.05001" lon="2.18378">
        <ele>38.9</ele>
        <time>2023-10-04T12:48:27Z</time>
      </trkpt>
      <trkpt lat="50.05001" lon="2.18379">
        <ele>38.9</ele>
        <time>2023-10-04T12:48:28Z</time>
      </trkpt>
      <trkpt lat="50.05001" lon="2.18383">
        <ele>38.9</ele>
        <time>2023-10-04T12:48:29Z</time>
      </trkpt>
      <trkpt lat="50.05001" lon="2.18384">
        <ele>38.9</ele>
        <time>2023-10-04T12:48:30Z</time>
      </trkpt>
      <trkpt lat="50.05002" lon="2.18386">
        <ele>38.9</ele>
        <time>2023-10-04T12:48:31Z</time>
      </trkpt>
      <trkpt lat="50.05002" lon="2.18389">
        <ele>38.9</ele>
        <time>2023-10-04T12:48:32Z</time>
      </trkpt>
      <trkpt lat="50.05002" lon="2.1839">
        <ele>38.9</ele>
        <time>2023-10-04T12:48:33Z</time>
      </trkpt>
      <trkpt lat="50.05002" lon="2.18391">
        <ele>38.9</ele>
        <time>2023-10-04T12:48:34Z</time>
      </trkpt>
      <trkpt lat="50.05002" lon="2.18395">
        <ele>38.9</ele>
        <time>2023-10-04T12:48:35Z</time>
      </trkpt>
      <trkpt lat="50.05002" lon="2.18396">
        <ele>38.9</ele>
        <time>2023-10-04T12:48:36Z</time>
      </trkpt>
      <trkpt lat="50.05002" lon="2.18397">
        <ele>38.9</ele>
        <time>2023-10-04T12:48:37Z</time>
      </trkpt>
      <trkpt lat="50.05002" lon="2.18399">
        <ele>38.9</ele>
        <time>2023-10-04T12:48:38Z</time>
      </trkpt>
      <trkpt lat="50.05002" lon="2.18401">
        <ele>38.9</ele>
        <time>2023-10-04T12:48:39Z</time>
      </trkpt>
      <trkpt lat="50.05002" lon="2.18403">
        <ele>38.9</ele>
        <time>2023-10-04T12:48:40Z</time>
      </trkpt>
      <trkpt lat="50.05002" lon="2.18404">
        <ele>38.9</ele>
        <time>2023-10-04T12:48:41Z</time>
      </trkpt>
      <trkpt lat="50.05002" lon="2.18406">
        <ele>38.9</ele>
        <time>2023-10-04T12:48:42Z</time>
      </trkpt>
      <trkpt lat="50.05002" lon="2.18408">
        <ele>38.9</ele>
        <time>2023-10-04T12:48:43Z</time>
      </trkpt>
      <trkpt lat="50.05002" lon="2.1841">
        <ele>38.9</ele>
        <time>2023-10-04T12:48:44Z</time>
      </trkpt>
      <trkpt lat="50.05002" lon="2.18411">
        <ele>38.9</ele>
        <time>2023-10-04T12:48:45Z</time>
      </trkpt>
      <trkpt lat="50.05002" lon="2.18413">
        <ele>38.9</ele>
        <time>2023-10-04T12:48:46Z</time>
      </trkpt>
      <trkpt lat="50.05002" lon="2.18416">
        <ele>38.9</ele>
        <time>2023-10-04T12:48:47Z</time>
      </trkpt>
      <trkpt lat="50.05002" lon="2.18418">
        <ele>38.9</ele>
        <time>2023-10-04T12:48:48Z</time>
      </trkpt>
      <trkpt lat="50.05002" lon="2.18419">
        <ele>38.9</ele>
        <time>2023-10-04T12:48:49Z</time>
      </trkpt>
      <trkpt lat="50.05002" lon="2.18421">
        <ele>38.9</ele>
        <time>2023-10-04T12:48:50Z</time>
      </trkpt>
      <trkpt lat="50.05002" lon="2.18423">
        <ele>39</ele>
        <time>2023-10-04T12:48:51Z</time>
      </trkpt>
      <trkpt lat="50.05002" lon="2.18424">
        <ele>39</ele>
        <time>2023-10-04T12:48:52Z</time>
      </trkpt>
      <trkpt lat="50.05002" lon="2.18426">
        <ele>39</ele>
        <time>2023-10-04T12:48:53Z</time>
      </trkpt>
      <trkpt lat="50.05002" lon="2.18428">
        <ele>39</ele>
        <time>2023-10-04T12:48:54Z</time>
      </trkpt>
      <trkpt lat="50.05002" lon="2.1843">
        <ele>39</ele>
        <time>2023-10-04T12:48:55Z</time>
      </trkpt>
      <trkpt lat="50.05002" lon="2.18432">
        <ele>39</ele>
        <time>2023-10-04T12:48:56Z</time>
      </trkpt>
      <trkpt lat="50.05001" lon="2.18434">
        <ele>39</ele>
        <time>2023-10-04T12:48:57Z</time>
      </trkpt>
      <trkpt lat="50.05001" lon="2.18435">
        <ele>39</ele>
        <time>2023-10-04T12:48:58Z</time>
      </trkpt>
      <trkpt lat="50.05001" lon="2.18437">
        <ele>39</ele>
        <time>2023-10-04T12:48:59Z</time>
      </trkpt>
      <trkpt lat="50.05001" lon="2.18439">
        <ele>39</ele>
        <time>2023-10-04T12:49:00Z</time>
      </trkpt>
      <trkpt lat="50.05001" lon="2.18441">
        <ele>39</ele>
        <time>2023-10-04T12:49:01Z</time>
      </trkpt>
      <trkpt lat="50.05001" lon="2.18444">
        <ele>39.1</ele>
        <time>2023-10-04T12:49:02Z</time>
      </trkpt>
      <trkpt lat="50.05001" lon="2.18445">
        <ele>39.1</ele>
        <time>2023-10-04T12:49:03Z</time>
      </trkpt>
      <trkpt lat="50.05001" lon="2.18446">
        <ele>39.1</ele>
        <time>2023-10-04T12:49:04Z</time>
      </trkpt>
      <trkpt lat="50.05001" lon="2.18449">
        <ele>39.1</ele>
        <time>2023-10-04T12:49:05Z</time>
      </trkpt>
      <trkpt lat="50.05001" lon="2.18451">
        <ele>39.1</ele>
        <time>2023-10-04T12:49:06Z</time>
      </trkpt>
      <trkpt lat="50.05001" lon="2.18452">
        <ele>39.1</ele>
        <time>2023-10-04T12:49:07Z</time>
      </trkpt>
      <trkpt lat="50.05002" lon="2.18453">
        <ele>39.1</ele>
        <time>2023-10-04T12:49:08Z</time>
      </trkpt>
      <trkpt lat="50.05002" lon="2.18455">
        <ele>39.1</ele>
        <time>2023-10-04T12:49:09Z</time>
      </trkpt>
      <trkpt lat="50.05002" lon="2.18456">
        <ele>39.1</ele>
        <time>2023-10-04T12:49:10Z</time>
      </trkpt>
      <trkpt lat="50.05002" lon="2.18458">
        <ele>39.1</ele>
        <time>2023-10-04T12:49:11Z</time>
      </trkpt>
      <trkpt lat="50.05002" lon="2.18459">
        <ele>39.1</ele>
        <time>2023-10-04T12:49:12Z</time>
      </trkpt>
      <trkpt lat="50.05002" lon="2.18461">
        <ele>39.2</ele>
        <time>2023-10-04T12:49:13Z</time>
      </trkpt>
      <trkpt lat="50.05002" lon="2.18462">
        <ele>39.2</ele>
        <time>2023-10-04T12:49:14Z</time>
      </trkpt>
      <trkpt lat="50.05002" lon="2.18464">
        <ele>39.2</ele>
        <time>2023-10-04T12:49:15Z</time>
      </trkpt>
      <trkpt lat="50.05002" lon="2.18465">
        <ele>39.2</ele>
        <time>2023-10-04T12:49:16Z</time>
      </trkpt>
      <trkpt lat="50.05002" lon="2.18466">
        <ele>39.2</ele>
        <time>2023-10-04T12:49:17Z</time>
      </trkpt>
      <trkpt lat="50.05003" lon="2.18468">
        <ele>39.2</ele>
        <time>2023-10-04T12:49:18Z</time>
      </trkpt>
      <trkpt lat="50.05003" lon="2.18469">
        <ele>39.2</ele>
        <time>2023-10-04T12:49:19Z</time>
      </trkpt>
      <trkpt lat="50.05003" lon="2.18471">
        <ele>39.2</ele>
        <time>2023-10-04T12:49:20Z</time>
      </trkpt>
      <trkpt lat="50.05003" lon="2.18473">
        <ele>39.2</ele>
        <time>2023-10-04T12:49:21Z</time>
      </trkpt>
      <trkpt lat="50.05004" lon="2.18474">
        <ele>39.2</ele>
        <time>2023-10-04T12:49:22Z</time>
      </trkpt>
      <trkpt lat="50.05004" lon="2.18476">
        <ele>39.2</ele>
        <time>2023-10-04T12:49:23Z</time>
      </trkpt>
      <trkpt lat="50.05004" lon="2.18478">
        <ele>39.2</ele>
        <time>2023-10-04T12:49:24Z</time>
      </trkpt>
      <trkpt lat="50.05004" lon="2.18479">
        <ele>39.2</ele>
        <time>2023-10-04T12:49:25Z</time>
      </trkpt>
      <trkpt lat="50.05004" lon="2.18483">
        <ele>39.2</ele>
        <time>2023-10-04T12:49:26Z</time>
      </trkpt>
      <trkpt lat="50.05004" lon="2.18484">
        <ele>39.2</ele>
        <time>2023-10-04T12:49:27Z</time>
      </trkpt>
      <trkpt lat="50.05005" lon="2.18485">
        <ele>39.2</ele>
        <time>2023-10-04T12:49:28Z</time>
      </trkpt>
      <trkpt lat="50.05005" lon="2.18487">
        <ele>39.2</ele>
        <time>2023-10-04T12:49:29Z</time>
      </trkpt>
      <trkpt lat="50.05005" lon="2.18489">
        <ele>39.2</ele>
        <time>2023-10-04T12:49:30Z</time>
      </trkpt>
      <trkpt lat="50.05005" lon="2.18492">
        <ele>39.3</ele>
        <time>2023-10-04T12:49:31Z</time>
      </trkpt>
      <trkpt lat="50.05005" lon="2.18495">
        <ele>39.3</ele>
        <time>2023-10-04T12:49:32Z</time>
      </trkpt>
      <trkpt lat="50.05005" lon="2.18497">
        <ele>39.3</ele>
        <time>2023-10-04T12:49:33Z</time>
      </trkpt>
      <trkpt lat="50.05005" lon="2.18499">
        <ele>39.3</ele>
        <time>2023-10-04T12:49:34Z</time>
      </trkpt>
      <trkpt lat="50.05005" lon="2.18501">
        <ele>39.3</ele>
        <time>2023-10-04T12:49:35Z</time>
      </trkpt>
      <trkpt lat="50.05006" lon="2.18502">
        <ele>39.3</ele>
        <time>2023-10-04T12:49:36Z</time>
      </trkpt>
      <trkpt lat="50.05006" lon="2.18503">
        <ele>39.3</ele>
        <time>2023-10-04T12:49:37Z</time>
      </trkpt>
      <trkpt lat="50.05006" lon="2.18505">
        <ele>39.3</ele>
        <time>2023-10-04T12:49:38Z</time>
      </trkpt>
      <trkpt lat="50.05006" lon="2.18506">
        <ele>39.3</ele>
        <time>2023-10-04T12:49:39Z</time>
      </trkpt>
      <trkpt lat="50.05006" lon="2.18507">
        <ele>39.3</ele>
        <time>2023-10-04T12:49:40Z</time>
      </trkpt>
      <trkpt lat="50.05006" lon="2.18508">
        <ele>39.3</ele>
        <time>2023-10-04T12:49:41Z</time>
      </trkpt>
      <trkpt lat="50.05006" lon="2.18511">
        <ele>39.3</ele>
        <time>2023-10-04T12:49:42Z</time>
      </trkpt>
      <trkpt lat="50.05006" lon="2.18512">
        <ele>39.3</ele>
        <time>2023-10-04T12:49:43Z</time>
      </trkpt>
      <trkpt lat="50.05006" lon="2.18513">
        <ele>39.3</ele>
        <time>2023-10-04T12:49:44Z</time>
      </trkpt>
      <trkpt lat="50.05006" lon="2.18514">
        <ele>39.3</ele>
        <time>2023-10-04T12:49:45Z</time>
      </trkpt>
      <trkpt lat="50.05006" lon="2.18517">
        <ele>39.4</ele>
        <time>2023-10-04T12:49:46Z</time>
      </trkpt>
      <trkpt lat="50.05007" lon="2.18519">
        <ele>39.4</ele>
        <time>2023-10-04T12:49:47Z</time>
      </trkpt>
      <trkpt lat="50.05007" lon="2.18521">
        <ele>39.4</ele>
        <time>2023-10-04T12:49:48Z</time>
      </trkpt>
      <trkpt lat="50.05007" lon="2.18524">
        <ele>39.4</ele>
        <time>2023-10-04T12:49:49Z</time>
      </trkpt>
      <trkpt lat="50.05007" lon="2.18526">
        <ele>39.4</ele>
        <time>2023-10-04T12:49:50Z</time>
      </trkpt>
      <trkpt lat="50.05007" lon="2.18528">
        <ele>39.4</ele>
        <time>2023-10-04T12:49:51Z</time>
      </trkpt>
      <trkpt lat="50.05007" lon="2.18531">
        <ele>39.4</ele>
        <time>2023-10-04T12:49:52Z</time>
      </trkpt>
      <trkpt lat="50.05008" lon="2.18532">
        <ele>39.4</ele>
        <time>2023-10-04T12:49:53Z</time>
      </trkpt>
      <trkpt lat="50.05008" lon="2.18534">
        <ele>39.5</ele>
        <time>2023-10-04T12:49:54Z</time>
      </trkpt>
      <trkpt lat="50.05008" lon="2.18535">
        <ele>39.5</ele>
        <time>2023-10-04T12:49:55Z</time>
      </trkpt>
      <trkpt lat="50.05008" lon="2.18537">
        <ele>39.5</ele>
        <time>2023-10-04T12:49:56Z</time>
      </trkpt>
      <trkpt lat="50.05008" lon="2.18539">
        <ele>39.5</ele>
        <time>2023-10-04T12:49:57Z</time>
      </trkpt>
      <trkpt lat="50.05008" lon="2.1854">
        <ele>39.5</ele>
        <time>2023-10-04T12:49:58Z</time>
      </trkpt>
      <trkpt lat="50.05008" lon="2.18542">
        <ele>39.5</ele>
        <time>2023-10-04T12:49:59Z</time>
      </trkpt>
      <trkpt lat="50.05009" lon="2.18543">
        <ele>39.5</ele>
        <time>2023-10-04T12:50:00Z</time>
      </trkpt>
      <trkpt lat="50.05009" lon="2.18545">
        <ele>39.5</ele>
        <time>2023-10-04T12:50:01Z</time>
      </trkpt>
      <trkpt lat="50.05009" lon="2.18546">
        <ele>39.5</ele>
        <time>2023-10-04T12:50:02Z</time>
      </trkpt>
      <trkpt lat="50.05009" lon="2.18548">
        <ele>39.5</ele>
        <time>2023-10-04T12:50:03Z</time>
      </trkpt>
      <trkpt lat="50.05009" lon="2.18549">
        <ele>39.5</ele>
        <time>2023-10-04T12:50:04Z</time>
      </trkpt>
      <trkpt lat="50.05009" lon="2.18551">
        <ele>39.5</ele>
        <time>2023-10-04T12:50:05Z</time>
      </trkpt>
      <trkpt lat="50.05009" lon="2.18553">
        <ele>39.5</ele>
        <time>2023-10-04T12:50:06Z</time>
      </trkpt>
      <trkpt lat="50.05009" lon="2.18555">
        <ele>39.5</ele>
        <time>2023-10-04T12:50:07Z</time>
      </trkpt>
      <trkpt lat="50.05009" lon="2.18556">
        <ele>39.5</ele>
        <time>2023-10-04T12:50:08Z</time>
      </trkpt>
      <trkpt lat="50.05009" lon="2.18558">
        <ele>39.5</ele>
        <time>2023-10-04T12:50:09Z</time>
      </trkpt>
      <trkpt lat="50.05009" lon="2.18559">
        <ele>39.5</ele>
        <time>2023-10-04T12:50:10Z</time>
      </trkpt>
      <trkpt lat="50.05009" lon="2.18561">
        <ele>39.5</ele>
        <time>2023-10-04T12:50:11Z</time>
      </trkpt>
      <trkpt lat="50.05008" lon="2.18562">
        <ele>39.5</ele>
        <time>2023-10-04T12:50:12Z</time>
      </trkpt>
      <trkpt lat="50.05008" lon="2.18563">
        <ele>39.5</ele>
        <time>2023-10-04T12:50:13Z</time>
      </trkpt>
      <trkpt lat="50.05007" lon="2.18563">
        <ele>39.5</ele>
        <time>2023-10-04T12:50:14Z</time>
      </trkpt>
      <trkpt lat="50.05006" lon="2.18564">
        <ele>39.5</ele>
        <time>2023-10-04T12:50:15Z</time>
      </trkpt>
      <trkpt lat="50.05006" lon="2.18564">
        <ele>39.5</ele>
        <time>2023-10-04T12:50:16Z</time>
      </trkpt>
      <trkpt lat="50.05007" lon="2.18565">
        <ele>39.5</ele>
        <time>2023-10-04T12:50:17Z</time>
      </trkpt>
      <trkpt lat="50.05007" lon="2.18566">
        <ele>39.5</ele>
        <time>2023-10-04T12:50:18Z</time>
      </trkpt>
      <trkpt lat="50.05008" lon="2.18567">
        <ele>39.5</ele>
        <time>2023-10-04T12:50:19Z</time>
      </trkpt>
      <trkpt lat="50.05008" lon="2.18568">
        <ele>39.5</ele>
        <time>2023-10-04T12:50:20Z</time>
      </trkpt>
      <trkpt lat="50.05009" lon="2.1857">
        <ele>39.5</ele>
        <time>2023-10-04T12:50:21Z</time>
      </trkpt>
      <trkpt lat="50.05009" lon="2.18571">
        <ele>39.5</ele>
        <time>2023-10-04T12:50:22Z</time>
      </trkpt>
      <trkpt lat="50.0501" lon="2.18574">
        <ele>39.5</ele>
        <time>2023-10-04T12:50:23Z</time>
      </trkpt>
      <trkpt lat="50.0501" lon="2.18576">
        <ele>39.5</ele>
        <time>2023-10-04T12:50:24Z</time>
      </trkpt>
      <trkpt lat="50.05011" lon="2.18577">
        <ele>39.5</ele>
        <time>2023-10-04T12:50:25Z</time>
      </trkpt>
      <trkpt lat="50.05011" lon="2.18579">
        <ele>39.5</ele>
        <time>2023-10-04T12:50:26Z</time>
      </trkpt>
      <trkpt lat="50.05011" lon="2.18581">
        <ele>39.5</ele>
        <time>2023-10-04T12:50:27Z</time>
      </trkpt>
      <trkpt lat="50.05012" lon="2.18585">
        <ele>39.5</ele>
        <time>2023-10-04T12:50:28Z</time>
      </trkpt>
      <trkpt lat="50.05012" lon="2.18586">
        <ele>39.5</ele>
        <time>2023-10-04T12:50:29Z</time>
      </trkpt>
      <trkpt lat="50.05012" lon="2.18587">
        <ele>39.5</ele>
        <time>2023-10-04T12:50:30Z</time>
      </trkpt>
      <trkpt lat="50.05012" lon="2.18591">
        <ele>39.5</ele>
        <time>2023-10-04T12:50:31Z</time>
      </trkpt>
      <trkpt lat="50.05012" lon="2.18592">
        <ele>39.5</ele>
        <time>2023-10-04T12:50:32Z</time>
      </trkpt>
      <trkpt lat="50.05013" lon="2.18593">
        <ele>39.5</ele>
        <time>2023-10-04T12:50:33Z</time>
      </trkpt>
      <trkpt lat="50.05013" lon="2.18595">
        <ele>39.5</ele>
        <time>2023-10-04T12:50:34Z</time>
      </trkpt>
      <trkpt lat="50.05013" lon="2.18597">
        <ele>39.5</ele>
        <time>2023-10-04T12:50:35Z</time>
      </trkpt>
      <trkpt lat="50.05013" lon="2.18598">
        <ele>39.5</ele>
        <time>2023-10-04T12:50:36Z</time>
      </trkpt>
      <trkpt lat="50.05013" lon="2.186">
        <ele>39.5</ele>
        <time>2023-10-04T12:50:37Z</time>
      </trkpt>
      <trkpt lat="50.05013" lon="2.18602">
        <ele>39.5</ele>
        <time>2023-10-04T12:50:38Z</time>
      </trkpt>
      <trkpt lat="50.05014" lon="2.18604">
        <ele>39.5</ele>
        <time>2023-10-04T12:50:39Z</time>
      </trkpt>
      <trkpt lat="50.05014" lon="2.18605">
        <ele>39.5</ele>
        <time>2023-10-04T12:50:40Z</time>
      </trkpt>
      <trkpt lat="50.05014" lon="2.18607">
        <ele>39.5</ele>
        <time>2023-10-04T12:50:41Z</time>
      </trkpt>
      <trkpt lat="50.05014" lon="2.18608">
        <ele>39.5</ele>
        <time>2023-10-04T12:50:42Z</time>
      </trkpt>
      <trkpt lat="50.05014" lon="2.18609">
        <ele>39.5</ele>
        <time>2023-10-04T12:50:43Z</time>
      </trkpt>
      <trkpt lat="50.05014" lon="2.18611">
        <ele>39.5</ele>
        <time>2023-10-04T12:50:44Z</time>
      </trkpt>
      <trkpt lat="50.05014" lon="2.18613">
        <ele>39.5</ele>
        <time>2023-10-04T12:50:45Z</time>
      </trkpt>
      <trkpt lat="50.05014" lon="2.18614">
        <ele>39.5</ele>
        <time>2023-10-04T12:50:46Z</time>
      </trkpt>
      <trkpt lat="50.05014" lon="2.18616">
        <ele>39.5</ele>
        <time>2023-10-04T12:50:47Z</time>
      </trkpt>
      <trkpt lat="50.05014" lon="2.18618">
        <ele>39.5</ele>
        <time>2023-10-04T12:50:48Z</time>
      </trkpt>
      <trkpt lat="50.05014" lon="2.18619">
        <ele>39.5</ele>
        <time>2023-10-04T12:50:49Z</time>
      </trkpt>
      <trkpt lat="50.05014" lon="2.1862">
        <ele>39.5</ele>
        <time>2023-10-04T12:50:50Z</time>
      </trkpt>
      <trkpt lat="50.05014" lon="2.18621">
        <ele>39.5</ele>
        <time>2023-10-04T12:50:51Z</time>
      </trkpt>
      <trkpt lat="50.05015" lon="2.18623">
        <ele>39.5</ele>
        <time>2023-10-04T12:50:52Z</time>
      </trkpt>
      <trkpt lat="50.05015" lon="2.18624">
        <ele>39.5</ele>
        <time>2023-10-04T12:50:53Z</time>
      </trkpt>
      <trkpt lat="50.05015" lon="2.18626">
        <ele>39.5</ele>
        <time>2023-10-04T12:50:54Z</time>
      </trkpt>
      <trkpt lat="50.05015" lon="2.18627">
        <ele>39.5</ele>
        <time>2023-10-04T12:50:55Z</time>
      </trkpt>
      <trkpt lat="50.05016" lon="2.18629">
        <ele>39.5</ele>
        <time>2023-10-04T12:50:56Z</time>
      </trkpt>
      <trkpt lat="50.05016" lon="2.1863">
        <ele>39.5</ele>
        <time>2023-10-04T12:50:57Z</time>
      </trkpt>
      <trkpt lat="50.05016" lon="2.18632">
        <ele>39.5</ele>
        <time>2023-10-04T12:50:58Z</time>
      </trkpt>
      <trkpt lat="50.05016" lon="2.18634">
        <ele>39.5</ele>
        <time>2023-10-04T12:50:59Z</time>
      </trkpt>
      <trkpt lat="50.05016" lon="2.18635">
        <ele>39.5</ele>
        <time>2023-10-04T12:51:00Z</time>
      </trkpt>
      <trkpt lat="50.05016" lon="2.18637">
        <ele>39.5</ele>
        <time>2023-10-04T12:51:01Z</time>
      </trkpt>
      <trkpt lat="50.05016" lon="2.1864">
        <ele>39.5</ele>
        <time>2023-10-04T12:51:02Z</time>
      </trkpt>
      <trkpt lat="50.05016" lon="2.18642">
        <ele>39.5</ele>
        <time>2023-10-04T12:51:03Z</time>
      </trkpt>
      <trkpt lat="50.05017" lon="2.18643">
        <ele>39.5</ele>
        <time>2023-10-04T12:51:04Z</time>
      </trkpt>
      <trkpt lat="50.05017" lon="2.18646">
        <ele>39.5</ele>
        <time>2023-10-04T12:51:05Z</time>
      </trkpt>
      <trkpt lat="50.05017" lon="2.18648">
        <ele>39.5</ele>
        <time>2023-10-04T12:51:06Z</time>
      </trkpt>
      <trkpt lat="50.05017" lon="2.18649">
        <ele>39.5</ele>
        <time>2023-10-04T12:51:07Z</time>
      </trkpt>
      <trkpt lat="50.05017" lon="2.1865">
        <ele>39.5</ele>
        <time>2023-10-04T12:51:08Z</time>
      </trkpt>
      <trkpt lat="50.05018" lon="2.18652">
        <ele>39.5</ele>
        <time>2023-10-04T12:51:09Z</time>
      </trkpt>
      <trkpt lat="50.05018" lon="2.18654">
        <ele>39.5</ele>
        <time>2023-10-04T12:51:10Z</time>
      </trkpt>
      <trkpt lat="50.05018" lon="2.18655">
        <ele>39.5</ele>
        <time>2023-10-04T12:51:11Z</time>
      </trkpt>
      <trkpt lat="50.05018" lon="2.18657">
        <ele>39.5</ele>
        <time>2023-10-04T12:51:12Z</time>
      </trkpt>
      <trkpt lat="50.05018" lon="2.18659">
        <ele>39.5</ele>
        <time>2023-10-04T12:51:13Z</time>
      </trkpt>
      <trkpt lat="50.05018" lon="2.18663">
        <ele>39.5</ele>
        <time>2023-10-04T12:51:14Z</time>
      </trkpt>
      <trkpt lat="50.05019" lon="2.18664">
        <ele>39.5</ele>
        <time>2023-10-04T12:51:15Z</time>
      </trkpt>
      <trkpt lat="50.05019" lon="2.18665">
        <ele>39.5</ele>
        <time>2023-10-04T12:51:16Z</time>
      </trkpt>
      <trkpt lat="50.05019" lon="2.18669">
        <ele>39.5</ele>
        <time>2023-10-04T12:51:17Z</time>
      </trkpt>
      <trkpt lat="50.05019" lon="2.1867">
        <ele>39.5</ele>
        <time>2023-10-04T12:51:18Z</time>
      </trkpt>
      <trkpt lat="50.05019" lon="2.18672">
        <ele>39.6</ele>
        <time>2023-10-04T12:51:19Z</time>
      </trkpt>
      <trkpt lat="50.05019" lon="2.18674">
        <ele>39.6</ele>
        <time>2023-10-04T12:51:20Z</time>
      </trkpt>
      <trkpt lat="50.05019" lon="2.18676">
        <ele>39.6</ele>
        <time>2023-10-04T12:51:21Z</time>
      </trkpt>
      <trkpt lat="50.05019" lon="2.18678">
        <ele>39.6</ele>
        <time>2023-10-04T12:51:22Z</time>
      </trkpt>
      <trkpt lat="50.05019" lon="2.1868">
        <ele>39.6</ele>
        <time>2023-10-04T12:51:23Z</time>
      </trkpt>
      <trkpt lat="50.05019" lon="2.18681">
        <ele>39.6</ele>
        <time>2023-10-04T12:51:24Z</time>
      </trkpt>
      <trkpt lat="50.05019" lon="2.18685">
        <ele>39.6</ele>
        <time>2023-10-04T12:51:25Z</time>
      </trkpt>
      <trkpt lat="50.05019" lon="2.18686">
        <ele>39.6</ele>
        <time>2023-10-04T12:51:26Z</time>
      </trkpt>
      <trkpt lat="50.05019" lon="2.18687">
        <ele>39.6</ele>
        <time>2023-10-04T12:51:27Z</time>
      </trkpt>
      <trkpt lat="50.05019" lon="2.1869">
        <ele>39.6</ele>
        <time>2023-10-04T12:51:28Z</time>
      </trkpt>
      <trkpt lat="50.05019" lon="2.18692">
        <ele>39.6</ele>
        <time>2023-10-04T12:51:29Z</time>
      </trkpt>
      <trkpt lat="50.05019" lon="2.18693">
        <ele>39.6</ele>
        <time>2023-10-04T12:51:30Z</time>
      </trkpt>
      <trkpt lat="50.05019" lon="2.18696">
        <ele>39.6</ele>
        <time>2023-10-04T12:51:31Z</time>
      </trkpt>
      <trkpt lat="50.0502" lon="2.18698">
        <ele>39.6</ele>
        <time>2023-10-04T12:51:32Z</time>
      </trkpt>
      <trkpt lat="50.0502" lon="2.18699">
        <ele>39.6</ele>
        <time>2023-10-04T12:51:33Z</time>
      </trkpt>
      <trkpt lat="50.0502" lon="2.18701">
        <ele>39.6</ele>
        <time>2023-10-04T12:51:34Z</time>
      </trkpt>
      <trkpt lat="50.0502" lon="2.18702">
        <ele>39.6</ele>
        <time>2023-10-04T12:51:35Z</time>
      </trkpt>
      <trkpt lat="50.0502" lon="2.18704">
        <ele>39.6</ele>
        <time>2023-10-04T12:51:36Z</time>
      </trkpt>
      <trkpt lat="50.0502" lon="2.18705">
        <ele>39.6</ele>
        <time>2023-10-04T12:51:37Z</time>
      </trkpt>
      <trkpt lat="50.0502" lon="2.18707">
        <ele>39.6</ele>
        <time>2023-10-04T12:51:38Z</time>
      </trkpt>
      <trkpt lat="50.05021" lon="2.18708">
        <ele>39.6</ele>
        <time>2023-10-04T12:51:39Z</time>
      </trkpt>
      <trkpt lat="50.05021" lon="2.1871">
        <ele>39.6</ele>
        <time>2023-10-04T12:51:40Z</time>
      </trkpt>
      <trkpt lat="50.05021" lon="2.18712">
        <ele>39.6</ele>
        <time>2023-10-04T12:51:41Z</time>
      </trkpt>
      <trkpt lat="50.05021" lon="2.18713">
        <ele>39.6</ele>
        <time>2023-10-04T12:51:42Z</time>
      </trkpt>
      <trkpt lat="50.05021" lon="2.18715">
        <ele>39.7</ele>
        <time>2023-10-04T12:51:43Z</time>
      </trkpt>
      <trkpt lat="50.05022" lon="2.18717">
        <ele>39.7</ele>
        <time>2023-10-04T12:51:44Z</time>
      </trkpt>
      <trkpt lat="50.05022" lon="2.18719">
        <ele>39.7</ele>
        <time>2023-10-04T12:51:45Z</time>
      </trkpt>
      <trkpt lat="50.05022" lon="2.18722">
        <ele>39.7</ele>
        <time>2023-10-04T12:51:46Z</time>
      </trkpt>
      <trkpt lat="50.05022" lon="2.18723">
        <ele>39.7</ele>
        <time>2023-10-04T12:51:47Z</time>
      </trkpt>
      <trkpt lat="50.05022" lon="2.18725">
        <ele>39.7</ele>
        <time>2023-10-04T12:51:48Z</time>
      </trkpt>
      <trkpt lat="50.05022" lon="2.18726">
        <ele>39.7</ele>
        <time>2023-10-04T12:51:49Z</time>
      </trkpt>
      <trkpt lat="50.05022" lon="2.18728">
        <ele>39.7</ele>
        <time>2023-10-04T12:51:50Z</time>
      </trkpt>
      <trkpt lat="50.05022" lon="2.1873">
        <ele>39.7</ele>
        <time>2023-10-04T12:51:51Z</time>
      </trkpt>
      <trkpt lat="50.05022" lon="2.18732">
        <ele>39.7</ele>
        <time>2023-10-04T12:51:52Z</time>
      </trkpt>
      <trkpt lat="50.05022" lon="2.18734">
        <ele>39.7</ele>
        <time>2023-10-04T12:51:53Z</time>
      </trkpt>
      <trkpt lat="50.05022" lon="2.18735">
        <ele>39.7</ele>
        <time>2023-10-04T12:51:54Z</time>
      </trkpt>
      <trkpt lat="50.05022" lon="2.18738">
        <ele>39.7</ele>
        <time>2023-10-04T12:51:55Z</time>
      </trkpt>
      <trkpt lat="50.05023" lon="2.1874">
        <ele>39.7</ele>
        <time>2023-10-04T12:51:56Z</time>
      </trkpt>
      <trkpt lat="50.05023" lon="2.18741">
        <ele>39.7</ele>
        <time>2023-10-04T12:51:57Z</time>
      </trkpt>
      <trkpt lat="50.05023" lon="2.18744">
        <ele>39.7</ele>
        <time>2023-10-04T12:51:58Z</time>
      </trkpt>
      <trkpt lat="50.05023" lon="2.18746">
        <ele>39.7</ele>
        <time>2023-10-04T12:51:59Z</time>
      </trkpt>
      <trkpt lat="50.05023" lon="2.18747">
        <ele>39.7</ele>
        <time>2023-10-04T12:52:00Z</time>
      </trkpt>
      <trkpt lat="50.05024" lon="2.1875">
        <ele>39.7</ele>
        <time>2023-10-04T12:52:01Z</time>
      </trkpt>
      <trkpt lat="50.05024" lon="2.18752">
        <ele>39.7</ele>
        <time>2023-10-04T12:52:02Z</time>
      </trkpt>
      <trkpt lat="50.05024" lon="2.18753">
        <ele>39.7</ele>
        <time>2023-10-04T12:52:03Z</time>
      </trkpt>
      <trkpt lat="50.05024" lon="2.18755">
        <ele>39.7</ele>
        <time>2023-10-04T12:52:04Z</time>
      </trkpt>
      <trkpt lat="50.05024" lon="2.18757">
        <ele>39.7</ele>
        <time>2023-10-04T12:52:05Z</time>
      </trkpt>
      <trkpt lat="50.05025" lon="2.18761">
        <ele>39.7</ele>
        <time>2023-10-04T12:52:06Z</time>
      </trkpt>
      <trkpt lat="50.05025" lon="2.18762">
        <ele>39.7</ele>
        <time>2023-10-04T12:52:07Z</time>
      </trkpt>
      <trkpt lat="50.05025" lon="2.18763">
        <ele>39.7</ele>
        <time>2023-10-04T12:52:08Z</time>
      </trkpt>
      <trkpt lat="50.05025" lon="2.18765">
        <ele>39.7</ele>
        <time>2023-10-04T12:52:09Z</time>
      </trkpt>
      <trkpt lat="50.05025" lon="2.18767">
        <ele>39.7</ele>
        <time>2023-10-04T12:52:10Z</time>
      </trkpt>
      <trkpt lat="50.05025" lon="2.18769">
        <ele>39.7</ele>
        <time>2023-10-04T12:52:11Z</time>
      </trkpt>
      <trkpt lat="50.05025" lon="2.1877">
        <ele>39.7</ele>
        <time>2023-10-04T12:52:12Z</time>
      </trkpt>
      <trkpt lat="50.05026" lon="2.18772">
        <ele>39.7</ele>
        <time>2023-10-04T12:52:13Z</time>
      </trkpt>
      <trkpt lat="50.05026" lon="2.18773">
        <ele>39.7</ele>
        <time>2023-10-04T12:52:14Z</time>
      </trkpt>
      <trkpt lat="50.05026" lon="2.18776">
        <ele>39.7</ele>
        <time>2023-10-04T12:52:15Z</time>
      </trkpt>
      <trkpt lat="50.05026" lon="2.18778">
        <ele>39.7</ele>
        <time>2023-10-04T12:52:16Z</time>
      </trkpt>
      <trkpt lat="50.05026" lon="2.18779">
        <ele>39.7</ele>
        <time>2023-10-04T12:52:17Z</time>
      </trkpt>
      <trkpt lat="50.05027" lon="2.18782">
        <ele>39.7</ele>
        <time>2023-10-04T12:52:18Z</time>
      </trkpt>
      <trkpt lat="50.05027" lon="2.18783">
        <ele>39.8</ele>
        <time>2023-10-04T12:52:19Z</time>
      </trkpt>
      <trkpt lat="50.05027" lon="2.18785">
        <ele>39.8</ele>
        <time>2023-10-04T12:52:20Z</time>
      </trkpt>
      <trkpt lat="50.05027" lon="2.18786">
        <ele>39.8</ele>
        <time>2023-10-04T12:52:21Z</time>
      </trkpt>
      <trkpt lat="50.05027" lon="2.18788">
        <ele>39.8</ele>
        <time>2023-10-04T12:52:22Z</time>
      </trkpt>
      <trkpt lat="50.05028" lon="2.18789">
        <ele>39.8</ele>
        <time>2023-10-04T12:52:23Z</time>
      </trkpt>
      <trkpt lat="50.05028" lon="2.1879">
        <ele>39.8</ele>
        <time>2023-10-04T12:52:24Z</time>
      </trkpt>
      <trkpt lat="50.05028" lon="2.18791">
        <ele>39.8</ele>
        <time>2023-10-04T12:52:25Z</time>
      </trkpt>
      <trkpt lat="50.05028" lon="2.18793">
        <ele>39.8</ele>
        <time>2023-10-04T12:52:26Z</time>
      </trkpt>
      <trkpt lat="50.05028" lon="2.18794">
        <ele>39.8</ele>
        <time>2023-10-04T12:52:27Z</time>
      </trkpt>
      <trkpt lat="50.05028" lon="2.18796">
        <ele>39.8</ele>
        <time>2023-10-04T12:52:28Z</time>
      </trkpt>
      <trkpt lat="50.05028" lon="2.18797">
        <ele>39.8</ele>
        <time>2023-10-04T12:52:29Z</time>
      </trkpt>
      <trkpt lat="50.05028" lon="2.18799">
        <ele>39.8</ele>
        <time>2023-10-04T12:52:30Z</time>
      </trkpt>
      <trkpt lat="50.05028" lon="2.18802">
        <ele>39.8</ele>
        <time>2023-10-04T12:52:31Z</time>
      </trkpt>
      <trkpt lat="50.05028" lon="2.18804">
        <ele>39.8</ele>
        <time>2023-10-04T12:52:32Z</time>
      </trkpt>
      <trkpt lat="50.05028" lon="2.18805">
        <ele>39.8</ele>
        <time>2023-10-04T12:52:33Z</time>
      </trkpt>
      <trkpt lat="50.05028" lon="2.18808">
        <ele>39.8</ele>
        <time>2023-10-04T12:52:34Z</time>
      </trkpt>
      <trkpt lat="50.05028" lon="2.1881">
        <ele>39.8</ele>
        <time>2023-10-04T12:52:35Z</time>
      </trkpt>
      <trkpt lat="50.05028" lon="2.18811">
        <ele>39.8</ele>
        <time>2023-10-04T12:52:36Z</time>
      </trkpt>
      <trkpt lat="50.05028" lon="2.18814">
        <ele>39.8</ele>
        <time>2023-10-04T12:52:37Z</time>
      </trkpt>
      <trkpt lat="50.05028" lon="2.18816">
        <ele>39.8</ele>
        <time>2023-10-04T12:52:38Z</time>
      </trkpt>
      <trkpt lat="50.05028" lon="2.18817">
        <ele>39.8</ele>
        <time>2023-10-04T12:52:39Z</time>
      </trkpt>
      <trkpt lat="50.05028" lon="2.1882">
        <ele>39.8</ele>
        <time>2023-10-04T12:52:40Z</time>
      </trkpt>
      <trkpt lat="50.05028" lon="2.18821">
        <ele>39.8</ele>
        <time>2023-10-04T12:52:41Z</time>
      </trkpt>
      <trkpt lat="50.05028" lon="2.18823">
        <ele>39.8</ele>
        <time>2023-10-04T12:52:42Z</time>
      </trkpt>
      <trkpt lat="50.05028" lon="2.18826">
        <ele>39.8</ele>
        <time>2023-10-04T12:52:43Z</time>
      </trkpt>
      <trkpt lat="50.05028" lon="2.18828">
        <ele>39.8</ele>
        <time>2023-10-04T12:52:44Z</time>
      </trkpt>
      <trkpt lat="50.05029" lon="2.18829">
        <ele>39.8</ele>
        <time>2023-10-04T12:52:45Z</time>
      </trkpt>
      <trkpt lat="50.05029" lon="2.18831">
        <ele>39.8</ele>
        <time>2023-10-04T12:52:46Z</time>
      </trkpt>
      <trkpt lat="50.05029" lon="2.18833">
        <ele>39.8</ele>
        <time>2023-10-04T12:52:47Z</time>
      </trkpt>
      <trkpt lat="50.05029" lon="2.18834">
        <ele>39.8</ele>
        <time>2023-10-04T12:52:48Z</time>
      </trkpt>
      <trkpt lat="50.05029" lon="2.18836">
        <ele>39.8</ele>
        <time>2023-10-04T12:52:49Z</time>
      </trkpt>
      <trkpt lat="50.05029" lon="2.18838">
        <ele>39.8</ele>
        <time>2023-10-04T12:52:50Z</time>
      </trkpt>
      <trkpt lat="50.05029" lon="2.1884">
        <ele>39.8</ele>
        <time>2023-10-04T12:52:51Z</time>
      </trkpt>
      <trkpt lat="50.0503" lon="2.18843">
        <ele>39.8</ele>
        <time>2023-10-04T12:52:52Z</time>
      </trkpt>
      <trkpt lat="50.0503" lon="2.18845">
        <ele>39.8</ele>
        <time>2023-10-04T12:52:53Z</time>
      </trkpt>
      <trkpt lat="50.0503" lon="2.18846">
        <ele>39.8</ele>
        <time>2023-10-04T12:52:54Z</time>
      </trkpt>
      <trkpt lat="50.05031" lon="2.18849">
        <ele>39.8</ele>
        <time>2023-10-04T12:52:55Z</time>
      </trkpt>
      <trkpt lat="50.05031" lon="2.18851">
        <ele>39.8</ele>
        <time>2023-10-04T12:52:56Z</time>
      </trkpt>
      <trkpt lat="50.05031" lon="2.18852">
        <ele>39.8</ele>
        <time>2023-10-04T12:52:57Z</time>
      </trkpt>
      <trkpt lat="50.05031" lon="2.18854">
        <ele>39.8</ele>
        <time>2023-10-04T12:52:58Z</time>
      </trkpt>
      <trkpt lat="50.05031" lon="2.18856">
        <ele>39.8</ele>
        <time>2023-10-04T12:52:59Z</time>
      </trkpt>
      <trkpt lat="50.05031" lon="2.18857">
        <ele>39.8</ele>
        <time>2023-10-04T12:53:00Z</time>
      </trkpt>
      <trkpt lat="50.05031" lon="2.18859">
        <ele>39.8</ele>
        <time>2023-10-04T12:53:01Z</time>
      </trkpt>
      <trkpt lat="50.05031" lon="2.1886">
        <ele>39.8</ele>
        <time>2023-10-04T12:53:02Z</time>
      </trkpt>
      <trkpt lat="50.05031" lon="2.18862">
        <ele>39.8</ele>
        <time>2023-10-04T12:53:03Z</time>
      </trkpt>
      <trkpt lat="50.05032" lon="2.18864">
        <ele>39.8</ele>
        <time>2023-10-04T12:53:04Z</time>
      </trkpt>
      <trkpt lat="50.05032" lon="2.18865">
        <ele>39.8</ele>
        <time>2023-10-04T12:53:05Z</time>
      </trkpt>
      <trkpt lat="50.05032" lon="2.18867">
        <ele>39.8</ele>
        <time>2023-10-04T12:53:06Z</time>
      </trkpt>
      <trkpt lat="50.05032" lon="2.18869">
        <ele>39.8</ele>
        <time>2023-10-04T12:53:07Z</time>
      </trkpt>
      <trkpt lat="50.05032" lon="2.1887">
        <ele>39.8</ele>
        <time>2023-10-04T12:53:08Z</time>
      </trkpt>
      <trkpt lat="50.05032" lon="2.18872">
        <ele>39.8</ele>
        <time>2023-10-04T12:53:09Z</time>
      </trkpt>
      <trkpt lat="50.05032" lon="2.18874">
        <ele>39.8</ele>
        <time>2023-10-04T12:53:10Z</time>
      </trkpt>
      <trkpt lat="50.05032" lon="2.18876">
        <ele>39.8</ele>
        <time>2023-10-04T12:53:11Z</time>
      </trkpt>
      <trkpt lat="50.05032" lon="2.18877">
        <ele>39.9</ele>
        <time>2023-10-04T12:53:12Z</time>
      </trkpt>
      <trkpt lat="50.05032" lon="2.18879">
        <ele>39.9</ele>
        <time>2023-10-04T12:53:13Z</time>
      </trkpt>
      <trkpt lat="50.05033" lon="2.18881">
        <ele>39.9</ele>
        <time>2023-10-04T12:53:14Z</time>
      </trkpt>
      <trkpt lat="50.05033" lon="2.18882">
        <ele>39.9</ele>
        <time>2023-10-04T12:53:15Z</time>
      </trkpt>
      <trkpt lat="50.05033" lon="2.18885">
        <ele>39.9</ele>
        <time>2023-10-04T12:53:16Z</time>
      </trkpt>
      <trkpt lat="50.05033" lon="2.18887">
        <ele>39.9</ele>
        <time>2023-10-04T12:53:17Z</time>
      </trkpt>
      <trkpt lat="50.05033" lon="2.18888">
        <ele>39.9</ele>
        <time>2023-10-04T12:53:18Z</time>
      </trkpt>
      <trkpt lat="50.05033" lon="2.18891">
        <ele>39.9</ele>
        <time>2023-10-04T12:53:19Z</time>
      </trkpt>
      <trkpt lat="50.05033" lon="2.18893">
        <ele>39.9</ele>
        <time>2023-10-04T12:53:20Z</time>
      </trkpt>
      <trkpt lat="50.05033" lon="2.18894">
        <ele>39.9</ele>
        <time>2023-10-04T12:53:21Z</time>
      </trkpt>
      <trkpt lat="50.05033" lon="2.18897">
        <ele>39.9</ele>
        <time>2023-10-04T12:53:22Z</time>
      </trkpt>
      <trkpt lat="50.05033" lon="2.18899">
        <ele>39.9</ele>
        <time>2023-10-04T12:53:23Z</time>
      </trkpt>
      <trkpt lat="50.05033" lon="2.189">
        <ele>39.9</ele>
        <time>2023-10-04T12:53:24Z</time>
      </trkpt>
      <trkpt lat="50.05032" lon="2.18902">
        <ele>39.9</ele>
        <time>2023-10-04T12:53:25Z</time>
      </trkpt>
      <trkpt lat="50.05032" lon="2.18903">
        <ele>39.9</ele>
        <time>2023-10-04T12:53:26Z</time>
      </trkpt>
      <trkpt lat="50.05032" lon="2.18905">
        <ele>39.9</ele>
        <time>2023-10-04T12:53:27Z</time>
      </trkpt>
      <trkpt lat="50.05033" lon="2.18906">
        <ele>39.9</ele>
        <time>2023-10-04T12:53:28Z</time>
      </trkpt>
      <trkpt lat="50.05033" lon="2.18908">
        <ele>39.9</ele>
        <time>2023-10-04T12:53:29Z</time>
      </trkpt>
      <trkpt lat="50.05033" lon="2.18909">
        <ele>39.9</ele>
        <time>2023-10-04T12:53:30Z</time>
      </trkpt>
      <trkpt lat="50.05033" lon="2.18911">
        <ele>40</ele>
        <time>2023-10-04T12:53:31Z</time>
      </trkpt>
      <trkpt lat="50.05033" lon="2.18912">
        <ele>40</ele>
        <time>2023-10-04T12:53:32Z</time>
      </trkpt>
      <trkpt lat="50.05033" lon="2.18914">
        <ele>40</ele>
        <time>2023-10-04T12:53:33Z</time>
      </trkpt>
      <trkpt lat="50.05034" lon="2.18915">
        <ele>40</ele>
        <time>2023-10-04T12:53:34Z</time>
      </trkpt>
      <trkpt lat="50.05034" lon="2.18917">
        <ele>40</ele>
        <time>2023-10-04T12:53:35Z</time>
      </trkpt>
      <trkpt lat="50.05035" lon="2.18918">
        <ele>40</ele>
        <time>2023-10-04T12:53:36Z</time>
      </trkpt>
      <trkpt lat="50.05035" lon="2.18919">
        <ele>40</ele>
        <time>2023-10-04T12:53:37Z</time>
      </trkpt>
      <trkpt lat="50.05036" lon="2.1892">
        <ele>40</ele>
        <time>2023-10-04T12:53:38Z</time>
      </trkpt>
      <trkpt lat="50.05036" lon="2.18922">
        <ele>40</ele>
        <time>2023-10-04T12:53:39Z</time>
      </trkpt>
      <trkpt lat="50.05036" lon="2.18923">
        <ele>40</ele>
        <time>2023-10-04T12:53:40Z</time>
      </trkpt>
      <trkpt lat="50.05036" lon="2.18924">
        <ele>40</ele>
        <time>2023-10-04T12:53:41Z</time>
      </trkpt>
      <trkpt lat="50.05036" lon="2.18925">
        <ele>40</ele>
        <time>2023-10-04T12:53:42Z</time>
      </trkpt>
      <trkpt lat="50.05036" lon="2.18926">
        <ele>40</ele>
        <time>2023-10-04T12:53:43Z</time>
      </trkpt>
      <trkpt lat="50.05036" lon="2.18927">
        <ele>40</ele>
        <time>2023-10-04T12:53:44Z</time>
      </trkpt>
      <trkpt lat="50.05035" lon="2.18928">
        <ele>40.1</ele>
        <time>2023-10-04T12:53:45Z</time>
      </trkpt>
      <trkpt lat="50.05035" lon="2.18929">
        <ele>40.1</ele>
        <time>2023-10-04T12:53:46Z</time>
      </trkpt>
      <trkpt lat="50.05035" lon="2.1893">
        <ele>40.1</ele>
        <time>2023-10-04T12:53:47Z</time>
      </trkpt>
      <trkpt lat="50.05034" lon="2.18931">
        <ele>40.1</ele>
        <time>2023-10-04T12:53:48Z</time>
      </trkpt>
      <trkpt lat="50.05034" lon="2.18932">
        <ele>40.1</ele>
        <time>2023-10-04T12:53:49Z</time>
      </trkpt>
      <trkpt lat="50.05034" lon="2.18933">
        <ele>40.1</ele>
        <time>2023-10-04T12:53:50Z</time>
      </trkpt>
      <trkpt lat="50.05033" lon="2.18935">
        <ele>40.1</ele>
        <time>2023-10-04T12:53:51Z</time>
      </trkpt>
      <trkpt lat="50.05033" lon="2.18936">
        <ele>40.1</ele>
        <time>2023-10-04T12:53:52Z</time>
      </trkpt>
      <trkpt lat="50.05032" lon="2.18937">
        <ele>40.1</ele>
        <time>2023-10-04T12:53:53Z</time>
      </trkpt>
      <trkpt lat="50.05032" lon="2.18938">
        <ele>40.1</ele>
        <time>2023-10-04T12:53:54Z</time>
      </trkpt>
      <trkpt lat="50.05031" lon="2.18939">
        <ele>40.1</ele>
        <time>2023-10-04T12:53:55Z</time>
      </trkpt>
      <trkpt lat="50.05031" lon="2.1894">
        <ele>40.1</ele>
        <time>2023-10-04T12:53:56Z</time>
      </trkpt>
      <trkpt lat="50.0503" lon="2.18941">
        <ele>40.1</ele>
        <time>2023-10-04T12:53:57Z</time>
      </trkpt>
      <trkpt lat="50.05029" lon="2.18942">
        <ele>40.1</ele>
        <time>2023-10-04T12:53:58Z</time>
      </trkpt>
      <trkpt lat="50.05029" lon="2.18942">
        <ele>40.2</ele>
        <time>2023-10-04T12:53:59Z</time>
      </trkpt>
      <trkpt lat="50.05028" lon="2.18943">
        <ele>40.2</ele>
        <time>2023-10-04T12:54:00Z</time>
      </trkpt>
      <trkpt lat="50.05028" lon="2.18944">
        <ele>40.2</ele>
        <time>2023-10-04T12:54:01Z</time>
      </trkpt>
      <trkpt lat="50.05027" lon="2.18945">
        <ele>40.2</ele>
        <time>2023-10-04T12:54:02Z</time>
      </trkpt>
      <trkpt lat="50.05027" lon="2.18946">
        <ele>40.2</ele>
        <time>2023-10-04T12:54:03Z</time>
      </trkpt>
      <trkpt lat="50.05026" lon="2.18946">
        <ele>40.2</ele>
        <time>2023-10-04T12:54:04Z</time>
      </trkpt>
      <trkpt lat="50.05026" lon="2.18947">
        <ele>40.2</ele>
        <time>2023-10-04T12:54:05Z</time>
      </trkpt>
      <trkpt lat="50.05025" lon="2.18947">
        <ele>40.2</ele>
        <time>2023-10-04T12:54:06Z</time>
      </trkpt>
      <trkpt lat="50.05024" lon="2.18947">
        <ele>40.2</ele>
        <time>2023-10-04T12:54:07Z</time>
      </trkpt>
      <trkpt lat="50.05024" lon="2.18947">
        <ele>40.2</ele>
        <time>2023-10-04T12:54:08Z</time>
      </trkpt>
      <trkpt lat="50.05024" lon="2.18947">
        <ele>40.2</ele>
        <time>2023-10-04T12:54:09Z</time>
      </trkpt>
      <trkpt lat="50.05024" lon="2.18947">
        <ele>40.2</ele>
        <time>2023-10-04T12:54:10Z</time>
      </trkpt>
      <trkpt lat="50.05024" lon="2.18947">
        <ele>40.2</ele>
        <time>2023-10-04T12:54:11Z</time>
      </trkpt>
      <trkpt lat="50.05024" lon="2.18947">
        <ele>40.2</ele>
        <time>2023-10-04T12:54:12Z</time>
      </trkpt>
      <trkpt lat="50.05025" lon="2.18947">
        <ele>40.2</ele>
        <time>2023-10-04T12:54:13Z</time>
      </trkpt>
      <trkpt lat="50.05025" lon="2.18947">
        <ele>40.2</ele>
        <time>2023-10-04T12:54:14Z</time>
      </trkpt>
      <trkpt lat="50.05026" lon="2.18947">
        <ele>40.2</ele>
        <time>2023-10-04T12:54:15Z</time>
      </trkpt>
      <trkpt lat="50.05027" lon="2.18947">
        <ele>40.2</ele>
        <time>2023-10-04T12:54:16Z</time>
      </trkpt>
      <trkpt lat="50.05029" lon="2.18948">
        <ele>40.3</ele>
        <time>2023-10-04T12:54:17Z</time>
      </trkpt>
      <trkpt lat="50.0503" lon="2.18949">
        <ele>40.3</ele>
        <time>2023-10-04T12:54:18Z</time>
      </trkpt>
      <trkpt lat="50.05031" lon="2.1895">
        <ele>40.3</ele>
        <time>2023-10-04T12:54:19Z</time>
      </trkpt>
      <trkpt lat="50.05032" lon="2.18951">
        <ele>40.3</ele>
        <time>2023-10-04T12:54:20Z</time>
      </trkpt>
      <trkpt lat="50.05034" lon="2.18952">
        <ele>40.3</ele>
        <time>2023-10-04T12:54:21Z</time>
      </trkpt>
      <trkpt lat="50.05034" lon="2.18954">
        <ele>40.3</ele>
        <time>2023-10-04T12:54:22Z</time>
      </trkpt>
      <trkpt lat="50.05035" lon="2.18955">
        <ele>40.3</ele>
        <time>2023-10-04T12:54:23Z</time>
      </trkpt>
      <trkpt lat="50.05035" lon="2.18956">
        <ele>40.3</ele>
        <time>2023-10-04T12:54:24Z</time>
      </trkpt>
      <trkpt lat="50.05036" lon="2.18957">
        <ele>40.3</ele>
        <time>2023-10-04T12:54:25Z</time>
      </trkpt>
      <trkpt lat="50.05036" lon="2.18958">
        <ele>40.3</ele>
        <time>2023-10-04T12:54:26Z</time>
      </trkpt>
      <trkpt lat="50.05036" lon="2.18959">
        <ele>40.3</ele>
        <time>2023-10-04T12:54:27Z</time>
      </trkpt>
      <trkpt lat="50.05037" lon="2.18961">
        <ele>40.3</ele>
        <time>2023-10-04T12:54:28Z</time>
      </trkpt>
      <trkpt lat="50.05037" lon="2.18962">
        <ele>40.3</ele>
        <time>2023-10-04T12:54:29Z</time>
      </trkpt>
      <trkpt lat="50.05037" lon="2.18963">
        <ele>40.3</ele>
        <time>2023-10-04T12:54:30Z</time>
      </trkpt>
      <trkpt lat="50.05037" lon="2.18965">
        <ele>40.3</ele>
        <time>2023-10-04T12:54:31Z</time>
      </trkpt>
      <trkpt lat="50.05037" lon="2.18967">
        <ele>40.3</ele>
        <time>2023-10-04T12:54:32Z</time>
      </trkpt>
      <trkpt lat="50.05038" lon="2.18969">
        <ele>40.3</ele>
        <time>2023-10-04T12:54:33Z</time>
      </trkpt>
      <trkpt lat="50.05038" lon="2.18973">
        <ele>40.3</ele>
        <time>2023-10-04T12:54:34Z</time>
      </trkpt>
      <trkpt lat="50.05038" lon="2.18974">
        <ele>40.3</ele>
        <time>2023-10-04T12:54:35Z</time>
      </trkpt>
      <trkpt lat="50.05038" lon="2.18975">
        <ele>40.3</ele>
        <time>2023-10-04T12:54:36Z</time>
      </trkpt>
      <trkpt lat="50.05038" lon="2.18976">
        <ele>40.3</ele>
        <time>2023-10-04T12:54:37Z</time>
      </trkpt>
      <trkpt lat="50.05038" lon="2.18978">
        <ele>40.3</ele>
        <time>2023-10-04T12:54:38Z</time>
      </trkpt>
      <trkpt lat="50.05038" lon="2.18979">
        <ele>40.3</ele>
        <time>2023-10-04T12:54:39Z</time>
      </trkpt>
      <trkpt lat="50.05039" lon="2.18981">
        <ele>40.3</ele>
        <time>2023-10-04T12:54:40Z</time>
      </trkpt>
      <trkpt lat="50.05039" lon="2.18983">
        <ele>40.3</ele>
        <time>2023-10-04T12:54:41Z</time>
      </trkpt>
      <trkpt lat="50.05039" lon="2.18984">
        <ele>40.3</ele>
        <time>2023-10-04T12:54:42Z</time>
      </trkpt>
      <trkpt lat="50.05039" lon="2.18986">
        <ele>40.3</ele>
        <time>2023-10-04T12:54:43Z</time>
      </trkpt>
      <trkpt lat="50.05038" lon="2.18988">
        <ele>40.3</ele>
        <time>2023-10-04T12:54:44Z</time>
      </trkpt>
      <trkpt lat="50.05038" lon="2.18989">
        <ele>40.3</ele>
        <time>2023-10-04T12:54:45Z</time>
      </trkpt>
      <trkpt lat="50.05038" lon="2.18991">
        <ele>40.3</ele>
        <time>2023-10-04T12:54:46Z</time>
      </trkpt>
      <trkpt lat="50.05038" lon="2.18992">
        <ele>40.3</ele>
        <time>2023-10-04T12:54:47Z</time>
      </trkpt>
      <trkpt lat="50.05038" lon="2.18994">
        <ele>40.3</ele>
        <time>2023-10-04T12:54:48Z</time>
      </trkpt>
      <trkpt lat="50.05038" lon="2.18996">
        <ele>40.3</ele>
        <time>2023-10-04T12:54:49Z</time>
      </trkpt>
      <trkpt lat="50.05038" lon="2.18997">
        <ele>40.3</ele>
        <time>2023-10-04T12:54:50Z</time>
      </trkpt>
      <trkpt lat="50.05038" lon="2.18999">
        <ele>40.3</ele>
        <time>2023-10-04T12:54:51Z</time>
      </trkpt>
      <trkpt lat="50.05039" lon="2.19001">
        <ele>40.3</ele>
        <time>2023-10-04T12:54:52Z</time>
      </trkpt>
      <trkpt lat="50.05039" lon="2.19002">
        <ele>40.3</ele>
        <time>2023-10-04T12:54:53Z</time>
      </trkpt>
      <trkpt lat="50.05039" lon="2.19004">
        <ele>40.3</ele>
        <time>2023-10-04T12:54:54Z</time>
      </trkpt>
      <trkpt lat="50.05038" lon="2.19006">
        <ele>40.3</ele>
        <time>2023-10-04T12:54:55Z</time>
      </trkpt>
      <trkpt lat="50.05038" lon="2.19008">
        <ele>40.3</ele>
        <time>2023-10-04T12:54:56Z</time>
      </trkpt>
      <trkpt lat="50.05038" lon="2.1901">
        <ele>40.3</ele>
        <time>2023-10-04T12:54:57Z</time>
      </trkpt>
      <trkpt lat="50.05038" lon="2.19011">
        <ele>40.3</ele>
        <time>2023-10-04T12:54:58Z</time>
      </trkpt>
      <trkpt lat="50.05038" lon="2.19013">
        <ele>40.3</ele>
        <time>2023-10-04T12:54:59Z</time>
      </trkpt>
      <trkpt lat="50.05038" lon="2.19015">
        <ele>40.3</ele>
        <time>2023-10-04T12:55:00Z</time>
      </trkpt>
      <trkpt lat="50.05038" lon="2.19017">
        <ele>40.4</ele>
        <time>2023-10-04T12:55:01Z</time>
      </trkpt>
      <trkpt lat="50.05038" lon="2.19018">
        <ele>40.4</ele>
        <time>2023-10-04T12:55:02Z</time>
      </trkpt>
      <trkpt lat="50.05038" lon="2.1902">
        <ele>40.4</ele>
        <time>2023-10-04T12:55:03Z</time>
      </trkpt>
      <trkpt lat="50.05038" lon="2.19022">
        <ele>40.4</ele>
        <time>2023-10-04T12:55:04Z</time>
      </trkpt>
      <trkpt lat="50.05039" lon="2.19024">
        <ele>40.4</ele>
        <time>2023-10-04T12:55:05Z</time>
      </trkpt>
      <trkpt lat="50.05039" lon="2.19025">
        <ele>40.4</ele>
        <time>2023-10-04T12:55:06Z</time>
      </trkpt>
      <trkpt lat="50.05039" lon="2.19026">
        <ele>40.4</ele>
        <time>2023-10-04T12:55:07Z</time>
      </trkpt>
      <trkpt lat="50.05039" lon="2.19028">
        <ele>40.4</ele>
        <time>2023-10-04T12:55:08Z</time>
      </trkpt>
      <trkpt lat="50.05039" lon="2.19029">
        <ele>40.4</ele>
        <time>2023-10-04T12:55:09Z</time>
      </trkpt>
      <trkpt lat="50.05039" lon="2.19031">
        <ele>40.4</ele>
        <time>2023-10-04T12:55:10Z</time>
      </trkpt>
      <trkpt lat="50.05039" lon="2.19033">
        <ele>40.4</ele>
        <time>2023-10-04T12:55:11Z</time>
      </trkpt>
      <trkpt lat="50.05039" lon="2.19034">
        <ele>40.4</ele>
        <time>2023-10-04T12:55:12Z</time>
      </trkpt>
      <trkpt lat="50.05039" lon="2.19035">
        <ele>40.5</ele>
        <time>2023-10-04T12:55:13Z</time>
      </trkpt>
      <trkpt lat="50.0504" lon="2.19037">
        <ele>40.5</ele>
        <time>2023-10-04T12:55:14Z</time>
      </trkpt>
      <trkpt lat="50.0504" lon="2.19038">
        <ele>40.5</ele>
        <time>2023-10-04T12:55:15Z</time>
      </trkpt>
      <trkpt lat="50.0504" lon="2.1904">
        <ele>40.5</ele>
        <time>2023-10-04T12:55:16Z</time>
      </trkpt>
      <trkpt lat="50.0504" lon="2.19042">
        <ele>40.5</ele>
        <time>2023-10-04T12:55:17Z</time>
      </trkpt>
      <trkpt lat="50.0504" lon="2.19043">
        <ele>40.5</ele>
        <time>2023-10-04T12:55:18Z</time>
      </trkpt>
      <trkpt lat="50.05041" lon="2.19045">
        <ele>40.5</ele>
        <time>2023-10-04T12:55:19Z</time>
      </trkpt>
      <trkpt lat="50.05041" lon="2.19047">
        <ele>40.5</ele>
        <time>2023-10-04T12:55:20Z</time>
      </trkpt>
      <trkpt lat="50.05041" lon="2.19048">
        <ele>40.5</ele>
        <time>2023-10-04T12:55:21Z</time>
      </trkpt>
      <trkpt lat="50.05041" lon="2.1905">
        <ele>40.5</ele>
        <time>2023-10-04T12:55:22Z</time>
      </trkpt>
      <trkpt lat="50.05041" lon="2.19052">
        <ele>40.6</ele>
        <time>2023-10-04T12:55:23Z</time>
      </trkpt>
      <trkpt lat="50.05042" lon="2.19053">
        <ele>40.6</ele>
        <time>2023-10-04T12:55:24Z</time>
      </trkpt>
      <trkpt lat="50.05042" lon="2.19055">
        <ele>40.6</ele>
        <time>2023-10-04T12:55:25Z</time>
      </trkpt>
      <trkpt lat="50.05042" lon="2.19057">
        <ele>40.6</ele>
        <time>2023-10-04T12:55:26Z</time>
      </trkpt>
      <trkpt lat="50.05042" lon="2.19058">
        <ele>40.6</ele>
        <time>2023-10-04T12:55:27Z</time>
      </trkpt>
      <trkpt lat="50.05043" lon="2.1906">
        <ele>40.6</ele>
        <time>2023-10-04T12:55:28Z</time>
      </trkpt>
      <trkpt lat="50.05043" lon="2.19062">
        <ele>40.6</ele>
        <time>2023-10-04T12:55:29Z</time>
      </trkpt>
      <trkpt lat="50.05043" lon="2.19063">
        <ele>40.6</ele>
        <time>2023-10-04T12:55:30Z</time>
      </trkpt>
      <trkpt lat="50.05044" lon="2.19065">
        <ele>40.6</ele>
        <time>2023-10-04T12:55:31Z</time>
      </trkpt>
      <trkpt lat="50.05044" lon="2.19066">
        <ele>40.6</ele>
        <time>2023-10-04T12:55:32Z</time>
      </trkpt>
      <trkpt lat="50.05045" lon="2.19068">
        <ele>40.6</ele>
        <time>2023-10-04T12:55:33Z</time>
      </trkpt>
      <trkpt lat="50.05045" lon="2.19069">
        <ele>40.6</ele>
        <time>2023-10-04T12:55:34Z</time>
      </trkpt>
      <trkpt lat="50.05045" lon="2.19071">
        <ele>40.6</ele>
        <time>2023-10-04T12:55:35Z</time>
      </trkpt>
      <trkpt lat="50.05046" lon="2.19073">
        <ele>40.6</ele>
        <time>2023-10-04T12:55:36Z</time>
      </trkpt>
      <trkpt lat="50.05046" lon="2.19075">
        <ele>40.6</ele>
        <time>2023-10-04T12:55:37Z</time>
      </trkpt>
      <trkpt lat="50.05046" lon="2.19077">
        <ele>40.6</ele>
        <time>2023-10-04T12:55:38Z</time>
      </trkpt>
      <trkpt lat="50.05047" lon="2.19078">
        <ele>40.6</ele>
        <time>2023-10-04T12:55:39Z</time>
      </trkpt>
      <trkpt lat="50.05047" lon="2.1908">
        <ele>40.6</ele>
        <time>2023-10-04T12:55:40Z</time>
      </trkpt>
      <trkpt lat="50.05047" lon="2.19081">
        <ele>40.6</ele>
        <time>2023-10-04T12:55:41Z</time>
      </trkpt>
      <trkpt lat="50.05047" lon="2.19082">
        <ele>40.6</ele>
        <time>2023-10-04T12:55:42Z</time>
      </trkpt>
      <trkpt lat="50.05047" lon="2.19083">
        <ele>40.6</ele>
        <time>2023-10-04T12:55:43Z</time>
      </trkpt>
      <trkpt lat="50.05046" lon="2.19083">
        <ele>40.6</ele>
        <time>2023-10-04T12:55:44Z</time>
      </trkpt>
      <trkpt lat="50.05045" lon="2.19082">
        <ele>40.6</ele>
        <time>2023-10-04T12:55:45Z</time>
      </trkpt>
      <trkpt lat="50.05045" lon="2.19082">
        <ele>40.6</ele>
        <time>2023-10-04T12:55:46Z</time>
      </trkpt>
      <trkpt lat="50.05044" lon="2.19082">
        <ele>40.6</ele>
        <time>2023-10-04T12:55:47Z</time>
      </trkpt>
      <trkpt lat="50.05044" lon="2.19081">
        <ele>40.6</ele>
        <time>2023-10-04T12:55:48Z</time>
      </trkpt>
      <trkpt lat="50.05044" lon="2.19081">
        <ele>40.6</ele>
        <time>2023-10-04T12:55:49Z</time>
      </trkpt>
      <trkpt lat="50.05044" lon="2.19081">
        <ele>40.6</ele>
        <time>2023-10-04T12:55:50Z</time>
      </trkpt>
      <trkpt lat="50.05044" lon="2.19081">
        <ele>40.6</ele>
        <time>2023-10-04T12:55:51Z</time>
      </trkpt>
      <trkpt lat="50.05044" lon="2.19081">
        <ele>40.5</ele>
        <time>2023-10-04T12:55:52Z</time>
      </trkpt>
      <trkpt lat="50.05044" lon="2.19081">
        <ele>40.5</ele>
        <time>2023-10-04T12:55:53Z</time>
      </trkpt>
      <trkpt lat="50.05044" lon="2.19082">
        <ele>40.5</ele>
        <time>2023-10-04T12:55:54Z</time>
      </trkpt>
      <trkpt lat="50.05044" lon="2.19083">
        <ele>40.5</ele>
        <time>2023-10-04T12:55:55Z</time>
      </trkpt>
      <trkpt lat="50.05044" lon="2.19085">
        <ele>40.5</ele>
        <time>2023-10-04T12:55:56Z</time>
      </trkpt>
      <trkpt lat="50.05044" lon="2.19086">
        <ele>40.5</ele>
        <time>2023-10-04T12:55:57Z</time>
      </trkpt>
      <trkpt lat="50.05044" lon="2.19088">
        <ele>40.5</ele>
        <time>2023-10-04T12:55:58Z</time>
      </trkpt>
      <trkpt lat="50.05044" lon="2.19089">
        <ele>40.5</ele>
        <time>2023-10-04T12:55:59Z</time>
      </trkpt>
      <trkpt lat="50.05044" lon="2.1909">
        <ele>40.5</ele>
        <time>2023-10-04T12:56:00Z</time>
      </trkpt>
      <trkpt lat="50.05044" lon="2.1909">
        <ele>40.5</ele>
        <time>2023-10-04T12:56:01Z</time>
      </trkpt>
      <trkpt lat="50.05044" lon="2.1909">
        <ele>40.5</ele>
        <time>2023-10-04T12:56:02Z</time>
      </trkpt>
      <trkpt lat="50.05044" lon="2.1909">
        <ele>40.5</ele>
        <time>2023-10-04T12:56:03Z</time>
      </trkpt>
      <trkpt lat="50.05044" lon="2.1909">
        <ele>40.5</ele>
        <time>2023-10-04T12:56:04Z</time>
      </trkpt>
      <trkpt lat="50.05044" lon="2.1909">
        <ele>40.5</ele>
        <time>2023-10-04T12:56:05Z</time>
      </trkpt>
      <trkpt lat="50.05044" lon="2.1909">
        <ele>40.5</ele>
        <time>2023-10-04T12:56:06Z</time>
      </trkpt>
      <trkpt lat="50.05044" lon="2.1909">
        <ele>40.5</ele>
        <time>2023-10-04T12:56:07Z</time>
      </trkpt>
      <trkpt lat="50.05044" lon="2.1909">
        <ele>40.5</ele>
        <time>2023-10-04T12:56:08Z</time>
      </trkpt>
      <trkpt lat="50.05044" lon="2.1909">
        <ele>40.5</ele>
        <time>2023-10-04T12:56:09Z</time>
      </trkpt>
      <trkpt lat="50.05044" lon="2.1909">
        <ele>40.5</ele>
        <time>2023-10-04T12:56:10Z</time>
      </trkpt>
      <trkpt lat="50.05044" lon="2.1909">
        <ele>40.5</ele>
        <time>2023-10-04T12:56:11Z</time>
      </trkpt>
      <trkpt lat="50.05044" lon="2.1909">
        <ele>40.5</ele>
        <time>2023-10-04T12:56:12Z</time>
      </trkpt>
      <trkpt lat="50.05044" lon="2.1909">
        <ele>40.5</ele>
        <time>2023-10-04T12:56:13Z</time>
      </trkpt>
      <trkpt lat="50.05044" lon="2.19088">
        <ele>40.5</ele>
        <time>2023-10-04T12:56:14Z</time>
      </trkpt>
      <trkpt lat="50.05044" lon="2.19088">
        <ele>40.5</ele>
        <time>2023-10-04T12:56:15Z</time>
      </trkpt>
      <trkpt lat="50.05044" lon="2.19087">
        <ele>40.5</ele>
        <time>2023-10-04T12:56:16Z</time>
      </trkpt>
      <trkpt lat="50.05044" lon="2.19087">
        <ele>40.5</ele>
        <time>2023-10-04T12:56:17Z</time>
      </trkpt>
      <trkpt lat="50.05044" lon="2.19087">
        <ele>40.5</ele>
        <time>2023-10-04T12:56:18Z</time>
      </trkpt>
      <trkpt lat="50.05044" lon="2.19087">
        <ele>40.5</ele>
        <time>2023-10-04T12:56:19Z</time>
      </trkpt>
      <trkpt lat="50.05044" lon="2.19087">
        <ele>40.5</ele>
        <time>2023-10-04T12:56:20Z</time>
      </trkpt>
      <trkpt lat="50.05044" lon="2.19087">
        <ele>40.5</ele>
        <time>2023-10-04T12:56:21Z</time>
      </trkpt>
      <trkpt lat="50.05045" lon="2.19086">
        <ele>40.5</ele>
        <time>2023-10-04T12:56:22Z</time>
      </trkpt>
      <trkpt lat="50.05045" lon="2.19086">
        <ele>40.5</ele>
        <time>2023-10-04T12:56:23Z</time>
      </trkpt>
      <trkpt lat="50.05045" lon="2.19085">
        <ele>40.5</ele>
        <time>2023-10-04T12:56:24Z</time>
      </trkpt>
      <trkpt lat="50.05046" lon="2.19084">
        <ele>40.5</ele>
        <time>2023-10-04T12:56:25Z</time>
      </trkpt>
      <trkpt lat="50.05046" lon="2.19083">
        <ele>40.5</ele>
        <time>2023-10-04T12:56:26Z</time>
      </trkpt>
      <trkpt lat="50.05046" lon="2.19083">
        <ele>40.5</ele>
        <time>2023-10-04T12:56:27Z</time>
      </trkpt>
      <trkpt lat="50.05045" lon="2.19083">
        <ele>40.5</ele>
        <time>2023-10-04T12:56:28Z</time>
      </trkpt>
      <trkpt lat="50.05045" lon="2.19083">
        <ele>40.5</ele>
        <time>2023-10-04T12:56:29Z</time>
      </trkpt>
      <trkpt lat="50.05045" lon="2.19083">
        <ele>40.5</ele>
        <time>2023-10-04T12:56:30Z</time>
      </trkpt>
      <trkpt lat="50.05045" lon="2.19083">
        <ele>40.5</ele>
        <time>2023-10-04T12:56:31Z</time>
      </trkpt>
      <trkpt lat="50.05045" lon="2.19083">
        <ele>40.5</ele>
        <time>2023-10-04T12:56:32Z</time>
      </trkpt>
      <trkpt lat="50.05045" lon="2.19083">
        <ele>40.5</ele>
        <time>2023-10-04T12:56:33Z</time>
      </trkpt>
      <trkpt lat="50.05045" lon="2.19083">
        <ele>40.5</ele>
        <time>2023-10-04T12:56:34Z</time>
      </trkpt>
      <trkpt lat="50.05045" lon="2.19083">
        <ele>40.5</ele>
        <time>2023-10-04T12:56:35Z</time>
      </trkpt>
      <trkpt lat="50.05045" lon="2.19084">
        <ele>40.5</ele>
        <time>2023-10-04T12:56:36Z</time>
      </trkpt>
      <trkpt lat="50.05045" lon="2.19084">
        <ele>40.5</ele>
        <time>2023-10-04T12:56:37Z</time>
      </trkpt>
      <trkpt lat="50.05045" lon="2.19084">
        <ele>40.5</ele>
        <time>2023-10-04T12:56:38Z</time>
      </trkpt>
      <trkpt lat="50.05045" lon="2.19084">
        <ele>40.5</ele>
        <time>2023-10-04T12:56:39Z</time>
      </trkpt>
      <trkpt lat="50.05045" lon="2.19084">
        <ele>40.5</ele>
        <time>2023-10-04T12:56:40Z</time>
      </trkpt>
      <trkpt lat="50.05045" lon="2.19084">
        <ele>40.5</ele>
        <time>2023-10-04T12:56:41Z</time>
      </trkpt>
      <trkpt lat="50.05045" lon="2.19084">
        <ele>40.5</ele>
        <time>2023-10-04T12:56:42Z</time>
      </trkpt>
      <trkpt lat="50.05045" lon="2.19084">
        <ele>40.5</ele>
        <time>2023-10-04T12:56:43Z</time>
      </trkpt>
      <trkpt lat="50.05045" lon="2.19085">
        <ele>40.5</ele>
        <time>2023-10-04T12:56:44Z</time>
      </trkpt>
      <trkpt lat="50.05045" lon="2.19085">
        <ele>40.5</ele>
        <time>2023-10-04T12:56:45Z</time>
      </trkpt>
      <trkpt lat="50.05045" lon="2.19085">
        <ele>40.5</ele>
        <time>2023-10-04T12:56:46Z</time>
      </trkpt>
      <trkpt lat="50.05045" lon="2.19085">
        <ele>40.5</ele>
        <time>2023-10-04T12:56:47Z</time>
      </trkpt>
      <trkpt lat="50.05045" lon="2.19085">
        <ele>40.5</ele>
        <time>2023-10-04T12:56:48Z</time>
      </trkpt>
      <trkpt lat="50.05045" lon="2.19085">
        <ele>40.5</ele>
        <time>2023-10-04T12:56:49Z</time>
      </trkpt>
      <trkpt lat="50.05045" lon="2.19085">
        <ele>40.5</ele>
        <time>2023-10-04T12:56:50Z</time>
      </trkpt>
      <trkpt lat="50.05045" lon="2.19085">
        <ele>40.5</ele>
        <time>2023-10-04T12:56:51Z</time>
      </trkpt>
      <trkpt lat="50.05045" lon="2.19086">
        <ele>40.5</ele>
        <time>2023-10-04T12:56:52Z</time>
      </trkpt>
      <trkpt lat="50.05045" lon="2.19086">
        <ele>40.5</ele>
        <time>2023-10-04T12:56:53Z</time>
      </trkpt>
      <trkpt lat="50.05045" lon="2.19086">
        <ele>40.5</ele>
        <time>2023-10-04T12:56:54Z</time>
      </trkpt>
      <trkpt lat="50.05045" lon="2.19086">
        <ele>40.5</ele>
        <time>2023-10-04T12:56:55Z</time>
      </trkpt>
      <trkpt lat="50.05045" lon="2.19086">
        <ele>40.5</ele>
        <time>2023-10-04T12:56:56Z</time>
      </trkpt>
      <trkpt lat="50.05045" lon="2.19086">
        <ele>40.5</ele>
        <time>2023-10-04T12:56:57Z</time>
      </trkpt>
      <trkpt lat="50.05045" lon="2.19086">
        <ele>40.5</ele>
        <time>2023-10-04T12:56:58Z</time>
      </trkpt>
      <trkpt lat="50.05045" lon="2.19086">
        <ele>40.5</ele>
        <time>2023-10-04T12:56:59Z</time>
      </trkpt>
      <trkpt lat="50.05045" lon="2.19087">
        <ele>40.5</ele>
        <time>2023-10-04T12:57:00Z</time>
      </trkpt>
      <trkpt lat="50.05045" lon="2.19087">
        <ele>40.5</ele>
        <time>2023-10-04T12:57:01Z</time>
      </trkpt>
      <trkpt lat="50.05045" lon="2.19087">
        <ele>40.5</ele>
        <time>2023-10-04T12:57:02Z</time>
      </trkpt>
      <trkpt lat="50.05045" lon="2.19087">
        <ele>40.5</ele>
        <time>2023-10-04T12:57:03Z</time>
      </trkpt>
      <trkpt lat="50.05045" lon="2.19087">
        <ele>40.5</ele>
        <time>2023-10-04T12:57:04Z</time>
      </trkpt>
      <trkpt lat="50.05045" lon="2.19087">
        <ele>40.5</ele>
        <time>2023-10-04T12:57:05Z</time>
      </trkpt>
      <trkpt lat="50.05045" lon="2.19087">
        <ele>40.5</ele>
        <time>2023-10-04T12:57:06Z</time>
      </trkpt>
      <trkpt lat="50.05045" lon="2.19087">
        <ele>40.5</ele>
        <time>2023-10-04T12:57:07Z</time>
      </trkpt>
      <trkpt lat="50.05045" lon="2.19088">
        <ele>40.5</ele>
        <time>2023-10-04T12:57:08Z</time>
      </trkpt>
      <trkpt lat="50.05045" lon="2.19088">
        <ele>40.5</ele>
        <time>2023-10-04T12:57:09Z</time>
      </trkpt>
      <trkpt lat="50.05045" lon="2.19088">
        <ele>40.5</ele>
        <time>2023-10-04T12:57:10Z</time>
      </trkpt>
      <trkpt lat="50.05045" lon="2.19088">
        <ele>40.5</ele>
        <time>2023-10-04T12:57:11Z</time>
      </trkpt>
      <trkpt lat="50.05045" lon="2.19088">
        <ele>40.5</ele>
        <time>2023-10-04T12:57:12Z</time>
      </trkpt>
      <trkpt lat="50.05045" lon="2.19088">
        <ele>40.5</ele>
        <time>2023-10-04T12:57:13Z</time>
      </trkpt>
      <trkpt lat="50.05045" lon="2.19088">
        <ele>40.5</ele>
        <time>2023-10-04T12:57:14Z</time>
      </trkpt>
      <trkpt lat="50.05045" lon="2.19088">
        <ele>40.5</ele>
        <time>2023-10-04T12:57:15Z</time>
      </trkpt>
      <trkpt lat="50.05045" lon="2.19088">
        <ele>40.5</ele>
        <time>2023-10-04T12:57:16Z</time>
      </trkpt>
      <trkpt lat="50.05045" lon="2.19089">
        <ele>40.5</ele>
        <time>2023-10-04T12:57:17Z</time>
      </trkpt>
      <trkpt lat="50.05045" lon="2.19091">
        <ele>40.5</ele>
        <time>2023-10-04T12:57:18Z</time>
      </trkpt>
      <trkpt lat="50.05045" lon="2.19093">
        <ele>40.4</ele>
        <time>2023-10-04T12:57:19Z</time>
      </trkpt>
      <trkpt lat="50.05045" lon="2.19095">
        <ele>40.4</ele>
        <time>2023-10-04T12:57:20Z</time>
      </trkpt>
      <trkpt lat="50.05045" lon="2.19098">
        <ele>40.4</ele>
        <time>2023-10-04T12:57:21Z</time>
      </trkpt>
      <trkpt lat="50.05045" lon="2.191">
        <ele>40.4</ele>
        <time>2023-10-04T12:57:22Z</time>
      </trkpt>
      <trkpt lat="50.05045" lon="2.19101">
        <ele>40.4</ele>
        <time>2023-10-04T12:57:23Z</time>
      </trkpt>
      <trkpt lat="50.05045" lon="2.19103">
        <ele>40.4</ele>
        <time>2023-10-04T12:57:24Z</time>
      </trkpt>
      <trkpt lat="50.05045" lon="2.19105">
        <ele>40.4</ele>
        <time>2023-10-04T12:57:25Z</time>
      </trkpt>
      <trkpt lat="50.05044" lon="2.19106">
        <ele>40.4</ele>
        <time>2023-10-04T12:57:26Z</time>
      </trkpt>
      <trkpt lat="50.05044" lon="2.19108">
        <ele>40.4</ele>
        <time>2023-10-04T12:57:27Z</time>
      </trkpt>
      <trkpt lat="50.05044" lon="2.19111">
        <ele>40.4</ele>
        <time>2023-10-04T12:57:28Z</time>
      </trkpt>
      <trkpt lat="50.05044" lon="2.19113">
        <ele>40.4</ele>
        <time>2023-10-04T12:57:29Z</time>
      </trkpt>
      <trkpt lat="50.05044" lon="2.19114">
        <ele>40.4</ele>
        <time>2023-10-04T12:57:30Z</time>
      </trkpt>
      <trkpt lat="50.05044" lon="2.19116">
        <ele>40.4</ele>
        <time>2023-10-04T12:57:31Z</time>
      </trkpt>
      <trkpt lat="50.05044" lon="2.19117">
        <ele>40.4</ele>
        <time>2023-10-04T12:57:32Z</time>
      </trkpt>
      <trkpt lat="50.05044" lon="2.19119">
        <ele>40.4</ele>
        <time>2023-10-04T12:57:33Z</time>
      </trkpt>
      <trkpt lat="50.05044" lon="2.1912">
        <ele>40.4</ele>
        <time>2023-10-04T12:57:34Z</time>
      </trkpt>
      <trkpt lat="50.05044" lon="2.19122">
        <ele>40.5</ele>
        <time>2023-10-04T12:57:35Z</time>
      </trkpt>
      <trkpt lat="50.05044" lon="2.19123">
        <ele>40.5</ele>
        <time>2023-10-04T12:57:36Z</time>
      </trkpt>
      <trkpt lat="50.05044" lon="2.19125">
        <ele>40.5</ele>
        <time>2023-10-04T12:57:37Z</time>
      </trkpt>
      <trkpt lat="50.05044" lon="2.19126">
        <ele>40.5</ele>
        <time>2023-10-04T12:57:38Z</time>
      </trkpt>
      <trkpt lat="50.05044" lon="2.19127">
        <ele>40.5</ele>
        <time>2023-10-04T12:57:39Z</time>
      </trkpt>
      <trkpt lat="50.05045" lon="2.19128">
        <ele>40.5</ele>
        <time>2023-10-04T12:57:40Z</time>
      </trkpt>
      <trkpt lat="50.05045" lon="2.1913">
        <ele>40.5</ele>
        <time>2023-10-04T12:57:41Z</time>
      </trkpt>
      <trkpt lat="50.05045" lon="2.19131">
        <ele>40.5</ele>
        <time>2023-10-04T12:57:42Z</time>
      </trkpt>
      <trkpt lat="50.05046" lon="2.19133">
        <ele>40.5</ele>
        <time>2023-10-04T12:57:43Z</time>
      </trkpt>
      <trkpt lat="50.05046" lon="2.19134">
        <ele>40.5</ele>
        <time>2023-10-04T12:57:44Z</time>
      </trkpt>
      <trkpt lat="50.05046" lon="2.19136">
        <ele>40.5</ele>
        <time>2023-10-04T12:57:45Z</time>
      </trkpt>
      <trkpt lat="50.05047" lon="2.19138">
        <ele>40.5</ele>
        <time>2023-10-04T12:57:46Z</time>
      </trkpt>
      <trkpt lat="50.05047" lon="2.19139">
        <ele>40.5</ele>
        <time>2023-10-04T12:57:47Z</time>
      </trkpt>
      <trkpt lat="50.05047" lon="2.1914">
        <ele>40.5</ele>
        <time>2023-10-04T12:57:48Z</time>
      </trkpt>
      <trkpt lat="50.05047" lon="2.19142">
        <ele>40.5</ele>
        <time>2023-10-04T12:57:49Z</time>
      </trkpt>
      <trkpt lat="50.05048" lon="2.19143">
        <ele>40.5</ele>
        <time>2023-10-04T12:57:50Z</time>
      </trkpt>
      <trkpt lat="50.05048" lon="2.19145">
        <ele>40.5</ele>
        <time>2023-10-04T12:57:51Z</time>
      </trkpt>
      <trkpt lat="50.05048" lon="2.19146">
        <ele>40.5</ele>
        <time>2023-10-04T12:57:52Z</time>
      </trkpt>
      <trkpt lat="50.05048" lon="2.19148">
        <ele>40.5</ele>
        <time>2023-10-04T12:57:53Z</time>
      </trkpt>
      <trkpt lat="50.05049" lon="2.19149">
        <ele>40.5</ele>
        <time>2023-10-04T12:57:54Z</time>
      </trkpt>
      <trkpt lat="50.05049" lon="2.19151">
        <ele>40.5</ele>
        <time>2023-10-04T12:57:55Z</time>
      </trkpt>
      <trkpt lat="50.05049" lon="2.19153">
        <ele>40.5</ele>
        <time>2023-10-04T12:57:56Z</time>
      </trkpt>
      <trkpt lat="50.05049" lon="2.19155">
        <ele>40.5</ele>
        <time>2023-10-04T12:57:57Z</time>
      </trkpt>
      <trkpt lat="50.05049" lon="2.19156">
        <ele>40.5</ele>
        <time>2023-10-04T12:57:58Z</time>
      </trkpt>
      <trkpt lat="50.05049" lon="2.19158">
        <ele>40.5</ele>
        <time>2023-10-04T12:57:59Z</time>
      </trkpt>
      <trkpt lat="50.05049" lon="2.19159">
        <ele>40.5</ele>
        <time>2023-10-04T12:58:00Z</time>
      </trkpt>
      <trkpt lat="50.05049" lon="2.19161">
        <ele>40.5</ele>
        <time>2023-10-04T12:58:01Z</time>
      </trkpt>
      <trkpt lat="50.0505" lon="2.19163">
        <ele>40.5</ele>
        <time>2023-10-04T12:58:02Z</time>
      </trkpt>
      <trkpt lat="50.0505" lon="2.19164">
        <ele>40.5</ele>
        <time>2023-10-04T12:58:03Z</time>
      </trkpt>
      <trkpt lat="50.0505" lon="2.19166">
        <ele>40.5</ele>
        <time>2023-10-04T12:58:04Z</time>
      </trkpt>
      <trkpt lat="50.0505" lon="2.19167">
        <ele>40.5</ele>
        <time>2023-10-04T12:58:05Z</time>
      </trkpt>
      <trkpt lat="50.0505" lon="2.19169">
        <ele>40.5</ele>
        <time>2023-10-04T12:58:06Z</time>
      </trkpt>
      <trkpt lat="50.0505" lon="2.1917">
        <ele>40.5</ele>
        <time>2023-10-04T12:58:07Z</time>
      </trkpt>
      <trkpt lat="50.0505" lon="2.19172">
        <ele>40.5</ele>
        <time>2023-10-04T12:58:08Z</time>
      </trkpt>
      <trkpt lat="50.0505" lon="2.19174">
        <ele>40.5</ele>
        <time>2023-10-04T12:58:09Z</time>
      </trkpt>
      <trkpt lat="50.0505" lon="2.19175">
        <ele>40.5</ele>
        <time>2023-10-04T12:58:10Z</time>
      </trkpt>
      <trkpt lat="50.05051" lon="2.19179">
        <ele>40.5</ele>
        <time>2023-10-04T12:58:11Z</time>
      </trkpt>
      <trkpt lat="50.05051" lon="2.1918">
        <ele>40.5</ele>
        <time>2023-10-04T12:58:12Z</time>
      </trkpt>
      <trkpt lat="50.05051" lon="2.19181">
        <ele>40.5</ele>
        <time>2023-10-04T12:58:13Z</time>
      </trkpt>
      <trkpt lat="50.05051" lon="2.19183">
        <ele>40.5</ele>
        <time>2023-10-04T12:58:14Z</time>
      </trkpt>
      <trkpt lat="50.05051" lon="2.19186">
        <ele>40.6</ele>
        <time>2023-10-04T12:58:15Z</time>
      </trkpt>
      <trkpt lat="50.05052" lon="2.19188">
        <ele>40.6</ele>
        <time>2023-10-04T12:58:16Z</time>
      </trkpt>
      <trkpt lat="50.05052" lon="2.1919">
        <ele>40.6</ele>
        <time>2023-10-04T12:58:17Z</time>
      </trkpt>
      <trkpt lat="50.05052" lon="2.19192">
        <ele>40.6</ele>
        <time>2023-10-04T12:58:18Z</time>
      </trkpt>
      <trkpt lat="50.05052" lon="2.19194">
        <ele>40.6</ele>
        <time>2023-10-04T12:58:19Z</time>
      </trkpt>
      <trkpt lat="50.05053" lon="2.19197">
        <ele>40.6</ele>
        <time>2023-10-04T12:58:20Z</time>
      </trkpt>
      <trkpt lat="50.05053" lon="2.19199">
        <ele>40.6</ele>
        <time>2023-10-04T12:58:21Z</time>
      </trkpt>
      <trkpt lat="50.05053" lon="2.192">
        <ele>40.6</ele>
        <time>2023-10-04T12:58:22Z</time>
      </trkpt>
      <trkpt lat="50.05054" lon="2.19202">
        <ele>40.6</ele>
        <time>2023-10-04T12:58:23Z</time>
      </trkpt>
      <trkpt lat="50.05054" lon="2.19204">
        <ele>40.6</ele>
        <time>2023-10-04T12:58:24Z</time>
      </trkpt>
      <trkpt lat="50.05055" lon="2.19205">
        <ele>40.6</ele>
        <time>2023-10-04T12:58:25Z</time>
      </trkpt>
      <trkpt lat="50.05055" lon="2.19207">
        <ele>40.6</ele>
        <time>2023-10-04T12:58:26Z</time>
      </trkpt>
      <trkpt lat="50.05056" lon="2.19208">
        <ele>40.6</ele>
        <time>2023-10-04T12:58:27Z</time>
      </trkpt>
      <trkpt lat="50.05056" lon="2.1921">
        <ele>40.6</ele>
        <time>2023-10-04T12:58:28Z</time>
      </trkpt>
      <trkpt lat="50.05057" lon="2.19211">
        <ele>40.6</ele>
        <time>2023-10-04T12:58:29Z</time>
      </trkpt>
      <trkpt lat="50.05057" lon="2.19213">
        <ele>40.6</ele>
        <time>2023-10-04T12:58:30Z</time>
      </trkpt>
      <trkpt lat="50.05058" lon="2.19214">
        <ele>40.6</ele>
        <time>2023-10-04T12:58:31Z</time>
      </trkpt>
      <trkpt lat="50.05058" lon="2.19215">
        <ele>40.6</ele>
        <time>2023-10-04T12:58:32Z</time>
      </trkpt>
      <trkpt lat="50.05058" lon="2.19215">
        <ele>40.6</ele>
        <time>2023-10-04T12:58:33Z</time>
      </trkpt>
      <trkpt lat="50.05058" lon="2.19216">
        <ele>40.6</ele>
        <time>2023-10-04T12:58:34Z</time>
      </trkpt>
      <trkpt lat="50.05059" lon="2.19216">
        <ele>40.6</ele>
        <time>2023-10-04T12:58:35Z</time>
      </trkpt>
      <trkpt lat="50.05059" lon="2.19217">
        <ele>40.6</ele>
        <time>2023-10-04T12:58:36Z</time>
      </trkpt>
      <trkpt lat="50.05059" lon="2.19218">
        <ele>40.6</ele>
        <time>2023-10-04T12:58:37Z</time>
      </trkpt>
      <trkpt lat="50.0506" lon="2.19219">
        <ele>40.6</ele>
        <time>2023-10-04T12:58:38Z</time>
      </trkpt>
      <trkpt lat="50.0506" lon="2.19221">
        <ele>40.6</ele>
        <time>2023-10-04T12:58:39Z</time>
      </trkpt>
      <trkpt lat="50.05061" lon="2.19222">
        <ele>40.6</ele>
        <time>2023-10-04T12:58:40Z</time>
      </trkpt>
      <trkpt lat="50.05061" lon="2.19224">
        <ele>40.6</ele>
        <time>2023-10-04T12:58:41Z</time>
      </trkpt>
      <trkpt lat="50.05061" lon="2.19226">
        <ele>40.6</ele>
        <time>2023-10-04T12:58:42Z</time>
      </trkpt>
      <trkpt lat="50.05061" lon="2.19227">
        <ele>40.6</ele>
        <time>2023-10-04T12:58:43Z</time>
      </trkpt>
      <trkpt lat="50.05062" lon="2.19229">
        <ele>40.6</ele>
        <time>2023-10-04T12:58:44Z</time>
      </trkpt>
      <trkpt lat="50.05062" lon="2.1923">
        <ele>40.6</ele>
        <time>2023-10-04T12:58:45Z</time>
      </trkpt>
      <trkpt lat="50.05062" lon="2.19232">
        <ele>40.6</ele>
        <time>2023-10-04T12:58:46Z</time>
      </trkpt>
      <trkpt lat="50.05062" lon="2.19235">
        <ele>40.6</ele>
        <time>2023-10-04T12:58:47Z</time>
      </trkpt>
      <trkpt lat="50.05062" lon="2.19237">
        <ele>40.6</ele>
        <time>2023-10-04T12:58:48Z</time>
      </trkpt>
      <trkpt lat="50.05062" lon="2.19238">
        <ele>40.6</ele>
        <time>2023-10-04T12:58:49Z</time>
      </trkpt>
      <trkpt lat="50.05062" lon="2.19241">
        <ele>40.6</ele>
        <time>2023-10-04T12:58:50Z</time>
      </trkpt>
      <trkpt lat="50.05062" lon="2.19243">
        <ele>40.6</ele>
        <time>2023-10-04T12:58:51Z</time>
      </trkpt>
      <trkpt lat="50.05062" lon="2.19246">
        <ele>40.6</ele>
        <time>2023-10-04T12:58:52Z</time>
      </trkpt>
      <trkpt lat="50.05062" lon="2.19248">
        <ele>40.6</ele>
        <time>2023-10-04T12:58:53Z</time>
      </trkpt>
      <trkpt lat="50.05063" lon="2.19251">
        <ele>40.6</ele>
        <time>2023-10-04T12:58:54Z</time>
      </trkpt>
      <trkpt lat="50.05063" lon="2.19253">
        <ele>40.6</ele>
        <time>2023-10-04T12:58:55Z</time>
      </trkpt>
      <trkpt lat="50.05063" lon="2.19254">
        <ele>40.6</ele>
        <time>2023-10-04T12:58:56Z</time>
      </trkpt>
      <trkpt lat="50.05063" lon="2.19255">
        <ele>40.6</ele>
        <time>2023-10-04T12:58:57Z</time>
      </trkpt>
      <trkpt lat="50.05063" lon="2.19257">
        <ele>40.6</ele>
        <time>2023-10-04T12:58:58Z</time>
      </trkpt>
      <trkpt lat="50.05063" lon="2.19259">
        <ele>40.6</ele>
        <time>2023-10-04T12:58:59Z</time>
      </trkpt>
      <trkpt lat="50.05064" lon="2.19261">
        <ele>40.6</ele>
        <time>2023-10-04T12:59:00Z</time>
      </trkpt>
      <trkpt lat="50.05064" lon="2.19264">
        <ele>40.6</ele>
        <time>2023-10-04T12:59:01Z</time>
      </trkpt>
      <trkpt lat="50.05064" lon="2.19266">
        <ele>40.6</ele>
        <time>2023-10-04T12:59:02Z</time>
      </trkpt>
      <trkpt lat="50.05064" lon="2.19268">
        <ele>40.6</ele>
        <time>2023-10-04T12:59:03Z</time>
      </trkpt>
      <trkpt lat="50.05064" lon="2.19271">
        <ele>40.6</ele>
        <time>2023-10-04T12:59:04Z</time>
      </trkpt>
      <trkpt lat="50.05065" lon="2.19273">
        <ele>40.6</ele>
        <time>2023-10-04T12:59:05Z</time>
      </trkpt>
      <trkpt lat="50.05065" lon="2.19276">
        <ele>40.6</ele>
        <time>2023-10-04T12:59:06Z</time>
      </trkpt>
      <trkpt lat="50.05065" lon="2.19277">
        <ele>40.6</ele>
        <time>2023-10-04T12:59:07Z</time>
      </trkpt>
      <trkpt lat="50.05065" lon="2.19279">
        <ele>40.6</ele>
        <time>2023-10-04T12:59:08Z</time>
      </trkpt>
      <trkpt lat="50.05066" lon="2.19282">
        <ele>40.6</ele>
        <time>2023-10-04T12:59:09Z</time>
      </trkpt>
      <trkpt lat="50.05066" lon="2.19283">
        <ele>40.6</ele>
        <time>2023-10-04T12:59:10Z</time>
      </trkpt>
      <trkpt lat="50.05066" lon="2.19284">
        <ele>40.6</ele>
        <time>2023-10-04T12:59:11Z</time>
      </trkpt>
      <trkpt lat="50.05067" lon="2.19287">
        <ele>40.6</ele>
        <time>2023-10-04T12:59:12Z</time>
      </trkpt>
      <trkpt lat="50.05067" lon="2.19288">
        <ele>40.6</ele>
        <time>2023-10-04T12:59:13Z</time>
      </trkpt>
      <trkpt lat="50.05067" lon="2.1929">
        <ele>40.6</ele>
        <time>2023-10-04T12:59:14Z</time>
      </trkpt>
      <trkpt lat="50.05067" lon="2.19291">
        <ele>40.6</ele>
        <time>2023-10-04T12:59:15Z</time>
      </trkpt>
      <trkpt lat="50.05067" lon="2.19293">
        <ele>40.6</ele>
        <time>2023-10-04T12:59:16Z</time>
      </trkpt>
      <trkpt lat="50.05068" lon="2.19294">
        <ele>40.6</ele>
        <time>2023-10-04T12:59:17Z</time>
      </trkpt>
      <trkpt lat="50.05068" lon="2.19297">
        <ele>40.6</ele>
        <time>2023-10-04T12:59:18Z</time>
      </trkpt>
      <trkpt lat="50.05068" lon="2.19299">
        <ele>40.6</ele>
        <time>2023-10-04T12:59:19Z</time>
      </trkpt>
      <trkpt lat="50.05068" lon="2.193">
        <ele>40.6</ele>
        <time>2023-10-04T12:59:20Z</time>
      </trkpt>
      <trkpt lat="50.05069" lon="2.19302">
        <ele>40.6</ele>
        <time>2023-10-04T12:59:21Z</time>
      </trkpt>
      <trkpt lat="50.05069" lon="2.19304">
        <ele>40.6</ele>
        <time>2023-10-04T12:59:22Z</time>
      </trkpt>
      <trkpt lat="50.05069" lon="2.19306">
        <ele>40.6</ele>
        <time>2023-10-04T12:59:23Z</time>
      </trkpt>
      <trkpt lat="50.0507" lon="2.19308">
        <ele>40.6</ele>
        <time>2023-10-04T12:59:24Z</time>
      </trkpt>
      <trkpt lat="50.0507" lon="2.1931">
        <ele>40.6</ele>
        <time>2023-10-04T12:59:25Z</time>
      </trkpt>
      <trkpt lat="50.0507" lon="2.19311">
        <ele>40.6</ele>
        <time>2023-10-04T12:59:26Z</time>
      </trkpt>
      <trkpt lat="50.0507" lon="2.19312">
        <ele>40.6</ele>
        <time>2023-10-04T12:59:27Z</time>
      </trkpt>
      <trkpt lat="50.0507" lon="2.19313">
        <ele>40.6</ele>
        <time>2023-10-04T12:59:28Z</time>
      </trkpt>
      <trkpt lat="50.0507" lon="2.19313">
        <ele>40.6</ele>
        <time>2023-10-04T12:59:29Z</time>
      </trkpt>
      <trkpt lat="50.0507" lon="2.19314">
        <ele>40.6</ele>
        <time>2023-10-04T12:59:30Z</time>
      </trkpt>
      <trkpt lat="50.05071" lon="2.19315">
        <ele>40.6</ele>
        <time>2023-10-04T12:59:31Z</time>
      </trkpt>
      <trkpt lat="50.05071" lon="2.19316">
        <ele>40.6</ele>
        <time>2023-10-04T12:59:32Z</time>
      </trkpt>
      <trkpt lat="50.05071" lon="2.19318">
        <ele>40.6</ele>
        <time>2023-10-04T12:59:33Z</time>
      </trkpt>
      <trkpt lat="50.05071" lon="2.1932">
        <ele>40.6</ele>
        <time>2023-10-04T12:59:34Z</time>
      </trkpt>
      <trkpt lat="50.05071" lon="2.19323">
        <ele>40.6</ele>
        <time>2023-10-04T12:59:35Z</time>
      </trkpt>
      <trkpt lat="50.05071" lon="2.19324">
        <ele>40.6</ele>
        <time>2023-10-04T12:59:36Z</time>
      </trkpt>
      <trkpt lat="50.05071" lon="2.19325">
        <ele>40.6</ele>
        <time>2023-10-04T12:59:37Z</time>
      </trkpt>
      <trkpt lat="50.05071" lon="2.19327">
        <ele>40.6</ele>
        <time>2023-10-04T12:59:38Z</time>
      </trkpt>
      <trkpt lat="50.05072" lon="2.19329">
        <ele>40.6</ele>
        <time>2023-10-04T12:59:39Z</time>
      </trkpt>
      <trkpt lat="50.05072" lon="2.1933">
        <ele>40.6</ele>
        <time>2023-10-04T12:59:40Z</time>
      </trkpt>
      <trkpt lat="50.05072" lon="2.19332">
        <ele>40.6</ele>
        <time>2023-10-04T12:59:41Z</time>
      </trkpt>
      <trkpt lat="50.05073" lon="2.19333">
        <ele>40.6</ele>
        <time>2023-10-04T12:59:42Z</time>
      </trkpt>
      <trkpt lat="50.05073" lon="2.19335">
        <ele>40.6</ele>
        <time>2023-10-04T12:59:43Z</time>
      </trkpt>
      <trkpt lat="50.05074" lon="2.19337">
        <ele>40.6</ele>
        <time>2023-10-04T12:59:44Z</time>
      </trkpt>
      <trkpt lat="50.05074" lon="2.19338">
        <ele>40.6</ele>
        <time>2023-10-04T12:59:45Z</time>
      </trkpt>
      <trkpt lat="50.05075" lon="2.1934">
        <ele>40.6</ele>
        <time>2023-10-04T12:59:46Z</time>
      </trkpt>
      <trkpt lat="50.05075" lon="2.19341">
        <ele>40.6</ele>
        <time>2023-10-04T12:59:47Z</time>
      </trkpt>
      <trkpt lat="50.05075" lon="2.19343">
        <ele>40.6</ele>
        <time>2023-10-04T12:59:48Z</time>
      </trkpt>
      <trkpt lat="50.05076" lon="2.19344">
        <ele>40.6</ele>
        <time>2023-10-04T12:59:49Z</time>
      </trkpt>
      <trkpt lat="50.05076" lon="2.19346">
        <ele>40.6</ele>
        <time>2023-10-04T12:59:50Z</time>
      </trkpt>
      <trkpt lat="50.05076" lon="2.19347">
        <ele>40.6</ele>
        <time>2023-10-04T12:59:51Z</time>
      </trkpt>
      <trkpt lat="50.05076" lon="2.1935">
        <ele>40.6</ele>
        <time>2023-10-04T12:59:52Z</time>
      </trkpt>
      <trkpt lat="50.05077" lon="2.19352">
        <ele>40.6</ele>
        <time>2023-10-04T12:59:53Z</time>
      </trkpt>
      <trkpt lat="50.05077" lon="2.19354">
        <ele>40.6</ele>
        <time>2023-10-04T12:59:54Z</time>
      </trkpt>
      <trkpt lat="50.05077" lon="2.19356">
        <ele>40.6</ele>
        <time>2023-10-04T12:59:55Z</time>
      </trkpt>
      <trkpt lat="50.05078" lon="2.19358">
        <ele>40.6</ele>
        <time>2023-10-04T12:59:56Z</time>
      </trkpt>
      <trkpt lat="50.05078" lon="2.19362">
        <ele>40.6</ele>
        <time>2023-10-04T12:59:57Z</time>
      </trkpt>
      <trkpt lat="50.05078" lon="2.19363">
        <ele>40.6</ele>
        <time>2023-10-04T12:59:58Z</time>
      </trkpt>
      <trkpt lat="50.05078" lon="2.19364">
        <ele>40.6</ele>
        <time>2023-10-04T12:59:59Z</time>
      </trkpt>
      <trkpt lat="50.05079" lon="2.19366">
        <ele>40.6</ele>
        <time>2023-10-04T13:00:00Z</time>
      </trkpt>
      <trkpt lat="50.05079" lon="2.19368">
        <ele>40.7</ele>
        <time>2023-10-04T13:00:01Z</time>
      </trkpt>
      <trkpt lat="50.05079" lon="2.1937">
        <ele>40.7</ele>
        <time>2023-10-04T13:00:02Z</time>
      </trkpt>
      <trkpt lat="50.05079" lon="2.19371">
        <ele>40.7</ele>
        <time>2023-10-04T13:00:03Z</time>
      </trkpt>
      <trkpt lat="50.0508" lon="2.19373">
        <ele>40.7</ele>
        <time>2023-10-04T13:00:04Z</time>
      </trkpt>
      <trkpt lat="50.0508" lon="2.19374">
        <ele>40.7</ele>
        <time>2023-10-04T13:00:05Z</time>
      </trkpt>
      <trkpt lat="50.0508" lon="2.19376">
        <ele>40.7</ele>
        <time>2023-10-04T13:00:06Z</time>
      </trkpt>
      <trkpt lat="50.0508" lon="2.19377">
        <ele>40.7</ele>
        <time>2023-10-04T13:00:07Z</time>
      </trkpt>
      <trkpt lat="50.05081" lon="2.19379">
        <ele>40.7</ele>
        <time>2023-10-04T13:00:08Z</time>
      </trkpt>
      <trkpt lat="50.05081" lon="2.1938">
        <ele>40.7</ele>
        <time>2023-10-04T13:00:09Z</time>
      </trkpt>
      <trkpt lat="50.05081" lon="2.19382">
        <ele>40.7</ele>
        <time>2023-10-04T13:00:10Z</time>
      </trkpt>
      <trkpt lat="50.05082" lon="2.19384">
        <ele>40.8</ele>
        <time>2023-10-04T13:00:11Z</time>
      </trkpt>
      <trkpt lat="50.05082" lon="2.19385">
        <ele>40.8</ele>
        <time>2023-10-04T13:00:12Z</time>
      </trkpt>
      <trkpt lat="50.05082" lon="2.19386">
        <ele>40.8</ele>
        <time>2023-10-04T13:00:13Z</time>
      </trkpt>
      <trkpt lat="50.05083" lon="2.19388">
        <ele>40.8</ele>
        <time>2023-10-04T13:00:14Z</time>
      </trkpt>
      <trkpt lat="50.05083" lon="2.19389">
        <ele>40.8</ele>
        <time>2023-10-04T13:00:15Z</time>
      </trkpt>
      <trkpt lat="50.05084" lon="2.19391">
        <ele>40.8</ele>
        <time>2023-10-04T13:00:16Z</time>
      </trkpt>
      <trkpt lat="50.05084" lon="2.19392">
        <ele>40.8</ele>
        <time>2023-10-04T13:00:17Z</time>
      </trkpt>
      <trkpt lat="50.05084" lon="2.19394">
        <ele>40.9</ele>
        <time>2023-10-04T13:00:18Z</time>
      </trkpt>
      <trkpt lat="50.05085" lon="2.19395">
        <ele>40.9</ele>
        <time>2023-10-04T13:00:19Z</time>
      </trkpt>
      <trkpt lat="50.05085" lon="2.19396">
        <ele>40.9</ele>
        <time>2023-10-04T13:00:20Z</time>
      </trkpt>
      <trkpt lat="50.05085" lon="2.19398">
        <ele>40.9</ele>
        <time>2023-10-04T13:00:21Z</time>
      </trkpt>
      <trkpt lat="50.05086" lon="2.19399">
        <ele>40.9</ele>
        <time>2023-10-04T13:00:22Z</time>
      </trkpt>
      <trkpt lat="50.05086" lon="2.194">
        <ele>40.9</ele>
        <time>2023-10-04T13:00:23Z</time>
      </trkpt>
      <trkpt lat="50.05087" lon="2.19402">
        <ele>40.9</ele>
        <time>2023-10-04T13:00:24Z</time>
      </trkpt>
      <trkpt lat="50.05087" lon="2.19403">
        <ele>41</ele>
        <time>2023-10-04T13:00:25Z</time>
      </trkpt>
      <trkpt lat="50.05088" lon="2.19404">
        <ele>41</ele>
        <time>2023-10-04T13:00:26Z</time>
      </trkpt>
      <trkpt lat="50.05089" lon="2.19405">
        <ele>41</ele>
        <time>2023-10-04T13:00:27Z</time>
      </trkpt>
      <trkpt lat="50.05089" lon="2.19406">
        <ele>41</ele>
        <time>2023-10-04T13:00:28Z</time>
      </trkpt>
      <trkpt lat="50.0509" lon="2.19408">
        <ele>41</ele>
        <time>2023-10-04T13:00:29Z</time>
      </trkpt>
      <trkpt lat="50.0509" lon="2.19409">
        <ele>41.1</ele>
        <time>2023-10-04T13:00:30Z</time>
      </trkpt>
      <trkpt lat="50.05091" lon="2.1941">
        <ele>41.1</ele>
        <time>2023-10-04T13:00:31Z</time>
      </trkpt>
      <trkpt lat="50.05092" lon="2.19411">
        <ele>41.1</ele>
        <time>2023-10-04T13:00:32Z</time>
      </trkpt>
      <trkpt lat="50.05092" lon="2.19412">
        <ele>41.1</ele>
        <time>2023-10-04T13:00:33Z</time>
      </trkpt>
      <trkpt lat="50.05093" lon="2.19414">
        <ele>41.1</ele>
        <time>2023-10-04T13:00:34Z</time>
      </trkpt>
      <trkpt lat="50.05094" lon="2.19414">
        <ele>41.2</ele>
        <time>2023-10-04T13:00:35Z</time>
      </trkpt>
      <trkpt lat="50.05095" lon="2.19414">
        <ele>41.2</ele>
        <time>2023-10-04T13:00:36Z</time>
      </trkpt>
      <trkpt lat="50.05095" lon="2.19414">
        <ele>41.2</ele>
        <time>2023-10-04T13:00:37Z</time>
      </trkpt>
      <trkpt lat="50.05096" lon="2.19413">
        <ele>41.2</ele>
        <time>2023-10-04T13:00:38Z</time>
      </trkpt>
      <trkpt lat="50.05097" lon="2.19413">
        <ele>41.2</ele>
        <time>2023-10-04T13:00:39Z</time>
      </trkpt>
      <trkpt lat="50.05097" lon="2.19412">
        <ele>41.2</ele>
        <time>2023-10-04T13:00:40Z</time>
      </trkpt>
      <trkpt lat="50.05098" lon="2.19411">
        <ele>41.3</ele>
        <time>2023-10-04T13:00:41Z</time>
      </trkpt>
      <trkpt lat="50.05099" lon="2.1941">
        <ele>41.3</ele>
        <time>2023-10-04T13:00:42Z</time>
      </trkpt>
      <trkpt lat="50.05099" lon="2.19409">
        <ele>41.3</ele>
        <time>2023-10-04T13:00:43Z</time>
      </trkpt>
      <trkpt lat="50.051" lon="2.19408">
        <ele>41.3</ele>
        <time>2023-10-04T13:00:44Z</time>
      </trkpt>
      <trkpt lat="50.051" lon="2.19408">
        <ele>41.3</ele>
        <time>2023-10-04T13:00:45Z</time>
      </trkpt>
      <trkpt lat="50.051" lon="2.19408">
        <ele>41.3</ele>
        <time>2023-10-04T13:00:46Z</time>
      </trkpt>
      <trkpt lat="50.051" lon="2.19408">
        <ele>41.3</ele>
        <time>2023-10-04T13:00:47Z</time>
      </trkpt>
      <trkpt lat="50.051" lon="2.19409">
        <ele>41.3</ele>
        <time>2023-10-04T13:00:48Z</time>
      </trkpt>
      <trkpt lat="50.05099" lon="2.19409">
        <ele>41.3</ele>
        <time>2023-10-04T13:00:49Z</time>
      </trkpt>
      <trkpt lat="50.05099" lon="2.1941">
        <ele>41.3</ele>
        <time>2023-10-04T13:00:50Z</time>
      </trkpt>
      <trkpt lat="50.05099" lon="2.19411">
        <ele>41.3</ele>
        <time>2023-10-04T13:00:52Z</time>
      </trkpt>
      <trkpt lat="50.05098" lon="2.19412">
        <ele>41.3</ele>
        <time>2023-10-04T13:00:53Z</time>
      </trkpt>
      <trkpt lat="50.05098" lon="2.19413">
        <ele>41.3</ele>
        <time>2023-10-04T13:00:54Z</time>
      </trkpt>
      <trkpt lat="50.05097" lon="2.19413">
        <ele>41.3</ele>
        <time>2023-10-04T13:00:55Z</time>
      </trkpt>
      <trkpt lat="50.05097" lon="2.19413">
        <ele>41.3</ele>
        <time>2023-10-04T13:00:57Z</time>
      </trkpt>
      <trkpt lat="50.05097" lon="2.19413">
        <ele>41.3</ele>
        <time>2023-10-04T13:00:58Z</time>
      </trkpt>
      <trkpt lat="50.05097" lon="2.19413">
        <ele>41.3</ele>
        <time>2023-10-04T13:01:00Z</time>
      </trkpt>
      <trkpt lat="50.05097" lon="2.19413">
        <ele>41.3</ele>
        <time>2023-10-04T13:01:01Z</time>
      </trkpt>
      <trkpt lat="50.05096" lon="2.19414">
        <ele>41.3</ele>
        <time>2023-10-04T13:01:02Z</time>
      </trkpt>
      <trkpt lat="50.05095" lon="2.19415">
        <ele>41.3</ele>
        <time>2023-10-04T13:01:03Z</time>
      </trkpt>
      <trkpt lat="50.05095" lon="2.19416">
        <ele>41.3</ele>
        <time>2023-10-04T13:01:04Z</time>
      </trkpt>
      <trkpt lat="50.05094" lon="2.19416">
        <ele>41.3</ele>
        <time>2023-10-04T13:01:05Z</time>
      </trkpt>
      <trkpt lat="50.05093" lon="2.19417">
        <ele>41.3</ele>
        <time>2023-10-04T13:01:06Z</time>
      </trkpt>
      <trkpt lat="50.05093" lon="2.19419">
        <ele>41.3</ele>
        <time>2023-10-04T13:01:07Z</time>
      </trkpt>
      <trkpt lat="50.05093" lon="2.1942">
        <ele>41.3</ele>
        <time>2023-10-04T13:01:08Z</time>
      </trkpt>
      <trkpt lat="50.05093" lon="2.19421">
        <ele>41.3</ele>
        <time>2023-10-04T13:01:09Z</time>
      </trkpt>
      <trkpt lat="50.05093" lon="2.19422">
        <ele>41.3</ele>
        <time>2023-10-04T13:01:10Z</time>
      </trkpt>
      <trkpt lat="50.05093" lon="2.19422">
        <ele>41.3</ele>
        <time>2023-10-04T13:01:11Z</time>
      </trkpt>
      <trkpt lat="50.05093" lon="2.19423">
        <ele>41.3</ele>
        <time>2023-10-04T13:01:12Z</time>
      </trkpt>
      <trkpt lat="50.05094" lon="2.19424">
        <ele>41.3</ele>
        <time>2023-10-04T13:01:13Z</time>
      </trkpt>
      <trkpt lat="50.05094" lon="2.19425">
        <ele>41.3</ele>
        <time>2023-10-04T13:01:14Z</time>
      </trkpt>
      <trkpt lat="50.05095" lon="2.19426">
        <ele>41.3</ele>
        <time>2023-10-04T13:01:15Z</time>
      </trkpt>
      <trkpt lat="50.05095" lon="2.19428">
        <ele>41.3</ele>
        <time>2023-10-04T13:01:16Z</time>
      </trkpt>
      <trkpt lat="50.05096" lon="2.19429">
        <ele>41.3</ele>
        <time>2023-10-04T13:01:17Z</time>
      </trkpt>
      <trkpt lat="50.05096" lon="2.1943">
        <ele>41.3</ele>
        <time>2023-10-04T13:01:18Z</time>
      </trkpt>
      <trkpt lat="50.05096" lon="2.19431">
        <ele>41.2</ele>
        <time>2023-10-04T13:01:19Z</time>
      </trkpt>
      <trkpt lat="50.05097" lon="2.19432">
        <ele>41.2</ele>
        <time>2023-10-04T13:01:20Z</time>
      </trkpt>
      <trkpt lat="50.05097" lon="2.19434">
        <ele>41.2</ele>
        <time>2023-10-04T13:01:21Z</time>
      </trkpt>
      <trkpt lat="50.05098" lon="2.19435">
        <ele>41.2</ele>
        <time>2023-10-04T13:01:22Z</time>
      </trkpt>
      <trkpt lat="50.05098" lon="2.19437">
        <ele>41.2</ele>
        <time>2023-10-04T13:01:23Z</time>
      </trkpt>
      <trkpt lat="50.05098" lon="2.19438">
        <ele>41.2</ele>
        <time>2023-10-04T13:01:24Z</time>
      </trkpt>
      <trkpt lat="50.05098" lon="2.1944">
        <ele>41.2</ele>
        <time>2023-10-04T13:01:25Z</time>
      </trkpt>
      <trkpt lat="50.05099" lon="2.19441">
        <ele>41.2</ele>
        <time>2023-10-04T13:01:26Z</time>
      </trkpt>
      <trkpt lat="50.05099" lon="2.19443">
        <ele>41.2</ele>
        <time>2023-10-04T13:01:27Z</time>
      </trkpt>
      <trkpt lat="50.051" lon="2.19444">
        <ele>41.2</ele>
        <time>2023-10-04T13:01:28Z</time>
      </trkpt>
      <trkpt lat="50.051" lon="2.19445">
        <ele>41.2</ele>
        <time>2023-10-04T13:01:29Z</time>
      </trkpt>
      <trkpt lat="50.051" lon="2.19446">
        <ele>41.2</ele>
        <time>2023-10-04T13:01:30Z</time>
      </trkpt>
      <trkpt lat="50.051" lon="2.19447">
        <ele>41.2</ele>
        <time>2023-10-04T13:01:31Z</time>
      </trkpt>
      <trkpt lat="50.05101" lon="2.19449">
        <ele>41.2</ele>
        <time>2023-10-04T13:01:32Z</time>
      </trkpt>
      <trkpt lat="50.05101" lon="2.1945">
        <ele>41.2</ele>
        <time>2023-10-04T13:01:33Z</time>
      </trkpt>
      <trkpt lat="50.05101" lon="2.19452">
        <ele>41.2</ele>
        <time>2023-10-04T13:01:34Z</time>
      </trkpt>
      <trkpt lat="50.05102" lon="2.19453">
        <ele>41.2</ele>
        <time>2023-10-04T13:01:35Z</time>
      </trkpt>
      <trkpt lat="50.05102" lon="2.19455">
        <ele>41.2</ele>
        <time>2023-10-04T13:01:36Z</time>
      </trkpt>
      <trkpt lat="50.05102" lon="2.19457">
        <ele>41.2</ele>
        <time>2023-10-04T13:01:37Z</time>
      </trkpt>
      <trkpt lat="50.05103" lon="2.19458">
        <ele>41.2</ele>
        <time>2023-10-04T13:01:38Z</time>
      </trkpt>
      <trkpt lat="50.05103" lon="2.1946">
        <ele>41.3</ele>
        <time>2023-10-04T13:01:39Z</time>
      </trkpt>
      <trkpt lat="50.05103" lon="2.19461">
        <ele>41.3</ele>
        <time>2023-10-04T13:01:40Z</time>
      </trkpt>
      <trkpt lat="50.05103" lon="2.19462">
        <ele>41.3</ele>
        <time>2023-10-04T13:01:41Z</time>
      </trkpt>
      <trkpt lat="50.05103" lon="2.19463">
        <ele>41.3</ele>
        <time>2023-10-04T13:01:42Z</time>
      </trkpt>
      <trkpt lat="50.05104" lon="2.19464">
        <ele>41.3</ele>
        <time>2023-10-04T13:01:43Z</time>
      </trkpt>
      <trkpt lat="50.05104" lon="2.19466">
        <ele>41.3</ele>
        <time>2023-10-04T13:01:44Z</time>
      </trkpt>
      <trkpt lat="50.05104" lon="2.19468">
        <ele>41.3</ele>
        <time>2023-10-04T13:01:45Z</time>
      </trkpt>
      <trkpt lat="50.05104" lon="2.1947">
        <ele>41.3</ele>
        <time>2023-10-04T13:01:46Z</time>
      </trkpt>
      <trkpt lat="50.05105" lon="2.19473">
        <ele>41.3</ele>
        <time>2023-10-04T13:01:47Z</time>
      </trkpt>
      <trkpt lat="50.05105" lon="2.19476">
        <ele>41.3</ele>
        <time>2023-10-04T13:01:48Z</time>
      </trkpt>
      <trkpt lat="50.05106" lon="2.19478">
        <ele>41.3</ele>
        <time>2023-10-04T13:01:49Z</time>
      </trkpt>
      <trkpt lat="50.05106" lon="2.19481">
        <ele>41.3</ele>
        <time>2023-10-04T13:01:50Z</time>
      </trkpt>
      <trkpt lat="50.05106" lon="2.19484">
        <ele>41.3</ele>
        <time>2023-10-04T13:01:51Z</time>
      </trkpt>
      <trkpt lat="50.05106" lon="2.19485">
        <ele>41.3</ele>
        <time>2023-10-04T13:01:52Z</time>
      </trkpt>
      <trkpt lat="50.05107" lon="2.19487">
        <ele>41.3</ele>
        <time>2023-10-04T13:01:53Z</time>
      </trkpt>
      <trkpt lat="50.05107" lon="2.19488">
        <ele>41.3</ele>
        <time>2023-10-04T13:01:54Z</time>
      </trkpt>
      <trkpt lat="50.05107" lon="2.1949">
        <ele>41.4</ele>
        <time>2023-10-04T13:01:55Z</time>
      </trkpt>
      <trkpt lat="50.05107" lon="2.19492">
        <ele>41.4</ele>
        <time>2023-10-04T13:01:56Z</time>
      </trkpt>
      <trkpt lat="50.05108" lon="2.19493">
        <ele>41.4</ele>
        <time>2023-10-04T13:01:57Z</time>
      </trkpt>
      <trkpt lat="50.05108" lon="2.19494">
        <ele>41.4</ele>
        <time>2023-10-04T13:01:58Z</time>
      </trkpt>
      <trkpt lat="50.05108" lon="2.19495">
        <ele>41.4</ele>
        <time>2023-10-04T13:01:59Z</time>
      </trkpt>
      <trkpt lat="50.05109" lon="2.19496">
        <ele>41.4</ele>
        <time>2023-10-04T13:02:00Z</time>
      </trkpt>
      <trkpt lat="50.05109" lon="2.19498">
        <ele>41.4</ele>
        <time>2023-10-04T13:02:01Z</time>
      </trkpt>
      <trkpt lat="50.0511" lon="2.19498">
        <ele>41.4</ele>
        <time>2023-10-04T13:02:02Z</time>
      </trkpt>
      <trkpt lat="50.05111" lon="2.195">
        <ele>41.4</ele>
        <time>2023-10-04T13:02:03Z</time>
      </trkpt>
      <trkpt lat="50.05112" lon="2.19501">
        <ele>41.4</ele>
        <time>2023-10-04T13:02:04Z</time>
      </trkpt>
      <trkpt lat="50.05112" lon="2.19502">
        <ele>41.4</ele>
        <time>2023-10-04T13:02:05Z</time>
      </trkpt>
      <trkpt lat="50.05113" lon="2.19504">
        <ele>41.4</ele>
        <time>2023-10-04T13:02:06Z</time>
      </trkpt>
      <trkpt lat="50.05114" lon="2.19505">
        <ele>41.4</ele>
        <time>2023-10-04T13:02:07Z</time>
      </trkpt>
      <trkpt lat="50.05114" lon="2.19507">
        <ele>41.4</ele>
        <time>2023-10-04T13:02:08Z</time>
      </trkpt>
      <trkpt lat="50.05114" lon="2.19508">
        <ele>41.5</ele>
        <time>2023-10-04T13:02:09Z</time>
      </trkpt>
      <trkpt lat="50.05115" lon="2.1951">
        <ele>41.5</ele>
        <time>2023-10-04T13:02:10Z</time>
      </trkpt>
      <trkpt lat="50.05116" lon="2.19511">
        <ele>41.5</ele>
        <time>2023-10-04T13:02:11Z</time>
      </trkpt>
      <trkpt lat="50.05116" lon="2.19513">
        <ele>41.5</ele>
        <time>2023-10-04T13:02:12Z</time>
      </trkpt>
      <trkpt lat="50.05117" lon="2.19514">
        <ele>41.5</ele>
        <time>2023-10-04T13:02:13Z</time>
      </trkpt>
      <trkpt lat="50.05117" lon="2.19515">
        <ele>41.5</ele>
        <time>2023-10-04T13:02:14Z</time>
      </trkpt>
      <trkpt lat="50.05117" lon="2.19517">
        <ele>41.5</ele>
        <time>2023-10-04T13:02:15Z</time>
      </trkpt>
      <trkpt lat="50.05118" lon="2.19518">
        <ele>41.5</ele>
        <time>2023-10-04T13:02:16Z</time>
      </trkpt>
      <trkpt lat="50.05118" lon="2.19519">
        <ele>41.5</ele>
        <time>2023-10-04T13:02:17Z</time>
      </trkpt>
      <trkpt lat="50.05119" lon="2.19521">
        <ele>41.5</ele>
        <time>2023-10-04T13:02:18Z</time>
      </trkpt>
      <trkpt lat="50.0512" lon="2.19524">
        <ele>41.6</ele>
        <time>2023-10-04T13:02:19Z</time>
      </trkpt>
      <trkpt lat="50.05121" lon="2.19525">
        <ele>41.6</ele>
        <time>2023-10-04T13:02:20Z</time>
      </trkpt>
      <trkpt lat="50.05121" lon="2.19526">
        <ele>41.6</ele>
        <time>2023-10-04T13:02:21Z</time>
      </trkpt>
      <trkpt lat="50.05123" lon="2.19528">
        <ele>41.6</ele>
        <time>2023-10-04T13:02:22Z</time>
      </trkpt>
      <trkpt lat="50.05123" lon="2.19529">
        <ele>41.6</ele>
        <time>2023-10-04T13:02:23Z</time>
      </trkpt>
      <trkpt lat="50.05124" lon="2.1953">
        <ele>41.6</ele>
        <time>2023-10-04T13:02:24Z</time>
      </trkpt>
      <trkpt lat="50.05125" lon="2.19532">
        <ele>41.6</ele>
        <time>2023-10-04T13:02:25Z</time>
      </trkpt>
      <trkpt lat="50.05125" lon="2.19533">
        <ele>41.6</ele>
        <time>2023-10-04T13:02:26Z</time>
      </trkpt>
      <trkpt lat="50.05126" lon="2.19535">
        <ele>41.6</ele>
        <time>2023-10-04T13:02:27Z</time>
      </trkpt>
      <trkpt lat="50.05127" lon="2.19536">
        <ele>41.6</ele>
        <time>2023-10-04T13:02:28Z</time>
      </trkpt>
      <trkpt lat="50.05127" lon="2.19538">
        <ele>41.7</ele>
        <time>2023-10-04T13:02:29Z</time>
      </trkpt>
      <trkpt lat="50.05128" lon="2.1954">
        <ele>41.7</ele>
        <time>2023-10-04T13:02:30Z</time>
      </trkpt>
      <trkpt lat="50.05129" lon="2.19543">
        <ele>41.7</ele>
        <time>2023-10-04T13:02:31Z</time>
      </trkpt>
      <trkpt lat="50.0513" lon="2.19545">
        <ele>41.7</ele>
        <time>2023-10-04T13:02:32Z</time>
      </trkpt>
      <trkpt lat="50.05131" lon="2.19547">
        <ele>41.7</ele>
        <time>2023-10-04T13:02:33Z</time>
      </trkpt>
      <trkpt lat="50.05131" lon="2.19549">
        <ele>41.7</ele>
        <time>2023-10-04T13:02:34Z</time>
      </trkpt>
      <trkpt lat="50.05132" lon="2.19551">
        <ele>41.7</ele>
        <time>2023-10-04T13:02:35Z</time>
      </trkpt>
      <trkpt lat="50.05133" lon="2.19554">
        <ele>41.8</ele>
        <time>2023-10-04T13:02:36Z</time>
      </trkpt>
      <trkpt lat="50.05133" lon="2.19555">
        <ele>41.8</ele>
        <time>2023-10-04T13:02:37Z</time>
      </trkpt>
      <trkpt lat="50.05134" lon="2.19556">
        <ele>41.8</ele>
        <time>2023-10-04T13:02:38Z</time>
      </trkpt>
      <trkpt lat="50.05134" lon="2.19558">
        <ele>41.8</ele>
        <time>2023-10-04T13:02:39Z</time>
      </trkpt>
      <trkpt lat="50.05135" lon="2.19559">
        <ele>41.8</ele>
        <time>2023-10-04T13:02:40Z</time>
      </trkpt>
      <trkpt lat="50.05135" lon="2.19561">
        <ele>41.8</ele>
        <time>2023-10-04T13:02:41Z</time>
      </trkpt>
      <trkpt lat="50.05135" lon="2.19563">
        <ele>41.8</ele>
        <time>2023-10-04T13:02:42Z</time>
      </trkpt>
      <trkpt lat="50.05136" lon="2.19565">
        <ele>41.8</ele>
        <time>2023-10-04T13:02:43Z</time>
      </trkpt>
      <trkpt lat="50.05136" lon="2.19568">
        <ele>41.8</ele>
        <time>2023-10-04T13:02:44Z</time>
      </trkpt>
      <trkpt lat="50.05136" lon="2.1957">
        <ele>41.8</ele>
        <time>2023-10-04T13:02:45Z</time>
      </trkpt>
      <trkpt lat="50.05136" lon="2.19572">
        <ele>41.8</ele>
        <time>2023-10-04T13:02:46Z</time>
      </trkpt>
      <trkpt lat="50.05137" lon="2.19575">
        <ele>41.8</ele>
        <time>2023-10-04T13:02:47Z</time>
      </trkpt>
      <trkpt lat="50.05137" lon="2.19577">
        <ele>41.8</ele>
        <time>2023-10-04T13:02:48Z</time>
      </trkpt>
      <trkpt lat="50.05137" lon="2.19578">
        <ele>41.8</ele>
        <time>2023-10-04T13:02:49Z</time>
      </trkpt>
      <trkpt lat="50.05137" lon="2.1958">
        <ele>41.8</ele>
        <time>2023-10-04T13:02:50Z</time>
      </trkpt>
      <trkpt lat="50.05138" lon="2.19582">
        <ele>41.8</ele>
        <time>2023-10-04T13:02:51Z</time>
      </trkpt>
      <trkpt lat="50.05138" lon="2.19583">
        <ele>41.8</ele>
        <time>2023-10-04T13:02:52Z</time>
      </trkpt>
      <trkpt lat="50.05138" lon="2.19585">
        <ele>41.9</ele>
        <time>2023-10-04T13:02:53Z</time>
      </trkpt>
      <trkpt lat="50.05139" lon="2.19587">
        <ele>41.9</ele>
        <time>2023-10-04T13:02:54Z</time>
      </trkpt>
      <trkpt lat="50.05139" lon="2.19588">
        <ele>41.9</ele>
        <time>2023-10-04T13:02:55Z</time>
      </trkpt>
      <trkpt lat="50.05139" lon="2.1959">
        <ele>41.9</ele>
        <time>2023-10-04T13:02:56Z</time>
      </trkpt>
      <trkpt lat="50.0514" lon="2.19591">
        <ele>41.9</ele>
        <time>2023-10-04T13:02:57Z</time>
      </trkpt>
      <trkpt lat="50.0514" lon="2.19593">
        <ele>41.9</ele>
        <time>2023-10-04T13:02:58Z</time>
      </trkpt>
      <trkpt lat="50.0514" lon="2.19594">
        <ele>41.9</ele>
        <time>2023-10-04T13:02:59Z</time>
      </trkpt>
      <trkpt lat="50.0514" lon="2.19596">
        <ele>41.9</ele>
        <time>2023-10-04T13:03:00Z</time>
      </trkpt>
      <trkpt lat="50.0514" lon="2.19597">
        <ele>41.9</ele>
        <time>2023-10-04T13:03:01Z</time>
      </trkpt>
      <trkpt lat="50.05141" lon="2.19599">
        <ele>41.9</ele>
        <time>2023-10-04T13:03:02Z</time>
      </trkpt>
      <trkpt lat="50.05141" lon="2.196">
        <ele>41.9</ele>
        <time>2023-10-04T13:03:03Z</time>
      </trkpt>
      <trkpt lat="50.05141" lon="2.19601">
        <ele>41.9</ele>
        <time>2023-10-04T13:03:04Z</time>
      </trkpt>
      <trkpt lat="50.05141" lon="2.19602">
        <ele>41.9</ele>
        <time>2023-10-04T13:03:05Z</time>
      </trkpt>
      <trkpt lat="50.05142" lon="2.19604">
        <ele>41.9</ele>
        <time>2023-10-04T13:03:06Z</time>
      </trkpt>
      <trkpt lat="50.05142" lon="2.19605">
        <ele>42</ele>
        <time>2023-10-04T13:03:07Z</time>
      </trkpt>
      <trkpt lat="50.05142" lon="2.19607">
        <ele>42</ele>
        <time>2023-10-04T13:03:08Z</time>
      </trkpt>
      <trkpt lat="50.05143" lon="2.19609">
        <ele>42</ele>
        <time>2023-10-04T13:03:09Z</time>
      </trkpt>
      <trkpt lat="50.05143" lon="2.1961">
        <ele>42</ele>
        <time>2023-10-04T13:03:10Z</time>
      </trkpt>
      <trkpt lat="50.05144" lon="2.19612">
        <ele>42</ele>
        <time>2023-10-04T13:03:11Z</time>
      </trkpt>
      <trkpt lat="50.05144" lon="2.19613">
        <ele>42</ele>
        <time>2023-10-04T13:03:12Z</time>
      </trkpt>
      <trkpt lat="50.05145" lon="2.19615">
        <ele>42</ele>
        <time>2023-10-04T13:03:13Z</time>
      </trkpt>
      <trkpt lat="50.05145" lon="2.19616">
        <ele>42</ele>
        <time>2023-10-04T13:03:14Z</time>
      </trkpt>
      <trkpt lat="50.05146" lon="2.19618">
        <ele>42</ele>
        <time>2023-10-04T13:03:15Z</time>
      </trkpt>
      <trkpt lat="50.05146" lon="2.19619">
        <ele>42.1</ele>
        <time>2023-10-04T13:03:16Z</time>
      </trkpt>
      <trkpt lat="50.05147" lon="2.19621">
        <ele>42.1</ele>
        <time>2023-10-04T13:03:17Z</time>
      </trkpt>
      <trkpt lat="50.05147" lon="2.19622">
        <ele>42.1</ele>
        <time>2023-10-04T13:03:18Z</time>
      </trkpt>
      <trkpt lat="50.05148" lon="2.19623">
        <ele>42.1</ele>
        <time>2023-10-04T13:03:19Z</time>
      </trkpt>
      <trkpt lat="50.05148" lon="2.19624">
        <ele>42.1</ele>
        <time>2023-10-04T13:03:20Z</time>
      </trkpt>
      <trkpt lat="50.05149" lon="2.19625">
        <ele>42.1</ele>
        <time>2023-10-04T13:03:21Z</time>
      </trkpt>
      <trkpt lat="50.05149" lon="2.19626">
        <ele>42.1</ele>
        <time>2023-10-04T13:03:22Z</time>
      </trkpt>
      <trkpt lat="50.05149" lon="2.19628">
        <ele>42.1</ele>
        <time>2023-10-04T13:03:23Z</time>
      </trkpt>
      <trkpt lat="50.0515" lon="2.19629">
        <ele>42.1</ele>
        <time>2023-10-04T13:03:24Z</time>
      </trkpt>
      <trkpt lat="50.0515" lon="2.1963">
        <ele>42.1</ele>
        <time>2023-10-04T13:03:25Z</time>
      </trkpt>
      <trkpt lat="50.0515" lon="2.19631">
        <ele>42.1</ele>
        <time>2023-10-04T13:03:26Z</time>
      </trkpt>
      <trkpt lat="50.05151" lon="2.19633">
        <ele>42.1</ele>
        <time>2023-10-04T13:03:27Z</time>
      </trkpt>
      <trkpt lat="50.05151" lon="2.19634">
        <ele>42.1</ele>
        <time>2023-10-04T13:03:28Z</time>
      </trkpt>
      <trkpt lat="50.05152" lon="2.19635">
        <ele>42.1</ele>
        <time>2023-10-04T13:03:29Z</time>
      </trkpt>
      <trkpt lat="50.05152" lon="2.19636">
        <ele>42.2</ele>
        <time>2023-10-04T13:03:30Z</time>
      </trkpt>
      <trkpt lat="50.05153" lon="2.19637">
        <ele>42.2</ele>
        <time>2023-10-04T13:03:31Z</time>
      </trkpt>
      <trkpt lat="50.05154" lon="2.19638">
        <ele>42.2</ele>
        <time>2023-10-04T13:03:32Z</time>
      </trkpt>
      <trkpt lat="50.05154" lon="2.19639">
        <ele>42.2</ele>
        <time>2023-10-04T13:03:33Z</time>
      </trkpt>
      <trkpt lat="50.05155" lon="2.1964">
        <ele>42.2</ele>
        <time>2023-10-04T13:03:34Z</time>
      </trkpt>
      <trkpt lat="50.05155" lon="2.19641">
        <ele>42.2</ele>
        <time>2023-10-04T13:03:35Z</time>
      </trkpt>
      <trkpt lat="50.05156" lon="2.19642">
        <ele>42.2</ele>
        <time>2023-10-04T13:03:36Z</time>
      </trkpt>
      <trkpt lat="50.05156" lon="2.19643">
        <ele>42.2</ele>
        <time>2023-10-04T13:03:37Z</time>
      </trkpt>
      <trkpt lat="50.05156" lon="2.19644">
        <ele>42.2</ele>
        <time>2023-10-04T13:03:38Z</time>
      </trkpt>
      <trkpt lat="50.05157" lon="2.19645">
        <ele>42.2</ele>
        <time>2023-10-04T13:03:39Z</time>
      </trkpt>
      <trkpt lat="50.05158" lon="2.19646">
        <ele>42.2</ele>
        <time>2023-10-04T13:03:40Z</time>
      </trkpt>
      <trkpt lat="50.05158" lon="2.19648">
        <ele>42.2</ele>
        <time>2023-10-04T13:03:41Z</time>
      </trkpt>
      <trkpt lat="50.05159" lon="2.19649">
        <ele>42.2</ele>
        <time>2023-10-04T13:03:42Z</time>
      </trkpt>
      <trkpt lat="50.05159" lon="2.19651">
        <ele>42.2</ele>
        <time>2023-10-04T13:03:43Z</time>
      </trkpt>
      <trkpt lat="50.05159" lon="2.19652">
        <ele>42.2</ele>
        <time>2023-10-04T13:03:44Z</time>
      </trkpt>
      <trkpt lat="50.0516" lon="2.19654">
        <ele>42.2</ele>
        <time>2023-10-04T13:03:45Z</time>
      </trkpt>
      <trkpt lat="50.0516" lon="2.19656">
        <ele>42.2</ele>
        <time>2023-10-04T13:03:46Z</time>
      </trkpt>
      <trkpt lat="50.05161" lon="2.19658">
        <ele>42.3</ele>
        <time>2023-10-04T13:03:47Z</time>
      </trkpt>
      <trkpt lat="50.05161" lon="2.1966">
        <ele>42.3</ele>
        <time>2023-10-04T13:03:48Z</time>
      </trkpt>
      <trkpt lat="50.05162" lon="2.19661">
        <ele>42.3</ele>
        <time>2023-10-04T13:03:49Z</time>
      </trkpt>
      <trkpt lat="50.05162" lon="2.19663">
        <ele>42.3</ele>
        <time>2023-10-04T13:03:50Z</time>
      </trkpt>
      <trkpt lat="50.05163" lon="2.19664">
        <ele>42.3</ele>
        <time>2023-10-04T13:03:51Z</time>
      </trkpt>
      <trkpt lat="50.05163" lon="2.19666">
        <ele>42.3</ele>
        <time>2023-10-04T13:03:52Z</time>
      </trkpt>
      <trkpt lat="50.05164" lon="2.19668">
        <ele>42.3</ele>
        <time>2023-10-04T13:03:53Z</time>
      </trkpt>
      <trkpt lat="50.05164" lon="2.19669">
        <ele>42.3</ele>
        <time>2023-10-04T13:03:54Z</time>
      </trkpt>
      <trkpt lat="50.05165" lon="2.1967">
        <ele>42.3</ele>
        <time>2023-10-04T13:03:55Z</time>
      </trkpt>
      <trkpt lat="50.05165" lon="2.19672">
        <ele>42.3</ele>
        <time>2023-10-04T13:03:56Z</time>
      </trkpt>
      <trkpt lat="50.05166" lon="2.19674">
        <ele>42.3</ele>
        <time>2023-10-04T13:03:57Z</time>
      </trkpt>
      <trkpt lat="50.05167" lon="2.19675">
        <ele>42.3</ele>
        <time>2023-10-04T13:03:58Z</time>
      </trkpt>
      <trkpt lat="50.05167" lon="2.19676">
        <ele>42.3</ele>
        <time>2023-10-04T13:03:59Z</time>
      </trkpt>
      <trkpt lat="50.05167" lon="2.19678">
        <ele>42.3</ele>
        <time>2023-10-04T13:04:00Z</time>
      </trkpt>
      <trkpt lat="50.05168" lon="2.19679">
        <ele>42.3</ele>
        <time>2023-10-04T13:04:01Z</time>
      </trkpt>
      <trkpt lat="50.05168" lon="2.19681">
        <ele>42.3</ele>
        <time>2023-10-04T13:04:02Z</time>
      </trkpt>
      <trkpt lat="50.05169" lon="2.19682">
        <ele>42.3</ele>
        <time>2023-10-04T13:04:03Z</time>
      </trkpt>
      <trkpt lat="50.05169" lon="2.19684">
        <ele>42.3</ele>
        <time>2023-10-04T13:04:04Z</time>
      </trkpt>
      <trkpt lat="50.0517" lon="2.19685">
        <ele>42.3</ele>
        <time>2023-10-04T13:04:05Z</time>
      </trkpt>
      <trkpt lat="50.0517" lon="2.19687">
        <ele>42.3</ele>
        <time>2023-10-04T13:04:06Z</time>
      </trkpt>
      <trkpt lat="50.0517" lon="2.19688">
        <ele>42.3</ele>
        <time>2023-10-04T13:04:07Z</time>
      </trkpt>
      <trkpt lat="50.05171" lon="2.19689">
        <ele>42.3</ele>
        <time>2023-10-04T13:04:08Z</time>
      </trkpt>
      <trkpt lat="50.05171" lon="2.19691">
        <ele>42.3</ele>
        <time>2023-10-04T13:04:09Z</time>
      </trkpt>
      <trkpt lat="50.05171" lon="2.19693">
        <ele>42.3</ele>
        <time>2023-10-04T13:04:10Z</time>
      </trkpt>
      <trkpt lat="50.05172" lon="2.19696">
        <ele>42.3</ele>
        <time>2023-10-04T13:04:11Z</time>
      </trkpt>
      <trkpt lat="50.05172" lon="2.19697">
        <ele>42.3</ele>
        <time>2023-10-04T13:04:12Z</time>
      </trkpt>
      <trkpt lat="50.05172" lon="2.19699">
        <ele>42.3</ele>
        <time>2023-10-04T13:04:13Z</time>
      </trkpt>
      <trkpt lat="50.05172" lon="2.19701">
        <ele>42.3</ele>
        <time>2023-10-04T13:04:14Z</time>
      </trkpt>
      <trkpt lat="50.05173" lon="2.19702">
        <ele>42.3</ele>
        <time>2023-10-04T13:04:15Z</time>
      </trkpt>
      <trkpt lat="50.05173" lon="2.19704">
        <ele>42.3</ele>
        <time>2023-10-04T13:04:16Z</time>
      </trkpt>
      <trkpt lat="50.05174" lon="2.19707">
        <ele>42.3</ele>
        <time>2023-10-04T13:04:17Z</time>
      </trkpt>
      <trkpt lat="50.05174" lon="2.19708">
        <ele>42.3</ele>
        <time>2023-10-04T13:04:18Z</time>
      </trkpt>
      <trkpt lat="50.05175" lon="2.19709">
        <ele>42.3</ele>
        <time>2023-10-04T13:04:19Z</time>
      </trkpt>
      <trkpt lat="50.05175" lon="2.19713">
        <ele>42.3</ele>
        <time>2023-10-04T13:04:20Z</time>
      </trkpt>
      <trkpt lat="50.05175" lon="2.19714">
        <ele>42.3</ele>
        <time>2023-10-04T13:04:21Z</time>
      </trkpt>
      <trkpt lat="50.05176" lon="2.19715">
        <ele>42.3</ele>
        <time>2023-10-04T13:04:22Z</time>
      </trkpt>
      <trkpt lat="50.05176" lon="2.19717">
        <ele>42.3</ele>
        <time>2023-10-04T13:04:23Z</time>
      </trkpt>
      <trkpt lat="50.05176" lon="2.19718">
        <ele>42.3</ele>
        <time>2023-10-04T13:04:24Z</time>
      </trkpt>
      <trkpt lat="50.05177" lon="2.1972">
        <ele>42.3</ele>
        <time>2023-10-04T13:04:25Z</time>
      </trkpt>
      <trkpt lat="50.05177" lon="2.19721">
        <ele>42.3</ele>
        <time>2023-10-04T13:04:26Z</time>
      </trkpt>
      <trkpt lat="50.05178" lon="2.19722">
        <ele>42.3</ele>
        <time>2023-10-04T13:04:27Z</time>
      </trkpt>
      <trkpt lat="50.05178" lon="2.19724">
        <ele>42.3</ele>
        <time>2023-10-04T13:04:28Z</time>
      </trkpt>
      <trkpt lat="50.05179" lon="2.19725">
        <ele>42.3</ele>
        <time>2023-10-04T13:04:29Z</time>
      </trkpt>
      <trkpt lat="50.05179" lon="2.19726">
        <ele>42.4</ele>
        <time>2023-10-04T13:04:30Z</time>
      </trkpt>
      <trkpt lat="50.0518" lon="2.19727">
        <ele>42.4</ele>
        <time>2023-10-04T13:04:31Z</time>
      </trkpt>
      <trkpt lat="50.0518" lon="2.19728">
        <ele>42.4</ele>
        <time>2023-10-04T13:04:32Z</time>
      </trkpt>
      <trkpt lat="50.05181" lon="2.1973">
        <ele>42.4</ele>
        <time>2023-10-04T13:04:33Z</time>
      </trkpt>
      <trkpt lat="50.05181" lon="2.19731">
        <ele>42.4</ele>
        <time>2023-10-04T13:04:34Z</time>
      </trkpt>
      <trkpt lat="50.05182" lon="2.19732">
        <ele>42.4</ele>
        <time>2023-10-04T13:04:35Z</time>
      </trkpt>
      <trkpt lat="50.05182" lon="2.19733">
        <ele>42.4</ele>
        <time>2023-10-04T13:04:36Z</time>
      </trkpt>
      <trkpt lat="50.05183" lon="2.19734">
        <ele>42.4</ele>
        <time>2023-10-04T13:04:37Z</time>
      </trkpt>
      <trkpt lat="50.05183" lon="2.19735">
        <ele>42.4</ele>
        <time>2023-10-04T13:04:38Z</time>
      </trkpt>
      <trkpt lat="50.05183" lon="2.19737">
        <ele>42.4</ele>
        <time>2023-10-04T13:04:39Z</time>
      </trkpt>
      <trkpt lat="50.05184" lon="2.19738">
        <ele>42.4</ele>
        <time>2023-10-04T13:04:40Z</time>
      </trkpt>
      <trkpt lat="50.05184" lon="2.19739">
        <ele>42.4</ele>
        <time>2023-10-04T13:04:41Z</time>
      </trkpt>
      <trkpt lat="50.05184" lon="2.1974">
        <ele>42.4</ele>
        <time>2023-10-04T13:04:42Z</time>
      </trkpt>
      <trkpt lat="50.05185" lon="2.19742">
        <ele>42.4</ele>
        <time>2023-10-04T13:04:43Z</time>
      </trkpt>
      <trkpt lat="50.05185" lon="2.19743">
        <ele>42.5</ele>
        <time>2023-10-04T13:04:44Z</time>
      </trkpt>
      <trkpt lat="50.05185" lon="2.19744">
        <ele>42.5</ele>
        <time>2023-10-04T13:04:45Z</time>
      </trkpt>
      <trkpt lat="50.05186" lon="2.19745">
        <ele>42.5</ele>
        <time>2023-10-04T13:04:46Z</time>
      </trkpt>
      <trkpt lat="50.05186" lon="2.19746">
        <ele>42.5</ele>
        <time>2023-10-04T13:04:47Z</time>
      </trkpt>
      <trkpt lat="50.05186" lon="2.19747">
        <ele>42.5</ele>
        <time>2023-10-04T13:04:48Z</time>
      </trkpt>
      <trkpt lat="50.05186" lon="2.19748">
        <ele>42.5</ele>
        <time>2023-10-04T13:04:49Z</time>
      </trkpt>
      <trkpt lat="50.05187" lon="2.1975">
        <ele>42.5</ele>
        <time>2023-10-04T13:04:50Z</time>
      </trkpt>
      <trkpt lat="50.05187" lon="2.19751">
        <ele>42.6</ele>
        <time>2023-10-04T13:04:51Z</time>
      </trkpt>
      <trkpt lat="50.05187" lon="2.19752">
        <ele>42.6</ele>
        <time>2023-10-04T13:04:52Z</time>
      </trkpt>
      <trkpt lat="50.05187" lon="2.19753">
        <ele>42.6</ele>
        <time>2023-10-04T13:04:53Z</time>
      </trkpt>
      <trkpt lat="50.05187" lon="2.19755">
        <ele>42.6</ele>
        <time>2023-10-04T13:04:54Z</time>
      </trkpt>
      <trkpt lat="50.05187" lon="2.19756">
        <ele>42.6</ele>
        <time>2023-10-04T13:04:55Z</time>
      </trkpt>
      <trkpt lat="50.05188" lon="2.19757">
        <ele>42.6</ele>
        <time>2023-10-04T13:04:56Z</time>
      </trkpt>
      <trkpt lat="50.05188" lon="2.19759">
        <ele>42.7</ele>
        <time>2023-10-04T13:04:57Z</time>
      </trkpt>
      <trkpt lat="50.05188" lon="2.1976">
        <ele>42.7</ele>
        <time>2023-10-04T13:04:58Z</time>
      </trkpt>
      <trkpt lat="50.05189" lon="2.19761">
        <ele>42.7</ele>
        <time>2023-10-04T13:04:59Z</time>
      </trkpt>
      <trkpt lat="50.05189" lon="2.19763">
        <ele>42.7</ele>
        <time>2023-10-04T13:05:00Z</time>
      </trkpt>
      <trkpt lat="50.0519" lon="2.19764">
        <ele>42.7</ele>
        <time>2023-10-04T13:05:01Z</time>
      </trkpt>
      <trkpt lat="50.0519" lon="2.19765">
        <ele>42.7</ele>
        <time>2023-10-04T13:05:02Z</time>
      </trkpt>
      <trkpt lat="50.05191" lon="2.19766">
        <ele>42.8</ele>
        <time>2023-10-04T13:05:03Z</time>
      </trkpt>
      <trkpt lat="50.05191" lon="2.19767">
        <ele>42.8</ele>
        <time>2023-10-04T13:05:04Z</time>
      </trkpt>
      <trkpt lat="50.05191" lon="2.19769">
        <ele>42.8</ele>
        <time>2023-10-04T13:05:05Z</time>
      </trkpt>
      <trkpt lat="50.05192" lon="2.1977">
        <ele>42.8</ele>
        <time>2023-10-04T13:05:06Z</time>
      </trkpt>
      <trkpt lat="50.05192" lon="2.19772">
        <ele>42.8</ele>
        <time>2023-10-04T13:05:07Z</time>
      </trkpt>
      <trkpt lat="50.05193" lon="2.19773">
        <ele>42.8</ele>
        <time>2023-10-04T13:05:08Z</time>
      </trkpt>
      <trkpt lat="50.05193" lon="2.19774">
        <ele>42.9</ele>
        <time>2023-10-04T13:05:09Z</time>
      </trkpt>
      <trkpt lat="50.05194" lon="2.19776">
        <ele>42.9</ele>
        <time>2023-10-04T13:05:10Z</time>
      </trkpt>
      <trkpt lat="50.05194" lon="2.19777">
        <ele>42.9</ele>
        <time>2023-10-04T13:05:11Z</time>
      </trkpt>
      <trkpt lat="50.05194" lon="2.19778">
        <ele>42.9</ele>
        <time>2023-10-04T13:05:12Z</time>
      </trkpt>
      <trkpt lat="50.05195" lon="2.1978">
        <ele>42.9</ele>
        <time>2023-10-04T13:05:13Z</time>
      </trkpt>
      <trkpt lat="50.05195" lon="2.19782">
        <ele>42.9</ele>
        <time>2023-10-04T13:05:14Z</time>
      </trkpt>
      <trkpt lat="50.05196" lon="2.19783">
        <ele>43</ele>
        <time>2023-10-04T13:05:15Z</time>
      </trkpt>
      <trkpt lat="50.05196" lon="2.19785">
        <ele>43</ele>
        <time>2023-10-04T13:05:16Z</time>
      </trkpt>
      <trkpt lat="50.05197" lon="2.19786">
        <ele>43</ele>
        <time>2023-10-04T13:05:17Z</time>
      </trkpt>
      <trkpt lat="50.05197" lon="2.19787">
        <ele>43</ele>
        <time>2023-10-04T13:05:18Z</time>
      </trkpt>
      <trkpt lat="50.05198" lon="2.19788">
        <ele>43</ele>
        <time>2023-10-04T13:05:19Z</time>
      </trkpt>
      <trkpt lat="50.05198" lon="2.1979">
        <ele>43</ele>
        <time>2023-10-04T13:05:20Z</time>
      </trkpt>
      <trkpt lat="50.05198" lon="2.19791">
        <ele>43</ele>
        <time>2023-10-04T13:05:21Z</time>
      </trkpt>
      <trkpt lat="50.05199" lon="2.19793">
        <ele>43</ele>
        <time>2023-10-04T13:05:22Z</time>
      </trkpt>
      <trkpt lat="50.052" lon="2.19794">
        <ele>43</ele>
        <time>2023-10-04T13:05:23Z</time>
      </trkpt>
      <trkpt lat="50.052" lon="2.19796">
        <ele>43</ele>
        <time>2023-10-04T13:05:24Z</time>
      </trkpt>
      <trkpt lat="50.05201" lon="2.19797">
        <ele>43.1</ele>
        <time>2023-10-04T13:05:25Z</time>
      </trkpt>
      <trkpt lat="50.05201" lon="2.19799">
        <ele>43.1</ele>
        <time>2023-10-04T13:05:26Z</time>
      </trkpt>
      <trkpt lat="50.05202" lon="2.19802">
        <ele>43.1</ele>
        <time>2023-10-04T13:05:27Z</time>
      </trkpt>
      <trkpt lat="50.05202" lon="2.19803">
        <ele>43.1</ele>
        <time>2023-10-04T13:05:28Z</time>
      </trkpt>
      <trkpt lat="50.05202" lon="2.19804">
        <ele>43.1</ele>
        <time>2023-10-04T13:05:29Z</time>
      </trkpt>
      <trkpt lat="50.05203" lon="2.19808">
        <ele>43.1</ele>
        <time>2023-10-04T13:05:30Z</time>
      </trkpt>
      <trkpt lat="50.05204" lon="2.19809">
        <ele>43.1</ele>
        <time>2023-10-04T13:05:31Z</time>
      </trkpt>
      <trkpt lat="50.05204" lon="2.1981">
        <ele>43.2</ele>
        <time>2023-10-04T13:05:32Z</time>
      </trkpt>
      <trkpt lat="50.05204" lon="2.19812">
        <ele>43.2</ele>
        <time>2023-10-04T13:05:33Z</time>
      </trkpt>
      <trkpt lat="50.05204" lon="2.19813">
        <ele>43.2</ele>
        <time>2023-10-04T13:05:34Z</time>
      </trkpt>
      <trkpt lat="50.05205" lon="2.19815">
        <ele>43.2</ele>
        <time>2023-10-04T13:05:35Z</time>
      </trkpt>
      <trkpt lat="50.05205" lon="2.19816">
        <ele>43.2</ele>
        <time>2023-10-04T13:05:36Z</time>
      </trkpt>
      <trkpt lat="50.05206" lon="2.19818">
        <ele>43.2</ele>
        <time>2023-10-04T13:05:37Z</time>
      </trkpt>
      <trkpt lat="50.05206" lon="2.19819">
        <ele>43.2</ele>
        <time>2023-10-04T13:05:38Z</time>
      </trkpt>
      <trkpt lat="50.05206" lon="2.19821">
        <ele>43.2</ele>
        <time>2023-10-04T13:05:39Z</time>
      </trkpt>
      <trkpt lat="50.05207" lon="2.19822">
        <ele>43.2</ele>
        <time>2023-10-04T13:05:40Z</time>
      </trkpt>
      <trkpt lat="50.05207" lon="2.19823">
        <ele>43.2</ele>
        <time>2023-10-04T13:05:41Z</time>
      </trkpt>
      <trkpt lat="50.05207" lon="2.19824">
        <ele>43.3</ele>
        <time>2023-10-04T13:05:42Z</time>
      </trkpt>
      <trkpt lat="50.05208" lon="2.19825">
        <ele>43.3</ele>
        <time>2023-10-04T13:05:43Z</time>
      </trkpt>
      <trkpt lat="50.05208" lon="2.19826">
        <ele>43.3</ele>
        <time>2023-10-04T13:05:44Z</time>
      </trkpt>
      <trkpt lat="50.05209" lon="2.19828">
        <ele>43.3</ele>
        <time>2023-10-04T13:05:45Z</time>
      </trkpt>
      <trkpt lat="50.05209" lon="2.19829">
        <ele>43.3</ele>
        <time>2023-10-04T13:05:46Z</time>
      </trkpt>
      <trkpt lat="50.05209" lon="2.1983">
        <ele>43.3</ele>
        <time>2023-10-04T13:05:47Z</time>
      </trkpt>
      <trkpt lat="50.05209" lon="2.19832">
        <ele>43.3</ele>
        <time>2023-10-04T13:05:48Z</time>
      </trkpt>
      <trkpt lat="50.0521" lon="2.19833">
        <ele>43.3</ele>
        <time>2023-10-04T13:05:49Z</time>
      </trkpt>
      <trkpt lat="50.0521" lon="2.19834">
        <ele>43.3</ele>
        <time>2023-10-04T13:05:50Z</time>
      </trkpt>
      <trkpt lat="50.0521" lon="2.19835">
        <ele>43.3</ele>
        <time>2023-10-04T13:05:51Z</time>
      </trkpt>
      <trkpt lat="50.0521" lon="2.19836">
        <ele>43.3</ele>
        <time>2023-10-04T13:05:52Z</time>
      </trkpt>
      <trkpt lat="50.0521" lon="2.19837">
        <ele>43.3</ele>
        <time>2023-10-04T13:05:53Z</time>
      </trkpt>
      <trkpt lat="50.0521" lon="2.19838">
        <ele>43.3</ele>
        <time>2023-10-04T13:05:54Z</time>
      </trkpt>
      <trkpt lat="50.0521" lon="2.1984">
        <ele>43.3</ele>
        <time>2023-10-04T13:05:55Z</time>
      </trkpt>
      <trkpt lat="50.05211" lon="2.19841">
        <ele>43.3</ele>
        <time>2023-10-04T13:05:56Z</time>
      </trkpt>
      <trkpt lat="50.05211" lon="2.19843">
        <ele>43.3</ele>
        <time>2023-10-04T13:05:57Z</time>
      </trkpt>
      <trkpt lat="50.05211" lon="2.19844">
        <ele>43.4</ele>
        <time>2023-10-04T13:05:58Z</time>
      </trkpt>
      <trkpt lat="50.05211" lon="2.19845">
        <ele>43.4</ele>
        <time>2023-10-04T13:05:59Z</time>
      </trkpt>
      <trkpt lat="50.05211" lon="2.19847">
        <ele>43.4</ele>
        <time>2023-10-04T13:06:00Z</time>
      </trkpt>
      <trkpt lat="50.05212" lon="2.19849">
        <ele>43.4</ele>
        <time>2023-10-04T13:06:01Z</time>
      </trkpt>
      <trkpt lat="50.05212" lon="2.1985">
        <ele>43.4</ele>
        <time>2023-10-04T13:06:02Z</time>
      </trkpt>
      <trkpt lat="50.05212" lon="2.19853">
        <ele>43.4</ele>
        <time>2023-10-04T13:06:03Z</time>
      </trkpt>
      <trkpt lat="50.05213" lon="2.19855">
        <ele>43.4</ele>
        <time>2023-10-04T13:06:04Z</time>
      </trkpt>
      <trkpt lat="50.05213" lon="2.19856">
        <ele>43.4</ele>
        <time>2023-10-04T13:06:05Z</time>
      </trkpt>
      <trkpt lat="50.05213" lon="2.19858">
        <ele>43.4</ele>
        <time>2023-10-04T13:06:06Z</time>
      </trkpt>
      <trkpt lat="50.05213" lon="2.19859">
        <ele>43.4</ele>
        <time>2023-10-04T13:06:07Z</time>
      </trkpt>
      <trkpt lat="50.05214" lon="2.19861">
        <ele>43.4</ele>
        <time>2023-10-04T13:06:08Z</time>
      </trkpt>
      <trkpt lat="50.05214" lon="2.19864">
        <ele>43.4</ele>
        <time>2023-10-04T13:06:09Z</time>
      </trkpt>
      <trkpt lat="50.05215" lon="2.19865">
        <ele>43.4</ele>
        <time>2023-10-04T13:06:10Z</time>
      </trkpt>
      <trkpt lat="50.05215" lon="2.19866">
        <ele>43.4</ele>
        <time>2023-10-04T13:06:11Z</time>
      </trkpt>
      <trkpt lat="50.05216" lon="2.19868">
        <ele>43.4</ele>
        <time>2023-10-04T13:06:12Z</time>
      </trkpt>
      <trkpt lat="50.05216" lon="2.19869">
        <ele>43.4</ele>
        <time>2023-10-04T13:06:13Z</time>
      </trkpt>
      <trkpt lat="50.05217" lon="2.19871">
        <ele>43.4</ele>
        <time>2023-10-04T13:06:14Z</time>
      </trkpt>
      <trkpt lat="50.05217" lon="2.19872">
        <ele>43.4</ele>
        <time>2023-10-04T13:06:15Z</time>
      </trkpt>
      <trkpt lat="50.05218" lon="2.19873">
        <ele>43.4</ele>
        <time>2023-10-04T13:06:16Z</time>
      </trkpt>
      <trkpt lat="50.05218" lon="2.19875">
        <ele>43.4</ele>
        <time>2023-10-04T13:06:17Z</time>
      </trkpt>
      <trkpt lat="50.05219" lon="2.19876">
        <ele>43.4</ele>
        <time>2023-10-04T13:06:18Z</time>
      </trkpt>
      <trkpt lat="50.0522" lon="2.19877">
        <ele>43.4</ele>
        <time>2023-10-04T13:06:19Z</time>
      </trkpt>
      <trkpt lat="50.0522" lon="2.19879">
        <ele>43.4</ele>
        <time>2023-10-04T13:06:20Z</time>
      </trkpt>
      <trkpt lat="50.05222" lon="2.19881">
        <ele>43.4</ele>
        <time>2023-10-04T13:06:21Z</time>
      </trkpt>
      <trkpt lat="50.05222" lon="2.19882">
        <ele>43.4</ele>
        <time>2023-10-04T13:06:22Z</time>
      </trkpt>
      <trkpt lat="50.05223" lon="2.19883">
        <ele>43.4</ele>
        <time>2023-10-04T13:06:23Z</time>
      </trkpt>
      <trkpt lat="50.05224" lon="2.19886">
        <ele>43.5</ele>
        <time>2023-10-04T13:06:24Z</time>
      </trkpt>
      <trkpt lat="50.05224" lon="2.19887">
        <ele>43.5</ele>
        <time>2023-10-04T13:06:25Z</time>
      </trkpt>
      <trkpt lat="50.05225" lon="2.19888">
        <ele>43.5</ele>
        <time>2023-10-04T13:06:26Z</time>
      </trkpt>
      <trkpt lat="50.05226" lon="2.19891">
        <ele>43.5</ele>
        <time>2023-10-04T13:06:27Z</time>
      </trkpt>
      <trkpt lat="50.05226" lon="2.19892">
        <ele>43.5</ele>
        <time>2023-10-04T13:06:28Z</time>
      </trkpt>
      <trkpt lat="50.05227" lon="2.19894">
        <ele>43.6</ele>
        <time>2023-10-04T13:06:29Z</time>
      </trkpt>
      <trkpt lat="50.05227" lon="2.19895">
        <ele>43.6</ele>
        <time>2023-10-04T13:06:30Z</time>
      </trkpt>
      <trkpt lat="50.05228" lon="2.19897">
        <ele>43.6</ele>
        <time>2023-10-04T13:06:31Z</time>
      </trkpt>
      <trkpt lat="50.05229" lon="2.199">
        <ele>43.6</ele>
        <time>2023-10-04T13:06:32Z</time>
      </trkpt>
      <trkpt lat="50.0523" lon="2.19902">
        <ele>43.7</ele>
        <time>2023-10-04T13:06:33Z</time>
      </trkpt>
      <trkpt lat="50.0523" lon="2.19903">
        <ele>43.7</ele>
        <time>2023-10-04T13:06:34Z</time>
      </trkpt>
      <trkpt lat="50.05231" lon="2.19905">
        <ele>43.7</ele>
        <time>2023-10-04T13:06:35Z</time>
      </trkpt>
      <trkpt lat="50.05232" lon="2.19907">
        <ele>43.7</ele>
        <time>2023-10-04T13:06:36Z</time>
      </trkpt>
      <trkpt lat="50.05232" lon="2.19909">
        <ele>43.8</ele>
        <time>2023-10-04T13:06:37Z</time>
      </trkpt>
      <trkpt lat="50.05233" lon="2.1991">
        <ele>43.8</ele>
        <time>2023-10-04T13:06:38Z</time>
      </trkpt>
      <trkpt lat="50.05233" lon="2.19911">
        <ele>43.8</ele>
        <time>2023-10-04T13:06:39Z</time>
      </trkpt>
      <trkpt lat="50.05234" lon="2.19912">
        <ele>43.8</ele>
        <time>2023-10-04T13:06:40Z</time>
      </trkpt>
      <trkpt lat="50.05234" lon="2.19913">
        <ele>43.8</ele>
        <time>2023-10-04T13:06:41Z</time>
      </trkpt>
      <trkpt lat="50.05235" lon="2.19914">
        <ele>43.8</ele>
        <time>2023-10-04T13:06:42Z</time>
      </trkpt>
      <trkpt lat="50.05235" lon="2.19915">
        <ele>43.8</ele>
        <time>2023-10-04T13:06:43Z</time>
      </trkpt>
      <trkpt lat="50.05236" lon="2.19916">
        <ele>43.9</ele>
        <time>2023-10-04T13:06:44Z</time>
      </trkpt>
      <trkpt lat="50.05236" lon="2.19918">
        <ele>43.9</ele>
        <time>2023-10-04T13:06:45Z</time>
      </trkpt>
      <trkpt lat="50.05236" lon="2.19919">
        <ele>43.9</ele>
        <time>2023-10-04T13:06:46Z</time>
      </trkpt>
      <trkpt lat="50.05237" lon="2.19922">
        <ele>43.9</ele>
        <time>2023-10-04T13:06:47Z</time>
      </trkpt>
      <trkpt lat="50.05237" lon="2.19924">
        <ele>43.9</ele>
        <time>2023-10-04T13:06:48Z</time>
      </trkpt>
      <trkpt lat="50.05237" lon="2.19925">
        <ele>44</ele>
        <time>2023-10-04T13:06:49Z</time>
      </trkpt>
      <trkpt lat="50.05238" lon="2.19927">
        <ele>44</ele>
        <time>2023-10-04T13:06:50Z</time>
      </trkpt>
      <trkpt lat="50.05238" lon="2.19929">
        <ele>44</ele>
        <time>2023-10-04T13:06:51Z</time>
      </trkpt>
      <trkpt lat="50.05239" lon="2.19931">
        <ele>44</ele>
        <time>2023-10-04T13:06:52Z</time>
      </trkpt>
      <trkpt lat="50.05239" lon="2.19933">
        <ele>44</ele>
        <time>2023-10-04T13:06:53Z</time>
      </trkpt>
      <trkpt lat="50.0524" lon="2.19935">
        <ele>44.1</ele>
        <time>2023-10-04T13:06:54Z</time>
      </trkpt>
      <trkpt lat="50.0524" lon="2.19937">
        <ele>44.1</ele>
        <time>2023-10-04T13:06:55Z</time>
      </trkpt>
      <trkpt lat="50.0524" lon="2.19939">
        <ele>44.1</ele>
        <time>2023-10-04T13:06:56Z</time>
      </trkpt>
      <trkpt lat="50.05241" lon="2.19941">
        <ele>44.1</ele>
        <time>2023-10-04T13:06:57Z</time>
      </trkpt>
      <trkpt lat="50.05241" lon="2.19942">
        <ele>44.1</ele>
        <time>2023-10-04T13:06:58Z</time>
      </trkpt>
      <trkpt lat="50.05241" lon="2.19943">
        <ele>44.1</ele>
        <time>2023-10-04T13:06:59Z</time>
      </trkpt>
      <trkpt lat="50.05242" lon="2.19945">
        <ele>44.1</ele>
        <time>2023-10-04T13:07:00Z</time>
      </trkpt>
      <trkpt lat="50.05242" lon="2.19946">
        <ele>44.2</ele>
        <time>2023-10-04T13:07:01Z</time>
      </trkpt>
      <trkpt lat="50.05243" lon="2.19947">
        <ele>44.2</ele>
        <time>2023-10-04T13:07:02Z</time>
      </trkpt>
      <trkpt lat="50.05243" lon="2.19949">
        <ele>44.2</ele>
        <time>2023-10-04T13:07:03Z</time>
      </trkpt>
      <trkpt lat="50.05244" lon="2.19951">
        <ele>44.2</ele>
        <time>2023-10-04T13:07:04Z</time>
      </trkpt>
      <trkpt lat="50.05244" lon="2.19952">
        <ele>44.2</ele>
        <time>2023-10-04T13:07:05Z</time>
      </trkpt>
      <trkpt lat="50.05245" lon="2.19954">
        <ele>44.2</ele>
        <time>2023-10-04T13:07:06Z</time>
      </trkpt>
      <trkpt lat="50.05246" lon="2.19955">
        <ele>44.3</ele>
        <time>2023-10-04T13:07:07Z</time>
      </trkpt>
      <trkpt lat="50.05247" lon="2.19958">
        <ele>44.3</ele>
        <time>2023-10-04T13:07:08Z</time>
      </trkpt>
      <trkpt lat="50.05247" lon="2.19959">
        <ele>44.3</ele>
        <time>2023-10-04T13:07:09Z</time>
      </trkpt>
      <trkpt lat="50.05248" lon="2.1996">
        <ele>44.3</ele>
        <time>2023-10-04T13:07:10Z</time>
      </trkpt>
      <trkpt lat="50.05248" lon="2.19961">
        <ele>44.3</ele>
        <time>2023-10-04T13:07:11Z</time>
      </trkpt>
      <trkpt lat="50.05248" lon="2.19962">
        <ele>44.4</ele>
        <time>2023-10-04T13:07:12Z</time>
      </trkpt>
      <trkpt lat="50.05249" lon="2.19963">
        <ele>44.4</ele>
        <time>2023-10-04T13:07:13Z</time>
      </trkpt>
      <trkpt lat="50.05249" lon="2.19964">
        <ele>44.4</ele>
        <time>2023-10-04T13:07:14Z</time>
      </trkpt>
      <trkpt lat="50.05249" lon="2.19966">
        <ele>44.4</ele>
        <time>2023-10-04T13:07:15Z</time>
      </trkpt>
      <trkpt lat="50.0525" lon="2.19967">
        <ele>44.4</ele>
        <time>2023-10-04T13:07:16Z</time>
      </trkpt>
      <trkpt lat="50.0525" lon="2.19968">
        <ele>44.4</ele>
        <time>2023-10-04T13:07:17Z</time>
      </trkpt>
      <trkpt lat="50.05251" lon="2.1997">
        <ele>44.5</ele>
        <time>2023-10-04T13:07:18Z</time>
      </trkpt>
      <trkpt lat="50.05251" lon="2.19971">
        <ele>44.5</ele>
        <time>2023-10-04T13:07:19Z</time>
      </trkpt>
      <trkpt lat="50.05251" lon="2.19972">
        <ele>44.5</ele>
        <time>2023-10-04T13:07:20Z</time>
      </trkpt>
      <trkpt lat="50.05251" lon="2.19973">
        <ele>44.5</ele>
        <time>2023-10-04T13:07:21Z</time>
      </trkpt>
      <trkpt lat="50.05252" lon="2.19975">
        <ele>44.5</ele>
        <time>2023-10-04T13:07:22Z</time>
      </trkpt>
      <trkpt lat="50.05252" lon="2.19976">
        <ele>44.6</ele>
        <time>2023-10-04T13:07:23Z</time>
      </trkpt>
      <trkpt lat="50.05252" lon="2.19978">
        <ele>44.6</ele>
        <time>2023-10-04T13:07:24Z</time>
      </trkpt>
      <trkpt lat="50.05252" lon="2.19979">
        <ele>44.6</ele>
        <time>2023-10-04T13:07:25Z</time>
      </trkpt>
      <trkpt lat="50.05253" lon="2.1998">
        <ele>44.6</ele>
        <time>2023-10-04T13:07:26Z</time>
      </trkpt>
      <trkpt lat="50.05253" lon="2.19982">
        <ele>44.6</ele>
        <time>2023-10-04T13:07:27Z</time>
      </trkpt>
      <trkpt lat="50.05254" lon="2.19983">
        <ele>44.6</ele>
        <time>2023-10-04T13:07:28Z</time>
      </trkpt>
      <trkpt lat="50.05254" lon="2.19984">
        <ele>44.7</ele>
        <time>2023-10-04T13:07:29Z</time>
      </trkpt>
      <trkpt lat="50.05254" lon="2.19985">
        <ele>44.7</ele>
        <time>2023-10-04T13:07:30Z</time>
      </trkpt>
      <trkpt lat="50.05255" lon="2.19987">
        <ele>44.7</ele>
        <time>2023-10-04T13:07:31Z</time>
      </trkpt>
      <trkpt lat="50.05255" lon="2.19988">
        <ele>44.7</ele>
        <time>2023-10-04T13:07:32Z</time>
      </trkpt>
      <trkpt lat="50.05256" lon="2.1999">
        <ele>44.7</ele>
        <time>2023-10-04T13:07:33Z</time>
      </trkpt>
      <trkpt lat="50.05256" lon="2.19991">
        <ele>44.7</ele>
        <time>2023-10-04T13:07:34Z</time>
      </trkpt>
      <trkpt lat="50.05256" lon="2.19992">
        <ele>44.8</ele>
        <time>2023-10-04T13:07:35Z</time>
      </trkpt>
      <trkpt lat="50.05257" lon="2.19994">
        <ele>44.8</ele>
        <time>2023-10-04T13:07:36Z</time>
      </trkpt>
      <trkpt lat="50.05257" lon="2.19995">
        <ele>44.8</ele>
        <time>2023-10-04T13:07:37Z</time>
      </trkpt>
      <trkpt lat="50.05257" lon="2.19997">
        <ele>44.8</ele>
        <time>2023-10-04T13:07:38Z</time>
      </trkpt>
      <trkpt lat="50.05258" lon="2.19998">
        <ele>44.8</ele>
        <time>2023-10-04T13:07:39Z</time>
      </trkpt>
      <trkpt lat="50.05258" lon="2.2">
        <ele>44.9</ele>
        <time>2023-10-04T13:07:40Z</time>
      </trkpt>
      <trkpt lat="50.05259" lon="2.20003">
        <ele>44.9</ele>
        <time>2023-10-04T13:07:41Z</time>
      </trkpt>
      <trkpt lat="50.0526" lon="2.20004">
        <ele>44.9</ele>
        <time>2023-10-04T13:07:42Z</time>
      </trkpt>
      <trkpt lat="50.0526" lon="2.20005">
        <ele>44.9</ele>
        <time>2023-10-04T13:07:43Z</time>
      </trkpt>
      <trkpt lat="50.05261" lon="2.20007">
        <ele>44.9</ele>
        <time>2023-10-04T13:07:44Z</time>
      </trkpt>
      <trkpt lat="50.05261" lon="2.20008">
        <ele>45</ele>
        <time>2023-10-04T13:07:45Z</time>
      </trkpt>
      <trkpt lat="50.05262" lon="2.2001">
        <ele>45</ele>
        <time>2023-10-04T13:07:46Z</time>
      </trkpt>
      <trkpt lat="50.05262" lon="2.20011">
        <ele>45</ele>
        <time>2023-10-04T13:07:47Z</time>
      </trkpt>
      <trkpt lat="50.05263" lon="2.20013">
        <ele>45</ele>
        <time>2023-10-04T13:07:48Z</time>
      </trkpt>
      <trkpt lat="50.05263" lon="2.20014">
        <ele>45</ele>
        <time>2023-10-04T13:07:49Z</time>
      </trkpt>
      <trkpt lat="50.05264" lon="2.20016">
        <ele>45</ele>
        <time>2023-10-04T13:07:50Z</time>
      </trkpt>
      <trkpt lat="50.05265" lon="2.20017">
        <ele>45.1</ele>
        <time>2023-10-04T13:07:51Z</time>
      </trkpt>
      <trkpt lat="50.05265" lon="2.20018">
        <ele>45.1</ele>
        <time>2023-10-04T13:07:52Z</time>
      </trkpt>
      <trkpt lat="50.05266" lon="2.2002">
        <ele>45.1</ele>
        <time>2023-10-04T13:07:53Z</time>
      </trkpt>
      <trkpt lat="50.05266" lon="2.20022">
        <ele>45.1</ele>
        <time>2023-10-04T13:07:54Z</time>
      </trkpt>
      <trkpt lat="50.05267" lon="2.20023">
        <ele>45.1</ele>
        <time>2023-10-04T13:07:55Z</time>
      </trkpt>
      <trkpt lat="50.05267" lon="2.20025">
        <ele>45.2</ele>
        <time>2023-10-04T13:07:56Z</time>
      </trkpt>
      <trkpt lat="50.05268" lon="2.20027">
        <ele>45.2</ele>
        <time>2023-10-04T13:07:57Z</time>
      </trkpt>
      <trkpt lat="50.05268" lon="2.20029">
        <ele>45.2</ele>
        <time>2023-10-04T13:07:58Z</time>
      </trkpt>
      <trkpt lat="50.05269" lon="2.20031">
        <ele>45.3</ele>
        <time>2023-10-04T13:07:59Z</time>
      </trkpt>
      <trkpt lat="50.0527" lon="2.20034">
        <ele>45.3</ele>
        <time>2023-10-04T13:08:00Z</time>
      </trkpt>
      <trkpt lat="50.0527" lon="2.20035">
        <ele>45.3</ele>
        <time>2023-10-04T13:08:01Z</time>
      </trkpt>
      <trkpt lat="50.0527" lon="2.20037">
        <ele>45.4</ele>
        <time>2023-10-04T13:08:02Z</time>
      </trkpt>
      <trkpt lat="50.05271" lon="2.2004">
        <ele>45.4</ele>
        <time>2023-10-04T13:08:03Z</time>
      </trkpt>
      <trkpt lat="50.05271" lon="2.20041">
        <ele>45.4</ele>
        <time>2023-10-04T13:08:04Z</time>
      </trkpt>
      <trkpt lat="50.05271" lon="2.20042">
        <ele>45.5</ele>
        <time>2023-10-04T13:08:05Z</time>
      </trkpt>
      <trkpt lat="50.05272" lon="2.20045">
        <ele>45.5</ele>
        <time>2023-10-04T13:08:06Z</time>
      </trkpt>
      <trkpt lat="50.05272" lon="2.20047">
        <ele>45.5</ele>
        <time>2023-10-04T13:08:07Z</time>
      </trkpt>
      <trkpt lat="50.05272" lon="2.20048">
        <ele>45.6</ele>
        <time>2023-10-04T13:08:08Z</time>
      </trkpt>
      <trkpt lat="50.05273" lon="2.2005">
        <ele>45.6</ele>
        <time>2023-10-04T13:08:09Z</time>
      </trkpt>
      <trkpt lat="50.05273" lon="2.20051">
        <ele>45.6</ele>
        <time>2023-10-04T13:08:10Z</time>
      </trkpt>
      <trkpt lat="50.05273" lon="2.20052">
        <ele>45.6</ele>
        <time>2023-10-04T13:08:11Z</time>
      </trkpt>
      <trkpt lat="50.05274" lon="2.20054">
        <ele>45.7</ele>
        <time>2023-10-04T13:08:12Z</time>
      </trkpt>
      <trkpt lat="50.05274" lon="2.20056">
        <ele>45.7</ele>
        <time>2023-10-04T13:08:13Z</time>
      </trkpt>
      <trkpt lat="50.05274" lon="2.20057">
        <ele>45.7</ele>
        <time>2023-10-04T13:08:14Z</time>
      </trkpt>
      <trkpt lat="50.05275" lon="2.2006">
        <ele>45.8</ele>
        <time>2023-10-04T13:08:15Z</time>
      </trkpt>
      <trkpt lat="50.05275" lon="2.20062">
        <ele>45.8</ele>
        <time>2023-10-04T13:08:16Z</time>
      </trkpt>
      <trkpt lat="50.05275" lon="2.20063">
        <ele>45.8</ele>
        <time>2023-10-04T13:08:17Z</time>
      </trkpt>
      <trkpt lat="50.05276" lon="2.20065">
        <ele>45.8</ele>
        <time>2023-10-04T13:08:18Z</time>
      </trkpt>
      <trkpt lat="50.05276" lon="2.20066">
        <ele>45.8</ele>
        <time>2023-10-04T13:08:19Z</time>
      </trkpt>
      <trkpt lat="50.05277" lon="2.20068">
        <ele>45.8</ele>
        <time>2023-10-04T13:08:20Z</time>
      </trkpt>
      <trkpt lat="50.05277" lon="2.20069">
        <ele>45.8</ele>
        <time>2023-10-04T13:08:21Z</time>
      </trkpt>
      <trkpt lat="50.05277" lon="2.2007">
        <ele>45.8</ele>
        <time>2023-10-04T13:08:22Z</time>
      </trkpt>
      <trkpt lat="50.05277" lon="2.20072">
        <ele>45.8</ele>
        <time>2023-10-04T13:08:23Z</time>
      </trkpt>
      <trkpt lat="50.05277" lon="2.20073">
        <ele>45.8</ele>
        <time>2023-10-04T13:08:24Z</time>
      </trkpt>
      <trkpt lat="50.05277" lon="2.20074">
        <ele>45.9</ele>
        <time>2023-10-04T13:08:25Z</time>
      </trkpt>
      <trkpt lat="50.05278" lon="2.20075">
        <ele>45.9</ele>
        <time>2023-10-04T13:08:26Z</time>
      </trkpt>
      <trkpt lat="50.05278" lon="2.20075">
        <ele>45.9</ele>
        <time>2023-10-04T13:08:27Z</time>
      </trkpt>
      <trkpt lat="50.05279" lon="2.20076">
        <ele>45.9</ele>
        <time>2023-10-04T13:08:28Z</time>
      </trkpt>
      <trkpt lat="50.05279" lon="2.20076">
        <ele>45.9</ele>
        <time>2023-10-04T13:08:29Z</time>
      </trkpt>
      <trkpt lat="50.0528" lon="2.20076">
        <ele>45.9</ele>
        <time>2023-10-04T13:08:30Z</time>
      </trkpt>
      <trkpt lat="50.0528" lon="2.20076">
        <ele>45.9</ele>
        <time>2023-10-04T13:08:31Z</time>
      </trkpt>
      <trkpt lat="50.0528" lon="2.20075">
        <ele>45.9</ele>
        <time>2023-10-04T13:08:32Z</time>
      </trkpt>
      <trkpt lat="50.0528" lon="2.20075">
        <ele>45.9</ele>
        <time>2023-10-04T13:08:33Z</time>
      </trkpt>
      <trkpt lat="50.0528" lon="2.20075">
        <ele>45.9</ele>
        <time>2023-10-04T13:08:34Z</time>
      </trkpt>
      <trkpt lat="50.0528" lon="2.20075">
        <ele>45.9</ele>
        <time>2023-10-04T13:08:35Z</time>
      </trkpt>
      <trkpt lat="50.0528" lon="2.20075">
        <ele>45.9</ele>
        <time>2023-10-04T13:08:36Z</time>
      </trkpt>
      <trkpt lat="50.0528" lon="2.20075">
        <ele>45.9</ele>
        <time>2023-10-04T13:08:37Z</time>
      </trkpt>
      <trkpt lat="50.05281" lon="2.20076">
        <ele>45.9</ele>
        <time>2023-10-04T13:08:38Z</time>
      </trkpt>
      <trkpt lat="50.05281" lon="2.20076">
        <ele>45.9</ele>
        <time>2023-10-04T13:08:39Z</time>
      </trkpt>
      <trkpt lat="50.05281" lon="2.20077">
        <ele>45.9</ele>
        <time>2023-10-04T13:08:40Z</time>
      </trkpt>
      <trkpt lat="50.05282" lon="2.20077">
        <ele>45.9</ele>
        <time>2023-10-04T13:08:41Z</time>
      </trkpt>
      <trkpt lat="50.05282" lon="2.20078">
        <ele>45.9</ele>
        <time>2023-10-04T13:08:42Z</time>
      </trkpt>
      <trkpt lat="50.05282" lon="2.20079">
        <ele>45.9</ele>
        <time>2023-10-04T13:08:43Z</time>
      </trkpt>
      <trkpt lat="50.05282" lon="2.20079">
        <ele>45.9</ele>
        <time>2023-10-04T13:08:44Z</time>
      </trkpt>
      <trkpt lat="50.05282" lon="2.2008">
        <ele>45.9</ele>
        <time>2023-10-04T13:08:45Z</time>
      </trkpt>
      <trkpt lat="50.05282" lon="2.20081">
        <ele>45.9</ele>
        <time>2023-10-04T13:08:46Z</time>
      </trkpt>
      <trkpt lat="50.05282" lon="2.20082">
        <ele>45.9</ele>
        <time>2023-10-04T13:08:47Z</time>
      </trkpt>
      <trkpt lat="50.05282" lon="2.20083">
        <ele>45.9</ele>
        <time>2023-10-04T13:08:48Z</time>
      </trkpt>
      <trkpt lat="50.05282" lon="2.20084">
        <ele>45.9</ele>
        <time>2023-10-04T13:08:49Z</time>
      </trkpt>
      <trkpt lat="50.05282" lon="2.20086">
        <ele>45.9</ele>
        <time>2023-10-04T13:08:50Z</time>
      </trkpt>
      <trkpt lat="50.05282" lon="2.20087">
        <ele>45.9</ele>
        <time>2023-10-04T13:08:51Z</time>
      </trkpt>
      <trkpt lat="50.05282" lon="2.20088">
        <ele>45.9</ele>
        <time>2023-10-04T13:08:52Z</time>
      </trkpt>
      <trkpt lat="50.05282" lon="2.2009">
        <ele>45.9</ele>
        <time>2023-10-04T13:08:53Z</time>
      </trkpt>
      <trkpt lat="50.05283" lon="2.20091">
        <ele>46</ele>
        <time>2023-10-04T13:08:54Z</time>
      </trkpt>
      <trkpt lat="50.05283" lon="2.20093">
        <ele>46</ele>
        <time>2023-10-04T13:08:55Z</time>
      </trkpt>
      <trkpt lat="50.05283" lon="2.20094">
        <ele>46</ele>
        <time>2023-10-04T13:08:56Z</time>
      </trkpt>
      <trkpt lat="50.05283" lon="2.20095">
        <ele>46</ele>
        <time>2023-10-04T13:08:57Z</time>
      </trkpt>
      <trkpt lat="50.05283" lon="2.20097">
        <ele>46</ele>
        <time>2023-10-04T13:08:58Z</time>
      </trkpt>
      <trkpt lat="50.05284" lon="2.20098">
        <ele>46</ele>
        <time>2023-10-04T13:08:59Z</time>
      </trkpt>
      <trkpt lat="50.05284" lon="2.201">
        <ele>46</ele>
        <time>2023-10-04T13:09:00Z</time>
      </trkpt>
      <trkpt lat="50.05284" lon="2.20101">
        <ele>46</ele>
        <time>2023-10-04T13:09:01Z</time>
      </trkpt>
      <trkpt lat="50.05284" lon="2.20102">
        <ele>46</ele>
        <time>2023-10-04T13:09:02Z</time>
      </trkpt>
      <trkpt lat="50.05285" lon="2.20103">
        <ele>46</ele>
        <time>2023-10-04T13:09:03Z</time>
      </trkpt>
      <trkpt lat="50.05285" lon="2.20104">
        <ele>46</ele>
        <time>2023-10-04T13:09:04Z</time>
      </trkpt>
      <trkpt lat="50.05285" lon="2.20105">
        <ele>46</ele>
        <time>2023-10-04T13:09:05Z</time>
      </trkpt>
      <trkpt lat="50.05285" lon="2.20107">
        <ele>46</ele>
        <time>2023-10-04T13:09:06Z</time>
      </trkpt>
      <trkpt lat="50.05285" lon="2.20108">
        <ele>46</ele>
        <time>2023-10-04T13:09:07Z</time>
      </trkpt>
      <trkpt lat="50.05286" lon="2.20109">
        <ele>46</ele>
        <time>2023-10-04T13:09:08Z</time>
      </trkpt>
      <trkpt lat="50.05286" lon="2.2011">
        <ele>46</ele>
        <time>2023-10-04T13:09:09Z</time>
      </trkpt>
      <trkpt lat="50.05286" lon="2.20111">
        <ele>46.1</ele>
        <time>2023-10-04T13:09:10Z</time>
      </trkpt>
      <trkpt lat="50.05287" lon="2.20112">
        <ele>46.1</ele>
        <time>2023-10-04T13:09:11Z</time>
      </trkpt>
      <trkpt lat="50.05287" lon="2.20112">
        <ele>46.1</ele>
        <time>2023-10-04T13:09:12Z</time>
      </trkpt>
      <trkpt lat="50.05288" lon="2.20113">
        <ele>46.1</ele>
        <time>2023-10-04T13:09:13Z</time>
      </trkpt>
      <trkpt lat="50.05288" lon="2.20115">
        <ele>46.1</ele>
        <time>2023-10-04T13:09:14Z</time>
      </trkpt>
      <trkpt lat="50.05289" lon="2.20116">
        <ele>46.1</ele>
        <time>2023-10-04T13:09:15Z</time>
      </trkpt>
      <trkpt lat="50.05289" lon="2.20116">
        <ele>46.1</ele>
        <time>2023-10-04T13:09:16Z</time>
      </trkpt>
      <trkpt lat="50.0529" lon="2.20117">
        <ele>46.1</ele>
        <time>2023-10-04T13:09:17Z</time>
      </trkpt>
      <trkpt lat="50.0529" lon="2.20118">
        <ele>46.1</ele>
        <time>2023-10-04T13:09:18Z</time>
      </trkpt>
      <trkpt lat="50.05291" lon="2.20119">
        <ele>46.1</ele>
        <time>2023-10-04T13:09:19Z</time>
      </trkpt>
      <trkpt lat="50.05291" lon="2.20119">
        <ele>46.1</ele>
        <time>2023-10-04T13:09:20Z</time>
      </trkpt>
      <trkpt lat="50.05291" lon="2.2012">
        <ele>46.2</ele>
        <time>2023-10-04T13:09:21Z</time>
      </trkpt>
      <trkpt lat="50.05292" lon="2.20121">
        <ele>46.2</ele>
        <time>2023-10-04T13:09:22Z</time>
      </trkpt>
      <trkpt lat="50.05292" lon="2.20122">
        <ele>46.2</ele>
        <time>2023-10-04T13:09:23Z</time>
      </trkpt>
      <trkpt lat="50.05293" lon="2.20123">
        <ele>46.2</ele>
        <time>2023-10-04T13:09:24Z</time>
      </trkpt>
      <trkpt lat="50.05293" lon="2.20124">
        <ele>46.2</ele>
        <time>2023-10-04T13:09:25Z</time>
      </trkpt>
      <trkpt lat="50.05294" lon="2.20126">
        <ele>46.2</ele>
        <time>2023-10-04T13:09:26Z</time>
      </trkpt>
      <trkpt lat="50.05294" lon="2.20127">
        <ele>46.2</ele>
        <time>2023-10-04T13:09:27Z</time>
      </trkpt>
      <trkpt lat="50.05294" lon="2.20128">
        <ele>46.2</ele>
        <time>2023-10-04T13:09:28Z</time>
      </trkpt>
      <trkpt lat="50.05294" lon="2.20128">
        <ele>46.2</ele>
        <time>2023-10-04T13:09:29Z</time>
      </trkpt>
      <trkpt lat="50.05295" lon="2.20129">
        <ele>46.2</ele>
        <time>2023-10-04T13:09:30Z</time>
      </trkpt>
      <trkpt lat="50.05295" lon="2.20129">
        <ele>46.3</ele>
        <time>2023-10-04T13:09:31Z</time>
      </trkpt>
      <trkpt lat="50.05295" lon="2.2013">
        <ele>46.3</ele>
        <time>2023-10-04T13:09:32Z</time>
      </trkpt>
      <trkpt lat="50.05295" lon="2.20132">
        <ele>46.3</ele>
        <time>2023-10-04T13:09:33Z</time>
      </trkpt>
      <trkpt lat="50.05296" lon="2.20133">
        <ele>46.3</ele>
        <time>2023-10-04T13:09:34Z</time>
      </trkpt>
      <trkpt lat="50.05296" lon="2.20134">
        <ele>46.3</ele>
        <time>2023-10-04T13:09:35Z</time>
      </trkpt>
      <trkpt lat="50.05296" lon="2.20135">
        <ele>46.3</ele>
        <time>2023-10-04T13:09:36Z</time>
      </trkpt>
      <trkpt lat="50.05297" lon="2.20137">
        <ele>46.3</ele>
        <time>2023-10-04T13:09:37Z</time>
      </trkpt>
      <trkpt lat="50.05297" lon="2.20139">
        <ele>46.4</ele>
        <time>2023-10-04T13:09:38Z</time>
      </trkpt>
      <trkpt lat="50.05298" lon="2.20141">
        <ele>46.4</ele>
        <time>2023-10-04T13:09:39Z</time>
      </trkpt>
      <trkpt lat="50.05298" lon="2.20144">
        <ele>46.4</ele>
        <time>2023-10-04T13:09:40Z</time>
      </trkpt>
      <trkpt lat="50.05298" lon="2.20146">
        <ele>46.4</ele>
        <time>2023-10-04T13:09:41Z</time>
      </trkpt>
      <trkpt lat="50.05299" lon="2.20147">
        <ele>46.4</ele>
        <time>2023-10-04T13:09:42Z</time>
      </trkpt>
      <trkpt lat="50.05299" lon="2.2015">
        <ele>46.5</ele>
        <time>2023-10-04T13:09:43Z</time>
      </trkpt>
      <trkpt lat="50.05299" lon="2.20151">
        <ele>46.5</ele>
        <time>2023-10-04T13:09:44Z</time>
      </trkpt>
      <trkpt lat="50.053" lon="2.20152">
        <ele>46.5</ele>
        <time>2023-10-04T13:09:45Z</time>
      </trkpt>
      <trkpt lat="50.053" lon="2.20155">
        <ele>46.5</ele>
        <time>2023-10-04T13:09:46Z</time>
      </trkpt>
      <trkpt lat="50.053" lon="2.20157">
        <ele>46.5</ele>
        <time>2023-10-04T13:09:47Z</time>
      </trkpt>
      <trkpt lat="50.053" lon="2.20159">
        <ele>46.5</ele>
        <time>2023-10-04T13:09:48Z</time>
      </trkpt>
      <trkpt lat="50.05301" lon="2.20161">
        <ele>46.5</ele>
        <time>2023-10-04T13:09:49Z</time>
      </trkpt>
      <trkpt lat="50.05301" lon="2.20164">
        <ele>46.6</ele>
        <time>2023-10-04T13:09:50Z</time>
      </trkpt>
      <trkpt lat="50.05301" lon="2.20166">
        <ele>46.6</ele>
        <time>2023-10-04T13:09:51Z</time>
      </trkpt>
      <trkpt lat="50.05301" lon="2.20167">
        <ele>46.6</ele>
        <time>2023-10-04T13:09:52Z</time>
      </trkpt>
      <trkpt lat="50.05302" lon="2.20168">
        <ele>46.6</ele>
        <time>2023-10-04T13:09:53Z</time>
      </trkpt>
      <trkpt lat="50.05302" lon="2.2017">
        <ele>46.6</ele>
        <time>2023-10-04T13:09:54Z</time>
      </trkpt>
      <trkpt lat="50.05302" lon="2.20172">
        <ele>46.6</ele>
        <time>2023-10-04T13:09:55Z</time>
      </trkpt>
      <trkpt lat="50.05302" lon="2.20174">
        <ele>46.6</ele>
        <time>2023-10-04T13:09:56Z</time>
      </trkpt>
      <trkpt lat="50.05303" lon="2.20175">
        <ele>46.6</ele>
        <time>2023-10-04T13:09:57Z</time>
      </trkpt>
      <trkpt lat="50.05303" lon="2.20177">
        <ele>46.6</ele>
        <time>2023-10-04T13:09:58Z</time>
      </trkpt>
      <trkpt lat="50.05303" lon="2.2018">
        <ele>46.7</ele>
        <time>2023-10-04T13:09:59Z</time>
      </trkpt>
      <trkpt lat="50.05304" lon="2.20182">
        <ele>46.7</ele>
        <time>2023-10-04T13:10:00Z</time>
      </trkpt>
      <trkpt lat="50.05304" lon="2.20183">
        <ele>46.7</ele>
        <time>2023-10-04T13:10:01Z</time>
      </trkpt>
      <trkpt lat="50.05304" lon="2.20186">
        <ele>46.7</ele>
        <time>2023-10-04T13:10:02Z</time>
      </trkpt>
      <trkpt lat="50.05305" lon="2.20187">
        <ele>46.7</ele>
        <time>2023-10-04T13:10:03Z</time>
      </trkpt>
      <trkpt lat="50.05305" lon="2.20189">
        <ele>46.7</ele>
        <time>2023-10-04T13:10:04Z</time>
      </trkpt>
      <trkpt lat="50.05305" lon="2.2019">
        <ele>46.7</ele>
        <time>2023-10-04T13:10:05Z</time>
      </trkpt>
      <trkpt lat="50.05306" lon="2.20192">
        <ele>46.7</ele>
        <time>2023-10-04T13:10:06Z</time>
      </trkpt>
      <trkpt lat="50.05306" lon="2.20193">
        <ele>46.7</ele>
        <time>2023-10-04T13:10:07Z</time>
      </trkpt>
      <trkpt lat="50.05307" lon="2.20194">
        <ele>46.7</ele>
        <time>2023-10-04T13:10:08Z</time>
      </trkpt>
      <trkpt lat="50.05307" lon="2.20196">
        <ele>46.8</ele>
        <time>2023-10-04T13:10:09Z</time>
      </trkpt>
      <trkpt lat="50.05307" lon="2.20197">
        <ele>46.8</ele>
        <time>2023-10-04T13:10:10Z</time>
      </trkpt>
      <trkpt lat="50.05308" lon="2.20198">
        <ele>46.8</ele>
        <time>2023-10-04T13:10:11Z</time>
      </trkpt>
      <trkpt lat="50.05308" lon="2.20199">
        <ele>46.8</ele>
        <time>2023-10-04T13:10:12Z</time>
      </trkpt>
      <trkpt lat="50.05308" lon="2.20201">
        <ele>46.8</ele>
        <time>2023-10-04T13:10:13Z</time>
      </trkpt>
      <trkpt lat="50.05308" lon="2.20202">
        <ele>46.8</ele>
        <time>2023-10-04T13:10:14Z</time>
      </trkpt>
      <trkpt lat="50.05309" lon="2.20203">
        <ele>46.8</ele>
        <time>2023-10-04T13:10:15Z</time>
      </trkpt>
      <trkpt lat="50.05309" lon="2.20204">
        <ele>46.8</ele>
        <time>2023-10-04T13:10:16Z</time>
      </trkpt>
      <trkpt lat="50.05309" lon="2.20206">
        <ele>46.8</ele>
        <time>2023-10-04T13:10:17Z</time>
      </trkpt>
      <trkpt lat="50.0531" lon="2.20207">
        <ele>46.8</ele>
        <time>2023-10-04T13:10:18Z</time>
      </trkpt>
      <trkpt lat="50.0531" lon="2.20209">
        <ele>46.8</ele>
        <time>2023-10-04T13:10:19Z</time>
      </trkpt>
      <trkpt lat="50.05311" lon="2.2021">
        <ele>46.8</ele>
        <time>2023-10-04T13:10:20Z</time>
      </trkpt>
      <trkpt lat="50.05311" lon="2.20211">
        <ele>46.9</ele>
        <time>2023-10-04T13:10:21Z</time>
      </trkpt>
      <trkpt lat="50.05311" lon="2.20212">
        <ele>46.9</ele>
        <time>2023-10-04T13:10:22Z</time>
      </trkpt>
      <trkpt lat="50.05312" lon="2.20213">
        <ele>46.9</ele>
        <time>2023-10-04T13:10:23Z</time>
      </trkpt>
      <trkpt lat="50.05313" lon="2.20214">
        <ele>46.9</ele>
        <time>2023-10-04T13:10:24Z</time>
      </trkpt>
      <trkpt lat="50.05313" lon="2.20216">
        <ele>46.9</ele>
        <time>2023-10-04T13:10:25Z</time>
      </trkpt>
      <trkpt lat="50.05314" lon="2.20217">
        <ele>46.9</ele>
        <time>2023-10-04T13:10:26Z</time>
      </trkpt>
      <trkpt lat="50.05314" lon="2.20218">
        <ele>46.9</ele>
        <time>2023-10-04T13:10:27Z</time>
      </trkpt>
      <trkpt lat="50.05315" lon="2.20219">
        <ele>46.9</ele>
        <time>2023-10-04T13:10:28Z</time>
      </trkpt>
      <trkpt lat="50.05316" lon="2.20221">
        <ele>46.9</ele>
        <time>2023-10-04T13:10:29Z</time>
      </trkpt>
      <trkpt lat="50.05317" lon="2.20222">
        <ele>46.9</ele>
        <time>2023-10-04T13:10:30Z</time>
      </trkpt>
      <trkpt lat="50.05317" lon="2.20223">
        <ele>47</ele>
        <time>2023-10-04T13:10:31Z</time>
      </trkpt>
      <trkpt lat="50.05318" lon="2.20224">
        <ele>47</ele>
        <time>2023-10-04T13:10:32Z</time>
      </trkpt>
      <trkpt lat="50.05319" lon="2.20225">
        <ele>47</ele>
        <time>2023-10-04T13:10:33Z</time>
      </trkpt>
      <trkpt lat="50.05319" lon="2.20226">
        <ele>47</ele>
        <time>2023-10-04T13:10:34Z</time>
      </trkpt>
      <trkpt lat="50.0532" lon="2.20227">
        <ele>47</ele>
        <time>2023-10-04T13:10:35Z</time>
      </trkpt>
      <trkpt lat="50.0532" lon="2.20228">
        <ele>47</ele>
        <time>2023-10-04T13:10:36Z</time>
      </trkpt>
      <trkpt lat="50.05321" lon="2.20229">
        <ele>47</ele>
        <time>2023-10-04T13:10:37Z</time>
      </trkpt>
      <trkpt lat="50.05321" lon="2.2023">
        <ele>47</ele>
        <time>2023-10-04T13:10:38Z</time>
      </trkpt>
      <trkpt lat="50.05322" lon="2.20232">
        <ele>47</ele>
        <time>2023-10-04T13:10:39Z</time>
      </trkpt>
      <trkpt lat="50.05323" lon="2.20233">
        <ele>47</ele>
        <time>2023-10-04T13:10:40Z</time>
      </trkpt>
      <trkpt lat="50.05323" lon="2.20235">
        <ele>47</ele>
        <time>2023-10-04T13:10:41Z</time>
      </trkpt>
      <trkpt lat="50.05325" lon="2.20237">
        <ele>47.1</ele>
        <time>2023-10-04T13:10:42Z</time>
      </trkpt>
      <trkpt lat="50.05325" lon="2.20238">
        <ele>47.1</ele>
        <time>2023-10-04T13:10:43Z</time>
      </trkpt>
      <trkpt lat="50.05326" lon="2.2024">
        <ele>47.1</ele>
        <time>2023-10-04T13:10:44Z</time>
      </trkpt>
      <trkpt lat="50.05327" lon="2.20242">
        <ele>47.1</ele>
        <time>2023-10-04T13:10:45Z</time>
      </trkpt>
      <trkpt lat="50.05327" lon="2.20243">
        <ele>47.1</ele>
        <time>2023-10-04T13:10:46Z</time>
      </trkpt>
      <trkpt lat="50.05327" lon="2.20245">
        <ele>47.1</ele>
        <time>2023-10-04T13:10:47Z</time>
      </trkpt>
      <trkpt lat="50.05328" lon="2.20248">
        <ele>47.1</ele>
        <time>2023-10-04T13:10:48Z</time>
      </trkpt>
      <trkpt lat="50.05329" lon="2.20249">
        <ele>47.2</ele>
        <time>2023-10-04T13:10:49Z</time>
      </trkpt>
      <trkpt lat="50.05329" lon="2.2025">
        <ele>47.2</ele>
        <time>2023-10-04T13:10:50Z</time>
      </trkpt>
      <trkpt lat="50.0533" lon="2.20253">
        <ele>47.2</ele>
        <time>2023-10-04T13:10:51Z</time>
      </trkpt>
      <trkpt lat="50.0533" lon="2.20255">
        <ele>47.2</ele>
        <time>2023-10-04T13:10:52Z</time>
      </trkpt>
      <trkpt lat="50.05331" lon="2.20256">
        <ele>47.2</ele>
        <time>2023-10-04T13:10:53Z</time>
      </trkpt>
      <trkpt lat="50.05332" lon="2.20258">
        <ele>47.2</ele>
        <time>2023-10-04T13:10:54Z</time>
      </trkpt>
      <trkpt lat="50.05332" lon="2.20259">
        <ele>47.2</ele>
        <time>2023-10-04T13:10:55Z</time>
      </trkpt>
      <trkpt lat="50.05332" lon="2.20261">
        <ele>47.2</ele>
        <time>2023-10-04T13:10:56Z</time>
      </trkpt>
      <trkpt lat="50.05333" lon="2.20262">
        <ele>47.3</ele>
        <time>2023-10-04T13:10:57Z</time>
      </trkpt>
      <trkpt lat="50.05334" lon="2.20264">
        <ele>47.3</ele>
        <time>2023-10-04T13:10:58Z</time>
      </trkpt>
      <trkpt lat="50.05334" lon="2.20265">
        <ele>47.3</ele>
        <time>2023-10-04T13:10:59Z</time>
      </trkpt>
      <trkpt lat="50.05335" lon="2.20267">
        <ele>47.3</ele>
        <time>2023-10-04T13:11:00Z</time>
      </trkpt>
      <trkpt lat="50.05336" lon="2.20268">
        <ele>47.3</ele>
        <time>2023-10-04T13:11:01Z</time>
      </trkpt>
      <trkpt lat="50.05336" lon="2.20269">
        <ele>47.3</ele>
        <time>2023-10-04T13:11:02Z</time>
      </trkpt>
      <trkpt lat="50.05337" lon="2.20271">
        <ele>47.3</ele>
        <time>2023-10-04T13:11:03Z</time>
      </trkpt>
      <trkpt lat="50.05337" lon="2.20272">
        <ele>47.3</ele>
        <time>2023-10-04T13:11:04Z</time>
      </trkpt>
      <trkpt lat="50.05338" lon="2.20274">
        <ele>47.4</ele>
        <time>2023-10-04T13:11:05Z</time>
      </trkpt>
      <trkpt lat="50.05339" lon="2.20276">
        <ele>47.4</ele>
        <time>2023-10-04T13:11:06Z</time>
      </trkpt>
      <trkpt lat="50.05339" lon="2.20278">
        <ele>47.4</ele>
        <time>2023-10-04T13:11:07Z</time>
      </trkpt>
      <trkpt lat="50.05339" lon="2.20279">
        <ele>47.4</ele>
        <time>2023-10-04T13:11:08Z</time>
      </trkpt>
      <trkpt lat="50.0534" lon="2.2028">
        <ele>47.4</ele>
        <time>2023-10-04T13:11:09Z</time>
      </trkpt>
      <trkpt lat="50.0534" lon="2.20282">
        <ele>47.4</ele>
        <time>2023-10-04T13:11:10Z</time>
      </trkpt>
      <trkpt lat="50.05341" lon="2.20283">
        <ele>47.4</ele>
        <time>2023-10-04T13:11:11Z</time>
      </trkpt>
      <trkpt lat="50.05341" lon="2.20284">
        <ele>47.4</ele>
        <time>2023-10-04T13:11:12Z</time>
      </trkpt>
      <trkpt lat="50.05342" lon="2.20286">
        <ele>47.5</ele>
        <time>2023-10-04T13:11:13Z</time>
      </trkpt>
      <trkpt lat="50.05342" lon="2.20288">
        <ele>47.5</ele>
        <time>2023-10-04T13:11:14Z</time>
      </trkpt>
      <trkpt lat="50.05343" lon="2.20289">
        <ele>47.5</ele>
        <time>2023-10-04T13:11:15Z</time>
      </trkpt>
      <trkpt lat="50.05343" lon="2.20291">
        <ele>47.5</ele>
        <time>2023-10-04T13:11:16Z</time>
      </trkpt>
      <trkpt lat="50.05344" lon="2.20293">
        <ele>47.5</ele>
        <time>2023-10-04T13:11:17Z</time>
      </trkpt>
      <trkpt lat="50.05344" lon="2.20294">
        <ele>47.5</ele>
        <time>2023-10-04T13:11:18Z</time>
      </trkpt>
      <trkpt lat="50.05345" lon="2.20296">
        <ele>47.5</ele>
        <time>2023-10-04T13:11:19Z</time>
      </trkpt>
      <trkpt lat="50.05345" lon="2.20298">
        <ele>47.5</ele>
        <time>2023-10-04T13:11:20Z</time>
      </trkpt>
      <trkpt lat="50.05345" lon="2.20299">
        <ele>47.6</ele>
        <time>2023-10-04T13:11:21Z</time>
      </trkpt>
      <trkpt lat="50.05346" lon="2.20301">
        <ele>47.6</ele>
        <time>2023-10-04T13:11:22Z</time>
      </trkpt>
      <trkpt lat="50.05346" lon="2.20302">
        <ele>47.6</ele>
        <time>2023-10-04T13:11:23Z</time>
      </trkpt>
      <trkpt lat="50.05346" lon="2.20304">
        <ele>47.6</ele>
        <time>2023-10-04T13:11:24Z</time>
      </trkpt>
      <trkpt lat="50.05347" lon="2.20305">
        <ele>47.6</ele>
        <time>2023-10-04T13:11:25Z</time>
      </trkpt>
      <trkpt lat="50.05347" lon="2.20307">
        <ele>47.6</ele>
        <time>2023-10-04T13:11:26Z</time>
      </trkpt>
      <trkpt lat="50.05347" lon="2.20309">
        <ele>47.6</ele>
        <time>2023-10-04T13:11:27Z</time>
      </trkpt>
      <trkpt lat="50.05347" lon="2.2031">
        <ele>47.6</ele>
        <time>2023-10-04T13:11:28Z</time>
      </trkpt>
      <trkpt lat="50.05348" lon="2.20312">
        <ele>47.6</ele>
        <time>2023-10-04T13:11:29Z</time>
      </trkpt>
      <trkpt lat="50.05348" lon="2.20314">
        <ele>47.7</ele>
        <time>2023-10-04T13:11:30Z</time>
      </trkpt>
      <trkpt lat="50.05348" lon="2.20315">
        <ele>47.7</ele>
        <time>2023-10-04T13:11:31Z</time>
      </trkpt>
      <trkpt lat="50.05348" lon="2.20317">
        <ele>47.7</ele>
        <time>2023-10-04T13:11:32Z</time>
      </trkpt>
      <trkpt lat="50.05348" lon="2.20318">
        <ele>47.7</ele>
        <time>2023-10-04T13:11:33Z</time>
      </trkpt>
      <trkpt lat="50.05349" lon="2.2032">
        <ele>47.7</ele>
        <time>2023-10-04T13:11:34Z</time>
      </trkpt>
      <trkpt lat="50.05349" lon="2.20321">
        <ele>47.7</ele>
        <time>2023-10-04T13:11:35Z</time>
      </trkpt>
      <trkpt lat="50.05349" lon="2.20323">
        <ele>47.7</ele>
        <time>2023-10-04T13:11:36Z</time>
      </trkpt>
      <trkpt lat="50.05349" lon="2.20325">
        <ele>47.7</ele>
        <time>2023-10-04T13:11:37Z</time>
      </trkpt>
      <trkpt lat="50.0535" lon="2.20326">
        <ele>47.8</ele>
        <time>2023-10-04T13:11:38Z</time>
      </trkpt>
      <trkpt lat="50.0535" lon="2.20328">
        <ele>47.8</ele>
        <time>2023-10-04T13:11:39Z</time>
      </trkpt>
      <trkpt lat="50.05351" lon="2.20329">
        <ele>47.8</ele>
        <time>2023-10-04T13:11:40Z</time>
      </trkpt>
      <trkpt lat="50.05351" lon="2.20331">
        <ele>47.8</ele>
        <time>2023-10-04T13:11:41Z</time>
      </trkpt>
      <trkpt lat="50.05351" lon="2.20332">
        <ele>47.8</ele>
        <time>2023-10-04T13:11:42Z</time>
      </trkpt>
      <trkpt lat="50.05352" lon="2.20334">
        <ele>47.8</ele>
        <time>2023-10-04T13:11:43Z</time>
      </trkpt>
      <trkpt lat="50.05352" lon="2.20336">
        <ele>47.8</ele>
        <time>2023-10-04T13:11:44Z</time>
      </trkpt>
      <trkpt lat="50.05352" lon="2.20337">
        <ele>47.8</ele>
        <time>2023-10-04T13:11:45Z</time>
      </trkpt>
      <trkpt lat="50.05353" lon="2.20339">
        <ele>47.9</ele>
        <time>2023-10-04T13:11:46Z</time>
      </trkpt>
      <trkpt lat="50.05353" lon="2.20341">
        <ele>47.9</ele>
        <time>2023-10-04T13:11:47Z</time>
      </trkpt>
      <trkpt lat="50.05353" lon="2.20342">
        <ele>47.9</ele>
        <time>2023-10-04T13:11:48Z</time>
      </trkpt>
      <trkpt lat="50.05353" lon="2.20344">
        <ele>47.9</ele>
        <time>2023-10-04T13:11:49Z</time>
      </trkpt>
      <trkpt lat="50.05354" lon="2.20346">
        <ele>47.9</ele>
        <time>2023-10-04T13:11:50Z</time>
      </trkpt>
      <trkpt lat="50.05354" lon="2.20348">
        <ele>47.9</ele>
        <time>2023-10-04T13:11:51Z</time>
      </trkpt>
      <trkpt lat="50.05354" lon="2.20349">
        <ele>48</ele>
        <time>2023-10-04T13:11:52Z</time>
      </trkpt>
      <trkpt lat="50.05354" lon="2.20351">
        <ele>48</ele>
        <time>2023-10-04T13:11:53Z</time>
      </trkpt>
      <trkpt lat="50.05355" lon="2.20353">
        <ele>48</ele>
        <time>2023-10-04T13:11:54Z</time>
      </trkpt>
      <trkpt lat="50.05355" lon="2.20354">
        <ele>48</ele>
        <time>2023-10-04T13:11:55Z</time>
      </trkpt>
      <trkpt lat="50.05355" lon="2.20356">
        <ele>48</ele>
        <time>2023-10-04T13:11:56Z</time>
      </trkpt>
      <trkpt lat="50.05356" lon="2.20359">
        <ele>48.1</ele>
        <time>2023-10-04T13:11:57Z</time>
      </trkpt>
      <trkpt lat="50.05356" lon="2.2036">
        <ele>48.1</ele>
        <time>2023-10-04T13:11:58Z</time>
      </trkpt>
      <trkpt lat="50.05356" lon="2.20362">
        <ele>48.1</ele>
        <time>2023-10-04T13:11:59Z</time>
      </trkpt>
      <trkpt lat="50.05356" lon="2.20363">
        <ele>48.1</ele>
        <time>2023-10-04T13:12:00Z</time>
      </trkpt>
      <trkpt lat="50.05356" lon="2.20365">
        <ele>48.1</ele>
        <time>2023-10-04T13:12:01Z</time>
      </trkpt>
      <trkpt lat="50.05357" lon="2.20367">
        <ele>48.1</ele>
        <time>2023-10-04T13:12:02Z</time>
      </trkpt>
      <trkpt lat="50.05357" lon="2.20368">
        <ele>48.1</ele>
        <time>2023-10-04T13:12:03Z</time>
      </trkpt>
      <trkpt lat="50.05357" lon="2.2037">
        <ele>48.2</ele>
        <time>2023-10-04T13:12:04Z</time>
      </trkpt>
      <trkpt lat="50.05358" lon="2.20371">
        <ele>48.2</ele>
        <time>2023-10-04T13:12:05Z</time>
      </trkpt>
      <trkpt lat="50.05358" lon="2.20373">
        <ele>48.2</ele>
        <time>2023-10-04T13:12:06Z</time>
      </trkpt>
      <trkpt lat="50.05359" lon="2.20375">
        <ele>48.2</ele>
        <time>2023-10-04T13:12:07Z</time>
      </trkpt>
      <trkpt lat="50.05359" lon="2.20376">
        <ele>48.2</ele>
        <time>2023-10-04T13:12:08Z</time>
      </trkpt>
      <trkpt lat="50.05359" lon="2.20377">
        <ele>48.2</ele>
        <time>2023-10-04T13:12:09Z</time>
      </trkpt>
      <trkpt lat="50.0536" lon="2.20379">
        <ele>48.2</ele>
        <time>2023-10-04T13:12:10Z</time>
      </trkpt>
      <trkpt lat="50.0536" lon="2.2038">
        <ele>48.3</ele>
        <time>2023-10-04T13:12:11Z</time>
      </trkpt>
      <trkpt lat="50.05361" lon="2.20382">
        <ele>48.3</ele>
        <time>2023-10-04T13:12:12Z</time>
      </trkpt>
      <trkpt lat="50.05361" lon="2.20383">
        <ele>48.3</ele>
        <time>2023-10-04T13:12:13Z</time>
      </trkpt>
      <trkpt lat="50.05362" lon="2.20385">
        <ele>48.3</ele>
        <time>2023-10-04T13:12:14Z</time>
      </trkpt>
      <trkpt lat="50.05362" lon="2.20386">
        <ele>48.3</ele>
        <time>2023-10-04T13:12:15Z</time>
      </trkpt>
      <trkpt lat="50.05363" lon="2.20388">
        <ele>48.3</ele>
        <time>2023-10-04T13:12:16Z</time>
      </trkpt>
      <trkpt lat="50.05363" lon="2.20389">
        <ele>48.3</ele>
        <time>2023-10-04T13:12:17Z</time>
      </trkpt>
      <trkpt lat="50.05364" lon="2.20391">
        <ele>48.4</ele>
        <time>2023-10-04T13:12:18Z</time>
      </trkpt>
      <trkpt lat="50.05364" lon="2.20392">
        <ele>48.4</ele>
        <time>2023-10-04T13:12:19Z</time>
      </trkpt>
      <trkpt lat="50.05365" lon="2.20393">
        <ele>48.4</ele>
        <time>2023-10-04T13:12:20Z</time>
      </trkpt>
      <trkpt lat="50.05365" lon="2.20395">
        <ele>48.4</ele>
        <time>2023-10-04T13:12:21Z</time>
      </trkpt>
      <trkpt lat="50.05366" lon="2.20397">
        <ele>48.4</ele>
        <time>2023-10-04T13:12:22Z</time>
      </trkpt>
      <trkpt lat="50.05366" lon="2.20398">
        <ele>48.4</ele>
        <time>2023-10-04T13:12:23Z</time>
      </trkpt>
      <trkpt lat="50.05367" lon="2.20401">
        <ele>48.5</ele>
        <time>2023-10-04T13:12:24Z</time>
      </trkpt>
      <trkpt lat="50.05367" lon="2.20402">
        <ele>48.5</ele>
        <time>2023-10-04T13:12:25Z</time>
      </trkpt>
      <trkpt lat="50.05368" lon="2.20404">
        <ele>48.5</ele>
        <time>2023-10-04T13:12:26Z</time>
      </trkpt>
      <trkpt lat="50.05368" lon="2.20405">
        <ele>48.5</ele>
        <time>2023-10-04T13:12:27Z</time>
      </trkpt>
      <trkpt lat="50.05369" lon="2.20407">
        <ele>48.5</ele>
        <time>2023-10-04T13:12:28Z</time>
      </trkpt>
      <trkpt lat="50.05369" lon="2.20408">
        <ele>48.5</ele>
        <time>2023-10-04T13:12:29Z</time>
      </trkpt>
      <trkpt lat="50.0537" lon="2.2041">
        <ele>48.6</ele>
        <time>2023-10-04T13:12:30Z</time>
      </trkpt>
      <trkpt lat="50.0537" lon="2.20411">
        <ele>48.6</ele>
        <time>2023-10-04T13:12:31Z</time>
      </trkpt>
      <trkpt lat="50.0537" lon="2.20412">
        <ele>48.6</ele>
        <time>2023-10-04T13:12:32Z</time>
      </trkpt>
      <trkpt lat="50.05371" lon="2.20413">
        <ele>48.6</ele>
        <time>2023-10-04T13:12:33Z</time>
      </trkpt>
      <trkpt lat="50.05371" lon="2.20415">
        <ele>48.6</ele>
        <time>2023-10-04T13:12:34Z</time>
      </trkpt>
      <trkpt lat="50.05371" lon="2.20416">
        <ele>48.6</ele>
        <time>2023-10-04T13:12:35Z</time>
      </trkpt>
      <trkpt lat="50.05372" lon="2.20417">
        <ele>48.6</ele>
        <time>2023-10-04T13:12:36Z</time>
      </trkpt>
      <trkpt lat="50.05372" lon="2.20419">
        <ele>48.7</ele>
        <time>2023-10-04T13:12:37Z</time>
      </trkpt>
      <trkpt lat="50.05372" lon="2.2042">
        <ele>48.7</ele>
        <time>2023-10-04T13:12:38Z</time>
      </trkpt>
      <trkpt lat="50.05373" lon="2.20421">
        <ele>48.7</ele>
        <time>2023-10-04T13:12:39Z</time>
      </trkpt>
      <trkpt lat="50.05373" lon="2.20422">
        <ele>48.7</ele>
        <time>2023-10-04T13:12:40Z</time>
      </trkpt>
      <trkpt lat="50.05373" lon="2.20423">
        <ele>48.7</ele>
        <time>2023-10-04T13:12:41Z</time>
      </trkpt>
      <trkpt lat="50.05373" lon="2.20424">
        <ele>48.7</ele>
        <time>2023-10-04T13:12:42Z</time>
      </trkpt>
      <trkpt lat="50.05373" lon="2.20426">
        <ele>48.7</ele>
        <time>2023-10-04T13:12:43Z</time>
      </trkpt>
      <trkpt lat="50.05374" lon="2.20427">
        <ele>48.7</ele>
        <time>2023-10-04T13:12:44Z</time>
      </trkpt>
      <trkpt lat="50.05374" lon="2.20429">
        <ele>48.8</ele>
        <time>2023-10-04T13:12:45Z</time>
      </trkpt>
      <trkpt lat="50.05375" lon="2.2043">
        <ele>48.8</ele>
        <time>2023-10-04T13:12:46Z</time>
      </trkpt>
      <trkpt lat="50.05375" lon="2.20431">
        <ele>48.8</ele>
        <time>2023-10-04T13:12:47Z</time>
      </trkpt>
      <trkpt lat="50.05375" lon="2.20433">
        <ele>48.8</ele>
        <time>2023-10-04T13:12:48Z</time>
      </trkpt>
      <trkpt lat="50.05375" lon="2.20434">
        <ele>48.8</ele>
        <time>2023-10-04T13:12:49Z</time>
      </trkpt>
      <trkpt lat="50.05376" lon="2.20436">
        <ele>48.8</ele>
        <time>2023-10-04T13:12:50Z</time>
      </trkpt>
      <trkpt lat="50.05376" lon="2.20438">
        <ele>48.9</ele>
        <time>2023-10-04T13:12:51Z</time>
      </trkpt>
      <trkpt lat="50.05376" lon="2.20439">
        <ele>48.9</ele>
        <time>2023-10-04T13:12:52Z</time>
      </trkpt>
      <trkpt lat="50.05377" lon="2.20441">
        <ele>48.9</ele>
        <time>2023-10-04T13:12:53Z</time>
      </trkpt>
      <trkpt lat="50.05377" lon="2.20443">
        <ele>48.9</ele>
        <time>2023-10-04T13:12:54Z</time>
      </trkpt>
      <trkpt lat="50.05377" lon="2.20445">
        <ele>48.9</ele>
        <time>2023-10-04T13:12:55Z</time>
      </trkpt>
      <trkpt lat="50.05378" lon="2.20446">
        <ele>48.9</ele>
        <time>2023-10-04T13:12:56Z</time>
      </trkpt>
      <trkpt lat="50.05378" lon="2.20449">
        <ele>49</ele>
        <time>2023-10-04T13:12:57Z</time>
      </trkpt>
      <trkpt lat="50.05379" lon="2.2045">
        <ele>49</ele>
        <time>2023-10-04T13:12:58Z</time>
      </trkpt>
      <trkpt lat="50.05379" lon="2.20452">
        <ele>49</ele>
        <time>2023-10-04T13:12:59Z</time>
      </trkpt>
      <trkpt lat="50.05379" lon="2.20453">
        <ele>49</ele>
        <time>2023-10-04T13:13:00Z</time>
      </trkpt>
      <trkpt lat="50.0538" lon="2.20455">
        <ele>49</ele>
        <time>2023-10-04T13:13:01Z</time>
      </trkpt>
      <trkpt lat="50.05379" lon="2.20457">
        <ele>49</ele>
        <time>2023-10-04T13:13:02Z</time>
      </trkpt>
      <trkpt lat="50.05379" lon="2.20459">
        <ele>49.1</ele>
        <time>2023-10-04T13:13:03Z</time>
      </trkpt>
      <trkpt lat="50.05378" lon="2.20459">
        <ele>49.1</ele>
        <time>2023-10-04T13:13:04Z</time>
      </trkpt>
      <trkpt lat="50.05377" lon="2.2046">
        <ele>49.1</ele>
        <time>2023-10-04T13:13:05Z</time>
      </trkpt>
      <trkpt lat="50.05377" lon="2.20461">
        <ele>49.1</ele>
        <time>2023-10-04T13:13:06Z</time>
      </trkpt>
      <trkpt lat="50.05378" lon="2.20461">
        <ele>49.1</ele>
        <time>2023-10-04T13:13:07Z</time>
      </trkpt>
      <trkpt lat="50.05378" lon="2.20462">
        <ele>49.1</ele>
        <time>2023-10-04T13:13:08Z</time>
      </trkpt>
      <trkpt lat="50.05378" lon="2.20462">
        <ele>49.1</ele>
        <time>2023-10-04T13:13:09Z</time>
      </trkpt>
      <trkpt lat="50.05379" lon="2.20463">
        <ele>49.1</ele>
        <time>2023-10-04T13:13:10Z</time>
      </trkpt>
      <trkpt lat="50.05379" lon="2.20465">
        <ele>49.1</ele>
        <time>2023-10-04T13:13:11Z</time>
      </trkpt>
      <trkpt lat="50.05379" lon="2.20466">
        <ele>49.1</ele>
        <time>2023-10-04T13:13:12Z</time>
      </trkpt>
      <trkpt lat="50.0538" lon="2.20468">
        <ele>49.1</ele>
        <time>2023-10-04T13:13:13Z</time>
      </trkpt>
      <trkpt lat="50.0538" lon="2.20469">
        <ele>49.1</ele>
        <time>2023-10-04T13:13:14Z</time>
      </trkpt>
      <trkpt lat="50.0538" lon="2.20471">
        <ele>49.1</ele>
        <time>2023-10-04T13:13:15Z</time>
      </trkpt>
      <trkpt lat="50.0538" lon="2.20472">
        <ele>49.1</ele>
        <time>2023-10-04T13:13:16Z</time>
      </trkpt>
      <trkpt lat="50.05381" lon="2.20474">
        <ele>49.2</ele>
        <time>2023-10-04T13:13:17Z</time>
      </trkpt>
      <trkpt lat="50.05381" lon="2.20476">
        <ele>49.2</ele>
        <time>2023-10-04T13:13:18Z</time>
      </trkpt>
      <trkpt lat="50.05381" lon="2.20477">
        <ele>49.2</ele>
        <time>2023-10-04T13:13:19Z</time>
      </trkpt>
      <trkpt lat="50.05381" lon="2.20479">
        <ele>49.2</ele>
        <time>2023-10-04T13:13:20Z</time>
      </trkpt>
      <trkpt lat="50.05382" lon="2.20481">
        <ele>49.2</ele>
        <time>2023-10-04T13:13:21Z</time>
      </trkpt>
      <trkpt lat="50.05382" lon="2.20483">
        <ele>49.2</ele>
        <time>2023-10-04T13:13:22Z</time>
      </trkpt>
      <trkpt lat="50.05383" lon="2.20484">
        <ele>49.2</ele>
        <time>2023-10-04T13:13:23Z</time>
      </trkpt>
      <trkpt lat="50.05383" lon="2.20486">
        <ele>49.2</ele>
        <time>2023-10-04T13:13:24Z</time>
      </trkpt>
      <trkpt lat="50.05383" lon="2.20487">
        <ele>49.2</ele>
        <time>2023-10-04T13:13:25Z</time>
      </trkpt>
      <trkpt lat="50.05383" lon="2.20489">
        <ele>49.2</ele>
        <time>2023-10-04T13:13:26Z</time>
      </trkpt>
      <trkpt lat="50.05384" lon="2.2049">
        <ele>49.2</ele>
        <time>2023-10-04T13:13:27Z</time>
      </trkpt>
      <trkpt lat="50.05384" lon="2.20492">
        <ele>49.3</ele>
        <time>2023-10-04T13:13:28Z</time>
      </trkpt>
      <trkpt lat="50.05384" lon="2.20493">
        <ele>49.3</ele>
        <time>2023-10-04T13:13:29Z</time>
      </trkpt>
      <trkpt lat="50.05385" lon="2.20495">
        <ele>49.3</ele>
        <time>2023-10-04T13:13:30Z</time>
      </trkpt>
      <trkpt lat="50.05385" lon="2.20496">
        <ele>49.3</ele>
        <time>2023-10-04T13:13:31Z</time>
      </trkpt>
      <trkpt lat="50.05385" lon="2.20498">
        <ele>49.3</ele>
        <time>2023-10-04T13:13:32Z</time>
      </trkpt>
      <trkpt lat="50.05385" lon="2.20499">
        <ele>49.3</ele>
        <time>2023-10-04T13:13:33Z</time>
      </trkpt>
      <trkpt lat="50.05386" lon="2.205">
        <ele>49.3</ele>
        <time>2023-10-04T13:13:34Z</time>
      </trkpt>
      <trkpt lat="50.05386" lon="2.20502">
        <ele>49.3</ele>
        <time>2023-10-04T13:13:35Z</time>
      </trkpt>
      <trkpt lat="50.05386" lon="2.20503">
        <ele>49.3</ele>
        <time>2023-10-04T13:13:36Z</time>
      </trkpt>
      <trkpt lat="50.05387" lon="2.20505">
        <ele>49.4</ele>
        <time>2023-10-04T13:13:37Z</time>
      </trkpt>
      <trkpt lat="50.05387" lon="2.20507">
        <ele>49.4</ele>
        <time>2023-10-04T13:13:38Z</time>
      </trkpt>
      <trkpt lat="50.05387" lon="2.20508">
        <ele>49.4</ele>
        <time>2023-10-04T13:13:39Z</time>
      </trkpt>
      <trkpt lat="50.05388" lon="2.2051">
        <ele>49.4</ele>
        <time>2023-10-04T13:13:40Z</time>
      </trkpt>
      <trkpt lat="50.05388" lon="2.20511">
        <ele>49.4</ele>
        <time>2023-10-04T13:13:41Z</time>
      </trkpt>
      <trkpt lat="50.05389" lon="2.20512">
        <ele>49.4</ele>
        <time>2023-10-04T13:13:42Z</time>
      </trkpt>
      <trkpt lat="50.05389" lon="2.20514">
        <ele>49.5</ele>
        <time>2023-10-04T13:13:43Z</time>
      </trkpt>
      <trkpt lat="50.05389" lon="2.20516">
        <ele>49.5</ele>
        <time>2023-10-04T13:13:44Z</time>
      </trkpt>
      <trkpt lat="50.05389" lon="2.20517">
        <ele>49.5</ele>
        <time>2023-10-04T13:13:45Z</time>
      </trkpt>
      <trkpt lat="50.05389" lon="2.20519">
        <ele>49.5</ele>
        <time>2023-10-04T13:13:46Z</time>
      </trkpt>
      <trkpt lat="50.05388" lon="2.2052">
        <ele>49.5</ele>
        <time>2023-10-04T13:13:47Z</time>
      </trkpt>
      <trkpt lat="50.05387" lon="2.2052">
        <ele>49.6</ele>
        <time>2023-10-04T13:13:48Z</time>
      </trkpt>
      <trkpt lat="50.05386" lon="2.20521">
        <ele>49.6</ele>
        <time>2023-10-04T13:13:49Z</time>
      </trkpt>
      <trkpt lat="50.05385" lon="2.20521">
        <ele>49.6</ele>
        <time>2023-10-04T13:13:50Z</time>
      </trkpt>
      <trkpt lat="50.05384" lon="2.20521">
        <ele>49.6</ele>
        <time>2023-10-04T13:13:51Z</time>
      </trkpt>
      <trkpt lat="50.05383" lon="2.20521">
        <ele>49.6</ele>
        <time>2023-10-04T13:13:52Z</time>
      </trkpt>
      <trkpt lat="50.05383" lon="2.20521">
        <ele>49.6</ele>
        <time>2023-10-04T13:13:53Z</time>
      </trkpt>
      <trkpt lat="50.05382" lon="2.20521">
        <ele>49.6</ele>
        <time>2023-10-04T13:13:54Z</time>
      </trkpt>
      <trkpt lat="50.05382" lon="2.20521">
        <ele>49.6</ele>
        <time>2023-10-04T13:13:55Z</time>
      </trkpt>
      <trkpt lat="50.05381" lon="2.20521">
        <ele>49.7</ele>
        <time>2023-10-04T13:13:56Z</time>
      </trkpt>
      <trkpt lat="50.05381" lon="2.20521">
        <ele>49.7</ele>
        <time>2023-10-04T13:13:58Z</time>
      </trkpt>
      <trkpt lat="50.05381" lon="2.2052">
        <ele>49.7</ele>
        <time>2023-10-04T13:13:59Z</time>
      </trkpt>
      <trkpt lat="50.05381" lon="2.2052">
        <ele>49.7</ele>
        <time>2023-10-04T13:14:00Z</time>
      </trkpt>
      <trkpt lat="50.05381" lon="2.2052">
        <ele>49.7</ele>
        <time>2023-10-04T13:14:01Z</time>
      </trkpt>
      <trkpt lat="50.05382" lon="2.20519">
        <ele>49.7</ele>
        <time>2023-10-04T13:14:02Z</time>
      </trkpt>
      <trkpt lat="50.05382" lon="2.20519">
        <ele>49.7</ele>
        <time>2023-10-04T13:14:03Z</time>
      </trkpt>
      <trkpt lat="50.05383" lon="2.20519">
        <ele>49.7</ele>
        <time>2023-10-04T13:14:04Z</time>
      </trkpt>
      <trkpt lat="50.05383" lon="2.20519">
        <ele>49.7</ele>
        <time>2023-10-04T13:14:05Z</time>
      </trkpt>
      <trkpt lat="50.05384" lon="2.20519">
        <ele>49.7</ele>
        <time>2023-10-04T13:14:06Z</time>
      </trkpt>
      <trkpt lat="50.05384" lon="2.20518">
        <ele>49.7</ele>
        <time>2023-10-04T13:14:07Z</time>
      </trkpt>
      <trkpt lat="50.05385" lon="2.20518">
        <ele>49.7</ele>
        <time>2023-10-04T13:14:08Z</time>
      </trkpt>
      <trkpt lat="50.05385" lon="2.20518">
        <ele>49.7</ele>
        <time>2023-10-04T13:14:09Z</time>
      </trkpt>
      <trkpt lat="50.05385" lon="2.20518">
        <ele>49.7</ele>
        <time>2023-10-04T13:14:10Z</time>
      </trkpt>
      <trkpt lat="50.05386" lon="2.20518">
        <ele>49.8</ele>
        <time>2023-10-04T13:14:11Z</time>
      </trkpt>
      <trkpt lat="50.05386" lon="2.20518">
        <ele>49.8</ele>
        <time>2023-10-04T13:14:12Z</time>
      </trkpt>
      <trkpt lat="50.05387" lon="2.20518">
        <ele>49.8</ele>
        <time>2023-10-04T13:14:13Z</time>
      </trkpt>
      <trkpt lat="50.05387" lon="2.20518">
        <ele>49.8</ele>
        <time>2023-10-04T13:14:14Z</time>
      </trkpt>
      <trkpt lat="50.05388" lon="2.20518">
        <ele>49.8</ele>
        <time>2023-10-04T13:14:15Z</time>
      </trkpt>
      <trkpt lat="50.05389" lon="2.20519">
        <ele>49.8</ele>
        <time>2023-10-04T13:14:16Z</time>
      </trkpt>
      <trkpt lat="50.05389" lon="2.20519">
        <ele>49.8</ele>
        <time>2023-10-04T13:14:17Z</time>
      </trkpt>
      <trkpt lat="50.0539" lon="2.2052">
        <ele>49.8</ele>
        <time>2023-10-04T13:14:18Z</time>
      </trkpt>
      <trkpt lat="50.0539" lon="2.2052">
        <ele>49.8</ele>
        <time>2023-10-04T13:14:19Z</time>
      </trkpt>
      <trkpt lat="50.05391" lon="2.2052">
        <ele>49.8</ele>
        <time>2023-10-04T13:14:20Z</time>
      </trkpt>
      <trkpt lat="50.05391" lon="2.2052">
        <ele>49.9</ele>
        <time>2023-10-04T13:14:21Z</time>
      </trkpt>
      <trkpt lat="50.05391" lon="2.2052">
        <ele>49.9</ele>
        <time>2023-10-04T13:14:22Z</time>
      </trkpt>
      <trkpt lat="50.05391" lon="2.2052">
        <ele>49.9</ele>
        <time>2023-10-04T13:14:23Z</time>
      </trkpt>
      <trkpt lat="50.05391" lon="2.2052">
        <ele>49.9</ele>
        <time>2023-10-04T13:14:24Z</time>
      </trkpt>
      <trkpt lat="50.05391" lon="2.2052">
        <ele>49.9</ele>
        <time>2023-10-04T13:14:25Z</time>
      </trkpt>
      <trkpt lat="50.05391" lon="2.2052">
        <ele>49.9</ele>
        <time>2023-10-04T13:14:26Z</time>
      </trkpt>
      <trkpt lat="50.05391" lon="2.20519">
        <ele>49.9</ele>
        <time>2023-10-04T13:14:27Z</time>
      </trkpt>
      <trkpt lat="50.05391" lon="2.20519">
        <ele>49.9</ele>
        <time>2023-10-04T13:14:28Z</time>
      </trkpt>
      <trkpt lat="50.05391" lon="2.20519">
        <ele>49.9</ele>
        <time>2023-10-04T13:14:29Z</time>
      </trkpt>
      <trkpt lat="50.05391" lon="2.20519">
        <ele>49.9</ele>
        <time>2023-10-04T13:14:30Z</time>
      </trkpt>
      <trkpt lat="50.05391" lon="2.20519">
        <ele>49.9</ele>
        <time>2023-10-04T13:14:31Z</time>
      </trkpt>
      <trkpt lat="50.05391" lon="2.2052">
        <ele>49.9</ele>
        <time>2023-10-04T13:14:32Z</time>
      </trkpt>
      <trkpt lat="50.05391" lon="2.2052">
        <ele>49.9</ele>
        <time>2023-10-04T13:14:33Z</time>
      </trkpt>
      <trkpt lat="50.05392" lon="2.2052">
        <ele>49.9</ele>
        <time>2023-10-04T13:14:34Z</time>
      </trkpt>
      <trkpt lat="50.05392" lon="2.20521">
        <ele>49.9</ele>
        <time>2023-10-04T13:14:35Z</time>
      </trkpt>
      <trkpt lat="50.05392" lon="2.20521">
        <ele>49.9</ele>
        <time>2023-10-04T13:14:36Z</time>
      </trkpt>
      <trkpt lat="50.05392" lon="2.20522">
        <ele>49.9</ele>
        <time>2023-10-04T13:14:37Z</time>
      </trkpt>
      <trkpt lat="50.05392" lon="2.20523">
        <ele>49.9</ele>
        <time>2023-10-04T13:14:38Z</time>
      </trkpt>
      <trkpt lat="50.05392" lon="2.20525">
        <ele>49.9</ele>
        <time>2023-10-04T13:14:39Z</time>
      </trkpt>
      <trkpt lat="50.05392" lon="2.20526">
        <ele>49.9</ele>
        <time>2023-10-04T13:14:40Z</time>
      </trkpt>
      <trkpt lat="50.05393" lon="2.20527">
        <ele>49.9</ele>
        <time>2023-10-04T13:14:41Z</time>
      </trkpt>
      <trkpt lat="50.05393" lon="2.20528">
        <ele>49.9</ele>
        <time>2023-10-04T13:14:42Z</time>
      </trkpt>
      <trkpt lat="50.05393" lon="2.20529">
        <ele>50</ele>
        <time>2023-10-04T13:14:43Z</time>
      </trkpt>
      <trkpt lat="50.05393" lon="2.2053">
        <ele>50</ele>
        <time>2023-10-04T13:14:44Z</time>
      </trkpt>
      <trkpt lat="50.05393" lon="2.20531">
        <ele>50</ele>
        <time>2023-10-04T13:14:45Z</time>
      </trkpt>
      <trkpt lat="50.05394" lon="2.20532">
        <ele>50</ele>
        <time>2023-10-04T13:14:46Z</time>
      </trkpt>
      <trkpt lat="50.05394" lon="2.20533">
        <ele>50</ele>
        <time>2023-10-04T13:14:47Z</time>
      </trkpt>
      <trkpt lat="50.05394" lon="2.20534">
        <ele>50</ele>
        <time>2023-10-04T13:14:48Z</time>
      </trkpt>
      <trkpt lat="50.05395" lon="2.20535">
        <ele>50</ele>
        <time>2023-10-04T13:14:49Z</time>
      </trkpt>
      <trkpt lat="50.05395" lon="2.20536">
        <ele>50</ele>
        <time>2023-10-04T13:14:50Z</time>
      </trkpt>
      <trkpt lat="50.05395" lon="2.20537">
        <ele>50</ele>
        <time>2023-10-04T13:14:51Z</time>
      </trkpt>
      <trkpt lat="50.05395" lon="2.20539">
        <ele>50</ele>
        <time>2023-10-04T13:14:52Z</time>
      </trkpt>
      <trkpt lat="50.05396" lon="2.2054">
        <ele>50</ele>
        <time>2023-10-04T13:14:53Z</time>
      </trkpt>
      <trkpt lat="50.05396" lon="2.20542">
        <ele>50.1</ele>
        <time>2023-10-04T13:14:54Z</time>
      </trkpt>
      <trkpt lat="50.05397" lon="2.20544">
        <ele>50.1</ele>
        <time>2023-10-04T13:14:55Z</time>
      </trkpt>
      <trkpt lat="50.05397" lon="2.20546">
        <ele>50.1</ele>
        <time>2023-10-04T13:14:56Z</time>
      </trkpt>
      <trkpt lat="50.05397" lon="2.20548">
        <ele>50.1</ele>
        <time>2023-10-04T13:14:57Z</time>
      </trkpt>
      <trkpt lat="50.05398" lon="2.2055">
        <ele>50.1</ele>
        <time>2023-10-04T13:14:58Z</time>
      </trkpt>
      <trkpt lat="50.05399" lon="2.20554">
        <ele>50.2</ele>
        <time>2023-10-04T13:14:59Z</time>
      </trkpt>
      <trkpt lat="50.05399" lon="2.20555">
        <ele>50.2</ele>
        <time>2023-10-04T13:15:00Z</time>
      </trkpt>
      <trkpt lat="50.05399" lon="2.20556">
        <ele>50.2</ele>
        <time>2023-10-04T13:15:01Z</time>
      </trkpt>
      <trkpt lat="50.054" lon="2.20561">
        <ele>50.2</ele>
        <time>2023-10-04T13:15:02Z</time>
      </trkpt>
      <trkpt lat="50.054" lon="2.20562">
        <ele>50.2</ele>
        <time>2023-10-04T13:15:03Z</time>
      </trkpt>
      <trkpt lat="50.05401" lon="2.20566">
        <ele>50.3</ele>
        <time>2023-10-04T13:15:04Z</time>
      </trkpt>
      <trkpt lat="50.05401" lon="2.20568">
        <ele>50.3</ele>
        <time>2023-10-04T13:15:05Z</time>
      </trkpt>
      <trkpt lat="50.05401" lon="2.2057">
        <ele>50.3</ele>
        <time>2023-10-04T13:15:06Z</time>
      </trkpt>
      <trkpt lat="50.05402" lon="2.20572">
        <ele>50.3</ele>
        <time>2023-10-04T13:15:07Z</time>
      </trkpt>
      <trkpt lat="50.05402" lon="2.20574">
        <ele>50.3</ele>
        <time>2023-10-04T13:15:08Z</time>
      </trkpt>
      <trkpt lat="50.05403" lon="2.20576">
        <ele>50.3</ele>
        <time>2023-10-04T13:15:09Z</time>
      </trkpt>
      <trkpt lat="50.05404" lon="2.20578">
        <ele>50.4</ele>
        <time>2023-10-04T13:15:10Z</time>
      </trkpt>
      <trkpt lat="50.05404" lon="2.2058">
        <ele>50.4</ele>
        <time>2023-10-04T13:15:11Z</time>
      </trkpt>
      <trkpt lat="50.05405" lon="2.20582">
        <ele>50.4</ele>
        <time>2023-10-04T13:15:12Z</time>
      </trkpt>
      <trkpt lat="50.05406" lon="2.20584">
        <ele>50.4</ele>
        <time>2023-10-04T13:15:13Z</time>
      </trkpt>
      <trkpt lat="50.05406" lon="2.20586">
        <ele>50.4</ele>
        <time>2023-10-04T13:15:14Z</time>
      </trkpt>
      <trkpt lat="50.05407" lon="2.20587">
        <ele>50.4</ele>
        <time>2023-10-04T13:15:15Z</time>
      </trkpt>
      <trkpt lat="50.05408" lon="2.2059">
        <ele>50.5</ele>
        <time>2023-10-04T13:15:16Z</time>
      </trkpt>
      <trkpt lat="50.05409" lon="2.20591">
        <ele>50.5</ele>
        <time>2023-10-04T13:15:17Z</time>
      </trkpt>
      <trkpt lat="50.05409" lon="2.20592">
        <ele>50.5</ele>
        <time>2023-10-04T13:15:18Z</time>
      </trkpt>
      <trkpt lat="50.0541" lon="2.20594">
        <ele>50.5</ele>
        <time>2023-10-04T13:15:19Z</time>
      </trkpt>
      <trkpt lat="50.0541" lon="2.20595">
        <ele>50.5</ele>
        <time>2023-10-04T13:15:20Z</time>
      </trkpt>
      <trkpt lat="50.0541" lon="2.20597">
        <ele>50.5</ele>
        <time>2023-10-04T13:15:21Z</time>
      </trkpt>
      <trkpt lat="50.05411" lon="2.20599">
        <ele>50.5</ele>
        <time>2023-10-04T13:15:22Z</time>
      </trkpt>
      <trkpt lat="50.05411" lon="2.206">
        <ele>50.5</ele>
        <time>2023-10-04T13:15:23Z</time>
      </trkpt>
      <trkpt lat="50.05411" lon="2.20602">
        <ele>50.6</ele>
        <time>2023-10-04T13:15:24Z</time>
      </trkpt>
      <trkpt lat="50.05411" lon="2.20604">
        <ele>50.6</ele>
        <time>2023-10-04T13:15:25Z</time>
      </trkpt>
      <trkpt lat="50.05412" lon="2.20606">
        <ele>50.6</ele>
        <time>2023-10-04T13:15:26Z</time>
      </trkpt>
      <trkpt lat="50.05412" lon="2.20607">
        <ele>50.6</ele>
        <time>2023-10-04T13:15:27Z</time>
      </trkpt>
      <trkpt lat="50.05412" lon="2.20609">
        <ele>50.6</ele>
        <time>2023-10-04T13:15:28Z</time>
      </trkpt>
      <trkpt lat="50.05412" lon="2.2061">
        <ele>50.6</ele>
        <time>2023-10-04T13:15:29Z</time>
      </trkpt>
      <trkpt lat="50.05412" lon="2.20612">
        <ele>50.6</ele>
        <time>2023-10-04T13:15:30Z</time>
      </trkpt>
      <trkpt lat="50.05413" lon="2.20613">
        <ele>50.6</ele>
        <time>2023-10-04T13:15:31Z</time>
      </trkpt>
      <trkpt lat="50.05413" lon="2.20615">
        <ele>50.7</ele>
        <time>2023-10-04T13:15:32Z</time>
      </trkpt>
      <trkpt lat="50.05413" lon="2.20617">
        <ele>50.7</ele>
        <time>2023-10-04T13:15:33Z</time>
      </trkpt>
      <trkpt lat="50.05414" lon="2.20619">
        <ele>50.7</ele>
        <time>2023-10-04T13:15:34Z</time>
      </trkpt>
      <trkpt lat="50.05414" lon="2.2062">
        <ele>50.7</ele>
        <time>2023-10-04T13:15:35Z</time>
      </trkpt>
      <trkpt lat="50.05415" lon="2.20622">
        <ele>50.7</ele>
        <time>2023-10-04T13:15:36Z</time>
      </trkpt>
      <trkpt lat="50.05415" lon="2.20623">
        <ele>50.7</ele>
        <time>2023-10-04T13:15:37Z</time>
      </trkpt>
      <trkpt lat="50.05415" lon="2.20625">
        <ele>50.7</ele>
        <time>2023-10-04T13:15:38Z</time>
      </trkpt>
      <trkpt lat="50.05415" lon="2.20626">
        <ele>50.7</ele>
        <time>2023-10-04T13:15:39Z</time>
      </trkpt>
      <trkpt lat="50.05416" lon="2.20628">
        <ele>50.7</ele>
        <time>2023-10-04T13:15:40Z</time>
      </trkpt>
      <trkpt lat="50.05416" lon="2.20629">
        <ele>50.8</ele>
        <time>2023-10-04T13:15:41Z</time>
      </trkpt>
      <trkpt lat="50.05416" lon="2.20631">
        <ele>50.8</ele>
        <time>2023-10-04T13:15:42Z</time>
      </trkpt>
      <trkpt lat="50.05417" lon="2.20632">
        <ele>50.8</ele>
        <time>2023-10-04T13:15:43Z</time>
      </trkpt>
      <trkpt lat="50.05417" lon="2.20634">
        <ele>50.8</ele>
        <time>2023-10-04T13:15:44Z</time>
      </trkpt>
      <trkpt lat="50.05417" lon="2.20635">
        <ele>50.8</ele>
        <time>2023-10-04T13:15:45Z</time>
      </trkpt>
      <trkpt lat="50.05417" lon="2.20636">
        <ele>50.8</ele>
        <time>2023-10-04T13:15:46Z</time>
      </trkpt>
      <trkpt lat="50.05418" lon="2.20638">
        <ele>50.8</ele>
        <time>2023-10-04T13:15:47Z</time>
      </trkpt>
      <trkpt lat="50.05418" lon="2.20639">
        <ele>50.8</ele>
        <time>2023-10-04T13:15:48Z</time>
      </trkpt>
      <trkpt lat="50.05418" lon="2.20641">
        <ele>50.8</ele>
        <time>2023-10-04T13:15:49Z</time>
      </trkpt>
      <trkpt lat="50.05419" lon="2.20642">
        <ele>50.8</ele>
        <time>2023-10-04T13:15:50Z</time>
      </trkpt>
      <trkpt lat="50.05419" lon="2.20644">
        <ele>50.9</ele>
        <time>2023-10-04T13:15:51Z</time>
      </trkpt>
      <trkpt lat="50.05419" lon="2.20646">
        <ele>50.9</ele>
        <time>2023-10-04T13:15:52Z</time>
      </trkpt>
      <trkpt lat="50.0542" lon="2.20647">
        <ele>50.9</ele>
        <time>2023-10-04T13:15:53Z</time>
      </trkpt>
      <trkpt lat="50.0542" lon="2.20649">
        <ele>50.9</ele>
        <time>2023-10-04T13:15:54Z</time>
      </trkpt>
      <trkpt lat="50.0542" lon="2.20651">
        <ele>50.9</ele>
        <time>2023-10-04T13:15:55Z</time>
      </trkpt>
      <trkpt lat="50.0542" lon="2.20653">
        <ele>50.9</ele>
        <time>2023-10-04T13:15:56Z</time>
      </trkpt>
      <trkpt lat="50.0542" lon="2.20654">
        <ele>50.9</ele>
        <time>2023-10-04T13:15:57Z</time>
      </trkpt>
      <trkpt lat="50.05421" lon="2.20655">
        <ele>50.9</ele>
        <time>2023-10-04T13:15:58Z</time>
      </trkpt>
      <trkpt lat="50.05421" lon="2.20657">
        <ele>50.9</ele>
        <time>2023-10-04T13:15:59Z</time>
      </trkpt>
      <trkpt lat="50.05421" lon="2.20658">
        <ele>51</ele>
        <time>2023-10-04T13:16:00Z</time>
      </trkpt>
      <trkpt lat="50.05421" lon="2.2066">
        <ele>51</ele>
        <time>2023-10-04T13:16:01Z</time>
      </trkpt>
      <trkpt lat="50.05421" lon="2.20661">
        <ele>51</ele>
        <time>2023-10-04T13:16:02Z</time>
      </trkpt>
      <trkpt lat="50.05422" lon="2.20663">
        <ele>51</ele>
        <time>2023-10-04T13:16:03Z</time>
      </trkpt>
      <trkpt lat="50.05422" lon="2.20665">
        <ele>51</ele>
        <time>2023-10-04T13:16:04Z</time>
      </trkpt>
      <trkpt lat="50.05422" lon="2.20666">
        <ele>51</ele>
        <time>2023-10-04T13:16:05Z</time>
      </trkpt>
      <trkpt lat="50.05422" lon="2.20668">
        <ele>51</ele>
        <time>2023-10-04T13:16:06Z</time>
      </trkpt>
      <trkpt lat="50.05422" lon="2.2067">
        <ele>51.1</ele>
        <time>2023-10-04T13:16:07Z</time>
      </trkpt>
      <trkpt lat="50.05422" lon="2.20671">
        <ele>51.1</ele>
        <time>2023-10-04T13:16:08Z</time>
      </trkpt>
      <trkpt lat="50.05422" lon="2.20673">
        <ele>51.1</ele>
        <time>2023-10-04T13:16:09Z</time>
      </trkpt>
      <trkpt lat="50.05422" lon="2.20675">
        <ele>51.1</ele>
        <time>2023-10-04T13:16:10Z</time>
      </trkpt>
      <trkpt lat="50.05422" lon="2.20677">
        <ele>51.1</ele>
        <time>2023-10-04T13:16:11Z</time>
      </trkpt>
      <trkpt lat="50.05422" lon="2.20678">
        <ele>51.1</ele>
        <time>2023-10-04T13:16:12Z</time>
      </trkpt>
      <trkpt lat="50.05423" lon="2.20681">
        <ele>51.2</ele>
        <time>2023-10-04T13:16:13Z</time>
      </trkpt>
      <trkpt lat="50.05423" lon="2.20683">
        <ele>51.2</ele>
        <time>2023-10-04T13:16:14Z</time>
      </trkpt>
      <trkpt lat="50.05424" lon="2.20684">
        <ele>51.2</ele>
        <time>2023-10-04T13:16:15Z</time>
      </trkpt>
      <trkpt lat="50.05424" lon="2.20687">
        <ele>51.2</ele>
        <time>2023-10-04T13:16:16Z</time>
      </trkpt>
      <trkpt lat="50.05424" lon="2.20688">
        <ele>51.2</ele>
        <time>2023-10-04T13:16:17Z</time>
      </trkpt>
      <trkpt lat="50.05424" lon="2.2069">
        <ele>51.3</ele>
        <time>2023-10-04T13:16:18Z</time>
      </trkpt>
      <trkpt lat="50.05425" lon="2.20691">
        <ele>51.3</ele>
        <time>2023-10-04T13:16:19Z</time>
      </trkpt>
      <trkpt lat="50.05425" lon="2.20693">
        <ele>51.3</ele>
        <time>2023-10-04T13:16:20Z</time>
      </trkpt>
      <trkpt lat="50.05425" lon="2.20694">
        <ele>51.3</ele>
        <time>2023-10-04T13:16:21Z</time>
      </trkpt>
      <trkpt lat="50.05425" lon="2.20698">
        <ele>51.3</ele>
        <time>2023-10-04T13:16:22Z</time>
      </trkpt>
      <trkpt lat="50.05425" lon="2.20699">
        <ele>51.3</ele>
        <time>2023-10-04T13:16:23Z</time>
      </trkpt>
      <trkpt lat="50.05426" lon="2.207">
        <ele>51.4</ele>
        <time>2023-10-04T13:16:24Z</time>
      </trkpt>
      <trkpt lat="50.05426" lon="2.20702">
        <ele>51.4</ele>
        <time>2023-10-04T13:16:25Z</time>
      </trkpt>
      <trkpt lat="50.05426" lon="2.20704">
        <ele>51.4</ele>
        <time>2023-10-04T13:16:26Z</time>
      </trkpt>
      <trkpt lat="50.05426" lon="2.20705">
        <ele>51.4</ele>
        <time>2023-10-04T13:16:27Z</time>
      </trkpt>
      <trkpt lat="50.05426" lon="2.20707">
        <ele>51.4</ele>
        <time>2023-10-04T13:16:28Z</time>
      </trkpt>
      <trkpt lat="50.05427" lon="2.20708">
        <ele>51.5</ele>
        <time>2023-10-04T13:16:29Z</time>
      </trkpt>
      <trkpt lat="50.05427" lon="2.2071">
        <ele>51.5</ele>
        <time>2023-10-04T13:16:30Z</time>
      </trkpt>
      <trkpt lat="50.05428" lon="2.20713">
        <ele>51.5</ele>
        <time>2023-10-04T13:16:31Z</time>
      </trkpt>
      <trkpt lat="50.05428" lon="2.20715">
        <ele>51.5</ele>
        <time>2023-10-04T13:16:32Z</time>
      </trkpt>
      <trkpt lat="50.05428" lon="2.20716">
        <ele>51.5</ele>
        <time>2023-10-04T13:16:33Z</time>
      </trkpt>
      <trkpt lat="50.05428" lon="2.20718">
        <ele>51.6</ele>
        <time>2023-10-04T13:16:34Z</time>
      </trkpt>
      <trkpt lat="50.05429" lon="2.2072">
        <ele>51.6</ele>
        <time>2023-10-04T13:16:35Z</time>
      </trkpt>
      <trkpt lat="50.05429" lon="2.20724">
        <ele>51.6</ele>
        <time>2023-10-04T13:16:36Z</time>
      </trkpt>
      <trkpt lat="50.05429" lon="2.20725">
        <ele>51.6</ele>
        <time>2023-10-04T13:16:37Z</time>
      </trkpt>
      <trkpt lat="50.05429" lon="2.20726">
        <ele>51.6</ele>
        <time>2023-10-04T13:16:38Z</time>
      </trkpt>
      <trkpt lat="50.05429" lon="2.20728">
        <ele>51.7</ele>
        <time>2023-10-04T13:16:39Z</time>
      </trkpt>
      <trkpt lat="50.05429" lon="2.20729">
        <ele>51.7</ele>
        <time>2023-10-04T13:16:40Z</time>
      </trkpt>
      <trkpt lat="50.05429" lon="2.20731">
        <ele>51.7</ele>
        <time>2023-10-04T13:16:41Z</time>
      </trkpt>
      <trkpt lat="50.0543" lon="2.20732">
        <ele>51.7</ele>
        <time>2023-10-04T13:16:42Z</time>
      </trkpt>
      <trkpt lat="50.0543" lon="2.20734">
        <ele>51.7</ele>
        <time>2023-10-04T13:16:43Z</time>
      </trkpt>
      <trkpt lat="50.0543" lon="2.20735">
        <ele>51.7</ele>
        <time>2023-10-04T13:16:44Z</time>
      </trkpt>
      <trkpt lat="50.0543" lon="2.20737">
        <ele>51.8</ele>
        <time>2023-10-04T13:16:45Z</time>
      </trkpt>
      <trkpt lat="50.0543" lon="2.20738">
        <ele>51.8</ele>
        <time>2023-10-04T13:16:46Z</time>
      </trkpt>
      <trkpt lat="50.0543" lon="2.2074">
        <ele>51.8</ele>
        <time>2023-10-04T13:16:47Z</time>
      </trkpt>
      <trkpt lat="50.05431" lon="2.20741">
        <ele>51.8</ele>
        <time>2023-10-04T13:16:48Z</time>
      </trkpt>
      <trkpt lat="50.05431" lon="2.20743">
        <ele>51.8</ele>
        <time>2023-10-04T13:16:49Z</time>
      </trkpt>
      <trkpt lat="50.05431" lon="2.20745">
        <ele>51.8</ele>
        <time>2023-10-04T13:16:50Z</time>
      </trkpt>
      <trkpt lat="50.05431" lon="2.20746">
        <ele>51.8</ele>
        <time>2023-10-04T13:16:51Z</time>
      </trkpt>
      <trkpt lat="50.05431" lon="2.20748">
        <ele>51.9</ele>
        <time>2023-10-04T13:16:52Z</time>
      </trkpt>
      <trkpt lat="50.05431" lon="2.2075">
        <ele>51.9</ele>
        <time>2023-10-04T13:16:53Z</time>
      </trkpt>
      <trkpt lat="50.05432" lon="2.20751">
        <ele>51.9</ele>
        <time>2023-10-04T13:16:54Z</time>
      </trkpt>
      <trkpt lat="50.05432" lon="2.20752">
        <ele>51.9</ele>
        <time>2023-10-04T13:16:55Z</time>
      </trkpt>
      <trkpt lat="50.05432" lon="2.20753">
        <ele>51.9</ele>
        <time>2023-10-04T13:16:56Z</time>
      </trkpt>
      <trkpt lat="50.05433" lon="2.20754">
        <ele>51.9</ele>
        <time>2023-10-04T13:16:57Z</time>
      </trkpt>
      <trkpt lat="50.05433" lon="2.20756">
        <ele>51.9</ele>
        <time>2023-10-04T13:16:58Z</time>
      </trkpt>
      <trkpt lat="50.05434" lon="2.20757">
        <ele>51.9</ele>
        <time>2023-10-04T13:16:59Z</time>
      </trkpt>
      <trkpt lat="50.05434" lon="2.20758">
        <ele>52</ele>
        <time>2023-10-04T13:17:00Z</time>
      </trkpt>
      <trkpt lat="50.05435" lon="2.2076">
        <ele>52</ele>
        <time>2023-10-04T13:17:01Z</time>
      </trkpt>
      <trkpt lat="50.05435" lon="2.20761">
        <ele>52</ele>
        <time>2023-10-04T13:17:02Z</time>
      </trkpt>
      <trkpt lat="50.05436" lon="2.20763">
        <ele>52</ele>
        <time>2023-10-04T13:17:03Z</time>
      </trkpt>
      <trkpt lat="50.05436" lon="2.20764">
        <ele>52</ele>
        <time>2023-10-04T13:17:04Z</time>
      </trkpt>
      <trkpt lat="50.05437" lon="2.20766">
        <ele>52</ele>
        <time>2023-10-04T13:17:05Z</time>
      </trkpt>
      <trkpt lat="50.05437" lon="2.20768">
        <ele>52</ele>
        <time>2023-10-04T13:17:06Z</time>
      </trkpt>
      <trkpt lat="50.05438" lon="2.20771">
        <ele>52</ele>
        <time>2023-10-04T13:17:07Z</time>
      </trkpt>
      <trkpt lat="50.05439" lon="2.20772">
        <ele>52.1</ele>
        <time>2023-10-04T13:17:08Z</time>
      </trkpt>
      <trkpt lat="50.05439" lon="2.20773">
        <ele>52.1</ele>
        <time>2023-10-04T13:17:09Z</time>
      </trkpt>
      <trkpt lat="50.0544" lon="2.20776">
        <ele>52.1</ele>
        <time>2023-10-04T13:17:10Z</time>
      </trkpt>
      <trkpt lat="50.0544" lon="2.20778">
        <ele>52.1</ele>
        <time>2023-10-04T13:17:11Z</time>
      </trkpt>
      <trkpt lat="50.0544" lon="2.20779">
        <ele>52.1</ele>
        <time>2023-10-04T13:17:12Z</time>
      </trkpt>
      <trkpt lat="50.05441" lon="2.20782">
        <ele>52.1</ele>
        <time>2023-10-04T13:17:13Z</time>
      </trkpt>
      <trkpt lat="50.05441" lon="2.20783">
        <ele>52.1</ele>
        <time>2023-10-04T13:17:14Z</time>
      </trkpt>
      <trkpt lat="50.05441" lon="2.20784">
        <ele>52.1</ele>
        <time>2023-10-04T13:17:15Z</time>
      </trkpt>
      <trkpt lat="50.05442" lon="2.20786">
        <ele>52.2</ele>
        <time>2023-10-04T13:17:16Z</time>
      </trkpt>
      <trkpt lat="50.05442" lon="2.20787">
        <ele>52.2</ele>
        <time>2023-10-04T13:17:17Z</time>
      </trkpt>
      <trkpt lat="50.05442" lon="2.20789">
        <ele>52.2</ele>
        <time>2023-10-04T13:17:18Z</time>
      </trkpt>
      <trkpt lat="50.05443" lon="2.20792">
        <ele>52.2</ele>
        <time>2023-10-04T13:17:19Z</time>
      </trkpt>
      <trkpt lat="50.05443" lon="2.20794">
        <ele>52.2</ele>
        <time>2023-10-04T13:17:20Z</time>
      </trkpt>
      <trkpt lat="50.05443" lon="2.20795">
        <ele>52.2</ele>
        <time>2023-10-04T13:17:21Z</time>
      </trkpt>
      <trkpt lat="50.05443" lon="2.20797">
        <ele>52.2</ele>
        <time>2023-10-04T13:17:22Z</time>
      </trkpt>
      <trkpt lat="50.05443" lon="2.20798">
        <ele>52.2</ele>
        <time>2023-10-04T13:17:23Z</time>
      </trkpt>
      <trkpt lat="50.05442" lon="2.20799">
        <ele>52.3</ele>
        <time>2023-10-04T13:17:24Z</time>
      </trkpt>
      <trkpt lat="50.05443" lon="2.20801">
        <ele>52.3</ele>
        <time>2023-10-04T13:17:25Z</time>
      </trkpt>
      <trkpt lat="50.05443" lon="2.20802">
        <ele>52.3</ele>
        <time>2023-10-04T13:17:26Z</time>
      </trkpt>
      <trkpt lat="50.05443" lon="2.20803">
        <ele>52.3</ele>
        <time>2023-10-04T13:17:27Z</time>
      </trkpt>
      <trkpt lat="50.05443" lon="2.20805">
        <ele>52.3</ele>
        <time>2023-10-04T13:17:28Z</time>
      </trkpt>
      <trkpt lat="50.05444" lon="2.20806">
        <ele>52.3</ele>
        <time>2023-10-04T13:17:29Z</time>
      </trkpt>
      <trkpt lat="50.05444" lon="2.20807">
        <ele>52.3</ele>
        <time>2023-10-04T13:17:30Z</time>
      </trkpt>
      <trkpt lat="50.05444" lon="2.20808">
        <ele>52.3</ele>
        <time>2023-10-04T13:17:31Z</time>
      </trkpt>
      <trkpt lat="50.05444" lon="2.2081">
        <ele>52.3</ele>
        <time>2023-10-04T13:17:32Z</time>
      </trkpt>
      <trkpt lat="50.05445" lon="2.20813">
        <ele>52.4</ele>
        <time>2023-10-04T13:17:33Z</time>
      </trkpt>
      <trkpt lat="50.05445" lon="2.20814">
        <ele>52.4</ele>
        <time>2023-10-04T13:17:34Z</time>
      </trkpt>
      <trkpt lat="50.05445" lon="2.20815">
        <ele>52.4</ele>
        <time>2023-10-04T13:17:35Z</time>
      </trkpt>
      <trkpt lat="50.05446" lon="2.20817">
        <ele>52.4</ele>
        <time>2023-10-04T13:17:36Z</time>
      </trkpt>
      <trkpt lat="50.05446" lon="2.20819">
        <ele>52.4</ele>
        <time>2023-10-04T13:17:37Z</time>
      </trkpt>
      <trkpt lat="50.05446" lon="2.20821">
        <ele>52.4</ele>
        <time>2023-10-04T13:17:38Z</time>
      </trkpt>
      <trkpt lat="50.05446" lon="2.20822">
        <ele>52.4</ele>
        <time>2023-10-04T13:17:39Z</time>
      </trkpt>
      <trkpt lat="50.05447" lon="2.20824">
        <ele>52.4</ele>
        <time>2023-10-04T13:17:40Z</time>
      </trkpt>
      <trkpt lat="50.05447" lon="2.20826">
        <ele>52.5</ele>
        <time>2023-10-04T13:17:41Z</time>
      </trkpt>
      <trkpt lat="50.05447" lon="2.20828">
        <ele>52.5</ele>
        <time>2023-10-04T13:17:42Z</time>
      </trkpt>
      <trkpt lat="50.05447" lon="2.20829">
        <ele>52.5</ele>
        <time>2023-10-04T13:17:43Z</time>
      </trkpt>
      <trkpt lat="50.05447" lon="2.2083">
        <ele>52.5</ele>
        <time>2023-10-04T13:17:44Z</time>
      </trkpt>
      <trkpt lat="50.05447" lon="2.20832">
        <ele>52.5</ele>
        <time>2023-10-04T13:17:45Z</time>
      </trkpt>
      <trkpt lat="50.05448" lon="2.20833">
        <ele>52.5</ele>
        <time>2023-10-04T13:17:46Z</time>
      </trkpt>
      <trkpt lat="50.05448" lon="2.20835">
        <ele>52.5</ele>
        <time>2023-10-04T13:17:47Z</time>
      </trkpt>
      <trkpt lat="50.05448" lon="2.20836">
        <ele>52.5</ele>
        <time>2023-10-04T13:17:48Z</time>
      </trkpt>
      <trkpt lat="50.05448" lon="2.20838">
        <ele>52.5</ele>
        <time>2023-10-04T13:17:49Z</time>
      </trkpt>
      <trkpt lat="50.05448" lon="2.2084">
        <ele>52.5</ele>
        <time>2023-10-04T13:17:50Z</time>
      </trkpt>
      <trkpt lat="50.05448" lon="2.20842">
        <ele>52.6</ele>
        <time>2023-10-04T13:17:51Z</time>
      </trkpt>
      <trkpt lat="50.05449" lon="2.20844">
        <ele>52.6</ele>
        <time>2023-10-04T13:17:52Z</time>
      </trkpt>
      <trkpt lat="50.05449" lon="2.20845">
        <ele>52.6</ele>
        <time>2023-10-04T13:17:53Z</time>
      </trkpt>
      <trkpt lat="50.05449" lon="2.20849">
        <ele>52.6</ele>
        <time>2023-10-04T13:17:54Z</time>
      </trkpt>
      <trkpt lat="50.0545" lon="2.2085">
        <ele>52.6</ele>
        <time>2023-10-04T13:17:55Z</time>
      </trkpt>
      <trkpt lat="50.0545" lon="2.20851">
        <ele>52.6</ele>
        <time>2023-10-04T13:17:56Z</time>
      </trkpt>
      <trkpt lat="50.0545" lon="2.20853">
        <ele>52.6</ele>
        <time>2023-10-04T13:17:57Z</time>
      </trkpt>
      <trkpt lat="50.0545" lon="2.20854">
        <ele>52.6</ele>
        <time>2023-10-04T13:17:58Z</time>
      </trkpt>
      <trkpt lat="50.0545" lon="2.20855">
        <ele>52.6</ele>
        <time>2023-10-04T13:17:59Z</time>
      </trkpt>
      <trkpt lat="50.05451" lon="2.20856">
        <ele>52.6</ele>
        <time>2023-10-04T13:18:00Z</time>
      </trkpt>
      <trkpt lat="50.05451" lon="2.20857">
        <ele>52.7</ele>
        <time>2023-10-04T13:18:01Z</time>
      </trkpt>
      <trkpt lat="50.05451" lon="2.20858">
        <ele>52.7</ele>
        <time>2023-10-04T13:18:02Z</time>
      </trkpt>
      <trkpt lat="50.05451" lon="2.2086">
        <ele>52.7</ele>
        <time>2023-10-04T13:18:03Z</time>
      </trkpt>
      <trkpt lat="50.05451" lon="2.20861">
        <ele>52.7</ele>
        <time>2023-10-04T13:18:04Z</time>
      </trkpt>
      <trkpt lat="50.05451" lon="2.20862">
        <ele>52.7</ele>
        <time>2023-10-04T13:18:05Z</time>
      </trkpt>
      <trkpt lat="50.05452" lon="2.20863">
        <ele>52.7</ele>
        <time>2023-10-04T13:18:06Z</time>
      </trkpt>
      <trkpt lat="50.05452" lon="2.20864">
        <ele>52.7</ele>
        <time>2023-10-04T13:18:07Z</time>
      </trkpt>
      <trkpt lat="50.05452" lon="2.20865">
        <ele>52.7</ele>
        <time>2023-10-04T13:18:08Z</time>
      </trkpt>
      <trkpt lat="50.05452" lon="2.20867">
        <ele>52.7</ele>
        <time>2023-10-04T13:18:09Z</time>
      </trkpt>
      <trkpt lat="50.05452" lon="2.20868">
        <ele>52.7</ele>
        <time>2023-10-04T13:18:10Z</time>
      </trkpt>
      <trkpt lat="50.05453" lon="2.2087">
        <ele>52.7</ele>
        <time>2023-10-04T13:18:11Z</time>
      </trkpt>
      <trkpt lat="50.05453" lon="2.20872">
        <ele>52.7</ele>
        <time>2023-10-04T13:18:12Z</time>
      </trkpt>
      <trkpt lat="50.05453" lon="2.20874">
        <ele>52.8</ele>
        <time>2023-10-04T13:18:13Z</time>
      </trkpt>
      <trkpt lat="50.05453" lon="2.20875">
        <ele>52.8</ele>
        <time>2023-10-04T13:18:14Z</time>
      </trkpt>
      <trkpt lat="50.05453" lon="2.20877">
        <ele>52.8</ele>
        <time>2023-10-04T13:18:15Z</time>
      </trkpt>
      <trkpt lat="50.05453" lon="2.20879">
        <ele>52.8</ele>
        <time>2023-10-04T13:18:16Z</time>
      </trkpt>
      <trkpt lat="50.05453" lon="2.20881">
        <ele>52.8</ele>
        <time>2023-10-04T13:18:17Z</time>
      </trkpt>
      <trkpt lat="50.05453" lon="2.20883">
        <ele>52.8</ele>
        <time>2023-10-04T13:18:18Z</time>
      </trkpt>
      <trkpt lat="50.05452" lon="2.20884">
        <ele>52.8</ele>
        <time>2023-10-04T13:18:19Z</time>
      </trkpt>
      <trkpt lat="50.05452" lon="2.20886">
        <ele>52.8</ele>
        <time>2023-10-04T13:18:20Z</time>
      </trkpt>
      <trkpt lat="50.05452" lon="2.20888">
        <ele>52.8</ele>
        <time>2023-10-04T13:18:21Z</time>
      </trkpt>
      <trkpt lat="50.05452" lon="2.20891">
        <ele>52.8</ele>
        <time>2023-10-04T13:18:22Z</time>
      </trkpt>
      <trkpt lat="50.05452" lon="2.20892">
        <ele>52.8</ele>
        <time>2023-10-04T13:18:23Z</time>
      </trkpt>
      <trkpt lat="50.05453" lon="2.20894">
        <ele>52.8</ele>
        <time>2023-10-04T13:18:24Z</time>
      </trkpt>
      <trkpt lat="50.05453" lon="2.20897">
        <ele>52.9</ele>
        <time>2023-10-04T13:18:25Z</time>
      </trkpt>
      <trkpt lat="50.05453" lon="2.20898">
        <ele>52.9</ele>
        <time>2023-10-04T13:18:26Z</time>
      </trkpt>
      <trkpt lat="50.05453" lon="2.20899">
        <ele>52.9</ele>
        <time>2023-10-04T13:18:27Z</time>
      </trkpt>
      <trkpt lat="50.05453" lon="2.20903">
        <ele>52.9</ele>
        <time>2023-10-04T13:18:28Z</time>
      </trkpt>
      <trkpt lat="50.05454" lon="2.20904">
        <ele>52.9</ele>
        <time>2023-10-04T13:18:29Z</time>
      </trkpt>
      <trkpt lat="50.05454" lon="2.20905">
        <ele>52.9</ele>
        <time>2023-10-04T13:18:30Z</time>
      </trkpt>
      <trkpt lat="50.05454" lon="2.20908">
        <ele>52.9</ele>
        <time>2023-10-04T13:18:31Z</time>
      </trkpt>
      <trkpt lat="50.05454" lon="2.2091">
        <ele>52.9</ele>
        <time>2023-10-04T13:18:32Z</time>
      </trkpt>
      <trkpt lat="50.05454" lon="2.20911">
        <ele>52.9</ele>
        <time>2023-10-04T13:18:33Z</time>
      </trkpt>
      <trkpt lat="50.05455" lon="2.20914">
        <ele>52.9</ele>
        <time>2023-10-04T13:18:34Z</time>
      </trkpt>
      <trkpt lat="50.05455" lon="2.20915">
        <ele>52.9</ele>
        <time>2023-10-04T13:18:35Z</time>
      </trkpt>
      <trkpt lat="50.05455" lon="2.20917">
        <ele>52.9</ele>
        <time>2023-10-04T13:18:36Z</time>
      </trkpt>
      <trkpt lat="50.05456" lon="2.20919">
        <ele>52.9</ele>
        <time>2023-10-04T13:18:37Z</time>
      </trkpt>
      <trkpt lat="50.05456" lon="2.2092">
        <ele>52.9</ele>
        <time>2023-10-04T13:18:38Z</time>
      </trkpt>
      <trkpt lat="50.05456" lon="2.20922">
        <ele>52.9</ele>
        <time>2023-10-04T13:18:39Z</time>
      </trkpt>
      <trkpt lat="50.05457" lon="2.20924">
        <ele>52.9</ele>
        <time>2023-10-04T13:18:40Z</time>
      </trkpt>
      <trkpt lat="50.05457" lon="2.20925">
        <ele>52.9</ele>
        <time>2023-10-04T13:18:41Z</time>
      </trkpt>
      <trkpt lat="50.05457" lon="2.20927">
        <ele>52.9</ele>
        <time>2023-10-04T13:18:42Z</time>
      </trkpt>
      <trkpt lat="50.05457" lon="2.2093">
        <ele>52.9</ele>
        <time>2023-10-04T13:18:43Z</time>
      </trkpt>
      <trkpt lat="50.05458" lon="2.20932">
        <ele>52.9</ele>
        <time>2023-10-04T13:18:44Z</time>
      </trkpt>
      <trkpt lat="50.05458" lon="2.20933">
        <ele>52.9</ele>
        <time>2023-10-04T13:18:45Z</time>
      </trkpt>
      <trkpt lat="50.05458" lon="2.20936">
        <ele>52.9</ele>
        <time>2023-10-04T13:18:46Z</time>
      </trkpt>
      <trkpt lat="50.05458" lon="2.20937">
        <ele>52.9</ele>
        <time>2023-10-04T13:18:47Z</time>
      </trkpt>
      <trkpt lat="50.05458" lon="2.20939">
        <ele>52.9</ele>
        <time>2023-10-04T13:18:48Z</time>
      </trkpt>
      <trkpt lat="50.05458" lon="2.20941">
        <ele>52.9</ele>
        <time>2023-10-04T13:18:49Z</time>
      </trkpt>
      <trkpt lat="50.05459" lon="2.20942">
        <ele>52.9</ele>
        <time>2023-10-04T13:18:50Z</time>
      </trkpt>
      <trkpt lat="50.05459" lon="2.20943">
        <ele>52.9</ele>
        <time>2023-10-04T13:18:51Z</time>
      </trkpt>
      <trkpt lat="50.05459" lon="2.20945">
        <ele>52.9</ele>
        <time>2023-10-04T13:18:52Z</time>
      </trkpt>
      <trkpt lat="50.05459" lon="2.20947">
        <ele>52.9</ele>
        <time>2023-10-04T13:18:53Z</time>
      </trkpt>
      <trkpt lat="50.05459" lon="2.20949">
        <ele>52.9</ele>
        <time>2023-10-04T13:18:54Z</time>
      </trkpt>
      <trkpt lat="50.0546" lon="2.2095">
        <ele>52.9</ele>
        <time>2023-10-04T13:18:55Z</time>
      </trkpt>
      <trkpt lat="50.0546" lon="2.20952">
        <ele>52.9</ele>
        <time>2023-10-04T13:18:56Z</time>
      </trkpt>
      <trkpt lat="50.0546" lon="2.20953">
        <ele>52.9</ele>
        <time>2023-10-04T13:18:57Z</time>
      </trkpt>
      <trkpt lat="50.0546" lon="2.20954">
        <ele>52.9</ele>
        <time>2023-10-04T13:18:58Z</time>
      </trkpt>
      <trkpt lat="50.0546" lon="2.20956">
        <ele>52.9</ele>
        <time>2023-10-04T13:18:59Z</time>
      </trkpt>
      <trkpt lat="50.0546" lon="2.20957">
        <ele>52.9</ele>
        <time>2023-10-04T13:19:00Z</time>
      </trkpt>
      <trkpt lat="50.0546" lon="2.20958">
        <ele>52.9</ele>
        <time>2023-10-04T13:19:01Z</time>
      </trkpt>
      <trkpt lat="50.0546" lon="2.2096">
        <ele>52.9</ele>
        <time>2023-10-04T13:19:02Z</time>
      </trkpt>
      <trkpt lat="50.0546" lon="2.20961">
        <ele>52.9</ele>
        <time>2023-10-04T13:19:03Z</time>
      </trkpt>
      <trkpt lat="50.05459" lon="2.20963">
        <ele>52.9</ele>
        <time>2023-10-04T13:19:04Z</time>
      </trkpt>
      <trkpt lat="50.05459" lon="2.20966">
        <ele>52.9</ele>
        <time>2023-10-04T13:19:05Z</time>
      </trkpt>
      <trkpt lat="50.05459" lon="2.20967">
        <ele>52.9</ele>
        <time>2023-10-04T13:19:06Z</time>
      </trkpt>
      <trkpt lat="50.05459" lon="2.20969">
        <ele>52.9</ele>
        <time>2023-10-04T13:19:07Z</time>
      </trkpt>
      <trkpt lat="50.0546" lon="2.2097">
        <ele>52.9</ele>
        <time>2023-10-04T13:19:08Z</time>
      </trkpt>
      <trkpt lat="50.0546" lon="2.20972">
        <ele>52.9</ele>
        <time>2023-10-04T13:19:09Z</time>
      </trkpt>
      <trkpt lat="50.0546" lon="2.20973">
        <ele>52.8</ele>
        <time>2023-10-04T13:19:10Z</time>
      </trkpt>
      <trkpt lat="50.0546" lon="2.20975">
        <ele>52.8</ele>
        <time>2023-10-04T13:19:11Z</time>
      </trkpt>
      <trkpt lat="50.0546" lon="2.20976">
        <ele>52.8</ele>
        <time>2023-10-04T13:19:12Z</time>
      </trkpt>
      <trkpt lat="50.0546" lon="2.20978">
        <ele>52.8</ele>
        <time>2023-10-04T13:19:13Z</time>
      </trkpt>
      <trkpt lat="50.0546" lon="2.2098">
        <ele>52.8</ele>
        <time>2023-10-04T13:19:14Z</time>
      </trkpt>
      <trkpt lat="50.0546" lon="2.20981">
        <ele>52.8</ele>
        <time>2023-10-04T13:19:15Z</time>
      </trkpt>
      <trkpt lat="50.0546" lon="2.20983">
        <ele>52.8</ele>
        <time>2023-10-04T13:19:16Z</time>
      </trkpt>
      <trkpt lat="50.0546" lon="2.20985">
        <ele>52.8</ele>
        <time>2023-10-04T13:19:17Z</time>
      </trkpt>
      <trkpt lat="50.05461" lon="2.20987">
        <ele>52.8</ele>
        <time>2023-10-04T13:19:18Z</time>
      </trkpt>
      <trkpt lat="50.05461" lon="2.20988">
        <ele>52.8</ele>
        <time>2023-10-04T13:19:19Z</time>
      </trkpt>
      <trkpt lat="50.05461" lon="2.20989">
        <ele>52.8</ele>
        <time>2023-10-04T13:19:20Z</time>
      </trkpt>
      <trkpt lat="50.05461" lon="2.20991">
        <ele>52.8</ele>
        <time>2023-10-04T13:19:21Z</time>
      </trkpt>
      <trkpt lat="50.05461" lon="2.20992">
        <ele>52.8</ele>
        <time>2023-10-04T13:19:22Z</time>
      </trkpt>
      <trkpt lat="50.05461" lon="2.20994">
        <ele>52.8</ele>
        <time>2023-10-04T13:19:23Z</time>
      </trkpt>
      <trkpt lat="50.05461" lon="2.20996">
        <ele>52.8</ele>
        <time>2023-10-04T13:19:24Z</time>
      </trkpt>
      <trkpt lat="50.05461" lon="2.20998">
        <ele>52.8</ele>
        <time>2023-10-04T13:19:25Z</time>
      </trkpt>
      <trkpt lat="50.05461" lon="2.21001">
        <ele>52.8</ele>
        <time>2023-10-04T13:19:26Z</time>
      </trkpt>
      <trkpt lat="50.05461" lon="2.21002">
        <ele>52.8</ele>
        <time>2023-10-04T13:19:27Z</time>
      </trkpt>
      <trkpt lat="50.0546" lon="2.21004">
        <ele>52.8</ele>
        <time>2023-10-04T13:19:28Z</time>
      </trkpt>
      <trkpt lat="50.0546" lon="2.21006">
        <ele>52.8</ele>
        <time>2023-10-04T13:19:29Z</time>
      </trkpt>
      <trkpt lat="50.0546" lon="2.21007">
        <ele>52.8</ele>
        <time>2023-10-04T13:19:30Z</time>
      </trkpt>
      <trkpt lat="50.0546" lon="2.21009">
        <ele>52.8</ele>
        <time>2023-10-04T13:19:31Z</time>
      </trkpt>
      <trkpt lat="50.0546" lon="2.21012">
        <ele>52.8</ele>
        <time>2023-10-04T13:19:32Z</time>
      </trkpt>
      <trkpt lat="50.0546" lon="2.21014">
        <ele>52.8</ele>
        <time>2023-10-04T13:19:33Z</time>
      </trkpt>
      <trkpt lat="50.05461" lon="2.21015">
        <ele>52.8</ele>
        <time>2023-10-04T13:19:34Z</time>
      </trkpt>
      <trkpt lat="50.05461" lon="2.21018">
        <ele>52.8</ele>
        <time>2023-10-04T13:19:35Z</time>
      </trkpt>
      <trkpt lat="50.05461" lon="2.2102">
        <ele>52.8</ele>
        <time>2023-10-04T13:19:36Z</time>
      </trkpt>
      <trkpt lat="50.05461" lon="2.21022">
        <ele>52.8</ele>
        <time>2023-10-04T13:19:37Z</time>
      </trkpt>
      <trkpt lat="50.05462" lon="2.21023">
        <ele>52.8</ele>
        <time>2023-10-04T13:19:38Z</time>
      </trkpt>
      <trkpt lat="50.05462" lon="2.21025">
        <ele>52.8</ele>
        <time>2023-10-04T13:19:39Z</time>
      </trkpt>
      <trkpt lat="50.05462" lon="2.21026">
        <ele>52.8</ele>
        <time>2023-10-04T13:19:40Z</time>
      </trkpt>
      <trkpt lat="50.05462" lon="2.21028">
        <ele>52.8</ele>
        <time>2023-10-04T13:19:41Z</time>
      </trkpt>
      <trkpt lat="50.05463" lon="2.2103">
        <ele>52.8</ele>
        <time>2023-10-04T13:19:42Z</time>
      </trkpt>
      <trkpt lat="50.05463" lon="2.21031">
        <ele>52.8</ele>
        <time>2023-10-04T13:19:43Z</time>
      </trkpt>
      <trkpt lat="50.05463" lon="2.21033">
        <ele>52.8</ele>
        <time>2023-10-04T13:19:44Z</time>
      </trkpt>
      <trkpt lat="50.05463" lon="2.21034">
        <ele>52.8</ele>
        <time>2023-10-04T13:19:45Z</time>
      </trkpt>
      <trkpt lat="50.05464" lon="2.21036">
        <ele>52.8</ele>
        <time>2023-10-04T13:19:46Z</time>
      </trkpt>
      <trkpt lat="50.05464" lon="2.21037">
        <ele>52.8</ele>
        <time>2023-10-04T13:19:47Z</time>
      </trkpt>
      <trkpt lat="50.05463" lon="2.21039">
        <ele>52.8</ele>
        <time>2023-10-04T13:19:48Z</time>
      </trkpt>
      <trkpt lat="50.05463" lon="2.2104">
        <ele>52.8</ele>
        <time>2023-10-04T13:19:49Z</time>
      </trkpt>
      <trkpt lat="50.05463" lon="2.21042">
        <ele>52.8</ele>
        <time>2023-10-04T13:19:50Z</time>
      </trkpt>
      <trkpt lat="50.05463" lon="2.21044">
        <ele>52.8</ele>
        <time>2023-10-04T13:19:51Z</time>
      </trkpt>
      <trkpt lat="50.05463" lon="2.21047">
        <ele>52.8</ele>
        <time>2023-10-04T13:19:52Z</time>
      </trkpt>
      <trkpt lat="50.05463" lon="2.21049">
        <ele>52.8</ele>
        <time>2023-10-04T13:19:53Z</time>
      </trkpt>
      <trkpt lat="50.05463" lon="2.2105">
        <ele>52.8</ele>
        <time>2023-10-04T13:19:54Z</time>
      </trkpt>
      <trkpt lat="50.05463" lon="2.21053">
        <ele>52.8</ele>
        <time>2023-10-04T13:19:55Z</time>
      </trkpt>
      <trkpt lat="50.05463" lon="2.21055">
        <ele>52.8</ele>
        <time>2023-10-04T13:19:56Z</time>
      </trkpt>
      <trkpt lat="50.05463" lon="2.21056">
        <ele>52.8</ele>
        <time>2023-10-04T13:19:57Z</time>
      </trkpt>
      <trkpt lat="50.05463" lon="2.21057">
        <ele>52.8</ele>
        <time>2023-10-04T13:19:58Z</time>
      </trkpt>
      <trkpt lat="50.05463" lon="2.21059">
        <ele>52.8</ele>
        <time>2023-10-04T13:19:59Z</time>
      </trkpt>
      <trkpt lat="50.05463" lon="2.2106">
        <ele>52.8</ele>
        <time>2023-10-04T13:20:00Z</time>
      </trkpt>
      <trkpt lat="50.05463" lon="2.21061">
        <ele>52.8</ele>
        <time>2023-10-04T13:20:01Z</time>
      </trkpt>
      <trkpt lat="50.05464" lon="2.21062">
        <ele>52.8</ele>
        <time>2023-10-04T13:20:02Z</time>
      </trkpt>
      <trkpt lat="50.05464" lon="2.21064">
        <ele>52.8</ele>
        <time>2023-10-04T13:20:03Z</time>
      </trkpt>
      <trkpt lat="50.05464" lon="2.21065">
        <ele>52.8</ele>
        <time>2023-10-04T13:20:04Z</time>
      </trkpt>
      <trkpt lat="50.05464" lon="2.21067">
        <ele>52.8</ele>
        <time>2023-10-04T13:20:05Z</time>
      </trkpt>
      <trkpt lat="50.05464" lon="2.21069">
        <ele>52.8</ele>
        <time>2023-10-04T13:20:06Z</time>
      </trkpt>
      <trkpt lat="50.05464" lon="2.2107">
        <ele>52.8</ele>
        <time>2023-10-04T13:20:07Z</time>
      </trkpt>
      <trkpt lat="50.05464" lon="2.21072">
        <ele>52.8</ele>
        <time>2023-10-04T13:20:08Z</time>
      </trkpt>
      <trkpt lat="50.05464" lon="2.21074">
        <ele>52.8</ele>
        <time>2023-10-04T13:20:09Z</time>
      </trkpt>
      <trkpt lat="50.05464" lon="2.21075">
        <ele>52.8</ele>
        <time>2023-10-04T13:20:10Z</time>
      </trkpt>
      <trkpt lat="50.05464" lon="2.21077">
        <ele>52.8</ele>
        <time>2023-10-04T13:20:11Z</time>
      </trkpt>
      <trkpt lat="50.05464" lon="2.21078">
        <ele>52.8</ele>
        <time>2023-10-04T13:20:12Z</time>
      </trkpt>
      <trkpt lat="50.05464" lon="2.2108">
        <ele>52.8</ele>
        <time>2023-10-04T13:20:13Z</time>
      </trkpt>
      <trkpt lat="50.05464" lon="2.21083">
        <ele>52.8</ele>
        <time>2023-10-04T13:20:14Z</time>
      </trkpt>
      <trkpt lat="50.05464" lon="2.21084">
        <ele>52.8</ele>
        <time>2023-10-04T13:20:15Z</time>
      </trkpt>
      <trkpt lat="50.05464" lon="2.21086">
        <ele>52.8</ele>
        <time>2023-10-04T13:20:16Z</time>
      </trkpt>
      <trkpt lat="50.05464" lon="2.21088">
        <ele>52.8</ele>
        <time>2023-10-04T13:20:17Z</time>
      </trkpt>
      <trkpt lat="50.05464" lon="2.21089">
        <ele>52.8</ele>
        <time>2023-10-04T13:20:18Z</time>
      </trkpt>
      <trkpt lat="50.05463" lon="2.21091">
        <ele>52.8</ele>
        <time>2023-10-04T13:20:19Z</time>
      </trkpt>
      <trkpt lat="50.05463" lon="2.21092">
        <ele>52.8</ele>
        <time>2023-10-04T13:20:20Z</time>
      </trkpt>
      <trkpt lat="50.05463" lon="2.21093">
        <ele>52.8</ele>
        <time>2023-10-04T13:20:21Z</time>
      </trkpt>
      <trkpt lat="50.05462" lon="2.21094">
        <ele>52.8</ele>
        <time>2023-10-04T13:20:22Z</time>
      </trkpt>
      <trkpt lat="50.05462" lon="2.21095">
        <ele>52.8</ele>
        <time>2023-10-04T13:20:23Z</time>
      </trkpt>
      <trkpt lat="50.05462" lon="2.21097">
        <ele>52.8</ele>
        <time>2023-10-04T13:20:24Z</time>
      </trkpt>
      <trkpt lat="50.05462" lon="2.21098">
        <ele>52.8</ele>
        <time>2023-10-04T13:20:25Z</time>
      </trkpt>
      <trkpt lat="50.05462" lon="2.21099">
        <ele>52.8</ele>
        <time>2023-10-04T13:20:26Z</time>
      </trkpt>
      <trkpt lat="50.05462" lon="2.21101">
        <ele>52.8</ele>
        <time>2023-10-04T13:20:27Z</time>
      </trkpt>
      <trkpt lat="50.05462" lon="2.21103">
        <ele>52.8</ele>
        <time>2023-10-04T13:20:28Z</time>
      </trkpt>
      <trkpt lat="50.05462" lon="2.21104">
        <ele>52.8</ele>
        <time>2023-10-04T13:20:29Z</time>
      </trkpt>
      <trkpt lat="50.05462" lon="2.21105">
        <ele>52.8</ele>
        <time>2023-10-04T13:20:30Z</time>
      </trkpt>
      <trkpt lat="50.05462" lon="2.21106">
        <ele>52.8</ele>
        <time>2023-10-04T13:20:31Z</time>
      </trkpt>
      <trkpt lat="50.05462" lon="2.21108">
        <ele>52.8</ele>
        <time>2023-10-04T13:20:32Z</time>
      </trkpt>
      <trkpt lat="50.05462" lon="2.2111">
        <ele>52.8</ele>
        <time>2023-10-04T13:20:33Z</time>
      </trkpt>
      <trkpt lat="50.05462" lon="2.21112">
        <ele>52.8</ele>
        <time>2023-10-04T13:20:34Z</time>
      </trkpt>
      <trkpt lat="50.05462" lon="2.21113">
        <ele>52.8</ele>
        <time>2023-10-04T13:20:35Z</time>
      </trkpt>
      <trkpt lat="50.05462" lon="2.21115">
        <ele>52.8</ele>
        <time>2023-10-04T13:20:36Z</time>
      </trkpt>
      <trkpt lat="50.05462" lon="2.21116">
        <ele>52.8</ele>
        <time>2023-10-04T13:20:37Z</time>
      </trkpt>
      <trkpt lat="50.05462" lon="2.21119">
        <ele>52.8</ele>
        <time>2023-10-04T13:20:38Z</time>
      </trkpt>
      <trkpt lat="50.05462" lon="2.2112">
        <ele>52.8</ele>
        <time>2023-10-04T13:20:39Z</time>
      </trkpt>
      <trkpt lat="50.05462" lon="2.21121">
        <ele>52.8</ele>
        <time>2023-10-04T13:20:40Z</time>
      </trkpt>
      <trkpt lat="50.05462" lon="2.21122">
        <ele>52.8</ele>
        <time>2023-10-04T13:20:41Z</time>
      </trkpt>
      <trkpt lat="50.05462" lon="2.21123">
        <ele>52.8</ele>
        <time>2023-10-04T13:20:42Z</time>
      </trkpt>
      <trkpt lat="50.05462" lon="2.21125">
        <ele>52.8</ele>
        <time>2023-10-04T13:20:43Z</time>
      </trkpt>
      <trkpt lat="50.05462" lon="2.21127">
        <ele>52.8</ele>
        <time>2023-10-04T13:20:44Z</time>
      </trkpt>
      <trkpt lat="50.05462" lon="2.21128">
        <ele>52.8</ele>
        <time>2023-10-04T13:20:45Z</time>
      </trkpt>
      <trkpt lat="50.05462" lon="2.21129">
        <ele>52.8</ele>
        <time>2023-10-04T13:20:46Z</time>
      </trkpt>
      <trkpt lat="50.05462" lon="2.21131">
        <ele>52.8</ele>
        <time>2023-10-04T13:20:47Z</time>
      </trkpt>
      <trkpt lat="50.05462" lon="2.21133">
        <ele>52.8</ele>
        <time>2023-10-04T13:20:48Z</time>
      </trkpt>
      <trkpt lat="50.05462" lon="2.21134">
        <ele>52.8</ele>
        <time>2023-10-04T13:20:49Z</time>
      </trkpt>
      <trkpt lat="50.05462" lon="2.21136">
        <ele>52.8</ele>
        <time>2023-10-04T13:20:50Z</time>
      </trkpt>
      <trkpt lat="50.05462" lon="2.21139">
        <ele>52.8</ele>
        <time>2023-10-04T13:20:51Z</time>
      </trkpt>
      <trkpt lat="50.05463" lon="2.21141">
        <ele>52.8</ele>
        <time>2023-10-04T13:20:52Z</time>
      </trkpt>
      <trkpt lat="50.05463" lon="2.21142">
        <ele>52.8</ele>
        <time>2023-10-04T13:20:53Z</time>
      </trkpt>
      <trkpt lat="50.05463" lon="2.21144">
        <ele>52.8</ele>
        <time>2023-10-04T13:20:54Z</time>
      </trkpt>
      <trkpt lat="50.05463" lon="2.21146">
        <ele>52.8</ele>
        <time>2023-10-04T13:20:55Z</time>
      </trkpt>
      <trkpt lat="50.05463" lon="2.21148">
        <ele>52.8</ele>
        <time>2023-10-04T13:20:56Z</time>
      </trkpt>
      <trkpt lat="50.05463" lon="2.21149">
        <ele>52.8</ele>
        <time>2023-10-04T13:20:57Z</time>
      </trkpt>
      <trkpt lat="50.05463" lon="2.21151">
        <ele>52.8</ele>
        <time>2023-10-04T13:20:58Z</time>
      </trkpt>
      <trkpt lat="50.05463" lon="2.21153">
        <ele>52.8</ele>
        <time>2023-10-04T13:20:59Z</time>
      </trkpt>
      <trkpt lat="50.05463" lon="2.21154">
        <ele>52.8</ele>
        <time>2023-10-04T13:21:00Z</time>
      </trkpt>
      <trkpt lat="50.05463" lon="2.21156">
        <ele>52.8</ele>
        <time>2023-10-04T13:21:01Z</time>
      </trkpt>
      <trkpt lat="50.05463" lon="2.21158">
        <ele>52.8</ele>
        <time>2023-10-04T13:21:02Z</time>
      </trkpt>
      <trkpt lat="50.05463" lon="2.21161">
        <ele>52.8</ele>
        <time>2023-10-04T13:21:03Z</time>
      </trkpt>
      <trkpt lat="50.05463" lon="2.21162">
        <ele>52.8</ele>
        <time>2023-10-04T13:21:04Z</time>
      </trkpt>
      <trkpt lat="50.05463" lon="2.21163">
        <ele>52.8</ele>
        <time>2023-10-04T13:21:05Z</time>
      </trkpt>
      <trkpt lat="50.05464" lon="2.21165">
        <ele>52.8</ele>
        <time>2023-10-04T13:21:06Z</time>
      </trkpt>
      <trkpt lat="50.05464" lon="2.21166">
        <ele>52.8</ele>
        <time>2023-10-04T13:21:07Z</time>
      </trkpt>
      <trkpt lat="50.05464" lon="2.21168">
        <ele>52.8</ele>
        <time>2023-10-04T13:21:08Z</time>
      </trkpt>
      <trkpt lat="50.05465" lon="2.21171">
        <ele>52.8</ele>
        <time>2023-10-04T13:21:09Z</time>
      </trkpt>
      <trkpt lat="50.05465" lon="2.21172">
        <ele>52.8</ele>
        <time>2023-10-04T13:21:10Z</time>
      </trkpt>
      <trkpt lat="50.05465" lon="2.21174">
        <ele>52.8</ele>
        <time>2023-10-04T13:21:11Z</time>
      </trkpt>
      <trkpt lat="50.05466" lon="2.21175">
        <ele>52.8</ele>
        <time>2023-10-04T13:21:12Z</time>
      </trkpt>
      <trkpt lat="50.05466" lon="2.21177">
        <ele>52.8</ele>
        <time>2023-10-04T13:21:13Z</time>
      </trkpt>
      <trkpt lat="50.05466" lon="2.21179">
        <ele>52.8</ele>
        <time>2023-10-04T13:21:14Z</time>
      </trkpt>
      <trkpt lat="50.05467" lon="2.21181">
        <ele>52.9</ele>
        <time>2023-10-04T13:21:15Z</time>
      </trkpt>
      <trkpt lat="50.05467" lon="2.21182">
        <ele>52.9</ele>
        <time>2023-10-04T13:21:16Z</time>
      </trkpt>
      <trkpt lat="50.05467" lon="2.21184">
        <ele>52.9</ele>
        <time>2023-10-04T13:21:17Z</time>
      </trkpt>
      <trkpt lat="50.05467" lon="2.21186">
        <ele>52.9</ele>
        <time>2023-10-04T13:21:18Z</time>
      </trkpt>
      <trkpt lat="50.05468" lon="2.21187">
        <ele>52.9</ele>
        <time>2023-10-04T13:21:19Z</time>
      </trkpt>
      <trkpt lat="50.05468" lon="2.21189">
        <ele>52.9</ele>
        <time>2023-10-04T13:21:20Z</time>
      </trkpt>
      <trkpt lat="50.05468" lon="2.21191">
        <ele>52.9</ele>
        <time>2023-10-04T13:21:21Z</time>
      </trkpt>
      <trkpt lat="50.05468" lon="2.21192">
        <ele>52.9</ele>
        <time>2023-10-04T13:21:22Z</time>
      </trkpt>
      <trkpt lat="50.05468" lon="2.21194">
        <ele>52.9</ele>
        <time>2023-10-04T13:21:23Z</time>
      </trkpt>
      <trkpt lat="50.05467" lon="2.21197">
        <ele>52.9</ele>
        <time>2023-10-04T13:21:24Z</time>
      </trkpt>
      <trkpt lat="50.05467" lon="2.21199">
        <ele>52.9</ele>
        <time>2023-10-04T13:21:25Z</time>
      </trkpt>
      <trkpt lat="50.05467" lon="2.212">
        <ele>52.9</ele>
        <time>2023-10-04T13:21:26Z</time>
      </trkpt>
      <trkpt lat="50.05467" lon="2.21202">
        <ele>52.9</ele>
        <time>2023-10-04T13:21:27Z</time>
      </trkpt>
      <trkpt lat="50.05466" lon="2.21204">
        <ele>52.9</ele>
        <time>2023-10-04T13:21:28Z</time>
      </trkpt>
      <trkpt lat="50.05466" lon="2.21205">
        <ele>52.9</ele>
        <time>2023-10-04T13:21:29Z</time>
      </trkpt>
      <trkpt lat="50.05466" lon="2.21207">
        <ele>52.9</ele>
        <time>2023-10-04T13:21:30Z</time>
      </trkpt>
      <trkpt lat="50.05466" lon="2.21208">
        <ele>52.9</ele>
        <time>2023-10-04T13:21:31Z</time>
      </trkpt>
      <trkpt lat="50.05466" lon="2.21209">
        <ele>52.9</ele>
        <time>2023-10-04T13:21:32Z</time>
      </trkpt>
      <trkpt lat="50.05466" lon="2.21211">
        <ele>52.9</ele>
        <time>2023-10-04T13:21:33Z</time>
      </trkpt>
      <trkpt lat="50.05466" lon="2.21212">
        <ele>52.9</ele>
        <time>2023-10-04T13:21:34Z</time>
      </trkpt>
      <trkpt lat="50.05466" lon="2.21214">
        <ele>52.9</ele>
        <time>2023-10-04T13:21:35Z</time>
      </trkpt>
      <trkpt lat="50.05466" lon="2.21216">
        <ele>53</ele>
        <time>2023-10-04T13:21:36Z</time>
      </trkpt>
      <trkpt lat="50.05467" lon="2.21219">
        <ele>53</ele>
        <time>2023-10-04T13:21:37Z</time>
      </trkpt>
      <trkpt lat="50.05467" lon="2.21221">
        <ele>53</ele>
        <time>2023-10-04T13:21:38Z</time>
      </trkpt>
      <trkpt lat="50.05467" lon="2.21222">
        <ele>53</ele>
        <time>2023-10-04T13:21:39Z</time>
      </trkpt>
      <trkpt lat="50.05467" lon="2.21223">
        <ele>53</ele>
        <time>2023-10-04T13:21:40Z</time>
      </trkpt>
      <trkpt lat="50.05467" lon="2.21225">
        <ele>53</ele>
        <time>2023-10-04T13:21:41Z</time>
      </trkpt>
      <trkpt lat="50.05467" lon="2.21226">
        <ele>53</ele>
        <time>2023-10-04T13:21:42Z</time>
      </trkpt>
      <trkpt lat="50.05467" lon="2.21227">
        <ele>53</ele>
        <time>2023-10-04T13:21:43Z</time>
      </trkpt>
      <trkpt lat="50.05467" lon="2.2123">
        <ele>53</ele>
        <time>2023-10-04T13:21:44Z</time>
      </trkpt>
      <trkpt lat="50.05467" lon="2.21231">
        <ele>53</ele>
        <time>2023-10-04T13:21:45Z</time>
      </trkpt>
      <trkpt lat="50.05468" lon="2.21232">
        <ele>53</ele>
        <time>2023-10-04T13:21:46Z</time>
      </trkpt>
      <trkpt lat="50.05468" lon="2.21233">
        <ele>53.1</ele>
        <time>2023-10-04T13:21:47Z</time>
      </trkpt>
      <trkpt lat="50.05468" lon="2.21234">
        <ele>53.1</ele>
        <time>2023-10-04T13:21:48Z</time>
      </trkpt>
      <trkpt lat="50.05468" lon="2.21236">
        <ele>53.1</ele>
        <time>2023-10-04T13:21:49Z</time>
      </trkpt>
      <trkpt lat="50.05468" lon="2.21238">
        <ele>53.1</ele>
        <time>2023-10-04T13:21:50Z</time>
      </trkpt>
      <trkpt lat="50.05468" lon="2.2124">
        <ele>53.1</ele>
        <time>2023-10-04T13:21:51Z</time>
      </trkpt>
      <trkpt lat="50.05468" lon="2.21242">
        <ele>53.1</ele>
        <time>2023-10-04T13:21:52Z</time>
      </trkpt>
      <trkpt lat="50.05468" lon="2.21244">
        <ele>53.1</ele>
        <time>2023-10-04T13:21:53Z</time>
      </trkpt>
      <trkpt lat="50.05468" lon="2.21247">
        <ele>53.2</ele>
        <time>2023-10-04T13:21:54Z</time>
      </trkpt>
      <trkpt lat="50.05468" lon="2.21249">
        <ele>53.2</ele>
        <time>2023-10-04T13:21:55Z</time>
      </trkpt>
      <trkpt lat="50.05468" lon="2.21251">
        <ele>53.2</ele>
        <time>2023-10-04T13:21:56Z</time>
      </trkpt>
      <trkpt lat="50.05468" lon="2.21255">
        <ele>53.2</ele>
        <time>2023-10-04T13:21:57Z</time>
      </trkpt>
      <trkpt lat="50.05468" lon="2.21256">
        <ele>53.2</ele>
        <time>2023-10-04T13:21:58Z</time>
      </trkpt>
      <trkpt lat="50.05469" lon="2.21257">
        <ele>53.3</ele>
        <time>2023-10-04T13:21:59Z</time>
      </trkpt>
      <trkpt lat="50.05469" lon="2.2126">
        <ele>53.3</ele>
        <time>2023-10-04T13:22:00Z</time>
      </trkpt>
      <trkpt lat="50.0547" lon="2.21262">
        <ele>53.3</ele>
        <time>2023-10-04T13:22:01Z</time>
      </trkpt>
      <trkpt lat="50.0547" lon="2.21263">
        <ele>53.3</ele>
        <time>2023-10-04T13:22:02Z</time>
      </trkpt>
      <trkpt lat="50.05471" lon="2.21265">
        <ele>53.3</ele>
        <time>2023-10-04T13:22:03Z</time>
      </trkpt>
      <trkpt lat="50.05471" lon="2.21266">
        <ele>53.3</ele>
        <time>2023-10-04T13:22:04Z</time>
      </trkpt>
      <trkpt lat="50.05471" lon="2.21267">
        <ele>53.3</ele>
        <time>2023-10-04T13:22:05Z</time>
      </trkpt>
      <trkpt lat="50.05471" lon="2.21268">
        <ele>53.3</ele>
        <time>2023-10-04T13:22:06Z</time>
      </trkpt>
      <trkpt lat="50.05471" lon="2.21269">
        <ele>53.4</ele>
        <time>2023-10-04T13:22:07Z</time>
      </trkpt>
      <trkpt lat="50.05472" lon="2.2127">
        <ele>53.4</ele>
        <time>2023-10-04T13:22:08Z</time>
      </trkpt>
      <trkpt lat="50.05472" lon="2.21272">
        <ele>53.4</ele>
        <time>2023-10-04T13:22:09Z</time>
      </trkpt>
      <trkpt lat="50.05472" lon="2.21273">
        <ele>53.4</ele>
        <time>2023-10-04T13:22:10Z</time>
      </trkpt>
      <trkpt lat="50.05472" lon="2.21275">
        <ele>53.4</ele>
        <time>2023-10-04T13:22:11Z</time>
      </trkpt>
      <trkpt lat="50.05473" lon="2.21277">
        <ele>53.4</ele>
        <time>2023-10-04T13:22:12Z</time>
      </trkpt>
      <trkpt lat="50.05473" lon="2.21278">
        <ele>53.4</ele>
        <time>2023-10-04T13:22:13Z</time>
      </trkpt>
      <trkpt lat="50.05473" lon="2.2128">
        <ele>53.4</ele>
        <time>2023-10-04T13:22:14Z</time>
      </trkpt>
      <trkpt lat="50.05473" lon="2.21281">
        <ele>53.4</ele>
        <time>2023-10-04T13:22:15Z</time>
      </trkpt>
      <trkpt lat="50.05473" lon="2.21283">
        <ele>53.5</ele>
        <time>2023-10-04T13:22:16Z</time>
      </trkpt>
      <trkpt lat="50.05473" lon="2.21284">
        <ele>53.5</ele>
        <time>2023-10-04T13:22:17Z</time>
      </trkpt>
      <trkpt lat="50.05473" lon="2.21286">
        <ele>53.5</ele>
        <time>2023-10-04T13:22:18Z</time>
      </trkpt>
      <trkpt lat="50.05474" lon="2.21287">
        <ele>53.5</ele>
        <time>2023-10-04T13:22:19Z</time>
      </trkpt>
      <trkpt lat="50.05474" lon="2.21288">
        <ele>53.5</ele>
        <time>2023-10-04T13:22:20Z</time>
      </trkpt>
      <trkpt lat="50.05474" lon="2.2129">
        <ele>53.5</ele>
        <time>2023-10-04T13:22:21Z</time>
      </trkpt>
      <trkpt lat="50.05474" lon="2.21291">
        <ele>53.5</ele>
        <time>2023-10-04T13:22:22Z</time>
      </trkpt>
      <trkpt lat="50.05474" lon="2.21293">
        <ele>53.5</ele>
        <time>2023-10-04T13:22:23Z</time>
      </trkpt>
      <trkpt lat="50.05474" lon="2.21294">
        <ele>53.5</ele>
        <time>2023-10-04T13:22:24Z</time>
      </trkpt>
      <trkpt lat="50.05475" lon="2.21296">
        <ele>53.5</ele>
        <time>2023-10-04T13:22:25Z</time>
      </trkpt>
      <trkpt lat="50.05475" lon="2.21297">
        <ele>53.6</ele>
        <time>2023-10-04T13:22:26Z</time>
      </trkpt>
      <trkpt lat="50.05475" lon="2.21298">
        <ele>53.6</ele>
        <time>2023-10-04T13:22:27Z</time>
      </trkpt>
      <trkpt lat="50.05475" lon="2.21299">
        <ele>53.6</ele>
        <time>2023-10-04T13:22:28Z</time>
      </trkpt>
      <trkpt lat="50.05475" lon="2.213">
        <ele>53.6</ele>
        <time>2023-10-04T13:22:29Z</time>
      </trkpt>
      <trkpt lat="50.05475" lon="2.21301">
        <ele>53.6</ele>
        <time>2023-10-04T13:22:30Z</time>
      </trkpt>
      <trkpt lat="50.05475" lon="2.21301">
        <ele>53.6</ele>
        <time>2023-10-04T13:22:31Z</time>
      </trkpt>
      <trkpt lat="50.05476" lon="2.21303">
        <ele>53.6</ele>
        <time>2023-10-04T13:22:32Z</time>
      </trkpt>
      <trkpt lat="50.05476" lon="2.21304">
        <ele>53.6</ele>
        <time>2023-10-04T13:22:33Z</time>
      </trkpt>
      <trkpt lat="50.05477" lon="2.21306">
        <ele>53.6</ele>
        <time>2023-10-04T13:22:34Z</time>
      </trkpt>
      <trkpt lat="50.05477" lon="2.21307">
        <ele>53.6</ele>
        <time>2023-10-04T13:22:35Z</time>
      </trkpt>
      <trkpt lat="50.05478" lon="2.21309">
        <ele>53.6</ele>
        <time>2023-10-04T13:22:36Z</time>
      </trkpt>
      <trkpt lat="50.05478" lon="2.21311">
        <ele>53.7</ele>
        <time>2023-10-04T13:22:37Z</time>
      </trkpt>
      <trkpt lat="50.05479" lon="2.21314">
        <ele>53.7</ele>
        <time>2023-10-04T13:22:38Z</time>
      </trkpt>
      <trkpt lat="50.0548" lon="2.21316">
        <ele>53.7</ele>
        <time>2023-10-04T13:22:39Z</time>
      </trkpt>
      <trkpt lat="50.05481" lon="2.2132">
        <ele>53.7</ele>
        <time>2023-10-04T13:22:40Z</time>
      </trkpt>
      <trkpt lat="50.05481" lon="2.21322">
        <ele>53.7</ele>
        <time>2023-10-04T13:22:41Z</time>
      </trkpt>
      <trkpt lat="50.05482" lon="2.21324">
        <ele>53.7</ele>
        <time>2023-10-04T13:22:42Z</time>
      </trkpt>
      <trkpt lat="50.05482" lon="2.21326">
        <ele>53.7</ele>
        <time>2023-10-04T13:22:43Z</time>
      </trkpt>
      <trkpt lat="50.05483" lon="2.2133">
        <ele>53.7</ele>
        <time>2023-10-04T13:22:44Z</time>
      </trkpt>
      <trkpt lat="50.05483" lon="2.21331">
        <ele>53.7</ele>
        <time>2023-10-04T13:22:45Z</time>
      </trkpt>
      <trkpt lat="50.05483" lon="2.21332">
        <ele>53.7</ele>
        <time>2023-10-04T13:22:46Z</time>
      </trkpt>
      <trkpt lat="50.05483" lon="2.21334">
        <ele>53.7</ele>
        <time>2023-10-04T13:22:47Z</time>
      </trkpt>
      <trkpt lat="50.05484" lon="2.21336">
        <ele>53.7</ele>
        <time>2023-10-04T13:22:48Z</time>
      </trkpt>
      <trkpt lat="50.05484" lon="2.21337">
        <ele>53.8</ele>
        <time>2023-10-04T13:22:49Z</time>
      </trkpt>
      <trkpt lat="50.05485" lon="2.21339">
        <ele>53.8</ele>
        <time>2023-10-04T13:22:50Z</time>
      </trkpt>
      <trkpt lat="50.05486" lon="2.21341">
        <ele>53.8</ele>
        <time>2023-10-04T13:22:51Z</time>
      </trkpt>
      <trkpt lat="50.05487" lon="2.21343">
        <ele>53.8</ele>
        <time>2023-10-04T13:22:52Z</time>
      </trkpt>
      <trkpt lat="50.05487" lon="2.21345">
        <ele>53.8</ele>
        <time>2023-10-04T13:22:53Z</time>
      </trkpt>
      <trkpt lat="50.05487" lon="2.21347">
        <ele>53.8</ele>
        <time>2023-10-04T13:22:54Z</time>
      </trkpt>
      <trkpt lat="50.05486" lon="2.21348">
        <ele>53.8</ele>
        <time>2023-10-04T13:22:55Z</time>
      </trkpt>
      <trkpt lat="50.05485" lon="2.2135">
        <ele>53.8</ele>
        <time>2023-10-04T13:22:56Z</time>
      </trkpt>
      <trkpt lat="50.05484" lon="2.21351">
        <ele>53.8</ele>
        <time>2023-10-04T13:22:57Z</time>
      </trkpt>
      <trkpt lat="50.05484" lon="2.21352">
        <ele>53.8</ele>
        <time>2023-10-04T13:22:58Z</time>
      </trkpt>
      <trkpt lat="50.05484" lon="2.21353">
        <ele>53.8</ele>
        <time>2023-10-04T13:22:59Z</time>
      </trkpt>
      <trkpt lat="50.05483" lon="2.21354">
        <ele>53.8</ele>
        <time>2023-10-04T13:23:00Z</time>
      </trkpt>
      <trkpt lat="50.05483" lon="2.21355">
        <ele>53.8</ele>
        <time>2023-10-04T13:23:01Z</time>
      </trkpt>
      <trkpt lat="50.05483" lon="2.21356">
        <ele>53.8</ele>
        <time>2023-10-04T13:23:02Z</time>
      </trkpt>
      <trkpt lat="50.05483" lon="2.21356">
        <ele>53.8</ele>
        <time>2023-10-04T13:23:03Z</time>
      </trkpt>
      <trkpt lat="50.05483" lon="2.21357">
        <ele>53.8</ele>
        <time>2023-10-04T13:23:04Z</time>
      </trkpt>
      <trkpt lat="50.05483" lon="2.21358">
        <ele>53.8</ele>
        <time>2023-10-04T13:23:05Z</time>
      </trkpt>
      <trkpt lat="50.05483" lon="2.21358">
        <ele>53.8</ele>
        <time>2023-10-04T13:23:06Z</time>
      </trkpt>
      <trkpt lat="50.05483" lon="2.21358">
        <ele>53.8</ele>
        <time>2023-10-04T13:23:07Z</time>
      </trkpt>
      <trkpt lat="50.05483" lon="2.21359">
        <ele>53.8</ele>
        <time>2023-10-04T13:23:08Z</time>
      </trkpt>
      <trkpt lat="50.05483" lon="2.21359">
        <ele>53.8</ele>
        <time>2023-10-04T13:23:09Z</time>
      </trkpt>
      <trkpt lat="50.05483" lon="2.2136">
        <ele>53.8</ele>
        <time>2023-10-04T13:23:10Z</time>
      </trkpt>
      <trkpt lat="50.05483" lon="2.2136">
        <ele>53.9</ele>
        <time>2023-10-04T13:23:11Z</time>
      </trkpt>
      <trkpt lat="50.05482" lon="2.2136">
        <ele>53.9</ele>
        <time>2023-10-04T13:23:12Z</time>
      </trkpt>
      <trkpt lat="50.05482" lon="2.2136">
        <ele>53.9</ele>
        <time>2023-10-04T13:23:13Z</time>
      </trkpt>
      <trkpt lat="50.05482" lon="2.2136">
        <ele>53.9</ele>
        <time>2023-10-04T13:23:14Z</time>
      </trkpt>
      <trkpt lat="50.05482" lon="2.2136">
        <ele>53.9</ele>
        <time>2023-10-04T13:23:15Z</time>
      </trkpt>
      <trkpt lat="50.05483" lon="2.21359">
        <ele>53.9</ele>
        <time>2023-10-04T13:23:16Z</time>
      </trkpt>
      <trkpt lat="50.05483" lon="2.21358">
        <ele>53.9</ele>
        <time>2023-10-04T13:23:17Z</time>
      </trkpt>
      <trkpt lat="50.05483" lon="2.21358">
        <ele>53.9</ele>
        <time>2023-10-04T13:23:18Z</time>
      </trkpt>
      <trkpt lat="50.05483" lon="2.21358">
        <ele>53.9</ele>
        <time>2023-10-04T13:23:19Z</time>
      </trkpt>
      <trkpt lat="50.05483" lon="2.21357">
        <ele>53.9</ele>
        <time>2023-10-04T13:23:20Z</time>
      </trkpt>
      <trkpt lat="50.05483" lon="2.21357">
        <ele>53.9</ele>
        <time>2023-10-04T13:23:21Z</time>
      </trkpt>
      <trkpt lat="50.05483" lon="2.21357">
        <ele>53.9</ele>
        <time>2023-10-04T13:23:22Z</time>
      </trkpt>
      <trkpt lat="50.05483" lon="2.21357">
        <ele>53.9</ele>
        <time>2023-10-04T13:23:23Z</time>
      </trkpt>
      <trkpt lat="50.05483" lon="2.21357">
        <ele>53.9</ele>
        <time>2023-10-04T13:23:24Z</time>
      </trkpt>
      <trkpt lat="50.05483" lon="2.21357">
        <ele>53.9</ele>
        <time>2023-10-04T13:23:25Z</time>
      </trkpt>
      <trkpt lat="50.05483" lon="2.21357">
        <ele>53.9</ele>
        <time>2023-10-04T13:23:26Z</time>
      </trkpt>
      <trkpt lat="50.05483" lon="2.21357">
        <ele>53.9</ele>
        <time>2023-10-04T13:23:27Z</time>
      </trkpt>
      <trkpt lat="50.05483" lon="2.21357">
        <ele>53.9</ele>
        <time>2023-10-04T13:23:28Z</time>
      </trkpt>
      <trkpt lat="50.05483" lon="2.21357">
        <ele>53.9</ele>
        <time>2023-10-04T13:23:29Z</time>
      </trkpt>
      <trkpt lat="50.05483" lon="2.21357">
        <ele>53.9</ele>
        <time>2023-10-04T13:23:30Z</time>
      </trkpt>
      <trkpt lat="50.05483" lon="2.21357">
        <ele>53.9</ele>
        <time>2023-10-04T13:23:31Z</time>
      </trkpt>
      <trkpt lat="50.05483" lon="2.21357">
        <ele>53.9</ele>
        <time>2023-10-04T13:23:32Z</time>
      </trkpt>
      <trkpt lat="50.05483" lon="2.21357">
        <ele>53.9</ele>
        <time>2023-10-04T13:23:33Z</time>
      </trkpt>
      <trkpt lat="50.05483" lon="2.21357">
        <ele>53.9</ele>
        <time>2023-10-04T13:23:34Z</time>
      </trkpt>
      <trkpt lat="50.05483" lon="2.21357">
        <ele>53.9</ele>
        <time>2023-10-04T13:23:35Z</time>
      </trkpt>
      <trkpt lat="50.05483" lon="2.21357">
        <ele>53.9</ele>
        <time>2023-10-04T13:23:36Z</time>
      </trkpt>
      <trkpt lat="50.05483" lon="2.21357">
        <ele>53.9</ele>
        <time>2023-10-04T13:23:37Z</time>
      </trkpt>
      <trkpt lat="50.05483" lon="2.21357">
        <ele>53.9</ele>
        <time>2023-10-04T13:23:38Z</time>
      </trkpt>
      <trkpt lat="50.05483" lon="2.21357">
        <ele>53.9</ele>
        <time>2023-10-04T13:23:39Z</time>
      </trkpt>
      <trkpt lat="50.05483" lon="2.21357">
        <ele>53.9</ele>
        <time>2023-10-04T13:23:40Z</time>
      </trkpt>
      <trkpt lat="50.05483" lon="2.21357">
        <ele>53.9</ele>
        <time>2023-10-04T13:23:41Z</time>
      </trkpt>
      <trkpt lat="50.05483" lon="2.21357">
        <ele>53.9</ele>
        <time>2023-10-04T13:23:42Z</time>
      </trkpt>
      <trkpt lat="50.05483" lon="2.21357">
        <ele>53.9</ele>
        <time>2023-10-04T13:23:43Z</time>
      </trkpt>
      <trkpt lat="50.05483" lon="2.21357">
        <ele>53.9</ele>
        <time>2023-10-04T13:23:44Z</time>
      </trkpt>
      <trkpt lat="50.05483" lon="2.21357">
        <ele>53.9</ele>
        <time>2023-10-04T13:23:45Z</time>
      </trkpt>
      <trkpt lat="50.05483" lon="2.21357">
        <ele>53.9</ele>
        <time>2023-10-04T13:23:46Z</time>
      </trkpt>
      <trkpt lat="50.05483" lon="2.21357">
        <ele>53.9</ele>
        <time>2023-10-04T13:23:47Z</time>
      </trkpt>
      <trkpt lat="50.05483" lon="2.21357">
        <ele>53.9</ele>
        <time>2023-10-04T13:23:48Z</time>
      </trkpt>
      <trkpt lat="50.05483" lon="2.21357">
        <ele>53.9</ele>
        <time>2023-10-04T13:23:49Z</time>
      </trkpt>
      <trkpt lat="50.05483" lon="2.21357">
        <ele>53.9</ele>
        <time>2023-10-04T13:23:50Z</time>
      </trkpt>
      <trkpt lat="50.05483" lon="2.21357">
        <ele>53.9</ele>
        <time>2023-10-04T13:23:51Z</time>
      </trkpt>
      <trkpt lat="50.05483" lon="2.21357">
        <ele>53.9</ele>
        <time>2023-10-04T13:23:52Z</time>
      </trkpt>
      <trkpt lat="50.05483" lon="2.21357">
        <ele>53.9</ele>
        <time>2023-10-04T13:23:53Z</time>
      </trkpt>
      <trkpt lat="50.05483" lon="2.21357">
        <ele>53.9</ele>
        <time>2023-10-04T13:23:54Z</time>
      </trkpt>
      <trkpt lat="50.05483" lon="2.21357">
        <ele>53.9</ele>
        <time>2023-10-04T13:23:55Z</time>
      </trkpt>
      <trkpt lat="50.05483" lon="2.21357">
        <ele>53.9</ele>
        <time>2023-10-04T13:23:56Z</time>
      </trkpt>
      <trkpt lat="50.05483" lon="2.21357">
        <ele>53.9</ele>
        <time>2023-10-04T13:23:57Z</time>
      </trkpt>
      <trkpt lat="50.05483" lon="2.21357">
        <ele>53.9</ele>
        <time>2023-10-04T13:23:58Z</time>
      </trkpt>
      <trkpt lat="50.05483" lon="2.21357">
        <ele>53.9</ele>
        <time>2023-10-04T13:23:59Z</time>
      </trkpt>
      <trkpt lat="50.05483" lon="2.21357">
        <ele>53.9</ele>
        <time>2023-10-04T13:24:00Z</time>
      </trkpt>
      <trkpt lat="50.05483" lon="2.21357">
        <ele>53.9</ele>
        <time>2023-10-04T13:24:01Z</time>
      </trkpt>
      <trkpt lat="50.05483" lon="2.21357">
        <ele>53.9</ele>
        <time>2023-10-04T13:24:02Z</time>
      </trkpt>
      <trkpt lat="50.05483" lon="2.21357">
        <ele>53.9</ele>
        <time>2023-10-04T13:24:03Z</time>
      </trkpt>
      <trkpt lat="50.05483" lon="2.21357">
        <ele>53.9</ele>
        <time>2023-10-04T13:24:04Z</time>
      </trkpt>
      <trkpt lat="50.05483" lon="2.21357">
        <ele>53.9</ele>
        <time>2023-10-04T13:24:05Z</time>
      </trkpt>
      <trkpt lat="50.05483" lon="2.21357">
        <ele>53.9</ele>
        <time>2023-10-04T13:24:06Z</time>
      </trkpt>
      <trkpt lat="50.05483" lon="2.21357">
        <ele>53.9</ele>
        <time>2023-10-04T13:24:07Z</time>
      </trkpt>
      <trkpt lat="50.05483" lon="2.21357">
        <ele>53.9</ele>
        <time>2023-10-04T13:24:08Z</time>
      </trkpt>
      <trkpt lat="50.05483" lon="2.21357">
        <ele>53.9</ele>
        <time>2023-10-04T13:24:09Z</time>
      </trkpt>
      <trkpt lat="50.05483" lon="2.21357">
        <ele>53.9</ele>
        <time>2023-10-04T13:24:10Z</time>
      </trkpt>
      <trkpt lat="50.05483" lon="2.21357">
        <ele>53.9</ele>
        <time>2023-10-04T13:24:11Z</time>
      </trkpt>
      <trkpt lat="50.05486" lon="2.21356">
        <ele>53.9</ele>
        <time>2023-10-04T13:24:12Z</time>
      </trkpt>
      <trkpt lat="50.05487" lon="2.21356">
        <ele>53.9</ele>
        <time>2023-10-04T13:24:13Z</time>
      </trkpt>
      <trkpt lat="50.05487" lon="2.21356">
        <ele>53.9</ele>
        <time>2023-10-04T13:24:14Z</time>
      </trkpt>
      <trkpt lat="50.05488" lon="2.21356">
        <ele>53.9</ele>
        <time>2023-10-04T13:24:15Z</time>
      </trkpt>
      <trkpt lat="50.05488" lon="2.21356">
        <ele>53.9</ele>
        <time>2023-10-04T13:24:16Z</time>
      </trkpt>
      <trkpt lat="50.05488" lon="2.21356">
        <ele>53.9</ele>
        <time>2023-10-04T13:24:17Z</time>
      </trkpt>
      <trkpt lat="50.05487" lon="2.21356">
        <ele>53.9</ele>
        <time>2023-10-04T13:24:18Z</time>
      </trkpt>
      <trkpt lat="50.05487" lon="2.21356">
        <ele>53.9</ele>
        <time>2023-10-04T13:24:19Z</time>
      </trkpt>
      <trkpt lat="50.05488" lon="2.21356">
        <ele>53.9</ele>
        <time>2023-10-04T13:24:20Z</time>
      </trkpt>
      <trkpt lat="50.05488" lon="2.21356">
        <ele>53.9</ele>
        <time>2023-10-04T13:24:21Z</time>
      </trkpt>
      <trkpt lat="50.05488" lon="2.21356">
        <ele>53.9</ele>
        <time>2023-10-04T13:24:22Z</time>
      </trkpt>
      <trkpt lat="50.05488" lon="2.21356">
        <ele>53.9</ele>
        <time>2023-10-04T13:24:23Z</time>
      </trkpt>
      <trkpt lat="50.05488" lon="2.21356">
        <ele>53.9</ele>
        <time>2023-10-04T13:24:24Z</time>
      </trkpt>
      <trkpt lat="50.05488" lon="2.21356">
        <ele>53.9</ele>
        <time>2023-10-04T13:24:25Z</time>
      </trkpt>
      <trkpt lat="50.05488" lon="2.21356">
        <ele>53.9</ele>
        <time>2023-10-04T13:24:26Z</time>
      </trkpt>
      <trkpt lat="50.05488" lon="2.21356">
        <ele>53.9</ele>
        <time>2023-10-04T13:24:27Z</time>
      </trkpt>
      <trkpt lat="50.05488" lon="2.21356">
        <ele>53.9</ele>
        <time>2023-10-04T13:24:28Z</time>
      </trkpt>
      <trkpt lat="50.05488" lon="2.21356">
        <ele>53.9</ele>
        <time>2023-10-04T13:24:29Z</time>
      </trkpt>
      <trkpt lat="50.05488" lon="2.21356">
        <ele>53.9</ele>
        <time>2023-10-04T13:24:30Z</time>
      </trkpt>
      <trkpt lat="50.05488" lon="2.21356">
        <ele>53.9</ele>
        <time>2023-10-04T13:24:31Z</time>
      </trkpt>
      <trkpt lat="50.05488" lon="2.21356">
        <ele>53.9</ele>
        <time>2023-10-04T13:24:32Z</time>
      </trkpt>
      <trkpt lat="50.05488" lon="2.21356">
        <ele>53.9</ele>
        <time>2023-10-04T13:24:33Z</time>
      </trkpt>
      <trkpt lat="50.05488" lon="2.21356">
        <ele>53.9</ele>
        <time>2023-10-04T13:24:34Z</time>
      </trkpt>
      <trkpt lat="50.05488" lon="2.21356">
        <ele>53.9</ele>
        <time>2023-10-04T13:24:35Z</time>
      </trkpt>
      <trkpt lat="50.05489" lon="2.21357">
        <ele>53.9</ele>
        <time>2023-10-04T13:24:36Z</time>
      </trkpt>
      <trkpt lat="50.05489" lon="2.21357">
        <ele>53.9</ele>
        <time>2023-10-04T13:24:37Z</time>
      </trkpt>
      <trkpt lat="50.05489" lon="2.21358">
        <ele>53.9</ele>
        <time>2023-10-04T13:24:38Z</time>
      </trkpt>
      <trkpt lat="50.0549" lon="2.21358">
        <ele>53.9</ele>
        <time>2023-10-04T13:24:39Z</time>
      </trkpt>
      <trkpt lat="50.0549" lon="2.21358">
        <ele>53.9</ele>
        <time>2023-10-04T13:24:40Z</time>
      </trkpt>
      <trkpt lat="50.0549" lon="2.21359">
        <ele>53.9</ele>
        <time>2023-10-04T13:24:41Z</time>
      </trkpt>
      <trkpt lat="50.0549" lon="2.21359">
        <ele>53.9</ele>
        <time>2023-10-04T13:24:42Z</time>
      </trkpt>
      <trkpt lat="50.0549" lon="2.21359">
        <ele>53.9</ele>
        <time>2023-10-04T13:24:43Z</time>
      </trkpt>
      <trkpt lat="50.05491" lon="2.2136">
        <ele>54</ele>
        <time>2023-10-04T13:24:44Z</time>
      </trkpt>
      <trkpt lat="50.05491" lon="2.2136">
        <ele>54</ele>
        <time>2023-10-04T13:24:45Z</time>
      </trkpt>
      <trkpt lat="50.05492" lon="2.2136">
        <ele>54</ele>
        <time>2023-10-04T13:24:46Z</time>
      </trkpt>
      <trkpt lat="50.05492" lon="2.21361">
        <ele>54</ele>
        <time>2023-10-04T13:24:47Z</time>
      </trkpt>
      <trkpt lat="50.05493" lon="2.21362">
        <ele>54</ele>
        <time>2023-10-04T13:24:48Z</time>
      </trkpt>
      <trkpt lat="50.05494" lon="2.21363">
        <ele>54</ele>
        <time>2023-10-04T13:24:49Z</time>
      </trkpt>
      <trkpt lat="50.05495" lon="2.21364">
        <ele>54</ele>
        <time>2023-10-04T13:24:50Z</time>
      </trkpt>
      <trkpt lat="50.05495" lon="2.21365">
        <ele>54</ele>
        <time>2023-10-04T13:24:51Z</time>
      </trkpt>
      <trkpt lat="50.05496" lon="2.21366">
        <ele>54</ele>
        <time>2023-10-04T13:24:52Z</time>
      </trkpt>
      <trkpt lat="50.05496" lon="2.21367">
        <ele>54</ele>
        <time>2023-10-04T13:24:53Z</time>
      </trkpt>
      <trkpt lat="50.05497" lon="2.21367">
        <ele>54</ele>
        <time>2023-10-04T13:24:54Z</time>
      </trkpt>
      <trkpt lat="50.05497" lon="2.21368">
        <ele>54</ele>
        <time>2023-10-04T13:24:55Z</time>
      </trkpt>
      <trkpt lat="50.05498" lon="2.2137">
        <ele>54</ele>
        <time>2023-10-04T13:24:56Z</time>
      </trkpt>
      <trkpt lat="50.05498" lon="2.21371">
        <ele>54</ele>
        <time>2023-10-04T13:24:57Z</time>
      </trkpt>
      <trkpt lat="50.05499" lon="2.21373">
        <ele>54</ele>
        <time>2023-10-04T13:24:58Z</time>
      </trkpt>
      <trkpt lat="50.05499" lon="2.21374">
        <ele>54.1</ele>
        <time>2023-10-04T13:24:59Z</time>
      </trkpt>
      <trkpt lat="50.055" lon="2.21375">
        <ele>54.1</ele>
        <time>2023-10-04T13:25:00Z</time>
      </trkpt>
      <trkpt lat="50.055" lon="2.21376">
        <ele>54.1</ele>
        <time>2023-10-04T13:25:01Z</time>
      </trkpt>
      <trkpt lat="50.055" lon="2.21376">
        <ele>54.1</ele>
        <time>2023-10-04T13:25:02Z</time>
      </trkpt>
      <trkpt lat="50.05501" lon="2.21377">
        <ele>54.1</ele>
        <time>2023-10-04T13:25:03Z</time>
      </trkpt>
      <trkpt lat="50.05501" lon="2.21378">
        <ele>54.1</ele>
        <time>2023-10-04T13:25:04Z</time>
      </trkpt>
      <trkpt lat="50.05502" lon="2.21379">
        <ele>54.1</ele>
        <time>2023-10-04T13:25:05Z</time>
      </trkpt>
      <trkpt lat="50.05502" lon="2.2138">
        <ele>54.1</ele>
        <time>2023-10-04T13:25:06Z</time>
      </trkpt>
      <trkpt lat="50.05503" lon="2.21381">
        <ele>54.1</ele>
        <time>2023-10-04T13:25:07Z</time>
      </trkpt>
      <trkpt lat="50.05504" lon="2.21383">
        <ele>54.1</ele>
        <time>2023-10-04T13:25:08Z</time>
      </trkpt>
      <trkpt lat="50.05504" lon="2.21384">
        <ele>54.2</ele>
        <time>2023-10-04T13:25:09Z</time>
      </trkpt>
      <trkpt lat="50.05505" lon="2.21386">
        <ele>54.2</ele>
        <time>2023-10-04T13:25:10Z</time>
      </trkpt>
      <trkpt lat="50.05506" lon="2.21387">
        <ele>54.2</ele>
        <time>2023-10-04T13:25:11Z</time>
      </trkpt>
      <trkpt lat="50.05506" lon="2.21388">
        <ele>54.2</ele>
        <time>2023-10-04T13:25:12Z</time>
      </trkpt>
      <trkpt lat="50.05507" lon="2.21389">
        <ele>54.2</ele>
        <time>2023-10-04T13:25:13Z</time>
      </trkpt>
      <trkpt lat="50.05507" lon="2.21391">
        <ele>54.2</ele>
        <time>2023-10-04T13:25:14Z</time>
      </trkpt>
      <trkpt lat="50.05508" lon="2.21392">
        <ele>54.2</ele>
        <time>2023-10-04T13:25:15Z</time>
      </trkpt>
      <trkpt lat="50.05508" lon="2.21392">
        <ele>54.2</ele>
        <time>2023-10-04T13:25:16Z</time>
      </trkpt>
      <trkpt lat="50.05509" lon="2.21393">
        <ele>54.3</ele>
        <time>2023-10-04T13:25:17Z</time>
      </trkpt>
      <trkpt lat="50.05509" lon="2.21394">
        <ele>54.3</ele>
        <time>2023-10-04T13:25:18Z</time>
      </trkpt>
      <trkpt lat="50.0551" lon="2.21395">
        <ele>54.3</ele>
        <time>2023-10-04T13:25:19Z</time>
      </trkpt>
      <trkpt lat="50.05511" lon="2.21397">
        <ele>54.3</ele>
        <time>2023-10-04T13:25:20Z</time>
      </trkpt>
      <trkpt lat="50.05512" lon="2.21398">
        <ele>54.3</ele>
        <time>2023-10-04T13:25:21Z</time>
      </trkpt>
      <trkpt lat="50.05513" lon="2.21401">
        <ele>54.3</ele>
        <time>2023-10-04T13:25:22Z</time>
      </trkpt>
      <trkpt lat="50.05514" lon="2.21405">
        <ele>54.4</ele>
        <time>2023-10-04T13:25:23Z</time>
      </trkpt>
      <trkpt lat="50.05515" lon="2.21406">
        <ele>54.4</ele>
        <time>2023-10-04T13:25:24Z</time>
      </trkpt>
      <trkpt lat="50.05516" lon="2.21408">
        <ele>54.4</ele>
        <time>2023-10-04T13:25:25Z</time>
      </trkpt>
      <trkpt lat="50.05517" lon="2.2141">
        <ele>54.5</ele>
        <time>2023-10-04T13:25:26Z</time>
      </trkpt>
      <trkpt lat="50.05518" lon="2.21413">
        <ele>54.5</ele>
        <time>2023-10-04T13:25:27Z</time>
      </trkpt>
      <trkpt lat="50.05518" lon="2.21415">
        <ele>54.5</ele>
        <time>2023-10-04T13:25:28Z</time>
      </trkpt>
      <trkpt lat="50.05519" lon="2.21417">
        <ele>54.5</ele>
        <time>2023-10-04T13:25:29Z</time>
      </trkpt>
      <trkpt lat="50.0552" lon="2.21419">
        <ele>54.5</ele>
        <time>2023-10-04T13:25:30Z</time>
      </trkpt>
      <trkpt lat="50.05521" lon="2.21421">
        <ele>54.6</ele>
        <time>2023-10-04T13:25:31Z</time>
      </trkpt>
      <trkpt lat="50.05522" lon="2.21422">
        <ele>54.6</ele>
        <time>2023-10-04T13:25:32Z</time>
      </trkpt>
      <trkpt lat="50.05523" lon="2.21423">
        <ele>54.6</ele>
        <time>2023-10-04T13:25:33Z</time>
      </trkpt>
      <trkpt lat="50.05524" lon="2.21425">
        <ele>54.6</ele>
        <time>2023-10-04T13:25:34Z</time>
      </trkpt>
      <trkpt lat="50.05525" lon="2.21426">
        <ele>54.6</ele>
        <time>2023-10-04T13:25:35Z</time>
      </trkpt>
      <trkpt lat="50.05525" lon="2.21427">
        <ele>54.6</ele>
        <time>2023-10-04T13:25:36Z</time>
      </trkpt>
      <trkpt lat="50.05526" lon="2.21428">
        <ele>54.6</ele>
        <time>2023-10-04T13:25:37Z</time>
      </trkpt>
      <trkpt lat="50.05527" lon="2.2143">
        <ele>54.7</ele>
        <time>2023-10-04T13:25:38Z</time>
      </trkpt>
      <trkpt lat="50.05528" lon="2.21431">
        <ele>54.7</ele>
        <time>2023-10-04T13:25:39Z</time>
      </trkpt>
      <trkpt lat="50.05529" lon="2.21432">
        <ele>54.7</ele>
        <time>2023-10-04T13:25:40Z</time>
      </trkpt>
      <trkpt lat="50.05529" lon="2.21433">
        <ele>54.7</ele>
        <time>2023-10-04T13:25:41Z</time>
      </trkpt>
      <trkpt lat="50.0553" lon="2.21434">
        <ele>54.7</ele>
        <time>2023-10-04T13:25:42Z</time>
      </trkpt>
      <trkpt lat="50.05531" lon="2.21435">
        <ele>54.7</ele>
        <time>2023-10-04T13:25:43Z</time>
      </trkpt>
      <trkpt lat="50.05532" lon="2.21436">
        <ele>54.7</ele>
        <time>2023-10-04T13:25:44Z</time>
      </trkpt>
      <trkpt lat="50.05533" lon="2.21437">
        <ele>54.8</ele>
        <time>2023-10-04T13:25:45Z</time>
      </trkpt>
      <trkpt lat="50.05534" lon="2.21438">
        <ele>54.8</ele>
        <time>2023-10-04T13:25:46Z</time>
      </trkpt>
      <trkpt lat="50.05534" lon="2.21439">
        <ele>54.8</ele>
        <time>2023-10-04T13:25:47Z</time>
      </trkpt>
      <trkpt lat="50.05535" lon="2.2144">
        <ele>54.8</ele>
        <time>2023-10-04T13:25:48Z</time>
      </trkpt>
      <trkpt lat="50.05536" lon="2.21441">
        <ele>54.8</ele>
        <time>2023-10-04T13:25:49Z</time>
      </trkpt>
      <trkpt lat="50.05536" lon="2.21442">
        <ele>54.8</ele>
        <time>2023-10-04T13:25:50Z</time>
      </trkpt>
      <trkpt lat="50.05537" lon="2.21443">
        <ele>54.8</ele>
        <time>2023-10-04T13:25:51Z</time>
      </trkpt>
      <trkpt lat="50.05538" lon="2.21444">
        <ele>54.9</ele>
        <time>2023-10-04T13:25:52Z</time>
      </trkpt>
      <trkpt lat="50.05538" lon="2.21445">
        <ele>54.9</ele>
        <time>2023-10-04T13:25:53Z</time>
      </trkpt>
      <trkpt lat="50.05539" lon="2.21446">
        <ele>54.9</ele>
        <time>2023-10-04T13:25:54Z</time>
      </trkpt>
      <trkpt lat="50.05539" lon="2.21447">
        <ele>54.9</ele>
        <time>2023-10-04T13:25:55Z</time>
      </trkpt>
      <trkpt lat="50.0554" lon="2.21448">
        <ele>54.9</ele>
        <time>2023-10-04T13:25:56Z</time>
      </trkpt>
      <trkpt lat="50.0554" lon="2.21448">
        <ele>54.9</ele>
        <time>2023-10-04T13:25:57Z</time>
      </trkpt>
      <trkpt lat="50.05541" lon="2.21449">
        <ele>54.9</ele>
        <time>2023-10-04T13:25:58Z</time>
      </trkpt>
      <trkpt lat="50.05541" lon="2.2145">
        <ele>54.9</ele>
        <time>2023-10-04T13:25:59Z</time>
      </trkpt>
      <trkpt lat="50.05542" lon="2.21451">
        <ele>54.9</ele>
        <time>2023-10-04T13:26:00Z</time>
      </trkpt>
      <trkpt lat="50.05543" lon="2.21452">
        <ele>55</ele>
        <time>2023-10-04T13:26:01Z</time>
      </trkpt>
      <trkpt lat="50.05543" lon="2.21454">
        <ele>55</ele>
        <time>2023-10-04T13:26:02Z</time>
      </trkpt>
      <trkpt lat="50.05544" lon="2.21455">
        <ele>55</ele>
        <time>2023-10-04T13:26:03Z</time>
      </trkpt>
      <trkpt lat="50.05544" lon="2.21456">
        <ele>55</ele>
        <time>2023-10-04T13:26:04Z</time>
      </trkpt>
      <trkpt lat="50.05545" lon="2.21457">
        <ele>55</ele>
        <time>2023-10-04T13:26:05Z</time>
      </trkpt>
      <trkpt lat="50.05545" lon="2.21458">
        <ele>55</ele>
        <time>2023-10-04T13:26:06Z</time>
      </trkpt>
      <trkpt lat="50.05546" lon="2.21459">
        <ele>55</ele>
        <time>2023-10-04T13:26:07Z</time>
      </trkpt>
      <trkpt lat="50.05546" lon="2.2146">
        <ele>55</ele>
        <time>2023-10-04T13:26:08Z</time>
      </trkpt>
      <trkpt lat="50.05547" lon="2.21461">
        <ele>55</ele>
        <time>2023-10-04T13:26:09Z</time>
      </trkpt>
      <trkpt lat="50.05548" lon="2.21463">
        <ele>55</ele>
        <time>2023-10-04T13:26:10Z</time>
      </trkpt>
      <trkpt lat="50.05549" lon="2.21465">
        <ele>55.1</ele>
        <time>2023-10-04T13:26:11Z</time>
      </trkpt>
      <trkpt lat="50.05549" lon="2.21466">
        <ele>55.1</ele>
        <time>2023-10-04T13:26:12Z</time>
      </trkpt>
      <trkpt lat="50.0555" lon="2.21467">
        <ele>55.1</ele>
        <time>2023-10-04T13:26:13Z</time>
      </trkpt>
      <trkpt lat="50.0555" lon="2.21469">
        <ele>55.1</ele>
        <time>2023-10-04T13:26:14Z</time>
      </trkpt>
      <trkpt lat="50.05551" lon="2.2147">
        <ele>55.1</ele>
        <time>2023-10-04T13:26:15Z</time>
      </trkpt>
      <trkpt lat="50.05552" lon="2.21472">
        <ele>55.1</ele>
        <time>2023-10-04T13:26:16Z</time>
      </trkpt>
      <trkpt lat="50.05553" lon="2.21475">
        <ele>55.1</ele>
        <time>2023-10-04T13:26:17Z</time>
      </trkpt>
      <trkpt lat="50.05554" lon="2.21476">
        <ele>55.1</ele>
        <time>2023-10-04T13:26:18Z</time>
      </trkpt>
      <trkpt lat="50.05554" lon="2.21477">
        <ele>55.1</ele>
        <time>2023-10-04T13:26:19Z</time>
      </trkpt>
      <trkpt lat="50.05555" lon="2.21478">
        <ele>55.1</ele>
        <time>2023-10-04T13:26:20Z</time>
      </trkpt>
      <trkpt lat="50.05556" lon="2.2148">
        <ele>55.2</ele>
        <time>2023-10-04T13:26:21Z</time>
      </trkpt>
      <trkpt lat="50.05557" lon="2.21481">
        <ele>55.2</ele>
        <time>2023-10-04T13:26:22Z</time>
      </trkpt>
      <trkpt lat="50.05558" lon="2.21483">
        <ele>55.2</ele>
        <time>2023-10-04T13:26:23Z</time>
      </trkpt>
      <trkpt lat="50.0556" lon="2.21485">
        <ele>55.2</ele>
        <time>2023-10-04T13:26:24Z</time>
      </trkpt>
      <trkpt lat="50.0556" lon="2.21486">
        <ele>55.2</ele>
        <time>2023-10-04T13:26:25Z</time>
      </trkpt>
      <trkpt lat="50.05561" lon="2.21487">
        <ele>55.2</ele>
        <time>2023-10-04T13:26:26Z</time>
      </trkpt>
      <trkpt lat="50.05562" lon="2.21489">
        <ele>55.2</ele>
        <time>2023-10-04T13:26:27Z</time>
      </trkpt>
      <trkpt lat="50.05563" lon="2.2149">
        <ele>55.2</ele>
        <time>2023-10-04T13:26:28Z</time>
      </trkpt>
      <trkpt lat="50.05564" lon="2.21491">
        <ele>55.2</ele>
        <time>2023-10-04T13:26:29Z</time>
      </trkpt>
      <trkpt lat="50.05565" lon="2.21493">
        <ele>55.2</ele>
        <time>2023-10-04T13:26:30Z</time>
      </trkpt>
      <trkpt lat="50.05566" lon="2.21494">
        <ele>55.2</ele>
        <time>2023-10-04T13:26:31Z</time>
      </trkpt>
      <trkpt lat="50.05567" lon="2.21494">
        <ele>55.2</ele>
        <time>2023-10-04T13:26:32Z</time>
      </trkpt>
      <trkpt lat="50.05568" lon="2.21496">
        <ele>55.3</ele>
        <time>2023-10-04T13:26:33Z</time>
      </trkpt>
      <trkpt lat="50.05569" lon="2.21497">
        <ele>55.3</ele>
        <time>2023-10-04T13:26:34Z</time>
      </trkpt>
      <trkpt lat="50.0557" lon="2.21498">
        <ele>55.3</ele>
        <time>2023-10-04T13:26:35Z</time>
      </trkpt>
      <trkpt lat="50.05571" lon="2.21499">
        <ele>55.3</ele>
        <time>2023-10-04T13:26:36Z</time>
      </trkpt>
      <trkpt lat="50.05572" lon="2.215">
        <ele>55.3</ele>
        <time>2023-10-04T13:26:37Z</time>
      </trkpt>
      <trkpt lat="50.05573" lon="2.21501">
        <ele>55.3</ele>
        <time>2023-10-04T13:26:38Z</time>
      </trkpt>
      <trkpt lat="50.05574" lon="2.21503">
        <ele>55.3</ele>
        <time>2023-10-04T13:26:39Z</time>
      </trkpt>
      <trkpt lat="50.05575" lon="2.21503">
        <ele>55.3</ele>
        <time>2023-10-04T13:26:40Z</time>
      </trkpt>
      <trkpt lat="50.05576" lon="2.21504">
        <ele>55.3</ele>
        <time>2023-10-04T13:26:41Z</time>
      </trkpt>
      <trkpt lat="50.05578" lon="2.21506">
        <ele>55.3</ele>
        <time>2023-10-04T13:26:42Z</time>
      </trkpt>
      <trkpt lat="50.05578" lon="2.21507">
        <ele>55.3</ele>
        <time>2023-10-04T13:26:43Z</time>
      </trkpt>
      <trkpt lat="50.05579" lon="2.21507">
        <ele>55.3</ele>
        <time>2023-10-04T13:26:44Z</time>
      </trkpt>
      <trkpt lat="50.0558" lon="2.21508">
        <ele>55.3</ele>
        <time>2023-10-04T13:26:45Z</time>
      </trkpt>
      <trkpt lat="50.05582" lon="2.21509">
        <ele>55.3</ele>
        <time>2023-10-04T13:26:46Z</time>
      </trkpt>
      <trkpt lat="50.05583" lon="2.21511">
        <ele>55.3</ele>
        <time>2023-10-04T13:26:47Z</time>
      </trkpt>
      <trkpt lat="50.05584" lon="2.21511">
        <ele>55.3</ele>
        <time>2023-10-04T13:26:48Z</time>
      </trkpt>
      <trkpt lat="50.05585" lon="2.21512">
        <ele>55.3</ele>
        <time>2023-10-04T13:26:49Z</time>
      </trkpt>
      <trkpt lat="50.05586" lon="2.21513">
        <ele>55.3</ele>
        <time>2023-10-04T13:26:50Z</time>
      </trkpt>
      <trkpt lat="50.05586" lon="2.21514">
        <ele>55.3</ele>
        <time>2023-10-04T13:26:51Z</time>
      </trkpt>
      <trkpt lat="50.05587" lon="2.21515">
        <ele>55.3</ele>
        <time>2023-10-04T13:26:52Z</time>
      </trkpt>
      <trkpt lat="50.05588" lon="2.21516">
        <ele>55.3</ele>
        <time>2023-10-04T13:26:53Z</time>
      </trkpt>
      <trkpt lat="50.05589" lon="2.21516">
        <ele>55.4</ele>
        <time>2023-10-04T13:26:54Z</time>
      </trkpt>
      <trkpt lat="50.0559" lon="2.21517">
        <ele>55.4</ele>
        <time>2023-10-04T13:26:55Z</time>
      </trkpt>
      <trkpt lat="50.05591" lon="2.21518">
        <ele>55.4</ele>
        <time>2023-10-04T13:26:56Z</time>
      </trkpt>
      <trkpt lat="50.05592" lon="2.21519">
        <ele>55.4</ele>
        <time>2023-10-04T13:26:57Z</time>
      </trkpt>
      <trkpt lat="50.05593" lon="2.2152">
        <ele>55.4</ele>
        <time>2023-10-04T13:26:58Z</time>
      </trkpt>
      <trkpt lat="50.05594" lon="2.2152">
        <ele>55.4</ele>
        <time>2023-10-04T13:26:59Z</time>
      </trkpt>
      <trkpt lat="50.05594" lon="2.21521">
        <ele>55.4</ele>
        <time>2023-10-04T13:27:00Z</time>
      </trkpt>
      <trkpt lat="50.05595" lon="2.21521">
        <ele>55.4</ele>
        <time>2023-10-04T13:27:01Z</time>
      </trkpt>
      <trkpt lat="50.05596" lon="2.21522">
        <ele>55.4</ele>
        <time>2023-10-04T13:27:02Z</time>
      </trkpt>
      <trkpt lat="50.05597" lon="2.21523">
        <ele>55.4</ele>
        <time>2023-10-04T13:27:03Z</time>
      </trkpt>
      <trkpt lat="50.05598" lon="2.21524">
        <ele>55.4</ele>
        <time>2023-10-04T13:27:04Z</time>
      </trkpt>
      <trkpt lat="50.05599" lon="2.21525">
        <ele>55.4</ele>
        <time>2023-10-04T13:27:05Z</time>
      </trkpt>
      <trkpt lat="50.05601" lon="2.21526">
        <ele>55.5</ele>
        <time>2023-10-04T13:27:06Z</time>
      </trkpt>
      <trkpt lat="50.05602" lon="2.21527">
        <ele>55.5</ele>
        <time>2023-10-04T13:27:07Z</time>
      </trkpt>
      <trkpt lat="50.05602" lon="2.21528">
        <ele>55.5</ele>
        <time>2023-10-04T13:27:08Z</time>
      </trkpt>
      <trkpt lat="50.05603" lon="2.21529">
        <ele>55.5</ele>
        <time>2023-10-04T13:27:09Z</time>
      </trkpt>
      <trkpt lat="50.05604" lon="2.2153">
        <ele>55.5</ele>
        <time>2023-10-04T13:27:10Z</time>
      </trkpt>
      <trkpt lat="50.05605" lon="2.21531">
        <ele>55.5</ele>
        <time>2023-10-04T13:27:11Z</time>
      </trkpt>
      <trkpt lat="50.05606" lon="2.21532">
        <ele>55.5</ele>
        <time>2023-10-04T13:27:12Z</time>
      </trkpt>
      <trkpt lat="50.05607" lon="2.21533">
        <ele>55.5</ele>
        <time>2023-10-04T13:27:13Z</time>
      </trkpt>
      <trkpt lat="50.05608" lon="2.21534">
        <ele>55.5</ele>
        <time>2023-10-04T13:27:14Z</time>
      </trkpt>
      <trkpt lat="50.05609" lon="2.21535">
        <ele>55.5</ele>
        <time>2023-10-04T13:27:15Z</time>
      </trkpt>
      <trkpt lat="50.0561" lon="2.21536">
        <ele>55.5</ele>
        <time>2023-10-04T13:27:16Z</time>
      </trkpt>
      <trkpt lat="50.05611" lon="2.21537">
        <ele>55.5</ele>
        <time>2023-10-04T13:27:17Z</time>
      </trkpt>
      <trkpt lat="50.05612" lon="2.21538">
        <ele>55.5</ele>
        <time>2023-10-04T13:27:18Z</time>
      </trkpt>
      <trkpt lat="50.05613" lon="2.21538">
        <ele>55.5</ele>
        <time>2023-10-04T13:27:19Z</time>
      </trkpt>
      <trkpt lat="50.05613" lon="2.21539">
        <ele>55.5</ele>
        <time>2023-10-04T13:27:20Z</time>
      </trkpt>
      <trkpt lat="50.05614" lon="2.2154">
        <ele>55.5</ele>
        <time>2023-10-04T13:27:21Z</time>
      </trkpt>
      <trkpt lat="50.05615" lon="2.21541">
        <ele>55.5</ele>
        <time>2023-10-04T13:27:22Z</time>
      </trkpt>
      <trkpt lat="50.05616" lon="2.21542">
        <ele>55.5</ele>
        <time>2023-10-04T13:27:23Z</time>
      </trkpt>
      <trkpt lat="50.05617" lon="2.21542">
        <ele>55.5</ele>
        <time>2023-10-04T13:27:24Z</time>
      </trkpt>
      <trkpt lat="50.05618" lon="2.21543">
        <ele>55.5</ele>
        <time>2023-10-04T13:27:25Z</time>
      </trkpt>
      <trkpt lat="50.05619" lon="2.21544">
        <ele>55.5</ele>
        <time>2023-10-04T13:27:26Z</time>
      </trkpt>
      <trkpt lat="50.0562" lon="2.21544">
        <ele>55.5</ele>
        <time>2023-10-04T13:27:27Z</time>
      </trkpt>
      <trkpt lat="50.0562" lon="2.21545">
        <ele>55.5</ele>
        <time>2023-10-04T13:27:28Z</time>
      </trkpt>
      <trkpt lat="50.05621" lon="2.21545">
        <ele>55.5</ele>
        <time>2023-10-04T13:27:29Z</time>
      </trkpt>
      <trkpt lat="50.05622" lon="2.21546">
        <ele>55.5</ele>
        <time>2023-10-04T13:27:30Z</time>
      </trkpt>
      <trkpt lat="50.05623" lon="2.21547">
        <ele>55.5</ele>
        <time>2023-10-04T13:27:31Z</time>
      </trkpt>
      <trkpt lat="50.05624" lon="2.21548">
        <ele>55.5</ele>
        <time>2023-10-04T13:27:32Z</time>
      </trkpt>
      <trkpt lat="50.05625" lon="2.21548">
        <ele>55.5</ele>
        <time>2023-10-04T13:27:33Z</time>
      </trkpt>
      <trkpt lat="50.05625" lon="2.21549">
        <ele>55.5</ele>
        <time>2023-10-04T13:27:34Z</time>
      </trkpt>
      <trkpt lat="50.05626" lon="2.21549">
        <ele>55.5</ele>
        <time>2023-10-04T13:27:35Z</time>
      </trkpt>
      <trkpt lat="50.05627" lon="2.2155">
        <ele>55.5</ele>
        <time>2023-10-04T13:27:36Z</time>
      </trkpt>
      <trkpt lat="50.05627" lon="2.21551">
        <ele>55.5</ele>
        <time>2023-10-04T13:27:37Z</time>
      </trkpt>
      <trkpt lat="50.05628" lon="2.21551">
        <ele>55.5</ele>
        <time>2023-10-04T13:27:38Z</time>
      </trkpt>
      <trkpt lat="50.05629" lon="2.21552">
        <ele>55.5</ele>
        <time>2023-10-04T13:27:39Z</time>
      </trkpt>
      <trkpt lat="50.0563" lon="2.21553">
        <ele>55.5</ele>
        <time>2023-10-04T13:27:40Z</time>
      </trkpt>
      <trkpt lat="50.05631" lon="2.21553">
        <ele>55.5</ele>
        <time>2023-10-04T13:27:41Z</time>
      </trkpt>
      <trkpt lat="50.05631" lon="2.21554">
        <ele>55.5</ele>
        <time>2023-10-04T13:27:42Z</time>
      </trkpt>
      <trkpt lat="50.05632" lon="2.21554">
        <ele>55.5</ele>
        <time>2023-10-04T13:27:43Z</time>
      </trkpt>
      <trkpt lat="50.05633" lon="2.21555">
        <ele>55.5</ele>
        <time>2023-10-04T13:27:44Z</time>
      </trkpt>
      <trkpt lat="50.05634" lon="2.21555">
        <ele>55.5</ele>
        <time>2023-10-04T13:27:45Z</time>
      </trkpt>
      <trkpt lat="50.05635" lon="2.21556">
        <ele>55.5</ele>
        <time>2023-10-04T13:27:46Z</time>
      </trkpt>
      <trkpt lat="50.05636" lon="2.21556">
        <ele>55.5</ele>
        <time>2023-10-04T13:27:47Z</time>
      </trkpt>
      <trkpt lat="50.05637" lon="2.21557">
        <ele>55.5</ele>
        <time>2023-10-04T13:27:48Z</time>
      </trkpt>
      <trkpt lat="50.05638" lon="2.21558">
        <ele>55.5</ele>
        <time>2023-10-04T13:27:49Z</time>
      </trkpt>
      <trkpt lat="50.0564" lon="2.21559">
        <ele>55.5</ele>
        <time>2023-10-04T13:27:50Z</time>
      </trkpt>
      <trkpt lat="50.05641" lon="2.2156">
        <ele>55.5</ele>
        <time>2023-10-04T13:27:51Z</time>
      </trkpt>
      <trkpt lat="50.05641" lon="2.2156">
        <ele>55.5</ele>
        <time>2023-10-04T13:27:52Z</time>
      </trkpt>
      <trkpt lat="50.05642" lon="2.21561">
        <ele>55.5</ele>
        <time>2023-10-04T13:27:53Z</time>
      </trkpt>
      <trkpt lat="50.05643" lon="2.21561">
        <ele>55.5</ele>
        <time>2023-10-04T13:27:54Z</time>
      </trkpt>
      <trkpt lat="50.05645" lon="2.21562">
        <ele>55.5</ele>
        <time>2023-10-04T13:27:55Z</time>
      </trkpt>
      <trkpt lat="50.05646" lon="2.21563">
        <ele>55.5</ele>
        <time>2023-10-04T13:27:56Z</time>
      </trkpt>
      <trkpt lat="50.05647" lon="2.21564">
        <ele>55.5</ele>
        <time>2023-10-04T13:27:57Z</time>
      </trkpt>
      <trkpt lat="50.05648" lon="2.21564">
        <ele>55.5</ele>
        <time>2023-10-04T13:27:58Z</time>
      </trkpt>
      <trkpt lat="50.05649" lon="2.21565">
        <ele>55.5</ele>
        <time>2023-10-04T13:27:59Z</time>
      </trkpt>
      <trkpt lat="50.0565" lon="2.21566">
        <ele>55.5</ele>
        <time>2023-10-04T13:28:00Z</time>
      </trkpt>
      <trkpt lat="50.05651" lon="2.21566">
        <ele>55.5</ele>
        <time>2023-10-04T13:28:01Z</time>
      </trkpt>
      <trkpt lat="50.05652" lon="2.21567">
        <ele>55.5</ele>
        <time>2023-10-04T13:28:02Z</time>
      </trkpt>
      <trkpt lat="50.05653" lon="2.21567">
        <ele>55.5</ele>
        <time>2023-10-04T13:28:03Z</time>
      </trkpt>
      <trkpt lat="50.05654" lon="2.21568">
        <ele>55.5</ele>
        <time>2023-10-04T13:28:04Z</time>
      </trkpt>
      <trkpt lat="50.05656" lon="2.21568">
        <ele>55.5</ele>
        <time>2023-10-04T13:28:05Z</time>
      </trkpt>
      <trkpt lat="50.05657" lon="2.21568">
        <ele>55.5</ele>
        <time>2023-10-04T13:28:06Z</time>
      </trkpt>
      <trkpt lat="50.05658" lon="2.21569">
        <ele>55.5</ele>
        <time>2023-10-04T13:28:07Z</time>
      </trkpt>
      <trkpt lat="50.0566" lon="2.2157">
        <ele>55.5</ele>
        <time>2023-10-04T13:28:08Z</time>
      </trkpt>
      <trkpt lat="50.05661" lon="2.2157">
        <ele>55.5</ele>
        <time>2023-10-04T13:28:09Z</time>
      </trkpt>
      <trkpt lat="50.05662" lon="2.2157">
        <ele>55.5</ele>
        <time>2023-10-04T13:28:10Z</time>
      </trkpt>
      <trkpt lat="50.05663" lon="2.21571">
        <ele>55.5</ele>
        <time>2023-10-04T13:28:11Z</time>
      </trkpt>
      <trkpt lat="50.05664" lon="2.21572">
        <ele>55.6</ele>
        <time>2023-10-04T13:28:12Z</time>
      </trkpt>
      <trkpt lat="50.05665" lon="2.21572">
        <ele>55.6</ele>
        <time>2023-10-04T13:28:13Z</time>
      </trkpt>
      <trkpt lat="50.05666" lon="2.21573">
        <ele>55.6</ele>
        <time>2023-10-04T13:28:14Z</time>
      </trkpt>
      <trkpt lat="50.05667" lon="2.21573">
        <ele>55.6</ele>
        <time>2023-10-04T13:28:15Z</time>
      </trkpt>
      <trkpt lat="50.05668" lon="2.21574">
        <ele>55.6</ele>
        <time>2023-10-04T13:28:16Z</time>
      </trkpt>
      <trkpt lat="50.05669" lon="2.21574">
        <ele>55.6</ele>
        <time>2023-10-04T13:28:17Z</time>
      </trkpt>
      <trkpt lat="50.0567" lon="2.21575">
        <ele>55.6</ele>
        <time>2023-10-04T13:28:18Z</time>
      </trkpt>
      <trkpt lat="50.05671" lon="2.21576">
        <ele>55.6</ele>
        <time>2023-10-04T13:28:19Z</time>
      </trkpt>
      <trkpt lat="50.05672" lon="2.21576">
        <ele>55.6</ele>
        <time>2023-10-04T13:28:20Z</time>
      </trkpt>
      <trkpt lat="50.05673" lon="2.21577">
        <ele>55.6</ele>
        <time>2023-10-04T13:28:21Z</time>
      </trkpt>
      <trkpt lat="50.05674" lon="2.21577">
        <ele>55.6</ele>
        <time>2023-10-04T13:28:22Z</time>
      </trkpt>
      <trkpt lat="50.05675" lon="2.21578">
        <ele>55.6</ele>
        <time>2023-10-04T13:28:23Z</time>
      </trkpt>
      <trkpt lat="50.05676" lon="2.21579">
        <ele>55.6</ele>
        <time>2023-10-04T13:28:24Z</time>
      </trkpt>
      <trkpt lat="50.05677" lon="2.21579">
        <ele>55.7</ele>
        <time>2023-10-04T13:28:25Z</time>
      </trkpt>
      <trkpt lat="50.05678" lon="2.2158">
        <ele>55.7</ele>
        <time>2023-10-04T13:28:26Z</time>
      </trkpt>
      <trkpt lat="50.05679" lon="2.2158">
        <ele>55.7</ele>
        <time>2023-10-04T13:28:27Z</time>
      </trkpt>
      <trkpt lat="50.0568" lon="2.2158">
        <ele>55.7</ele>
        <time>2023-10-04T13:28:28Z</time>
      </trkpt>
      <trkpt lat="50.05681" lon="2.21581">
        <ele>55.7</ele>
        <time>2023-10-04T13:28:29Z</time>
      </trkpt>
      <trkpt lat="50.05682" lon="2.21582">
        <ele>55.7</ele>
        <time>2023-10-04T13:28:30Z</time>
      </trkpt>
      <trkpt lat="50.05683" lon="2.21582">
        <ele>55.7</ele>
        <time>2023-10-04T13:28:31Z</time>
      </trkpt>
      <trkpt lat="50.05684" lon="2.21583">
        <ele>55.7</ele>
        <time>2023-10-04T13:28:32Z</time>
      </trkpt>
      <trkpt lat="50.05685" lon="2.21583">
        <ele>55.7</ele>
        <time>2023-10-04T13:28:33Z</time>
      </trkpt>
      <trkpt lat="50.05686" lon="2.21583">
        <ele>55.7</ele>
        <time>2023-10-04T13:28:34Z</time>
      </trkpt>
      <trkpt lat="50.05687" lon="2.21584">
        <ele>55.7</ele>
        <time>2023-10-04T13:28:35Z</time>
      </trkpt>
      <trkpt lat="50.05687" lon="2.21584">
        <ele>55.7</ele>
        <time>2023-10-04T13:28:36Z</time>
      </trkpt>
      <trkpt lat="50.05688" lon="2.21584">
        <ele>55.7</ele>
        <time>2023-10-04T13:28:37Z</time>
      </trkpt>
      <trkpt lat="50.05689" lon="2.21585">
        <ele>55.7</ele>
        <time>2023-10-04T13:28:38Z</time>
      </trkpt>
      <trkpt lat="50.0569" lon="2.21585">
        <ele>55.7</ele>
        <time>2023-10-04T13:28:39Z</time>
      </trkpt>
      <trkpt lat="50.05691" lon="2.21585">
        <ele>55.8</ele>
        <time>2023-10-04T13:28:40Z</time>
      </trkpt>
      <trkpt lat="50.05691" lon="2.21585">
        <ele>55.8</ele>
        <time>2023-10-04T13:28:41Z</time>
      </trkpt>
      <trkpt lat="50.05692" lon="2.21585">
        <ele>55.8</ele>
        <time>2023-10-04T13:28:42Z</time>
      </trkpt>
      <trkpt lat="50.05693" lon="2.21585">
        <ele>55.8</ele>
        <time>2023-10-04T13:28:43Z</time>
      </trkpt>
      <trkpt lat="50.05694" lon="2.21585">
        <ele>55.8</ele>
        <time>2023-10-04T13:28:44Z</time>
      </trkpt>
      <trkpt lat="50.05695" lon="2.21585">
        <ele>55.8</ele>
        <time>2023-10-04T13:28:45Z</time>
      </trkpt>
      <trkpt lat="50.05696" lon="2.21585">
        <ele>55.8</ele>
        <time>2023-10-04T13:28:46Z</time>
      </trkpt>
      <trkpt lat="50.05697" lon="2.21586">
        <ele>55.8</ele>
        <time>2023-10-04T13:28:47Z</time>
      </trkpt>
      <trkpt lat="50.05698" lon="2.21586">
        <ele>55.8</ele>
        <time>2023-10-04T13:28:48Z</time>
      </trkpt>
      <trkpt lat="50.05699" lon="2.21587">
        <ele>55.8</ele>
        <time>2023-10-04T13:28:49Z</time>
      </trkpt>
      <trkpt lat="50.057" lon="2.21587">
        <ele>55.8</ele>
        <time>2023-10-04T13:28:50Z</time>
      </trkpt>
      <trkpt lat="50.05701" lon="2.21588">
        <ele>55.8</ele>
        <time>2023-10-04T13:28:51Z</time>
      </trkpt>
      <trkpt lat="50.05703" lon="2.21588">
        <ele>55.9</ele>
        <time>2023-10-04T13:28:52Z</time>
      </trkpt>
      <trkpt lat="50.05704" lon="2.21588">
        <ele>55.9</ele>
        <time>2023-10-04T13:28:53Z</time>
      </trkpt>
      <trkpt lat="50.05705" lon="2.21589">
        <ele>55.9</ele>
        <time>2023-10-04T13:28:54Z</time>
      </trkpt>
      <trkpt lat="50.05706" lon="2.21589">
        <ele>55.9</ele>
        <time>2023-10-04T13:28:55Z</time>
      </trkpt>
      <trkpt lat="50.05708" lon="2.2159">
        <ele>55.9</ele>
        <time>2023-10-04T13:28:56Z</time>
      </trkpt>
      <trkpt lat="50.05709" lon="2.2159">
        <ele>55.9</ele>
        <time>2023-10-04T13:28:57Z</time>
      </trkpt>
      <trkpt lat="50.0571" lon="2.2159">
        <ele>55.9</ele>
        <time>2023-10-04T13:28:58Z</time>
      </trkpt>
      <trkpt lat="50.05711" lon="2.2159">
        <ele>55.9</ele>
        <time>2023-10-04T13:28:59Z</time>
      </trkpt>
      <trkpt lat="50.05712" lon="2.21591">
        <ele>55.9</ele>
        <time>2023-10-04T13:29:00Z</time>
      </trkpt>
      <trkpt lat="50.05713" lon="2.21591">
        <ele>55.9</ele>
        <time>2023-10-04T13:29:01Z</time>
      </trkpt>
      <trkpt lat="50.05714" lon="2.21591">
        <ele>55.9</ele>
        <time>2023-10-04T13:29:02Z</time>
      </trkpt>
      <trkpt lat="50.05715" lon="2.21592">
        <ele>56</ele>
        <time>2023-10-04T13:29:03Z</time>
      </trkpt>
      <trkpt lat="50.05716" lon="2.21592">
        <ele>56</ele>
        <time>2023-10-04T13:29:04Z</time>
      </trkpt>
      <trkpt lat="50.05717" lon="2.21593">
        <ele>56</ele>
        <time>2023-10-04T13:29:05Z</time>
      </trkpt>
      <trkpt lat="50.05718" lon="2.21594">
        <ele>56</ele>
        <time>2023-10-04T13:29:06Z</time>
      </trkpt>
      <trkpt lat="50.05718" lon="2.21594">
        <ele>56</ele>
        <time>2023-10-04T13:29:07Z</time>
      </trkpt>
      <trkpt lat="50.05719" lon="2.21595">
        <ele>56</ele>
        <time>2023-10-04T13:29:08Z</time>
      </trkpt>
      <trkpt lat="50.0572" lon="2.21595">
        <ele>56</ele>
        <time>2023-10-04T13:29:09Z</time>
      </trkpt>
      <trkpt lat="50.05721" lon="2.21595">
        <ele>56</ele>
        <time>2023-10-04T13:29:10Z</time>
      </trkpt>
      <trkpt lat="50.05722" lon="2.21595">
        <ele>56</ele>
        <time>2023-10-04T13:29:11Z</time>
      </trkpt>
      <trkpt lat="50.05723" lon="2.21595">
        <ele>56</ele>
        <time>2023-10-04T13:29:12Z</time>
      </trkpt>
      <trkpt lat="50.05724" lon="2.21595">
        <ele>56</ele>
        <time>2023-10-04T13:29:13Z</time>
      </trkpt>
      <trkpt lat="50.05725" lon="2.21594">
        <ele>56</ele>
        <time>2023-10-04T13:29:14Z</time>
      </trkpt>
      <trkpt lat="50.05726" lon="2.21592">
        <ele>56.1</ele>
        <time>2023-10-04T13:29:15Z</time>
      </trkpt>
      <trkpt lat="50.05727" lon="2.2159">
        <ele>56.1</ele>
        <time>2023-10-04T13:29:16Z</time>
      </trkpt>
      <trkpt lat="50.05728" lon="2.21589">
        <ele>56.1</ele>
        <time>2023-10-04T13:29:17Z</time>
      </trkpt>
      <trkpt lat="50.05728" lon="2.21588">
        <ele>56.1</ele>
        <time>2023-10-04T13:29:18Z</time>
      </trkpt>
      <trkpt lat="50.05729" lon="2.21587">
        <ele>56.1</ele>
        <time>2023-10-04T13:29:19Z</time>
      </trkpt>
      <trkpt lat="50.0573" lon="2.21585">
        <ele>56.1</ele>
        <time>2023-10-04T13:29:20Z</time>
      </trkpt>
      <trkpt lat="50.0573" lon="2.21584">
        <ele>56.1</ele>
        <time>2023-10-04T13:29:21Z</time>
      </trkpt>
      <trkpt lat="50.05731" lon="2.21582">
        <ele>56.1</ele>
        <time>2023-10-04T13:29:22Z</time>
      </trkpt>
      <trkpt lat="50.05731" lon="2.21581">
        <ele>56.2</ele>
        <time>2023-10-04T13:29:23Z</time>
      </trkpt>
      <trkpt lat="50.05732" lon="2.2158">
        <ele>56.3</ele>
        <time>2023-10-04T13:29:24Z</time>
      </trkpt>
      <trkpt lat="50.05732" lon="2.21579">
        <ele>56.4</ele>
        <time>2023-10-04T13:29:25Z</time>
      </trkpt>
      <trkpt lat="50.05732" lon="2.21578">
        <ele>56.4</ele>
        <time>2023-10-04T13:29:26Z</time>
      </trkpt>
      <trkpt lat="50.05733" lon="2.21579">
        <ele>56.5</ele>
        <time>2023-10-04T13:29:27Z</time>
      </trkpt>
      <trkpt lat="50.05734" lon="2.21578">
        <ele>56.5</ele>
        <time>2023-10-04T13:29:28Z</time>
      </trkpt>
      <trkpt lat="50.05734" lon="2.21578">
        <ele>56.6</ele>
        <time>2023-10-04T13:29:29Z</time>
      </trkpt>
      <trkpt lat="50.05735" lon="2.21578">
        <ele>56.7</ele>
        <time>2023-10-04T13:29:30Z</time>
      </trkpt>
      <trkpt lat="50.05735" lon="2.21577">
        <ele>56.7</ele>
        <time>2023-10-04T13:29:31Z</time>
      </trkpt>
      <trkpt lat="50.05735" lon="2.21576">
        <ele>56.8</ele>
        <time>2023-10-04T13:29:32Z</time>
      </trkpt>
      <trkpt lat="50.05736" lon="2.21575">
        <ele>56.8</ele>
        <time>2023-10-04T13:29:33Z</time>
      </trkpt>
      <trkpt lat="50.05736" lon="2.21574">
        <ele>56.9</ele>
        <time>2023-10-04T13:29:34Z</time>
      </trkpt>
      <trkpt lat="50.05736" lon="2.21573">
        <ele>57</ele>
        <time>2023-10-04T13:29:35Z</time>
      </trkpt>
      <trkpt lat="50.05737" lon="2.21572">
        <ele>57.1</ele>
        <time>2023-10-04T13:29:36Z</time>
      </trkpt>
      <trkpt lat="50.05737" lon="2.2157">
        <ele>57.2</ele>
        <time>2023-10-04T13:29:37Z</time>
      </trkpt>
      <trkpt lat="50.05737" lon="2.21568">
        <ele>57.3</ele>
        <time>2023-10-04T13:29:38Z</time>
      </trkpt>
      <trkpt lat="50.05738" lon="2.21567">
        <ele>57.4</ele>
        <time>2023-10-04T13:29:39Z</time>
      </trkpt>
      <trkpt lat="50.05738" lon="2.21565">
        <ele>57.5</ele>
        <time>2023-10-04T13:29:40Z</time>
      </trkpt>
      <trkpt lat="50.05739" lon="2.21564">
        <ele>57.6</ele>
        <time>2023-10-04T13:29:41Z</time>
      </trkpt>
      <trkpt lat="50.05739" lon="2.21562">
        <ele>57.7</ele>
        <time>2023-10-04T13:29:42Z</time>
      </trkpt>
      <trkpt lat="50.05739" lon="2.21561">
        <ele>57.8</ele>
        <time>2023-10-04T13:29:43Z</time>
      </trkpt>
      <trkpt lat="50.0574" lon="2.2156">
        <ele>57.9</ele>
        <time>2023-10-04T13:29:44Z</time>
      </trkpt>
      <trkpt lat="50.0574" lon="2.21558">
        <ele>58</ele>
        <time>2023-10-04T13:29:45Z</time>
      </trkpt>
      <trkpt lat="50.0574" lon="2.21557">
        <ele>58.1</ele>
        <time>2023-10-04T13:29:46Z</time>
      </trkpt>
      <trkpt lat="50.0574" lon="2.21555">
        <ele>58.2</ele>
        <time>2023-10-04T13:29:47Z</time>
      </trkpt>
      <trkpt lat="50.0574" lon="2.21554">
        <ele>58.3</ele>
        <time>2023-10-04T13:29:48Z</time>
      </trkpt>
      <trkpt lat="50.0574" lon="2.21552">
        <ele>58.4</ele>
        <time>2023-10-04T13:29:49Z</time>
      </trkpt>
      <trkpt lat="50.0574" lon="2.21549">
        <ele>58.6</ele>
        <time>2023-10-04T13:29:50Z</time>
      </trkpt>
      <trkpt lat="50.0574" lon="2.21547">
        <ele>58.7</ele>
        <time>2023-10-04T13:29:51Z</time>
      </trkpt>
      <trkpt lat="50.0574" lon="2.21546">
        <ele>58.8</ele>
        <time>2023-10-04T13:29:52Z</time>
      </trkpt>
      <trkpt lat="50.05741" lon="2.21544">
        <ele>58.9</ele>
        <time>2023-10-04T13:29:53Z</time>
      </trkpt>
      <trkpt lat="50.05741" lon="2.21542">
        <ele>59</ele>
        <time>2023-10-04T13:29:54Z</time>
      </trkpt>
      <trkpt lat="50.05741" lon="2.2154">
        <ele>59.1</ele>
        <time>2023-10-04T13:29:55Z</time>
      </trkpt>
      <trkpt lat="50.05741" lon="2.21538">
        <ele>59.2</ele>
        <time>2023-10-04T13:29:56Z</time>
      </trkpt>
      <trkpt lat="50.05741" lon="2.21537">
        <ele>59.3</ele>
        <time>2023-10-04T13:29:57Z</time>
      </trkpt>
      <trkpt lat="50.05741" lon="2.21535">
        <ele>59.5</ele>
        <time>2023-10-04T13:29:58Z</time>
      </trkpt>
      <trkpt lat="50.05741" lon="2.21533">
        <ele>59.6</ele>
        <time>2023-10-04T13:29:59Z</time>
      </trkpt>
      <trkpt lat="50.05741" lon="2.21532">
        <ele>59.7</ele>
        <time>2023-10-04T13:30:00Z</time>
      </trkpt>
      <trkpt lat="50.05741" lon="2.2153">
        <ele>59.8</ele>
        <time>2023-10-04T13:30:01Z</time>
      </trkpt>
      <trkpt lat="50.05741" lon="2.21528">
        <ele>59.9</ele>
        <time>2023-10-04T13:30:02Z</time>
      </trkpt>
      <trkpt lat="50.05742" lon="2.21527">
        <ele>60</ele>
        <time>2023-10-04T13:30:03Z</time>
      </trkpt>
      <trkpt lat="50.05742" lon="2.21526">
        <ele>60.1</ele>
        <time>2023-10-04T13:30:04Z</time>
      </trkpt>
      <trkpt lat="50.05742" lon="2.21524">
        <ele>60.2</ele>
        <time>2023-10-04T13:30:05Z</time>
      </trkpt>
      <trkpt lat="50.05742" lon="2.21523">
        <ele>60.2</ele>
        <time>2023-10-04T13:30:06Z</time>
      </trkpt>
      <trkpt lat="50.05742" lon="2.21522">
        <ele>60.3</ele>
        <time>2023-10-04T13:30:07Z</time>
      </trkpt>
      <trkpt lat="50.05742" lon="2.21521">
        <ele>60.4</ele>
        <time>2023-10-04T13:30:08Z</time>
      </trkpt>
      <trkpt lat="50.05742" lon="2.2152">
        <ele>60.5</ele>
        <time>2023-10-04T13:30:09Z</time>
      </trkpt>
      <trkpt lat="50.05742" lon="2.21519">
        <ele>60.6</ele>
        <time>2023-10-04T13:30:10Z</time>
      </trkpt>
      <trkpt lat="50.05742" lon="2.21517">
        <ele>60.6</ele>
        <time>2023-10-04T13:30:11Z</time>
      </trkpt>
      <trkpt lat="50.05742" lon="2.21516">
        <ele>60.7</ele>
        <time>2023-10-04T13:30:12Z</time>
      </trkpt>
      <trkpt lat="50.05742" lon="2.21515">
        <ele>60.8</ele>
        <time>2023-10-04T13:30:13Z</time>
      </trkpt>
      <trkpt lat="50.05742" lon="2.21514">
        <ele>60.9</ele>
        <time>2023-10-04T13:30:14Z</time>
      </trkpt>
      <trkpt lat="50.05742" lon="2.21513">
        <ele>60.9</ele>
        <time>2023-10-04T13:30:15Z</time>
      </trkpt>
      <trkpt lat="50.05742" lon="2.21512">
        <ele>61</ele>
        <time>2023-10-04T13:30:16Z</time>
      </trkpt>
      <trkpt lat="50.05742" lon="2.21509">
        <ele>61.2</ele>
        <time>2023-10-04T13:30:17Z</time>
      </trkpt>
      <trkpt lat="50.05742" lon="2.21507">
        <ele>61.3</ele>
        <time>2023-10-04T13:30:18Z</time>
      </trkpt>
      <trkpt lat="50.05742" lon="2.21506">
        <ele>61.4</ele>
        <time>2023-10-04T13:30:19Z</time>
      </trkpt>
      <trkpt lat="50.05742" lon="2.21503">
        <ele>61.6</ele>
        <time>2023-10-04T13:30:20Z</time>
      </trkpt>
      <trkpt lat="50.05742" lon="2.21501">
        <ele>61.7</ele>
        <time>2023-10-04T13:30:21Z</time>
      </trkpt>
      <trkpt lat="50.05743" lon="2.215">
        <ele>61.8</ele>
        <time>2023-10-04T13:30:22Z</time>
      </trkpt>
      <trkpt lat="50.05743" lon="2.21498">
        <ele>62</ele>
        <time>2023-10-04T13:30:23Z</time>
      </trkpt>
      <trkpt lat="50.05743" lon="2.21496">
        <ele>62.1</ele>
        <time>2023-10-04T13:30:24Z</time>
      </trkpt>
      <trkpt lat="50.05743" lon="2.21495">
        <ele>62.2</ele>
        <time>2023-10-04T13:30:25Z</time>
      </trkpt>
      <trkpt lat="50.05743" lon="2.21493">
        <ele>62.3</ele>
        <time>2023-10-04T13:30:26Z</time>
      </trkpt>
      <trkpt lat="50.05744" lon="2.21492">
        <ele>62.4</ele>
        <time>2023-10-04T13:30:27Z</time>
      </trkpt>
      <trkpt lat="50.05744" lon="2.2149">
        <ele>62.5</ele>
        <time>2023-10-04T13:30:28Z</time>
      </trkpt>
      <trkpt lat="50.05744" lon="2.21489">
        <ele>62.6</ele>
        <time>2023-10-04T13:30:29Z</time>
      </trkpt>
      <trkpt lat="50.05744" lon="2.21487">
        <ele>62.7</ele>
        <time>2023-10-04T13:30:30Z</time>
      </trkpt>
      <trkpt lat="50.05745" lon="2.21486">
        <ele>62.8</ele>
        <time>2023-10-04T13:30:31Z</time>
      </trkpt>
      <trkpt lat="50.05745" lon="2.21485">
        <ele>62.9</ele>
        <time>2023-10-04T13:30:32Z</time>
      </trkpt>
      <trkpt lat="50.05745" lon="2.21483">
        <ele>63</ele>
        <time>2023-10-04T13:30:33Z</time>
      </trkpt>
      <trkpt lat="50.05746" lon="2.21482">
        <ele>63</ele>
        <time>2023-10-04T13:30:34Z</time>
      </trkpt>
      <trkpt lat="50.05746" lon="2.21481">
        <ele>63.1</ele>
        <time>2023-10-04T13:30:35Z</time>
      </trkpt>
      <trkpt lat="50.05746" lon="2.21479">
        <ele>63.2</ele>
        <time>2023-10-04T13:30:36Z</time>
      </trkpt>
      <trkpt lat="50.05746" lon="2.21478">
        <ele>63.3</ele>
        <time>2023-10-04T13:30:37Z</time>
      </trkpt>
      <trkpt lat="50.05746" lon="2.21477">
        <ele>63.4</ele>
        <time>2023-10-04T13:30:38Z</time>
      </trkpt>
      <trkpt lat="50.05746" lon="2.21476">
        <ele>63.5</ele>
        <time>2023-10-04T13:30:39Z</time>
      </trkpt>
      <trkpt lat="50.05746" lon="2.21474">
        <ele>63.5</ele>
        <time>2023-10-04T13:30:40Z</time>
      </trkpt>
      <trkpt lat="50.05747" lon="2.21473">
        <ele>63.6</ele>
        <time>2023-10-04T13:30:41Z</time>
      </trkpt>
      <trkpt lat="50.05747" lon="2.21471">
        <ele>63.8</ele>
        <time>2023-10-04T13:30:42Z</time>
      </trkpt>
      <trkpt lat="50.05747" lon="2.2147">
        <ele>63.9</ele>
        <time>2023-10-04T13:30:43Z</time>
      </trkpt>
      <trkpt lat="50.05747" lon="2.21468">
        <ele>64</ele>
        <time>2023-10-04T13:30:44Z</time>
      </trkpt>
      <trkpt lat="50.05747" lon="2.21466">
        <ele>64.1</ele>
        <time>2023-10-04T13:30:45Z</time>
      </trkpt>
      <trkpt lat="50.05747" lon="2.21465">
        <ele>64.2</ele>
        <time>2023-10-04T13:30:46Z</time>
      </trkpt>
      <trkpt lat="50.05747" lon="2.21464">
        <ele>64.2</ele>
        <time>2023-10-04T13:30:47Z</time>
      </trkpt>
      <trkpt lat="50.05747" lon="2.21463">
        <ele>64.3</ele>
        <time>2023-10-04T13:30:48Z</time>
      </trkpt>
      <trkpt lat="50.05746" lon="2.21462">
        <ele>64.4</ele>
        <time>2023-10-04T13:30:49Z</time>
      </trkpt>
      <trkpt lat="50.05746" lon="2.21462">
        <ele>64.4</ele>
        <time>2023-10-04T13:30:50Z</time>
      </trkpt>
      <trkpt lat="50.05746" lon="2.21461">
        <ele>64.5</ele>
        <time>2023-10-04T13:30:51Z</time>
      </trkpt>
      <trkpt lat="50.05746" lon="2.2146">
        <ele>64.5</ele>
        <time>2023-10-04T13:30:52Z</time>
      </trkpt>
      <trkpt lat="50.05746" lon="2.21459">
        <ele>64.6</ele>
        <time>2023-10-04T13:30:53Z</time>
      </trkpt>
      <trkpt lat="50.05746" lon="2.21458">
        <ele>64.7</ele>
        <time>2023-10-04T13:30:54Z</time>
      </trkpt>
      <trkpt lat="50.05746" lon="2.21457">
        <ele>64.8</ele>
        <time>2023-10-04T13:30:55Z</time>
      </trkpt>
      <trkpt lat="50.05746" lon="2.21456">
        <ele>64.8</ele>
        <time>2023-10-04T13:30:56Z</time>
      </trkpt>
      <trkpt lat="50.05745" lon="2.21456">
        <ele>64.9</ele>
        <time>2023-10-04T13:30:57Z</time>
      </trkpt>
      <trkpt lat="50.05745" lon="2.21455">
        <ele>64.9</ele>
        <time>2023-10-04T13:30:58Z</time>
      </trkpt>
      <trkpt lat="50.05744" lon="2.21454">
        <ele>65</ele>
        <time>2023-10-04T13:30:59Z</time>
      </trkpt>
      <trkpt lat="50.05744" lon="2.21453">
        <ele>65.1</ele>
        <time>2023-10-04T13:31:00Z</time>
      </trkpt>
      <trkpt lat="50.05744" lon="2.21452">
        <ele>65.1</ele>
        <time>2023-10-04T13:31:01Z</time>
      </trkpt>
      <trkpt lat="50.05744" lon="2.21451">
        <ele>65.2</ele>
        <time>2023-10-04T13:31:02Z</time>
      </trkpt>
      <trkpt lat="50.05744" lon="2.2145">
        <ele>65.3</ele>
        <time>2023-10-04T13:31:03Z</time>
      </trkpt>
      <trkpt lat="50.05744" lon="2.21449">
        <ele>65.4</ele>
        <time>2023-10-04T13:31:04Z</time>
      </trkpt>
      <trkpt lat="50.05744" lon="2.21447">
        <ele>65.5</ele>
        <time>2023-10-04T13:31:05Z</time>
      </trkpt>
      <trkpt lat="50.05744" lon="2.21446">
        <ele>65.6</ele>
        <time>2023-10-04T13:31:06Z</time>
      </trkpt>
      <trkpt lat="50.05744" lon="2.21442">
        <ele>65.9</ele>
        <time>2023-10-04T13:31:07Z</time>
      </trkpt>
      <trkpt lat="50.05745" lon="2.21441">
        <ele>66</ele>
        <time>2023-10-04T13:31:08Z</time>
      </trkpt>
      <trkpt lat="50.05745" lon="2.2144">
        <ele>66</ele>
        <time>2023-10-04T13:31:09Z</time>
      </trkpt>
      <trkpt lat="50.05745" lon="2.21438">
        <ele>66.2</ele>
        <time>2023-10-04T13:31:10Z</time>
      </trkpt>
      <trkpt lat="50.05745" lon="2.21436">
        <ele>66.3</ele>
        <time>2023-10-04T13:31:11Z</time>
      </trkpt>
      <trkpt lat="50.05746" lon="2.21435">
        <ele>66.4</ele>
        <time>2023-10-04T13:31:12Z</time>
      </trkpt>
      <trkpt lat="50.05746" lon="2.21434">
        <ele>66.5</ele>
        <time>2023-10-04T13:31:13Z</time>
      </trkpt>
      <trkpt lat="50.05746" lon="2.21433">
        <ele>66.6</ele>
        <time>2023-10-04T13:31:14Z</time>
      </trkpt>
      <trkpt lat="50.05746" lon="2.21432">
        <ele>66.6</ele>
        <time>2023-10-04T13:31:15Z</time>
      </trkpt>
      <trkpt lat="50.05746" lon="2.21432">
        <ele>66.7</ele>
        <time>2023-10-04T13:31:16Z</time>
      </trkpt>
      <trkpt lat="50.05746" lon="2.21431">
        <ele>66.7</ele>
        <time>2023-10-04T13:31:17Z</time>
      </trkpt>
      <trkpt lat="50.05747" lon="2.21431">
        <ele>66.7</ele>
        <time>2023-10-04T13:31:18Z</time>
      </trkpt>
      <trkpt lat="50.05747" lon="2.21431">
        <ele>66.7</ele>
        <time>2023-10-04T13:31:19Z</time>
      </trkpt>
      <trkpt lat="50.05747" lon="2.2143">
        <ele>66.8</ele>
        <time>2023-10-04T13:31:20Z</time>
      </trkpt>
      <trkpt lat="50.05747" lon="2.21429">
        <ele>66.9</ele>
        <time>2023-10-04T13:31:21Z</time>
      </trkpt>
      <trkpt lat="50.05747" lon="2.21428">
        <ele>67</ele>
        <time>2023-10-04T13:31:22Z</time>
      </trkpt>
      <trkpt lat="50.05747" lon="2.21427">
        <ele>67.1</ele>
        <time>2023-10-04T13:31:23Z</time>
      </trkpt>
      <trkpt lat="50.05747" lon="2.21425">
        <ele>67.2</ele>
        <time>2023-10-04T13:31:24Z</time>
      </trkpt>
      <trkpt lat="50.05748" lon="2.21424">
        <ele>67.3</ele>
        <time>2023-10-04T13:31:25Z</time>
      </trkpt>
      <trkpt lat="50.05748" lon="2.21423">
        <ele>67.3</ele>
        <time>2023-10-04T13:31:26Z</time>
      </trkpt>
      <trkpt lat="50.05748" lon="2.21422">
        <ele>67.4</ele>
        <time>2023-10-04T13:31:27Z</time>
      </trkpt>
      <trkpt lat="50.05748" lon="2.21421">
        <ele>67.5</ele>
        <time>2023-10-04T13:31:28Z</time>
      </trkpt>
      <trkpt lat="50.05748" lon="2.21419">
        <ele>67.6</ele>
        <time>2023-10-04T13:31:29Z</time>
      </trkpt>
      <trkpt lat="50.05748" lon="2.21418">
        <ele>67.7</ele>
        <time>2023-10-04T13:31:30Z</time>
      </trkpt>
      <trkpt lat="50.05749" lon="2.21417">
        <ele>67.8</ele>
        <time>2023-10-04T13:31:31Z</time>
      </trkpt>
      <trkpt lat="50.05749" lon="2.21416">
        <ele>67.9</ele>
        <time>2023-10-04T13:31:32Z</time>
      </trkpt>
      <trkpt lat="50.05749" lon="2.21414">
        <ele>68.1</ele>
        <time>2023-10-04T13:31:33Z</time>
      </trkpt>
      <trkpt lat="50.05749" lon="2.21413">
        <ele>68.1</ele>
        <time>2023-10-04T13:31:34Z</time>
      </trkpt>
      <trkpt lat="50.05749" lon="2.21412">
        <ele>68.2</ele>
        <time>2023-10-04T13:31:35Z</time>
      </trkpt>
      <trkpt lat="50.05749" lon="2.21411">
        <ele>68.3</ele>
        <time>2023-10-04T13:31:36Z</time>
      </trkpt>
      <trkpt lat="50.05749" lon="2.2141">
        <ele>68.4</ele>
        <time>2023-10-04T13:31:37Z</time>
      </trkpt>
      <trkpt lat="50.05749" lon="2.21408">
        <ele>68.5</ele>
        <time>2023-10-04T13:31:38Z</time>
      </trkpt>
      <trkpt lat="50.05749" lon="2.21407">
        <ele>68.6</ele>
        <time>2023-10-04T13:31:39Z</time>
      </trkpt>
      <trkpt lat="50.05749" lon="2.21406">
        <ele>68.8</ele>
        <time>2023-10-04T13:31:40Z</time>
      </trkpt>
      <trkpt lat="50.05749" lon="2.21404">
        <ele>68.9</ele>
        <time>2023-10-04T13:31:41Z</time>
      </trkpt>
      <trkpt lat="50.05748" lon="2.21403">
        <ele>69</ele>
        <time>2023-10-04T13:31:42Z</time>
      </trkpt>
      <trkpt lat="50.05748" lon="2.21402">
        <ele>69.1</ele>
        <time>2023-10-04T13:31:43Z</time>
      </trkpt>
      <trkpt lat="50.05748" lon="2.21401">
        <ele>69.1</ele>
        <time>2023-10-04T13:31:44Z</time>
      </trkpt>
      <trkpt lat="50.05747" lon="2.214">
        <ele>69.3</ele>
        <time>2023-10-04T13:31:45Z</time>
      </trkpt>
      <trkpt lat="50.05747" lon="2.21399">
        <ele>69.3</ele>
        <time>2023-10-04T13:31:46Z</time>
      </trkpt>
      <trkpt lat="50.05747" lon="2.21397">
        <ele>69.4</ele>
        <time>2023-10-04T13:31:47Z</time>
      </trkpt>
      <trkpt lat="50.05746" lon="2.21396">
        <ele>69.5</ele>
        <time>2023-10-04T13:31:48Z</time>
      </trkpt>
      <trkpt lat="50.05746" lon="2.21395">
        <ele>69.6</ele>
        <time>2023-10-04T13:31:49Z</time>
      </trkpt>
      <trkpt lat="50.05746" lon="2.21393">
        <ele>69.8</ele>
        <time>2023-10-04T13:31:50Z</time>
      </trkpt>
      <trkpt lat="50.05745" lon="2.21392">
        <ele>69.9</ele>
        <time>2023-10-04T13:31:51Z</time>
      </trkpt>
      <trkpt lat="50.05745" lon="2.21391">
        <ele>69.9</ele>
        <time>2023-10-04T13:31:52Z</time>
      </trkpt>
      <trkpt lat="50.05744" lon="2.2139">
        <ele>70</ele>
        <time>2023-10-04T13:31:53Z</time>
      </trkpt>
      <trkpt lat="50.05744" lon="2.21389">
        <ele>70.1</ele>
        <time>2023-10-04T13:31:54Z</time>
      </trkpt>
      <trkpt lat="50.05744" lon="2.21389">
        <ele>70.2</ele>
        <time>2023-10-04T13:31:55Z</time>
      </trkpt>
      <trkpt lat="50.05743" lon="2.21388">
        <ele>70.3</ele>
        <time>2023-10-04T13:31:56Z</time>
      </trkpt>
      <trkpt lat="50.05743" lon="2.21387">
        <ele>70.4</ele>
        <time>2023-10-04T13:31:57Z</time>
      </trkpt>
      <trkpt lat="50.05742" lon="2.21386">
        <ele>70.5</ele>
        <time>2023-10-04T13:31:58Z</time>
      </trkpt>
      <trkpt lat="50.05742" lon="2.21384">
        <ele>70.6</ele>
        <time>2023-10-04T13:31:59Z</time>
      </trkpt>
      <trkpt lat="50.05741" lon="2.21383">
        <ele>70.7</ele>
        <time>2023-10-04T13:32:00Z</time>
      </trkpt>
      <trkpt lat="50.05741" lon="2.21381">
        <ele>70.9</ele>
        <time>2023-10-04T13:32:01Z</time>
      </trkpt>
      <trkpt lat="50.0574" lon="2.2138">
        <ele>71</ele>
        <time>2023-10-04T13:32:02Z</time>
      </trkpt>
      <trkpt lat="50.0574" lon="2.21378">
        <ele>71.1</ele>
        <time>2023-10-04T13:32:03Z</time>
      </trkpt>
      <trkpt lat="50.05739" lon="2.21377">
        <ele>71.2</ele>
        <time>2023-10-04T13:32:04Z</time>
      </trkpt>
      <trkpt lat="50.05739" lon="2.21376">
        <ele>71.3</ele>
        <time>2023-10-04T13:32:05Z</time>
      </trkpt>
      <trkpt lat="50.05738" lon="2.21375">
        <ele>71.4</ele>
        <time>2023-10-04T13:32:06Z</time>
      </trkpt>
      <trkpt lat="50.05738" lon="2.21374">
        <ele>71.5</ele>
        <time>2023-10-04T13:32:07Z</time>
      </trkpt>
      <trkpt lat="50.05738" lon="2.21374">
        <ele>71.6</ele>
        <time>2023-10-04T13:32:08Z</time>
      </trkpt>
      <trkpt lat="50.05737" lon="2.21373">
        <ele>71.6</ele>
        <time>2023-10-04T13:32:09Z</time>
      </trkpt>
      <trkpt lat="50.05737" lon="2.21372">
        <ele>71.7</ele>
        <time>2023-10-04T13:32:10Z</time>
      </trkpt>
      <trkpt lat="50.05737" lon="2.21371">
        <ele>71.8</ele>
        <time>2023-10-04T13:32:11Z</time>
      </trkpt>
      <trkpt lat="50.05737" lon="2.2137">
        <ele>71.9</ele>
        <time>2023-10-04T13:32:12Z</time>
      </trkpt>
      <trkpt lat="50.05736" lon="2.21369">
        <ele>72</ele>
        <time>2023-10-04T13:32:13Z</time>
      </trkpt>
      <trkpt lat="50.05736" lon="2.21369">
        <ele>72</ele>
        <time>2023-10-04T13:32:14Z</time>
      </trkpt>
      <trkpt lat="50.05736" lon="2.21368">
        <ele>72.1</ele>
        <time>2023-10-04T13:32:15Z</time>
      </trkpt>
      <trkpt lat="50.05735" lon="2.21367">
        <ele>72.2</ele>
        <time>2023-10-04T13:32:16Z</time>
      </trkpt>
      <trkpt lat="50.05735" lon="2.21366">
        <ele>72.3</ele>
        <time>2023-10-04T13:32:17Z</time>
      </trkpt>
      <trkpt lat="50.05734" lon="2.21365">
        <ele>72.4</ele>
        <time>2023-10-04T13:32:18Z</time>
      </trkpt>
      <trkpt lat="50.05734" lon="2.21364">
        <ele>72.5</ele>
        <time>2023-10-04T13:32:19Z</time>
      </trkpt>
      <trkpt lat="50.05734" lon="2.21363">
        <ele>72.6</ele>
        <time>2023-10-04T13:32:20Z</time>
      </trkpt>
      <trkpt lat="50.05733" lon="2.21362">
        <ele>72.7</ele>
        <time>2023-10-04T13:32:21Z</time>
      </trkpt>
      <trkpt lat="50.05733" lon="2.21361">
        <ele>72.8</ele>
        <time>2023-10-04T13:32:22Z</time>
      </trkpt>
      <trkpt lat="50.05732" lon="2.2136">
        <ele>72.9</ele>
        <time>2023-10-04T13:32:23Z</time>
      </trkpt>
      <trkpt lat="50.05732" lon="2.21359">
        <ele>73</ele>
        <time>2023-10-04T13:32:24Z</time>
      </trkpt>
      <trkpt lat="50.05731" lon="2.21357">
        <ele>73.1</ele>
        <time>2023-10-04T13:32:25Z</time>
      </trkpt>
      <trkpt lat="50.05731" lon="2.21356">
        <ele>73.3</ele>
        <time>2023-10-04T13:32:26Z</time>
      </trkpt>
      <trkpt lat="50.0573" lon="2.21355">
        <ele>73.4</ele>
        <time>2023-10-04T13:32:27Z</time>
      </trkpt>
      <trkpt lat="50.0573" lon="2.21353">
        <ele>73.5</ele>
        <time>2023-10-04T13:32:28Z</time>
      </trkpt>
      <trkpt lat="50.0573" lon="2.21352">
        <ele>73.6</ele>
        <time>2023-10-04T13:32:29Z</time>
      </trkpt>
      <trkpt lat="50.05729" lon="2.21351">
        <ele>73.7</ele>
        <time>2023-10-04T13:32:30Z</time>
      </trkpt>
      <trkpt lat="50.05729" lon="2.21349">
        <ele>73.8</ele>
        <time>2023-10-04T13:32:31Z</time>
      </trkpt>
      <trkpt lat="50.05729" lon="2.21348">
        <ele>73.9</ele>
        <time>2023-10-04T13:32:32Z</time>
      </trkpt>
      <trkpt lat="50.05728" lon="2.21347">
        <ele>74</ele>
        <time>2023-10-04T13:32:33Z</time>
      </trkpt>
      <trkpt lat="50.05728" lon="2.21346">
        <ele>74.1</ele>
        <time>2023-10-04T13:32:34Z</time>
      </trkpt>
      <trkpt lat="50.05727" lon="2.21345">
        <ele>74.3</ele>
        <time>2023-10-04T13:32:35Z</time>
      </trkpt>
      <trkpt lat="50.05727" lon="2.21344">
        <ele>74.4</ele>
        <time>2023-10-04T13:32:36Z</time>
      </trkpt>
      <trkpt lat="50.05726" lon="2.21342">
        <ele>74.5</ele>
        <time>2023-10-04T13:32:37Z</time>
      </trkpt>
      <trkpt lat="50.05726" lon="2.21341">
        <ele>74.6</ele>
        <time>2023-10-04T13:32:38Z</time>
      </trkpt>
      <trkpt lat="50.05725" lon="2.21339">
        <ele>74.8</ele>
        <time>2023-10-04T13:32:39Z</time>
      </trkpt>
      <trkpt lat="50.05725" lon="2.21338">
        <ele>74.9</ele>
        <time>2023-10-04T13:32:40Z</time>
      </trkpt>
      <trkpt lat="50.05724" lon="2.21337">
        <ele>75</ele>
        <time>2023-10-04T13:32:41Z</time>
      </trkpt>
      <trkpt lat="50.05724" lon="2.21336">
        <ele>75.1</ele>
        <time>2023-10-04T13:32:42Z</time>
      </trkpt>
      <trkpt lat="50.05723" lon="2.21334">
        <ele>75.2</ele>
        <time>2023-10-04T13:32:43Z</time>
      </trkpt>
      <trkpt lat="50.05723" lon="2.21333">
        <ele>75.3</ele>
        <time>2023-10-04T13:32:44Z</time>
      </trkpt>
      <trkpt lat="50.05722" lon="2.21332">
        <ele>75.5</ele>
        <time>2023-10-04T13:32:45Z</time>
      </trkpt>
      <trkpt lat="50.05722" lon="2.21331">
        <ele>75.6</ele>
        <time>2023-10-04T13:32:46Z</time>
      </trkpt>
      <trkpt lat="50.05721" lon="2.2133">
        <ele>75.7</ele>
        <time>2023-10-04T13:32:47Z</time>
      </trkpt>
      <trkpt lat="50.05721" lon="2.2133">
        <ele>75.7</ele>
        <time>2023-10-04T13:32:48Z</time>
      </trkpt>
      <trkpt lat="50.0572" lon="2.2133">
        <ele>75.7</ele>
        <time>2023-10-04T13:32:49Z</time>
      </trkpt>
      <trkpt lat="50.0572" lon="2.2133">
        <ele>75.8</ele>
        <time>2023-10-04T13:32:50Z</time>
      </trkpt>
      <trkpt lat="50.0572" lon="2.2133">
        <ele>75.8</ele>
        <time>2023-10-04T13:32:51Z</time>
      </trkpt>
      <trkpt lat="50.0572" lon="2.21331">
        <ele>75.9</ele>
        <time>2023-10-04T13:32:52Z</time>
      </trkpt>
      <trkpt lat="50.0572" lon="2.21331">
        <ele>75.9</ele>
        <time>2023-10-04T13:32:53Z</time>
      </trkpt>
      <trkpt lat="50.0572" lon="2.21331">
        <ele>75.9</ele>
        <time>2023-10-04T13:32:54Z</time>
      </trkpt>
      <trkpt lat="50.05719" lon="2.2133">
        <ele>76</ele>
        <time>2023-10-04T13:32:55Z</time>
      </trkpt>
      <trkpt lat="50.05719" lon="2.2133">
        <ele>76</ele>
        <time>2023-10-04T13:32:56Z</time>
      </trkpt>
      <trkpt lat="50.05718" lon="2.21329">
        <ele>76.1</ele>
        <time>2023-10-04T13:32:57Z</time>
      </trkpt>
      <trkpt lat="50.05718" lon="2.21328">
        <ele>76.2</ele>
        <time>2023-10-04T13:32:58Z</time>
      </trkpt>
      <trkpt lat="50.05718" lon="2.21328">
        <ele>76.2</ele>
        <time>2023-10-04T13:32:59Z</time>
      </trkpt>
      <trkpt lat="50.05717" lon="2.21327">
        <ele>76.3</ele>
        <time>2023-10-04T13:33:00Z</time>
      </trkpt>
      <trkpt lat="50.05717" lon="2.21327">
        <ele>76.3</ele>
        <time>2023-10-04T13:33:01Z</time>
      </trkpt>
      <trkpt lat="50.05716" lon="2.21327">
        <ele>76.4</ele>
        <time>2023-10-04T13:33:02Z</time>
      </trkpt>
      <trkpt lat="50.05716" lon="2.21327">
        <ele>76.4</ele>
        <time>2023-10-04T13:33:03Z</time>
      </trkpt>
      <trkpt lat="50.05715" lon="2.21326">
        <ele>76.5</ele>
        <time>2023-10-04T13:33:04Z</time>
      </trkpt>
      <trkpt lat="50.05715" lon="2.21326">
        <ele>76.5</ele>
        <time>2023-10-04T13:33:05Z</time>
      </trkpt>
      <trkpt lat="50.05714" lon="2.21325">
        <ele>76.6</ele>
        <time>2023-10-04T13:33:06Z</time>
      </trkpt>
      <trkpt lat="50.05713" lon="2.21325">
        <ele>76.7</ele>
        <time>2023-10-04T13:33:07Z</time>
      </trkpt>
      <trkpt lat="50.05713" lon="2.21324">
        <ele>76.8</ele>
        <time>2023-10-04T13:33:08Z</time>
      </trkpt>
      <trkpt lat="50.05712" lon="2.21323">
        <ele>76.9</ele>
        <time>2023-10-04T13:33:09Z</time>
      </trkpt>
      <trkpt lat="50.05711" lon="2.21322">
        <ele>76.9</ele>
        <time>2023-10-04T13:33:10Z</time>
      </trkpt>
      <trkpt lat="50.0571" lon="2.21322">
        <ele>77</ele>
        <time>2023-10-04T13:33:11Z</time>
      </trkpt>
      <trkpt lat="50.05709" lon="2.21322">
        <ele>77.1</ele>
        <time>2023-10-04T13:33:12Z</time>
      </trkpt>
      <trkpt lat="50.05709" lon="2.21321">
        <ele>77.2</ele>
        <time>2023-10-04T13:33:13Z</time>
      </trkpt>
      <trkpt lat="50.05708" lon="2.21321">
        <ele>77.3</ele>
        <time>2023-10-04T13:33:14Z</time>
      </trkpt>
      <trkpt lat="50.05707" lon="2.2132">
        <ele>77.4</ele>
        <time>2023-10-04T13:33:15Z</time>
      </trkpt>
      <trkpt lat="50.05706" lon="2.21319">
        <ele>77.4</ele>
        <time>2023-10-04T13:33:16Z</time>
      </trkpt>
      <trkpt lat="50.05705" lon="2.21318">
        <ele>77.5</ele>
        <time>2023-10-04T13:33:17Z</time>
      </trkpt>
      <trkpt lat="50.05704" lon="2.21317">
        <ele>77.6</ele>
        <time>2023-10-04T13:33:18Z</time>
      </trkpt>
      <trkpt lat="50.05703" lon="2.21316">
        <ele>77.7</ele>
        <time>2023-10-04T13:33:19Z</time>
      </trkpt>
      <trkpt lat="50.05701" lon="2.21315">
        <ele>77.9</ele>
        <time>2023-10-04T13:33:20Z</time>
      </trkpt>
      <trkpt lat="50.057" lon="2.21314">
        <ele>77.9</ele>
        <time>2023-10-04T13:33:21Z</time>
      </trkpt>
      <trkpt lat="50.05699" lon="2.21314">
        <ele>78</ele>
        <time>2023-10-04T13:33:22Z</time>
      </trkpt>
      <trkpt lat="50.05698" lon="2.21313">
        <ele>78.1</ele>
        <time>2023-10-04T13:33:23Z</time>
      </trkpt>
      <trkpt lat="50.05697" lon="2.21313">
        <ele>78.1</ele>
        <time>2023-10-04T13:33:24Z</time>
      </trkpt>
      <trkpt lat="50.05697" lon="2.21312">
        <ele>78.2</ele>
        <time>2023-10-04T13:33:25Z</time>
      </trkpt>
      <trkpt lat="50.05696" lon="2.21312">
        <ele>78.3</ele>
        <time>2023-10-04T13:33:26Z</time>
      </trkpt>
      <trkpt lat="50.05695" lon="2.21311">
        <ele>78.3</ele>
        <time>2023-10-04T13:33:27Z</time>
      </trkpt>
      <trkpt lat="50.05694" lon="2.2131">
        <ele>78.4</ele>
        <time>2023-10-04T13:33:28Z</time>
      </trkpt>
      <trkpt lat="50.05693" lon="2.21309">
        <ele>78.4</ele>
        <time>2023-10-04T13:33:29Z</time>
      </trkpt>
      <trkpt lat="50.05692" lon="2.21308">
        <ele>78.5</ele>
        <time>2023-10-04T13:33:30Z</time>
      </trkpt>
      <trkpt lat="50.05691" lon="2.21307">
        <ele>78.6</ele>
        <time>2023-10-04T13:33:31Z</time>
      </trkpt>
      <trkpt lat="50.0569" lon="2.21307">
        <ele>78.6</ele>
        <time>2023-10-04T13:33:32Z</time>
      </trkpt>
      <trkpt lat="50.0569" lon="2.21306">
        <ele>78.7</ele>
        <time>2023-10-04T13:33:33Z</time>
      </trkpt>
      <trkpt lat="50.05689" lon="2.21305">
        <ele>78.7</ele>
        <time>2023-10-04T13:33:34Z</time>
      </trkpt>
      <trkpt lat="50.05688" lon="2.21304">
        <ele>78.8</ele>
        <time>2023-10-04T13:33:35Z</time>
      </trkpt>
      <trkpt lat="50.05688" lon="2.21302">
        <ele>78.8</ele>
        <time>2023-10-04T13:33:36Z</time>
      </trkpt>
      <trkpt lat="50.05687" lon="2.21301">
        <ele>78.9</ele>
        <time>2023-10-04T13:33:37Z</time>
      </trkpt>
      <trkpt lat="50.05687" lon="2.21301">
        <ele>78.9</ele>
        <time>2023-10-04T13:33:38Z</time>
      </trkpt>
      <trkpt lat="50.05686" lon="2.21299">
        <ele>78.9</ele>
        <time>2023-10-04T13:33:39Z</time>
      </trkpt>
      <trkpt lat="50.05685" lon="2.21298">
        <ele>79</ele>
        <time>2023-10-04T13:33:40Z</time>
      </trkpt>
      <trkpt lat="50.05685" lon="2.21297">
        <ele>79</ele>
        <time>2023-10-04T13:33:41Z</time>
      </trkpt>
      <trkpt lat="50.05684" lon="2.21297">
        <ele>79.1</ele>
        <time>2023-10-04T13:33:42Z</time>
      </trkpt>
      <trkpt lat="50.05684" lon="2.21296">
        <ele>79.1</ele>
        <time>2023-10-04T13:33:43Z</time>
      </trkpt>
      <trkpt lat="50.05683" lon="2.21295">
        <ele>79.1</ele>
        <time>2023-10-04T13:33:44Z</time>
      </trkpt>
      <trkpt lat="50.05683" lon="2.21294">
        <ele>79.2</ele>
        <time>2023-10-04T13:33:45Z</time>
      </trkpt>
      <trkpt lat="50.05682" lon="2.21293">
        <ele>79.2</ele>
        <time>2023-10-04T13:33:46Z</time>
      </trkpt>
      <trkpt lat="50.05682" lon="2.21292">
        <ele>79.3</ele>
        <time>2023-10-04T13:33:47Z</time>
      </trkpt>
      <trkpt lat="50.05681" lon="2.21291">
        <ele>79.3</ele>
        <time>2023-10-04T13:33:48Z</time>
      </trkpt>
      <trkpt lat="50.05681" lon="2.2129">
        <ele>79.3</ele>
        <time>2023-10-04T13:33:49Z</time>
      </trkpt>
      <trkpt lat="50.0568" lon="2.21289">
        <ele>79.4</ele>
        <time>2023-10-04T13:33:50Z</time>
      </trkpt>
      <trkpt lat="50.05679" lon="2.21288">
        <ele>79.4</ele>
        <time>2023-10-04T13:33:51Z</time>
      </trkpt>
      <trkpt lat="50.05679" lon="2.21287">
        <ele>79.5</ele>
        <time>2023-10-04T13:33:52Z</time>
      </trkpt>
      <trkpt lat="50.05678" lon="2.21286">
        <ele>79.5</ele>
        <time>2023-10-04T13:33:53Z</time>
      </trkpt>
      <trkpt lat="50.05678" lon="2.21285">
        <ele>79.5</ele>
        <time>2023-10-04T13:33:54Z</time>
      </trkpt>
      <trkpt lat="50.05677" lon="2.21284">
        <ele>79.6</ele>
        <time>2023-10-04T13:33:55Z</time>
      </trkpt>
      <trkpt lat="50.05677" lon="2.21283">
        <ele>79.6</ele>
        <time>2023-10-04T13:33:56Z</time>
      </trkpt>
      <trkpt lat="50.05676" lon="2.21282">
        <ele>79.7</ele>
        <time>2023-10-04T13:33:57Z</time>
      </trkpt>
      <trkpt lat="50.05675" lon="2.21281">
        <ele>79.7</ele>
        <time>2023-10-04T13:33:58Z</time>
      </trkpt>
      <trkpt lat="50.05675" lon="2.2128">
        <ele>79.7</ele>
        <time>2023-10-04T13:33:59Z</time>
      </trkpt>
      <trkpt lat="50.05674" lon="2.21279">
        <ele>79.8</ele>
        <time>2023-10-04T13:34:00Z</time>
      </trkpt>
      <trkpt lat="50.05674" lon="2.21278">
        <ele>79.8</ele>
        <time>2023-10-04T13:34:01Z</time>
      </trkpt>
      <trkpt lat="50.05673" lon="2.21277">
        <ele>79.9</ele>
        <time>2023-10-04T13:34:02Z</time>
      </trkpt>
      <trkpt lat="50.05673" lon="2.21275">
        <ele>79.9</ele>
        <time>2023-10-04T13:34:03Z</time>
      </trkpt>
      <trkpt lat="50.05673" lon="2.21274">
        <ele>79.9</ele>
        <time>2023-10-04T13:34:04Z</time>
      </trkpt>
      <trkpt lat="50.05673" lon="2.21272">
        <ele>80</ele>
        <time>2023-10-04T13:34:05Z</time>
      </trkpt>
      <trkpt lat="50.05673" lon="2.21271">
        <ele>80</ele>
        <time>2023-10-04T13:34:06Z</time>
      </trkpt>
      <trkpt lat="50.05673" lon="2.2127">
        <ele>80.1</ele>
        <time>2023-10-04T13:34:07Z</time>
      </trkpt>
      <trkpt lat="50.05673" lon="2.21269">
        <ele>80.1</ele>
        <time>2023-10-04T13:34:08Z</time>
      </trkpt>
      <trkpt lat="50.05672" lon="2.21268">
        <ele>80.1</ele>
        <time>2023-10-04T13:34:09Z</time>
      </trkpt>
      <trkpt lat="50.05671" lon="2.21267">
        <ele>80.2</ele>
        <time>2023-10-04T13:34:10Z</time>
      </trkpt>
      <trkpt lat="50.0567" lon="2.21266">
        <ele>80.2</ele>
        <time>2023-10-04T13:34:11Z</time>
      </trkpt>
      <trkpt lat="50.05669" lon="2.21266">
        <ele>80.3</ele>
        <time>2023-10-04T13:34:12Z</time>
      </trkpt>
      <trkpt lat="50.05668" lon="2.21265">
        <ele>80.3</ele>
        <time>2023-10-04T13:34:13Z</time>
      </trkpt>
      <trkpt lat="50.05667" lon="2.21264">
        <ele>80.4</ele>
        <time>2023-10-04T13:34:14Z</time>
      </trkpt>
      <trkpt lat="50.05666" lon="2.21263">
        <ele>80.4</ele>
        <time>2023-10-04T13:34:15Z</time>
      </trkpt>
      <trkpt lat="50.05665" lon="2.21262">
        <ele>80.5</ele>
        <time>2023-10-04T13:34:16Z</time>
      </trkpt>
      <trkpt lat="50.05665" lon="2.21261">
        <ele>80.5</ele>
        <time>2023-10-04T13:34:17Z</time>
      </trkpt>
      <trkpt lat="50.05664" lon="2.2126">
        <ele>80.6</ele>
        <time>2023-10-04T13:34:18Z</time>
      </trkpt>
      <trkpt lat="50.05663" lon="2.21259">
        <ele>80.6</ele>
        <time>2023-10-04T13:34:19Z</time>
      </trkpt>
      <trkpt lat="50.05662" lon="2.21258">
        <ele>80.6</ele>
        <time>2023-10-04T13:34:20Z</time>
      </trkpt>
      <trkpt lat="50.05661" lon="2.21257">
        <ele>80.7</ele>
        <time>2023-10-04T13:34:21Z</time>
      </trkpt>
      <trkpt lat="50.05661" lon="2.21256">
        <ele>80.7</ele>
        <time>2023-10-04T13:34:22Z</time>
      </trkpt>
      <trkpt lat="50.0566" lon="2.21255">
        <ele>80.8</ele>
        <time>2023-10-04T13:34:23Z</time>
      </trkpt>
      <trkpt lat="50.05659" lon="2.21254">
        <ele>80.8</ele>
        <time>2023-10-04T13:34:24Z</time>
      </trkpt>
      <trkpt lat="50.05658" lon="2.21253">
        <ele>80.8</ele>
        <time>2023-10-04T13:34:25Z</time>
      </trkpt>
      <trkpt lat="50.05658" lon="2.21252">
        <ele>80.9</ele>
        <time>2023-10-04T13:34:26Z</time>
      </trkpt>
      <trkpt lat="50.05657" lon="2.2125">
        <ele>80.9</ele>
        <time>2023-10-04T13:34:27Z</time>
      </trkpt>
      <trkpt lat="50.05657" lon="2.21249">
        <ele>80.9</ele>
        <time>2023-10-04T13:34:28Z</time>
      </trkpt>
      <trkpt lat="50.05656" lon="2.21248">
        <ele>81</ele>
        <time>2023-10-04T13:34:29Z</time>
      </trkpt>
      <trkpt lat="50.05655" lon="2.21246">
        <ele>81</ele>
        <time>2023-10-04T13:34:30Z</time>
      </trkpt>
      <trkpt lat="50.05655" lon="2.21245">
        <ele>81</ele>
        <time>2023-10-04T13:34:31Z</time>
      </trkpt>
      <trkpt lat="50.05654" lon="2.21244">
        <ele>81.1</ele>
        <time>2023-10-04T13:34:32Z</time>
      </trkpt>
      <trkpt lat="50.05654" lon="2.21243">
        <ele>81.1</ele>
        <time>2023-10-04T13:34:33Z</time>
      </trkpt>
      <trkpt lat="50.05653" lon="2.21242">
        <ele>81.1</ele>
        <time>2023-10-04T13:34:34Z</time>
      </trkpt>
      <trkpt lat="50.05653" lon="2.2124">
        <ele>81.2</ele>
        <time>2023-10-04T13:34:35Z</time>
      </trkpt>
      <trkpt lat="50.05652" lon="2.21239">
        <ele>81.2</ele>
        <time>2023-10-04T13:34:36Z</time>
      </trkpt>
      <trkpt lat="50.05651" lon="2.21238">
        <ele>81.2</ele>
        <time>2023-10-04T13:34:37Z</time>
      </trkpt>
      <trkpt lat="50.05651" lon="2.21237">
        <ele>81.3</ele>
        <time>2023-10-04T13:34:38Z</time>
      </trkpt>
      <trkpt lat="50.0565" lon="2.21236">
        <ele>81.3</ele>
        <time>2023-10-04T13:34:39Z</time>
      </trkpt>
      <trkpt lat="50.05649" lon="2.21235">
        <ele>81.3</ele>
        <time>2023-10-04T13:34:40Z</time>
      </trkpt>
      <trkpt lat="50.05648" lon="2.21234">
        <ele>81.4</ele>
        <time>2023-10-04T13:34:41Z</time>
      </trkpt>
      <trkpt lat="50.05648" lon="2.21232">
        <ele>81.4</ele>
        <time>2023-10-04T13:34:42Z</time>
      </trkpt>
      <trkpt lat="50.05647" lon="2.21231">
        <ele>81.5</ele>
        <time>2023-10-04T13:34:43Z</time>
      </trkpt>
      <trkpt lat="50.05646" lon="2.21229">
        <ele>81.5</ele>
        <time>2023-10-04T13:34:44Z</time>
      </trkpt>
      <trkpt lat="50.05645" lon="2.21228">
        <ele>81.5</ele>
        <time>2023-10-04T13:34:45Z</time>
      </trkpt>
      <trkpt lat="50.05644" lon="2.21225">
        <ele>81.6</ele>
        <time>2023-10-04T13:34:46Z</time>
      </trkpt>
      <trkpt lat="50.05643" lon="2.21224">
        <ele>81.7</ele>
        <time>2023-10-04T13:34:47Z</time>
      </trkpt>
      <trkpt lat="50.05643" lon="2.21224">
        <ele>81.7</ele>
        <time>2023-10-04T13:34:48Z</time>
      </trkpt>
      <trkpt lat="50.05642" lon="2.21222">
        <ele>81.7</ele>
        <time>2023-10-04T13:34:49Z</time>
      </trkpt>
      <trkpt lat="50.05641" lon="2.21221">
        <ele>81.8</ele>
        <time>2023-10-04T13:34:50Z</time>
      </trkpt>
      <trkpt lat="50.05641" lon="2.21219">
        <ele>81.8</ele>
        <time>2023-10-04T13:34:51Z</time>
      </trkpt>
      <trkpt lat="50.0564" lon="2.21218">
        <ele>81.8</ele>
        <time>2023-10-04T13:34:52Z</time>
      </trkpt>
      <trkpt lat="50.05639" lon="2.21217">
        <ele>81.9</ele>
        <time>2023-10-04T13:34:53Z</time>
      </trkpt>
      <trkpt lat="50.05639" lon="2.21216">
        <ele>81.9</ele>
        <time>2023-10-04T13:34:54Z</time>
      </trkpt>
      <trkpt lat="50.05638" lon="2.21216">
        <ele>81.9</ele>
        <time>2023-10-04T13:34:55Z</time>
      </trkpt>
      <trkpt lat="50.05638" lon="2.21215">
        <ele>81.9</ele>
        <time>2023-10-04T13:34:56Z</time>
      </trkpt>
      <trkpt lat="50.05637" lon="2.21214">
        <ele>82</ele>
        <time>2023-10-04T13:34:57Z</time>
      </trkpt>
      <trkpt lat="50.05637" lon="2.21213">
        <ele>82</ele>
        <time>2023-10-04T13:34:58Z</time>
      </trkpt>
      <trkpt lat="50.05636" lon="2.21212">
        <ele>82</ele>
        <time>2023-10-04T13:34:59Z</time>
      </trkpt>
      <trkpt lat="50.05636" lon="2.21211">
        <ele>82.1</ele>
        <time>2023-10-04T13:35:00Z</time>
      </trkpt>
      <trkpt lat="50.05635" lon="2.2121">
        <ele>82.1</ele>
        <time>2023-10-04T13:35:01Z</time>
      </trkpt>
      <trkpt lat="50.05635" lon="2.21209">
        <ele>82.1</ele>
        <time>2023-10-04T13:35:02Z</time>
      </trkpt>
      <trkpt lat="50.05634" lon="2.21208">
        <ele>82.1</ele>
        <time>2023-10-04T13:35:03Z</time>
      </trkpt>
      <trkpt lat="50.05633" lon="2.21207">
        <ele>82.2</ele>
        <time>2023-10-04T13:35:04Z</time>
      </trkpt>
      <trkpt lat="50.05632" lon="2.21205">
        <ele>82.2</ele>
        <time>2023-10-04T13:35:05Z</time>
      </trkpt>
      <trkpt lat="50.05632" lon="2.21205">
        <ele>82.2</ele>
        <time>2023-10-04T13:35:06Z</time>
      </trkpt>
      <trkpt lat="50.05631" lon="2.21203">
        <ele>82.3</ele>
        <time>2023-10-04T13:35:07Z</time>
      </trkpt>
      <trkpt lat="50.0563" lon="2.21202">
        <ele>82.3</ele>
        <time>2023-10-04T13:35:08Z</time>
      </trkpt>
      <trkpt lat="50.0563" lon="2.21201">
        <ele>82.3</ele>
        <time>2023-10-04T13:35:09Z</time>
      </trkpt>
      <trkpt lat="50.05629" lon="2.212">
        <ele>82.4</ele>
        <time>2023-10-04T13:35:10Z</time>
      </trkpt>
      <trkpt lat="50.05629" lon="2.21198">
        <ele>82.4</ele>
        <time>2023-10-04T13:35:11Z</time>
      </trkpt>
      <trkpt lat="50.05628" lon="2.21197">
        <ele>82.4</ele>
        <time>2023-10-04T13:35:12Z</time>
      </trkpt>
      <trkpt lat="50.05628" lon="2.21196">
        <ele>82.4</ele>
        <time>2023-10-04T13:35:13Z</time>
      </trkpt>
      <trkpt lat="50.05627" lon="2.21194">
        <ele>82.5</ele>
        <time>2023-10-04T13:35:14Z</time>
      </trkpt>
      <trkpt lat="50.05627" lon="2.21193">
        <ele>82.5</ele>
        <time>2023-10-04T13:35:15Z</time>
      </trkpt>
      <trkpt lat="50.05626" lon="2.21192">
        <ele>82.5</ele>
        <time>2023-10-04T13:35:16Z</time>
      </trkpt>
      <trkpt lat="50.05626" lon="2.21191">
        <ele>82.5</ele>
        <time>2023-10-04T13:35:17Z</time>
      </trkpt>
      <trkpt lat="50.05626" lon="2.2119">
        <ele>82.6</ele>
        <time>2023-10-04T13:35:18Z</time>
      </trkpt>
      <trkpt lat="50.05625" lon="2.21189">
        <ele>82.6</ele>
        <time>2023-10-04T13:35:19Z</time>
      </trkpt>
      <trkpt lat="50.05625" lon="2.21188">
        <ele>82.6</ele>
        <time>2023-10-04T13:35:20Z</time>
      </trkpt>
      <trkpt lat="50.05625" lon="2.21187">
        <ele>82.6</ele>
        <time>2023-10-04T13:35:21Z</time>
      </trkpt>
      <trkpt lat="50.05624" lon="2.21186">
        <ele>82.6</ele>
        <time>2023-10-04T13:35:22Z</time>
      </trkpt>
      <trkpt lat="50.05624" lon="2.21184">
        <ele>82.7</ele>
        <time>2023-10-04T13:35:23Z</time>
      </trkpt>
      <trkpt lat="50.05624" lon="2.21183">
        <ele>82.7</ele>
        <time>2023-10-04T13:35:24Z</time>
      </trkpt>
      <trkpt lat="50.05623" lon="2.21182">
        <ele>82.7</ele>
        <time>2023-10-04T13:35:25Z</time>
      </trkpt>
      <trkpt lat="50.05623" lon="2.21181">
        <ele>82.7</ele>
        <time>2023-10-04T13:35:26Z</time>
      </trkpt>
      <trkpt lat="50.05624" lon="2.21179">
        <ele>82.7</ele>
        <time>2023-10-04T13:35:27Z</time>
      </trkpt>
      <trkpt lat="50.05624" lon="2.21178">
        <ele>82.8</ele>
        <time>2023-10-04T13:35:28Z</time>
      </trkpt>
      <trkpt lat="50.05624" lon="2.21176">
        <ele>82.8</ele>
        <time>2023-10-04T13:35:29Z</time>
      </trkpt>
      <trkpt lat="50.05624" lon="2.21175">
        <ele>82.8</ele>
        <time>2023-10-04T13:35:30Z</time>
      </trkpt>
      <trkpt lat="50.05624" lon="2.21173">
        <ele>82.8</ele>
        <time>2023-10-04T13:35:31Z</time>
      </trkpt>
      <trkpt lat="50.05624" lon="2.21172">
        <ele>82.8</ele>
        <time>2023-10-04T13:35:32Z</time>
      </trkpt>
      <trkpt lat="50.05624" lon="2.21171">
        <ele>82.8</ele>
        <time>2023-10-04T13:35:33Z</time>
      </trkpt>
      <trkpt lat="50.05623" lon="2.2117">
        <ele>82.8</ele>
        <time>2023-10-04T13:35:34Z</time>
      </trkpt>
      <trkpt lat="50.05623" lon="2.21168">
        <ele>82.8</ele>
        <time>2023-10-04T13:35:35Z</time>
      </trkpt>
      <trkpt lat="50.05622" lon="2.21167">
        <ele>82.8</ele>
        <time>2023-10-04T13:35:36Z</time>
      </trkpt>
      <trkpt lat="50.05622" lon="2.21166">
        <ele>82.9</ele>
        <time>2023-10-04T13:35:37Z</time>
      </trkpt>
      <trkpt lat="50.05621" lon="2.21165">
        <ele>82.9</ele>
        <time>2023-10-04T13:35:38Z</time>
      </trkpt>
      <trkpt lat="50.05621" lon="2.21165">
        <ele>82.9</ele>
        <time>2023-10-04T13:35:39Z</time>
      </trkpt>
      <trkpt lat="50.0562" lon="2.21164">
        <ele>82.9</ele>
        <time>2023-10-04T13:35:40Z</time>
      </trkpt>
      <trkpt lat="50.05619" lon="2.21164">
        <ele>82.9</ele>
        <time>2023-10-04T13:35:41Z</time>
      </trkpt>
      <trkpt lat="50.05618" lon="2.21164">
        <ele>82.9</ele>
        <time>2023-10-04T13:35:42Z</time>
      </trkpt>
      <trkpt lat="50.05617" lon="2.21164">
        <ele>82.9</ele>
        <time>2023-10-04T13:35:43Z</time>
      </trkpt>
      <trkpt lat="50.05617" lon="2.21164">
        <ele>82.9</ele>
        <time>2023-10-04T13:35:44Z</time>
      </trkpt>
      <trkpt lat="50.05616" lon="2.21164">
        <ele>82.9</ele>
        <time>2023-10-04T13:35:45Z</time>
      </trkpt>
      <trkpt lat="50.05616" lon="2.21165">
        <ele>82.9</ele>
        <time>2023-10-04T13:35:46Z</time>
      </trkpt>
      <trkpt lat="50.05615" lon="2.21165">
        <ele>82.8</ele>
        <time>2023-10-04T13:35:47Z</time>
      </trkpt>
      <trkpt lat="50.05615" lon="2.21165">
        <ele>82.8</ele>
        <time>2023-10-04T13:35:48Z</time>
      </trkpt>
      <trkpt lat="50.05615" lon="2.21165">
        <ele>82.8</ele>
        <time>2023-10-04T13:35:49Z</time>
      </trkpt>
      <trkpt lat="50.05615" lon="2.21165">
        <ele>82.8</ele>
        <time>2023-10-04T13:35:50Z</time>
      </trkpt>
      <trkpt lat="50.05615" lon="2.21165">
        <ele>82.8</ele>
        <time>2023-10-04T13:35:51Z</time>
      </trkpt>
      <trkpt lat="50.05615" lon="2.21165">
        <ele>82.8</ele>
        <time>2023-10-04T13:35:52Z</time>
      </trkpt>
      <trkpt lat="50.05615" lon="2.21165">
        <ele>82.8</ele>
        <time>2023-10-04T13:35:53Z</time>
      </trkpt>
      <trkpt lat="50.05615" lon="2.21165">
        <ele>82.8</ele>
        <time>2023-10-04T13:35:54Z</time>
      </trkpt>
      <trkpt lat="50.05615" lon="2.21165">
        <ele>82.8</ele>
        <time>2023-10-04T13:35:55Z</time>
      </trkpt>
      <trkpt lat="50.05615" lon="2.21165">
        <ele>82.8</ele>
        <time>2023-10-04T13:35:56Z</time>
      </trkpt>
      <trkpt lat="50.05615" lon="2.21165">
        <ele>82.8</ele>
        <time>2023-10-04T13:35:57Z</time>
      </trkpt>
      <trkpt lat="50.05615" lon="2.21165">
        <ele>82.8</ele>
        <time>2023-10-04T13:35:58Z</time>
      </trkpt>
      <trkpt lat="50.05615" lon="2.21165">
        <ele>82.8</ele>
        <time>2023-10-04T13:35:59Z</time>
      </trkpt>
      <trkpt lat="50.05615" lon="2.21165">
        <ele>82.8</ele>
        <time>2023-10-04T13:36:00Z</time>
      </trkpt>
      <trkpt lat="50.05615" lon="2.21165">
        <ele>82.8</ele>
        <time>2023-10-04T13:36:01Z</time>
      </trkpt>
      <trkpt lat="50.05615" lon="2.21165">
        <ele>82.8</ele>
        <time>2023-10-04T13:36:02Z</time>
      </trkpt>
      <trkpt lat="50.05615" lon="2.21165">
        <ele>82.8</ele>
        <time>2023-10-04T13:36:03Z</time>
      </trkpt>
      <trkpt lat="50.05615" lon="2.21165">
        <ele>82.8</ele>
        <time>2023-10-04T13:36:04Z</time>
      </trkpt>
      <trkpt lat="50.05615" lon="2.21165">
        <ele>82.8</ele>
        <time>2023-10-04T13:36:05Z</time>
      </trkpt>
      <trkpt lat="50.05615" lon="2.21165">
        <ele>82.8</ele>
        <time>2023-10-04T13:36:06Z</time>
      </trkpt>
      <trkpt lat="50.05615" lon="2.21165">
        <ele>82.8</ele>
        <time>2023-10-04T13:36:07Z</time>
      </trkpt>
      <trkpt lat="50.05615" lon="2.21165">
        <ele>82.8</ele>
        <time>2023-10-04T13:36:08Z</time>
      </trkpt>
      <trkpt lat="50.05615" lon="2.21165">
        <ele>82.8</ele>
        <time>2023-10-04T13:36:09Z</time>
      </trkpt>
      <trkpt lat="50.05615" lon="2.21165">
        <ele>82.8</ele>
        <time>2023-10-04T13:36:10Z</time>
      </trkpt>
      <trkpt lat="50.05615" lon="2.21165">
        <ele>82.8</ele>
        <time>2023-10-04T13:36:11Z</time>
      </trkpt>
      <trkpt lat="50.05615" lon="2.21165">
        <ele>82.8</ele>
        <time>2023-10-04T13:36:12Z</time>
      </trkpt>
      <trkpt lat="50.05615" lon="2.21165">
        <ele>82.8</ele>
        <time>2023-10-04T13:36:13Z</time>
      </trkpt>
      <trkpt lat="50.05615" lon="2.21165">
        <ele>82.8</ele>
        <time>2023-10-04T13:36:14Z</time>
      </trkpt>
      <trkpt lat="50.05615" lon="2.21165">
        <ele>82.8</ele>
        <time>2023-10-04T13:36:15Z</time>
      </trkpt>
      <trkpt lat="50.05615" lon="2.21165">
        <ele>82.8</ele>
        <time>2023-10-04T13:36:16Z</time>
      </trkpt>
      <trkpt lat="50.05615" lon="2.21165">
        <ele>82.8</ele>
        <time>2023-10-04T13:36:17Z</time>
      </trkpt>
      <trkpt lat="50.05615" lon="2.21165">
        <ele>82.8</ele>
        <time>2023-10-04T13:36:18Z</time>
      </trkpt>
      <trkpt lat="50.05615" lon="2.21165">
        <ele>82.8</ele>
        <time>2023-10-04T13:36:19Z</time>
      </trkpt>
      <trkpt lat="50.05615" lon="2.21165">
        <ele>82.8</ele>
        <time>2023-10-04T13:36:20Z</time>
      </trkpt>
      <trkpt lat="50.05615" lon="2.21165">
        <ele>82.8</ele>
        <time>2023-10-04T13:36:21Z</time>
      </trkpt>
      <trkpt lat="50.05615" lon="2.21165">
        <ele>82.8</ele>
        <time>2023-10-04T13:36:22Z</time>
      </trkpt>
      <trkpt lat="50.05615" lon="2.21165">
        <ele>82.8</ele>
        <time>2023-10-04T13:36:23Z</time>
      </trkpt>
      <trkpt lat="50.05615" lon="2.21165">
        <ele>82.8</ele>
        <time>2023-10-04T13:36:24Z</time>
      </trkpt>
      <trkpt lat="50.05615" lon="2.21165">
        <ele>82.8</ele>
        <time>2023-10-04T13:36:25Z</time>
      </trkpt>
      <trkpt lat="50.05615" lon="2.21165">
        <ele>82.8</ele>
        <time>2023-10-04T13:36:26Z</time>
      </trkpt>
      <trkpt lat="50.05615" lon="2.21165">
        <ele>82.8</ele>
        <time>2023-10-04T13:36:27Z</time>
      </trkpt>
      <trkpt lat="50.05615" lon="2.21165">
        <ele>82.8</ele>
        <time>2023-10-04T13:36:28Z</time>
      </trkpt>
      <trkpt lat="50.05615" lon="2.21165">
        <ele>82.8</ele>
        <time>2023-10-04T13:36:29Z</time>
      </trkpt>
      <trkpt lat="50.05615" lon="2.21165">
        <ele>82.8</ele>
        <time>2023-10-04T13:36:30Z</time>
      </trkpt>
      <trkpt lat="50.05615" lon="2.21165">
        <ele>82.8</ele>
        <time>2023-10-04T13:36:31Z</time>
      </trkpt>
      <trkpt lat="50.05615" lon="2.21165">
        <ele>82.8</ele>
        <time>2023-10-04T13:36:32Z</time>
      </trkpt>
      <trkpt lat="50.05615" lon="2.21165">
        <ele>82.8</ele>
        <time>2023-10-04T13:36:33Z</time>
      </trkpt>
      <trkpt lat="50.05615" lon="2.21165">
        <ele>82.8</ele>
        <time>2023-10-04T13:36:34Z</time>
      </trkpt>
      <trkpt lat="50.05615" lon="2.21165">
        <ele>82.8</ele>
        <time>2023-10-04T13:36:35Z</time>
      </trkpt>
      <trkpt lat="50.05615" lon="2.21165">
        <ele>82.8</ele>
        <time>2023-10-04T13:36:36Z</time>
      </trkpt>
      <trkpt lat="50.05615" lon="2.21165">
        <ele>82.8</ele>
        <time>2023-10-04T13:36:37Z</time>
      </trkpt>
      <trkpt lat="50.05615" lon="2.21165">
        <ele>82.8</ele>
        <time>2023-10-04T13:36:38Z</time>
      </trkpt>
      <trkpt lat="50.05615" lon="2.21165">
        <ele>82.8</ele>
        <time>2023-10-04T13:36:39Z</time>
      </trkpt>
      <trkpt lat="50.05615" lon="2.21165">
        <ele>82.8</ele>
        <time>2023-10-04T13:36:40Z</time>
      </trkpt>
      <trkpt lat="50.05615" lon="2.21165">
        <ele>82.8</ele>
        <time>2023-10-04T13:36:41Z</time>
      </trkpt>
      <trkpt lat="50.05615" lon="2.21165">
        <ele>82.8</ele>
        <time>2023-10-04T13:36:42Z</time>
      </trkpt>
      <trkpt lat="50.05615" lon="2.21165">
        <ele>82.8</ele>
        <time>2023-10-04T13:36:43Z</time>
      </trkpt>
      <trkpt lat="50.05615" lon="2.21165">
        <ele>82.8</ele>
        <time>2023-10-04T13:36:44Z</time>
      </trkpt>
      <trkpt lat="50.05615" lon="2.21165">
        <ele>82.8</ele>
        <time>2023-10-04T13:36:45Z</time>
      </trkpt>
      <trkpt lat="50.05615" lon="2.21165">
        <ele>82.8</ele>
        <time>2023-10-04T13:36:46Z</time>
      </trkpt>
      <trkpt lat="50.05615" lon="2.21165">
        <ele>82.8</ele>
        <time>2023-10-04T13:36:47Z</time>
      </trkpt>
      <trkpt lat="50.05617" lon="2.21167">
        <ele>82.8</ele>
        <time>2023-10-04T13:36:48Z</time>
      </trkpt>
      <trkpt lat="50.05617" lon="2.21168">
        <ele>82.8</ele>
        <time>2023-10-04T13:36:49Z</time>
      </trkpt>
      <trkpt lat="50.05618" lon="2.21168">
        <ele>82.8</ele>
        <time>2023-10-04T13:36:50Z</time>
      </trkpt>
      <trkpt lat="50.05618" lon="2.21168">
        <ele>82.8</ele>
        <time>2023-10-04T13:36:51Z</time>
      </trkpt>
      <trkpt lat="50.05618" lon="2.21168">
        <ele>82.8</ele>
        <time>2023-10-04T13:36:52Z</time>
      </trkpt>
      <trkpt lat="50.05618" lon="2.21168">
        <ele>82.8</ele>
        <time>2023-10-04T13:36:53Z</time>
      </trkpt>
      <trkpt lat="50.05618" lon="2.21168">
        <ele>82.8</ele>
        <time>2023-10-04T13:36:54Z</time>
      </trkpt>
      <trkpt lat="50.05618" lon="2.21168">
        <ele>82.8</ele>
        <time>2023-10-04T13:36:55Z</time>
      </trkpt>
      <trkpt lat="50.05618" lon="2.21168">
        <ele>82.8</ele>
        <time>2023-10-04T13:36:56Z</time>
      </trkpt>
      <trkpt lat="50.05618" lon="2.21168">
        <ele>82.8</ele>
        <time>2023-10-04T13:36:57Z</time>
      </trkpt>
      <trkpt lat="50.05618" lon="2.21168">
        <ele>82.7</ele>
        <time>2023-10-04T13:36:58Z</time>
      </trkpt>
      <trkpt lat="50.05618" lon="2.21168">
        <ele>82.7</ele>
        <time>2023-10-04T13:36:59Z</time>
      </trkpt>
      <trkpt lat="50.05618" lon="2.21168">
        <ele>82.7</ele>
        <time>2023-10-04T13:37:00Z</time>
      </trkpt>
      <trkpt lat="50.05618" lon="2.21168">
        <ele>82.7</ele>
        <time>2023-10-04T13:37:01Z</time>
      </trkpt>
      <trkpt lat="50.05618" lon="2.21168">
        <ele>82.7</ele>
        <time>2023-10-04T13:37:02Z</time>
      </trkpt>
      <trkpt lat="50.05618" lon="2.21168">
        <ele>82.7</ele>
        <time>2023-10-04T13:37:03Z</time>
      </trkpt>
      <trkpt lat="50.05618" lon="2.21168">
        <ele>82.7</ele>
        <time>2023-10-04T13:37:04Z</time>
      </trkpt>
      <trkpt lat="50.05618" lon="2.21168">
        <ele>82.7</ele>
        <time>2023-10-04T13:37:06Z</time>
      </trkpt>
      <trkpt lat="50.05618" lon="2.21168">
        <ele>82.7</ele>
        <time>2023-10-04T13:37:08Z</time>
      </trkpt>
      <trkpt lat="50.05618" lon="2.21168">
        <ele>82.7</ele>
        <time>2023-10-04T13:37:10Z</time>
      </trkpt>
      <trkpt lat="50.05618" lon="2.21168">
        <ele>82.7</ele>
        <time>2023-10-04T13:37:11Z</time>
      </trkpt>
      <trkpt lat="50.05618" lon="2.21168">
        <ele>82.7</ele>
        <time>2023-10-04T13:37:12Z</time>
      </trkpt>
      <trkpt lat="50.05618" lon="2.21169">
        <ele>82.7</ele>
        <time>2023-10-04T13:37:13Z</time>
      </trkpt>
      <trkpt lat="50.05618" lon="2.21169">
        <ele>82.7</ele>
        <time>2023-10-04T13:37:14Z</time>
      </trkpt>
      <trkpt lat="50.05618" lon="2.21169">
        <ele>82.7</ele>
        <time>2023-10-04T13:37:15Z</time>
      </trkpt>
      <trkpt lat="50.05618" lon="2.21169">
        <ele>82.7</ele>
        <time>2023-10-04T13:37:16Z</time>
      </trkpt>
      <trkpt lat="50.05618" lon="2.21168">
        <ele>82.7</ele>
        <time>2023-10-04T13:37:17Z</time>
      </trkpt>
      <trkpt lat="50.05618" lon="2.21168">
        <ele>82.7</ele>
        <time>2023-10-04T13:37:18Z</time>
      </trkpt>
      <trkpt lat="50.05618" lon="2.21169">
        <ele>82.7</ele>
        <time>2023-10-04T13:37:19Z</time>
      </trkpt>
      <trkpt lat="50.05618" lon="2.21169">
        <ele>82.7</ele>
        <time>2023-10-04T13:37:20Z</time>
      </trkpt>
      <trkpt lat="50.05618" lon="2.21169">
        <ele>82.7</ele>
        <time>2023-10-04T13:37:21Z</time>
      </trkpt>
      <trkpt lat="50.05617" lon="2.21169">
        <ele>82.7</ele>
        <time>2023-10-04T13:37:22Z</time>
      </trkpt>
      <trkpt lat="50.05617" lon="2.2117">
        <ele>82.7</ele>
        <time>2023-10-04T13:37:24Z</time>
      </trkpt>
      <trkpt lat="50.05617" lon="2.2117">
        <ele>82.7</ele>
        <time>2023-10-04T13:37:25Z</time>
      </trkpt>
      <trkpt lat="50.05617" lon="2.2117">
        <ele>82.7</ele>
        <time>2023-10-04T13:37:26Z</time>
      </trkpt>
      <trkpt lat="50.05617" lon="2.2117">
        <ele>82.7</ele>
        <time>2023-10-04T13:37:27Z</time>
      </trkpt>
      <trkpt lat="50.05618" lon="2.2117">
        <ele>82.7</ele>
        <time>2023-10-04T13:37:28Z</time>
      </trkpt>
      <trkpt lat="50.05618" lon="2.2117">
        <ele>82.7</ele>
        <time>2023-10-04T13:37:29Z</time>
      </trkpt>
      <trkpt lat="50.05618" lon="2.2117">
        <ele>82.7</ele>
        <time>2023-10-04T13:37:30Z</time>
      </trkpt>
      <trkpt lat="50.05618" lon="2.2117">
        <ele>82.7</ele>
        <time>2023-10-04T13:37:31Z</time>
      </trkpt>
      <trkpt lat="50.05618" lon="2.2117">
        <ele>82.7</ele>
        <time>2023-10-04T13:37:32Z</time>
      </trkpt>
      <trkpt lat="50.05618" lon="2.2117">
        <ele>82.7</ele>
        <time>2023-10-04T13:37:33Z</time>
      </trkpt>
      <trkpt lat="50.05618" lon="2.2117">
        <ele>82.7</ele>
        <time>2023-10-04T13:37:34Z</time>
      </trkpt>
      <trkpt lat="50.05618" lon="2.2117">
        <ele>82.7</ele>
        <time>2023-10-04T13:37:35Z</time>
      </trkpt>
      <trkpt lat="50.05617" lon="2.2117">
        <ele>82.7</ele>
        <time>2023-10-04T13:37:36Z</time>
      </trkpt>
      <trkpt lat="50.05617" lon="2.2117">
        <ele>82.7</ele>
        <time>2023-10-04T13:37:37Z</time>
      </trkpt>
      <trkpt lat="50.05617" lon="2.2117">
        <ele>82.7</ele>
        <time>2023-10-04T13:37:38Z</time>
      </trkpt>
      <trkpt lat="50.05617" lon="2.2117">
        <ele>82.7</ele>
        <time>2023-10-04T13:37:39Z</time>
      </trkpt>
      <trkpt lat="50.05617" lon="2.2117">
        <ele>82.7</ele>
        <time>2023-10-04T13:37:40Z</time>
      </trkpt>
      <trkpt lat="50.05617" lon="2.2117">
        <ele>82.7</ele>
        <time>2023-10-04T13:37:41Z</time>
      </trkpt>
      <trkpt lat="50.05617" lon="2.2117">
        <ele>82.7</ele>
        <time>2023-10-04T13:37:42Z</time>
      </trkpt>
      <trkpt lat="50.05617" lon="2.2117">
        <ele>82.7</ele>
        <time>2023-10-04T13:37:43Z</time>
      </trkpt>
      <trkpt lat="50.05617" lon="2.2117">
        <ele>82.7</ele>
        <time>2023-10-04T13:37:44Z</time>
      </trkpt>
      <trkpt lat="50.05617" lon="2.2117">
        <ele>82.7</ele>
        <time>2023-10-04T13:37:45Z</time>
      </trkpt>
      <trkpt lat="50.05618" lon="2.2117">
        <ele>82.7</ele>
        <time>2023-10-04T13:37:46Z</time>
      </trkpt>
      <trkpt lat="50.05618" lon="2.2117">
        <ele>82.7</ele>
        <time>2023-10-04T13:37:47Z</time>
      </trkpt>
      <trkpt lat="50.05618" lon="2.2117">
        <ele>82.7</ele>
        <time>2023-10-04T13:37:48Z</time>
      </trkpt>
      <trkpt lat="50.05618" lon="2.2117">
        <ele>82.7</ele>
        <time>2023-10-04T13:37:49Z</time>
      </trkpt>
      <trkpt lat="50.05618" lon="2.2117">
        <ele>82.7</ele>
        <time>2023-10-04T13:37:50Z</time>
      </trkpt>
      <trkpt lat="50.05618" lon="2.2117">
        <ele>82.7</ele>
        <time>2023-10-04T13:37:51Z</time>
      </trkpt>
      <trkpt lat="50.05618" lon="2.2117">
        <ele>82.7</ele>
        <time>2023-10-04T13:37:52Z</time>
      </trkpt>
      <trkpt lat="50.05618" lon="2.2117">
        <ele>82.7</ele>
        <time>2023-10-04T13:37:53Z</time>
      </trkpt>
      <trkpt lat="50.05618" lon="2.2117">
        <ele>82.7</ele>
        <time>2023-10-04T13:37:54Z</time>
      </trkpt>
      <trkpt lat="50.05618" lon="2.2117">
        <ele>82.7</ele>
        <time>2023-10-04T13:37:55Z</time>
      </trkpt>
      <trkpt lat="50.05617" lon="2.2117">
        <ele>82.7</ele>
        <time>2023-10-04T13:37:56Z</time>
      </trkpt>
      <trkpt lat="50.05617" lon="2.2117">
        <ele>82.7</ele>
        <time>2023-10-04T13:37:57Z</time>
      </trkpt>
      <trkpt lat="50.05617" lon="2.2117">
        <ele>82.7</ele>
        <time>2023-10-04T13:37:58Z</time>
      </trkpt>
      <trkpt lat="50.05617" lon="2.2117">
        <ele>82.6</ele>
        <time>2023-10-04T13:37:59Z</time>
      </trkpt>
      <trkpt lat="50.05618" lon="2.2117">
        <ele>82.6</ele>
        <time>2023-10-04T13:38:00Z</time>
      </trkpt>
      <trkpt lat="50.05618" lon="2.2117">
        <ele>82.6</ele>
        <time>2023-10-04T13:38:01Z</time>
      </trkpt>
      <trkpt lat="50.05618" lon="2.2117">
        <ele>82.6</ele>
        <time>2023-10-04T13:38:02Z</time>
      </trkpt>
      <trkpt lat="50.05618" lon="2.2117">
        <ele>82.6</ele>
        <time>2023-10-04T13:38:03Z</time>
      </trkpt>
      <trkpt lat="50.05618" lon="2.2117">
        <ele>82.6</ele>
        <time>2023-10-04T13:38:04Z</time>
      </trkpt>
      <trkpt lat="50.05618" lon="2.2117">
        <ele>82.6</ele>
        <time>2023-10-04T13:38:05Z</time>
      </trkpt>
      <trkpt lat="50.05618" lon="2.2117">
        <ele>82.6</ele>
        <time>2023-10-04T13:38:06Z</time>
      </trkpt>
      <trkpt lat="50.05618" lon="2.2117">
        <ele>82.6</ele>
        <time>2023-10-04T13:38:07Z</time>
      </trkpt>
      <trkpt lat="50.05618" lon="2.2117">
        <ele>82.6</ele>
        <time>2023-10-04T13:38:08Z</time>
      </trkpt>
      <trkpt lat="50.05618" lon="2.2117">
        <ele>82.6</ele>
        <time>2023-10-04T13:38:09Z</time>
      </trkpt>
      <trkpt lat="50.05618" lon="2.2117">
        <ele>82.6</ele>
        <time>2023-10-04T13:38:10Z</time>
      </trkpt>
      <trkpt lat="50.05618" lon="2.2117">
        <ele>82.6</ele>
        <time>2023-10-04T13:38:11Z</time>
      </trkpt>
      <trkpt lat="50.05618" lon="2.2117">
        <ele>82.6</ele>
        <time>2023-10-04T13:38:12Z</time>
      </trkpt>
      <trkpt lat="50.05618" lon="2.2117">
        <ele>82.6</ele>
        <time>2023-10-04T13:38:13Z</time>
      </trkpt>
      <trkpt lat="50.05618" lon="2.2117">
        <ele>82.6</ele>
        <time>2023-10-04T13:38:14Z</time>
      </trkpt>
      <trkpt lat="50.05618" lon="2.2117">
        <ele>82.6</ele>
        <time>2023-10-04T13:38:15Z</time>
      </trkpt>
      <trkpt lat="50.05618" lon="2.2117">
        <ele>82.6</ele>
        <time>2023-10-04T13:38:16Z</time>
      </trkpt>
      <trkpt lat="50.05618" lon="2.2117">
        <ele>82.6</ele>
        <time>2023-10-04T13:38:17Z</time>
      </trkpt>
      <trkpt lat="50.05618" lon="2.2117">
        <ele>82.6</ele>
        <time>2023-10-04T13:38:18Z</time>
      </trkpt>
      <trkpt lat="50.05618" lon="2.2117">
        <ele>82.6</ele>
        <time>2023-10-04T13:38:19Z</time>
      </trkpt>
      <trkpt lat="50.05618" lon="2.2117">
        <ele>82.6</ele>
        <time>2023-10-04T13:38:20Z</time>
      </trkpt>
      <trkpt lat="50.05618" lon="2.2117">
        <ele>82.6</ele>
        <time>2023-10-04T13:38:21Z</time>
      </trkpt>
      <trkpt lat="50.05618" lon="2.2117">
        <ele>82.6</ele>
        <time>2023-10-04T13:38:22Z</time>
      </trkpt>
      <trkpt lat="50.05618" lon="2.2117">
        <ele>82.6</ele>
        <time>2023-10-04T13:38:23Z</time>
      </trkpt>
      <trkpt lat="50.05618" lon="2.2117">
        <ele>82.6</ele>
        <time>2023-10-04T13:38:24Z</time>
      </trkpt>
      <trkpt lat="50.05618" lon="2.2117">
        <ele>82.6</ele>
        <time>2023-10-04T13:38:25Z</time>
      </trkpt>
      <trkpt lat="50.05618" lon="2.2117">
        <ele>82.6</ele>
        <time>2023-10-04T13:38:26Z</time>
      </trkpt>
      <trkpt lat="50.05618" lon="2.2117">
        <ele>82.6</ele>
        <time>2023-10-04T13:38:27Z</time>
      </trkpt>
      <trkpt lat="50.05618" lon="2.2117">
        <ele>82.6</ele>
        <time>2023-10-04T13:38:28Z</time>
      </trkpt>
      <trkpt lat="50.05618" lon="2.2117">
        <ele>82.6</ele>
        <time>2023-10-04T13:38:29Z</time>
      </trkpt>
      <trkpt lat="50.05618" lon="2.2117">
        <ele>82.6</ele>
        <time>2023-10-04T13:38:30Z</time>
      </trkpt>
      <trkpt lat="50.05618" lon="2.2117">
        <ele>82.6</ele>
        <time>2023-10-04T13:38:31Z</time>
      </trkpt>
      <trkpt lat="50.05618" lon="2.2117">
        <ele>82.6</ele>
        <time>2023-10-04T13:38:32Z</time>
      </trkpt>
      <trkpt lat="50.05618" lon="2.2117">
        <ele>82.6</ele>
        <time>2023-10-04T13:38:33Z</time>
      </trkpt>
      <trkpt lat="50.05618" lon="2.2117">
        <ele>82.6</ele>
        <time>2023-10-04T13:38:34Z</time>
      </trkpt>
      <trkpt lat="50.05618" lon="2.2117">
        <ele>82.6</ele>
        <time>2023-10-04T13:38:35Z</time>
      </trkpt>
      <trkpt lat="50.05618" lon="2.2117">
        <ele>82.6</ele>
        <time>2023-10-04T13:38:36Z</time>
      </trkpt>
      <trkpt lat="50.05618" lon="2.2117">
        <ele>82.6</ele>
        <time>2023-10-04T13:38:37Z</time>
      </trkpt>
      <trkpt lat="50.05618" lon="2.2117">
        <ele>82.6</ele>
        <time>2023-10-04T13:38:38Z</time>
      </trkpt>
      <trkpt lat="50.05618" lon="2.2117">
        <ele>82.6</ele>
        <time>2023-10-04T13:38:39Z</time>
      </trkpt>
      <trkpt lat="50.05618" lon="2.2117">
        <ele>82.6</ele>
        <time>2023-10-04T13:38:40Z</time>
      </trkpt>
      <trkpt lat="50.05618" lon="2.2117">
        <ele>82.6</ele>
        <time>2023-10-04T13:38:41Z</time>
      </trkpt>
      <trkpt lat="50.05618" lon="2.2117">
        <ele>82.6</ele>
        <time>2023-10-04T13:38:42Z</time>
      </trkpt>
      <trkpt lat="50.05618" lon="2.2117">
        <ele>82.6</ele>
        <time>2023-10-04T13:38:43Z</time>
      </trkpt>
      <trkpt lat="50.05618" lon="2.2117">
        <ele>82.6</ele>
        <time>2023-10-04T13:38:44Z</time>
      </trkpt>
      <trkpt lat="50.05618" lon="2.2117">
        <ele>82.6</ele>
        <time>2023-10-04T13:38:45Z</time>
      </trkpt>
      <trkpt lat="50.05618" lon="2.2117">
        <ele>82.6</ele>
        <time>2023-10-04T13:38:46Z</time>
      </trkpt>
      <trkpt lat="50.05618" lon="2.2117">
        <ele>82.6</ele>
        <time>2023-10-04T13:38:47Z</time>
      </trkpt>
      <trkpt lat="50.05618" lon="2.2117">
        <ele>82.6</ele>
        <time>2023-10-04T13:38:48Z</time>
      </trkpt>
      <trkpt lat="50.05618" lon="2.2117">
        <ele>82.6</ele>
        <time>2023-10-04T13:38:49Z</time>
      </trkpt>
      <trkpt lat="50.05618" lon="2.2117">
        <ele>82.6</ele>
        <time>2023-10-04T13:38:50Z</time>
      </trkpt>
      <trkpt lat="50.05618" lon="2.2117">
        <ele>82.6</ele>
        <time>2023-10-04T13:38:51Z</time>
      </trkpt>
      <trkpt lat="50.05618" lon="2.2117">
        <ele>82.6</ele>
        <time>2023-10-04T13:38:52Z</time>
      </trkpt>
      <trkpt lat="50.05618" lon="2.2117">
        <ele>82.6</ele>
        <time>2023-10-04T13:38:53Z</time>
      </trkpt>
      <trkpt lat="50.05618" lon="2.2117">
        <ele>82.6</ele>
        <time>2023-10-04T13:38:54Z</time>
      </trkpt>
      <trkpt lat="50.05618" lon="2.2117">
        <ele>82.6</ele>
        <time>2023-10-04T13:38:55Z</time>
      </trkpt>
      <trkpt lat="50.05618" lon="2.2117">
        <ele>82.6</ele>
        <time>2023-10-04T13:38:56Z</time>
      </trkpt>
      <trkpt lat="50.05618" lon="2.2117">
        <ele>82.6</ele>
        <time>2023-10-04T13:38:57Z</time>
      </trkpt>
      <trkpt lat="50.05618" lon="2.2117">
        <ele>82.6</ele>
        <time>2023-10-04T13:38:58Z</time>
      </trkpt>
      <trkpt lat="50.05618" lon="2.2117">
        <ele>82.6</ele>
        <time>2023-10-04T13:38:59Z</time>
      </trkpt>
      <trkpt lat="50.05618" lon="2.2117">
        <ele>82.6</ele>
        <time>2023-10-04T13:39:00Z</time>
      </trkpt>
      <trkpt lat="50.05618" lon="2.2117">
        <ele>82.6</ele>
        <time>2023-10-04T13:39:01Z</time>
      </trkpt>
      <trkpt lat="50.05618" lon="2.2117">
        <ele>82.6</ele>
        <time>2023-10-04T13:39:02Z</time>
      </trkpt>
      <trkpt lat="50.05618" lon="2.2117">
        <ele>82.6</ele>
        <time>2023-10-04T13:39:03Z</time>
      </trkpt>
      <trkpt lat="50.05618" lon="2.2117">
        <ele>82.6</ele>
        <time>2023-10-04T13:39:04Z</time>
      </trkpt>
      <trkpt lat="50.05618" lon="2.2117">
        <ele>82.6</ele>
        <time>2023-10-04T13:39:05Z</time>
      </trkpt>
      <trkpt lat="50.05618" lon="2.2117">
        <ele>82.6</ele>
        <time>2023-10-04T13:39:06Z</time>
      </trkpt>
      <trkpt lat="50.05618" lon="2.2117">
        <ele>82.6</ele>
        <time>2023-10-04T13:39:07Z</time>
      </trkpt>
      <trkpt lat="50.05618" lon="2.2117">
        <ele>82.6</ele>
        <time>2023-10-04T13:39:08Z</time>
      </trkpt>
      <trkpt lat="50.05618" lon="2.2117">
        <ele>82.6</ele>
        <time>2023-10-04T13:39:09Z</time>
      </trkpt>
      <trkpt lat="50.05618" lon="2.2117">
        <ele>82.6</ele>
        <time>2023-10-04T13:39:10Z</time>
      </trkpt>
      <trkpt lat="50.05618" lon="2.2117">
        <ele>82.6</ele>
        <time>2023-10-04T13:39:11Z</time>
      </trkpt>
      <trkpt lat="50.05618" lon="2.2117">
        <ele>82.6</ele>
        <time>2023-10-04T13:39:12Z</time>
      </trkpt>
      <trkpt lat="50.05618" lon="2.2117">
        <ele>82.6</ele>
        <time>2023-10-04T13:39:13Z</time>
      </trkpt>
      <trkpt lat="50.05618" lon="2.2117">
        <ele>82.6</ele>
        <time>2023-10-04T13:39:14Z</time>
      </trkpt>
      <trkpt lat="50.05618" lon="2.2117">
        <ele>82.6</ele>
        <time>2023-10-04T13:39:15Z</time>
      </trkpt>
      <trkpt lat="50.05618" lon="2.2117">
        <ele>82.6</ele>
        <time>2023-10-04T13:39:16Z</time>
      </trkpt>
      <trkpt lat="50.05618" lon="2.2117">
        <ele>82.6</ele>
        <time>2023-10-04T13:39:17Z</time>
      </trkpt>
      <trkpt lat="50.05618" lon="2.2117">
        <ele>82.6</ele>
        <time>2023-10-04T13:39:18Z</time>
      </trkpt>
      <trkpt lat="50.05618" lon="2.2117">
        <ele>82.6</ele>
        <time>2023-10-04T13:39:19Z</time>
      </trkpt>
      <trkpt lat="50.05618" lon="2.2117">
        <ele>82.6</ele>
        <time>2023-10-04T13:39:20Z</time>
      </trkpt>
      <trkpt lat="50.05618" lon="2.2117">
        <ele>82.6</ele>
        <time>2023-10-04T13:39:21Z</time>
      </trkpt>
      <trkpt lat="50.05618" lon="2.2117">
        <ele>82.6</ele>
        <time>2023-10-04T13:39:22Z</time>
      </trkpt>
      <trkpt lat="50.05618" lon="2.2117">
        <ele>82.6</ele>
        <time>2023-10-04T13:39:23Z</time>
      </trkpt>
      <trkpt lat="50.05618" lon="2.2117">
        <ele>82.6</ele>
        <time>2023-10-04T13:39:24Z</time>
      </trkpt>
      <trkpt lat="50.05618" lon="2.2117">
        <ele>82.6</ele>
        <time>2023-10-04T13:39:25Z</time>
      </trkpt>
      <trkpt lat="50.05618" lon="2.2117">
        <ele>82.6</ele>
        <time>2023-10-04T13:39:26Z</time>
      </trkpt>
      <trkpt lat="50.05618" lon="2.2117">
        <ele>82.6</ele>
        <time>2023-10-04T13:39:27Z</time>
      </trkpt>
      <trkpt lat="50.05618" lon="2.2117">
        <ele>82.6</ele>
        <time>2023-10-04T13:39:28Z</time>
      </trkpt>
      <trkpt lat="50.05618" lon="2.2117">
        <ele>82.6</ele>
        <time>2023-10-04T13:39:29Z</time>
      </trkpt>
      <trkpt lat="50.05618" lon="2.2117">
        <ele>82.6</ele>
        <time>2023-10-04T13:39:30Z</time>
      </trkpt>
      <trkpt lat="50.05618" lon="2.2117">
        <ele>82.6</ele>
        <time>2023-10-04T13:39:31Z</time>
      </trkpt>
      <trkpt lat="50.05618" lon="2.2117">
        <ele>82.6</ele>
        <time>2023-10-04T13:39:32Z</time>
      </trkpt>
      <trkpt lat="50.05617" lon="2.21169">
        <ele>82.6</ele>
        <time>2023-10-04T13:39:33Z</time>
      </trkpt>
      <trkpt lat="50.05616" lon="2.21169">
        <ele>82.6</ele>
        <time>2023-10-04T13:39:34Z</time>
      </trkpt>
      <trkpt lat="50.05616" lon="2.21169">
        <ele>82.6</ele>
        <time>2023-10-04T13:39:35Z</time>
      </trkpt>
      <trkpt lat="50.05616" lon="2.21168">
        <ele>82.6</ele>
        <time>2023-10-04T13:39:36Z</time>
      </trkpt>
      <trkpt lat="50.05615" lon="2.21168">
        <ele>82.6</ele>
        <time>2023-10-04T13:39:37Z</time>
      </trkpt>
      <trkpt lat="50.05615" lon="2.21168">
        <ele>82.6</ele>
        <time>2023-10-04T13:39:38Z</time>
      </trkpt>
      <trkpt lat="50.05615" lon="2.21168">
        <ele>82.5</ele>
        <time>2023-10-04T13:39:39Z</time>
      </trkpt>
      <trkpt lat="50.05614" lon="2.21168">
        <ele>82.5</ele>
        <time>2023-10-04T13:39:40Z</time>
      </trkpt>
      <trkpt lat="50.05614" lon="2.21167">
        <ele>82.5</ele>
        <time>2023-10-04T13:39:41Z</time>
      </trkpt>
      <trkpt lat="50.05614" lon="2.21166">
        <ele>82.5</ele>
        <time>2023-10-04T13:39:42Z</time>
      </trkpt>
      <trkpt lat="50.05613" lon="2.21165">
        <ele>82.5</ele>
        <time>2023-10-04T13:39:43Z</time>
      </trkpt>
      <trkpt lat="50.05613" lon="2.21164">
        <ele>82.5</ele>
        <time>2023-10-04T13:39:44Z</time>
      </trkpt>
      <trkpt lat="50.05612" lon="2.21163">
        <ele>82.4</ele>
        <time>2023-10-04T13:39:45Z</time>
      </trkpt>
      <trkpt lat="50.05612" lon="2.21162">
        <ele>82.4</ele>
        <time>2023-10-04T13:39:46Z</time>
      </trkpt>
      <trkpt lat="50.05611" lon="2.21161">
        <ele>82.4</ele>
        <time>2023-10-04T13:39:47Z</time>
      </trkpt>
      <trkpt lat="50.0561" lon="2.2116">
        <ele>82.4</ele>
        <time>2023-10-04T13:39:48Z</time>
      </trkpt>
      <trkpt lat="50.05609" lon="2.21159">
        <ele>82.3</ele>
        <time>2023-10-04T13:39:49Z</time>
      </trkpt>
      <trkpt lat="50.05609" lon="2.21158">
        <ele>82.3</ele>
        <time>2023-10-04T13:39:50Z</time>
      </trkpt>
      <trkpt lat="50.05608" lon="2.21157">
        <ele>82.3</ele>
        <time>2023-10-04T13:39:51Z</time>
      </trkpt>
      <trkpt lat="50.05608" lon="2.21156">
        <ele>82.3</ele>
        <time>2023-10-04T13:39:52Z</time>
      </trkpt>
      <trkpt lat="50.05607" lon="2.21155">
        <ele>82.3</ele>
        <time>2023-10-04T13:39:53Z</time>
      </trkpt>
      <trkpt lat="50.05606" lon="2.21154">
        <ele>82.2</ele>
        <time>2023-10-04T13:39:54Z</time>
      </trkpt>
      <trkpt lat="50.05606" lon="2.21153">
        <ele>82.2</ele>
        <time>2023-10-04T13:39:55Z</time>
      </trkpt>
      <trkpt lat="50.05605" lon="2.21152">
        <ele>82.2</ele>
        <time>2023-10-04T13:39:56Z</time>
      </trkpt>
      <trkpt lat="50.05604" lon="2.21151">
        <ele>82.2</ele>
        <time>2023-10-04T13:39:57Z</time>
      </trkpt>
      <trkpt lat="50.05603" lon="2.21149">
        <ele>82.1</ele>
        <time>2023-10-04T13:39:58Z</time>
      </trkpt>
      <trkpt lat="50.05602" lon="2.21148">
        <ele>82.1</ele>
        <time>2023-10-04T13:39:59Z</time>
      </trkpt>
      <trkpt lat="50.05602" lon="2.21147">
        <ele>82.1</ele>
        <time>2023-10-04T13:40:00Z</time>
      </trkpt>
      <trkpt lat="50.05601" lon="2.21145">
        <ele>82</ele>
        <time>2023-10-04T13:40:01Z</time>
      </trkpt>
      <trkpt lat="50.056" lon="2.21143">
        <ele>82</ele>
        <time>2023-10-04T13:40:02Z</time>
      </trkpt>
      <trkpt lat="50.05598" lon="2.2114">
        <ele>81.9</ele>
        <time>2023-10-04T13:40:03Z</time>
      </trkpt>
      <trkpt lat="50.05598" lon="2.21139">
        <ele>81.9</ele>
        <time>2023-10-04T13:40:04Z</time>
      </trkpt>
      <trkpt lat="50.05598" lon="2.21138">
        <ele>81.9</ele>
        <time>2023-10-04T13:40:05Z</time>
      </trkpt>
      <trkpt lat="50.05597" lon="2.21137">
        <ele>81.9</ele>
        <time>2023-10-04T13:40:06Z</time>
      </trkpt>
      <trkpt lat="50.05597" lon="2.21136">
        <ele>81.8</ele>
        <time>2023-10-04T13:40:07Z</time>
      </trkpt>
      <trkpt lat="50.05596" lon="2.21134">
        <ele>81.8</ele>
        <time>2023-10-04T13:40:08Z</time>
      </trkpt>
      <trkpt lat="50.05596" lon="2.21133">
        <ele>81.8</ele>
        <time>2023-10-04T13:40:09Z</time>
      </trkpt>
      <trkpt lat="50.05595" lon="2.21131">
        <ele>81.7</ele>
        <time>2023-10-04T13:40:10Z</time>
      </trkpt>
      <trkpt lat="50.05594" lon="2.2113">
        <ele>81.7</ele>
        <time>2023-10-04T13:40:11Z</time>
      </trkpt>
      <trkpt lat="50.05594" lon="2.21129">
        <ele>81.7</ele>
        <time>2023-10-04T13:40:12Z</time>
      </trkpt>
      <trkpt lat="50.05593" lon="2.21127">
        <ele>81.6</ele>
        <time>2023-10-04T13:40:13Z</time>
      </trkpt>
      <trkpt lat="50.05592" lon="2.21126">
        <ele>81.6</ele>
        <time>2023-10-04T13:40:14Z</time>
      </trkpt>
      <trkpt lat="50.05591" lon="2.21125">
        <ele>81.5</ele>
        <time>2023-10-04T13:40:15Z</time>
      </trkpt>
      <trkpt lat="50.05591" lon="2.21123">
        <ele>81.5</ele>
        <time>2023-10-04T13:40:16Z</time>
      </trkpt>
      <trkpt lat="50.0559" lon="2.21122">
        <ele>81.4</ele>
        <time>2023-10-04T13:40:17Z</time>
      </trkpt>
      <trkpt lat="50.05589" lon="2.21121">
        <ele>81.4</ele>
        <time>2023-10-04T13:40:18Z</time>
      </trkpt>
      <trkpt lat="50.05588" lon="2.21119">
        <ele>81.3</ele>
        <time>2023-10-04T13:40:19Z</time>
      </trkpt>
      <trkpt lat="50.05588" lon="2.21118">
        <ele>81.2</ele>
        <time>2023-10-04T13:40:20Z</time>
      </trkpt>
      <trkpt lat="50.05586" lon="2.21115">
        <ele>81.1</ele>
        <time>2023-10-04T13:40:21Z</time>
      </trkpt>
      <trkpt lat="50.05586" lon="2.21114">
        <ele>81</ele>
        <time>2023-10-04T13:40:22Z</time>
      </trkpt>
      <trkpt lat="50.05585" lon="2.21113">
        <ele>81</ele>
        <time>2023-10-04T13:40:23Z</time>
      </trkpt>
      <trkpt lat="50.05584" lon="2.2111">
        <ele>80.8</ele>
        <time>2023-10-04T13:40:24Z</time>
      </trkpt>
      <trkpt lat="50.05584" lon="2.21109">
        <ele>80.8</ele>
        <time>2023-10-04T13:40:25Z</time>
      </trkpt>
      <trkpt lat="50.05583" lon="2.21108">
        <ele>80.7</ele>
        <time>2023-10-04T13:40:26Z</time>
      </trkpt>
      <trkpt lat="50.05582" lon="2.21106">
        <ele>80.6</ele>
        <time>2023-10-04T13:40:27Z</time>
      </trkpt>
      <trkpt lat="50.05582" lon="2.21105">
        <ele>80.5</ele>
        <time>2023-10-04T13:40:28Z</time>
      </trkpt>
      <trkpt lat="50.05581" lon="2.21103">
        <ele>80.4</ele>
        <time>2023-10-04T13:40:29Z</time>
      </trkpt>
      <trkpt lat="50.05581" lon="2.21102">
        <ele>80.3</ele>
        <time>2023-10-04T13:40:30Z</time>
      </trkpt>
      <trkpt lat="50.0558" lon="2.21101">
        <ele>80.2</ele>
        <time>2023-10-04T13:40:31Z</time>
      </trkpt>
      <trkpt lat="50.0558" lon="2.21099">
        <ele>80.1</ele>
        <time>2023-10-04T13:40:32Z</time>
      </trkpt>
      <trkpt lat="50.05579" lon="2.21098">
        <ele>80</ele>
        <time>2023-10-04T13:40:33Z</time>
      </trkpt>
      <trkpt lat="50.05578" lon="2.21097">
        <ele>79.9</ele>
        <time>2023-10-04T13:40:34Z</time>
      </trkpt>
      <trkpt lat="50.05578" lon="2.21095">
        <ele>79.8</ele>
        <time>2023-10-04T13:40:35Z</time>
      </trkpt>
      <trkpt lat="50.05577" lon="2.21094">
        <ele>79.7</ele>
        <time>2023-10-04T13:40:36Z</time>
      </trkpt>
      <trkpt lat="50.05576" lon="2.21093">
        <ele>79.6</ele>
        <time>2023-10-04T13:40:37Z</time>
      </trkpt>
      <trkpt lat="50.05576" lon="2.21092">
        <ele>79.5</ele>
        <time>2023-10-04T13:40:38Z</time>
      </trkpt>
      <trkpt lat="50.05575" lon="2.2109">
        <ele>79.4</ele>
        <time>2023-10-04T13:40:39Z</time>
      </trkpt>
      <trkpt lat="50.05575" lon="2.21089">
        <ele>79.3</ele>
        <time>2023-10-04T13:40:40Z</time>
      </trkpt>
      <trkpt lat="50.05574" lon="2.21088">
        <ele>79.1</ele>
        <time>2023-10-04T13:40:41Z</time>
      </trkpt>
      <trkpt lat="50.05574" lon="2.21087">
        <ele>79</ele>
        <time>2023-10-04T13:40:42Z</time>
      </trkpt>
      <trkpt lat="50.05573" lon="2.21085">
        <ele>78.9</ele>
        <time>2023-10-04T13:40:43Z</time>
      </trkpt>
      <trkpt lat="50.05572" lon="2.21084">
        <ele>78.8</ele>
        <time>2023-10-04T13:40:44Z</time>
      </trkpt>
      <trkpt lat="50.05572" lon="2.21083">
        <ele>78.7</ele>
        <time>2023-10-04T13:40:45Z</time>
      </trkpt>
      <trkpt lat="50.05571" lon="2.21082">
        <ele>78.6</ele>
        <time>2023-10-04T13:40:46Z</time>
      </trkpt>
      <trkpt lat="50.0557" lon="2.2108">
        <ele>78.5</ele>
        <time>2023-10-04T13:40:47Z</time>
      </trkpt>
      <trkpt lat="50.0557" lon="2.21079">
        <ele>78.3</ele>
        <time>2023-10-04T13:40:48Z</time>
      </trkpt>
      <trkpt lat="50.05569" lon="2.21078">
        <ele>78.2</ele>
        <time>2023-10-04T13:40:49Z</time>
      </trkpt>
      <trkpt lat="50.05569" lon="2.21076">
        <ele>78.1</ele>
        <time>2023-10-04T13:40:50Z</time>
      </trkpt>
      <trkpt lat="50.05569" lon="2.21075">
        <ele>78</ele>
        <time>2023-10-04T13:40:51Z</time>
      </trkpt>
      <trkpt lat="50.05568" lon="2.21073">
        <ele>77.9</ele>
        <time>2023-10-04T13:40:52Z</time>
      </trkpt>
      <trkpt lat="50.05568" lon="2.21072">
        <ele>77.8</ele>
        <time>2023-10-04T13:40:53Z</time>
      </trkpt>
      <trkpt lat="50.05567" lon="2.21071">
        <ele>77.7</ele>
        <time>2023-10-04T13:40:54Z</time>
      </trkpt>
      <trkpt lat="50.05567" lon="2.2107">
        <ele>77.7</ele>
        <time>2023-10-04T13:40:55Z</time>
      </trkpt>
      <trkpt lat="50.05567" lon="2.21068">
        <ele>77.6</ele>
        <time>2023-10-04T13:40:56Z</time>
      </trkpt>
      <trkpt lat="50.05567" lon="2.21067">
        <ele>77.5</ele>
        <time>2023-10-04T13:40:57Z</time>
      </trkpt>
      <trkpt lat="50.05566" lon="2.21065">
        <ele>77.4</ele>
        <time>2023-10-04T13:40:58Z</time>
      </trkpt>
      <trkpt lat="50.05566" lon="2.21064">
        <ele>77.3</ele>
        <time>2023-10-04T13:40:59Z</time>
      </trkpt>
      <trkpt lat="50.05566" lon="2.21062">
        <ele>77.2</ele>
        <time>2023-10-04T13:41:00Z</time>
      </trkpt>
      <trkpt lat="50.05565" lon="2.21061">
        <ele>77.1</ele>
        <time>2023-10-04T13:41:01Z</time>
      </trkpt>
      <trkpt lat="50.05565" lon="2.21059">
        <ele>77</ele>
        <time>2023-10-04T13:41:02Z</time>
      </trkpt>
      <trkpt lat="50.05565" lon="2.21058">
        <ele>76.9</ele>
        <time>2023-10-04T13:41:03Z</time>
      </trkpt>
      <trkpt lat="50.05565" lon="2.21056">
        <ele>76.9</ele>
        <time>2023-10-04T13:41:04Z</time>
      </trkpt>
      <trkpt lat="50.05564" lon="2.21055">
        <ele>76.8</ele>
        <time>2023-10-04T13:41:05Z</time>
      </trkpt>
      <trkpt lat="50.05564" lon="2.21054">
        <ele>76.7</ele>
        <time>2023-10-04T13:41:06Z</time>
      </trkpt>
      <trkpt lat="50.05563" lon="2.21052">
        <ele>76.6</ele>
        <time>2023-10-04T13:41:07Z</time>
      </trkpt>
      <trkpt lat="50.05563" lon="2.2105">
        <ele>76.5</ele>
        <time>2023-10-04T13:41:08Z</time>
      </trkpt>
      <trkpt lat="50.05563" lon="2.21049">
        <ele>76.5</ele>
        <time>2023-10-04T13:41:09Z</time>
      </trkpt>
      <trkpt lat="50.05562" lon="2.21047">
        <ele>76.4</ele>
        <time>2023-10-04T13:41:10Z</time>
      </trkpt>
      <trkpt lat="50.05562" lon="2.21045">
        <ele>76.3</ele>
        <time>2023-10-04T13:41:11Z</time>
      </trkpt>
      <trkpt lat="50.05562" lon="2.21043">
        <ele>76.2</ele>
        <time>2023-10-04T13:41:12Z</time>
      </trkpt>
      <trkpt lat="50.05561" lon="2.21042">
        <ele>76.1</ele>
        <time>2023-10-04T13:41:13Z</time>
      </trkpt>
      <trkpt lat="50.05561" lon="2.2104">
        <ele>76.1</ele>
        <time>2023-10-04T13:41:14Z</time>
      </trkpt>
      <trkpt lat="50.05561" lon="2.21039">
        <ele>76</ele>
        <time>2023-10-04T13:41:15Z</time>
      </trkpt>
      <trkpt lat="50.0556" lon="2.21037">
        <ele>75.9</ele>
        <time>2023-10-04T13:41:16Z</time>
      </trkpt>
      <trkpt lat="50.0556" lon="2.21035">
        <ele>75.8</ele>
        <time>2023-10-04T13:41:17Z</time>
      </trkpt>
      <trkpt lat="50.05559" lon="2.21034">
        <ele>75.8</ele>
        <time>2023-10-04T13:41:18Z</time>
      </trkpt>
      <trkpt lat="50.05558" lon="2.21031">
        <ele>75.7</ele>
        <time>2023-10-04T13:41:19Z</time>
      </trkpt>
      <trkpt lat="50.05558" lon="2.2103">
        <ele>75.6</ele>
        <time>2023-10-04T13:41:20Z</time>
      </trkpt>
      <trkpt lat="50.05558" lon="2.21029">
        <ele>75.6</ele>
        <time>2023-10-04T13:41:21Z</time>
      </trkpt>
      <trkpt lat="50.05557" lon="2.21027">
        <ele>75.5</ele>
        <time>2023-10-04T13:41:22Z</time>
      </trkpt>
      <trkpt lat="50.05557" lon="2.21025">
        <ele>75.5</ele>
        <time>2023-10-04T13:41:23Z</time>
      </trkpt>
      <trkpt lat="50.05556" lon="2.21024">
        <ele>75.4</ele>
        <time>2023-10-04T13:41:24Z</time>
      </trkpt>
      <trkpt lat="50.05556" lon="2.21022">
        <ele>75.4</ele>
        <time>2023-10-04T13:41:25Z</time>
      </trkpt>
      <trkpt lat="50.05555" lon="2.2102">
        <ele>75.3</ele>
        <time>2023-10-04T13:41:26Z</time>
      </trkpt>
      <trkpt lat="50.05555" lon="2.21019">
        <ele>75.2</ele>
        <time>2023-10-04T13:41:27Z</time>
      </trkpt>
      <trkpt lat="50.05555" lon="2.21017">
        <ele>75.2</ele>
        <time>2023-10-04T13:41:28Z</time>
      </trkpt>
      <trkpt lat="50.05554" lon="2.21015">
        <ele>75.1</ele>
        <time>2023-10-04T13:41:29Z</time>
      </trkpt>
      <trkpt lat="50.05554" lon="2.21014">
        <ele>75.1</ele>
        <time>2023-10-04T13:41:30Z</time>
      </trkpt>
      <trkpt lat="50.05553" lon="2.21012">
        <ele>75.1</ele>
        <time>2023-10-04T13:41:31Z</time>
      </trkpt>
      <trkpt lat="50.05552" lon="2.21011">
        <ele>75</ele>
        <time>2023-10-04T13:41:32Z</time>
      </trkpt>
      <trkpt lat="50.05552" lon="2.21009">
        <ele>75</ele>
        <time>2023-10-04T13:41:33Z</time>
      </trkpt>
      <trkpt lat="50.05551" lon="2.21008">
        <ele>74.9</ele>
        <time>2023-10-04T13:41:34Z</time>
      </trkpt>
      <trkpt lat="50.05551" lon="2.21007">
        <ele>74.9</ele>
        <time>2023-10-04T13:41:35Z</time>
      </trkpt>
      <trkpt lat="50.0555" lon="2.21005">
        <ele>74.9</ele>
        <time>2023-10-04T13:41:36Z</time>
      </trkpt>
      <trkpt lat="50.0555" lon="2.21004">
        <ele>74.8</ele>
        <time>2023-10-04T13:41:37Z</time>
      </trkpt>
      <trkpt lat="50.05549" lon="2.21002">
        <ele>74.8</ele>
        <time>2023-10-04T13:41:38Z</time>
      </trkpt>
      <trkpt lat="50.05549" lon="2.21001">
        <ele>74.8</ele>
        <time>2023-10-04T13:41:39Z</time>
      </trkpt>
      <trkpt lat="50.05548" lon="2.20998">
        <ele>74.7</ele>
        <time>2023-10-04T13:41:40Z</time>
      </trkpt>
      <trkpt lat="50.05547" lon="2.20997">
        <ele>74.7</ele>
        <time>2023-10-04T13:41:41Z</time>
      </trkpt>
      <trkpt lat="50.05547" lon="2.20995">
        <ele>74.7</ele>
        <time>2023-10-04T13:41:42Z</time>
      </trkpt>
      <trkpt lat="50.05546" lon="2.20993">
        <ele>74.6</ele>
        <time>2023-10-04T13:41:43Z</time>
      </trkpt>
      <trkpt lat="50.05546" lon="2.20991">
        <ele>74.6</ele>
        <time>2023-10-04T13:41:44Z</time>
      </trkpt>
      <trkpt lat="50.05545" lon="2.20989">
        <ele>74.6</ele>
        <time>2023-10-04T13:41:45Z</time>
      </trkpt>
      <trkpt lat="50.05544" lon="2.20987">
        <ele>74.5</ele>
        <time>2023-10-04T13:41:46Z</time>
      </trkpt>
      <trkpt lat="50.05544" lon="2.20984">
        <ele>74.5</ele>
        <time>2023-10-04T13:41:47Z</time>
      </trkpt>
      <trkpt lat="50.05543" lon="2.20983">
        <ele>74.5</ele>
        <time>2023-10-04T13:41:48Z</time>
      </trkpt>
      <trkpt lat="50.05543" lon="2.20981">
        <ele>74.4</ele>
        <time>2023-10-04T13:41:49Z</time>
      </trkpt>
      <trkpt lat="50.05542" lon="2.2098">
        <ele>74.4</ele>
        <time>2023-10-04T13:41:50Z</time>
      </trkpt>
      <trkpt lat="50.05542" lon="2.20978">
        <ele>74.4</ele>
        <time>2023-10-04T13:41:51Z</time>
      </trkpt>
      <trkpt lat="50.05542" lon="2.20977">
        <ele>74.4</ele>
        <time>2023-10-04T13:41:52Z</time>
      </trkpt>
      <trkpt lat="50.05541" lon="2.20975">
        <ele>74.4</ele>
        <time>2023-10-04T13:41:53Z</time>
      </trkpt>
      <trkpt lat="50.05541" lon="2.20974">
        <ele>74.3</ele>
        <time>2023-10-04T13:41:54Z</time>
      </trkpt>
      <trkpt lat="50.05541" lon="2.20973">
        <ele>74.3</ele>
        <time>2023-10-04T13:41:55Z</time>
      </trkpt>
      <trkpt lat="50.0554" lon="2.20971">
        <ele>74.3</ele>
        <time>2023-10-04T13:41:56Z</time>
      </trkpt>
      <trkpt lat="50.0554" lon="2.2097">
        <ele>74.3</ele>
        <time>2023-10-04T13:41:57Z</time>
      </trkpt>
      <trkpt lat="50.0554" lon="2.20969">
        <ele>74.3</ele>
        <time>2023-10-04T13:41:58Z</time>
      </trkpt>
      <trkpt lat="50.0554" lon="2.20967">
        <ele>74.2</ele>
        <time>2023-10-04T13:41:59Z</time>
      </trkpt>
      <trkpt lat="50.0554" lon="2.20966">
        <ele>74.2</ele>
        <time>2023-10-04T13:42:00Z</time>
      </trkpt>
      <trkpt lat="50.0554" lon="2.20964">
        <ele>74.2</ele>
        <time>2023-10-04T13:42:01Z</time>
      </trkpt>
      <trkpt lat="50.0554" lon="2.20963">
        <ele>74.1</ele>
        <time>2023-10-04T13:42:02Z</time>
      </trkpt>
      <trkpt lat="50.05539" lon="2.20961">
        <ele>74.1</ele>
        <time>2023-10-04T13:42:03Z</time>
      </trkpt>
      <trkpt lat="50.05539" lon="2.20959">
        <ele>74.1</ele>
        <time>2023-10-04T13:42:04Z</time>
      </trkpt>
      <trkpt lat="50.05539" lon="2.20958">
        <ele>74</ele>
        <time>2023-10-04T13:42:05Z</time>
      </trkpt>
      <trkpt lat="50.05539" lon="2.20956">
        <ele>74</ele>
        <time>2023-10-04T13:42:06Z</time>
      </trkpt>
      <trkpt lat="50.05539" lon="2.20954">
        <ele>74</ele>
        <time>2023-10-04T13:42:07Z</time>
      </trkpt>
      <trkpt lat="50.05538" lon="2.20953">
        <ele>73.9</ele>
        <time>2023-10-04T13:42:08Z</time>
      </trkpt>
      <trkpt lat="50.05538" lon="2.20951">
        <ele>73.9</ele>
        <time>2023-10-04T13:42:09Z</time>
      </trkpt>
      <trkpt lat="50.05537" lon="2.2095">
        <ele>73.8</ele>
        <time>2023-10-04T13:42:10Z</time>
      </trkpt>
      <trkpt lat="50.05537" lon="2.20948">
        <ele>73.8</ele>
        <time>2023-10-04T13:42:11Z</time>
      </trkpt>
      <trkpt lat="50.05536" lon="2.20945">
        <ele>73.7</ele>
        <time>2023-10-04T13:42:12Z</time>
      </trkpt>
      <trkpt lat="50.05536" lon="2.20944">
        <ele>73.7</ele>
        <time>2023-10-04T13:42:13Z</time>
      </trkpt>
      <trkpt lat="50.05536" lon="2.20943">
        <ele>73.7</ele>
        <time>2023-10-04T13:42:14Z</time>
      </trkpt>
      <trkpt lat="50.05536" lon="2.20941">
        <ele>73.7</ele>
        <time>2023-10-04T13:42:15Z</time>
      </trkpt>
      <trkpt lat="50.05535" lon="2.20939">
        <ele>73.6</ele>
        <time>2023-10-04T13:42:16Z</time>
      </trkpt>
      <trkpt lat="50.05535" lon="2.20938">
        <ele>73.6</ele>
        <time>2023-10-04T13:42:17Z</time>
      </trkpt>
      <trkpt lat="50.05535" lon="2.20936">
        <ele>73.6</ele>
        <time>2023-10-04T13:42:18Z</time>
      </trkpt>
      <trkpt lat="50.05535" lon="2.20934">
        <ele>73.5</ele>
        <time>2023-10-04T13:42:19Z</time>
      </trkpt>
      <trkpt lat="50.05535" lon="2.20933">
        <ele>73.5</ele>
        <time>2023-10-04T13:42:20Z</time>
      </trkpt>
      <trkpt lat="50.05534" lon="2.20931">
        <ele>73.5</ele>
        <time>2023-10-04T13:42:21Z</time>
      </trkpt>
      <trkpt lat="50.05534" lon="2.20929">
        <ele>73.5</ele>
        <time>2023-10-04T13:42:22Z</time>
      </trkpt>
      <trkpt lat="50.05534" lon="2.20928">
        <ele>73.5</ele>
        <time>2023-10-04T13:42:23Z</time>
      </trkpt>
      <trkpt lat="50.05534" lon="2.20926">
        <ele>73.4</ele>
        <time>2023-10-04T13:42:24Z</time>
      </trkpt>
      <trkpt lat="50.05534" lon="2.20925">
        <ele>73.4</ele>
        <time>2023-10-04T13:42:25Z</time>
      </trkpt>
      <trkpt lat="50.05533" lon="2.20923">
        <ele>73.4</ele>
        <time>2023-10-04T13:42:26Z</time>
      </trkpt>
      <trkpt lat="50.05533" lon="2.20922">
        <ele>73.4</ele>
        <time>2023-10-04T13:42:27Z</time>
      </trkpt>
      <trkpt lat="50.05533" lon="2.2092">
        <ele>73.4</ele>
        <time>2023-10-04T13:42:28Z</time>
      </trkpt>
      <trkpt lat="50.05533" lon="2.20919">
        <ele>73.3</ele>
        <time>2023-10-04T13:42:29Z</time>
      </trkpt>
      <trkpt lat="50.05533" lon="2.20917">
        <ele>73.3</ele>
        <time>2023-10-04T13:42:30Z</time>
      </trkpt>
      <trkpt lat="50.05532" lon="2.20915">
        <ele>73.3</ele>
        <time>2023-10-04T13:42:31Z</time>
      </trkpt>
      <trkpt lat="50.05532" lon="2.20914">
        <ele>73.3</ele>
        <time>2023-10-04T13:42:32Z</time>
      </trkpt>
      <trkpt lat="50.05532" lon="2.20912">
        <ele>73.3</ele>
        <time>2023-10-04T13:42:33Z</time>
      </trkpt>
      <trkpt lat="50.05532" lon="2.20911">
        <ele>73.2</ele>
        <time>2023-10-04T13:42:34Z</time>
      </trkpt>
      <trkpt lat="50.05532" lon="2.20909">
        <ele>73.2</ele>
        <time>2023-10-04T13:42:35Z</time>
      </trkpt>
      <trkpt lat="50.05532" lon="2.20907">
        <ele>73.2</ele>
        <time>2023-10-04T13:42:36Z</time>
      </trkpt>
      <trkpt lat="50.05531" lon="2.20906">
        <ele>73.2</ele>
        <time>2023-10-04T13:42:37Z</time>
      </trkpt>
      <trkpt lat="50.05531" lon="2.20905">
        <ele>73.2</ele>
        <time>2023-10-04T13:42:38Z</time>
      </trkpt>
      <trkpt lat="50.05531" lon="2.20903">
        <ele>73.1</ele>
        <time>2023-10-04T13:42:39Z</time>
      </trkpt>
      <trkpt lat="50.05531" lon="2.20902">
        <ele>73.1</ele>
        <time>2023-10-04T13:42:40Z</time>
      </trkpt>
      <trkpt lat="50.05531" lon="2.209">
        <ele>73.1</ele>
        <time>2023-10-04T13:42:41Z</time>
      </trkpt>
      <trkpt lat="50.05531" lon="2.20899">
        <ele>73.1</ele>
        <time>2023-10-04T13:42:42Z</time>
      </trkpt>
      <trkpt lat="50.05531" lon="2.20897">
        <ele>73.1</ele>
        <time>2023-10-04T13:42:43Z</time>
      </trkpt>
      <trkpt lat="50.05531" lon="2.20895">
        <ele>73</ele>
        <time>2023-10-04T13:42:44Z</time>
      </trkpt>
      <trkpt lat="50.05531" lon="2.20893">
        <ele>73</ele>
        <time>2023-10-04T13:42:45Z</time>
      </trkpt>
      <trkpt lat="50.05531" lon="2.20892">
        <ele>73</ele>
        <time>2023-10-04T13:42:46Z</time>
      </trkpt>
      <trkpt lat="50.05531" lon="2.2089">
        <ele>73</ele>
        <time>2023-10-04T13:42:47Z</time>
      </trkpt>
      <trkpt lat="50.05531" lon="2.20889">
        <ele>73</ele>
        <time>2023-10-04T13:42:48Z</time>
      </trkpt>
      <trkpt lat="50.05531" lon="2.20887">
        <ele>73</ele>
        <time>2023-10-04T13:42:49Z</time>
      </trkpt>
      <trkpt lat="50.05531" lon="2.20886">
        <ele>73</ele>
        <time>2023-10-04T13:42:50Z</time>
      </trkpt>
      <trkpt lat="50.0553" lon="2.20884">
        <ele>73</ele>
        <time>2023-10-04T13:42:51Z</time>
      </trkpt>
      <trkpt lat="50.0553" lon="2.20882">
        <ele>73</ele>
        <time>2023-10-04T13:42:52Z</time>
      </trkpt>
      <trkpt lat="50.0553" lon="2.20881">
        <ele>72.9</ele>
        <time>2023-10-04T13:42:53Z</time>
      </trkpt>
      <trkpt lat="50.0553" lon="2.20879">
        <ele>72.9</ele>
        <time>2023-10-04T13:42:54Z</time>
      </trkpt>
      <trkpt lat="50.0553" lon="2.20877">
        <ele>72.9</ele>
        <time>2023-10-04T13:42:55Z</time>
      </trkpt>
      <trkpt lat="50.0553" lon="2.20875">
        <ele>72.9</ele>
        <time>2023-10-04T13:42:56Z</time>
      </trkpt>
      <trkpt lat="50.05529" lon="2.20872">
        <ele>72.8</ele>
        <time>2023-10-04T13:42:57Z</time>
      </trkpt>
      <trkpt lat="50.05529" lon="2.20871">
        <ele>72.8</ele>
        <time>2023-10-04T13:42:58Z</time>
      </trkpt>
      <trkpt lat="50.05529" lon="2.20869">
        <ele>72.8</ele>
        <time>2023-10-04T13:42:59Z</time>
      </trkpt>
      <trkpt lat="50.05529" lon="2.20867">
        <ele>72.8</ele>
        <time>2023-10-04T13:43:00Z</time>
      </trkpt>
      <trkpt lat="50.05529" lon="2.20865">
        <ele>72.7</ele>
        <time>2023-10-04T13:43:01Z</time>
      </trkpt>
      <trkpt lat="50.05528" lon="2.20862">
        <ele>72.7</ele>
        <time>2023-10-04T13:43:02Z</time>
      </trkpt>
      <trkpt lat="50.05528" lon="2.2086">
        <ele>72.7</ele>
        <time>2023-10-04T13:43:03Z</time>
      </trkpt>
      <trkpt lat="50.05528" lon="2.20858">
        <ele>72.6</ele>
        <time>2023-10-04T13:43:04Z</time>
      </trkpt>
      <trkpt lat="50.05527" lon="2.20856">
        <ele>72.6</ele>
        <time>2023-10-04T13:43:05Z</time>
      </trkpt>
      <trkpt lat="50.05527" lon="2.20852">
        <ele>72.6</ele>
        <time>2023-10-04T13:43:06Z</time>
      </trkpt>
      <trkpt lat="50.05527" lon="2.20851">
        <ele>72.6</ele>
        <time>2023-10-04T13:43:07Z</time>
      </trkpt>
      <trkpt lat="50.05527" lon="2.2085">
        <ele>72.6</ele>
        <time>2023-10-04T13:43:08Z</time>
      </trkpt>
      <trkpt lat="50.05527" lon="2.20848">
        <ele>72.5</ele>
        <time>2023-10-04T13:43:09Z</time>
      </trkpt>
      <trkpt lat="50.05527" lon="2.20846">
        <ele>72.5</ele>
        <time>2023-10-04T13:43:10Z</time>
      </trkpt>
      <trkpt lat="50.05526" lon="2.20845">
        <ele>72.5</ele>
        <time>2023-10-04T13:43:11Z</time>
      </trkpt>
      <trkpt lat="50.05526" lon="2.20843">
        <ele>72.5</ele>
        <time>2023-10-04T13:43:12Z</time>
      </trkpt>
      <trkpt lat="50.05526" lon="2.20842">
        <ele>72.5</ele>
        <time>2023-10-04T13:43:13Z</time>
      </trkpt>
      <trkpt lat="50.05526" lon="2.2084">
        <ele>72.5</ele>
        <time>2023-10-04T13:43:14Z</time>
      </trkpt>
      <trkpt lat="50.05526" lon="2.20839">
        <ele>72.4</ele>
        <time>2023-10-04T13:43:15Z</time>
      </trkpt>
      <trkpt lat="50.05526" lon="2.20837">
        <ele>72.4</ele>
        <time>2023-10-04T13:43:16Z</time>
      </trkpt>
      <trkpt lat="50.05526" lon="2.20836">
        <ele>72.4</ele>
        <time>2023-10-04T13:43:17Z</time>
      </trkpt>
      <trkpt lat="50.05526" lon="2.20834">
        <ele>72.4</ele>
        <time>2023-10-04T13:43:18Z</time>
      </trkpt>
      <trkpt lat="50.05526" lon="2.20832">
        <ele>72.4</ele>
        <time>2023-10-04T13:43:19Z</time>
      </trkpt>
      <trkpt lat="50.05525" lon="2.20831">
        <ele>72.4</ele>
        <time>2023-10-04T13:43:20Z</time>
      </trkpt>
      <trkpt lat="50.05525" lon="2.20829">
        <ele>72.3</ele>
        <time>2023-10-04T13:43:21Z</time>
      </trkpt>
      <trkpt lat="50.05525" lon="2.20828">
        <ele>72.3</ele>
        <time>2023-10-04T13:43:22Z</time>
      </trkpt>
      <trkpt lat="50.05525" lon="2.20826">
        <ele>72.3</ele>
        <time>2023-10-04T13:43:23Z</time>
      </trkpt>
      <trkpt lat="50.05525" lon="2.20824">
        <ele>72.3</ele>
        <time>2023-10-04T13:43:24Z</time>
      </trkpt>
      <trkpt lat="50.05524" lon="2.20823">
        <ele>72.3</ele>
        <time>2023-10-04T13:43:25Z</time>
      </trkpt>
      <trkpt lat="50.05524" lon="2.20821">
        <ele>72.3</ele>
        <time>2023-10-04T13:43:26Z</time>
      </trkpt>
      <trkpt lat="50.05524" lon="2.20819">
        <ele>72.2</ele>
        <time>2023-10-04T13:43:27Z</time>
      </trkpt>
      <trkpt lat="50.05524" lon="2.20818">
        <ele>72.2</ele>
        <time>2023-10-04T13:43:28Z</time>
      </trkpt>
      <trkpt lat="50.05524" lon="2.20816">
        <ele>72.2</ele>
        <time>2023-10-04T13:43:29Z</time>
      </trkpt>
      <trkpt lat="50.05524" lon="2.20814">
        <ele>72.2</ele>
        <time>2023-10-04T13:43:30Z</time>
      </trkpt>
      <trkpt lat="50.05524" lon="2.20813">
        <ele>72.2</ele>
        <time>2023-10-04T13:43:31Z</time>
      </trkpt>
      <trkpt lat="50.05523" lon="2.20811">
        <ele>72.2</ele>
        <time>2023-10-04T13:43:32Z</time>
      </trkpt>
      <trkpt lat="50.05523" lon="2.20809">
        <ele>72.1</ele>
        <time>2023-10-04T13:43:33Z</time>
      </trkpt>
      <trkpt lat="50.05523" lon="2.20808">
        <ele>72.1</ele>
        <time>2023-10-04T13:43:34Z</time>
      </trkpt>
      <trkpt lat="50.05523" lon="2.20807">
        <ele>72.1</ele>
        <time>2023-10-04T13:43:35Z</time>
      </trkpt>
      <trkpt lat="50.05523" lon="2.20805">
        <ele>72.1</ele>
        <time>2023-10-04T13:43:36Z</time>
      </trkpt>
      <trkpt lat="50.05523" lon="2.20804">
        <ele>72.1</ele>
        <time>2023-10-04T13:43:37Z</time>
      </trkpt>
      <trkpt lat="50.05523" lon="2.20802">
        <ele>72.1</ele>
        <time>2023-10-04T13:43:38Z</time>
      </trkpt>
      <trkpt lat="50.05522" lon="2.20801">
        <ele>72.1</ele>
        <time>2023-10-04T13:43:39Z</time>
      </trkpt>
      <trkpt lat="50.05522" lon="2.20799">
        <ele>72.1</ele>
        <time>2023-10-04T13:43:40Z</time>
      </trkpt>
      <trkpt lat="50.05522" lon="2.20797">
        <ele>72.1</ele>
        <time>2023-10-04T13:43:41Z</time>
      </trkpt>
      <trkpt lat="50.05521" lon="2.20794">
        <ele>72</ele>
        <time>2023-10-04T13:43:42Z</time>
      </trkpt>
      <trkpt lat="50.05521" lon="2.20793">
        <ele>72</ele>
        <time>2023-10-04T13:43:43Z</time>
      </trkpt>
      <trkpt lat="50.05521" lon="2.20792">
        <ele>72</ele>
        <time>2023-10-04T13:43:44Z</time>
      </trkpt>
      <trkpt lat="50.05521" lon="2.2079">
        <ele>72</ele>
        <time>2023-10-04T13:43:45Z</time>
      </trkpt>
      <trkpt lat="50.05521" lon="2.20788">
        <ele>72</ele>
        <time>2023-10-04T13:43:46Z</time>
      </trkpt>
      <trkpt lat="50.0552" lon="2.20786">
        <ele>72</ele>
        <time>2023-10-04T13:43:47Z</time>
      </trkpt>
      <trkpt lat="50.0552" lon="2.20785">
        <ele>72</ele>
        <time>2023-10-04T13:43:48Z</time>
      </trkpt>
      <trkpt lat="50.0552" lon="2.20783">
        <ele>72</ele>
        <time>2023-10-04T13:43:49Z</time>
      </trkpt>
      <trkpt lat="50.0552" lon="2.20781">
        <ele>72</ele>
        <time>2023-10-04T13:43:50Z</time>
      </trkpt>
      <trkpt lat="50.05519" lon="2.2078">
        <ele>72</ele>
        <time>2023-10-04T13:43:51Z</time>
      </trkpt>
      <trkpt lat="50.05519" lon="2.20778">
        <ele>72</ele>
        <time>2023-10-04T13:43:52Z</time>
      </trkpt>
      <trkpt lat="50.05519" lon="2.20776">
        <ele>72</ele>
        <time>2023-10-04T13:43:53Z</time>
      </trkpt>
      <trkpt lat="50.05519" lon="2.20775">
        <ele>72</ele>
        <time>2023-10-04T13:43:54Z</time>
      </trkpt>
      <trkpt lat="50.05518" lon="2.20773">
        <ele>72</ele>
        <time>2023-10-04T13:43:55Z</time>
      </trkpt>
      <trkpt lat="50.05518" lon="2.20772">
        <ele>72</ele>
        <time>2023-10-04T13:43:56Z</time>
      </trkpt>
      <trkpt lat="50.05518" lon="2.2077">
        <ele>72</ele>
        <time>2023-10-04T13:43:57Z</time>
      </trkpt>
      <trkpt lat="50.05518" lon="2.20769">
        <ele>71.9</ele>
        <time>2023-10-04T13:43:58Z</time>
      </trkpt>
      <trkpt lat="50.05517" lon="2.20767">
        <ele>71.9</ele>
        <time>2023-10-04T13:43:59Z</time>
      </trkpt>
      <trkpt lat="50.05517" lon="2.20765">
        <ele>71.9</ele>
        <time>2023-10-04T13:44:00Z</time>
      </trkpt>
      <trkpt lat="50.05517" lon="2.20764">
        <ele>71.9</ele>
        <time>2023-10-04T13:44:01Z</time>
      </trkpt>
      <trkpt lat="50.05516" lon="2.20762">
        <ele>71.9</ele>
        <time>2023-10-04T13:44:02Z</time>
      </trkpt>
      <trkpt lat="50.05516" lon="2.20761">
        <ele>71.9</ele>
        <time>2023-10-04T13:44:03Z</time>
      </trkpt>
      <trkpt lat="50.05516" lon="2.20759">
        <ele>71.9</ele>
        <time>2023-10-04T13:44:04Z</time>
      </trkpt>
      <trkpt lat="50.05515" lon="2.20757">
        <ele>71.9</ele>
        <time>2023-10-04T13:44:05Z</time>
      </trkpt>
      <trkpt lat="50.05515" lon="2.20754">
        <ele>71.9</ele>
        <time>2023-10-04T13:44:06Z</time>
      </trkpt>
      <trkpt lat="50.05515" lon="2.20753">
        <ele>71.9</ele>
        <time>2023-10-04T13:44:07Z</time>
      </trkpt>
      <trkpt lat="50.05514" lon="2.20751">
        <ele>71.8</ele>
        <time>2023-10-04T13:44:08Z</time>
      </trkpt>
      <trkpt lat="50.05514" lon="2.20748">
        <ele>71.8</ele>
        <time>2023-10-04T13:44:09Z</time>
      </trkpt>
      <trkpt lat="50.05514" lon="2.20747">
        <ele>71.8</ele>
        <time>2023-10-04T13:44:10Z</time>
      </trkpt>
      <trkpt lat="50.05513" lon="2.20746">
        <ele>71.8</ele>
        <time>2023-10-04T13:44:11Z</time>
      </trkpt>
      <trkpt lat="50.05513" lon="2.20742">
        <ele>71.8</ele>
        <time>2023-10-04T13:44:12Z</time>
      </trkpt>
      <trkpt lat="50.05513" lon="2.20741">
        <ele>71.8</ele>
        <time>2023-10-04T13:44:13Z</time>
      </trkpt>
      <trkpt lat="50.05513" lon="2.2074">
        <ele>71.8</ele>
        <time>2023-10-04T13:44:14Z</time>
      </trkpt>
      <trkpt lat="50.05512" lon="2.20736">
        <ele>71.7</ele>
        <time>2023-10-04T13:44:15Z</time>
      </trkpt>
      <trkpt lat="50.05512" lon="2.20735">
        <ele>71.7</ele>
        <time>2023-10-04T13:44:16Z</time>
      </trkpt>
      <trkpt lat="50.05512" lon="2.20734">
        <ele>71.7</ele>
        <time>2023-10-04T13:44:17Z</time>
      </trkpt>
      <trkpt lat="50.05512" lon="2.20732">
        <ele>71.7</ele>
        <time>2023-10-04T13:44:18Z</time>
      </trkpt>
      <trkpt lat="50.05512" lon="2.2073">
        <ele>71.7</ele>
        <time>2023-10-04T13:44:19Z</time>
      </trkpt>
      <trkpt lat="50.05511" lon="2.20728">
        <ele>71.7</ele>
        <time>2023-10-04T13:44:20Z</time>
      </trkpt>
      <trkpt lat="50.05511" lon="2.20725">
        <ele>71.7</ele>
        <time>2023-10-04T13:44:21Z</time>
      </trkpt>
      <trkpt lat="50.05511" lon="2.20724">
        <ele>71.6</ele>
        <time>2023-10-04T13:44:22Z</time>
      </trkpt>
      <trkpt lat="50.05511" lon="2.20723">
        <ele>71.6</ele>
        <time>2023-10-04T13:44:23Z</time>
      </trkpt>
      <trkpt lat="50.05511" lon="2.20719">
        <ele>71.6</ele>
        <time>2023-10-04T13:44:24Z</time>
      </trkpt>
      <trkpt lat="50.05511" lon="2.20718">
        <ele>71.6</ele>
        <time>2023-10-04T13:44:25Z</time>
      </trkpt>
      <trkpt lat="50.05511" lon="2.20717">
        <ele>71.6</ele>
        <time>2023-10-04T13:44:26Z</time>
      </trkpt>
      <trkpt lat="50.05511" lon="2.20715">
        <ele>71.6</ele>
        <time>2023-10-04T13:44:27Z</time>
      </trkpt>
      <trkpt lat="50.05511" lon="2.20713">
        <ele>71.6</ele>
        <time>2023-10-04T13:44:28Z</time>
      </trkpt>
      <trkpt lat="50.05511" lon="2.20712">
        <ele>71.6</ele>
        <time>2023-10-04T13:44:29Z</time>
      </trkpt>
      <trkpt lat="50.05511" lon="2.20709">
        <ele>71.5</ele>
        <time>2023-10-04T13:44:30Z</time>
      </trkpt>
      <trkpt lat="50.05511" lon="2.20707">
        <ele>71.5</ele>
        <time>2023-10-04T13:44:31Z</time>
      </trkpt>
      <trkpt lat="50.05511" lon="2.20706">
        <ele>71.5</ele>
        <time>2023-10-04T13:44:32Z</time>
      </trkpt>
      <trkpt lat="50.0551" lon="2.20703">
        <ele>71.5</ele>
        <time>2023-10-04T13:44:33Z</time>
      </trkpt>
      <trkpt lat="50.0551" lon="2.20702">
        <ele>71.5</ele>
        <time>2023-10-04T13:44:34Z</time>
      </trkpt>
      <trkpt lat="50.0551" lon="2.207">
        <ele>71.5</ele>
        <time>2023-10-04T13:44:35Z</time>
      </trkpt>
      <trkpt lat="50.0551" lon="2.20699">
        <ele>71.4</ele>
        <time>2023-10-04T13:44:36Z</time>
      </trkpt>
      <trkpt lat="50.0551" lon="2.20697">
        <ele>71.4</ele>
        <time>2023-10-04T13:44:37Z</time>
      </trkpt>
      <trkpt lat="50.0551" lon="2.20695">
        <ele>71.4</ele>
        <time>2023-10-04T13:44:38Z</time>
      </trkpt>
      <trkpt lat="50.0551" lon="2.20694">
        <ele>71.4</ele>
        <time>2023-10-04T13:44:39Z</time>
      </trkpt>
      <trkpt lat="50.0551" lon="2.20692">
        <ele>71.4</ele>
        <time>2023-10-04T13:44:40Z</time>
      </trkpt>
      <trkpt lat="50.0551" lon="2.20691">
        <ele>71.3</ele>
        <time>2023-10-04T13:44:41Z</time>
      </trkpt>
      <trkpt lat="50.0551" lon="2.20689">
        <ele>71.3</ele>
        <time>2023-10-04T13:44:42Z</time>
      </trkpt>
      <trkpt lat="50.0551" lon="2.20687">
        <ele>71.3</ele>
        <time>2023-10-04T13:44:43Z</time>
      </trkpt>
      <trkpt lat="50.0551" lon="2.20685">
        <ele>71.3</ele>
        <time>2023-10-04T13:44:44Z</time>
      </trkpt>
      <trkpt lat="50.0551" lon="2.20682">
        <ele>71.2</ele>
        <time>2023-10-04T13:44:45Z</time>
      </trkpt>
      <trkpt lat="50.05509" lon="2.20681">
        <ele>71.2</ele>
        <time>2023-10-04T13:44:46Z</time>
      </trkpt>
      <trkpt lat="50.05509" lon="2.20679">
        <ele>71.2</ele>
        <time>2023-10-04T13:44:47Z</time>
      </trkpt>
      <trkpt lat="50.05509" lon="2.20678">
        <ele>71.2</ele>
        <time>2023-10-04T13:44:48Z</time>
      </trkpt>
      <trkpt lat="50.05509" lon="2.20676">
        <ele>71.2</ele>
        <time>2023-10-04T13:44:49Z</time>
      </trkpt>
      <trkpt lat="50.05509" lon="2.20674">
        <ele>71.2</ele>
        <time>2023-10-04T13:44:50Z</time>
      </trkpt>
      <trkpt lat="50.05508" lon="2.20672">
        <ele>71.1</ele>
        <time>2023-10-04T13:44:51Z</time>
      </trkpt>
      <trkpt lat="50.05508" lon="2.2067">
        <ele>71.1</ele>
        <time>2023-10-04T13:44:52Z</time>
      </trkpt>
      <trkpt lat="50.05508" lon="2.20669">
        <ele>71.1</ele>
        <time>2023-10-04T13:44:53Z</time>
      </trkpt>
      <trkpt lat="50.05508" lon="2.20667">
        <ele>71.1</ele>
        <time>2023-10-04T13:44:54Z</time>
      </trkpt>
      <trkpt lat="50.05508" lon="2.20665">
        <ele>71.1</ele>
        <time>2023-10-04T13:44:55Z</time>
      </trkpt>
      <trkpt lat="50.05508" lon="2.20663">
        <ele>71</ele>
        <time>2023-10-04T13:44:56Z</time>
      </trkpt>
      <trkpt lat="50.05508" lon="2.2066">
        <ele>71</ele>
        <time>2023-10-04T13:44:57Z</time>
      </trkpt>
      <trkpt lat="50.05508" lon="2.20659">
        <ele>71</ele>
        <time>2023-10-04T13:44:58Z</time>
      </trkpt>
      <trkpt lat="50.05507" lon="2.20658">
        <ele>71</ele>
        <time>2023-10-04T13:44:59Z</time>
      </trkpt>
      <trkpt lat="50.05507" lon="2.20656">
        <ele>71</ele>
        <time>2023-10-04T13:45:00Z</time>
      </trkpt>
      <trkpt lat="50.05507" lon="2.20655">
        <ele>70.9</ele>
        <time>2023-10-04T13:45:01Z</time>
      </trkpt>
      <trkpt lat="50.05507" lon="2.20653">
        <ele>70.9</ele>
        <time>2023-10-04T13:45:02Z</time>
      </trkpt>
      <trkpt lat="50.05507" lon="2.20651">
        <ele>70.9</ele>
        <time>2023-10-04T13:45:03Z</time>
      </trkpt>
      <trkpt lat="50.05507" lon="2.2065">
        <ele>70.9</ele>
        <time>2023-10-04T13:45:04Z</time>
      </trkpt>
      <trkpt lat="50.05507" lon="2.20649">
        <ele>70.9</ele>
        <time>2023-10-04T13:45:05Z</time>
      </trkpt>
      <trkpt lat="50.05507" lon="2.20648">
        <ele>70.9</ele>
        <time>2023-10-04T13:45:06Z</time>
      </trkpt>
      <trkpt lat="50.05507" lon="2.20646">
        <ele>70.9</ele>
        <time>2023-10-04T13:45:07Z</time>
      </trkpt>
      <trkpt lat="50.05506" lon="2.20644">
        <ele>70.8</ele>
        <time>2023-10-04T13:45:08Z</time>
      </trkpt>
      <trkpt lat="50.05506" lon="2.20642">
        <ele>70.8</ele>
        <time>2023-10-04T13:45:09Z</time>
      </trkpt>
      <trkpt lat="50.05506" lon="2.20641">
        <ele>70.8</ele>
        <time>2023-10-04T13:45:10Z</time>
      </trkpt>
      <trkpt lat="50.05506" lon="2.20639">
        <ele>70.8</ele>
        <time>2023-10-04T13:45:11Z</time>
      </trkpt>
      <trkpt lat="50.05505" lon="2.20637">
        <ele>70.7</ele>
        <time>2023-10-04T13:45:12Z</time>
      </trkpt>
      <trkpt lat="50.05505" lon="2.20634">
        <ele>70.7</ele>
        <time>2023-10-04T13:45:13Z</time>
      </trkpt>
      <trkpt lat="50.05505" lon="2.20632">
        <ele>70.7</ele>
        <time>2023-10-04T13:45:14Z</time>
      </trkpt>
      <trkpt lat="50.05504" lon="2.20631">
        <ele>70.7</ele>
        <time>2023-10-04T13:45:15Z</time>
      </trkpt>
      <trkpt lat="50.05504" lon="2.20629">
        <ele>70.6</ele>
        <time>2023-10-04T13:45:16Z</time>
      </trkpt>
      <trkpt lat="50.05504" lon="2.20627">
        <ele>70.6</ele>
        <time>2023-10-04T13:45:17Z</time>
      </trkpt>
      <trkpt lat="50.05503" lon="2.20624">
        <ele>70.6</ele>
        <time>2023-10-04T13:45:18Z</time>
      </trkpt>
      <trkpt lat="50.05503" lon="2.20622">
        <ele>70.6</ele>
        <time>2023-10-04T13:45:19Z</time>
      </trkpt>
      <trkpt lat="50.05503" lon="2.20621">
        <ele>70.5</ele>
        <time>2023-10-04T13:45:20Z</time>
      </trkpt>
      <trkpt lat="50.05503" lon="2.20619">
        <ele>70.5</ele>
        <time>2023-10-04T13:45:21Z</time>
      </trkpt>
      <trkpt lat="50.05502" lon="2.20618">
        <ele>70.5</ele>
        <time>2023-10-04T13:45:22Z</time>
      </trkpt>
      <trkpt lat="50.05502" lon="2.20616">
        <ele>70.5</ele>
        <time>2023-10-04T13:45:23Z</time>
      </trkpt>
      <trkpt lat="50.05502" lon="2.20613">
        <ele>70.4</ele>
        <time>2023-10-04T13:45:24Z</time>
      </trkpt>
      <trkpt lat="50.05502" lon="2.20611">
        <ele>70.4</ele>
        <time>2023-10-04T13:45:25Z</time>
      </trkpt>
      <trkpt lat="50.05502" lon="2.2061">
        <ele>70.4</ele>
        <time>2023-10-04T13:45:26Z</time>
      </trkpt>
      <trkpt lat="50.05502" lon="2.20607">
        <ele>70.4</ele>
        <time>2023-10-04T13:45:27Z</time>
      </trkpt>
      <trkpt lat="50.05502" lon="2.20605">
        <ele>70.4</ele>
        <time>2023-10-04T13:45:28Z</time>
      </trkpt>
      <trkpt lat="50.05502" lon="2.20604">
        <ele>70.4</ele>
        <time>2023-10-04T13:45:29Z</time>
      </trkpt>
      <trkpt lat="50.05501" lon="2.20601">
        <ele>70.3</ele>
        <time>2023-10-04T13:45:30Z</time>
      </trkpt>
      <trkpt lat="50.05501" lon="2.20599">
        <ele>70.3</ele>
        <time>2023-10-04T13:45:31Z</time>
      </trkpt>
      <trkpt lat="50.05501" lon="2.20598">
        <ele>70.3</ele>
        <time>2023-10-04T13:45:32Z</time>
      </trkpt>
      <trkpt lat="50.05501" lon="2.20596">
        <ele>70.3</ele>
        <time>2023-10-04T13:45:33Z</time>
      </trkpt>
      <trkpt lat="50.05501" lon="2.20594">
        <ele>70.3</ele>
        <time>2023-10-04T13:45:34Z</time>
      </trkpt>
      <trkpt lat="50.05501" lon="2.20593">
        <ele>70.3</ele>
        <time>2023-10-04T13:45:35Z</time>
      </trkpt>
      <trkpt lat="50.05501" lon="2.20591">
        <ele>70.3</ele>
        <time>2023-10-04T13:45:36Z</time>
      </trkpt>
      <trkpt lat="50.05501" lon="2.2059">
        <ele>70.3</ele>
        <time>2023-10-04T13:45:37Z</time>
      </trkpt>
      <trkpt lat="50.05501" lon="2.20589">
        <ele>70.3</ele>
        <time>2023-10-04T13:45:38Z</time>
      </trkpt>
      <trkpt lat="50.055" lon="2.20588">
        <ele>70.3</ele>
        <time>2023-10-04T13:45:39Z</time>
      </trkpt>
      <trkpt lat="50.055" lon="2.20586">
        <ele>70.3</ele>
        <time>2023-10-04T13:45:40Z</time>
      </trkpt>
      <trkpt lat="50.055" lon="2.20585">
        <ele>70.3</ele>
        <time>2023-10-04T13:45:41Z</time>
      </trkpt>
      <trkpt lat="50.055" lon="2.20583">
        <ele>70.3</ele>
        <time>2023-10-04T13:45:42Z</time>
      </trkpt>
      <trkpt lat="50.055" lon="2.20582">
        <ele>70.3</ele>
        <time>2023-10-04T13:45:43Z</time>
      </trkpt>
      <trkpt lat="50.055" lon="2.2058">
        <ele>70.3</ele>
        <time>2023-10-04T13:45:44Z</time>
      </trkpt>
      <trkpt lat="50.05499" lon="2.20579">
        <ele>70.3</ele>
        <time>2023-10-04T13:45:45Z</time>
      </trkpt>
      <trkpt lat="50.05499" lon="2.20575">
        <ele>70.3</ele>
        <time>2023-10-04T13:45:46Z</time>
      </trkpt>
      <trkpt lat="50.05499" lon="2.20574">
        <ele>70.3</ele>
        <time>2023-10-04T13:45:47Z</time>
      </trkpt>
      <trkpt lat="50.05499" lon="2.20573">
        <ele>70.3</ele>
        <time>2023-10-04T13:45:48Z</time>
      </trkpt>
      <trkpt lat="50.05499" lon="2.20571">
        <ele>70.3</ele>
        <time>2023-10-04T13:45:49Z</time>
      </trkpt>
      <trkpt lat="50.05499" lon="2.20569">
        <ele>70.3</ele>
        <time>2023-10-04T13:45:50Z</time>
      </trkpt>
      <trkpt lat="50.05499" lon="2.20568">
        <ele>70.3</ele>
        <time>2023-10-04T13:45:51Z</time>
      </trkpt>
      <trkpt lat="50.05498" lon="2.20566">
        <ele>70.3</ele>
        <time>2023-10-04T13:45:52Z</time>
      </trkpt>
      <trkpt lat="50.05498" lon="2.20565">
        <ele>70.3</ele>
        <time>2023-10-04T13:45:53Z</time>
      </trkpt>
      <trkpt lat="50.05498" lon="2.20563">
        <ele>70.3</ele>
        <time>2023-10-04T13:45:54Z</time>
      </trkpt>
      <trkpt lat="50.05498" lon="2.20561">
        <ele>70.3</ele>
        <time>2023-10-04T13:45:55Z</time>
      </trkpt>
      <trkpt lat="50.05497" lon="2.2056">
        <ele>70.3</ele>
        <time>2023-10-04T13:45:56Z</time>
      </trkpt>
      <trkpt lat="50.05497" lon="2.20558">
        <ele>70.3</ele>
        <time>2023-10-04T13:45:57Z</time>
      </trkpt>
      <trkpt lat="50.05497" lon="2.20556">
        <ele>70.3</ele>
        <time>2023-10-04T13:45:58Z</time>
      </trkpt>
      <trkpt lat="50.05497" lon="2.20555">
        <ele>70.3</ele>
        <time>2023-10-04T13:45:59Z</time>
      </trkpt>
      <trkpt lat="50.05496" lon="2.20553">
        <ele>70.3</ele>
        <time>2023-10-04T13:46:00Z</time>
      </trkpt>
      <trkpt lat="50.05496" lon="2.20552">
        <ele>70.3</ele>
        <time>2023-10-04T13:46:01Z</time>
      </trkpt>
      <trkpt lat="50.05496" lon="2.2055">
        <ele>70.3</ele>
        <time>2023-10-04T13:46:02Z</time>
      </trkpt>
      <trkpt lat="50.05496" lon="2.20548">
        <ele>70.3</ele>
        <time>2023-10-04T13:46:03Z</time>
      </trkpt>
      <trkpt lat="50.05496" lon="2.20547">
        <ele>70.3</ele>
        <time>2023-10-04T13:46:04Z</time>
      </trkpt>
      <trkpt lat="50.05496" lon="2.20545">
        <ele>70.3</ele>
        <time>2023-10-04T13:46:05Z</time>
      </trkpt>
      <trkpt lat="50.05495" lon="2.20543">
        <ele>70.3</ele>
        <time>2023-10-04T13:46:06Z</time>
      </trkpt>
      <trkpt lat="50.05495" lon="2.20542">
        <ele>70.3</ele>
        <time>2023-10-04T13:46:07Z</time>
      </trkpt>
      <trkpt lat="50.05495" lon="2.2054">
        <ele>70.3</ele>
        <time>2023-10-04T13:46:08Z</time>
      </trkpt>
      <trkpt lat="50.05495" lon="2.20539">
        <ele>70.3</ele>
        <time>2023-10-04T13:46:09Z</time>
      </trkpt>
      <trkpt lat="50.05495" lon="2.20537">
        <ele>70.3</ele>
        <time>2023-10-04T13:46:10Z</time>
      </trkpt>
      <trkpt lat="50.05494" lon="2.20535">
        <ele>70.3</ele>
        <time>2023-10-04T13:46:11Z</time>
      </trkpt>
      <trkpt lat="50.05494" lon="2.20533">
        <ele>70.3</ele>
        <time>2023-10-04T13:46:12Z</time>
      </trkpt>
      <trkpt lat="50.05494" lon="2.20532">
        <ele>70.3</ele>
        <time>2023-10-04T13:46:13Z</time>
      </trkpt>
      <trkpt lat="50.05493" lon="2.2053">
        <ele>70.3</ele>
        <time>2023-10-04T13:46:14Z</time>
      </trkpt>
      <trkpt lat="50.05493" lon="2.20528">
        <ele>70.3</ele>
        <time>2023-10-04T13:46:15Z</time>
      </trkpt>
      <trkpt lat="50.05493" lon="2.20527">
        <ele>70.3</ele>
        <time>2023-10-04T13:46:16Z</time>
      </trkpt>
      <trkpt lat="50.05493" lon="2.20525">
        <ele>70.3</ele>
        <time>2023-10-04T13:46:17Z</time>
      </trkpt>
      <trkpt lat="50.05493" lon="2.20524">
        <ele>70.3</ele>
        <time>2023-10-04T13:46:18Z</time>
      </trkpt>
      <trkpt lat="50.05492" lon="2.20522">
        <ele>70.3</ele>
        <time>2023-10-04T13:46:19Z</time>
      </trkpt>
      <trkpt lat="50.05492" lon="2.20521">
        <ele>70.3</ele>
        <time>2023-10-04T13:46:20Z</time>
      </trkpt>
      <trkpt lat="50.05492" lon="2.20519">
        <ele>70.3</ele>
        <time>2023-10-04T13:46:21Z</time>
      </trkpt>
      <trkpt lat="50.05492" lon="2.20517">
        <ele>70.3</ele>
        <time>2023-10-04T13:46:22Z</time>
      </trkpt>
      <trkpt lat="50.05492" lon="2.20516">
        <ele>70.3</ele>
        <time>2023-10-04T13:46:23Z</time>
      </trkpt>
      <trkpt lat="50.05492" lon="2.20514">
        <ele>70.3</ele>
        <time>2023-10-04T13:46:24Z</time>
      </trkpt>
      <trkpt lat="50.05491" lon="2.20512">
        <ele>70.3</ele>
        <time>2023-10-04T13:46:25Z</time>
      </trkpt>
      <trkpt lat="50.05491" lon="2.20511">
        <ele>70.3</ele>
        <time>2023-10-04T13:46:26Z</time>
      </trkpt>
      <trkpt lat="50.05491" lon="2.20509">
        <ele>70.3</ele>
        <time>2023-10-04T13:46:27Z</time>
      </trkpt>
      <trkpt lat="50.05491" lon="2.20507">
        <ele>70.3</ele>
        <time>2023-10-04T13:46:28Z</time>
      </trkpt>
      <trkpt lat="50.05491" lon="2.20505">
        <ele>70.3</ele>
        <time>2023-10-04T13:46:29Z</time>
      </trkpt>
      <trkpt lat="50.05491" lon="2.20504">
        <ele>70.3</ele>
        <time>2023-10-04T13:46:30Z</time>
      </trkpt>
      <trkpt lat="50.05491" lon="2.20502">
        <ele>70.3</ele>
        <time>2023-10-04T13:46:31Z</time>
      </trkpt>
      <trkpt lat="50.0549" lon="2.205">
        <ele>70.3</ele>
        <time>2023-10-04T13:46:32Z</time>
      </trkpt>
      <trkpt lat="50.0549" lon="2.20499">
        <ele>70.3</ele>
        <time>2023-10-04T13:46:33Z</time>
      </trkpt>
      <trkpt lat="50.0549" lon="2.20497">
        <ele>70.3</ele>
        <time>2023-10-04T13:46:34Z</time>
      </trkpt>
      <trkpt lat="50.0549" lon="2.20495">
        <ele>70.3</ele>
        <time>2023-10-04T13:46:35Z</time>
      </trkpt>
      <trkpt lat="50.0549" lon="2.20493">
        <ele>70.3</ele>
        <time>2023-10-04T13:46:36Z</time>
      </trkpt>
      <trkpt lat="50.0549" lon="2.20491">
        <ele>70.3</ele>
        <time>2023-10-04T13:46:37Z</time>
      </trkpt>
      <trkpt lat="50.05489" lon="2.2049">
        <ele>70.3</ele>
        <time>2023-10-04T13:46:38Z</time>
      </trkpt>
      <trkpt lat="50.05489" lon="2.20488">
        <ele>70.3</ele>
        <time>2023-10-04T13:46:39Z</time>
      </trkpt>
      <trkpt lat="50.05489" lon="2.20486">
        <ele>70.3</ele>
        <time>2023-10-04T13:46:40Z</time>
      </trkpt>
      <trkpt lat="50.05489" lon="2.20485">
        <ele>70.3</ele>
        <time>2023-10-04T13:46:41Z</time>
      </trkpt>
      <trkpt lat="50.05489" lon="2.20483">
        <ele>70.3</ele>
        <time>2023-10-04T13:46:42Z</time>
      </trkpt>
      <trkpt lat="50.05489" lon="2.20481">
        <ele>70.3</ele>
        <time>2023-10-04T13:46:43Z</time>
      </trkpt>
      <trkpt lat="50.05489" lon="2.2048">
        <ele>70.3</ele>
        <time>2023-10-04T13:46:44Z</time>
      </trkpt>
      <trkpt lat="50.05489" lon="2.20478">
        <ele>70.3</ele>
        <time>2023-10-04T13:46:45Z</time>
      </trkpt>
      <trkpt lat="50.05488" lon="2.20476">
        <ele>70.3</ele>
        <time>2023-10-04T13:46:46Z</time>
      </trkpt>
      <trkpt lat="50.05488" lon="2.20475">
        <ele>70.3</ele>
        <time>2023-10-04T13:46:47Z</time>
      </trkpt>
      <trkpt lat="50.05488" lon="2.20473">
        <ele>70.3</ele>
        <time>2023-10-04T13:46:48Z</time>
      </trkpt>
      <trkpt lat="50.05488" lon="2.20472">
        <ele>70.3</ele>
        <time>2023-10-04T13:46:49Z</time>
      </trkpt>
      <trkpt lat="50.05488" lon="2.2047">
        <ele>70.3</ele>
        <time>2023-10-04T13:46:50Z</time>
      </trkpt>
      <trkpt lat="50.05488" lon="2.20468">
        <ele>70.3</ele>
        <time>2023-10-04T13:46:51Z</time>
      </trkpt>
      <trkpt lat="50.05488" lon="2.20467">
        <ele>70.3</ele>
        <time>2023-10-04T13:46:52Z</time>
      </trkpt>
      <trkpt lat="50.05488" lon="2.20465">
        <ele>70.3</ele>
        <time>2023-10-04T13:46:53Z</time>
      </trkpt>
      <trkpt lat="50.05488" lon="2.20464">
        <ele>70.3</ele>
        <time>2023-10-04T13:46:54Z</time>
      </trkpt>
      <trkpt lat="50.05488" lon="2.20462">
        <ele>70.3</ele>
        <time>2023-10-04T13:46:55Z</time>
      </trkpt>
      <trkpt lat="50.05488" lon="2.20461">
        <ele>70.3</ele>
        <time>2023-10-04T13:46:56Z</time>
      </trkpt>
      <trkpt lat="50.05488" lon="2.20459">
        <ele>70.3</ele>
        <time>2023-10-04T13:46:57Z</time>
      </trkpt>
      <trkpt lat="50.05488" lon="2.20457">
        <ele>70.3</ele>
        <time>2023-10-04T13:46:58Z</time>
      </trkpt>
      <trkpt lat="50.05487" lon="2.20456">
        <ele>70.3</ele>
        <time>2023-10-04T13:46:59Z</time>
      </trkpt>
      <trkpt lat="50.05487" lon="2.20454">
        <ele>70.3</ele>
        <time>2023-10-04T13:47:00Z</time>
      </trkpt>
      <trkpt lat="50.05487" lon="2.20453">
        <ele>70.3</ele>
        <time>2023-10-04T13:47:01Z</time>
      </trkpt>
      <trkpt lat="50.05487" lon="2.20451">
        <ele>70.3</ele>
        <time>2023-10-04T13:47:02Z</time>
      </trkpt>
      <trkpt lat="50.05487" lon="2.20449">
        <ele>70.3</ele>
        <time>2023-10-04T13:47:03Z</time>
      </trkpt>
      <trkpt lat="50.05487" lon="2.20447">
        <ele>70.3</ele>
        <time>2023-10-04T13:47:04Z</time>
      </trkpt>
      <trkpt lat="50.05487" lon="2.20446">
        <ele>70.3</ele>
        <time>2023-10-04T13:47:05Z</time>
      </trkpt>
      <trkpt lat="50.05487" lon="2.20444">
        <ele>70.3</ele>
        <time>2023-10-04T13:47:06Z</time>
      </trkpt>
      <trkpt lat="50.05487" lon="2.20442">
        <ele>70.3</ele>
        <time>2023-10-04T13:47:07Z</time>
      </trkpt>
      <trkpt lat="50.05487" lon="2.20441">
        <ele>70.2</ele>
        <time>2023-10-04T13:47:08Z</time>
      </trkpt>
      <trkpt lat="50.05486" lon="2.2044">
        <ele>70.2</ele>
        <time>2023-10-04T13:47:09Z</time>
      </trkpt>
      <trkpt lat="50.05486" lon="2.20438">
        <ele>70.2</ele>
        <time>2023-10-04T13:47:10Z</time>
      </trkpt>
      <trkpt lat="50.05486" lon="2.20436">
        <ele>70.2</ele>
        <time>2023-10-04T13:47:11Z</time>
      </trkpt>
      <trkpt lat="50.05486" lon="2.20435">
        <ele>70.2</ele>
        <time>2023-10-04T13:47:12Z</time>
      </trkpt>
      <trkpt lat="50.05486" lon="2.20433">
        <ele>70.2</ele>
        <time>2023-10-04T13:47:13Z</time>
      </trkpt>
      <trkpt lat="50.05486" lon="2.20432">
        <ele>70.2</ele>
        <time>2023-10-04T13:47:14Z</time>
      </trkpt>
      <trkpt lat="50.05486" lon="2.2043">
        <ele>70.2</ele>
        <time>2023-10-04T13:47:15Z</time>
      </trkpt>
      <trkpt lat="50.05486" lon="2.20429">
        <ele>70.2</ele>
        <time>2023-10-04T13:47:16Z</time>
      </trkpt>
      <trkpt lat="50.05486" lon="2.20427">
        <ele>70.2</ele>
        <time>2023-10-04T13:47:17Z</time>
      </trkpt>
      <trkpt lat="50.05486" lon="2.20426">
        <ele>70.2</ele>
        <time>2023-10-04T13:47:18Z</time>
      </trkpt>
      <trkpt lat="50.05486" lon="2.20425">
        <ele>70.1</ele>
        <time>2023-10-04T13:47:19Z</time>
      </trkpt>
      <trkpt lat="50.05486" lon="2.20423">
        <ele>70.1</ele>
        <time>2023-10-04T13:47:20Z</time>
      </trkpt>
      <trkpt lat="50.05486" lon="2.20422">
        <ele>70.1</ele>
        <time>2023-10-04T13:47:21Z</time>
      </trkpt>
      <trkpt lat="50.05486" lon="2.20421">
        <ele>70.1</ele>
        <time>2023-10-04T13:47:22Z</time>
      </trkpt>
      <trkpt lat="50.05486" lon="2.20419">
        <ele>70.1</ele>
        <time>2023-10-04T13:47:23Z</time>
      </trkpt>
      <trkpt lat="50.05486" lon="2.20417">
        <ele>70.1</ele>
        <time>2023-10-04T13:47:24Z</time>
      </trkpt>
      <trkpt lat="50.05486" lon="2.20416">
        <ele>70.1</ele>
        <time>2023-10-04T13:47:25Z</time>
      </trkpt>
      <trkpt lat="50.05486" lon="2.20414">
        <ele>70.1</ele>
        <time>2023-10-04T13:47:26Z</time>
      </trkpt>
      <trkpt lat="50.05486" lon="2.20412">
        <ele>70</ele>
        <time>2023-10-04T13:47:27Z</time>
      </trkpt>
      <trkpt lat="50.05486" lon="2.20411">
        <ele>70</ele>
        <time>2023-10-04T13:47:28Z</time>
      </trkpt>
      <trkpt lat="50.05486" lon="2.2041">
        <ele>70</ele>
        <time>2023-10-04T13:47:29Z</time>
      </trkpt>
      <trkpt lat="50.05486" lon="2.20408">
        <ele>70</ele>
        <time>2023-10-04T13:47:30Z</time>
      </trkpt>
      <trkpt lat="50.05486" lon="2.20408">
        <ele>70</ele>
        <time>2023-10-04T13:47:31Z</time>
      </trkpt>
      <trkpt lat="50.05486" lon="2.20406">
        <ele>70</ele>
        <time>2023-10-04T13:47:32Z</time>
      </trkpt>
      <trkpt lat="50.05486" lon="2.20405">
        <ele>69.9</ele>
        <time>2023-10-04T13:47:33Z</time>
      </trkpt>
      <trkpt lat="50.05485" lon="2.20403">
        <ele>69.9</ele>
        <time>2023-10-04T13:47:34Z</time>
      </trkpt>
      <trkpt lat="50.05485" lon="2.20401">
        <ele>69.9</ele>
        <time>2023-10-04T13:47:35Z</time>
      </trkpt>
      <trkpt lat="50.05485" lon="2.20398">
        <ele>69.8</ele>
        <time>2023-10-04T13:47:36Z</time>
      </trkpt>
      <trkpt lat="50.05484" lon="2.20397">
        <ele>69.8</ele>
        <time>2023-10-04T13:47:37Z</time>
      </trkpt>
      <trkpt lat="50.05484" lon="2.20395">
        <ele>69.8</ele>
        <time>2023-10-04T13:47:38Z</time>
      </trkpt>
      <trkpt lat="50.05484" lon="2.20394">
        <ele>69.7</ele>
        <time>2023-10-04T13:47:39Z</time>
      </trkpt>
      <trkpt lat="50.05483" lon="2.20392">
        <ele>69.7</ele>
        <time>2023-10-04T13:47:40Z</time>
      </trkpt>
      <trkpt lat="50.05483" lon="2.20391">
        <ele>69.7</ele>
        <time>2023-10-04T13:47:41Z</time>
      </trkpt>
      <trkpt lat="50.05483" lon="2.20389">
        <ele>69.6</ele>
        <time>2023-10-04T13:47:42Z</time>
      </trkpt>
      <trkpt lat="50.05483" lon="2.20387">
        <ele>69.6</ele>
        <time>2023-10-04T13:47:43Z</time>
      </trkpt>
      <trkpt lat="50.05483" lon="2.20386">
        <ele>69.6</ele>
        <time>2023-10-04T13:47:44Z</time>
      </trkpt>
      <trkpt lat="50.05483" lon="2.20384">
        <ele>69.6</ele>
        <time>2023-10-04T13:47:45Z</time>
      </trkpt>
      <trkpt lat="50.05483" lon="2.20383">
        <ele>69.5</ele>
        <time>2023-10-04T13:47:46Z</time>
      </trkpt>
      <trkpt lat="50.05483" lon="2.20381">
        <ele>69.5</ele>
        <time>2023-10-04T13:47:47Z</time>
      </trkpt>
      <trkpt lat="50.05483" lon="2.20379">
        <ele>69.4</ele>
        <time>2023-10-04T13:47:48Z</time>
      </trkpt>
      <trkpt lat="50.05483" lon="2.20377">
        <ele>69.4</ele>
        <time>2023-10-04T13:47:49Z</time>
      </trkpt>
      <trkpt lat="50.05483" lon="2.20374">
        <ele>69.4</ele>
        <time>2023-10-04T13:47:50Z</time>
      </trkpt>
      <trkpt lat="50.05483" lon="2.20372">
        <ele>69.3</ele>
        <time>2023-10-04T13:47:51Z</time>
      </trkpt>
      <trkpt lat="50.05483" lon="2.20369">
        <ele>69.3</ele>
        <time>2023-10-04T13:47:52Z</time>
      </trkpt>
      <trkpt lat="50.05484" lon="2.20368">
        <ele>69.3</ele>
        <time>2023-10-04T13:47:53Z</time>
      </trkpt>
      <trkpt lat="50.05484" lon="2.20367">
        <ele>69.3</ele>
        <time>2023-10-04T13:47:54Z</time>
      </trkpt>
      <trkpt lat="50.05484" lon="2.20365">
        <ele>69.2</ele>
        <time>2023-10-04T13:47:55Z</time>
      </trkpt>
      <trkpt lat="50.05484" lon="2.20363">
        <ele>69.2</ele>
        <time>2023-10-04T13:47:56Z</time>
      </trkpt>
      <trkpt lat="50.05484" lon="2.20361">
        <ele>69.2</ele>
        <time>2023-10-04T13:47:57Z</time>
      </trkpt>
      <trkpt lat="50.05484" lon="2.20359">
        <ele>69.2</ele>
        <time>2023-10-04T13:47:58Z</time>
      </trkpt>
      <trkpt lat="50.05484" lon="2.20358">
        <ele>69.2</ele>
        <time>2023-10-04T13:47:59Z</time>
      </trkpt>
      <trkpt lat="50.05484" lon="2.20356">
        <ele>69.2</ele>
        <time>2023-10-04T13:48:00Z</time>
      </trkpt>
      <trkpt lat="50.05485" lon="2.20355">
        <ele>69.2</ele>
        <time>2023-10-04T13:48:01Z</time>
      </trkpt>
      <trkpt lat="50.05485" lon="2.20353">
        <ele>69.2</ele>
        <time>2023-10-04T13:48:02Z</time>
      </trkpt>
      <trkpt lat="50.05485" lon="2.20351">
        <ele>69.2</ele>
        <time>2023-10-04T13:48:03Z</time>
      </trkpt>
      <trkpt lat="50.05485" lon="2.2035">
        <ele>69.2</ele>
        <time>2023-10-04T13:48:04Z</time>
      </trkpt>
      <trkpt lat="50.05484" lon="2.20348">
        <ele>69.2</ele>
        <time>2023-10-04T13:48:05Z</time>
      </trkpt>
      <trkpt lat="50.05484" lon="2.20346">
        <ele>69.2</ele>
        <time>2023-10-04T13:48:06Z</time>
      </trkpt>
      <trkpt lat="50.05484" lon="2.20344">
        <ele>69.2</ele>
        <time>2023-10-04T13:48:07Z</time>
      </trkpt>
      <trkpt lat="50.05484" lon="2.20342">
        <ele>69.2</ele>
        <time>2023-10-04T13:48:08Z</time>
      </trkpt>
      <trkpt lat="50.05484" lon="2.20341">
        <ele>69.2</ele>
        <time>2023-10-04T13:48:09Z</time>
      </trkpt>
      <trkpt lat="50.05484" lon="2.20337">
        <ele>69.2</ele>
        <time>2023-10-04T13:48:10Z</time>
      </trkpt>
      <trkpt lat="50.05484" lon="2.20336">
        <ele>69.2</ele>
        <time>2023-10-04T13:48:11Z</time>
      </trkpt>
      <trkpt lat="50.05483" lon="2.20335">
        <ele>69.2</ele>
        <time>2023-10-04T13:48:12Z</time>
      </trkpt>
      <trkpt lat="50.05483" lon="2.20332">
        <ele>69.2</ele>
        <time>2023-10-04T13:48:13Z</time>
      </trkpt>
      <trkpt lat="50.05483" lon="2.2033">
        <ele>69.2</ele>
        <time>2023-10-04T13:48:14Z</time>
      </trkpt>
      <trkpt lat="50.05482" lon="2.20328">
        <ele>69.3</ele>
        <time>2023-10-04T13:48:15Z</time>
      </trkpt>
      <trkpt lat="50.05482" lon="2.20325">
        <ele>69.3</ele>
        <time>2023-10-04T13:48:16Z</time>
      </trkpt>
      <trkpt lat="50.05482" lon="2.20322">
        <ele>69.3</ele>
        <time>2023-10-04T13:48:17Z</time>
      </trkpt>
      <trkpt lat="50.05481" lon="2.2032">
        <ele>69.4</ele>
        <time>2023-10-04T13:48:18Z</time>
      </trkpt>
      <trkpt lat="50.05481" lon="2.20317">
        <ele>69.4</ele>
        <time>2023-10-04T13:48:19Z</time>
      </trkpt>
      <trkpt lat="50.05481" lon="2.20316">
        <ele>69.5</ele>
        <time>2023-10-04T13:48:20Z</time>
      </trkpt>
      <trkpt lat="50.05481" lon="2.20315">
        <ele>69.5</ele>
        <time>2023-10-04T13:48:21Z</time>
      </trkpt>
      <trkpt lat="50.0548" lon="2.20313">
        <ele>69.5</ele>
        <time>2023-10-04T13:48:22Z</time>
      </trkpt>
      <trkpt lat="50.0548" lon="2.20311">
        <ele>69.6</ele>
        <time>2023-10-04T13:48:23Z</time>
      </trkpt>
      <trkpt lat="50.0548" lon="2.2031">
        <ele>69.6</ele>
        <time>2023-10-04T13:48:24Z</time>
      </trkpt>
      <trkpt lat="50.0548" lon="2.20309">
        <ele>69.6</ele>
        <time>2023-10-04T13:48:25Z</time>
      </trkpt>
      <trkpt lat="50.0548" lon="2.20308">
        <ele>69.6</ele>
        <time>2023-10-04T13:48:26Z</time>
      </trkpt>
      <trkpt lat="50.0548" lon="2.20306">
        <ele>69.7</ele>
        <time>2023-10-04T13:48:27Z</time>
      </trkpt>
      <trkpt lat="50.0548" lon="2.20305">
        <ele>69.7</ele>
        <time>2023-10-04T13:48:28Z</time>
      </trkpt>
      <trkpt lat="50.05481" lon="2.20303">
        <ele>69.7</ele>
        <time>2023-10-04T13:48:29Z</time>
      </trkpt>
      <trkpt lat="50.05481" lon="2.20302">
        <ele>69.8</ele>
        <time>2023-10-04T13:48:30Z</time>
      </trkpt>
      <trkpt lat="50.05481" lon="2.203">
        <ele>69.8</ele>
        <time>2023-10-04T13:48:31Z</time>
      </trkpt>
      <trkpt lat="50.05481" lon="2.20299">
        <ele>69.8</ele>
        <time>2023-10-04T13:48:32Z</time>
      </trkpt>
      <trkpt lat="50.05481" lon="2.20297">
        <ele>69.9</ele>
        <time>2023-10-04T13:48:33Z</time>
      </trkpt>
      <trkpt lat="50.05482" lon="2.20296">
        <ele>69.9</ele>
        <time>2023-10-04T13:48:34Z</time>
      </trkpt>
      <trkpt lat="50.05482" lon="2.20294">
        <ele>69.9</ele>
        <time>2023-10-04T13:48:35Z</time>
      </trkpt>
      <trkpt lat="50.05482" lon="2.20293">
        <ele>70</ele>
        <time>2023-10-04T13:48:36Z</time>
      </trkpt>
      <trkpt lat="50.05482" lon="2.20291">
        <ele>70</ele>
        <time>2023-10-04T13:48:37Z</time>
      </trkpt>
      <trkpt lat="50.05482" lon="2.20289">
        <ele>70.1</ele>
        <time>2023-10-04T13:48:38Z</time>
      </trkpt>
      <trkpt lat="50.05482" lon="2.20288">
        <ele>70.1</ele>
        <time>2023-10-04T13:48:39Z</time>
      </trkpt>
      <trkpt lat="50.05482" lon="2.20286">
        <ele>70.1</ele>
        <time>2023-10-04T13:48:40Z</time>
      </trkpt>
      <trkpt lat="50.05482" lon="2.20283">
        <ele>70.2</ele>
        <time>2023-10-04T13:48:41Z</time>
      </trkpt>
      <trkpt lat="50.05482" lon="2.20281">
        <ele>70.2</ele>
        <time>2023-10-04T13:48:42Z</time>
      </trkpt>
      <trkpt lat="50.05482" lon="2.2028">
        <ele>70.3</ele>
        <time>2023-10-04T13:48:43Z</time>
      </trkpt>
      <trkpt lat="50.05481" lon="2.20277">
        <ele>70.4</ele>
        <time>2023-10-04T13:48:44Z</time>
      </trkpt>
      <trkpt lat="50.05481" lon="2.20275">
        <ele>70.4</ele>
        <time>2023-10-04T13:48:45Z</time>
      </trkpt>
      <trkpt lat="50.05481" lon="2.20274">
        <ele>70.4</ele>
        <time>2023-10-04T13:48:46Z</time>
      </trkpt>
      <trkpt lat="50.05481" lon="2.20272">
        <ele>70.5</ele>
        <time>2023-10-04T13:48:47Z</time>
      </trkpt>
      <trkpt lat="50.0548" lon="2.2027">
        <ele>70.5</ele>
        <time>2023-10-04T13:48:48Z</time>
      </trkpt>
      <trkpt lat="50.0548" lon="2.20268">
        <ele>70.6</ele>
        <time>2023-10-04T13:48:49Z</time>
      </trkpt>
      <trkpt lat="50.0548" lon="2.20265">
        <ele>70.6</ele>
        <time>2023-10-04T13:48:50Z</time>
      </trkpt>
      <trkpt lat="50.0548" lon="2.20262">
        <ele>70.7</ele>
        <time>2023-10-04T13:48:51Z</time>
      </trkpt>
      <trkpt lat="50.0548" lon="2.2026">
        <ele>70.8</ele>
        <time>2023-10-04T13:48:52Z</time>
      </trkpt>
      <trkpt lat="50.0548" lon="2.20258">
        <ele>70.8</ele>
        <time>2023-10-04T13:48:53Z</time>
      </trkpt>
      <trkpt lat="50.0548" lon="2.20256">
        <ele>70.9</ele>
        <time>2023-10-04T13:48:54Z</time>
      </trkpt>
      <trkpt lat="50.0548" lon="2.20253">
        <ele>70.9</ele>
        <time>2023-10-04T13:48:55Z</time>
      </trkpt>
      <trkpt lat="50.0548" lon="2.20251">
        <ele>71</ele>
        <time>2023-10-04T13:48:56Z</time>
      </trkpt>
      <trkpt lat="50.0548" lon="2.20248">
        <ele>71</ele>
        <time>2023-10-04T13:48:57Z</time>
      </trkpt>
      <trkpt lat="50.0548" lon="2.20246">
        <ele>71.1</ele>
        <time>2023-10-04T13:48:58Z</time>
      </trkpt>
      <trkpt lat="50.0548" lon="2.20243">
        <ele>71.1</ele>
        <time>2023-10-04T13:48:59Z</time>
      </trkpt>
      <trkpt lat="50.0548" lon="2.20242">
        <ele>71.2</ele>
        <time>2023-10-04T13:49:00Z</time>
      </trkpt>
      <trkpt lat="50.0548" lon="2.20241">
        <ele>71.2</ele>
        <time>2023-10-04T13:49:01Z</time>
      </trkpt>
      <trkpt lat="50.0548" lon="2.20239">
        <ele>71.2</ele>
        <time>2023-10-04T13:49:02Z</time>
      </trkpt>
      <trkpt lat="50.0548" lon="2.20237">
        <ele>71.3</ele>
        <time>2023-10-04T13:49:03Z</time>
      </trkpt>
      <trkpt lat="50.0548" lon="2.20235">
        <ele>71.3</ele>
        <time>2023-10-04T13:49:04Z</time>
      </trkpt>
      <trkpt lat="50.0548" lon="2.20234">
        <ele>71.3</ele>
        <time>2023-10-04T13:49:05Z</time>
      </trkpt>
      <trkpt lat="50.0548" lon="2.20232">
        <ele>71.4</ele>
        <time>2023-10-04T13:49:06Z</time>
      </trkpt>
      <trkpt lat="50.0548" lon="2.2023">
        <ele>71.4</ele>
        <time>2023-10-04T13:49:07Z</time>
      </trkpt>
      <trkpt lat="50.0548" lon="2.20229">
        <ele>71.4</ele>
        <time>2023-10-04T13:49:08Z</time>
      </trkpt>
      <trkpt lat="50.0548" lon="2.20227">
        <ele>71.4</ele>
        <time>2023-10-04T13:49:09Z</time>
      </trkpt>
      <trkpt lat="50.05479" lon="2.20225">
        <ele>71.5</ele>
        <time>2023-10-04T13:49:10Z</time>
      </trkpt>
      <trkpt lat="50.05479" lon="2.20224">
        <ele>71.5</ele>
        <time>2023-10-04T13:49:11Z</time>
      </trkpt>
      <trkpt lat="50.05479" lon="2.20222">
        <ele>71.5</ele>
        <time>2023-10-04T13:49:12Z</time>
      </trkpt>
      <trkpt lat="50.05479" lon="2.2022">
        <ele>71.6</ele>
        <time>2023-10-04T13:49:13Z</time>
      </trkpt>
      <trkpt lat="50.05479" lon="2.20219">
        <ele>71.6</ele>
        <time>2023-10-04T13:49:14Z</time>
      </trkpt>
      <trkpt lat="50.05479" lon="2.20217">
        <ele>71.6</ele>
        <time>2023-10-04T13:49:15Z</time>
      </trkpt>
      <trkpt lat="50.05479" lon="2.20215">
        <ele>71.6</ele>
        <time>2023-10-04T13:49:16Z</time>
      </trkpt>
      <trkpt lat="50.05479" lon="2.20213">
        <ele>71.7</ele>
        <time>2023-10-04T13:49:17Z</time>
      </trkpt>
      <trkpt lat="50.05479" lon="2.20211">
        <ele>71.7</ele>
        <time>2023-10-04T13:49:18Z</time>
      </trkpt>
      <trkpt lat="50.05479" lon="2.20208">
        <ele>71.7</ele>
        <time>2023-10-04T13:49:19Z</time>
      </trkpt>
      <trkpt lat="50.05479" lon="2.20206">
        <ele>71.7</ele>
        <time>2023-10-04T13:49:20Z</time>
      </trkpt>
      <trkpt lat="50.05479" lon="2.20203">
        <ele>71.8</ele>
        <time>2023-10-04T13:49:21Z</time>
      </trkpt>
      <trkpt lat="50.05478" lon="2.20201">
        <ele>71.8</ele>
        <time>2023-10-04T13:49:22Z</time>
      </trkpt>
      <trkpt lat="50.05478" lon="2.20198">
        <ele>71.8</ele>
        <time>2023-10-04T13:49:23Z</time>
      </trkpt>
      <trkpt lat="50.05478" lon="2.20196">
        <ele>71.8</ele>
        <time>2023-10-04T13:49:24Z</time>
      </trkpt>
      <trkpt lat="50.05477" lon="2.20195">
        <ele>71.8</ele>
        <time>2023-10-04T13:49:25Z</time>
      </trkpt>
      <trkpt lat="50.05477" lon="2.20193">
        <ele>71.8</ele>
        <time>2023-10-04T13:49:26Z</time>
      </trkpt>
      <trkpt lat="50.05477" lon="2.20192">
        <ele>71.8</ele>
        <time>2023-10-04T13:49:27Z</time>
      </trkpt>
      <trkpt lat="50.05477" lon="2.2019">
        <ele>71.8</ele>
        <time>2023-10-04T13:49:28Z</time>
      </trkpt>
      <trkpt lat="50.05477" lon="2.20189">
        <ele>71.8</ele>
        <time>2023-10-04T13:49:29Z</time>
      </trkpt>
      <trkpt lat="50.05477" lon="2.20187">
        <ele>71.8</ele>
        <time>2023-10-04T13:49:30Z</time>
      </trkpt>
      <trkpt lat="50.05477" lon="2.20185">
        <ele>71.8</ele>
        <time>2023-10-04T13:49:31Z</time>
      </trkpt>
      <trkpt lat="50.05477" lon="2.20184">
        <ele>71.8</ele>
        <time>2023-10-04T13:49:32Z</time>
      </trkpt>
      <trkpt lat="50.05477" lon="2.20182">
        <ele>71.8</ele>
        <time>2023-10-04T13:49:33Z</time>
      </trkpt>
      <trkpt lat="50.05477" lon="2.20181">
        <ele>71.8</ele>
        <time>2023-10-04T13:49:34Z</time>
      </trkpt>
      <trkpt lat="50.05477" lon="2.20179">
        <ele>71.8</ele>
        <time>2023-10-04T13:49:35Z</time>
      </trkpt>
      <trkpt lat="50.05477" lon="2.20178">
        <ele>71.8</ele>
        <time>2023-10-04T13:49:36Z</time>
      </trkpt>
      <trkpt lat="50.05478" lon="2.20177">
        <ele>71.8</ele>
        <time>2023-10-04T13:49:37Z</time>
      </trkpt>
      <trkpt lat="50.05478" lon="2.20175">
        <ele>71.8</ele>
        <time>2023-10-04T13:49:38Z</time>
      </trkpt>
      <trkpt lat="50.05477" lon="2.20174">
        <ele>71.8</ele>
        <time>2023-10-04T13:49:39Z</time>
      </trkpt>
      <trkpt lat="50.05477" lon="2.20172">
        <ele>71.8</ele>
        <time>2023-10-04T13:49:40Z</time>
      </trkpt>
      <trkpt lat="50.05477" lon="2.20171">
        <ele>71.8</ele>
        <time>2023-10-04T13:49:41Z</time>
      </trkpt>
      <trkpt lat="50.05477" lon="2.20169">
        <ele>71.8</ele>
        <time>2023-10-04T13:49:42Z</time>
      </trkpt>
      <trkpt lat="50.05477" lon="2.20168">
        <ele>71.8</ele>
        <time>2023-10-04T13:49:43Z</time>
      </trkpt>
      <trkpt lat="50.05477" lon="2.20166">
        <ele>71.7</ele>
        <time>2023-10-04T13:49:44Z</time>
      </trkpt>
      <trkpt lat="50.05477" lon="2.20165">
        <ele>71.7</ele>
        <time>2023-10-04T13:49:45Z</time>
      </trkpt>
      <trkpt lat="50.05477" lon="2.20163">
        <ele>71.7</ele>
        <time>2023-10-04T13:49:46Z</time>
      </trkpt>
      <trkpt lat="50.05477" lon="2.20162">
        <ele>71.7</ele>
        <time>2023-10-04T13:49:47Z</time>
      </trkpt>
      <trkpt lat="50.05477" lon="2.2016">
        <ele>71.7</ele>
        <time>2023-10-04T13:49:48Z</time>
      </trkpt>
      <trkpt lat="50.05477" lon="2.20158">
        <ele>71.7</ele>
        <time>2023-10-04T13:49:49Z</time>
      </trkpt>
      <trkpt lat="50.05477" lon="2.20156">
        <ele>71.7</ele>
        <time>2023-10-04T13:49:50Z</time>
      </trkpt>
      <trkpt lat="50.05477" lon="2.20155">
        <ele>71.7</ele>
        <time>2023-10-04T13:49:51Z</time>
      </trkpt>
      <trkpt lat="50.05477" lon="2.20153">
        <ele>71.7</ele>
        <time>2023-10-04T13:49:52Z</time>
      </trkpt>
      <trkpt lat="50.05477" lon="2.20151">
        <ele>71.6</ele>
        <time>2023-10-04T13:49:53Z</time>
      </trkpt>
      <trkpt lat="50.05476" lon="2.20149">
        <ele>71.6</ele>
        <time>2023-10-04T13:49:54Z</time>
      </trkpt>
      <trkpt lat="50.05476" lon="2.20148">
        <ele>71.6</ele>
        <time>2023-10-04T13:49:55Z</time>
      </trkpt>
      <trkpt lat="50.05476" lon="2.20147">
        <ele>71.6</ele>
        <time>2023-10-04T13:49:56Z</time>
      </trkpt>
      <trkpt lat="50.05476" lon="2.20146">
        <ele>71.6</ele>
        <time>2023-10-04T13:49:57Z</time>
      </trkpt>
      <trkpt lat="50.05475" lon="2.20144">
        <ele>71.6</ele>
        <time>2023-10-04T13:49:58Z</time>
      </trkpt>
      <trkpt lat="50.05475" lon="2.20143">
        <ele>71.6</ele>
        <time>2023-10-04T13:49:59Z</time>
      </trkpt>
      <trkpt lat="50.05475" lon="2.20141">
        <ele>71.5</ele>
        <time>2023-10-04T13:50:00Z</time>
      </trkpt>
      <trkpt lat="50.05475" lon="2.20139">
        <ele>71.5</ele>
        <time>2023-10-04T13:50:01Z</time>
      </trkpt>
      <trkpt lat="50.05475" lon="2.20138">
        <ele>71.5</ele>
        <time>2023-10-04T13:50:02Z</time>
      </trkpt>
      <trkpt lat="50.05474" lon="2.20136">
        <ele>71.5</ele>
        <time>2023-10-04T13:50:03Z</time>
      </trkpt>
      <trkpt lat="50.05474" lon="2.20132">
        <ele>71.5</ele>
        <time>2023-10-04T13:50:04Z</time>
      </trkpt>
      <trkpt lat="50.05474" lon="2.20131">
        <ele>71.5</ele>
        <time>2023-10-04T13:50:05Z</time>
      </trkpt>
      <trkpt lat="50.05474" lon="2.2013">
        <ele>71.5</ele>
        <time>2023-10-04T13:50:06Z</time>
      </trkpt>
      <trkpt lat="50.05474" lon="2.20128">
        <ele>71.4</ele>
        <time>2023-10-04T13:50:07Z</time>
      </trkpt>
      <trkpt lat="50.05473" lon="2.20126">
        <ele>71.4</ele>
        <time>2023-10-04T13:50:08Z</time>
      </trkpt>
      <trkpt lat="50.05473" lon="2.20124">
        <ele>71.4</ele>
        <time>2023-10-04T13:50:09Z</time>
      </trkpt>
      <trkpt lat="50.05473" lon="2.20123">
        <ele>71.4</ele>
        <time>2023-10-04T13:50:10Z</time>
      </trkpt>
      <trkpt lat="50.05472" lon="2.20121">
        <ele>71.4</ele>
        <time>2023-10-04T13:50:11Z</time>
      </trkpt>
      <trkpt lat="50.05472" lon="2.2012">
        <ele>71.4</ele>
        <time>2023-10-04T13:50:12Z</time>
      </trkpt>
      <trkpt lat="50.05472" lon="2.20118">
        <ele>71.4</ele>
        <time>2023-10-04T13:50:13Z</time>
      </trkpt>
      <trkpt lat="50.05472" lon="2.20116">
        <ele>71.4</ele>
        <time>2023-10-04T13:50:14Z</time>
      </trkpt>
      <trkpt lat="50.05471" lon="2.20115">
        <ele>71.3</ele>
        <time>2023-10-04T13:50:15Z</time>
      </trkpt>
      <trkpt lat="50.05471" lon="2.20113">
        <ele>71.3</ele>
        <time>2023-10-04T13:50:16Z</time>
      </trkpt>
      <trkpt lat="50.05471" lon="2.20111">
        <ele>71.3</ele>
        <time>2023-10-04T13:50:17Z</time>
      </trkpt>
      <trkpt lat="50.05471" lon="2.2011">
        <ele>71.3</ele>
        <time>2023-10-04T13:50:18Z</time>
      </trkpt>
      <trkpt lat="50.0547" lon="2.20108">
        <ele>71.3</ele>
        <time>2023-10-04T13:50:19Z</time>
      </trkpt>
      <trkpt lat="50.0547" lon="2.20107">
        <ele>71.3</ele>
        <time>2023-10-04T13:50:20Z</time>
      </trkpt>
      <trkpt lat="50.0547" lon="2.20105">
        <ele>71.3</ele>
        <time>2023-10-04T13:50:21Z</time>
      </trkpt>
      <trkpt lat="50.0547" lon="2.20104">
        <ele>71.3</ele>
        <time>2023-10-04T13:50:22Z</time>
      </trkpt>
      <trkpt lat="50.0547" lon="2.20102">
        <ele>71.3</ele>
        <time>2023-10-04T13:50:23Z</time>
      </trkpt>
      <trkpt lat="50.0547" lon="2.201">
        <ele>71.3</ele>
        <time>2023-10-04T13:50:24Z</time>
      </trkpt>
      <trkpt lat="50.05469" lon="2.20099">
        <ele>71.3</ele>
        <time>2023-10-04T13:50:25Z</time>
      </trkpt>
      <trkpt lat="50.05469" lon="2.20097">
        <ele>71.3</ele>
        <time>2023-10-04T13:50:26Z</time>
      </trkpt>
      <trkpt lat="50.05469" lon="2.20096">
        <ele>71.3</ele>
        <time>2023-10-04T13:50:27Z</time>
      </trkpt>
      <trkpt lat="50.05469" lon="2.20095">
        <ele>71.3</ele>
        <time>2023-10-04T13:50:28Z</time>
      </trkpt>
      <trkpt lat="50.05468" lon="2.20093">
        <ele>71.3</ele>
        <time>2023-10-04T13:50:29Z</time>
      </trkpt>
      <trkpt lat="50.05468" lon="2.20092">
        <ele>71.3</ele>
        <time>2023-10-04T13:50:30Z</time>
      </trkpt>
      <trkpt lat="50.05467" lon="2.2009">
        <ele>71.3</ele>
        <time>2023-10-04T13:50:31Z</time>
      </trkpt>
      <trkpt lat="50.05467" lon="2.20089">
        <ele>71.3</ele>
        <time>2023-10-04T13:50:32Z</time>
      </trkpt>
      <trkpt lat="50.05466" lon="2.20088">
        <ele>71.3</ele>
        <time>2023-10-04T13:50:33Z</time>
      </trkpt>
      <trkpt lat="50.05466" lon="2.20087">
        <ele>71.3</ele>
        <time>2023-10-04T13:50:34Z</time>
      </trkpt>
      <trkpt lat="50.05466" lon="2.20086">
        <ele>71.3</ele>
        <time>2023-10-04T13:50:35Z</time>
      </trkpt>
      <trkpt lat="50.05466" lon="2.20085">
        <ele>71.3</ele>
        <time>2023-10-04T13:50:36Z</time>
      </trkpt>
      <trkpt lat="50.05466" lon="2.20084">
        <ele>71.3</ele>
        <time>2023-10-04T13:50:37Z</time>
      </trkpt>
      <trkpt lat="50.05466" lon="2.20083">
        <ele>71.3</ele>
        <time>2023-10-04T13:50:38Z</time>
      </trkpt>
      <trkpt lat="50.05466" lon="2.20083">
        <ele>71.3</ele>
        <time>2023-10-04T13:50:39Z</time>
      </trkpt>
      <trkpt lat="50.05467" lon="2.20083">
        <ele>71.3</ele>
        <time>2023-10-04T13:50:40Z</time>
      </trkpt>
      <trkpt lat="50.05467" lon="2.20083">
        <ele>71.3</ele>
        <time>2023-10-04T13:50:41Z</time>
      </trkpt>
      <trkpt lat="50.05467" lon="2.20083">
        <ele>71.3</ele>
        <time>2023-10-04T13:50:42Z</time>
      </trkpt>
      <trkpt lat="50.05467" lon="2.20083">
        <ele>71.3</ele>
        <time>2023-10-04T13:50:43Z</time>
      </trkpt>
      <trkpt lat="50.05467" lon="2.20083">
        <ele>71.3</ele>
        <time>2023-10-04T13:50:44Z</time>
      </trkpt>
      <trkpt lat="50.05467" lon="2.20083">
        <ele>71.3</ele>
        <time>2023-10-04T13:50:45Z</time>
      </trkpt>
      <trkpt lat="50.05467" lon="2.20083">
        <ele>71.3</ele>
        <time>2023-10-04T13:50:46Z</time>
      </trkpt>
      <trkpt lat="50.05467" lon="2.20083">
        <ele>71.3</ele>
        <time>2023-10-04T13:50:47Z</time>
      </trkpt>
      <trkpt lat="50.05467" lon="2.20083">
        <ele>71.3</ele>
        <time>2023-10-04T13:50:48Z</time>
      </trkpt>
      <trkpt lat="50.05467" lon="2.20083">
        <ele>71.3</ele>
        <time>2023-10-04T13:50:49Z</time>
      </trkpt>
      <trkpt lat="50.05467" lon="2.20082">
        <ele>71.3</ele>
        <time>2023-10-04T13:50:50Z</time>
      </trkpt>
      <trkpt lat="50.05467" lon="2.20082">
        <ele>71.3</ele>
        <time>2023-10-04T13:50:51Z</time>
      </trkpt>
      <trkpt lat="50.05467" lon="2.20081">
        <ele>71.3</ele>
        <time>2023-10-04T13:50:52Z</time>
      </trkpt>
      <trkpt lat="50.05467" lon="2.2008">
        <ele>71.3</ele>
        <time>2023-10-04T13:50:53Z</time>
      </trkpt>
      <trkpt lat="50.05467" lon="2.2008">
        <ele>71.3</ele>
        <time>2023-10-04T13:50:54Z</time>
      </trkpt>
      <trkpt lat="50.05467" lon="2.2008">
        <ele>71.3</ele>
        <time>2023-10-04T13:50:55Z</time>
      </trkpt>
      <trkpt lat="50.05467" lon="2.2008">
        <ele>71.3</ele>
        <time>2023-10-04T13:50:56Z</time>
      </trkpt>
      <trkpt lat="50.05467" lon="2.20081">
        <ele>71.3</ele>
        <time>2023-10-04T13:50:57Z</time>
      </trkpt>
      <trkpt lat="50.05467" lon="2.20081">
        <ele>71.3</ele>
        <time>2023-10-04T13:50:58Z</time>
      </trkpt>
      <trkpt lat="50.05467" lon="2.20081">
        <ele>71.3</ele>
        <time>2023-10-04T13:50:59Z</time>
      </trkpt>
      <trkpt lat="50.05467" lon="2.20081">
        <ele>71.3</ele>
        <time>2023-10-04T13:51:00Z</time>
      </trkpt>
      <trkpt lat="50.05467" lon="2.20081">
        <ele>71.3</ele>
        <time>2023-10-04T13:51:01Z</time>
      </trkpt>
      <trkpt lat="50.05467" lon="2.20081">
        <ele>71.3</ele>
        <time>2023-10-04T13:51:02Z</time>
      </trkpt>
      <trkpt lat="50.05467" lon="2.20081">
        <ele>71.3</ele>
        <time>2023-10-04T13:51:03Z</time>
      </trkpt>
      <trkpt lat="50.05467" lon="2.20081">
        <ele>71.3</ele>
        <time>2023-10-04T13:51:04Z</time>
      </trkpt>
      <trkpt lat="50.05467" lon="2.20081">
        <ele>71.3</ele>
        <time>2023-10-04T13:51:05Z</time>
      </trkpt>
      <trkpt lat="50.05467" lon="2.20082">
        <ele>71.3</ele>
        <time>2023-10-04T13:51:06Z</time>
      </trkpt>
      <trkpt lat="50.05467" lon="2.20082">
        <ele>71.3</ele>
        <time>2023-10-04T13:51:07Z</time>
      </trkpt>
      <trkpt lat="50.05467" lon="2.20082">
        <ele>71.3</ele>
        <time>2023-10-04T13:51:08Z</time>
      </trkpt>
      <trkpt lat="50.05467" lon="2.20082">
        <ele>71.3</ele>
        <time>2023-10-04T13:51:09Z</time>
      </trkpt>
      <trkpt lat="50.05467" lon="2.20082">
        <ele>71.3</ele>
        <time>2023-10-04T13:51:10Z</time>
      </trkpt>
      <trkpt lat="50.05467" lon="2.20082">
        <ele>71.3</ele>
        <time>2023-10-04T13:51:11Z</time>
      </trkpt>
      <trkpt lat="50.05467" lon="2.20082">
        <ele>71.3</ele>
        <time>2023-10-04T13:51:12Z</time>
      </trkpt>
      <trkpt lat="50.05467" lon="2.20082">
        <ele>71.3</ele>
        <time>2023-10-04T13:51:13Z</time>
      </trkpt>
      <trkpt lat="50.05467" lon="2.20083">
        <ele>71.3</ele>
        <time>2023-10-04T13:51:14Z</time>
      </trkpt>
      <trkpt lat="50.05467" lon="2.20083">
        <ele>71.3</ele>
        <time>2023-10-04T13:51:15Z</time>
      </trkpt>
      <trkpt lat="50.05467" lon="2.20083">
        <ele>71.3</ele>
        <time>2023-10-04T13:51:16Z</time>
      </trkpt>
      <trkpt lat="50.05467" lon="2.20083">
        <ele>71.3</ele>
        <time>2023-10-04T13:51:17Z</time>
      </trkpt>
      <trkpt lat="50.05467" lon="2.20083">
        <ele>71.3</ele>
        <time>2023-10-04T13:51:18Z</time>
      </trkpt>
      <trkpt lat="50.05466" lon="2.20083">
        <ele>71.3</ele>
        <time>2023-10-04T13:51:19Z</time>
      </trkpt>
      <trkpt lat="50.05466" lon="2.20083">
        <ele>71.3</ele>
        <time>2023-10-04T13:51:20Z</time>
      </trkpt>
      <trkpt lat="50.05466" lon="2.20083">
        <ele>71.3</ele>
        <time>2023-10-04T13:51:21Z</time>
      </trkpt>
      <trkpt lat="50.05466" lon="2.20083">
        <ele>71.3</ele>
        <time>2023-10-04T13:51:22Z</time>
      </trkpt>
      <trkpt lat="50.05466" lon="2.20084">
        <ele>71.3</ele>
        <time>2023-10-04T13:51:23Z</time>
      </trkpt>
      <trkpt lat="50.05466" lon="2.20084">
        <ele>71.3</ele>
        <time>2023-10-04T13:51:24Z</time>
      </trkpt>
      <trkpt lat="50.05466" lon="2.20084">
        <ele>71.3</ele>
        <time>2023-10-04T13:51:25Z</time>
      </trkpt>
      <trkpt lat="50.05466" lon="2.20084">
        <ele>71.3</ele>
        <time>2023-10-04T13:51:26Z</time>
      </trkpt>
      <trkpt lat="50.05466" lon="2.20084">
        <ele>71.3</ele>
        <time>2023-10-04T13:51:27Z</time>
      </trkpt>
      <trkpt lat="50.05466" lon="2.20084">
        <ele>71.3</ele>
        <time>2023-10-04T13:51:28Z</time>
      </trkpt>
      <trkpt lat="50.05466" lon="2.20084">
        <ele>71.3</ele>
        <time>2023-10-04T13:51:29Z</time>
      </trkpt>
      <trkpt lat="50.05466" lon="2.20084">
        <ele>71.3</ele>
        <time>2023-10-04T13:51:30Z</time>
      </trkpt>
      <trkpt lat="50.05466" lon="2.20085">
        <ele>71.3</ele>
        <time>2023-10-04T13:51:31Z</time>
      </trkpt>
      <trkpt lat="50.05466" lon="2.20085">
        <ele>71.3</ele>
        <time>2023-10-04T13:51:32Z</time>
      </trkpt>
      <trkpt lat="50.05466" lon="2.20085">
        <ele>71.3</ele>
        <time>2023-10-04T13:51:33Z</time>
      </trkpt>
      <trkpt lat="50.05466" lon="2.20085">
        <ele>71.3</ele>
        <time>2023-10-04T13:51:34Z</time>
      </trkpt>
      <trkpt lat="50.05466" lon="2.20085">
        <ele>71.3</ele>
        <time>2023-10-04T13:51:35Z</time>
      </trkpt>
      <trkpt lat="50.05466" lon="2.20085">
        <ele>71.3</ele>
        <time>2023-10-04T13:51:36Z</time>
      </trkpt>
      <trkpt lat="50.05466" lon="2.20085">
        <ele>71.3</ele>
        <time>2023-10-04T13:51:37Z</time>
      </trkpt>
      <trkpt lat="50.05466" lon="2.20085">
        <ele>71.3</ele>
        <time>2023-10-04T13:51:38Z</time>
      </trkpt>
      <trkpt lat="50.05466" lon="2.20085">
        <ele>71.3</ele>
        <time>2023-10-04T13:51:39Z</time>
      </trkpt>
      <trkpt lat="50.05466" lon="2.20086">
        <ele>71.3</ele>
        <time>2023-10-04T13:51:40Z</time>
      </trkpt>
      <trkpt lat="50.05466" lon="2.20086">
        <ele>71.3</ele>
        <time>2023-10-04T13:51:41Z</time>
      </trkpt>
      <trkpt lat="50.05466" lon="2.20086">
        <ele>71.3</ele>
        <time>2023-10-04T13:51:42Z</time>
      </trkpt>
      <trkpt lat="50.05466" lon="2.20086">
        <ele>71.3</ele>
        <time>2023-10-04T13:51:43Z</time>
      </trkpt>
      <trkpt lat="50.05466" lon="2.20086">
        <ele>71.3</ele>
        <time>2023-10-04T13:51:44Z</time>
      </trkpt>
      <trkpt lat="50.05466" lon="2.20086">
        <ele>71.3</ele>
        <time>2023-10-04T13:51:45Z</time>
      </trkpt>
      <trkpt lat="50.05465" lon="2.20087">
        <ele>71.3</ele>
        <time>2023-10-04T13:51:46Z</time>
      </trkpt>
      <trkpt lat="50.05464" lon="2.20087">
        <ele>71.3</ele>
        <time>2023-10-04T13:51:47Z</time>
      </trkpt>
      <trkpt lat="50.05464" lon="2.20087">
        <ele>71.3</ele>
        <time>2023-10-04T13:51:48Z</time>
      </trkpt>
      <trkpt lat="50.05464" lon="2.20087">
        <ele>71.3</ele>
        <time>2023-10-04T13:51:49Z</time>
      </trkpt>
      <trkpt lat="50.05464" lon="2.20088">
        <ele>71.3</ele>
        <time>2023-10-04T13:51:50Z</time>
      </trkpt>
      <trkpt lat="50.05464" lon="2.20088">
        <ele>71.3</ele>
        <time>2023-10-04T13:51:51Z</time>
      </trkpt>
      <trkpt lat="50.05464" lon="2.20088">
        <ele>71.3</ele>
        <time>2023-10-04T13:51:52Z</time>
      </trkpt>
      <trkpt lat="50.05464" lon="2.20088">
        <ele>71.3</ele>
        <time>2023-10-04T13:51:53Z</time>
      </trkpt>
      <trkpt lat="50.05464" lon="2.20088">
        <ele>71.3</ele>
        <time>2023-10-04T13:51:54Z</time>
      </trkpt>
      <trkpt lat="50.05464" lon="2.20088">
        <ele>71.3</ele>
        <time>2023-10-04T13:51:55Z</time>
      </trkpt>
      <trkpt lat="50.05464" lon="2.20088">
        <ele>71.3</ele>
        <time>2023-10-04T13:51:56Z</time>
      </trkpt>
      <trkpt lat="50.05464" lon="2.20088">
        <ele>71.3</ele>
        <time>2023-10-04T13:51:57Z</time>
      </trkpt>
      <trkpt lat="50.05464" lon="2.20088">
        <ele>71.3</ele>
        <time>2023-10-04T13:51:58Z</time>
      </trkpt>
      <trkpt lat="50.05464" lon="2.20088">
        <ele>71.3</ele>
        <time>2023-10-04T13:51:59Z</time>
      </trkpt>
      <trkpt lat="50.05464" lon="2.20088">
        <ele>71.3</ele>
        <time>2023-10-04T13:52:00Z</time>
      </trkpt>
      <trkpt lat="50.05464" lon="2.20088">
        <ele>71.3</ele>
        <time>2023-10-04T13:52:01Z</time>
      </trkpt>
      <trkpt lat="50.05464" lon="2.20088">
        <ele>71.3</ele>
        <time>2023-10-04T13:52:02Z</time>
      </trkpt>
      <trkpt lat="50.05464" lon="2.20088">
        <ele>71.3</ele>
        <time>2023-10-04T13:52:03Z</time>
      </trkpt>
      <trkpt lat="50.05464" lon="2.20088">
        <ele>71.3</ele>
        <time>2023-10-04T13:52:04Z</time>
      </trkpt>
      <trkpt lat="50.05464" lon="2.20088">
        <ele>71.3</ele>
        <time>2023-10-04T13:52:05Z</time>
      </trkpt>
      <trkpt lat="50.05464" lon="2.20088">
        <ele>71.3</ele>
        <time>2023-10-04T13:52:06Z</time>
      </trkpt>
      <trkpt lat="50.05464" lon="2.20088">
        <ele>71.3</ele>
        <time>2023-10-04T13:52:07Z</time>
      </trkpt>
      <trkpt lat="50.05464" lon="2.20088">
        <ele>71.3</ele>
        <time>2023-10-04T13:52:08Z</time>
      </trkpt>
      <trkpt lat="50.05464" lon="2.20088">
        <ele>71.3</ele>
        <time>2023-10-04T13:52:09Z</time>
      </trkpt>
      <trkpt lat="50.05464" lon="2.20088">
        <ele>71.3</ele>
        <time>2023-10-04T13:52:10Z</time>
      </trkpt>
      <trkpt lat="50.05464" lon="2.20088">
        <ele>71.3</ele>
        <time>2023-10-04T13:52:11Z</time>
      </trkpt>
      <trkpt lat="50.05464" lon="2.20088">
        <ele>71.3</ele>
        <time>2023-10-04T13:52:12Z</time>
      </trkpt>
      <trkpt lat="50.05464" lon="2.20088">
        <ele>71.3</ele>
        <time>2023-10-04T13:52:13Z</time>
      </trkpt>
      <trkpt lat="50.05464" lon="2.20088">
        <ele>71.3</ele>
        <time>2023-10-04T13:52:14Z</time>
      </trkpt>
      <trkpt lat="50.05464" lon="2.20088">
        <ele>71.3</ele>
        <time>2023-10-04T13:52:15Z</time>
      </trkpt>
      <trkpt lat="50.05464" lon="2.20088">
        <ele>71.3</ele>
        <time>2023-10-04T13:52:16Z</time>
      </trkpt>
      <trkpt lat="50.05464" lon="2.20088">
        <ele>71.3</ele>
        <time>2023-10-04T13:52:17Z</time>
      </trkpt>
      <trkpt lat="50.05464" lon="2.20088">
        <ele>71.3</ele>
        <time>2023-10-04T13:52:18Z</time>
      </trkpt>
      <trkpt lat="50.05464" lon="2.20088">
        <ele>71.3</ele>
        <time>2023-10-04T13:52:19Z</time>
      </trkpt>
      <trkpt lat="50.05464" lon="2.20088">
        <ele>71.3</ele>
        <time>2023-10-04T13:52:20Z</time>
      </trkpt>
      <trkpt lat="50.05464" lon="2.20088">
        <ele>71.3</ele>
        <time>2023-10-04T13:52:21Z</time>
      </trkpt>
      <trkpt lat="50.05464" lon="2.20088">
        <ele>71.3</ele>
        <time>2023-10-04T13:52:22Z</time>
      </trkpt>
      <trkpt lat="50.05464" lon="2.20088">
        <ele>71.3</ele>
        <time>2023-10-04T13:52:23Z</time>
      </trkpt>
      <trkpt lat="50.05464" lon="2.20088">
        <ele>71.3</ele>
        <time>2023-10-04T13:52:24Z</time>
      </trkpt>
      <trkpt lat="50.05464" lon="2.20088">
        <ele>71.3</ele>
        <time>2023-10-04T13:52:25Z</time>
      </trkpt>
      <trkpt lat="50.05464" lon="2.20088">
        <ele>71.3</ele>
        <time>2023-10-04T13:52:26Z</time>
      </trkpt>
      <trkpt lat="50.05464" lon="2.20088">
        <ele>71.3</ele>
        <time>2023-10-04T13:52:27Z</time>
      </trkpt>
      <trkpt lat="50.05464" lon="2.20088">
        <ele>71.3</ele>
        <time>2023-10-04T13:52:28Z</time>
      </trkpt>
      <trkpt lat="50.05464" lon="2.20088">
        <ele>71.3</ele>
        <time>2023-10-04T13:52:29Z</time>
      </trkpt>
      <trkpt lat="50.05464" lon="2.20088">
        <ele>71.3</ele>
        <time>2023-10-04T13:52:30Z</time>
      </trkpt>
      <trkpt lat="50.05464" lon="2.20088">
        <ele>71.3</ele>
        <time>2023-10-04T13:52:31Z</time>
      </trkpt>
      <trkpt lat="50.05464" lon="2.20088">
        <ele>71.3</ele>
        <time>2023-10-04T13:52:32Z</time>
      </trkpt>
      <trkpt lat="50.05464" lon="2.20088">
        <ele>71.3</ele>
        <time>2023-10-04T13:52:33Z</time>
      </trkpt>
      <trkpt lat="50.05464" lon="2.20088">
        <ele>71.3</ele>
        <time>2023-10-04T13:52:34Z</time>
      </trkpt>
      <trkpt lat="50.05464" lon="2.20088">
        <ele>71.3</ele>
        <time>2023-10-04T13:52:35Z</time>
      </trkpt>
      <trkpt lat="50.05464" lon="2.20088">
        <ele>71.3</ele>
        <time>2023-10-04T13:52:36Z</time>
      </trkpt>
      <trkpt lat="50.05464" lon="2.20088">
        <ele>71.3</ele>
        <time>2023-10-04T13:52:37Z</time>
      </trkpt>
      <trkpt lat="50.05464" lon="2.20088">
        <ele>71.3</ele>
        <time>2023-10-04T13:52:38Z</time>
      </trkpt>
      <trkpt lat="50.05464" lon="2.20088">
        <ele>71.3</ele>
        <time>2023-10-04T13:52:39Z</time>
      </trkpt>
      <trkpt lat="50.05464" lon="2.20088">
        <ele>71.3</ele>
        <time>2023-10-04T13:52:40Z</time>
      </trkpt>
      <trkpt lat="50.05464" lon="2.20088">
        <ele>71.3</ele>
        <time>2023-10-04T13:52:41Z</time>
      </trkpt>
      <trkpt lat="50.05464" lon="2.20088">
        <ele>71.3</ele>
        <time>2023-10-04T13:52:42Z</time>
      </trkpt>
      <trkpt lat="50.05464" lon="2.20088">
        <ele>71.3</ele>
        <time>2023-10-04T13:52:43Z</time>
      </trkpt>
      <trkpt lat="50.05464" lon="2.20088">
        <ele>71.3</ele>
        <time>2023-10-04T13:52:44Z</time>
      </trkpt>
      <trkpt lat="50.05464" lon="2.20088">
        <ele>71.3</ele>
        <time>2023-10-04T13:52:45Z</time>
      </trkpt>
      <trkpt lat="50.05464" lon="2.20088">
        <ele>71.3</ele>
        <time>2023-10-04T13:52:46Z</time>
      </trkpt>
      <trkpt lat="50.05464" lon="2.20088">
        <ele>71.3</ele>
        <time>2023-10-04T13:52:47Z</time>
      </trkpt>
      <trkpt lat="50.05464" lon="2.20088">
        <ele>71.3</ele>
        <time>2023-10-04T13:52:48Z</time>
      </trkpt>
      <trkpt lat="50.05464" lon="2.20088">
        <ele>71.3</ele>
        <time>2023-10-04T13:52:49Z</time>
      </trkpt>
      <trkpt lat="50.05464" lon="2.20088">
        <ele>71.3</ele>
        <time>2023-10-04T13:52:50Z</time>
      </trkpt>
      <trkpt lat="50.05464" lon="2.20088">
        <ele>71.3</ele>
        <time>2023-10-04T13:52:51Z</time>
      </trkpt>
      <trkpt lat="50.05464" lon="2.20088">
        <ele>71.3</ele>
        <time>2023-10-04T13:52:52Z</time>
      </trkpt>
      <trkpt lat="50.05464" lon="2.20088">
        <ele>71.3</ele>
        <time>2023-10-04T13:52:53Z</time>
      </trkpt>
      <trkpt lat="50.05464" lon="2.20088">
        <ele>71.3</ele>
        <time>2023-10-04T13:52:54Z</time>
      </trkpt>
      <trkpt lat="50.05464" lon="2.20088">
        <ele>71.3</ele>
        <time>2023-10-04T13:52:55Z</time>
      </trkpt>
      <trkpt lat="50.05464" lon="2.20088">
        <ele>71.3</ele>
        <time>2023-10-04T13:52:56Z</time>
      </trkpt>
      <trkpt lat="50.05464" lon="2.20088">
        <ele>71.3</ele>
        <time>2023-10-04T13:52:57Z</time>
      </trkpt>
      <trkpt lat="50.05464" lon="2.20088">
        <ele>71.3</ele>
        <time>2023-10-04T13:52:58Z</time>
      </trkpt>
      <trkpt lat="50.05464" lon="2.20088">
        <ele>71.3</ele>
        <time>2023-10-04T13:52:59Z</time>
      </trkpt>
      <trkpt lat="50.05464" lon="2.20088">
        <ele>71.3</ele>
        <time>2023-10-04T13:53:00Z</time>
      </trkpt>
      <trkpt lat="50.05464" lon="2.20088">
        <ele>71.3</ele>
        <time>2023-10-04T13:53:01Z</time>
      </trkpt>
      <trkpt lat="50.05464" lon="2.20088">
        <ele>71.3</ele>
        <time>2023-10-04T13:53:02Z</time>
      </trkpt>
      <trkpt lat="50.05464" lon="2.20088">
        <ele>71.3</ele>
        <time>2023-10-04T13:53:03Z</time>
      </trkpt>
      <trkpt lat="50.05464" lon="2.20088">
        <ele>71.3</ele>
        <time>2023-10-04T13:53:04Z</time>
      </trkpt>
      <trkpt lat="50.05464" lon="2.20088">
        <ele>71.3</ele>
        <time>2023-10-04T13:53:05Z</time>
      </trkpt>
      <trkpt lat="50.05464" lon="2.20088">
        <ele>71.3</ele>
        <time>2023-10-04T13:53:06Z</time>
      </trkpt>
      <trkpt lat="50.05464" lon="2.20088">
        <ele>71.3</ele>
        <time>2023-10-04T13:53:07Z</time>
      </trkpt>
      <trkpt lat="50.05464" lon="2.20088">
        <ele>71.3</ele>
        <time>2023-10-04T13:53:08Z</time>
      </trkpt>
      <trkpt lat="50.05464" lon="2.20088">
        <ele>71.3</ele>
        <time>2023-10-04T13:53:09Z</time>
      </trkpt>
      <trkpt lat="50.05464" lon="2.20088">
        <ele>71.3</ele>
        <time>2023-10-04T13:53:10Z</time>
      </trkpt>
      <trkpt lat="50.05464" lon="2.20088">
        <ele>71.3</ele>
        <time>2023-10-04T13:53:11Z</time>
      </trkpt>
      <trkpt lat="50.05464" lon="2.20088">
        <ele>71.3</ele>
        <time>2023-10-04T13:53:12Z</time>
      </trkpt>
      <trkpt lat="50.05464" lon="2.20088">
        <ele>71.3</ele>
        <time>2023-10-04T13:53:13Z</time>
      </trkpt>
      <trkpt lat="50.05464" lon="2.20088">
        <ele>71.3</ele>
        <time>2023-10-04T13:53:14Z</time>
      </trkpt>
      <trkpt lat="50.05464" lon="2.20088">
        <ele>71.3</ele>
        <time>2023-10-04T13:53:15Z</time>
      </trkpt>
      <trkpt lat="50.05464" lon="2.20088">
        <ele>71.3</ele>
        <time>2023-10-04T13:53:16Z</time>
      </trkpt>
      <trkpt lat="50.05464" lon="2.20088">
        <ele>71.3</ele>
        <time>2023-10-04T13:53:17Z</time>
      </trkpt>
      <trkpt lat="50.05464" lon="2.20088">
        <ele>71.3</ele>
        <time>2023-10-04T13:53:18Z</time>
      </trkpt>
      <trkpt lat="50.05464" lon="2.20088">
        <ele>71.3</ele>
        <time>2023-10-04T13:53:19Z</time>
      </trkpt>
      <trkpt lat="50.05464" lon="2.20088">
        <ele>71.3</ele>
        <time>2023-10-04T13:53:20Z</time>
      </trkpt>
      <trkpt lat="50.05464" lon="2.20088">
        <ele>71.3</ele>
        <time>2023-10-04T13:53:21Z</time>
      </trkpt>
      <trkpt lat="50.05464" lon="2.20088">
        <ele>71.3</ele>
        <time>2023-10-04T13:53:22Z</time>
      </trkpt>
      <trkpt lat="50.05464" lon="2.20088">
        <ele>71.3</ele>
        <time>2023-10-04T13:53:23Z</time>
      </trkpt>
      <trkpt lat="50.05464" lon="2.20088">
        <ele>71.3</ele>
        <time>2023-10-04T13:53:24Z</time>
      </trkpt>
      <trkpt lat="50.05464" lon="2.20088">
        <ele>71.3</ele>
        <time>2023-10-04T13:53:25Z</time>
      </trkpt>
      <trkpt lat="50.05464" lon="2.20088">
        <ele>71.3</ele>
        <time>2023-10-04T13:53:26Z</time>
      </trkpt>
      <trkpt lat="50.05464" lon="2.20088">
        <ele>71.3</ele>
        <time>2023-10-04T13:53:27Z</time>
      </trkpt>
      <trkpt lat="50.05464" lon="2.20088">
        <ele>71.3</ele>
        <time>2023-10-04T13:53:28Z</time>
      </trkpt>
      <trkpt lat="50.05464" lon="2.20088">
        <ele>71.3</ele>
        <time>2023-10-04T13:53:29Z</time>
      </trkpt>
      <trkpt lat="50.05464" lon="2.20088">
        <ele>71.3</ele>
        <time>2023-10-04T13:53:30Z</time>
      </trkpt>
      <trkpt lat="50.05464" lon="2.20088">
        <ele>71.3</ele>
        <time>2023-10-04T13:53:31Z</time>
      </trkpt>
      <trkpt lat="50.05464" lon="2.20088">
        <ele>71.3</ele>
        <time>2023-10-04T13:53:32Z</time>
      </trkpt>
      <trkpt lat="50.05464" lon="2.20088">
        <ele>71.3</ele>
        <time>2023-10-04T13:53:33Z</time>
      </trkpt>
      <trkpt lat="50.05464" lon="2.20088">
        <ele>71.3</ele>
        <time>2023-10-04T13:53:34Z</time>
      </trkpt>
      <trkpt lat="50.05464" lon="2.20088">
        <ele>71.3</ele>
        <time>2023-10-04T13:53:35Z</time>
      </trkpt>
      <trkpt lat="50.05464" lon="2.20088">
        <ele>71.3</ele>
        <time>2023-10-04T13:53:36Z</time>
      </trkpt>
      <trkpt lat="50.05464" lon="2.20088">
        <ele>71.3</ele>
        <time>2023-10-04T13:53:37Z</time>
      </trkpt>
      <trkpt lat="50.05464" lon="2.20088">
        <ele>71.3</ele>
        <time>2023-10-04T13:53:38Z</time>
      </trkpt>
      <trkpt lat="50.05464" lon="2.20088">
        <ele>71.3</ele>
        <time>2023-10-04T13:53:39Z</time>
      </trkpt>
      <trkpt lat="50.05464" lon="2.20088">
        <ele>71.3</ele>
        <time>2023-10-04T13:53:40Z</time>
      </trkpt>
      <trkpt lat="50.05464" lon="2.20088">
        <ele>71.3</ele>
        <time>2023-10-04T13:53:41Z</time>
      </trkpt>
      <trkpt lat="50.05464" lon="2.20088">
        <ele>71.3</ele>
        <time>2023-10-04T13:53:42Z</time>
      </trkpt>
      <trkpt lat="50.05464" lon="2.20088">
        <ele>71.3</ele>
        <time>2023-10-04T13:53:43Z</time>
      </trkpt>
      <trkpt lat="50.05464" lon="2.20088">
        <ele>71.3</ele>
        <time>2023-10-04T13:53:44Z</time>
      </trkpt>
      <trkpt lat="50.05464" lon="2.20088">
        <ele>71.3</ele>
        <time>2023-10-04T13:53:45Z</time>
      </trkpt>
      <trkpt lat="50.05464" lon="2.20088">
        <ele>71.3</ele>
        <time>2023-10-04T13:53:46Z</time>
      </trkpt>
      <trkpt lat="50.05464" lon="2.20088">
        <ele>71.3</ele>
        <time>2023-10-04T13:53:47Z</time>
      </trkpt>
      <trkpt lat="50.05464" lon="2.20088">
        <ele>71.3</ele>
        <time>2023-10-04T13:53:48Z</time>
      </trkpt>
      <trkpt lat="50.05464" lon="2.20088">
        <ele>71.3</ele>
        <time>2023-10-04T13:53:49Z</time>
      </trkpt>
      <trkpt lat="50.05464" lon="2.20088">
        <ele>71.3</ele>
        <time>2023-10-04T13:53:50Z</time>
      </trkpt>
      <trkpt lat="50.05464" lon="2.20088">
        <ele>71.3</ele>
        <time>2023-10-04T13:53:51Z</time>
      </trkpt>
      <trkpt lat="50.05464" lon="2.20088">
        <ele>71.3</ele>
        <time>2023-10-04T13:53:52Z</time>
      </trkpt>
      <trkpt lat="50.05464" lon="2.20088">
        <ele>71.3</ele>
        <time>2023-10-04T13:53:53Z</time>
      </trkpt>
      <trkpt lat="50.05464" lon="2.20088">
        <ele>71.3</ele>
        <time>2023-10-04T13:53:54Z</time>
      </trkpt>
      <trkpt lat="50.05464" lon="2.20088">
        <ele>71.3</ele>
        <time>2023-10-04T13:53:55Z</time>
      </trkpt>
      <trkpt lat="50.05464" lon="2.20088">
        <ele>71.3</ele>
        <time>2023-10-04T13:53:56Z</time>
      </trkpt>
      <trkpt lat="50.05464" lon="2.20088">
        <ele>71.3</ele>
        <time>2023-10-04T13:53:57Z</time>
      </trkpt>
      <trkpt lat="50.05464" lon="2.20088">
        <ele>71.3</ele>
        <time>2023-10-04T13:53:58Z</time>
      </trkpt>
      <trkpt lat="50.05464" lon="2.20088">
        <ele>71.3</ele>
        <time>2023-10-04T13:53:59Z</time>
      </trkpt>
      <trkpt lat="50.05464" lon="2.20088">
        <ele>71.3</ele>
        <time>2023-10-04T13:54:00Z</time>
      </trkpt>
      <trkpt lat="50.05464" lon="2.20088">
        <ele>71.3</ele>
        <time>2023-10-04T13:54:01Z</time>
      </trkpt>
      <trkpt lat="50.05464" lon="2.20088">
        <ele>71.3</ele>
        <time>2023-10-04T13:54:02Z</time>
      </trkpt>
      <trkpt lat="50.05464" lon="2.20088">
        <ele>71.3</ele>
        <time>2023-10-04T13:54:03Z</time>
      </trkpt>
      <trkpt lat="50.05464" lon="2.20088">
        <ele>71.3</ele>
        <time>2023-10-04T13:54:04Z</time>
      </trkpt>
      <trkpt lat="50.05464" lon="2.20088">
        <ele>71.3</ele>
        <time>2023-10-04T13:54:05Z</time>
      </trkpt>
      <trkpt lat="50.05464" lon="2.20088">
        <ele>71.3</ele>
        <time>2023-10-04T13:54:06Z</time>
      </trkpt>
      <trkpt lat="50.05464" lon="2.20088">
        <ele>71.3</ele>
        <time>2023-10-04T13:54:07Z</time>
      </trkpt>
      <trkpt lat="50.05464" lon="2.20088">
        <ele>71.3</ele>
        <time>2023-10-04T13:54:08Z</time>
      </trkpt>
      <trkpt lat="50.05464" lon="2.20088">
        <ele>71.3</ele>
        <time>2023-10-04T13:54:09Z</time>
      </trkpt>
      <trkpt lat="50.05464" lon="2.20088">
        <ele>71.3</ele>
        <time>2023-10-04T13:54:10Z</time>
      </trkpt>
      <trkpt lat="50.05464" lon="2.20088">
        <ele>71.3</ele>
        <time>2023-10-04T13:54:11Z</time>
      </trkpt>
      <trkpt lat="50.05464" lon="2.20088">
        <ele>71.3</ele>
        <time>2023-10-04T13:54:12Z</time>
      </trkpt>
      <trkpt lat="50.05464" lon="2.20088">
        <ele>71.3</ele>
        <time>2023-10-04T13:54:13Z</time>
      </trkpt>
      <trkpt lat="50.05464" lon="2.20088">
        <ele>71.3</ele>
        <time>2023-10-04T13:54:14Z</time>
      </trkpt>
      <trkpt lat="50.05464" lon="2.20088">
        <ele>71.3</ele>
        <time>2023-10-04T13:54:15Z</time>
      </trkpt>
      <trkpt lat="50.05464" lon="2.20088">
        <ele>71.3</ele>
        <time>2023-10-04T13:54:16Z</time>
      </trkpt>
      <trkpt lat="50.05464" lon="2.20088">
        <ele>71.3</ele>
        <time>2023-10-04T13:54:17Z</time>
      </trkpt>
      <trkpt lat="50.05464" lon="2.20088">
        <ele>71.3</ele>
        <time>2023-10-04T13:54:18Z</time>
      </trkpt>
      <trkpt lat="50.05464" lon="2.20088">
        <ele>71.3</ele>
        <time>2023-10-04T13:54:19Z</time>
      </trkpt>
      <trkpt lat="50.05464" lon="2.20088">
        <ele>71.3</ele>
        <time>2023-10-04T13:54:20Z</time>
      </trkpt>
      <trkpt lat="50.05464" lon="2.20088">
        <ele>71.3</ele>
        <time>2023-10-04T13:54:21Z</time>
      </trkpt>
      <trkpt lat="50.05464" lon="2.20088">
        <ele>71.3</ele>
        <time>2023-10-04T13:54:22Z</time>
      </trkpt>
      <trkpt lat="50.05464" lon="2.20088">
        <ele>71.3</ele>
        <time>2023-10-04T13:54:23Z</time>
      </trkpt>
      <trkpt lat="50.05464" lon="2.20088">
        <ele>71.3</ele>
        <time>2023-10-04T13:54:24Z</time>
      </trkpt>
      <trkpt lat="50.05464" lon="2.20088">
        <ele>71.3</ele>
        <time>2023-10-04T13:54:25Z</time>
      </trkpt>
      <trkpt lat="50.05464" lon="2.20088">
        <ele>71.3</ele>
        <time>2023-10-04T13:54:26Z</time>
      </trkpt>
      <trkpt lat="50.05464" lon="2.20088">
        <ele>71.3</ele>
        <time>2023-10-04T13:54:27Z</time>
      </trkpt>
      <trkpt lat="50.05464" lon="2.20088">
        <ele>71.3</ele>
        <time>2023-10-04T13:54:28Z</time>
      </trkpt>
      <trkpt lat="50.05464" lon="2.20088">
        <ele>71.3</ele>
        <time>2023-10-04T13:54:29Z</time>
      </trkpt>
      <trkpt lat="50.05464" lon="2.20088">
        <ele>71.3</ele>
        <time>2023-10-04T13:54:30Z</time>
      </trkpt>
      <trkpt lat="50.05464" lon="2.20088">
        <ele>71.3</ele>
        <time>2023-10-04T13:54:31Z</time>
      </trkpt>
      <trkpt lat="50.05464" lon="2.20088">
        <ele>71.3</ele>
        <time>2023-10-04T13:54:32Z</time>
      </trkpt>
      <trkpt lat="50.05464" lon="2.20088">
        <ele>71.3</ele>
        <time>2023-10-04T13:54:33Z</time>
      </trkpt>
      <trkpt lat="50.05464" lon="2.20088">
        <ele>71.3</ele>
        <time>2023-10-04T13:54:34Z</time>
      </trkpt>
      <trkpt lat="50.05464" lon="2.20088">
        <ele>71.3</ele>
        <time>2023-10-04T13:54:35Z</time>
      </trkpt>
      <trkpt lat="50.05464" lon="2.20088">
        <ele>71.3</ele>
        <time>2023-10-04T13:54:36Z</time>
      </trkpt>
      <trkpt lat="50.05464" lon="2.20088">
        <ele>71.3</ele>
        <time>2023-10-04T13:54:37Z</time>
      </trkpt>
      <trkpt lat="50.05465" lon="2.20088">
        <ele>71.3</ele>
        <time>2023-10-04T13:54:38Z</time>
      </trkpt>
      <trkpt lat="50.05465" lon="2.20088">
        <ele>71.3</ele>
        <time>2023-10-04T13:54:39Z</time>
      </trkpt>
      <trkpt lat="50.05465" lon="2.20087">
        <ele>71.3</ele>
        <time>2023-10-04T13:54:40Z</time>
      </trkpt>
      <trkpt lat="50.05465" lon="2.20087">
        <ele>71.3</ele>
        <time>2023-10-04T13:54:41Z</time>
      </trkpt>
      <trkpt lat="50.05465" lon="2.20086">
        <ele>71.3</ele>
        <time>2023-10-04T13:54:42Z</time>
      </trkpt>
      <trkpt lat="50.05465" lon="2.20084">
        <ele>71.2</ele>
        <time>2023-10-04T13:54:43Z</time>
      </trkpt>
      <trkpt lat="50.05465" lon="2.20082">
        <ele>71.2</ele>
        <time>2023-10-04T13:54:44Z</time>
      </trkpt>
      <trkpt lat="50.05465" lon="2.2008">
        <ele>71.2</ele>
        <time>2023-10-04T13:54:45Z</time>
      </trkpt>
      <trkpt lat="50.05464" lon="2.20079">
        <ele>71.2</ele>
        <time>2023-10-04T13:54:46Z</time>
      </trkpt>
      <trkpt lat="50.05465" lon="2.20078">
        <ele>71.2</ele>
        <time>2023-10-04T13:54:47Z</time>
      </trkpt>
      <trkpt lat="50.05465" lon="2.20077">
        <ele>71.2</ele>
        <time>2023-10-04T13:54:48Z</time>
      </trkpt>
      <trkpt lat="50.05465" lon="2.20076">
        <ele>71.3</ele>
        <time>2023-10-04T13:54:49Z</time>
      </trkpt>
      <trkpt lat="50.05465" lon="2.20075">
        <ele>71.3</ele>
        <time>2023-10-04T13:54:50Z</time>
      </trkpt>
      <trkpt lat="50.05465" lon="2.20073">
        <ele>71.3</ele>
        <time>2023-10-04T13:54:51Z</time>
      </trkpt>
      <trkpt lat="50.05465" lon="2.20072">
        <ele>71.4</ele>
        <time>2023-10-04T13:54:52Z</time>
      </trkpt>
      <trkpt lat="50.05465" lon="2.2007">
        <ele>71.4</ele>
        <time>2023-10-04T13:54:53Z</time>
      </trkpt>
      <trkpt lat="50.05465" lon="2.20069">
        <ele>71.4</ele>
        <time>2023-10-04T13:54:54Z</time>
      </trkpt>
      <trkpt lat="50.05465" lon="2.20067">
        <ele>71.5</ele>
        <time>2023-10-04T13:54:55Z</time>
      </trkpt>
      <trkpt lat="50.05466" lon="2.20066">
        <ele>71.5</ele>
        <time>2023-10-04T13:54:56Z</time>
      </trkpt>
      <trkpt lat="50.05466" lon="2.20064">
        <ele>71.6</ele>
        <time>2023-10-04T13:54:57Z</time>
      </trkpt>
      <trkpt lat="50.05466" lon="2.20063">
        <ele>71.6</ele>
        <time>2023-10-04T13:54:58Z</time>
      </trkpt>
      <trkpt lat="50.05466" lon="2.20062">
        <ele>71.7</ele>
        <time>2023-10-04T13:54:59Z</time>
      </trkpt>
      <trkpt lat="50.05466" lon="2.20061">
        <ele>71.7</ele>
        <time>2023-10-04T13:55:00Z</time>
      </trkpt>
      <trkpt lat="50.05466" lon="2.20059">
        <ele>71.7</ele>
        <time>2023-10-04T13:55:01Z</time>
      </trkpt>
      <trkpt lat="50.05466" lon="2.20058">
        <ele>71.8</ele>
        <time>2023-10-04T13:55:02Z</time>
      </trkpt>
      <trkpt lat="50.05466" lon="2.20057">
        <ele>71.8</ele>
        <time>2023-10-04T13:55:03Z</time>
      </trkpt>
      <trkpt lat="50.05466" lon="2.20056">
        <ele>71.8</ele>
        <time>2023-10-04T13:55:04Z</time>
      </trkpt>
      <trkpt lat="50.05466" lon="2.20055">
        <ele>71.9</ele>
        <time>2023-10-04T13:55:05Z</time>
      </trkpt>
      <trkpt lat="50.05465" lon="2.20054">
        <ele>71.9</ele>
        <time>2023-10-04T13:55:06Z</time>
      </trkpt>
      <trkpt lat="50.05465" lon="2.20053">
        <ele>71.9</ele>
        <time>2023-10-04T13:55:07Z</time>
      </trkpt>
      <trkpt lat="50.05465" lon="2.20051">
        <ele>72</ele>
        <time>2023-10-04T13:55:08Z</time>
      </trkpt>
      <trkpt lat="50.05465" lon="2.2005">
        <ele>72</ele>
        <time>2023-10-04T13:55:09Z</time>
      </trkpt>
      <trkpt lat="50.05464" lon="2.20049">
        <ele>72.1</ele>
        <time>2023-10-04T13:55:10Z</time>
      </trkpt>
      <trkpt lat="50.05464" lon="2.20048">
        <ele>72.1</ele>
        <time>2023-10-04T13:55:11Z</time>
      </trkpt>
      <trkpt lat="50.05464" lon="2.20046">
        <ele>72.2</ele>
        <time>2023-10-04T13:55:12Z</time>
      </trkpt>
      <trkpt lat="50.05463" lon="2.20044">
        <ele>72.2</ele>
        <time>2023-10-04T13:55:13Z</time>
      </trkpt>
      <trkpt lat="50.05463" lon="2.2004">
        <ele>72.3</ele>
        <time>2023-10-04T13:55:14Z</time>
      </trkpt>
      <trkpt lat="50.05463" lon="2.20039">
        <ele>72.4</ele>
        <time>2023-10-04T13:55:15Z</time>
      </trkpt>
      <trkpt lat="50.05462" lon="2.20038">
        <ele>72.4</ele>
        <time>2023-10-04T13:55:16Z</time>
      </trkpt>
      <trkpt lat="50.05462" lon="2.20036">
        <ele>72.5</ele>
        <time>2023-10-04T13:55:17Z</time>
      </trkpt>
      <trkpt lat="50.05462" lon="2.20034">
        <ele>72.5</ele>
        <time>2023-10-04T13:55:18Z</time>
      </trkpt>
      <trkpt lat="50.05461" lon="2.20032">
        <ele>72.6</ele>
        <time>2023-10-04T13:55:19Z</time>
      </trkpt>
      <trkpt lat="50.05461" lon="2.20031">
        <ele>72.6</ele>
        <time>2023-10-04T13:55:20Z</time>
      </trkpt>
      <trkpt lat="50.05461" lon="2.20029">
        <ele>72.7</ele>
        <time>2023-10-04T13:55:21Z</time>
      </trkpt>
      <trkpt lat="50.05461" lon="2.20028">
        <ele>72.7</ele>
        <time>2023-10-04T13:55:22Z</time>
      </trkpt>
      <trkpt lat="50.05461" lon="2.20026">
        <ele>72.8</ele>
        <time>2023-10-04T13:55:23Z</time>
      </trkpt>
      <trkpt lat="50.05461" lon="2.20025">
        <ele>72.8</ele>
        <time>2023-10-04T13:55:24Z</time>
      </trkpt>
      <trkpt lat="50.05461" lon="2.20023">
        <ele>72.8</ele>
        <time>2023-10-04T13:55:25Z</time>
      </trkpt>
      <trkpt lat="50.05461" lon="2.20022">
        <ele>72.9</ele>
        <time>2023-10-04T13:55:26Z</time>
      </trkpt>
      <trkpt lat="50.05461" lon="2.2002">
        <ele>72.9</ele>
        <time>2023-10-04T13:55:27Z</time>
      </trkpt>
      <trkpt lat="50.05461" lon="2.20019">
        <ele>72.9</ele>
        <time>2023-10-04T13:55:28Z</time>
      </trkpt>
      <trkpt lat="50.05461" lon="2.20018">
        <ele>73</ele>
        <time>2023-10-04T13:55:29Z</time>
      </trkpt>
      <trkpt lat="50.05461" lon="2.20016">
        <ele>73</ele>
        <time>2023-10-04T13:55:30Z</time>
      </trkpt>
      <trkpt lat="50.05461" lon="2.20015">
        <ele>73</ele>
        <time>2023-10-04T13:55:31Z</time>
      </trkpt>
      <trkpt lat="50.0546" lon="2.20015">
        <ele>73.1</ele>
        <time>2023-10-04T13:55:32Z</time>
      </trkpt>
      <trkpt lat="50.0546" lon="2.20014">
        <ele>73</ele>
        <time>2023-10-04T13:55:33Z</time>
      </trkpt>
      <trkpt lat="50.0546" lon="2.20013">
        <ele>73</ele>
        <time>2023-10-04T13:55:34Z</time>
      </trkpt>
      <trkpt lat="50.05459" lon="2.20011">
        <ele>73</ele>
        <time>2023-10-04T13:55:35Z</time>
      </trkpt>
      <trkpt lat="50.05459" lon="2.20011">
        <ele>73</ele>
        <time>2023-10-04T13:55:36Z</time>
      </trkpt>
      <trkpt lat="50.05459" lon="2.20009">
        <ele>73</ele>
        <time>2023-10-04T13:55:37Z</time>
      </trkpt>
      <trkpt lat="50.05459" lon="2.20008">
        <ele>72.9</ele>
        <time>2023-10-04T13:55:38Z</time>
      </trkpt>
      <trkpt lat="50.05458" lon="2.20007">
        <ele>72.9</ele>
        <time>2023-10-04T13:55:39Z</time>
      </trkpt>
      <trkpt lat="50.05458" lon="2.20007">
        <ele>72.9</ele>
        <time>2023-10-04T13:55:40Z</time>
      </trkpt>
      <trkpt lat="50.05458" lon="2.20006">
        <ele>72.9</ele>
        <time>2023-10-04T13:55:41Z</time>
      </trkpt>
      <trkpt lat="50.05458" lon="2.20005">
        <ele>72.9</ele>
        <time>2023-10-04T13:55:42Z</time>
      </trkpt>
      <trkpt lat="50.05458" lon="2.20004">
        <ele>72.8</ele>
        <time>2023-10-04T13:55:43Z</time>
      </trkpt>
      <trkpt lat="50.05457" lon="2.20003">
        <ele>72.8</ele>
        <time>2023-10-04T13:55:44Z</time>
      </trkpt>
      <trkpt lat="50.05457" lon="2.20002">
        <ele>72.8</ele>
        <time>2023-10-04T13:55:45Z</time>
      </trkpt>
      <trkpt lat="50.05457" lon="2.20001">
        <ele>72.8</ele>
        <time>2023-10-04T13:55:46Z</time>
      </trkpt>
      <trkpt lat="50.05457" lon="2.19999">
        <ele>72.8</ele>
        <time>2023-10-04T13:55:47Z</time>
      </trkpt>
      <trkpt lat="50.05457" lon="2.19998">
        <ele>72.7</ele>
        <time>2023-10-04T13:55:48Z</time>
      </trkpt>
      <trkpt lat="50.05456" lon="2.19997">
        <ele>72.7</ele>
        <time>2023-10-04T13:55:49Z</time>
      </trkpt>
      <trkpt lat="50.05456" lon="2.19996">
        <ele>72.7</ele>
        <time>2023-10-04T13:55:50Z</time>
      </trkpt>
      <trkpt lat="50.05456" lon="2.19994">
        <ele>72.7</ele>
        <time>2023-10-04T13:55:51Z</time>
      </trkpt>
      <trkpt lat="50.05455" lon="2.19993">
        <ele>72.6</ele>
        <time>2023-10-04T13:55:52Z</time>
      </trkpt>
      <trkpt lat="50.05455" lon="2.19992">
        <ele>72.6</ele>
        <time>2023-10-04T13:55:53Z</time>
      </trkpt>
      <trkpt lat="50.05455" lon="2.19991">
        <ele>72.6</ele>
        <time>2023-10-04T13:55:54Z</time>
      </trkpt>
      <trkpt lat="50.05454" lon="2.1999">
        <ele>72.6</ele>
        <time>2023-10-04T13:55:55Z</time>
      </trkpt>
      <trkpt lat="50.05454" lon="2.19989">
        <ele>72.6</ele>
        <time>2023-10-04T13:55:56Z</time>
      </trkpt>
      <trkpt lat="50.05454" lon="2.19988">
        <ele>72.6</ele>
        <time>2023-10-04T13:55:57Z</time>
      </trkpt>
      <trkpt lat="50.05453" lon="2.19987">
        <ele>72.6</ele>
        <time>2023-10-04T13:55:58Z</time>
      </trkpt>
      <trkpt lat="50.05453" lon="2.19985">
        <ele>72.6</ele>
        <time>2023-10-04T13:55:59Z</time>
      </trkpt>
      <trkpt lat="50.05452" lon="2.19984">
        <ele>72.5</ele>
        <time>2023-10-04T13:56:00Z</time>
      </trkpt>
      <trkpt lat="50.05452" lon="2.19983">
        <ele>72.5</ele>
        <time>2023-10-04T13:56:01Z</time>
      </trkpt>
      <trkpt lat="50.05451" lon="2.1998">
        <ele>72.5</ele>
        <time>2023-10-04T13:56:02Z</time>
      </trkpt>
      <trkpt lat="50.05451" lon="2.19979">
        <ele>72.5</ele>
        <time>2023-10-04T13:56:03Z</time>
      </trkpt>
      <trkpt lat="50.05451" lon="2.19977">
        <ele>72.5</ele>
        <time>2023-10-04T13:56:04Z</time>
      </trkpt>
      <trkpt lat="50.0545" lon="2.19975">
        <ele>72.5</ele>
        <time>2023-10-04T13:56:05Z</time>
      </trkpt>
      <trkpt lat="50.0545" lon="2.19973">
        <ele>72.5</ele>
        <time>2023-10-04T13:56:06Z</time>
      </trkpt>
      <trkpt lat="50.05449" lon="2.19971">
        <ele>72.5</ele>
        <time>2023-10-04T13:56:07Z</time>
      </trkpt>
      <trkpt lat="50.05449" lon="2.1997">
        <ele>72.4</ele>
        <time>2023-10-04T13:56:08Z</time>
      </trkpt>
      <trkpt lat="50.05449" lon="2.19969">
        <ele>72.4</ele>
        <time>2023-10-04T13:56:09Z</time>
      </trkpt>
      <trkpt lat="50.05448" lon="2.19967">
        <ele>72.4</ele>
        <time>2023-10-04T13:56:10Z</time>
      </trkpt>
      <trkpt lat="50.05448" lon="2.19966">
        <ele>72.4</ele>
        <time>2023-10-04T13:56:11Z</time>
      </trkpt>
      <trkpt lat="50.05448" lon="2.19964">
        <ele>72.4</ele>
        <time>2023-10-04T13:56:12Z</time>
      </trkpt>
      <trkpt lat="50.05448" lon="2.19963">
        <ele>72.4</ele>
        <time>2023-10-04T13:56:13Z</time>
      </trkpt>
      <trkpt lat="50.05447" lon="2.19961">
        <ele>72.4</ele>
        <time>2023-10-04T13:56:14Z</time>
      </trkpt>
      <trkpt lat="50.05447" lon="2.1996">
        <ele>72.4</ele>
        <time>2023-10-04T13:56:15Z</time>
      </trkpt>
      <trkpt lat="50.05447" lon="2.19959">
        <ele>72.4</ele>
        <time>2023-10-04T13:56:16Z</time>
      </trkpt>
      <trkpt lat="50.05447" lon="2.19957">
        <ele>72.4</ele>
        <time>2023-10-04T13:56:17Z</time>
      </trkpt>
      <trkpt lat="50.05446" lon="2.19956">
        <ele>72.4</ele>
        <time>2023-10-04T13:56:18Z</time>
      </trkpt>
      <trkpt lat="50.05446" lon="2.19954">
        <ele>72.4</ele>
        <time>2023-10-04T13:56:19Z</time>
      </trkpt>
      <trkpt lat="50.05446" lon="2.19952">
        <ele>72.4</ele>
        <time>2023-10-04T13:56:20Z</time>
      </trkpt>
      <trkpt lat="50.05446" lon="2.19951">
        <ele>72.4</ele>
        <time>2023-10-04T13:56:21Z</time>
      </trkpt>
      <trkpt lat="50.05445" lon="2.19949">
        <ele>72.4</ele>
        <time>2023-10-04T13:56:22Z</time>
      </trkpt>
      <trkpt lat="50.05445" lon="2.19947">
        <ele>72.4</ele>
        <time>2023-10-04T13:56:23Z</time>
      </trkpt>
      <trkpt lat="50.05445" lon="2.19946">
        <ele>72.4</ele>
        <time>2023-10-04T13:56:24Z</time>
      </trkpt>
      <trkpt lat="50.05445" lon="2.19944">
        <ele>72.4</ele>
        <time>2023-10-04T13:56:25Z</time>
      </trkpt>
      <trkpt lat="50.05444" lon="2.19942">
        <ele>72.4</ele>
        <time>2023-10-04T13:56:26Z</time>
      </trkpt>
      <trkpt lat="50.05444" lon="2.19941">
        <ele>72.4</ele>
        <time>2023-10-04T13:56:27Z</time>
      </trkpt>
      <trkpt lat="50.05444" lon="2.19939">
        <ele>72.4</ele>
        <time>2023-10-04T13:56:28Z</time>
      </trkpt>
      <trkpt lat="50.05443" lon="2.19937">
        <ele>72.4</ele>
        <time>2023-10-04T13:56:29Z</time>
      </trkpt>
      <trkpt lat="50.05443" lon="2.19936">
        <ele>72.5</ele>
        <time>2023-10-04T13:56:30Z</time>
      </trkpt>
      <trkpt lat="50.05442" lon="2.19934">
        <ele>72.5</ele>
        <time>2023-10-04T13:56:31Z</time>
      </trkpt>
      <trkpt lat="50.05442" lon="2.19932">
        <ele>72.5</ele>
        <time>2023-10-04T13:56:32Z</time>
      </trkpt>
      <trkpt lat="50.05442" lon="2.19931">
        <ele>72.5</ele>
        <time>2023-10-04T13:56:33Z</time>
      </trkpt>
      <trkpt lat="50.05442" lon="2.1993">
        <ele>72.5</ele>
        <time>2023-10-04T13:56:34Z</time>
      </trkpt>
      <trkpt lat="50.05442" lon="2.19928">
        <ele>72.5</ele>
        <time>2023-10-04T13:56:35Z</time>
      </trkpt>
      <trkpt lat="50.05441" lon="2.19926">
        <ele>72.5</ele>
        <time>2023-10-04T13:56:36Z</time>
      </trkpt>
      <trkpt lat="50.05441" lon="2.19925">
        <ele>72.5</ele>
        <time>2023-10-04T13:56:37Z</time>
      </trkpt>
      <trkpt lat="50.05441" lon="2.19923">
        <ele>72.5</ele>
        <time>2023-10-04T13:56:38Z</time>
      </trkpt>
      <trkpt lat="50.05441" lon="2.19922">
        <ele>72.5</ele>
        <time>2023-10-04T13:56:39Z</time>
      </trkpt>
      <trkpt lat="50.05441" lon="2.1992">
        <ele>72.5</ele>
        <time>2023-10-04T13:56:40Z</time>
      </trkpt>
      <trkpt lat="50.05441" lon="2.19919">
        <ele>72.5</ele>
        <time>2023-10-04T13:56:41Z</time>
      </trkpt>
      <trkpt lat="50.05441" lon="2.19917">
        <ele>72.5</ele>
        <time>2023-10-04T13:56:42Z</time>
      </trkpt>
      <trkpt lat="50.05441" lon="2.19916">
        <ele>72.6</ele>
        <time>2023-10-04T13:56:43Z</time>
      </trkpt>
      <trkpt lat="50.05441" lon="2.19914">
        <ele>72.6</ele>
        <time>2023-10-04T13:56:44Z</time>
      </trkpt>
      <trkpt lat="50.05441" lon="2.19912">
        <ele>72.6</ele>
        <time>2023-10-04T13:56:45Z</time>
      </trkpt>
      <trkpt lat="50.05441" lon="2.1991">
        <ele>72.6</ele>
        <time>2023-10-04T13:56:46Z</time>
      </trkpt>
      <trkpt lat="50.05441" lon="2.19909">
        <ele>72.6</ele>
        <time>2023-10-04T13:56:47Z</time>
      </trkpt>
      <trkpt lat="50.0544" lon="2.19907">
        <ele>72.6</ele>
        <time>2023-10-04T13:56:48Z</time>
      </trkpt>
      <trkpt lat="50.0544" lon="2.19905">
        <ele>72.6</ele>
        <time>2023-10-04T13:56:49Z</time>
      </trkpt>
      <trkpt lat="50.0544" lon="2.19904">
        <ele>72.6</ele>
        <time>2023-10-04T13:56:50Z</time>
      </trkpt>
      <trkpt lat="50.0544" lon="2.19902">
        <ele>72.6</ele>
        <time>2023-10-04T13:56:51Z</time>
      </trkpt>
      <trkpt lat="50.0544" lon="2.199">
        <ele>72.6</ele>
        <time>2023-10-04T13:56:52Z</time>
      </trkpt>
      <trkpt lat="50.0544" lon="2.19898">
        <ele>72.6</ele>
        <time>2023-10-04T13:56:53Z</time>
      </trkpt>
      <trkpt lat="50.0544" lon="2.19897">
        <ele>72.6</ele>
        <time>2023-10-04T13:56:54Z</time>
      </trkpt>
      <trkpt lat="50.05441" lon="2.19895">
        <ele>72.7</ele>
        <time>2023-10-04T13:56:55Z</time>
      </trkpt>
      <trkpt lat="50.05441" lon="2.19894">
        <ele>72.7</ele>
        <time>2023-10-04T13:56:56Z</time>
      </trkpt>
      <trkpt lat="50.05441" lon="2.19892">
        <ele>72.7</ele>
        <time>2023-10-04T13:56:57Z</time>
      </trkpt>
      <trkpt lat="50.05441" lon="2.1989">
        <ele>72.7</ele>
        <time>2023-10-04T13:56:58Z</time>
      </trkpt>
      <trkpt lat="50.05441" lon="2.19889">
        <ele>72.7</ele>
        <time>2023-10-04T13:56:59Z</time>
      </trkpt>
      <trkpt lat="50.05441" lon="2.19887">
        <ele>72.7</ele>
        <time>2023-10-04T13:57:00Z</time>
      </trkpt>
      <trkpt lat="50.05441" lon="2.19885">
        <ele>72.7</ele>
        <time>2023-10-04T13:57:01Z</time>
      </trkpt>
      <trkpt lat="50.05441" lon="2.19883">
        <ele>72.7</ele>
        <time>2023-10-04T13:57:02Z</time>
      </trkpt>
      <trkpt lat="50.05441" lon="2.19882">
        <ele>72.7</ele>
        <time>2023-10-04T13:57:03Z</time>
      </trkpt>
      <trkpt lat="50.05441" lon="2.1988">
        <ele>72.7</ele>
        <time>2023-10-04T13:57:04Z</time>
      </trkpt>
      <trkpt lat="50.05441" lon="2.19879">
        <ele>72.7</ele>
        <time>2023-10-04T13:57:05Z</time>
      </trkpt>
      <trkpt lat="50.05441" lon="2.19877">
        <ele>72.7</ele>
        <time>2023-10-04T13:57:06Z</time>
      </trkpt>
      <trkpt lat="50.05441" lon="2.19875">
        <ele>72.7</ele>
        <time>2023-10-04T13:57:07Z</time>
      </trkpt>
      <trkpt lat="50.05441" lon="2.19874">
        <ele>72.7</ele>
        <time>2023-10-04T13:57:08Z</time>
      </trkpt>
      <trkpt lat="50.05441" lon="2.19872">
        <ele>72.8</ele>
        <time>2023-10-04T13:57:09Z</time>
      </trkpt>
      <trkpt lat="50.05441" lon="2.1987">
        <ele>72.8</ele>
        <time>2023-10-04T13:57:10Z</time>
      </trkpt>
      <trkpt lat="50.05441" lon="2.19869">
        <ele>72.8</ele>
        <time>2023-10-04T13:57:11Z</time>
      </trkpt>
      <trkpt lat="50.0544" lon="2.19868">
        <ele>72.8</ele>
        <time>2023-10-04T13:57:12Z</time>
      </trkpt>
      <trkpt lat="50.0544" lon="2.19867">
        <ele>72.8</ele>
        <time>2023-10-04T13:57:13Z</time>
      </trkpt>
      <trkpt lat="50.0544" lon="2.19865">
        <ele>72.8</ele>
        <time>2023-10-04T13:57:14Z</time>
      </trkpt>
      <trkpt lat="50.0544" lon="2.19864">
        <ele>72.8</ele>
        <time>2023-10-04T13:57:15Z</time>
      </trkpt>
      <trkpt lat="50.0544" lon="2.19862">
        <ele>72.8</ele>
        <time>2023-10-04T13:57:16Z</time>
      </trkpt>
      <trkpt lat="50.0544" lon="2.1986">
        <ele>72.9</ele>
        <time>2023-10-04T13:57:17Z</time>
      </trkpt>
      <trkpt lat="50.05439" lon="2.19859">
        <ele>72.9</ele>
        <time>2023-10-04T13:57:18Z</time>
      </trkpt>
      <trkpt lat="50.05439" lon="2.19857">
        <ele>72.9</ele>
        <time>2023-10-04T13:57:19Z</time>
      </trkpt>
      <trkpt lat="50.05439" lon="2.19856">
        <ele>72.9</ele>
        <time>2023-10-04T13:57:20Z</time>
      </trkpt>
      <trkpt lat="50.05439" lon="2.19855">
        <ele>72.9</ele>
        <time>2023-10-04T13:57:21Z</time>
      </trkpt>
      <trkpt lat="50.05439" lon="2.19853">
        <ele>72.9</ele>
        <time>2023-10-04T13:57:22Z</time>
      </trkpt>
      <trkpt lat="50.05439" lon="2.19852">
        <ele>72.9</ele>
        <time>2023-10-04T13:57:23Z</time>
      </trkpt>
      <trkpt lat="50.05439" lon="2.1985">
        <ele>72.9</ele>
        <time>2023-10-04T13:57:24Z</time>
      </trkpt>
      <trkpt lat="50.05439" lon="2.19848">
        <ele>73</ele>
        <time>2023-10-04T13:57:25Z</time>
      </trkpt>
      <trkpt lat="50.05438" lon="2.19847">
        <ele>73</ele>
        <time>2023-10-04T13:57:26Z</time>
      </trkpt>
      <trkpt lat="50.05438" lon="2.19845">
        <ele>73</ele>
        <time>2023-10-04T13:57:27Z</time>
      </trkpt>
      <trkpt lat="50.05438" lon="2.19843">
        <ele>73</ele>
        <time>2023-10-04T13:57:28Z</time>
      </trkpt>
      <trkpt lat="50.05438" lon="2.19842">
        <ele>73</ele>
        <time>2023-10-04T13:57:29Z</time>
      </trkpt>
      <trkpt lat="50.05438" lon="2.19841">
        <ele>73</ele>
        <time>2023-10-04T13:57:30Z</time>
      </trkpt>
      <trkpt lat="50.05437" lon="2.19839">
        <ele>73</ele>
        <time>2023-10-04T13:57:31Z</time>
      </trkpt>
      <trkpt lat="50.05437" lon="2.19838">
        <ele>73</ele>
        <time>2023-10-04T13:57:32Z</time>
      </trkpt>
      <trkpt lat="50.05437" lon="2.19836">
        <ele>73.1</ele>
        <time>2023-10-04T13:57:33Z</time>
      </trkpt>
      <trkpt lat="50.05437" lon="2.19834">
        <ele>73.1</ele>
        <time>2023-10-04T13:57:34Z</time>
      </trkpt>
      <trkpt lat="50.05436" lon="2.19833">
        <ele>73.1</ele>
        <time>2023-10-04T13:57:35Z</time>
      </trkpt>
      <trkpt lat="50.05436" lon="2.19831">
        <ele>73.1</ele>
        <time>2023-10-04T13:57:36Z</time>
      </trkpt>
      <trkpt lat="50.05436" lon="2.19829">
        <ele>73.1</ele>
        <time>2023-10-04T13:57:37Z</time>
      </trkpt>
      <trkpt lat="50.05436" lon="2.19828">
        <ele>73.1</ele>
        <time>2023-10-04T13:57:38Z</time>
      </trkpt>
      <trkpt lat="50.05435" lon="2.19826">
        <ele>73.1</ele>
        <time>2023-10-04T13:57:39Z</time>
      </trkpt>
      <trkpt lat="50.05435" lon="2.19825">
        <ele>73.1</ele>
        <time>2023-10-04T13:57:40Z</time>
      </trkpt>
      <trkpt lat="50.05435" lon="2.19823">
        <ele>73.1</ele>
        <time>2023-10-04T13:57:41Z</time>
      </trkpt>
      <trkpt lat="50.05435" lon="2.19821">
        <ele>73.1</ele>
        <time>2023-10-04T13:57:42Z</time>
      </trkpt>
      <trkpt lat="50.05435" lon="2.1982">
        <ele>73.1</ele>
        <time>2023-10-04T13:57:43Z</time>
      </trkpt>
      <trkpt lat="50.05435" lon="2.19818">
        <ele>73.1</ele>
        <time>2023-10-04T13:57:44Z</time>
      </trkpt>
      <trkpt lat="50.05435" lon="2.19816">
        <ele>73.1</ele>
        <time>2023-10-04T13:57:45Z</time>
      </trkpt>
      <trkpt lat="50.05435" lon="2.19815">
        <ele>73.2</ele>
        <time>2023-10-04T13:57:46Z</time>
      </trkpt>
      <trkpt lat="50.05435" lon="2.19813">
        <ele>73.2</ele>
        <time>2023-10-04T13:57:47Z</time>
      </trkpt>
      <trkpt lat="50.05435" lon="2.19812">
        <ele>73.2</ele>
        <time>2023-10-04T13:57:48Z</time>
      </trkpt>
      <trkpt lat="50.05435" lon="2.1981">
        <ele>73.2</ele>
        <time>2023-10-04T13:57:49Z</time>
      </trkpt>
      <trkpt lat="50.05435" lon="2.19809">
        <ele>73.2</ele>
        <time>2023-10-04T13:57:50Z</time>
      </trkpt>
      <trkpt lat="50.05435" lon="2.19807">
        <ele>73.2</ele>
        <time>2023-10-04T13:57:51Z</time>
      </trkpt>
      <trkpt lat="50.05435" lon="2.19805">
        <ele>73.2</ele>
        <time>2023-10-04T13:57:52Z</time>
      </trkpt>
      <trkpt lat="50.05435" lon="2.19803">
        <ele>73.2</ele>
        <time>2023-10-04T13:57:53Z</time>
      </trkpt>
      <trkpt lat="50.05435" lon="2.19802">
        <ele>73.2</ele>
        <time>2023-10-04T13:57:54Z</time>
      </trkpt>
      <trkpt lat="50.05435" lon="2.198">
        <ele>73.2</ele>
        <time>2023-10-04T13:57:55Z</time>
      </trkpt>
      <trkpt lat="50.05434" lon="2.19798">
        <ele>73.2</ele>
        <time>2023-10-04T13:57:56Z</time>
      </trkpt>
      <trkpt lat="50.05434" lon="2.19796">
        <ele>73.3</ele>
        <time>2023-10-04T13:57:57Z</time>
      </trkpt>
      <trkpt lat="50.05434" lon="2.19794">
        <ele>73.3</ele>
        <time>2023-10-04T13:57:58Z</time>
      </trkpt>
      <trkpt lat="50.05434" lon="2.19793">
        <ele>73.3</ele>
        <time>2023-10-04T13:57:59Z</time>
      </trkpt>
      <trkpt lat="50.05434" lon="2.19791">
        <ele>73.3</ele>
        <time>2023-10-04T13:58:00Z</time>
      </trkpt>
      <trkpt lat="50.05434" lon="2.1979">
        <ele>73.3</ele>
        <time>2023-10-04T13:58:01Z</time>
      </trkpt>
      <trkpt lat="50.05433" lon="2.19788">
        <ele>73.3</ele>
        <time>2023-10-04T13:58:02Z</time>
      </trkpt>
      <trkpt lat="50.05433" lon="2.19787">
        <ele>73.4</ele>
        <time>2023-10-04T13:58:03Z</time>
      </trkpt>
      <trkpt lat="50.05433" lon="2.19785">
        <ele>73.4</ele>
        <time>2023-10-04T13:58:04Z</time>
      </trkpt>
      <trkpt lat="50.05433" lon="2.19784">
        <ele>73.4</ele>
        <time>2023-10-04T13:58:05Z</time>
      </trkpt>
      <trkpt lat="50.05433" lon="2.19782">
        <ele>73.4</ele>
        <time>2023-10-04T13:58:06Z</time>
      </trkpt>
      <trkpt lat="50.05433" lon="2.19781">
        <ele>73.4</ele>
        <time>2023-10-04T13:58:07Z</time>
      </trkpt>
      <trkpt lat="50.05432" lon="2.1978">
        <ele>73.4</ele>
        <time>2023-10-04T13:58:08Z</time>
      </trkpt>
      <trkpt lat="50.05432" lon="2.19779">
        <ele>73.4</ele>
        <time>2023-10-04T13:58:09Z</time>
      </trkpt>
      <trkpt lat="50.05432" lon="2.19777">
        <ele>73.4</ele>
        <time>2023-10-04T13:58:10Z</time>
      </trkpt>
      <trkpt lat="50.05432" lon="2.19776">
        <ele>73.4</ele>
        <time>2023-10-04T13:58:11Z</time>
      </trkpt>
      <trkpt lat="50.05431" lon="2.19774">
        <ele>73.5</ele>
        <time>2023-10-04T13:58:12Z</time>
      </trkpt>
      <trkpt lat="50.05431" lon="2.19773">
        <ele>73.5</ele>
        <time>2023-10-04T13:58:13Z</time>
      </trkpt>
      <trkpt lat="50.05431" lon="2.19772">
        <ele>73.5</ele>
        <time>2023-10-04T13:58:14Z</time>
      </trkpt>
      <trkpt lat="50.05431" lon="2.1977">
        <ele>73.5</ele>
        <time>2023-10-04T13:58:15Z</time>
      </trkpt>
      <trkpt lat="50.05431" lon="2.19769">
        <ele>73.5</ele>
        <time>2023-10-04T13:58:16Z</time>
      </trkpt>
      <trkpt lat="50.0543" lon="2.19767">
        <ele>73.5</ele>
        <time>2023-10-04T13:58:17Z</time>
      </trkpt>
      <trkpt lat="50.0543" lon="2.19765">
        <ele>73.5</ele>
        <time>2023-10-04T13:58:18Z</time>
      </trkpt>
      <trkpt lat="50.0543" lon="2.19764">
        <ele>73.6</ele>
        <time>2023-10-04T13:58:19Z</time>
      </trkpt>
      <trkpt lat="50.0543" lon="2.19762">
        <ele>73.6</ele>
        <time>2023-10-04T13:58:20Z</time>
      </trkpt>
      <trkpt lat="50.0543" lon="2.19761">
        <ele>73.6</ele>
        <time>2023-10-04T13:58:21Z</time>
      </trkpt>
      <trkpt lat="50.0543" lon="2.19759">
        <ele>73.6</ele>
        <time>2023-10-04T13:58:22Z</time>
      </trkpt>
      <trkpt lat="50.0543" lon="2.19757">
        <ele>73.6</ele>
        <time>2023-10-04T13:58:23Z</time>
      </trkpt>
      <trkpt lat="50.05429" lon="2.19756">
        <ele>73.6</ele>
        <time>2023-10-04T13:58:24Z</time>
      </trkpt>
      <trkpt lat="50.05429" lon="2.19754">
        <ele>73.7</ele>
        <time>2023-10-04T13:58:25Z</time>
      </trkpt>
      <trkpt lat="50.05429" lon="2.19752">
        <ele>73.7</ele>
        <time>2023-10-04T13:58:26Z</time>
      </trkpt>
      <trkpt lat="50.05429" lon="2.1975">
        <ele>73.7</ele>
        <time>2023-10-04T13:58:27Z</time>
      </trkpt>
      <trkpt lat="50.05429" lon="2.19747">
        <ele>73.7</ele>
        <time>2023-10-04T13:58:28Z</time>
      </trkpt>
      <trkpt lat="50.05429" lon="2.19746">
        <ele>73.7</ele>
        <time>2023-10-04T13:58:29Z</time>
      </trkpt>
      <trkpt lat="50.05429" lon="2.19744">
        <ele>73.7</ele>
        <time>2023-10-04T13:58:30Z</time>
      </trkpt>
      <trkpt lat="50.05429" lon="2.19742">
        <ele>73.8</ele>
        <time>2023-10-04T13:58:31Z</time>
      </trkpt>
      <trkpt lat="50.05429" lon="2.19741">
        <ele>73.8</ele>
        <time>2023-10-04T13:58:32Z</time>
      </trkpt>
      <trkpt lat="50.05429" lon="2.19739">
        <ele>73.8</ele>
        <time>2023-10-04T13:58:33Z</time>
      </trkpt>
      <trkpt lat="50.05429" lon="2.19737">
        <ele>73.8</ele>
        <time>2023-10-04T13:58:34Z</time>
      </trkpt>
      <trkpt lat="50.05429" lon="2.19736">
        <ele>73.8</ele>
        <time>2023-10-04T13:58:35Z</time>
      </trkpt>
      <trkpt lat="50.05428" lon="2.19734">
        <ele>73.9</ele>
        <time>2023-10-04T13:58:36Z</time>
      </trkpt>
      <trkpt lat="50.05428" lon="2.19733">
        <ele>73.9</ele>
        <time>2023-10-04T13:58:37Z</time>
      </trkpt>
      <trkpt lat="50.05428" lon="2.19731">
        <ele>73.9</ele>
        <time>2023-10-04T13:58:38Z</time>
      </trkpt>
      <trkpt lat="50.05428" lon="2.1973">
        <ele>73.9</ele>
        <time>2023-10-04T13:58:39Z</time>
      </trkpt>
      <trkpt lat="50.05428" lon="2.19728">
        <ele>73.9</ele>
        <time>2023-10-04T13:58:40Z</time>
      </trkpt>
      <trkpt lat="50.05428" lon="2.19726">
        <ele>73.9</ele>
        <time>2023-10-04T13:58:41Z</time>
      </trkpt>
      <trkpt lat="50.05427" lon="2.19725">
        <ele>74</ele>
        <time>2023-10-04T13:58:42Z</time>
      </trkpt>
      <trkpt lat="50.05427" lon="2.19723">
        <ele>74</ele>
        <time>2023-10-04T13:58:43Z</time>
      </trkpt>
      <trkpt lat="50.05426" lon="2.19721">
        <ele>74</ele>
        <time>2023-10-04T13:58:44Z</time>
      </trkpt>
      <trkpt lat="50.05426" lon="2.1972">
        <ele>74</ele>
        <time>2023-10-04T13:58:45Z</time>
      </trkpt>
      <trkpt lat="50.05426" lon="2.19718">
        <ele>74.1</ele>
        <time>2023-10-04T13:58:46Z</time>
      </trkpt>
      <trkpt lat="50.05425" lon="2.19716">
        <ele>74.1</ele>
        <time>2023-10-04T13:58:47Z</time>
      </trkpt>
      <trkpt lat="50.05425" lon="2.19715">
        <ele>74.1</ele>
        <time>2023-10-04T13:58:48Z</time>
      </trkpt>
      <trkpt lat="50.05424" lon="2.19713">
        <ele>74.1</ele>
        <time>2023-10-04T13:58:49Z</time>
      </trkpt>
      <trkpt lat="50.05424" lon="2.19711">
        <ele>74.2</ele>
        <time>2023-10-04T13:58:50Z</time>
      </trkpt>
      <trkpt lat="50.05423" lon="2.1971">
        <ele>74.2</ele>
        <time>2023-10-04T13:58:51Z</time>
      </trkpt>
      <trkpt lat="50.05423" lon="2.19708">
        <ele>74.2</ele>
        <time>2023-10-04T13:58:52Z</time>
      </trkpt>
      <trkpt lat="50.05422" lon="2.19707">
        <ele>74.2</ele>
        <time>2023-10-04T13:58:53Z</time>
      </trkpt>
      <trkpt lat="50.05422" lon="2.19706">
        <ele>74.3</ele>
        <time>2023-10-04T13:58:54Z</time>
      </trkpt>
      <trkpt lat="50.05421" lon="2.19704">
        <ele>74.3</ele>
        <time>2023-10-04T13:58:55Z</time>
      </trkpt>
      <trkpt lat="50.05421" lon="2.19703">
        <ele>74.3</ele>
        <time>2023-10-04T13:58:56Z</time>
      </trkpt>
      <trkpt lat="50.05421" lon="2.19701">
        <ele>74.3</ele>
        <time>2023-10-04T13:58:57Z</time>
      </trkpt>
      <trkpt lat="50.0542" lon="2.197">
        <ele>74.3</ele>
        <time>2023-10-04T13:58:58Z</time>
      </trkpt>
      <trkpt lat="50.0542" lon="2.19699">
        <ele>74.4</ele>
        <time>2023-10-04T13:58:59Z</time>
      </trkpt>
      <trkpt lat="50.0542" lon="2.19698">
        <ele>74.4</ele>
        <time>2023-10-04T13:59:00Z</time>
      </trkpt>
      <trkpt lat="50.05419" lon="2.19697">
        <ele>74.4</ele>
        <time>2023-10-04T13:59:01Z</time>
      </trkpt>
      <trkpt lat="50.05419" lon="2.19696">
        <ele>74.4</ele>
        <time>2023-10-04T13:59:02Z</time>
      </trkpt>
      <trkpt lat="50.05419" lon="2.19695">
        <ele>74.4</ele>
        <time>2023-10-04T13:59:03Z</time>
      </trkpt>
      <trkpt lat="50.05418" lon="2.19694">
        <ele>74.5</ele>
        <time>2023-10-04T13:59:04Z</time>
      </trkpt>
      <trkpt lat="50.05418" lon="2.19693">
        <ele>74.5</ele>
        <time>2023-10-04T13:59:05Z</time>
      </trkpt>
      <trkpt lat="50.05418" lon="2.19692">
        <ele>74.5</ele>
        <time>2023-10-04T13:59:06Z</time>
      </trkpt>
      <trkpt lat="50.05418" lon="2.1969">
        <ele>74.5</ele>
        <time>2023-10-04T13:59:07Z</time>
      </trkpt>
      <trkpt lat="50.05417" lon="2.19689">
        <ele>74.5</ele>
        <time>2023-10-04T13:59:08Z</time>
      </trkpt>
      <trkpt lat="50.05417" lon="2.19687">
        <ele>74.5</ele>
        <time>2023-10-04T13:59:09Z</time>
      </trkpt>
      <trkpt lat="50.05417" lon="2.19686">
        <ele>74.6</ele>
        <time>2023-10-04T13:59:10Z</time>
      </trkpt>
      <trkpt lat="50.05417" lon="2.19685">
        <ele>74.6</ele>
        <time>2023-10-04T13:59:11Z</time>
      </trkpt>
      <trkpt lat="50.05416" lon="2.19683">
        <ele>74.6</ele>
        <time>2023-10-04T13:59:12Z</time>
      </trkpt>
      <trkpt lat="50.05416" lon="2.19682">
        <ele>74.6</ele>
        <time>2023-10-04T13:59:13Z</time>
      </trkpt>
      <trkpt lat="50.05416" lon="2.1968">
        <ele>74.6</ele>
        <time>2023-10-04T13:59:14Z</time>
      </trkpt>
      <trkpt lat="50.05416" lon="2.19679">
        <ele>74.7</ele>
        <time>2023-10-04T13:59:15Z</time>
      </trkpt>
      <trkpt lat="50.05416" lon="2.19677">
        <ele>74.7</ele>
        <time>2023-10-04T13:59:16Z</time>
      </trkpt>
      <trkpt lat="50.05416" lon="2.19676">
        <ele>74.7</ele>
        <time>2023-10-04T13:59:17Z</time>
      </trkpt>
      <trkpt lat="50.05416" lon="2.19675">
        <ele>74.7</ele>
        <time>2023-10-04T13:59:18Z</time>
      </trkpt>
      <trkpt lat="50.05416" lon="2.19673">
        <ele>74.7</ele>
        <time>2023-10-04T13:59:19Z</time>
      </trkpt>
      <trkpt lat="50.05416" lon="2.19672">
        <ele>74.8</ele>
        <time>2023-10-04T13:59:20Z</time>
      </trkpt>
      <trkpt lat="50.05416" lon="2.1967">
        <ele>74.8</ele>
        <time>2023-10-04T13:59:21Z</time>
      </trkpt>
      <trkpt lat="50.05416" lon="2.19669">
        <ele>74.8</ele>
        <time>2023-10-04T13:59:22Z</time>
      </trkpt>
      <trkpt lat="50.05415" lon="2.19668">
        <ele>74.8</ele>
        <time>2023-10-04T13:59:23Z</time>
      </trkpt>
      <trkpt lat="50.05415" lon="2.19667">
        <ele>74.8</ele>
        <time>2023-10-04T13:59:24Z</time>
      </trkpt>
      <trkpt lat="50.05415" lon="2.19666">
        <ele>74.9</ele>
        <time>2023-10-04T13:59:25Z</time>
      </trkpt>
      <trkpt lat="50.05415" lon="2.19665">
        <ele>74.9</ele>
        <time>2023-10-04T13:59:26Z</time>
      </trkpt>
      <trkpt lat="50.05415" lon="2.19664">
        <ele>74.9</ele>
        <time>2023-10-04T13:59:27Z</time>
      </trkpt>
      <trkpt lat="50.05415" lon="2.19663">
        <ele>74.9</ele>
        <time>2023-10-04T13:59:28Z</time>
      </trkpt>
      <trkpt lat="50.05414" lon="2.19662">
        <ele>74.9</ele>
        <time>2023-10-04T13:59:29Z</time>
      </trkpt>
      <trkpt lat="50.05414" lon="2.1966">
        <ele>75</ele>
        <time>2023-10-04T13:59:30Z</time>
      </trkpt>
      <trkpt lat="50.05414" lon="2.19659">
        <ele>75</ele>
        <time>2023-10-04T13:59:31Z</time>
      </trkpt>
      <trkpt lat="50.05414" lon="2.19658">
        <ele>75</ele>
        <time>2023-10-04T13:59:32Z</time>
      </trkpt>
      <trkpt lat="50.05414" lon="2.19657">
        <ele>75</ele>
        <time>2023-10-04T13:59:33Z</time>
      </trkpt>
      <trkpt lat="50.05414" lon="2.19655">
        <ele>75.1</ele>
        <time>2023-10-04T13:59:34Z</time>
      </trkpt>
      <trkpt lat="50.05414" lon="2.19654">
        <ele>75.1</ele>
        <time>2023-10-04T13:59:35Z</time>
      </trkpt>
      <trkpt lat="50.05414" lon="2.19652">
        <ele>75.1</ele>
        <time>2023-10-04T13:59:36Z</time>
      </trkpt>
      <trkpt lat="50.05414" lon="2.19651">
        <ele>75.2</ele>
        <time>2023-10-04T13:59:37Z</time>
      </trkpt>
      <trkpt lat="50.05413" lon="2.19649">
        <ele>75.2</ele>
        <time>2023-10-04T13:59:38Z</time>
      </trkpt>
      <trkpt lat="50.05413" lon="2.19648">
        <ele>75.2</ele>
        <time>2023-10-04T13:59:39Z</time>
      </trkpt>
      <trkpt lat="50.05413" lon="2.19646">
        <ele>75.3</ele>
        <time>2023-10-04T13:59:40Z</time>
      </trkpt>
      <trkpt lat="50.05413" lon="2.19644">
        <ele>75.3</ele>
        <time>2023-10-04T13:59:41Z</time>
      </trkpt>
      <trkpt lat="50.05413" lon="2.19642">
        <ele>75.3</ele>
        <time>2023-10-04T13:59:42Z</time>
      </trkpt>
      <trkpt lat="50.05413" lon="2.19641">
        <ele>75.4</ele>
        <time>2023-10-04T13:59:43Z</time>
      </trkpt>
      <trkpt lat="50.05413" lon="2.19639">
        <ele>75.4</ele>
        <time>2023-10-04T13:59:44Z</time>
      </trkpt>
      <trkpt lat="50.05413" lon="2.19637">
        <ele>75.5</ele>
        <time>2023-10-04T13:59:45Z</time>
      </trkpt>
      <trkpt lat="50.05413" lon="2.19636">
        <ele>75.5</ele>
        <time>2023-10-04T13:59:46Z</time>
      </trkpt>
      <trkpt lat="50.05413" lon="2.19634">
        <ele>75.5</ele>
        <time>2023-10-04T13:59:47Z</time>
      </trkpt>
      <trkpt lat="50.05413" lon="2.19632">
        <ele>75.6</ele>
        <time>2023-10-04T13:59:48Z</time>
      </trkpt>
      <trkpt lat="50.05413" lon="2.19631">
        <ele>75.6</ele>
        <time>2023-10-04T13:59:49Z</time>
      </trkpt>
      <trkpt lat="50.05413" lon="2.19629">
        <ele>75.7</ele>
        <time>2023-10-04T13:59:50Z</time>
      </trkpt>
      <trkpt lat="50.05413" lon="2.19627">
        <ele>75.7</ele>
        <time>2023-10-04T13:59:51Z</time>
      </trkpt>
      <trkpt lat="50.05414" lon="2.19626">
        <ele>75.8</ele>
        <time>2023-10-04T13:59:52Z</time>
      </trkpt>
      <trkpt lat="50.05414" lon="2.19624">
        <ele>75.8</ele>
        <time>2023-10-04T13:59:53Z</time>
      </trkpt>
      <trkpt lat="50.05414" lon="2.19622">
        <ele>75.9</ele>
        <time>2023-10-04T13:59:54Z</time>
      </trkpt>
      <trkpt lat="50.05414" lon="2.1962">
        <ele>75.9</ele>
        <time>2023-10-04T13:59:55Z</time>
      </trkpt>
      <trkpt lat="50.05414" lon="2.19619">
        <ele>76</ele>
        <time>2023-10-04T13:59:56Z</time>
      </trkpt>
      <trkpt lat="50.05414" lon="2.19617">
        <ele>76</ele>
        <time>2023-10-04T13:59:57Z</time>
      </trkpt>
      <trkpt lat="50.05414" lon="2.19615">
        <ele>76.1</ele>
        <time>2023-10-04T13:59:58Z</time>
      </trkpt>
      <trkpt lat="50.05414" lon="2.19614">
        <ele>76.1</ele>
        <time>2023-10-04T13:59:59Z</time>
      </trkpt>
      <trkpt lat="50.05414" lon="2.19612">
        <ele>76.2</ele>
        <time>2023-10-04T14:00:00Z</time>
      </trkpt>
      <trkpt lat="50.05414" lon="2.19611">
        <ele>76.2</ele>
        <time>2023-10-04T14:00:01Z</time>
      </trkpt>
      <trkpt lat="50.05414" lon="2.19609">
        <ele>76.3</ele>
        <time>2023-10-04T14:00:02Z</time>
      </trkpt>
      <trkpt lat="50.05414" lon="2.19608">
        <ele>76.3</ele>
        <time>2023-10-04T14:00:03Z</time>
      </trkpt>
      <trkpt lat="50.05414" lon="2.19606">
        <ele>76.4</ele>
        <time>2023-10-04T14:00:04Z</time>
      </trkpt>
      <trkpt lat="50.05414" lon="2.19605">
        <ele>76.4</ele>
        <time>2023-10-04T14:00:05Z</time>
      </trkpt>
      <trkpt lat="50.05414" lon="2.19604">
        <ele>76.5</ele>
        <time>2023-10-04T14:00:06Z</time>
      </trkpt>
      <trkpt lat="50.05413" lon="2.19602">
        <ele>76.6</ele>
        <time>2023-10-04T14:00:07Z</time>
      </trkpt>
      <trkpt lat="50.05413" lon="2.19601">
        <ele>76.6</ele>
        <time>2023-10-04T14:00:08Z</time>
      </trkpt>
      <trkpt lat="50.05413" lon="2.196">
        <ele>76.7</ele>
        <time>2023-10-04T14:00:09Z</time>
      </trkpt>
      <trkpt lat="50.05413" lon="2.19599">
        <ele>76.7</ele>
        <time>2023-10-04T14:00:10Z</time>
      </trkpt>
      <trkpt lat="50.05413" lon="2.19598">
        <ele>76.7</ele>
        <time>2023-10-04T14:00:11Z</time>
      </trkpt>
      <trkpt lat="50.05413" lon="2.19597">
        <ele>76.8</ele>
        <time>2023-10-04T14:00:12Z</time>
      </trkpt>
      <trkpt lat="50.05413" lon="2.19596">
        <ele>76.8</ele>
        <time>2023-10-04T14:00:13Z</time>
      </trkpt>
      <trkpt lat="50.05413" lon="2.19595">
        <ele>76.9</ele>
        <time>2023-10-04T14:00:14Z</time>
      </trkpt>
      <trkpt lat="50.05413" lon="2.19594">
        <ele>76.9</ele>
        <time>2023-10-04T14:00:15Z</time>
      </trkpt>
      <trkpt lat="50.05413" lon="2.19593">
        <ele>76.9</ele>
        <time>2023-10-04T14:00:16Z</time>
      </trkpt>
      <trkpt lat="50.05413" lon="2.19592">
        <ele>77</ele>
        <time>2023-10-04T14:00:17Z</time>
      </trkpt>
      <trkpt lat="50.05412" lon="2.19591">
        <ele>77</ele>
        <time>2023-10-04T14:00:18Z</time>
      </trkpt>
      <trkpt lat="50.05412" lon="2.1959">
        <ele>77.1</ele>
        <time>2023-10-04T14:00:19Z</time>
      </trkpt>
      <trkpt lat="50.05412" lon="2.19589">
        <ele>77.1</ele>
        <time>2023-10-04T14:00:20Z</time>
      </trkpt>
      <trkpt lat="50.05412" lon="2.19588">
        <ele>77.2</ele>
        <time>2023-10-04T14:00:21Z</time>
      </trkpt>
      <trkpt lat="50.05412" lon="2.19586">
        <ele>77.3</ele>
        <time>2023-10-04T14:00:22Z</time>
      </trkpt>
      <trkpt lat="50.05412" lon="2.19585">
        <ele>77.3</ele>
        <time>2023-10-04T14:00:23Z</time>
      </trkpt>
      <trkpt lat="50.05413" lon="2.19583">
        <ele>77.4</ele>
        <time>2023-10-04T14:00:24Z</time>
      </trkpt>
      <trkpt lat="50.05413" lon="2.19582">
        <ele>77.5</ele>
        <time>2023-10-04T14:00:25Z</time>
      </trkpt>
      <trkpt lat="50.05413" lon="2.19581">
        <ele>77.5</ele>
        <time>2023-10-04T14:00:26Z</time>
      </trkpt>
      <trkpt lat="50.05413" lon="2.19579">
        <ele>77.6</ele>
        <time>2023-10-04T14:00:27Z</time>
      </trkpt>
      <trkpt lat="50.05413" lon="2.19578">
        <ele>77.6</ele>
        <time>2023-10-04T14:00:28Z</time>
      </trkpt>
      <trkpt lat="50.05413" lon="2.19577">
        <ele>77.7</ele>
        <time>2023-10-04T14:00:29Z</time>
      </trkpt>
      <trkpt lat="50.05413" lon="2.19576">
        <ele>77.7</ele>
        <time>2023-10-04T14:00:30Z</time>
      </trkpt>
      <trkpt lat="50.05413" lon="2.19575">
        <ele>77.8</ele>
        <time>2023-10-04T14:00:31Z</time>
      </trkpt>
      <trkpt lat="50.05413" lon="2.19574">
        <ele>77.8</ele>
        <time>2023-10-04T14:00:32Z</time>
      </trkpt>
      <trkpt lat="50.05413" lon="2.19574">
        <ele>77.8</ele>
        <time>2023-10-04T14:00:33Z</time>
      </trkpt>
      <trkpt lat="50.05413" lon="2.19574">
        <ele>77.8</ele>
        <time>2023-10-04T14:00:34Z</time>
      </trkpt>
      <trkpt lat="50.05413" lon="2.19573">
        <ele>77.8</ele>
        <time>2023-10-04T14:00:35Z</time>
      </trkpt>
      <trkpt lat="50.05413" lon="2.19573">
        <ele>77.9</ele>
        <time>2023-10-04T14:00:36Z</time>
      </trkpt>
      <trkpt lat="50.05413" lon="2.19572">
        <ele>77.9</ele>
        <time>2023-10-04T14:00:37Z</time>
      </trkpt>
      <trkpt lat="50.05413" lon="2.19571">
        <ele>77.9</ele>
        <time>2023-10-04T14:00:38Z</time>
      </trkpt>
      <trkpt lat="50.05413" lon="2.1957">
        <ele>78</ele>
        <time>2023-10-04T14:00:39Z</time>
      </trkpt>
      <trkpt lat="50.05413" lon="2.19569">
        <ele>78</ele>
        <time>2023-10-04T14:00:40Z</time>
      </trkpt>
      <trkpt lat="50.05413" lon="2.19568">
        <ele>78.1</ele>
        <time>2023-10-04T14:00:41Z</time>
      </trkpt>
      <trkpt lat="50.05413" lon="2.19567">
        <ele>78.1</ele>
        <time>2023-10-04T14:00:42Z</time>
      </trkpt>
      <trkpt lat="50.05413" lon="2.19566">
        <ele>78.2</ele>
        <time>2023-10-04T14:00:43Z</time>
      </trkpt>
      <trkpt lat="50.05413" lon="2.19564">
        <ele>78.2</ele>
        <time>2023-10-04T14:00:44Z</time>
      </trkpt>
      <trkpt lat="50.05413" lon="2.19563">
        <ele>78.3</ele>
        <time>2023-10-04T14:00:45Z</time>
      </trkpt>
      <trkpt lat="50.05413" lon="2.19562">
        <ele>78.3</ele>
        <time>2023-10-04T14:00:46Z</time>
      </trkpt>
      <trkpt lat="50.05413" lon="2.19561">
        <ele>78.4</ele>
        <time>2023-10-04T14:00:47Z</time>
      </trkpt>
      <trkpt lat="50.05413" lon="2.19559">
        <ele>78.4</ele>
        <time>2023-10-04T14:00:48Z</time>
      </trkpt>
      <trkpt lat="50.05413" lon="2.19558">
        <ele>78.5</ele>
        <time>2023-10-04T14:00:49Z</time>
      </trkpt>
      <trkpt lat="50.05413" lon="2.19556">
        <ele>78.5</ele>
        <time>2023-10-04T14:00:50Z</time>
      </trkpt>
      <trkpt lat="50.05413" lon="2.19555">
        <ele>78.6</ele>
        <time>2023-10-04T14:00:51Z</time>
      </trkpt>
      <trkpt lat="50.05412" lon="2.19554">
        <ele>78.6</ele>
        <time>2023-10-04T14:00:52Z</time>
      </trkpt>
      <trkpt lat="50.05412" lon="2.19552">
        <ele>78.7</ele>
        <time>2023-10-04T14:00:53Z</time>
      </trkpt>
      <trkpt lat="50.05412" lon="2.1955">
        <ele>78.7</ele>
        <time>2023-10-04T14:00:54Z</time>
      </trkpt>
      <trkpt lat="50.05412" lon="2.19548">
        <ele>78.8</ele>
        <time>2023-10-04T14:00:55Z</time>
      </trkpt>
      <trkpt lat="50.05412" lon="2.19547">
        <ele>78.8</ele>
        <time>2023-10-04T14:00:56Z</time>
      </trkpt>
      <trkpt lat="50.05411" lon="2.19545">
        <ele>78.9</ele>
        <time>2023-10-04T14:00:57Z</time>
      </trkpt>
      <trkpt lat="50.05411" lon="2.19543">
        <ele>78.9</ele>
        <time>2023-10-04T14:00:58Z</time>
      </trkpt>
      <trkpt lat="50.05411" lon="2.19541">
        <ele>79</ele>
        <time>2023-10-04T14:00:59Z</time>
      </trkpt>
      <trkpt lat="50.05411" lon="2.19539">
        <ele>79</ele>
        <time>2023-10-04T14:01:00Z</time>
      </trkpt>
      <trkpt lat="50.05411" lon="2.19536">
        <ele>79.1</ele>
        <time>2023-10-04T14:01:01Z</time>
      </trkpt>
      <trkpt lat="50.05411" lon="2.19535">
        <ele>79.1</ele>
        <time>2023-10-04T14:01:02Z</time>
      </trkpt>
      <trkpt lat="50.05411" lon="2.19534">
        <ele>79.1</ele>
        <time>2023-10-04T14:01:03Z</time>
      </trkpt>
      <trkpt lat="50.05411" lon="2.19532">
        <ele>79.2</ele>
        <time>2023-10-04T14:01:04Z</time>
      </trkpt>
      <trkpt lat="50.05411" lon="2.1953">
        <ele>79.2</ele>
        <time>2023-10-04T14:01:05Z</time>
      </trkpt>
      <trkpt lat="50.05411" lon="2.19528">
        <ele>79.2</ele>
        <time>2023-10-04T14:01:06Z</time>
      </trkpt>
      <trkpt lat="50.05411" lon="2.19525">
        <ele>79.2</ele>
        <time>2023-10-04T14:01:07Z</time>
      </trkpt>
      <trkpt lat="50.05411" lon="2.19523">
        <ele>79.2</ele>
        <time>2023-10-04T14:01:08Z</time>
      </trkpt>
      <trkpt lat="50.05411" lon="2.19522">
        <ele>79.2</ele>
        <time>2023-10-04T14:01:09Z</time>
      </trkpt>
      <trkpt lat="50.05411" lon="2.1952">
        <ele>79.3</ele>
        <time>2023-10-04T14:01:10Z</time>
      </trkpt>
      <trkpt lat="50.05411" lon="2.19518">
        <ele>79.3</ele>
        <time>2023-10-04T14:01:11Z</time>
      </trkpt>
      <trkpt lat="50.05411" lon="2.19514">
        <ele>79.3</ele>
        <time>2023-10-04T14:01:12Z</time>
      </trkpt>
      <trkpt lat="50.05411" lon="2.19513">
        <ele>79.2</ele>
        <time>2023-10-04T14:01:13Z</time>
      </trkpt>
      <trkpt lat="50.05411" lon="2.19512">
        <ele>79.2</ele>
        <time>2023-10-04T14:01:14Z</time>
      </trkpt>
      <trkpt lat="50.05411" lon="2.1951">
        <ele>79.2</ele>
        <time>2023-10-04T14:01:15Z</time>
      </trkpt>
      <trkpt lat="50.05411" lon="2.19508">
        <ele>79.2</ele>
        <time>2023-10-04T14:01:16Z</time>
      </trkpt>
      <trkpt lat="50.05411" lon="2.19506">
        <ele>79.2</ele>
        <time>2023-10-04T14:01:17Z</time>
      </trkpt>
      <trkpt lat="50.05411" lon="2.19504">
        <ele>79.2</ele>
        <time>2023-10-04T14:01:18Z</time>
      </trkpt>
      <trkpt lat="50.05411" lon="2.19502">
        <ele>79.2</ele>
        <time>2023-10-04T14:01:19Z</time>
      </trkpt>
      <trkpt lat="50.05411" lon="2.19501">
        <ele>79.2</ele>
        <time>2023-10-04T14:01:20Z</time>
      </trkpt>
      <trkpt lat="50.05411" lon="2.19499">
        <ele>79.2</ele>
        <time>2023-10-04T14:01:21Z</time>
      </trkpt>
      <trkpt lat="50.05411" lon="2.19498">
        <ele>79.2</ele>
        <time>2023-10-04T14:01:22Z</time>
      </trkpt>
      <trkpt lat="50.05411" lon="2.19496">
        <ele>79.2</ele>
        <time>2023-10-04T14:01:23Z</time>
      </trkpt>
      <trkpt lat="50.05411" lon="2.19495">
        <ele>79.2</ele>
        <time>2023-10-04T14:01:24Z</time>
      </trkpt>
      <trkpt lat="50.05411" lon="2.19493">
        <ele>79.1</ele>
        <time>2023-10-04T14:01:25Z</time>
      </trkpt>
      <trkpt lat="50.05411" lon="2.19491">
        <ele>79.1</ele>
        <time>2023-10-04T14:01:26Z</time>
      </trkpt>
      <trkpt lat="50.05412" lon="2.19488">
        <ele>79.1</ele>
        <time>2023-10-04T14:01:27Z</time>
      </trkpt>
      <trkpt lat="50.05412" lon="2.19487">
        <ele>79.1</ele>
        <time>2023-10-04T14:01:28Z</time>
      </trkpt>
      <trkpt lat="50.05412" lon="2.19486">
        <ele>79.1</ele>
        <time>2023-10-04T14:01:29Z</time>
      </trkpt>
      <trkpt lat="50.05412" lon="2.19484">
        <ele>79.1</ele>
        <time>2023-10-04T14:01:30Z</time>
      </trkpt>
      <trkpt lat="50.05412" lon="2.19482">
        <ele>79.1</ele>
        <time>2023-10-04T14:01:31Z</time>
      </trkpt>
      <trkpt lat="50.05413" lon="2.19481">
        <ele>79.1</ele>
        <time>2023-10-04T14:01:32Z</time>
      </trkpt>
      <trkpt lat="50.05413" lon="2.19477">
        <ele>79</ele>
        <time>2023-10-04T14:01:33Z</time>
      </trkpt>
      <trkpt lat="50.05413" lon="2.19476">
        <ele>79</ele>
        <time>2023-10-04T14:01:34Z</time>
      </trkpt>
      <trkpt lat="50.05413" lon="2.19475">
        <ele>79</ele>
        <time>2023-10-04T14:01:35Z</time>
      </trkpt>
      <trkpt lat="50.05413" lon="2.19471">
        <ele>79</ele>
        <time>2023-10-04T14:01:36Z</time>
      </trkpt>
      <trkpt lat="50.05413" lon="2.1947">
        <ele>79</ele>
        <time>2023-10-04T14:01:37Z</time>
      </trkpt>
      <trkpt lat="50.05413" lon="2.19469">
        <ele>78.9</ele>
        <time>2023-10-04T14:01:38Z</time>
      </trkpt>
      <trkpt lat="50.05413" lon="2.19467">
        <ele>78.9</ele>
        <time>2023-10-04T14:01:39Z</time>
      </trkpt>
      <trkpt lat="50.05413" lon="2.19465">
        <ele>78.9</ele>
        <time>2023-10-04T14:01:40Z</time>
      </trkpt>
      <trkpt lat="50.05413" lon="2.19464">
        <ele>78.9</ele>
        <time>2023-10-04T14:01:41Z</time>
      </trkpt>
      <trkpt lat="50.05414" lon="2.19461">
        <ele>78.8</ele>
        <time>2023-10-04T14:01:42Z</time>
      </trkpt>
      <trkpt lat="50.05414" lon="2.19459">
        <ele>78.8</ele>
        <time>2023-10-04T14:01:43Z</time>
      </trkpt>
      <trkpt lat="50.05414" lon="2.19458">
        <ele>78.8</ele>
        <time>2023-10-04T14:01:44Z</time>
      </trkpt>
      <trkpt lat="50.05414" lon="2.19454">
        <ele>78.8</ele>
        <time>2023-10-04T14:01:45Z</time>
      </trkpt>
      <trkpt lat="50.05414" lon="2.19453">
        <ele>78.7</ele>
        <time>2023-10-04T14:01:46Z</time>
      </trkpt>
      <trkpt lat="50.05414" lon="2.19452">
        <ele>78.7</ele>
        <time>2023-10-04T14:01:47Z</time>
      </trkpt>
      <trkpt lat="50.05414" lon="2.19448">
        <ele>78.7</ele>
        <time>2023-10-04T14:01:48Z</time>
      </trkpt>
      <trkpt lat="50.05414" lon="2.19447">
        <ele>78.6</ele>
        <time>2023-10-04T14:01:49Z</time>
      </trkpt>
      <trkpt lat="50.05414" lon="2.19446">
        <ele>78.6</ele>
        <time>2023-10-04T14:01:50Z</time>
      </trkpt>
      <trkpt lat="50.05414" lon="2.19442">
        <ele>78.6</ele>
        <time>2023-10-04T14:01:51Z</time>
      </trkpt>
      <trkpt lat="50.05414" lon="2.19441">
        <ele>78.6</ele>
        <time>2023-10-04T14:01:52Z</time>
      </trkpt>
      <trkpt lat="50.05414" lon="2.1944">
        <ele>78.5</ele>
        <time>2023-10-04T14:01:53Z</time>
      </trkpt>
      <trkpt lat="50.05414" lon="2.19438">
        <ele>78.5</ele>
        <time>2023-10-04T14:01:54Z</time>
      </trkpt>
      <trkpt lat="50.05414" lon="2.19436">
        <ele>78.5</ele>
        <time>2023-10-04T14:01:55Z</time>
      </trkpt>
      <trkpt lat="50.05413" lon="2.19435">
        <ele>78.5</ele>
        <time>2023-10-04T14:01:56Z</time>
      </trkpt>
      <trkpt lat="50.05413" lon="2.19434">
        <ele>78.4</ele>
        <time>2023-10-04T14:01:57Z</time>
      </trkpt>
      <trkpt lat="50.05413" lon="2.19432">
        <ele>78.4</ele>
        <time>2023-10-04T14:01:58Z</time>
      </trkpt>
      <trkpt lat="50.05413" lon="2.19431">
        <ele>78.4</ele>
        <time>2023-10-04T14:01:59Z</time>
      </trkpt>
      <trkpt lat="50.05412" lon="2.1943">
        <ele>78.4</ele>
        <time>2023-10-04T14:02:00Z</time>
      </trkpt>
      <trkpt lat="50.05412" lon="2.19428">
        <ele>78.4</ele>
        <time>2023-10-04T14:02:01Z</time>
      </trkpt>
      <trkpt lat="50.05412" lon="2.19427">
        <ele>78.3</ele>
        <time>2023-10-04T14:02:02Z</time>
      </trkpt>
      <trkpt lat="50.05412" lon="2.19426">
        <ele>78.3</ele>
        <time>2023-10-04T14:02:03Z</time>
      </trkpt>
      <trkpt lat="50.05412" lon="2.19424">
        <ele>78.3</ele>
        <time>2023-10-04T14:02:04Z</time>
      </trkpt>
      <trkpt lat="50.05411" lon="2.19423">
        <ele>78.3</ele>
        <time>2023-10-04T14:02:05Z</time>
      </trkpt>
      <trkpt lat="50.05411" lon="2.19422">
        <ele>78.2</ele>
        <time>2023-10-04T14:02:06Z</time>
      </trkpt>
      <trkpt lat="50.05411" lon="2.19421">
        <ele>78.2</ele>
        <time>2023-10-04T14:02:07Z</time>
      </trkpt>
      <trkpt lat="50.05411" lon="2.19419">
        <ele>78.2</ele>
        <time>2023-10-04T14:02:08Z</time>
      </trkpt>
      <trkpt lat="50.05412" lon="2.19418">
        <ele>78.2</ele>
        <time>2023-10-04T14:02:09Z</time>
      </trkpt>
      <trkpt lat="50.05412" lon="2.19417">
        <ele>78.1</ele>
        <time>2023-10-04T14:02:10Z</time>
      </trkpt>
      <trkpt lat="50.05412" lon="2.19415">
        <ele>78.1</ele>
        <time>2023-10-04T14:02:11Z</time>
      </trkpt>
      <trkpt lat="50.05412" lon="2.19414">
        <ele>78.1</ele>
        <time>2023-10-04T14:02:12Z</time>
      </trkpt>
      <trkpt lat="50.05412" lon="2.19412">
        <ele>78.1</ele>
        <time>2023-10-04T14:02:13Z</time>
      </trkpt>
      <trkpt lat="50.05412" lon="2.19411">
        <ele>78</ele>
        <time>2023-10-04T14:02:14Z</time>
      </trkpt>
      <trkpt lat="50.05412" lon="2.19409">
        <ele>78</ele>
        <time>2023-10-04T14:02:15Z</time>
      </trkpt>
      <trkpt lat="50.05412" lon="2.19407">
        <ele>78</ele>
        <time>2023-10-04T14:02:16Z</time>
      </trkpt>
      <trkpt lat="50.05412" lon="2.19405">
        <ele>77.9</ele>
        <time>2023-10-04T14:02:17Z</time>
      </trkpt>
      <trkpt lat="50.05412" lon="2.19404">
        <ele>77.9</ele>
        <time>2023-10-04T14:02:18Z</time>
      </trkpt>
      <trkpt lat="50.05412" lon="2.19402">
        <ele>77.8</ele>
        <time>2023-10-04T14:02:19Z</time>
      </trkpt>
      <trkpt lat="50.05412" lon="2.194">
        <ele>77.8</ele>
        <time>2023-10-04T14:02:20Z</time>
      </trkpt>
      <trkpt lat="50.05412" lon="2.19398">
        <ele>77.8</ele>
        <time>2023-10-04T14:02:21Z</time>
      </trkpt>
      <trkpt lat="50.05411" lon="2.19397">
        <ele>77.7</ele>
        <time>2023-10-04T14:02:22Z</time>
      </trkpt>
      <trkpt lat="50.05411" lon="2.19395">
        <ele>77.7</ele>
        <time>2023-10-04T14:02:23Z</time>
      </trkpt>
      <trkpt lat="50.05411" lon="2.19394">
        <ele>77.7</ele>
        <time>2023-10-04T14:02:24Z</time>
      </trkpt>
      <trkpt lat="50.05411" lon="2.19392">
        <ele>77.6</ele>
        <time>2023-10-04T14:02:25Z</time>
      </trkpt>
      <trkpt lat="50.05411" lon="2.19391">
        <ele>77.6</ele>
        <time>2023-10-04T14:02:26Z</time>
      </trkpt>
      <trkpt lat="50.05411" lon="2.1939">
        <ele>77.6</ele>
        <time>2023-10-04T14:02:27Z</time>
      </trkpt>
      <trkpt lat="50.05411" lon="2.19388">
        <ele>77.6</ele>
        <time>2023-10-04T14:02:28Z</time>
      </trkpt>
      <trkpt lat="50.05411" lon="2.19387">
        <ele>77.6</ele>
        <time>2023-10-04T14:02:29Z</time>
      </trkpt>
      <trkpt lat="50.05411" lon="2.19385">
        <ele>77.5</ele>
        <time>2023-10-04T14:02:30Z</time>
      </trkpt>
      <trkpt lat="50.05411" lon="2.19384">
        <ele>77.5</ele>
        <time>2023-10-04T14:02:31Z</time>
      </trkpt>
      <trkpt lat="50.05411" lon="2.19382">
        <ele>77.5</ele>
        <time>2023-10-04T14:02:32Z</time>
      </trkpt>
      <trkpt lat="50.05411" lon="2.1938">
        <ele>77.4</ele>
        <time>2023-10-04T14:02:33Z</time>
      </trkpt>
      <trkpt lat="50.05411" lon="2.19378">
        <ele>77.4</ele>
        <time>2023-10-04T14:02:34Z</time>
      </trkpt>
      <trkpt lat="50.05411" lon="2.19376">
        <ele>77.4</ele>
        <time>2023-10-04T14:02:35Z</time>
      </trkpt>
      <trkpt lat="50.05411" lon="2.19375">
        <ele>77.3</ele>
        <time>2023-10-04T14:02:36Z</time>
      </trkpt>
      <trkpt lat="50.05411" lon="2.19373">
        <ele>77.3</ele>
        <time>2023-10-04T14:02:37Z</time>
      </trkpt>
      <trkpt lat="50.05411" lon="2.19371">
        <ele>77.3</ele>
        <time>2023-10-04T14:02:38Z</time>
      </trkpt>
      <trkpt lat="50.05411" lon="2.1937">
        <ele>77.3</ele>
        <time>2023-10-04T14:02:39Z</time>
      </trkpt>
      <trkpt lat="50.05411" lon="2.19368">
        <ele>77.2</ele>
        <time>2023-10-04T14:02:40Z</time>
      </trkpt>
      <trkpt lat="50.05411" lon="2.19366">
        <ele>77.2</ele>
        <time>2023-10-04T14:02:41Z</time>
      </trkpt>
      <trkpt lat="50.05411" lon="2.19365">
        <ele>77.2</ele>
        <time>2023-10-04T14:02:42Z</time>
      </trkpt>
      <trkpt lat="50.05411" lon="2.19363">
        <ele>77.2</ele>
        <time>2023-10-04T14:02:43Z</time>
      </trkpt>
      <trkpt lat="50.05411" lon="2.19362">
        <ele>77.1</ele>
        <time>2023-10-04T14:02:44Z</time>
      </trkpt>
      <trkpt lat="50.05411" lon="2.1936">
        <ele>77.1</ele>
        <time>2023-10-04T14:02:45Z</time>
      </trkpt>
      <trkpt lat="50.05411" lon="2.19358">
        <ele>77.1</ele>
        <time>2023-10-04T14:02:46Z</time>
      </trkpt>
      <trkpt lat="50.05411" lon="2.19357">
        <ele>77</ele>
        <time>2023-10-04T14:02:47Z</time>
      </trkpt>
      <trkpt lat="50.05411" lon="2.19355">
        <ele>77</ele>
        <time>2023-10-04T14:02:48Z</time>
      </trkpt>
      <trkpt lat="50.05411" lon="2.19353">
        <ele>77</ele>
        <time>2023-10-04T14:02:49Z</time>
      </trkpt>
      <trkpt lat="50.05411" lon="2.19351">
        <ele>76.9</ele>
        <time>2023-10-04T14:02:50Z</time>
      </trkpt>
      <trkpt lat="50.05411" lon="2.1935">
        <ele>76.9</ele>
        <time>2023-10-04T14:02:51Z</time>
      </trkpt>
      <trkpt lat="50.05411" lon="2.19348">
        <ele>76.9</ele>
        <time>2023-10-04T14:02:52Z</time>
      </trkpt>
      <trkpt lat="50.05411" lon="2.19347">
        <ele>76.8</ele>
        <time>2023-10-04T14:02:53Z</time>
      </trkpt>
      <trkpt lat="50.05411" lon="2.19346">
        <ele>76.8</ele>
        <time>2023-10-04T14:02:54Z</time>
      </trkpt>
      <trkpt lat="50.05412" lon="2.19344">
        <ele>76.8</ele>
        <time>2023-10-04T14:02:55Z</time>
      </trkpt>
      <trkpt lat="50.05412" lon="2.19342">
        <ele>76.7</ele>
        <time>2023-10-04T14:02:56Z</time>
      </trkpt>
      <trkpt lat="50.05412" lon="2.19341">
        <ele>76.7</ele>
        <time>2023-10-04T14:02:57Z</time>
      </trkpt>
      <trkpt lat="50.05412" lon="2.19339">
        <ele>76.7</ele>
        <time>2023-10-04T14:02:58Z</time>
      </trkpt>
      <trkpt lat="50.05412" lon="2.19338">
        <ele>76.6</ele>
        <time>2023-10-04T14:02:59Z</time>
      </trkpt>
      <trkpt lat="50.05412" lon="2.19336">
        <ele>76.6</ele>
        <time>2023-10-04T14:03:00Z</time>
      </trkpt>
      <trkpt lat="50.05412" lon="2.19335">
        <ele>76.6</ele>
        <time>2023-10-04T14:03:01Z</time>
      </trkpt>
      <trkpt lat="50.05413" lon="2.19334">
        <ele>76.5</ele>
        <time>2023-10-04T14:03:02Z</time>
      </trkpt>
      <trkpt lat="50.05413" lon="2.19332">
        <ele>76.5</ele>
        <time>2023-10-04T14:03:03Z</time>
      </trkpt>
      <trkpt lat="50.05413" lon="2.19331">
        <ele>76.5</ele>
        <time>2023-10-04T14:03:04Z</time>
      </trkpt>
      <trkpt lat="50.05413" lon="2.19329">
        <ele>76.4</ele>
        <time>2023-10-04T14:03:05Z</time>
      </trkpt>
      <trkpt lat="50.05413" lon="2.19328">
        <ele>76.4</ele>
        <time>2023-10-04T14:03:06Z</time>
      </trkpt>
      <trkpt lat="50.05414" lon="2.19326">
        <ele>76.3</ele>
        <time>2023-10-04T14:03:07Z</time>
      </trkpt>
      <trkpt lat="50.05414" lon="2.19325">
        <ele>76.3</ele>
        <time>2023-10-04T14:03:08Z</time>
      </trkpt>
      <trkpt lat="50.05414" lon="2.19323">
        <ele>76.3</ele>
        <time>2023-10-04T14:03:09Z</time>
      </trkpt>
      <trkpt lat="50.05414" lon="2.19322">
        <ele>76.2</ele>
        <time>2023-10-04T14:03:10Z</time>
      </trkpt>
      <trkpt lat="50.05414" lon="2.1932">
        <ele>76.2</ele>
        <time>2023-10-04T14:03:11Z</time>
      </trkpt>
      <trkpt lat="50.05414" lon="2.19319">
        <ele>76.2</ele>
        <time>2023-10-04T14:03:12Z</time>
      </trkpt>
      <trkpt lat="50.05415" lon="2.19317">
        <ele>76.1</ele>
        <time>2023-10-04T14:03:13Z</time>
      </trkpt>
      <trkpt lat="50.05415" lon="2.19315">
        <ele>76.1</ele>
        <time>2023-10-04T14:03:14Z</time>
      </trkpt>
      <trkpt lat="50.05415" lon="2.19314">
        <ele>76.1</ele>
        <time>2023-10-04T14:03:15Z</time>
      </trkpt>
      <trkpt lat="50.05415" lon="2.19312">
        <ele>76</ele>
        <time>2023-10-04T14:03:16Z</time>
      </trkpt>
      <trkpt lat="50.05415" lon="2.1931">
        <ele>76</ele>
        <time>2023-10-04T14:03:17Z</time>
      </trkpt>
      <trkpt lat="50.05415" lon="2.19309">
        <ele>75.9</ele>
        <time>2023-10-04T14:03:18Z</time>
      </trkpt>
      <trkpt lat="50.05415" lon="2.19307">
        <ele>75.9</ele>
        <time>2023-10-04T14:03:19Z</time>
      </trkpt>
      <trkpt lat="50.05416" lon="2.19306">
        <ele>75.9</ele>
        <time>2023-10-04T14:03:20Z</time>
      </trkpt>
      <trkpt lat="50.05416" lon="2.19304">
        <ele>75.8</ele>
        <time>2023-10-04T14:03:21Z</time>
      </trkpt>
      <trkpt lat="50.05416" lon="2.19303">
        <ele>75.8</ele>
        <time>2023-10-04T14:03:22Z</time>
      </trkpt>
      <trkpt lat="50.05416" lon="2.19302">
        <ele>75.8</ele>
        <time>2023-10-04T14:03:23Z</time>
      </trkpt>
      <trkpt lat="50.05416" lon="2.19301">
        <ele>75.8</ele>
        <time>2023-10-04T14:03:24Z</time>
      </trkpt>
      <trkpt lat="50.05416" lon="2.19299">
        <ele>75.7</ele>
        <time>2023-10-04T14:03:25Z</time>
      </trkpt>
      <trkpt lat="50.05416" lon="2.19298">
        <ele>75.7</ele>
        <time>2023-10-04T14:03:26Z</time>
      </trkpt>
      <trkpt lat="50.05417" lon="2.19296">
        <ele>75.7</ele>
        <time>2023-10-04T14:03:27Z</time>
      </trkpt>
      <trkpt lat="50.05417" lon="2.19295">
        <ele>75.6</ele>
        <time>2023-10-04T14:03:28Z</time>
      </trkpt>
      <trkpt lat="50.05417" lon="2.19294">
        <ele>75.6</ele>
        <time>2023-10-04T14:03:29Z</time>
      </trkpt>
      <trkpt lat="50.05417" lon="2.19292">
        <ele>75.6</ele>
        <time>2023-10-04T14:03:30Z</time>
      </trkpt>
      <trkpt lat="50.05417" lon="2.19291">
        <ele>75.6</ele>
        <time>2023-10-04T14:03:31Z</time>
      </trkpt>
      <trkpt lat="50.05418" lon="2.19289">
        <ele>75.5</ele>
        <time>2023-10-04T14:03:32Z</time>
      </trkpt>
      <trkpt lat="50.05418" lon="2.19288">
        <ele>75.5</ele>
        <time>2023-10-04T14:03:33Z</time>
      </trkpt>
      <trkpt lat="50.05418" lon="2.19286">
        <ele>75.5</ele>
        <time>2023-10-04T14:03:34Z</time>
      </trkpt>
      <trkpt lat="50.05418" lon="2.19284">
        <ele>75.4</ele>
        <time>2023-10-04T14:03:35Z</time>
      </trkpt>
      <trkpt lat="50.05419" lon="2.19283">
        <ele>75.4</ele>
        <time>2023-10-04T14:03:36Z</time>
      </trkpt>
      <trkpt lat="50.05419" lon="2.19282">
        <ele>75.4</ele>
        <time>2023-10-04T14:03:37Z</time>
      </trkpt>
      <trkpt lat="50.05419" lon="2.1928">
        <ele>75.4</ele>
        <time>2023-10-04T14:03:38Z</time>
      </trkpt>
      <trkpt lat="50.05419" lon="2.19279">
        <ele>75.3</ele>
        <time>2023-10-04T14:03:39Z</time>
      </trkpt>
      <trkpt lat="50.05419" lon="2.19277">
        <ele>75.3</ele>
        <time>2023-10-04T14:03:40Z</time>
      </trkpt>
      <trkpt lat="50.0542" lon="2.19276">
        <ele>75.3</ele>
        <time>2023-10-04T14:03:41Z</time>
      </trkpt>
      <trkpt lat="50.0542" lon="2.19274">
        <ele>75.3</ele>
        <time>2023-10-04T14:03:42Z</time>
      </trkpt>
      <trkpt lat="50.0542" lon="2.19273">
        <ele>75.3</ele>
        <time>2023-10-04T14:03:43Z</time>
      </trkpt>
      <trkpt lat="50.0542" lon="2.19271">
        <ele>75.3</ele>
        <time>2023-10-04T14:03:44Z</time>
      </trkpt>
      <trkpt lat="50.0542" lon="2.1927">
        <ele>75.2</ele>
        <time>2023-10-04T14:03:45Z</time>
      </trkpt>
      <trkpt lat="50.05421" lon="2.19269">
        <ele>75.2</ele>
        <time>2023-10-04T14:03:46Z</time>
      </trkpt>
      <trkpt lat="50.05421" lon="2.19267">
        <ele>75.2</ele>
        <time>2023-10-04T14:03:47Z</time>
      </trkpt>
      <trkpt lat="50.05421" lon="2.19266">
        <ele>75.2</ele>
        <time>2023-10-04T14:03:48Z</time>
      </trkpt>
      <trkpt lat="50.05421" lon="2.19264">
        <ele>75.2</ele>
        <time>2023-10-04T14:03:49Z</time>
      </trkpt>
      <trkpt lat="50.05421" lon="2.19263">
        <ele>75.2</ele>
        <time>2023-10-04T14:03:50Z</time>
      </trkpt>
      <trkpt lat="50.05421" lon="2.19261">
        <ele>75.2</ele>
        <time>2023-10-04T14:03:51Z</time>
      </trkpt>
      <trkpt lat="50.05421" lon="2.1926">
        <ele>75.1</ele>
        <time>2023-10-04T14:03:52Z</time>
      </trkpt>
      <trkpt lat="50.05421" lon="2.19258">
        <ele>75.1</ele>
        <time>2023-10-04T14:03:53Z</time>
      </trkpt>
      <trkpt lat="50.05422" lon="2.19257">
        <ele>75.1</ele>
        <time>2023-10-04T14:03:54Z</time>
      </trkpt>
      <trkpt lat="50.05422" lon="2.19255">
        <ele>75.1</ele>
        <time>2023-10-04T14:03:55Z</time>
      </trkpt>
      <trkpt lat="50.05422" lon="2.19254">
        <ele>75.1</ele>
        <time>2023-10-04T14:03:56Z</time>
      </trkpt>
      <trkpt lat="50.05422" lon="2.19253">
        <ele>75.1</ele>
        <time>2023-10-04T14:03:57Z</time>
      </trkpt>
      <trkpt lat="50.05422" lon="2.19251">
        <ele>75.1</ele>
        <time>2023-10-04T14:03:58Z</time>
      </trkpt>
      <trkpt lat="50.05422" lon="2.1925">
        <ele>75</ele>
        <time>2023-10-04T14:03:59Z</time>
      </trkpt>
      <trkpt lat="50.05422" lon="2.19248">
        <ele>75</ele>
        <time>2023-10-04T14:04:00Z</time>
      </trkpt>
      <trkpt lat="50.05423" lon="2.19247">
        <ele>75</ele>
        <time>2023-10-04T14:04:01Z</time>
      </trkpt>
      <trkpt lat="50.05423" lon="2.19245">
        <ele>75</ele>
        <time>2023-10-04T14:04:02Z</time>
      </trkpt>
      <trkpt lat="50.05423" lon="2.19244">
        <ele>75</ele>
        <time>2023-10-04T14:04:03Z</time>
      </trkpt>
      <trkpt lat="50.05424" lon="2.19242">
        <ele>75</ele>
        <time>2023-10-04T14:04:04Z</time>
      </trkpt>
      <trkpt lat="50.05424" lon="2.1924">
        <ele>74.9</ele>
        <time>2023-10-04T14:04:05Z</time>
      </trkpt>
      <trkpt lat="50.05424" lon="2.19238">
        <ele>74.9</ele>
        <time>2023-10-04T14:04:06Z</time>
      </trkpt>
      <trkpt lat="50.05424" lon="2.19237">
        <ele>74.9</ele>
        <time>2023-10-04T14:04:07Z</time>
      </trkpt>
      <trkpt lat="50.05425" lon="2.19235">
        <ele>74.9</ele>
        <time>2023-10-04T14:04:08Z</time>
      </trkpt>
      <trkpt lat="50.05425" lon="2.19233">
        <ele>74.9</ele>
        <time>2023-10-04T14:04:09Z</time>
      </trkpt>
      <trkpt lat="50.05425" lon="2.19232">
        <ele>74.9</ele>
        <time>2023-10-04T14:04:10Z</time>
      </trkpt>
      <trkpt lat="50.05426" lon="2.1923">
        <ele>74.8</ele>
        <time>2023-10-04T14:04:11Z</time>
      </trkpt>
      <trkpt lat="50.05426" lon="2.19228">
        <ele>74.8</ele>
        <time>2023-10-04T14:04:12Z</time>
      </trkpt>
      <trkpt lat="50.05426" lon="2.19227">
        <ele>74.8</ele>
        <time>2023-10-04T14:04:13Z</time>
      </trkpt>
      <trkpt lat="50.05426" lon="2.19225">
        <ele>74.8</ele>
        <time>2023-10-04T14:04:14Z</time>
      </trkpt>
      <trkpt lat="50.05427" lon="2.19223">
        <ele>74.8</ele>
        <time>2023-10-04T14:04:15Z</time>
      </trkpt>
      <trkpt lat="50.05427" lon="2.19221">
        <ele>74.8</ele>
        <time>2023-10-04T14:04:16Z</time>
      </trkpt>
      <trkpt lat="50.05427" lon="2.1922">
        <ele>74.8</ele>
        <time>2023-10-04T14:04:17Z</time>
      </trkpt>
      <trkpt lat="50.05428" lon="2.19218">
        <ele>74.8</ele>
        <time>2023-10-04T14:04:18Z</time>
      </trkpt>
      <trkpt lat="50.05428" lon="2.19216">
        <ele>74.7</ele>
        <time>2023-10-04T14:04:19Z</time>
      </trkpt>
      <trkpt lat="50.05428" lon="2.19215">
        <ele>74.7</ele>
        <time>2023-10-04T14:04:20Z</time>
      </trkpt>
      <trkpt lat="50.05428" lon="2.19213">
        <ele>74.7</ele>
        <time>2023-10-04T14:04:21Z</time>
      </trkpt>
      <trkpt lat="50.05428" lon="2.19211">
        <ele>74.7</ele>
        <time>2023-10-04T14:04:22Z</time>
      </trkpt>
      <trkpt lat="50.05428" lon="2.1921">
        <ele>74.7</ele>
        <time>2023-10-04T14:04:23Z</time>
      </trkpt>
      <trkpt lat="50.05428" lon="2.19208">
        <ele>74.7</ele>
        <time>2023-10-04T14:04:24Z</time>
      </trkpt>
      <trkpt lat="50.05428" lon="2.19206">
        <ele>74.6</ele>
        <time>2023-10-04T14:04:25Z</time>
      </trkpt>
      <trkpt lat="50.05428" lon="2.19205">
        <ele>74.6</ele>
        <time>2023-10-04T14:04:26Z</time>
      </trkpt>
      <trkpt lat="50.05428" lon="2.19204">
        <ele>74.6</ele>
        <time>2023-10-04T14:04:27Z</time>
      </trkpt>
      <trkpt lat="50.05428" lon="2.19202">
        <ele>74.6</ele>
        <time>2023-10-04T14:04:28Z</time>
      </trkpt>
      <trkpt lat="50.05428" lon="2.19201">
        <ele>74.6</ele>
        <time>2023-10-04T14:04:29Z</time>
      </trkpt>
      <trkpt lat="50.05428" lon="2.19199">
        <ele>74.5</ele>
        <time>2023-10-04T14:04:30Z</time>
      </trkpt>
      <trkpt lat="50.05429" lon="2.19198">
        <ele>74.5</ele>
        <time>2023-10-04T14:04:31Z</time>
      </trkpt>
      <trkpt lat="50.05429" lon="2.19197">
        <ele>74.5</ele>
        <time>2023-10-04T14:04:32Z</time>
      </trkpt>
      <trkpt lat="50.05429" lon="2.19195">
        <ele>74.5</ele>
        <time>2023-10-04T14:04:33Z</time>
      </trkpt>
      <trkpt lat="50.05429" lon="2.19194">
        <ele>74.5</ele>
        <time>2023-10-04T14:04:34Z</time>
      </trkpt>
      <trkpt lat="50.05429" lon="2.19193">
        <ele>74.5</ele>
        <time>2023-10-04T14:04:35Z</time>
      </trkpt>
      <trkpt lat="50.05429" lon="2.19192">
        <ele>74.4</ele>
        <time>2023-10-04T14:04:36Z</time>
      </trkpt>
      <trkpt lat="50.0543" lon="2.1919">
        <ele>74.4</ele>
        <time>2023-10-04T14:04:37Z</time>
      </trkpt>
      <trkpt lat="50.0543" lon="2.19189">
        <ele>74.4</ele>
        <time>2023-10-04T14:04:38Z</time>
      </trkpt>
      <trkpt lat="50.0543" lon="2.19188">
        <ele>74.4</ele>
        <time>2023-10-04T14:04:39Z</time>
      </trkpt>
      <trkpt lat="50.0543" lon="2.19187">
        <ele>74.4</ele>
        <time>2023-10-04T14:04:40Z</time>
      </trkpt>
      <trkpt lat="50.05429" lon="2.19185">
        <ele>74.4</ele>
        <time>2023-10-04T14:04:41Z</time>
      </trkpt>
      <trkpt lat="50.05429" lon="2.19184">
        <ele>74.3</ele>
        <time>2023-10-04T14:04:42Z</time>
      </trkpt>
      <trkpt lat="50.05429" lon="2.19184">
        <ele>74.3</ele>
        <time>2023-10-04T14:04:43Z</time>
      </trkpt>
      <trkpt lat="50.05428" lon="2.19183">
        <ele>74.3</ele>
        <time>2023-10-04T14:04:44Z</time>
      </trkpt>
      <trkpt lat="50.05428" lon="2.19183">
        <ele>74.3</ele>
        <time>2023-10-04T14:04:45Z</time>
      </trkpt>
      <trkpt lat="50.05428" lon="2.19183">
        <ele>74.3</ele>
        <time>2023-10-04T14:04:46Z</time>
      </trkpt>
      <trkpt lat="50.05428" lon="2.19183">
        <ele>74.3</ele>
        <time>2023-10-04T14:04:47Z</time>
      </trkpt>
      <trkpt lat="50.05428" lon="2.19183">
        <ele>74.3</ele>
        <time>2023-10-04T14:04:48Z</time>
      </trkpt>
      <trkpt lat="50.05428" lon="2.19183">
        <ele>74.3</ele>
        <time>2023-10-04T14:04:49Z</time>
      </trkpt>
      <trkpt lat="50.05428" lon="2.19184">
        <ele>74.3</ele>
        <time>2023-10-04T14:04:50Z</time>
      </trkpt>
      <trkpt lat="50.05428" lon="2.19184">
        <ele>74.3</ele>
        <time>2023-10-04T14:04:51Z</time>
      </trkpt>
      <trkpt lat="50.05428" lon="2.19184">
        <ele>74.3</ele>
        <time>2023-10-04T14:04:52Z</time>
      </trkpt>
      <trkpt lat="50.05428" lon="2.19184">
        <ele>74.3</ele>
        <time>2023-10-04T14:04:53Z</time>
      </trkpt>
      <trkpt lat="50.05428" lon="2.19184">
        <ele>74.3</ele>
        <time>2023-10-04T14:04:54Z</time>
      </trkpt>
      <trkpt lat="50.05428" lon="2.19184">
        <ele>74.3</ele>
        <time>2023-10-04T14:04:55Z</time>
      </trkpt>
      <trkpt lat="50.05428" lon="2.19184">
        <ele>74.3</ele>
        <time>2023-10-04T14:04:56Z</time>
      </trkpt>
      <trkpt lat="50.05428" lon="2.19184">
        <ele>74.3</ele>
        <time>2023-10-04T14:04:57Z</time>
      </trkpt>
      <trkpt lat="50.05428" lon="2.19184">
        <ele>74.3</ele>
        <time>2023-10-04T14:04:58Z</time>
      </trkpt>
      <trkpt lat="50.05428" lon="2.19184">
        <ele>74.3</ele>
        <time>2023-10-04T14:04:59Z</time>
      </trkpt>
      <trkpt lat="50.05428" lon="2.19184">
        <ele>74.3</ele>
        <time>2023-10-04T14:05:00Z</time>
      </trkpt>
      <trkpt lat="50.05428" lon="2.19184">
        <ele>74.3</ele>
        <time>2023-10-04T14:05:01Z</time>
      </trkpt>
      <trkpt lat="50.05428" lon="2.19184">
        <ele>74.3</ele>
        <time>2023-10-04T14:05:02Z</time>
      </trkpt>
      <trkpt lat="50.05428" lon="2.19184">
        <ele>74.3</ele>
        <time>2023-10-04T14:05:03Z</time>
      </trkpt>
      <trkpt lat="50.05428" lon="2.19184">
        <ele>74.3</ele>
        <time>2023-10-04T14:05:04Z</time>
      </trkpt>
      <trkpt lat="50.05428" lon="2.19184">
        <ele>74.3</ele>
        <time>2023-10-04T14:05:05Z</time>
      </trkpt>
      <trkpt lat="50.05428" lon="2.19184">
        <ele>74.3</ele>
        <time>2023-10-04T14:05:06Z</time>
      </trkpt>
      <trkpt lat="50.05428" lon="2.19184">
        <ele>74.3</ele>
        <time>2023-10-04T14:05:07Z</time>
      </trkpt>
      <trkpt lat="50.05428" lon="2.19184">
        <ele>74.3</ele>
        <time>2023-10-04T14:05:08Z</time>
      </trkpt>
      <trkpt lat="50.05428" lon="2.19184">
        <ele>74.3</ele>
        <time>2023-10-04T14:05:09Z</time>
      </trkpt>
      <trkpt lat="50.05428" lon="2.19184">
        <ele>74.3</ele>
        <time>2023-10-04T14:05:10Z</time>
      </trkpt>
      <trkpt lat="50.05428" lon="2.19184">
        <ele>74.3</ele>
        <time>2023-10-04T14:05:11Z</time>
      </trkpt>
      <trkpt lat="50.05428" lon="2.19184">
        <ele>74.3</ele>
        <time>2023-10-04T14:05:12Z</time>
      </trkpt>
      <trkpt lat="50.05428" lon="2.19184">
        <ele>74.3</ele>
        <time>2023-10-04T14:05:13Z</time>
      </trkpt>
      <trkpt lat="50.05428" lon="2.19184">
        <ele>74.3</ele>
        <time>2023-10-04T14:05:14Z</time>
      </trkpt>
      <trkpt lat="50.05428" lon="2.19184">
        <ele>74.3</ele>
        <time>2023-10-04T14:05:15Z</time>
      </trkpt>
      <trkpt lat="50.05428" lon="2.19184">
        <ele>74.3</ele>
        <time>2023-10-04T14:05:16Z</time>
      </trkpt>
      <trkpt lat="50.05428" lon="2.19184">
        <ele>74.3</ele>
        <time>2023-10-04T14:05:17Z</time>
      </trkpt>
      <trkpt lat="50.05428" lon="2.19184">
        <ele>74.3</ele>
        <time>2023-10-04T14:05:18Z</time>
      </trkpt>
      <trkpt lat="50.05428" lon="2.19184">
        <ele>74.3</ele>
        <time>2023-10-04T14:05:19Z</time>
      </trkpt>
      <trkpt lat="50.05428" lon="2.19184">
        <ele>74.3</ele>
        <time>2023-10-04T14:05:20Z</time>
      </trkpt>
      <trkpt lat="50.05428" lon="2.19184">
        <ele>74.3</ele>
        <time>2023-10-04T14:05:21Z</time>
      </trkpt>
      <trkpt lat="50.05428" lon="2.19184">
        <ele>74.3</ele>
        <time>2023-10-04T14:05:22Z</time>
      </trkpt>
      <trkpt lat="50.05428" lon="2.19184">
        <ele>74.3</ele>
        <time>2023-10-04T14:05:23Z</time>
      </trkpt>
      <trkpt lat="50.05428" lon="2.19184">
        <ele>74.3</ele>
        <time>2023-10-04T14:05:24Z</time>
      </trkpt>
      <trkpt lat="50.05428" lon="2.19184">
        <ele>74.3</ele>
        <time>2023-10-04T14:05:25Z</time>
      </trkpt>
      <trkpt lat="50.05428" lon="2.19184">
        <ele>74.3</ele>
        <time>2023-10-04T14:05:26Z</time>
      </trkpt>
      <trkpt lat="50.05428" lon="2.19184">
        <ele>74.3</ele>
        <time>2023-10-04T14:05:27Z</time>
      </trkpt>
      <trkpt lat="50.05428" lon="2.19184">
        <ele>74.3</ele>
        <time>2023-10-04T14:05:28Z</time>
      </trkpt>
      <trkpt lat="50.05428" lon="2.19184">
        <ele>74.3</ele>
        <time>2023-10-04T14:05:29Z</time>
      </trkpt>
      <trkpt lat="50.05428" lon="2.19184">
        <ele>74.3</ele>
        <time>2023-10-04T14:05:30Z</time>
      </trkpt>
      <trkpt lat="50.05428" lon="2.19184">
        <ele>74.3</ele>
        <time>2023-10-04T14:05:31Z</time>
      </trkpt>
      <trkpt lat="50.05428" lon="2.19184">
        <ele>74.3</ele>
        <time>2023-10-04T14:05:32Z</time>
      </trkpt>
      <trkpt lat="50.05428" lon="2.19184">
        <ele>74.3</ele>
        <time>2023-10-04T14:05:33Z</time>
      </trkpt>
      <trkpt lat="50.05428" lon="2.19184">
        <ele>74.3</ele>
        <time>2023-10-04T14:05:34Z</time>
      </trkpt>
      <trkpt lat="50.05428" lon="2.19184">
        <ele>74.3</ele>
        <time>2023-10-04T14:05:35Z</time>
      </trkpt>
      <trkpt lat="50.05428" lon="2.19184">
        <ele>74.3</ele>
        <time>2023-10-04T14:05:36Z</time>
      </trkpt>
      <trkpt lat="50.05428" lon="2.19184">
        <ele>74.3</ele>
        <time>2023-10-04T14:05:37Z</time>
      </trkpt>
      <trkpt lat="50.05428" lon="2.19184">
        <ele>74.3</ele>
        <time>2023-10-04T14:05:38Z</time>
      </trkpt>
      <trkpt lat="50.05428" lon="2.19184">
        <ele>74.3</ele>
        <time>2023-10-04T14:05:39Z</time>
      </trkpt>
      <trkpt lat="50.05428" lon="2.19184">
        <ele>74.3</ele>
        <time>2023-10-04T14:05:40Z</time>
      </trkpt>
      <trkpt lat="50.05428" lon="2.19184">
        <ele>74.3</ele>
        <time>2023-10-04T14:05:41Z</time>
      </trkpt>
      <trkpt lat="50.05428" lon="2.19184">
        <ele>74.3</ele>
        <time>2023-10-04T14:05:42Z</time>
      </trkpt>
      <trkpt lat="50.05428" lon="2.19184">
        <ele>74.3</ele>
        <time>2023-10-04T14:05:43Z</time>
      </trkpt>
      <trkpt lat="50.05428" lon="2.19184">
        <ele>74.3</ele>
        <time>2023-10-04T14:05:44Z</time>
      </trkpt>
      <trkpt lat="50.05428" lon="2.19184">
        <ele>74.3</ele>
        <time>2023-10-04T14:05:45Z</time>
      </trkpt>
      <trkpt lat="50.05428" lon="2.19184">
        <ele>74.3</ele>
        <time>2023-10-04T14:05:46Z</time>
      </trkpt>
      <trkpt lat="50.05428" lon="2.19184">
        <ele>74.3</ele>
        <time>2023-10-04T14:05:47Z</time>
      </trkpt>
      <trkpt lat="50.05428" lon="2.19184">
        <ele>74.3</ele>
        <time>2023-10-04T14:05:48Z</time>
      </trkpt>
      <trkpt lat="50.05428" lon="2.19184">
        <ele>74.3</ele>
        <time>2023-10-04T14:05:49Z</time>
      </trkpt>
      <trkpt lat="50.05428" lon="2.19184">
        <ele>74.3</ele>
        <time>2023-10-04T14:05:50Z</time>
      </trkpt>
      <trkpt lat="50.05428" lon="2.19184">
        <ele>74.3</ele>
        <time>2023-10-04T14:05:51Z</time>
      </trkpt>
      <trkpt lat="50.05428" lon="2.19184">
        <ele>74.3</ele>
        <time>2023-10-04T14:05:52Z</time>
      </trkpt>
      <trkpt lat="50.05428" lon="2.19184">
        <ele>74.3</ele>
        <time>2023-10-04T14:05:53Z</time>
      </trkpt>
      <trkpt lat="50.05428" lon="2.19184">
        <ele>74.3</ele>
        <time>2023-10-04T14:05:54Z</time>
      </trkpt>
      <trkpt lat="50.05428" lon="2.19184">
        <ele>74.3</ele>
        <time>2023-10-04T14:05:55Z</time>
      </trkpt>
      <trkpt lat="50.05428" lon="2.19184">
        <ele>74.3</ele>
        <time>2023-10-04T14:05:56Z</time>
      </trkpt>
      <trkpt lat="50.05428" lon="2.19184">
        <ele>74.3</ele>
        <time>2023-10-04T14:05:57Z</time>
      </trkpt>
      <trkpt lat="50.05428" lon="2.19184">
        <ele>74.3</ele>
        <time>2023-10-04T14:05:58Z</time>
      </trkpt>
      <trkpt lat="50.05428" lon="2.19184">
        <ele>74.3</ele>
        <time>2023-10-04T14:05:59Z</time>
      </trkpt>
      <trkpt lat="50.05428" lon="2.19184">
        <ele>74.3</ele>
        <time>2023-10-04T14:06:00Z</time>
      </trkpt>
      <trkpt lat="50.05428" lon="2.19184">
        <ele>74.3</ele>
        <time>2023-10-04T14:06:01Z</time>
      </trkpt>
      <trkpt lat="50.05428" lon="2.19184">
        <ele>74.3</ele>
        <time>2023-10-04T14:06:02Z</time>
      </trkpt>
      <trkpt lat="50.05428" lon="2.19184">
        <ele>74.3</ele>
        <time>2023-10-04T14:06:03Z</time>
      </trkpt>
      <trkpt lat="50.05428" lon="2.19184">
        <ele>74.3</ele>
        <time>2023-10-04T14:06:04Z</time>
      </trkpt>
      <trkpt lat="50.05428" lon="2.19184">
        <ele>74.3</ele>
        <time>2023-10-04T14:06:05Z</time>
      </trkpt>
      <trkpt lat="50.05428" lon="2.19184">
        <ele>74.3</ele>
        <time>2023-10-04T14:06:06Z</time>
      </trkpt>
      <trkpt lat="50.05428" lon="2.19184">
        <ele>74.3</ele>
        <time>2023-10-04T14:06:07Z</time>
      </trkpt>
      <trkpt lat="50.05428" lon="2.19184">
        <ele>74.3</ele>
        <time>2023-10-04T14:06:08Z</time>
      </trkpt>
      <trkpt lat="50.05428" lon="2.19184">
        <ele>74.3</ele>
        <time>2023-10-04T14:06:09Z</time>
      </trkpt>
      <trkpt lat="50.05428" lon="2.19184">
        <ele>74.3</ele>
        <time>2023-10-04T14:06:10Z</time>
      </trkpt>
      <trkpt lat="50.05428" lon="2.19184">
        <ele>74.3</ele>
        <time>2023-10-04T14:06:11Z</time>
      </trkpt>
      <trkpt lat="50.05428" lon="2.19184">
        <ele>74.3</ele>
        <time>2023-10-04T14:06:12Z</time>
      </trkpt>
      <trkpt lat="50.05428" lon="2.19187">
        <ele>74.3</ele>
        <time>2023-10-04T14:06:13Z</time>
      </trkpt>
      <trkpt lat="50.05428" lon="2.19187">
        <ele>74.3</ele>
        <time>2023-10-04T14:06:14Z</time>
      </trkpt>
      <trkpt lat="50.05427" lon="2.19188">
        <ele>74.2</ele>
        <time>2023-10-04T14:06:15Z</time>
      </trkpt>
      <trkpt lat="50.05427" lon="2.19188">
        <ele>74.2</ele>
        <time>2023-10-04T14:06:16Z</time>
      </trkpt>
      <trkpt lat="50.05427" lon="2.19188">
        <ele>74.2</ele>
        <time>2023-10-04T14:06:17Z</time>
      </trkpt>
      <trkpt lat="50.05427" lon="2.19188">
        <ele>74.2</ele>
        <time>2023-10-04T14:06:18Z</time>
      </trkpt>
      <trkpt lat="50.05427" lon="2.19188">
        <ele>74.2</ele>
        <time>2023-10-04T14:06:19Z</time>
      </trkpt>
      <trkpt lat="50.05427" lon="2.19188">
        <ele>74.2</ele>
        <time>2023-10-04T14:06:20Z</time>
      </trkpt>
      <trkpt lat="50.05427" lon="2.19188">
        <ele>74.2</ele>
        <time>2023-10-04T14:06:21Z</time>
      </trkpt>
      <trkpt lat="50.05427" lon="2.19188">
        <ele>74.2</ele>
        <time>2023-10-04T14:06:22Z</time>
      </trkpt>
      <trkpt lat="50.05427" lon="2.19188">
        <ele>74.2</ele>
        <time>2023-10-04T14:06:23Z</time>
      </trkpt>
      <trkpt lat="50.05427" lon="2.19188">
        <ele>74.2</ele>
        <time>2023-10-04T14:06:24Z</time>
      </trkpt>
      <trkpt lat="50.05427" lon="2.19188">
        <ele>74.2</ele>
        <time>2023-10-04T14:06:25Z</time>
      </trkpt>
      <trkpt lat="50.05427" lon="2.19188">
        <ele>74.2</ele>
        <time>2023-10-04T14:06:26Z</time>
      </trkpt>
      <trkpt lat="50.05427" lon="2.19188">
        <ele>74.2</ele>
        <time>2023-10-04T14:06:27Z</time>
      </trkpt>
      <trkpt lat="50.05427" lon="2.19188">
        <ele>74.2</ele>
        <time>2023-10-04T14:06:28Z</time>
      </trkpt>
      <trkpt lat="50.05427" lon="2.19188">
        <ele>74.2</ele>
        <time>2023-10-04T14:06:29Z</time>
      </trkpt>
      <trkpt lat="50.05427" lon="2.19188">
        <ele>74.2</ele>
        <time>2023-10-04T14:06:30Z</time>
      </trkpt>
      <trkpt lat="50.05427" lon="2.19188">
        <ele>74.2</ele>
        <time>2023-10-04T14:06:31Z</time>
      </trkpt>
      <trkpt lat="50.05427" lon="2.19188">
        <ele>74.2</ele>
        <time>2023-10-04T14:06:32Z</time>
      </trkpt>
      <trkpt lat="50.05427" lon="2.19188">
        <ele>74.2</ele>
        <time>2023-10-04T14:06:33Z</time>
      </trkpt>
      <trkpt lat="50.05427" lon="2.19188">
        <ele>74.2</ele>
        <time>2023-10-04T14:06:34Z</time>
      </trkpt>
      <trkpt lat="50.05427" lon="2.19188">
        <ele>74.2</ele>
        <time>2023-10-04T14:06:35Z</time>
      </trkpt>
      <trkpt lat="50.05427" lon="2.19188">
        <ele>74.2</ele>
        <time>2023-10-04T14:06:36Z</time>
      </trkpt>
      <trkpt lat="50.05427" lon="2.19188">
        <ele>74.2</ele>
        <time>2023-10-04T14:06:37Z</time>
      </trkpt>
      <trkpt lat="50.05427" lon="2.19188">
        <ele>74.2</ele>
        <time>2023-10-04T14:06:38Z</time>
      </trkpt>
      <trkpt lat="50.05427" lon="2.19188">
        <ele>74.2</ele>
        <time>2023-10-04T14:06:39Z</time>
      </trkpt>
      <trkpt lat="50.05427" lon="2.19188">
        <ele>74.2</ele>
        <time>2023-10-04T14:06:40Z</time>
      </trkpt>
      <trkpt lat="50.05427" lon="2.19188">
        <ele>74.2</ele>
        <time>2023-10-04T14:06:41Z</time>
      </trkpt>
      <trkpt lat="50.05427" lon="2.19188">
        <ele>74.2</ele>
        <time>2023-10-04T14:06:42Z</time>
      </trkpt>
      <trkpt lat="50.05427" lon="2.19188">
        <ele>74.2</ele>
        <time>2023-10-04T14:06:43Z</time>
      </trkpt>
      <trkpt lat="50.05427" lon="2.19188">
        <ele>74.2</ele>
        <time>2023-10-04T14:06:44Z</time>
      </trkpt>
      <trkpt lat="50.05427" lon="2.19188">
        <ele>74.2</ele>
        <time>2023-10-04T14:06:45Z</time>
      </trkpt>
      <trkpt lat="50.05427" lon="2.19188">
        <ele>74.2</ele>
        <time>2023-10-04T14:06:46Z</time>
      </trkpt>
      <trkpt lat="50.05427" lon="2.19188">
        <ele>74.2</ele>
        <time>2023-10-04T14:06:47Z</time>
      </trkpt>
      <trkpt lat="50.05427" lon="2.19188">
        <ele>74.2</ele>
        <time>2023-10-04T14:06:48Z</time>
      </trkpt>
      <trkpt lat="50.05427" lon="2.19188">
        <ele>74.2</ele>
        <time>2023-10-04T14:06:49Z</time>
      </trkpt>
      <trkpt lat="50.05427" lon="2.19188">
        <ele>74.2</ele>
        <time>2023-10-04T14:06:50Z</time>
      </trkpt>
      <trkpt lat="50.05427" lon="2.19188">
        <ele>74.2</ele>
        <time>2023-10-04T14:06:51Z</time>
      </trkpt>
      <trkpt lat="50.05427" lon="2.19188">
        <ele>74.2</ele>
        <time>2023-10-04T14:06:52Z</time>
      </trkpt>
      <trkpt lat="50.05427" lon="2.19188">
        <ele>74.2</ele>
        <time>2023-10-04T14:06:53Z</time>
      </trkpt>
      <trkpt lat="50.05427" lon="2.19188">
        <ele>74.2</ele>
        <time>2023-10-04T14:06:54Z</time>
      </trkpt>
      <trkpt lat="50.05427" lon="2.19188">
        <ele>74.2</ele>
        <time>2023-10-04T14:06:55Z</time>
      </trkpt>
      <trkpt lat="50.05427" lon="2.19188">
        <ele>74.2</ele>
        <time>2023-10-04T14:06:56Z</time>
      </trkpt>
      <trkpt lat="50.05427" lon="2.19188">
        <ele>74.2</ele>
        <time>2023-10-04T14:06:57Z</time>
      </trkpt>
      <trkpt lat="50.05427" lon="2.19188">
        <ele>74.2</ele>
        <time>2023-10-04T14:06:58Z</time>
      </trkpt>
      <trkpt lat="50.05427" lon="2.19188">
        <ele>74.2</ele>
        <time>2023-10-04T14:06:59Z</time>
      </trkpt>
      <trkpt lat="50.05427" lon="2.19188">
        <ele>74.2</ele>
        <time>2023-10-04T14:07:00Z</time>
      </trkpt>
      <trkpt lat="50.05427" lon="2.19188">
        <ele>74.2</ele>
        <time>2023-10-04T14:07:01Z</time>
      </trkpt>
      <trkpt lat="50.05427" lon="2.19188">
        <ele>74.2</ele>
        <time>2023-10-04T14:07:02Z</time>
      </trkpt>
      <trkpt lat="50.05427" lon="2.19188">
        <ele>74.2</ele>
        <time>2023-10-04T14:07:03Z</time>
      </trkpt>
      <trkpt lat="50.05427" lon="2.19188">
        <ele>74.2</ele>
        <time>2023-10-04T14:07:04Z</time>
      </trkpt>
      <trkpt lat="50.05427" lon="2.19188">
        <ele>74.2</ele>
        <time>2023-10-04T14:07:05Z</time>
      </trkpt>
      <trkpt lat="50.05427" lon="2.19188">
        <ele>74.2</ele>
        <time>2023-10-04T14:07:06Z</time>
      </trkpt>
      <trkpt lat="50.05427" lon="2.19188">
        <ele>74.2</ele>
        <time>2023-10-04T14:07:07Z</time>
      </trkpt>
      <trkpt lat="50.05427" lon="2.19188">
        <ele>74.2</ele>
        <time>2023-10-04T14:07:08Z</time>
      </trkpt>
      <trkpt lat="50.05427" lon="2.19188">
        <ele>74.2</ele>
        <time>2023-10-04T14:07:09Z</time>
      </trkpt>
      <trkpt lat="50.05427" lon="2.19188">
        <ele>74.2</ele>
        <time>2023-10-04T14:07:10Z</time>
      </trkpt>
      <trkpt lat="50.05427" lon="2.19188">
        <ele>74.2</ele>
        <time>2023-10-04T14:07:11Z</time>
      </trkpt>
      <trkpt lat="50.05426" lon="2.19188">
        <ele>74.2</ele>
        <time>2023-10-04T14:07:12Z</time>
      </trkpt>
      <trkpt lat="50.05426" lon="2.19188">
        <ele>74.2</ele>
        <time>2023-10-04T14:07:13Z</time>
      </trkpt>
      <trkpt lat="50.05426" lon="2.19187">
        <ele>74.2</ele>
        <time>2023-10-04T14:07:14Z</time>
      </trkpt>
      <trkpt lat="50.05425" lon="2.19187">
        <ele>74.2</ele>
        <time>2023-10-04T14:07:15Z</time>
      </trkpt>
      <trkpt lat="50.05425" lon="2.19187">
        <ele>74.2</ele>
        <time>2023-10-04T14:07:16Z</time>
      </trkpt>
      <trkpt lat="50.05426" lon="2.19187">
        <ele>74.2</ele>
        <time>2023-10-04T14:07:17Z</time>
      </trkpt>
      <trkpt lat="50.05425" lon="2.19187">
        <ele>74.2</ele>
        <time>2023-10-04T14:07:18Z</time>
      </trkpt>
      <trkpt lat="50.05425" lon="2.19188">
        <ele>74.2</ele>
        <time>2023-10-04T14:07:19Z</time>
      </trkpt>
      <trkpt lat="50.05425" lon="2.19188">
        <ele>74.2</ele>
        <time>2023-10-04T14:07:20Z</time>
      </trkpt>
      <trkpt lat="50.05425" lon="2.19188">
        <ele>74.2</ele>
        <time>2023-10-04T14:07:21Z</time>
      </trkpt>
      <trkpt lat="50.05425" lon="2.19188">
        <ele>74.2</ele>
        <time>2023-10-04T14:07:22Z</time>
      </trkpt>
      <trkpt lat="50.05425" lon="2.19188">
        <ele>74.2</ele>
        <time>2023-10-04T14:07:23Z</time>
      </trkpt>
      <trkpt lat="50.05425" lon="2.19188">
        <ele>74.2</ele>
        <time>2023-10-04T14:07:24Z</time>
      </trkpt>
      <trkpt lat="50.05425" lon="2.19188">
        <ele>74.2</ele>
        <time>2023-10-04T14:07:25Z</time>
      </trkpt>
      <trkpt lat="50.05425" lon="2.19188">
        <ele>74.2</ele>
        <time>2023-10-04T14:07:26Z</time>
      </trkpt>
      <trkpt lat="50.05425" lon="2.19188">
        <ele>74.2</ele>
        <time>2023-10-04T14:07:27Z</time>
      </trkpt>
      <trkpt lat="50.05425" lon="2.19188">
        <ele>74.2</ele>
        <time>2023-10-04T14:07:28Z</time>
      </trkpt>
      <trkpt lat="50.05425" lon="2.19188">
        <ele>74.2</ele>
        <time>2023-10-04T14:07:29Z</time>
      </trkpt>
      <trkpt lat="50.05425" lon="2.19188">
        <ele>74.2</ele>
        <time>2023-10-04T14:07:30Z</time>
      </trkpt>
      <trkpt lat="50.05425" lon="2.19188">
        <ele>74.2</ele>
        <time>2023-10-04T14:07:31Z</time>
      </trkpt>
      <trkpt lat="50.05425" lon="2.19188">
        <ele>74.2</ele>
        <time>2023-10-04T14:07:32Z</time>
      </trkpt>
      <trkpt lat="50.05425" lon="2.19188">
        <ele>74.2</ele>
        <time>2023-10-04T14:07:33Z</time>
      </trkpt>
      <trkpt lat="50.05425" lon="2.19188">
        <ele>74.2</ele>
        <time>2023-10-04T14:07:34Z</time>
      </trkpt>
      <trkpt lat="50.05425" lon="2.19188">
        <ele>74.2</ele>
        <time>2023-10-04T14:07:35Z</time>
      </trkpt>
      <trkpt lat="50.05425" lon="2.19188">
        <ele>74.2</ele>
        <time>2023-10-04T14:07:36Z</time>
      </trkpt>
      <trkpt lat="50.05425" lon="2.19188">
        <ele>74.2</ele>
        <time>2023-10-04T14:07:37Z</time>
      </trkpt>
      <trkpt lat="50.05425" lon="2.19188">
        <ele>74.2</ele>
        <time>2023-10-04T14:07:38Z</time>
      </trkpt>
      <trkpt lat="50.05425" lon="2.19188">
        <ele>74.2</ele>
        <time>2023-10-04T14:07:39Z</time>
      </trkpt>
      <trkpt lat="50.05425" lon="2.19188">
        <ele>74.2</ele>
        <time>2023-10-04T14:07:40Z</time>
      </trkpt>
      <trkpt lat="50.05425" lon="2.19188">
        <ele>74.2</ele>
        <time>2023-10-04T14:07:41Z</time>
      </trkpt>
      <trkpt lat="50.05425" lon="2.19188">
        <ele>74.2</ele>
        <time>2023-10-04T14:07:42Z</time>
      </trkpt>
      <trkpt lat="50.05425" lon="2.19188">
        <ele>74.2</ele>
        <time>2023-10-04T14:07:43Z</time>
      </trkpt>
      <trkpt lat="50.05425" lon="2.19188">
        <ele>74.2</ele>
        <time>2023-10-04T14:07:44Z</time>
      </trkpt>
      <trkpt lat="50.05426" lon="2.19187">
        <ele>74.1</ele>
        <time>2023-10-04T14:07:45Z</time>
      </trkpt>
      <trkpt lat="50.05426" lon="2.19186">
        <ele>74.1</ele>
        <time>2023-10-04T14:07:46Z</time>
      </trkpt>
      <trkpt lat="50.05426" lon="2.19186">
        <ele>74.1</ele>
        <time>2023-10-04T14:07:47Z</time>
      </trkpt>
      <trkpt lat="50.05427" lon="2.19185">
        <ele>74.1</ele>
        <time>2023-10-04T14:07:48Z</time>
      </trkpt>
      <trkpt lat="50.05427" lon="2.19185">
        <ele>74.1</ele>
        <time>2023-10-04T14:07:49Z</time>
      </trkpt>
      <trkpt lat="50.05427" lon="2.19184">
        <ele>74.1</ele>
        <time>2023-10-04T14:07:50Z</time>
      </trkpt>
      <trkpt lat="50.05427" lon="2.19184">
        <ele>74.1</ele>
        <time>2023-10-04T14:07:51Z</time>
      </trkpt>
      <trkpt lat="50.05427" lon="2.19184">
        <ele>74.1</ele>
        <time>2023-10-04T14:07:52Z</time>
      </trkpt>
      <trkpt lat="50.05427" lon="2.19184">
        <ele>74.1</ele>
        <time>2023-10-04T14:07:53Z</time>
      </trkpt>
      <trkpt lat="50.05427" lon="2.19183">
        <ele>74.1</ele>
        <time>2023-10-04T14:07:54Z</time>
      </trkpt>
      <trkpt lat="50.05427" lon="2.19183">
        <ele>74</ele>
        <time>2023-10-04T14:07:55Z</time>
      </trkpt>
      <trkpt lat="50.05428" lon="2.19181">
        <ele>74</ele>
        <time>2023-10-04T14:07:56Z</time>
      </trkpt>
      <trkpt lat="50.05428" lon="2.1918">
        <ele>74</ele>
        <time>2023-10-04T14:07:57Z</time>
      </trkpt>
      <trkpt lat="50.05428" lon="2.19179">
        <ele>74</ele>
        <time>2023-10-04T14:07:58Z</time>
      </trkpt>
      <trkpt lat="50.05428" lon="2.19178">
        <ele>74</ele>
        <time>2023-10-04T14:07:59Z</time>
      </trkpt>
      <trkpt lat="50.05428" lon="2.19178">
        <ele>73.9</ele>
        <time>2023-10-04T14:08:00Z</time>
      </trkpt>
      <trkpt lat="50.05429" lon="2.19177">
        <ele>73.9</ele>
        <time>2023-10-04T14:08:01Z</time>
      </trkpt>
      <trkpt lat="50.05429" lon="2.19176">
        <ele>73.9</ele>
        <time>2023-10-04T14:08:02Z</time>
      </trkpt>
      <trkpt lat="50.05429" lon="2.19175">
        <ele>73.9</ele>
        <time>2023-10-04T14:08:03Z</time>
      </trkpt>
      <trkpt lat="50.05429" lon="2.19174">
        <ele>73.9</ele>
        <time>2023-10-04T14:08:04Z</time>
      </trkpt>
      <trkpt lat="50.05429" lon="2.19173">
        <ele>73.8</ele>
        <time>2023-10-04T14:08:05Z</time>
      </trkpt>
      <trkpt lat="50.05429" lon="2.19172">
        <ele>73.8</ele>
        <time>2023-10-04T14:08:06Z</time>
      </trkpt>
      <trkpt lat="50.05429" lon="2.1917">
        <ele>73.8</ele>
        <time>2023-10-04T14:08:07Z</time>
      </trkpt>
      <trkpt lat="50.05429" lon="2.19169">
        <ele>73.8</ele>
        <time>2023-10-04T14:08:08Z</time>
      </trkpt>
      <trkpt lat="50.05429" lon="2.19168">
        <ele>73.7</ele>
        <time>2023-10-04T14:08:09Z</time>
      </trkpt>
      <trkpt lat="50.05429" lon="2.19167">
        <ele>73.7</ele>
        <time>2023-10-04T14:08:10Z</time>
      </trkpt>
      <trkpt lat="50.05428" lon="2.19166">
        <ele>73.7</ele>
        <time>2023-10-04T14:08:11Z</time>
      </trkpt>
      <trkpt lat="50.05428" lon="2.19165">
        <ele>73.7</ele>
        <time>2023-10-04T14:08:12Z</time>
      </trkpt>
      <trkpt lat="50.05428" lon="2.19165">
        <ele>73.6</ele>
        <time>2023-10-04T14:08:13Z</time>
      </trkpt>
      <trkpt lat="50.05428" lon="2.19164">
        <ele>73.6</ele>
        <time>2023-10-04T14:08:14Z</time>
      </trkpt>
      <trkpt lat="50.05428" lon="2.19163">
        <ele>73.6</ele>
        <time>2023-10-04T14:08:15Z</time>
      </trkpt>
      <trkpt lat="50.05429" lon="2.19162">
        <ele>73.6</ele>
        <time>2023-10-04T14:08:16Z</time>
      </trkpt>
      <trkpt lat="50.05429" lon="2.19159">
        <ele>73.5</ele>
        <time>2023-10-04T14:08:17Z</time>
      </trkpt>
      <trkpt lat="50.05429" lon="2.19156">
        <ele>73.4</ele>
        <time>2023-10-04T14:08:18Z</time>
      </trkpt>
      <trkpt lat="50.05429" lon="2.19153">
        <ele>73.4</ele>
        <time>2023-10-04T14:08:19Z</time>
      </trkpt>
      <trkpt lat="50.0543" lon="2.19152">
        <ele>73.3</ele>
        <time>2023-10-04T14:08:20Z</time>
      </trkpt>
      <trkpt lat="50.0543" lon="2.19151">
        <ele>73.3</ele>
        <time>2023-10-04T14:08:21Z</time>
      </trkpt>
      <trkpt lat="50.0543" lon="2.19149">
        <ele>73.3</ele>
        <time>2023-10-04T14:08:22Z</time>
      </trkpt>
      <trkpt lat="50.0543" lon="2.19147">
        <ele>73.2</ele>
        <time>2023-10-04T14:08:23Z</time>
      </trkpt>
      <trkpt lat="50.05429" lon="2.19146">
        <ele>73.2</ele>
        <time>2023-10-04T14:08:24Z</time>
      </trkpt>
      <trkpt lat="50.05429" lon="2.19144">
        <ele>73.1</ele>
        <time>2023-10-04T14:08:25Z</time>
      </trkpt>
      <trkpt lat="50.05429" lon="2.19143">
        <ele>73.1</ele>
        <time>2023-10-04T14:08:26Z</time>
      </trkpt>
      <trkpt lat="50.05429" lon="2.19141">
        <ele>73.1</ele>
        <time>2023-10-04T14:08:27Z</time>
      </trkpt>
      <trkpt lat="50.05429" lon="2.1914">
        <ele>73</ele>
        <time>2023-10-04T14:08:28Z</time>
      </trkpt>
      <trkpt lat="50.05429" lon="2.19138">
        <ele>73</ele>
        <time>2023-10-04T14:08:29Z</time>
      </trkpt>
      <trkpt lat="50.05429" lon="2.19137">
        <ele>73</ele>
        <time>2023-10-04T14:08:30Z</time>
      </trkpt>
      <trkpt lat="50.05429" lon="2.19135">
        <ele>72.9</ele>
        <time>2023-10-04T14:08:31Z</time>
      </trkpt>
      <trkpt lat="50.05429" lon="2.19134">
        <ele>72.9</ele>
        <time>2023-10-04T14:08:32Z</time>
      </trkpt>
      <trkpt lat="50.0543" lon="2.19132">
        <ele>72.9</ele>
        <time>2023-10-04T14:08:33Z</time>
      </trkpt>
      <trkpt lat="50.0543" lon="2.1913">
        <ele>72.8</ele>
        <time>2023-10-04T14:08:34Z</time>
      </trkpt>
      <trkpt lat="50.0543" lon="2.19129">
        <ele>72.8</ele>
        <time>2023-10-04T14:08:35Z</time>
      </trkpt>
      <trkpt lat="50.0543" lon="2.19128">
        <ele>72.7</ele>
        <time>2023-10-04T14:08:36Z</time>
      </trkpt>
      <trkpt lat="50.0543" lon="2.19127">
        <ele>72.7</ele>
        <time>2023-10-04T14:08:37Z</time>
      </trkpt>
      <trkpt lat="50.0543" lon="2.19125">
        <ele>72.7</ele>
        <time>2023-10-04T14:08:38Z</time>
      </trkpt>
      <trkpt lat="50.0543" lon="2.19123">
        <ele>72.6</ele>
        <time>2023-10-04T14:08:39Z</time>
      </trkpt>
      <trkpt lat="50.0543" lon="2.19122">
        <ele>72.6</ele>
        <time>2023-10-04T14:08:40Z</time>
      </trkpt>
      <trkpt lat="50.0543" lon="2.1912">
        <ele>72.6</ele>
        <time>2023-10-04T14:08:41Z</time>
      </trkpt>
      <trkpt lat="50.0543" lon="2.19119">
        <ele>72.6</ele>
        <time>2023-10-04T14:08:42Z</time>
      </trkpt>
      <trkpt lat="50.0543" lon="2.19118">
        <ele>72.5</ele>
        <time>2023-10-04T14:08:43Z</time>
      </trkpt>
      <trkpt lat="50.0543" lon="2.19116">
        <ele>72.5</ele>
        <time>2023-10-04T14:08:44Z</time>
      </trkpt>
      <trkpt lat="50.0543" lon="2.19115">
        <ele>72.5</ele>
        <time>2023-10-04T14:08:45Z</time>
      </trkpt>
      <trkpt lat="50.0543" lon="2.19113">
        <ele>72.4</ele>
        <time>2023-10-04T14:08:46Z</time>
      </trkpt>
      <trkpt lat="50.0543" lon="2.19111">
        <ele>72.4</ele>
        <time>2023-10-04T14:08:47Z</time>
      </trkpt>
      <trkpt lat="50.0543" lon="2.1911">
        <ele>72.3</ele>
        <time>2023-10-04T14:08:48Z</time>
      </trkpt>
      <trkpt lat="50.0543" lon="2.19109">
        <ele>72.3</ele>
        <time>2023-10-04T14:08:49Z</time>
      </trkpt>
      <trkpt lat="50.0543" lon="2.19107">
        <ele>72.3</ele>
        <time>2023-10-04T14:08:50Z</time>
      </trkpt>
      <trkpt lat="50.0543" lon="2.19105">
        <ele>72.2</ele>
        <time>2023-10-04T14:08:51Z</time>
      </trkpt>
      <trkpt lat="50.0543" lon="2.19104">
        <ele>72.2</ele>
        <time>2023-10-04T14:08:52Z</time>
      </trkpt>
      <trkpt lat="50.0543" lon="2.19102">
        <ele>72.2</ele>
        <time>2023-10-04T14:08:53Z</time>
      </trkpt>
      <trkpt lat="50.05431" lon="2.19101">
        <ele>72.1</ele>
        <time>2023-10-04T14:08:54Z</time>
      </trkpt>
      <trkpt lat="50.05431" lon="2.19099">
        <ele>72.1</ele>
        <time>2023-10-04T14:08:55Z</time>
      </trkpt>
      <trkpt lat="50.05431" lon="2.19097">
        <ele>72.1</ele>
        <time>2023-10-04T14:08:56Z</time>
      </trkpt>
      <trkpt lat="50.05431" lon="2.19095">
        <ele>72</ele>
        <time>2023-10-04T14:08:57Z</time>
      </trkpt>
      <trkpt lat="50.05431" lon="2.19094">
        <ele>72</ele>
        <time>2023-10-04T14:08:58Z</time>
      </trkpt>
      <trkpt lat="50.05431" lon="2.19092">
        <ele>72</ele>
        <time>2023-10-04T14:08:59Z</time>
      </trkpt>
      <trkpt lat="50.05431" lon="2.19091">
        <ele>71.9</ele>
        <time>2023-10-04T14:09:00Z</time>
      </trkpt>
      <trkpt lat="50.05431" lon="2.19089">
        <ele>71.9</ele>
        <time>2023-10-04T14:09:01Z</time>
      </trkpt>
      <trkpt lat="50.05431" lon="2.19088">
        <ele>71.8</ele>
        <time>2023-10-04T14:09:02Z</time>
      </trkpt>
      <trkpt lat="50.05431" lon="2.19086">
        <ele>71.8</ele>
        <time>2023-10-04T14:09:03Z</time>
      </trkpt>
      <trkpt lat="50.05431" lon="2.19084">
        <ele>71.8</ele>
        <time>2023-10-04T14:09:04Z</time>
      </trkpt>
      <trkpt lat="50.05431" lon="2.19083">
        <ele>71.7</ele>
        <time>2023-10-04T14:09:05Z</time>
      </trkpt>
      <trkpt lat="50.05431" lon="2.19081">
        <ele>71.7</ele>
        <time>2023-10-04T14:09:06Z</time>
      </trkpt>
      <trkpt lat="50.05432" lon="2.1908">
        <ele>71.6</ele>
        <time>2023-10-04T14:09:07Z</time>
      </trkpt>
      <trkpt lat="50.05432" lon="2.19079">
        <ele>71.6</ele>
        <time>2023-10-04T14:09:08Z</time>
      </trkpt>
      <trkpt lat="50.05433" lon="2.19077">
        <ele>71.5</ele>
        <time>2023-10-04T14:09:09Z</time>
      </trkpt>
      <trkpt lat="50.05433" lon="2.19076">
        <ele>71.5</ele>
        <time>2023-10-04T14:09:10Z</time>
      </trkpt>
      <trkpt lat="50.05433" lon="2.19074">
        <ele>71.4</ele>
        <time>2023-10-04T14:09:11Z</time>
      </trkpt>
      <trkpt lat="50.05434" lon="2.19073">
        <ele>71.4</ele>
        <time>2023-10-04T14:09:12Z</time>
      </trkpt>
      <trkpt lat="50.05434" lon="2.19072">
        <ele>71.4</ele>
        <time>2023-10-04T14:09:13Z</time>
      </trkpt>
      <trkpt lat="50.05434" lon="2.19071">
        <ele>71.3</ele>
        <time>2023-10-04T14:09:14Z</time>
      </trkpt>
      <trkpt lat="50.05435" lon="2.19069">
        <ele>71.3</ele>
        <time>2023-10-04T14:09:15Z</time>
      </trkpt>
      <trkpt lat="50.05435" lon="2.19068">
        <ele>71.2</ele>
        <time>2023-10-04T14:09:16Z</time>
      </trkpt>
      <trkpt lat="50.05436" lon="2.19067">
        <ele>71.2</ele>
        <time>2023-10-04T14:09:17Z</time>
      </trkpt>
      <trkpt lat="50.05436" lon="2.19066">
        <ele>71.1</ele>
        <time>2023-10-04T14:09:18Z</time>
      </trkpt>
      <trkpt lat="50.05436" lon="2.19064">
        <ele>71.1</ele>
        <time>2023-10-04T14:09:19Z</time>
      </trkpt>
      <trkpt lat="50.05437" lon="2.19063">
        <ele>71</ele>
        <time>2023-10-04T14:09:20Z</time>
      </trkpt>
      <trkpt lat="50.05437" lon="2.19061">
        <ele>70.9</ele>
        <time>2023-10-04T14:09:21Z</time>
      </trkpt>
      <trkpt lat="50.05438" lon="2.19059">
        <ele>70.9</ele>
        <time>2023-10-04T14:09:22Z</time>
      </trkpt>
      <trkpt lat="50.05438" lon="2.19058">
        <ele>70.8</ele>
        <time>2023-10-04T14:09:23Z</time>
      </trkpt>
      <trkpt lat="50.05439" lon="2.19056">
        <ele>70.7</ele>
        <time>2023-10-04T14:09:24Z</time>
      </trkpt>
      <trkpt lat="50.05439" lon="2.19055">
        <ele>70.7</ele>
        <time>2023-10-04T14:09:25Z</time>
      </trkpt>
      <trkpt lat="50.05439" lon="2.19053">
        <ele>70.6</ele>
        <time>2023-10-04T14:09:26Z</time>
      </trkpt>
      <trkpt lat="50.0544" lon="2.19051">
        <ele>70.5</ele>
        <time>2023-10-04T14:09:27Z</time>
      </trkpt>
      <trkpt lat="50.0544" lon="2.1905">
        <ele>70.5</ele>
        <time>2023-10-04T14:09:28Z</time>
      </trkpt>
      <trkpt lat="50.0544" lon="2.19048">
        <ele>70.4</ele>
        <time>2023-10-04T14:09:29Z</time>
      </trkpt>
      <trkpt lat="50.0544" lon="2.19046">
        <ele>70.4</ele>
        <time>2023-10-04T14:09:30Z</time>
      </trkpt>
      <trkpt lat="50.0544" lon="2.19044">
        <ele>70.3</ele>
        <time>2023-10-04T14:09:31Z</time>
      </trkpt>
      <trkpt lat="50.05441" lon="2.19043">
        <ele>70.2</ele>
        <time>2023-10-04T14:09:32Z</time>
      </trkpt>
      <trkpt lat="50.05441" lon="2.19041">
        <ele>70.2</ele>
        <time>2023-10-04T14:09:33Z</time>
      </trkpt>
      <trkpt lat="50.05441" lon="2.1904">
        <ele>70.1</ele>
        <time>2023-10-04T14:09:34Z</time>
      </trkpt>
      <trkpt lat="50.05441" lon="2.19038">
        <ele>70.1</ele>
        <time>2023-10-04T14:09:35Z</time>
      </trkpt>
      <trkpt lat="50.05441" lon="2.19037">
        <ele>70</ele>
        <time>2023-10-04T14:09:36Z</time>
      </trkpt>
      <trkpt lat="50.05442" lon="2.19036">
        <ele>70</ele>
        <time>2023-10-04T14:09:37Z</time>
      </trkpt>
      <trkpt lat="50.05442" lon="2.19034">
        <ele>69.9</ele>
        <time>2023-10-04T14:09:38Z</time>
      </trkpt>
      <trkpt lat="50.05442" lon="2.19033">
        <ele>69.9</ele>
        <time>2023-10-04T14:09:39Z</time>
      </trkpt>
      <trkpt lat="50.05442" lon="2.19031">
        <ele>69.8</ele>
        <time>2023-10-04T14:09:40Z</time>
      </trkpt>
      <trkpt lat="50.05442" lon="2.1903">
        <ele>69.8</ele>
        <time>2023-10-04T14:09:41Z</time>
      </trkpt>
      <trkpt lat="50.05443" lon="2.19028">
        <ele>69.7</ele>
        <time>2023-10-04T14:09:42Z</time>
      </trkpt>
      <trkpt lat="50.05443" lon="2.19027">
        <ele>69.7</ele>
        <time>2023-10-04T14:09:43Z</time>
      </trkpt>
      <trkpt lat="50.05443" lon="2.19025">
        <ele>69.6</ele>
        <time>2023-10-04T14:09:44Z</time>
      </trkpt>
      <trkpt lat="50.05443" lon="2.19024">
        <ele>69.6</ele>
        <time>2023-10-04T14:09:45Z</time>
      </trkpt>
      <trkpt lat="50.05443" lon="2.19022">
        <ele>69.5</ele>
        <time>2023-10-04T14:09:46Z</time>
      </trkpt>
      <trkpt lat="50.05444" lon="2.19021">
        <ele>69.4</ele>
        <time>2023-10-04T14:09:47Z</time>
      </trkpt>
      <trkpt lat="50.05444" lon="2.19019">
        <ele>69.4</ele>
        <time>2023-10-04T14:09:48Z</time>
      </trkpt>
      <trkpt lat="50.05444" lon="2.19017">
        <ele>69.3</ele>
        <time>2023-10-04T14:09:49Z</time>
      </trkpt>
      <trkpt lat="50.05444" lon="2.19016">
        <ele>69.3</ele>
        <time>2023-10-04T14:09:50Z</time>
      </trkpt>
      <trkpt lat="50.05444" lon="2.19014">
        <ele>69.2</ele>
        <time>2023-10-04T14:09:51Z</time>
      </trkpt>
      <trkpt lat="50.05445" lon="2.19013">
        <ele>69.2</ele>
        <time>2023-10-04T14:09:52Z</time>
      </trkpt>
      <trkpt lat="50.05445" lon="2.19011">
        <ele>69.1</ele>
        <time>2023-10-04T14:09:53Z</time>
      </trkpt>
      <trkpt lat="50.05445" lon="2.1901">
        <ele>69.1</ele>
        <time>2023-10-04T14:09:54Z</time>
      </trkpt>
      <trkpt lat="50.05445" lon="2.19009">
        <ele>69.1</ele>
        <time>2023-10-04T14:09:55Z</time>
      </trkpt>
      <trkpt lat="50.05446" lon="2.19007">
        <ele>69</ele>
        <time>2023-10-04T14:09:56Z</time>
      </trkpt>
      <trkpt lat="50.05446" lon="2.19006">
        <ele>69</ele>
        <time>2023-10-04T14:09:57Z</time>
      </trkpt>
      <trkpt lat="50.05446" lon="2.19004">
        <ele>68.9</ele>
        <time>2023-10-04T14:09:58Z</time>
      </trkpt>
      <trkpt lat="50.05447" lon="2.19003">
        <ele>68.9</ele>
        <time>2023-10-04T14:09:59Z</time>
      </trkpt>
      <trkpt lat="50.05447" lon="2.19002">
        <ele>68.8</ele>
        <time>2023-10-04T14:10:00Z</time>
      </trkpt>
      <trkpt lat="50.05448" lon="2.19">
        <ele>68.8</ele>
        <time>2023-10-04T14:10:01Z</time>
      </trkpt>
      <trkpt lat="50.05448" lon="2.18998">
        <ele>68.7</ele>
        <time>2023-10-04T14:10:02Z</time>
      </trkpt>
      <trkpt lat="50.05449" lon="2.18997">
        <ele>68.7</ele>
        <time>2023-10-04T14:10:03Z</time>
      </trkpt>
      <trkpt lat="50.05449" lon="2.18995">
        <ele>68.6</ele>
        <time>2023-10-04T14:10:04Z</time>
      </trkpt>
      <trkpt lat="50.05449" lon="2.18994">
        <ele>68.6</ele>
        <time>2023-10-04T14:10:05Z</time>
      </trkpt>
      <trkpt lat="50.0545" lon="2.18993">
        <ele>68.5</ele>
        <time>2023-10-04T14:10:06Z</time>
      </trkpt>
      <trkpt lat="50.0545" lon="2.18991">
        <ele>68.5</ele>
        <time>2023-10-04T14:10:07Z</time>
      </trkpt>
      <trkpt lat="50.05451" lon="2.1899">
        <ele>68.4</ele>
        <time>2023-10-04T14:10:08Z</time>
      </trkpt>
      <trkpt lat="50.05451" lon="2.18989">
        <ele>68.4</ele>
        <time>2023-10-04T14:10:09Z</time>
      </trkpt>
      <trkpt lat="50.05452" lon="2.18988">
        <ele>68.3</ele>
        <time>2023-10-04T14:10:10Z</time>
      </trkpt>
      <trkpt lat="50.05453" lon="2.18987">
        <ele>68.2</ele>
        <time>2023-10-04T14:10:11Z</time>
      </trkpt>
      <trkpt lat="50.05454" lon="2.18986">
        <ele>68.2</ele>
        <time>2023-10-04T14:10:12Z</time>
      </trkpt>
      <trkpt lat="50.05454" lon="2.18985">
        <ele>68.1</ele>
        <time>2023-10-04T14:10:13Z</time>
      </trkpt>
      <trkpt lat="50.05455" lon="2.18984">
        <ele>68.1</ele>
        <time>2023-10-04T14:10:14Z</time>
      </trkpt>
      <trkpt lat="50.05456" lon="2.18983">
        <ele>68</ele>
        <time>2023-10-04T14:10:15Z</time>
      </trkpt>
      <trkpt lat="50.05457" lon="2.18982">
        <ele>67.9</ele>
        <time>2023-10-04T14:10:16Z</time>
      </trkpt>
      <trkpt lat="50.05458" lon="2.18981">
        <ele>67.8</ele>
        <time>2023-10-04T14:10:17Z</time>
      </trkpt>
      <trkpt lat="50.05459" lon="2.1898">
        <ele>67.8</ele>
        <time>2023-10-04T14:10:18Z</time>
      </trkpt>
      <trkpt lat="50.0546" lon="2.1898">
        <ele>67.7</ele>
        <time>2023-10-04T14:10:19Z</time>
      </trkpt>
      <trkpt lat="50.05461" lon="2.18979">
        <ele>67.6</ele>
        <time>2023-10-04T14:10:20Z</time>
      </trkpt>
      <trkpt lat="50.05462" lon="2.18978">
        <ele>67.6</ele>
        <time>2023-10-04T14:10:21Z</time>
      </trkpt>
      <trkpt lat="50.05463" lon="2.18977">
        <ele>67.5</ele>
        <time>2023-10-04T14:10:22Z</time>
      </trkpt>
      <trkpt lat="50.05463" lon="2.18976">
        <ele>67.4</ele>
        <time>2023-10-04T14:10:23Z</time>
      </trkpt>
      <trkpt lat="50.05464" lon="2.18975">
        <ele>67.3</ele>
        <time>2023-10-04T14:10:24Z</time>
      </trkpt>
      <trkpt lat="50.05464" lon="2.18973">
        <ele>67.3</ele>
        <time>2023-10-04T14:10:25Z</time>
      </trkpt>
      <trkpt lat="50.05465" lon="2.18972">
        <ele>67.2</ele>
        <time>2023-10-04T14:10:26Z</time>
      </trkpt>
      <trkpt lat="50.05465" lon="2.1897">
        <ele>67.1</ele>
        <time>2023-10-04T14:10:27Z</time>
      </trkpt>
      <trkpt lat="50.05465" lon="2.18968">
        <ele>67.1</ele>
        <time>2023-10-04T14:10:28Z</time>
      </trkpt>
      <trkpt lat="50.05465" lon="2.18967">
        <ele>66</ele>
        <time>2023-10-04T14:10:29Z</time>
      </trkpt>
      <trkpt lat="50.05465" lon="2.18965">
        <ele>65.9</ele>
        <time>2023-10-04T14:10:30Z</time>
      </trkpt>
      <trkpt lat="50.05465" lon="2.18963">
        <ele>65.8</ele>
        <time>2023-10-04T14:10:31Z</time>
      </trkpt>
      <trkpt lat="50.05465" lon="2.18962">
        <ele>65.7</ele>
        <time>2023-10-04T14:10:32Z</time>
      </trkpt>
      <trkpt lat="50.05465" lon="2.18961">
        <ele>65.7</ele>
        <time>2023-10-04T14:10:33Z</time>
      </trkpt>
      <trkpt lat="50.05465" lon="2.1896">
        <ele>65.6</ele>
        <time>2023-10-04T14:10:34Z</time>
      </trkpt>
      <trkpt lat="50.05465" lon="2.18958">
        <ele>65.5</ele>
        <time>2023-10-04T14:10:35Z</time>
      </trkpt>
      <trkpt lat="50.05465" lon="2.18956">
        <ele>65.4</ele>
        <time>2023-10-04T14:10:36Z</time>
      </trkpt>
      <trkpt lat="50.05464" lon="2.18954">
        <ele>65.2</ele>
        <time>2023-10-04T14:10:37Z</time>
      </trkpt>
      <trkpt lat="50.05464" lon="2.18953">
        <ele>65.1</ele>
        <time>2023-10-04T14:10:38Z</time>
      </trkpt>
      <trkpt lat="50.05464" lon="2.18951">
        <ele>65</ele>
        <time>2023-10-04T14:10:39Z</time>
      </trkpt>
      <trkpt lat="50.05464" lon="2.18949">
        <ele>64.9</ele>
        <time>2023-10-04T14:10:40Z</time>
      </trkpt>
      <trkpt lat="50.05464" lon="2.18947">
        <ele>64.8</ele>
        <time>2023-10-04T14:10:41Z</time>
      </trkpt>
      <trkpt lat="50.05464" lon="2.18946">
        <ele>64.7</ele>
        <time>2023-10-04T14:10:42Z</time>
      </trkpt>
      <trkpt lat="50.05463" lon="2.18944">
        <ele>64.6</ele>
        <time>2023-10-04T14:10:43Z</time>
      </trkpt>
      <trkpt lat="50.05463" lon="2.18943">
        <ele>64.5</ele>
        <time>2023-10-04T14:10:44Z</time>
      </trkpt>
      <trkpt lat="50.05463" lon="2.18941">
        <ele>64.4</ele>
        <time>2023-10-04T14:10:45Z</time>
      </trkpt>
      <trkpt lat="50.05463" lon="2.1894">
        <ele>64.3</ele>
        <time>2023-10-04T14:10:46Z</time>
      </trkpt>
      <trkpt lat="50.05463" lon="2.18938">
        <ele>64.2</ele>
        <time>2023-10-04T14:10:47Z</time>
      </trkpt>
      <trkpt lat="50.05463" lon="2.18937">
        <ele>64.1</ele>
        <time>2023-10-04T14:10:48Z</time>
      </trkpt>
      <trkpt lat="50.05462" lon="2.18935">
        <ele>64</ele>
        <time>2023-10-04T14:10:49Z</time>
      </trkpt>
      <trkpt lat="50.05462" lon="2.18933">
        <ele>63.9</ele>
        <time>2023-10-04T14:10:50Z</time>
      </trkpt>
      <trkpt lat="50.05462" lon="2.18932">
        <ele>63.8</ele>
        <time>2023-10-04T14:10:51Z</time>
      </trkpt>
      <trkpt lat="50.05462" lon="2.1893">
        <ele>63.7</ele>
        <time>2023-10-04T14:10:52Z</time>
      </trkpt>
      <trkpt lat="50.05461" lon="2.18929">
        <ele>63.6</ele>
        <time>2023-10-04T14:10:53Z</time>
      </trkpt>
      <trkpt lat="50.05461" lon="2.18927">
        <ele>63.5</ele>
        <time>2023-10-04T14:10:54Z</time>
      </trkpt>
      <trkpt lat="50.05461" lon="2.18926">
        <ele>63.4</ele>
        <time>2023-10-04T14:10:55Z</time>
      </trkpt>
      <trkpt lat="50.0546" lon="2.18924">
        <ele>63.3</ele>
        <time>2023-10-04T14:10:56Z</time>
      </trkpt>
      <trkpt lat="50.0546" lon="2.18922">
        <ele>63.2</ele>
        <time>2023-10-04T14:10:57Z</time>
      </trkpt>
      <trkpt lat="50.05459" lon="2.18921">
        <ele>63.1</ele>
        <time>2023-10-04T14:10:58Z</time>
      </trkpt>
      <trkpt lat="50.05459" lon="2.18919">
        <ele>62.9</ele>
        <time>2023-10-04T14:10:59Z</time>
      </trkpt>
      <trkpt lat="50.05458" lon="2.18917">
        <ele>62.8</ele>
        <time>2023-10-04T14:11:00Z</time>
      </trkpt>
      <trkpt lat="50.05458" lon="2.18916">
        <ele>62.7</ele>
        <time>2023-10-04T14:11:01Z</time>
      </trkpt>
      <trkpt lat="50.05458" lon="2.18914">
        <ele>62.6</ele>
        <time>2023-10-04T14:11:02Z</time>
      </trkpt>
      <trkpt lat="50.05457" lon="2.18913">
        <ele>62.5</ele>
        <time>2023-10-04T14:11:03Z</time>
      </trkpt>
      <trkpt lat="50.05457" lon="2.18911">
        <ele>62.4</ele>
        <time>2023-10-04T14:11:04Z</time>
      </trkpt>
      <trkpt lat="50.05457" lon="2.18909">
        <ele>62.3</ele>
        <time>2023-10-04T14:11:05Z</time>
      </trkpt>
      <trkpt lat="50.05457" lon="2.18908">
        <ele>62.2</ele>
        <time>2023-10-04T14:11:06Z</time>
      </trkpt>
      <trkpt lat="50.05456" lon="2.18906">
        <ele>62.1</ele>
        <time>2023-10-04T14:11:07Z</time>
      </trkpt>
      <trkpt lat="50.05456" lon="2.18904">
        <ele>62</ele>
        <time>2023-10-04T14:11:08Z</time>
      </trkpt>
      <trkpt lat="50.05456" lon="2.18902">
        <ele>61.9</ele>
        <time>2023-10-04T14:11:09Z</time>
      </trkpt>
      <trkpt lat="50.05456" lon="2.18901">
        <ele>61.8</ele>
        <time>2023-10-04T14:11:10Z</time>
      </trkpt>
      <trkpt lat="50.05455" lon="2.189">
        <ele>61.7</ele>
        <time>2023-10-04T14:11:11Z</time>
      </trkpt>
      <trkpt lat="50.05455" lon="2.18898">
        <ele>61.6</ele>
        <time>2023-10-04T14:11:12Z</time>
      </trkpt>
      <trkpt lat="50.05455" lon="2.18896">
        <ele>61.5</ele>
        <time>2023-10-04T14:11:13Z</time>
      </trkpt>
      <trkpt lat="50.05455" lon="2.18895">
        <ele>61.4</ele>
        <time>2023-10-04T14:11:14Z</time>
      </trkpt>
      <trkpt lat="50.05454" lon="2.18893">
        <ele>61.3</ele>
        <time>2023-10-04T14:11:15Z</time>
      </trkpt>
      <trkpt lat="50.05454" lon="2.18891">
        <ele>61.2</ele>
        <time>2023-10-04T14:11:16Z</time>
      </trkpt>
      <trkpt lat="50.05454" lon="2.1889">
        <ele>61.1</ele>
        <time>2023-10-04T14:11:17Z</time>
      </trkpt>
      <trkpt lat="50.05454" lon="2.18888">
        <ele>61</ele>
        <time>2023-10-04T14:11:18Z</time>
      </trkpt>
      <trkpt lat="50.05453" lon="2.18887">
        <ele>60.9</ele>
        <time>2023-10-04T14:11:19Z</time>
      </trkpt>
      <trkpt lat="50.05453" lon="2.18885">
        <ele>60.8</ele>
        <time>2023-10-04T14:11:20Z</time>
      </trkpt>
      <trkpt lat="50.05453" lon="2.18884">
        <ele>60.8</ele>
        <time>2023-10-04T14:11:21Z</time>
      </trkpt>
      <trkpt lat="50.05452" lon="2.18883">
        <ele>60.7</ele>
        <time>2023-10-04T14:11:22Z</time>
      </trkpt>
      <trkpt lat="50.05452" lon="2.18881">
        <ele>60.6</ele>
        <time>2023-10-04T14:11:23Z</time>
      </trkpt>
      <trkpt lat="50.05452" lon="2.1888">
        <ele>60.5</ele>
        <time>2023-10-04T14:11:24Z</time>
      </trkpt>
      <trkpt lat="50.05451" lon="2.18878">
        <ele>60.4</ele>
        <time>2023-10-04T14:11:25Z</time>
      </trkpt>
      <trkpt lat="50.05451" lon="2.18876">
        <ele>60.3</ele>
        <time>2023-10-04T14:11:26Z</time>
      </trkpt>
      <trkpt lat="50.05451" lon="2.18874">
        <ele>60.2</ele>
        <time>2023-10-04T14:11:27Z</time>
      </trkpt>
      <trkpt lat="50.05451" lon="2.18873">
        <ele>60.2</ele>
        <time>2023-10-04T14:11:28Z</time>
      </trkpt>
      <trkpt lat="50.05451" lon="2.18871">
        <ele>60.1</ele>
        <time>2023-10-04T14:11:29Z</time>
      </trkpt>
      <trkpt lat="50.05451" lon="2.1887">
        <ele>60</ele>
        <time>2023-10-04T14:11:30Z</time>
      </trkpt>
      <trkpt lat="50.05451" lon="2.18868">
        <ele>59.9</ele>
        <time>2023-10-04T14:11:31Z</time>
      </trkpt>
      <trkpt lat="50.05451" lon="2.18867">
        <ele>59.9</ele>
        <time>2023-10-04T14:11:32Z</time>
      </trkpt>
      <trkpt lat="50.0545" lon="2.18865">
        <ele>59.8</ele>
        <time>2023-10-04T14:11:33Z</time>
      </trkpt>
      <trkpt lat="50.0545" lon="2.18863">
        <ele>59.7</ele>
        <time>2023-10-04T14:11:34Z</time>
      </trkpt>
      <trkpt lat="50.0545" lon="2.18862">
        <ele>59.6</ele>
        <time>2023-10-04T14:11:35Z</time>
      </trkpt>
      <trkpt lat="50.0545" lon="2.1886">
        <ele>59.6</ele>
        <time>2023-10-04T14:11:36Z</time>
      </trkpt>
      <trkpt lat="50.0545" lon="2.18858">
        <ele>59.5</ele>
        <time>2023-10-04T14:11:37Z</time>
      </trkpt>
      <trkpt lat="50.0545" lon="2.18856">
        <ele>59.4</ele>
        <time>2023-10-04T14:11:38Z</time>
      </trkpt>
      <trkpt lat="50.05449" lon="2.18855">
        <ele>59.3</ele>
        <time>2023-10-04T14:11:39Z</time>
      </trkpt>
      <trkpt lat="50.05449" lon="2.18853">
        <ele>59.3</ele>
        <time>2023-10-04T14:11:40Z</time>
      </trkpt>
      <trkpt lat="50.05449" lon="2.18852">
        <ele>59.2</ele>
        <time>2023-10-04T14:11:41Z</time>
      </trkpt>
      <trkpt lat="50.05448" lon="2.1885">
        <ele>59.2</ele>
        <time>2023-10-04T14:11:42Z</time>
      </trkpt>
      <trkpt lat="50.05448" lon="2.18849">
        <ele>59.1</ele>
        <time>2023-10-04T14:11:43Z</time>
      </trkpt>
      <trkpt lat="50.05448" lon="2.18847">
        <ele>59</ele>
        <time>2023-10-04T14:11:44Z</time>
      </trkpt>
      <trkpt lat="50.05447" lon="2.18845">
        <ele>58.9</ele>
        <time>2023-10-04T14:11:45Z</time>
      </trkpt>
      <trkpt lat="50.05447" lon="2.18843">
        <ele>58.9</ele>
        <time>2023-10-04T14:11:46Z</time>
      </trkpt>
      <trkpt lat="50.05446" lon="2.18842">
        <ele>58.8</ele>
        <time>2023-10-04T14:11:47Z</time>
      </trkpt>
      <trkpt lat="50.05446" lon="2.1884">
        <ele>58.7</ele>
        <time>2023-10-04T14:11:48Z</time>
      </trkpt>
      <trkpt lat="50.05445" lon="2.18839">
        <ele>58.7</ele>
        <time>2023-10-04T14:11:49Z</time>
      </trkpt>
      <trkpt lat="50.05445" lon="2.18837">
        <ele>58.6</ele>
        <time>2023-10-04T14:11:50Z</time>
      </trkpt>
      <trkpt lat="50.05445" lon="2.18836">
        <ele>58.6</ele>
        <time>2023-10-04T14:11:51Z</time>
      </trkpt>
      <trkpt lat="50.05444" lon="2.18834">
        <ele>58.5</ele>
        <time>2023-10-04T14:11:52Z</time>
      </trkpt>
      <trkpt lat="50.05444" lon="2.18832">
        <ele>58.4</ele>
        <time>2023-10-04T14:11:53Z</time>
      </trkpt>
      <trkpt lat="50.05443" lon="2.18831">
        <ele>58.4</ele>
        <time>2023-10-04T14:11:54Z</time>
      </trkpt>
      <trkpt lat="50.05443" lon="2.18828">
        <ele>58.3</ele>
        <time>2023-10-04T14:11:55Z</time>
      </trkpt>
      <trkpt lat="50.05442" lon="2.18827">
        <ele>58.3</ele>
        <time>2023-10-04T14:11:56Z</time>
      </trkpt>
      <trkpt lat="50.05442" lon="2.18826">
        <ele>58.2</ele>
        <time>2023-10-04T14:11:57Z</time>
      </trkpt>
      <trkpt lat="50.05441" lon="2.18823">
        <ele>58.1</ele>
        <time>2023-10-04T14:11:58Z</time>
      </trkpt>
      <trkpt lat="50.05441" lon="2.18822">
        <ele>58.1</ele>
        <time>2023-10-04T14:11:59Z</time>
      </trkpt>
      <trkpt lat="50.0544" lon="2.18821">
        <ele>58</ele>
        <time>2023-10-04T14:12:00Z</time>
      </trkpt>
      <trkpt lat="50.0544" lon="2.18819">
        <ele>58</ele>
        <time>2023-10-04T14:12:01Z</time>
      </trkpt>
      <trkpt lat="50.05439" lon="2.18818">
        <ele>58</ele>
        <time>2023-10-04T14:12:02Z</time>
      </trkpt>
      <trkpt lat="50.05439" lon="2.18816">
        <ele>57.9</ele>
        <time>2023-10-04T14:12:03Z</time>
      </trkpt>
      <trkpt lat="50.05438" lon="2.18815">
        <ele>57.9</ele>
        <time>2023-10-04T14:12:04Z</time>
      </trkpt>
      <trkpt lat="50.05437" lon="2.18813">
        <ele>57.8</ele>
        <time>2023-10-04T14:12:05Z</time>
      </trkpt>
      <trkpt lat="50.05436" lon="2.18812">
        <ele>57.8</ele>
        <time>2023-10-04T14:12:06Z</time>
      </trkpt>
      <trkpt lat="50.05435" lon="2.18809">
        <ele>57.7</ele>
        <time>2023-10-04T14:12:07Z</time>
      </trkpt>
      <trkpt lat="50.05435" lon="2.18808">
        <ele>57.7</ele>
        <time>2023-10-04T14:12:08Z</time>
      </trkpt>
      <trkpt lat="50.05434" lon="2.18807">
        <ele>57.6</ele>
        <time>2023-10-04T14:12:09Z</time>
      </trkpt>
      <trkpt lat="50.05433" lon="2.18804">
        <ele>57.6</ele>
        <time>2023-10-04T14:12:10Z</time>
      </trkpt>
      <trkpt lat="50.05433" lon="2.18803">
        <ele>57.6</ele>
        <time>2023-10-04T14:12:11Z</time>
      </trkpt>
      <trkpt lat="50.05432" lon="2.18802">
        <ele>57.5</ele>
        <time>2023-10-04T14:12:12Z</time>
      </trkpt>
      <trkpt lat="50.05432" lon="2.18801">
        <ele>57.5</ele>
        <time>2023-10-04T14:12:13Z</time>
      </trkpt>
      <trkpt lat="50.05431" lon="2.18799">
        <ele>57.5</ele>
        <time>2023-10-04T14:12:14Z</time>
      </trkpt>
      <trkpt lat="50.0543" lon="2.18798">
        <ele>57.4</ele>
        <time>2023-10-04T14:12:15Z</time>
      </trkpt>
      <trkpt lat="50.0543" lon="2.18796">
        <ele>57.4</ele>
        <time>2023-10-04T14:12:16Z</time>
      </trkpt>
      <trkpt lat="50.05429" lon="2.18795">
        <ele>57.4</ele>
        <time>2023-10-04T14:12:17Z</time>
      </trkpt>
      <trkpt lat="50.05429" lon="2.18793">
        <ele>57.4</ele>
        <time>2023-10-04T14:12:18Z</time>
      </trkpt>
      <trkpt lat="50.05428" lon="2.18792">
        <ele>57.4</ele>
        <time>2023-10-04T14:12:19Z</time>
      </trkpt>
      <trkpt lat="50.05428" lon="2.1879">
        <ele>57.3</ele>
        <time>2023-10-04T14:12:20Z</time>
      </trkpt>
      <trkpt lat="50.05427" lon="2.18789">
        <ele>57.3</ele>
        <time>2023-10-04T14:12:21Z</time>
      </trkpt>
      <trkpt lat="50.05427" lon="2.18788">
        <ele>57.3</ele>
        <time>2023-10-04T14:12:22Z</time>
      </trkpt>
      <trkpt lat="50.05426" lon="2.18787">
        <ele>57.3</ele>
        <time>2023-10-04T14:12:23Z</time>
      </trkpt>
      <trkpt lat="50.05426" lon="2.18786">
        <ele>57.3</ele>
        <time>2023-10-04T14:12:24Z</time>
      </trkpt>
      <trkpt lat="50.05425" lon="2.18784">
        <ele>57.3</ele>
        <time>2023-10-04T14:12:25Z</time>
      </trkpt>
      <trkpt lat="50.05424" lon="2.18783">
        <ele>57.3</ele>
        <time>2023-10-04T14:12:26Z</time>
      </trkpt>
      <trkpt lat="50.05424" lon="2.18782">
        <ele>57.3</ele>
        <time>2023-10-04T14:12:27Z</time>
      </trkpt>
      <trkpt lat="50.05423" lon="2.1878">
        <ele>57.4</ele>
        <time>2023-10-04T14:12:28Z</time>
      </trkpt>
      <trkpt lat="50.05423" lon="2.18779">
        <ele>57.4</ele>
        <time>2023-10-04T14:12:29Z</time>
      </trkpt>
      <trkpt lat="50.05423" lon="2.18777">
        <ele>57.4</ele>
        <time>2023-10-04T14:12:30Z</time>
      </trkpt>
      <trkpt lat="50.05423" lon="2.18776">
        <ele>57.4</ele>
        <time>2023-10-04T14:12:31Z</time>
      </trkpt>
      <trkpt lat="50.05423" lon="2.18774">
        <ele>57.5</ele>
        <time>2023-10-04T14:12:32Z</time>
      </trkpt>
      <trkpt lat="50.05422" lon="2.18772">
        <ele>57.5</ele>
        <time>2023-10-04T14:12:33Z</time>
      </trkpt>
      <trkpt lat="50.05422" lon="2.18771">
        <ele>57.5</ele>
        <time>2023-10-04T14:12:34Z</time>
      </trkpt>
      <trkpt lat="50.05422" lon="2.18769">
        <ele>57.5</ele>
        <time>2023-10-04T14:12:35Z</time>
      </trkpt>
      <trkpt lat="50.05421" lon="2.18767">
        <ele>57.6</ele>
        <time>2023-10-04T14:12:36Z</time>
      </trkpt>
      <trkpt lat="50.05421" lon="2.18765">
        <ele>57.6</ele>
        <time>2023-10-04T14:12:37Z</time>
      </trkpt>
      <trkpt lat="50.05421" lon="2.18764">
        <ele>57.6</ele>
        <time>2023-10-04T14:12:38Z</time>
      </trkpt>
      <trkpt lat="50.0542" lon="2.18762">
        <ele>57.7</ele>
        <time>2023-10-04T14:12:39Z</time>
      </trkpt>
      <trkpt lat="50.0542" lon="2.18761">
        <ele>57.7</ele>
        <time>2023-10-04T14:12:40Z</time>
      </trkpt>
      <trkpt lat="50.0542" lon="2.18759">
        <ele>57.7</ele>
        <time>2023-10-04T14:12:41Z</time>
      </trkpt>
      <trkpt lat="50.0542" lon="2.18757">
        <ele>57.7</ele>
        <time>2023-10-04T14:12:42Z</time>
      </trkpt>
      <trkpt lat="50.05419" lon="2.18756">
        <ele>57.8</ele>
        <time>2023-10-04T14:12:43Z</time>
      </trkpt>
      <trkpt lat="50.05419" lon="2.18754">
        <ele>57.8</ele>
        <time>2023-10-04T14:12:44Z</time>
      </trkpt>
      <trkpt lat="50.05419" lon="2.18753">
        <ele>57.8</ele>
        <time>2023-10-04T14:12:45Z</time>
      </trkpt>
      <trkpt lat="50.05418" lon="2.18751">
        <ele>57.8</ele>
        <time>2023-10-04T14:12:46Z</time>
      </trkpt>
      <trkpt lat="50.05418" lon="2.1875">
        <ele>57.9</ele>
        <time>2023-10-04T14:12:47Z</time>
      </trkpt>
      <trkpt lat="50.05418" lon="2.18748">
        <ele>57.9</ele>
        <time>2023-10-04T14:12:48Z</time>
      </trkpt>
      <trkpt lat="50.05417" lon="2.18747">
        <ele>57.9</ele>
        <time>2023-10-04T14:12:49Z</time>
      </trkpt>
      <trkpt lat="50.05417" lon="2.18746">
        <ele>57.9</ele>
        <time>2023-10-04T14:12:50Z</time>
      </trkpt>
      <trkpt lat="50.05416" lon="2.18744">
        <ele>57.9</ele>
        <time>2023-10-04T14:12:51Z</time>
      </trkpt>
      <trkpt lat="50.05416" lon="2.18743">
        <ele>58</ele>
        <time>2023-10-04T14:12:52Z</time>
      </trkpt>
      <trkpt lat="50.05416" lon="2.18741">
        <ele>58</ele>
        <time>2023-10-04T14:12:53Z</time>
      </trkpt>
      <trkpt lat="50.05415" lon="2.1874">
        <ele>58</ele>
        <time>2023-10-04T14:12:54Z</time>
      </trkpt>
      <trkpt lat="50.05415" lon="2.18738">
        <ele>58</ele>
        <time>2023-10-04T14:12:55Z</time>
      </trkpt>
      <trkpt lat="50.05415" lon="2.18737">
        <ele>58</ele>
        <time>2023-10-04T14:12:56Z</time>
      </trkpt>
      <trkpt lat="50.05415" lon="2.18736">
        <ele>58</ele>
        <time>2023-10-04T14:12:57Z</time>
      </trkpt>
      <trkpt lat="50.05415" lon="2.18734">
        <ele>58</ele>
        <time>2023-10-04T14:12:58Z</time>
      </trkpt>
      <trkpt lat="50.05414" lon="2.18733">
        <ele>58</ele>
        <time>2023-10-04T14:12:59Z</time>
      </trkpt>
      <trkpt lat="50.05414" lon="2.18732">
        <ele>58.1</ele>
        <time>2023-10-04T14:13:00Z</time>
      </trkpt>
      <trkpt lat="50.05414" lon="2.1873">
        <ele>58.1</ele>
        <time>2023-10-04T14:13:01Z</time>
      </trkpt>
      <trkpt lat="50.05413" lon="2.18728">
        <ele>58.1</ele>
        <time>2023-10-04T14:13:02Z</time>
      </trkpt>
      <trkpt lat="50.05413" lon="2.18727">
        <ele>58.1</ele>
        <time>2023-10-04T14:13:03Z</time>
      </trkpt>
      <trkpt lat="50.05413" lon="2.18725">
        <ele>58.1</ele>
        <time>2023-10-04T14:13:04Z</time>
      </trkpt>
      <trkpt lat="50.05412" lon="2.18724">
        <ele>58.1</ele>
        <time>2023-10-04T14:13:05Z</time>
      </trkpt>
      <trkpt lat="50.05412" lon="2.18722">
        <ele>58.1</ele>
        <time>2023-10-04T14:13:06Z</time>
      </trkpt>
      <trkpt lat="50.05411" lon="2.18721">
        <ele>58.1</ele>
        <time>2023-10-04T14:13:07Z</time>
      </trkpt>
      <trkpt lat="50.05411" lon="2.18719">
        <ele>58</ele>
        <time>2023-10-04T14:13:08Z</time>
      </trkpt>
      <trkpt lat="50.05411" lon="2.18717">
        <ele>58</ele>
        <time>2023-10-04T14:13:09Z</time>
      </trkpt>
      <trkpt lat="50.05411" lon="2.18715">
        <ele>58</ele>
        <time>2023-10-04T14:13:10Z</time>
      </trkpt>
      <trkpt lat="50.0541" lon="2.18712">
        <ele>58</ele>
        <time>2023-10-04T14:13:11Z</time>
      </trkpt>
      <trkpt lat="50.0541" lon="2.18711">
        <ele>58</ele>
        <time>2023-10-04T14:13:12Z</time>
      </trkpt>
      <trkpt lat="50.0541" lon="2.1871">
        <ele>58</ele>
        <time>2023-10-04T14:13:13Z</time>
      </trkpt>
      <trkpt lat="50.05409" lon="2.18706">
        <ele>58</ele>
        <time>2023-10-04T14:13:14Z</time>
      </trkpt>
      <trkpt lat="50.05409" lon="2.18705">
        <ele>58</ele>
        <time>2023-10-04T14:13:15Z</time>
      </trkpt>
      <trkpt lat="50.05409" lon="2.18704">
        <ele>58</ele>
        <time>2023-10-04T14:13:16Z</time>
      </trkpt>
      <trkpt lat="50.05408" lon="2.18701">
        <ele>58</ele>
        <time>2023-10-04T14:13:17Z</time>
      </trkpt>
      <trkpt lat="50.05408" lon="2.187">
        <ele>58</ele>
        <time>2023-10-04T14:13:18Z</time>
      </trkpt>
      <trkpt lat="50.05408" lon="2.18698">
        <ele>57.9</ele>
        <time>2023-10-04T14:13:19Z</time>
      </trkpt>
      <trkpt lat="50.05408" lon="2.18697">
        <ele>57.9</ele>
        <time>2023-10-04T14:13:20Z</time>
      </trkpt>
      <trkpt lat="50.05407" lon="2.18695">
        <ele>57.9</ele>
        <time>2023-10-04T14:13:21Z</time>
      </trkpt>
      <trkpt lat="50.05407" lon="2.18693">
        <ele>57.9</ele>
        <time>2023-10-04T14:13:22Z</time>
      </trkpt>
      <trkpt lat="50.05407" lon="2.18691">
        <ele>57.9</ele>
        <time>2023-10-04T14:13:23Z</time>
      </trkpt>
      <trkpt lat="50.05407" lon="2.1869">
        <ele>57.9</ele>
        <time>2023-10-04T14:13:24Z</time>
      </trkpt>
      <trkpt lat="50.05407" lon="2.18688">
        <ele>57.9</ele>
        <time>2023-10-04T14:13:25Z</time>
      </trkpt>
      <trkpt lat="50.05407" lon="2.18686">
        <ele>57.9</ele>
        <time>2023-10-04T14:13:26Z</time>
      </trkpt>
      <trkpt lat="50.05406" lon="2.18684">
        <ele>57.9</ele>
        <time>2023-10-04T14:13:27Z</time>
      </trkpt>
      <trkpt lat="50.05406" lon="2.18683">
        <ele>57.9</ele>
        <time>2023-10-04T14:13:28Z</time>
      </trkpt>
      <trkpt lat="50.05406" lon="2.18681">
        <ele>57.8</ele>
        <time>2023-10-04T14:13:29Z</time>
      </trkpt>
      <trkpt lat="50.05406" lon="2.1868">
        <ele>57.8</ele>
        <time>2023-10-04T14:13:30Z</time>
      </trkpt>
      <trkpt lat="50.05406" lon="2.18678">
        <ele>57.8</ele>
        <time>2023-10-04T14:13:31Z</time>
      </trkpt>
      <trkpt lat="50.05406" lon="2.18677">
        <ele>57.8</ele>
        <time>2023-10-04T14:13:32Z</time>
      </trkpt>
      <trkpt lat="50.05406" lon="2.18675">
        <ele>57.8</ele>
        <time>2023-10-04T14:13:33Z</time>
      </trkpt>
      <trkpt lat="50.05406" lon="2.18674">
        <ele>57.8</ele>
        <time>2023-10-04T14:13:34Z</time>
      </trkpt>
      <trkpt lat="50.05406" lon="2.18672">
        <ele>57.8</ele>
        <time>2023-10-04T14:13:35Z</time>
      </trkpt>
      <trkpt lat="50.05406" lon="2.1867">
        <ele>57.8</ele>
        <time>2023-10-04T14:13:36Z</time>
      </trkpt>
      <trkpt lat="50.05405" lon="2.18669">
        <ele>57.7</ele>
        <time>2023-10-04T14:13:37Z</time>
      </trkpt>
      <trkpt lat="50.05405" lon="2.18667">
        <ele>57.7</ele>
        <time>2023-10-04T14:13:38Z</time>
      </trkpt>
      <trkpt lat="50.05405" lon="2.18666">
        <ele>57.7</ele>
        <time>2023-10-04T14:13:39Z</time>
      </trkpt>
      <trkpt lat="50.05405" lon="2.18664">
        <ele>57.7</ele>
        <time>2023-10-04T14:13:40Z</time>
      </trkpt>
      <trkpt lat="50.05404" lon="2.18663">
        <ele>57.7</ele>
        <time>2023-10-04T14:13:41Z</time>
      </trkpt>
      <trkpt lat="50.05404" lon="2.18662">
        <ele>57.7</ele>
        <time>2023-10-04T14:13:42Z</time>
      </trkpt>
      <trkpt lat="50.05404" lon="2.1866">
        <ele>57.7</ele>
        <time>2023-10-04T14:13:43Z</time>
      </trkpt>
      <trkpt lat="50.05403" lon="2.18658">
        <ele>57.7</ele>
        <time>2023-10-04T14:13:44Z</time>
      </trkpt>
      <trkpt lat="50.05403" lon="2.18657">
        <ele>57.6</ele>
        <time>2023-10-04T14:13:45Z</time>
      </trkpt>
      <trkpt lat="50.05403" lon="2.18655">
        <ele>57.6</ele>
        <time>2023-10-04T14:13:46Z</time>
      </trkpt>
      <trkpt lat="50.05402" lon="2.18652">
        <ele>57.6</ele>
        <time>2023-10-04T14:13:47Z</time>
      </trkpt>
      <trkpt lat="50.05402" lon="2.18651">
        <ele>57.6</ele>
        <time>2023-10-04T14:13:48Z</time>
      </trkpt>
      <trkpt lat="50.05402" lon="2.18649">
        <ele>57.6</ele>
        <time>2023-10-04T14:13:49Z</time>
      </trkpt>
      <trkpt lat="50.05401" lon="2.18648">
        <ele>57.6</ele>
        <time>2023-10-04T14:13:50Z</time>
      </trkpt>
      <trkpt lat="50.05401" lon="2.18646">
        <ele>57.5</ele>
        <time>2023-10-04T14:13:51Z</time>
      </trkpt>
      <trkpt lat="50.05401" lon="2.18644">
        <ele>57.5</ele>
        <time>2023-10-04T14:13:52Z</time>
      </trkpt>
      <trkpt lat="50.05401" lon="2.18643">
        <ele>57.5</ele>
        <time>2023-10-04T14:13:53Z</time>
      </trkpt>
      <trkpt lat="50.05401" lon="2.18641">
        <ele>57.5</ele>
        <time>2023-10-04T14:13:54Z</time>
      </trkpt>
      <trkpt lat="50.054" lon="2.1864">
        <ele>57.5</ele>
        <time>2023-10-04T14:13:55Z</time>
      </trkpt>
      <trkpt lat="50.054" lon="2.18638">
        <ele>57.5</ele>
        <time>2023-10-04T14:13:56Z</time>
      </trkpt>
      <trkpt lat="50.054" lon="2.18636">
        <ele>57.5</ele>
        <time>2023-10-04T14:13:57Z</time>
      </trkpt>
      <trkpt lat="50.054" lon="2.18635">
        <ele>57.5</ele>
        <time>2023-10-04T14:13:58Z</time>
      </trkpt>
      <trkpt lat="50.05399" lon="2.18633">
        <ele>57.4</ele>
        <time>2023-10-04T14:13:59Z</time>
      </trkpt>
      <trkpt lat="50.05399" lon="2.18632">
        <ele>57.4</ele>
        <time>2023-10-04T14:14:00Z</time>
      </trkpt>
      <trkpt lat="50.05399" lon="2.1863">
        <ele>57.4</ele>
        <time>2023-10-04T14:14:01Z</time>
      </trkpt>
      <trkpt lat="50.05398" lon="2.18629">
        <ele>57.4</ele>
        <time>2023-10-04T14:14:02Z</time>
      </trkpt>
      <trkpt lat="50.05398" lon="2.18627">
        <ele>57.4</ele>
        <time>2023-10-04T14:14:03Z</time>
      </trkpt>
      <trkpt lat="50.05398" lon="2.18626">
        <ele>57.4</ele>
        <time>2023-10-04T14:14:04Z</time>
      </trkpt>
      <trkpt lat="50.05397" lon="2.18624">
        <ele>57.4</ele>
        <time>2023-10-04T14:14:05Z</time>
      </trkpt>
      <trkpt lat="50.05397" lon="2.18623">
        <ele>57.4</ele>
        <time>2023-10-04T14:14:06Z</time>
      </trkpt>
      <trkpt lat="50.05396" lon="2.18621">
        <ele>57.4</ele>
        <time>2023-10-04T14:14:07Z</time>
      </trkpt>
      <trkpt lat="50.05396" lon="2.18619">
        <ele>57.3</ele>
        <time>2023-10-04T14:14:08Z</time>
      </trkpt>
      <trkpt lat="50.05396" lon="2.18618">
        <ele>57.3</ele>
        <time>2023-10-04T14:14:09Z</time>
      </trkpt>
      <trkpt lat="50.05395" lon="2.18616">
        <ele>57.3</ele>
        <time>2023-10-04T14:14:10Z</time>
      </trkpt>
      <trkpt lat="50.05395" lon="2.18614">
        <ele>57.3</ele>
        <time>2023-10-04T14:14:11Z</time>
      </trkpt>
      <trkpt lat="50.05395" lon="2.18613">
        <ele>57.3</ele>
        <time>2023-10-04T14:14:12Z</time>
      </trkpt>
      <trkpt lat="50.05395" lon="2.18611">
        <ele>57.3</ele>
        <time>2023-10-04T14:14:13Z</time>
      </trkpt>
      <trkpt lat="50.05395" lon="2.1861">
        <ele>57.3</ele>
        <time>2023-10-04T14:14:14Z</time>
      </trkpt>
      <trkpt lat="50.05395" lon="2.18608">
        <ele>57.3</ele>
        <time>2023-10-04T14:14:15Z</time>
      </trkpt>
      <trkpt lat="50.05394" lon="2.18606">
        <ele>57.3</ele>
        <time>2023-10-04T14:14:16Z</time>
      </trkpt>
      <trkpt lat="50.05394" lon="2.18605">
        <ele>57.3</ele>
        <time>2023-10-04T14:14:17Z</time>
      </trkpt>
      <trkpt lat="50.05394" lon="2.18603">
        <ele>57.3</ele>
        <time>2023-10-04T14:14:18Z</time>
      </trkpt>
      <trkpt lat="50.05394" lon="2.18601">
        <ele>57.3</ele>
        <time>2023-10-04T14:14:19Z</time>
      </trkpt>
      <trkpt lat="50.05393" lon="2.18599">
        <ele>57.3</ele>
        <time>2023-10-04T14:14:20Z</time>
      </trkpt>
      <trkpt lat="50.05393" lon="2.18598">
        <ele>57.3</ele>
        <time>2023-10-04T14:14:21Z</time>
      </trkpt>
      <trkpt lat="50.05393" lon="2.18596">
        <ele>57.3</ele>
        <time>2023-10-04T14:14:22Z</time>
      </trkpt>
      <trkpt lat="50.05394" lon="2.18595">
        <ele>57.3</ele>
        <time>2023-10-04T14:14:23Z</time>
      </trkpt>
      <trkpt lat="50.05394" lon="2.18593">
        <ele>57.3</ele>
        <time>2023-10-04T14:14:24Z</time>
      </trkpt>
      <trkpt lat="50.05394" lon="2.18592">
        <ele>57.3</ele>
        <time>2023-10-04T14:14:25Z</time>
      </trkpt>
      <trkpt lat="50.05394" lon="2.1859">
        <ele>57.3</ele>
        <time>2023-10-04T14:14:26Z</time>
      </trkpt>
      <trkpt lat="50.05394" lon="2.18588">
        <ele>57.3</ele>
        <time>2023-10-04T14:14:27Z</time>
      </trkpt>
      <trkpt lat="50.05394" lon="2.18587">
        <ele>57.2</ele>
        <time>2023-10-04T14:14:28Z</time>
      </trkpt>
      <trkpt lat="50.05394" lon="2.18585">
        <ele>57.2</ele>
        <time>2023-10-04T14:14:29Z</time>
      </trkpt>
      <trkpt lat="50.05393" lon="2.18584">
        <ele>57.1</ele>
        <time>2023-10-04T14:14:30Z</time>
      </trkpt>
      <trkpt lat="50.05393" lon="2.18582">
        <ele>57.1</ele>
        <time>2023-10-04T14:14:31Z</time>
      </trkpt>
      <trkpt lat="50.05392" lon="2.18579">
        <ele>57</ele>
        <time>2023-10-04T14:14:32Z</time>
      </trkpt>
      <trkpt lat="50.05391" lon="2.18578">
        <ele>57</ele>
        <time>2023-10-04T14:14:33Z</time>
      </trkpt>
      <trkpt lat="50.05391" lon="2.18577">
        <ele>56.9</ele>
        <time>2023-10-04T14:14:34Z</time>
      </trkpt>
      <trkpt lat="50.0539" lon="2.18575">
        <ele>56.9</ele>
        <time>2023-10-04T14:14:35Z</time>
      </trkpt>
      <trkpt lat="50.0539" lon="2.18574">
        <ele>56.8</ele>
        <time>2023-10-04T14:14:36Z</time>
      </trkpt>
      <trkpt lat="50.05389" lon="2.18572">
        <ele>56.8</ele>
        <time>2023-10-04T14:14:37Z</time>
      </trkpt>
      <trkpt lat="50.05388" lon="2.18569">
        <ele>56.7</ele>
        <time>2023-10-04T14:14:38Z</time>
      </trkpt>
      <trkpt lat="50.05388" lon="2.18568">
        <ele>56.6</ele>
        <time>2023-10-04T14:14:39Z</time>
      </trkpt>
      <trkpt lat="50.05388" lon="2.18567">
        <ele>56.6</ele>
        <time>2023-10-04T14:14:40Z</time>
      </trkpt>
      <trkpt lat="50.05387" lon="2.18564">
        <ele>56.5</ele>
        <time>2023-10-04T14:14:41Z</time>
      </trkpt>
      <trkpt lat="50.05386" lon="2.18563">
        <ele>56.5</ele>
        <time>2023-10-04T14:14:42Z</time>
      </trkpt>
      <trkpt lat="50.05386" lon="2.18562">
        <ele>56.4</ele>
        <time>2023-10-04T14:14:43Z</time>
      </trkpt>
      <trkpt lat="50.05385" lon="2.1856">
        <ele>56.4</ele>
        <time>2023-10-04T14:14:44Z</time>
      </trkpt>
      <trkpt lat="50.05384" lon="2.18558">
        <ele>56.3</ele>
        <time>2023-10-04T14:14:45Z</time>
      </trkpt>
      <trkpt lat="50.05384" lon="2.18556">
        <ele>56.3</ele>
        <time>2023-10-04T14:14:46Z</time>
      </trkpt>
      <trkpt lat="50.05383" lon="2.18554">
        <ele>56.2</ele>
        <time>2023-10-04T14:14:47Z</time>
      </trkpt>
      <trkpt lat="50.05383" lon="2.18553">
        <ele>56.2</ele>
        <time>2023-10-04T14:14:48Z</time>
      </trkpt>
      <trkpt lat="50.05382" lon="2.1855">
        <ele>56.1</ele>
        <time>2023-10-04T14:14:49Z</time>
      </trkpt>
      <trkpt lat="50.05381" lon="2.18549">
        <ele>56.1</ele>
        <time>2023-10-04T14:14:50Z</time>
      </trkpt>
      <trkpt lat="50.05381" lon="2.18548">
        <ele>56</ele>
        <time>2023-10-04T14:14:51Z</time>
      </trkpt>
      <trkpt lat="50.05379" lon="2.18546">
        <ele>55.9</ele>
        <time>2023-10-04T14:14:52Z</time>
      </trkpt>
      <trkpt lat="50.05379" lon="2.18545">
        <ele>55.9</ele>
        <time>2023-10-04T14:14:53Z</time>
      </trkpt>
      <trkpt lat="50.05378" lon="2.18544">
        <ele>55.9</ele>
        <time>2023-10-04T14:14:54Z</time>
      </trkpt>
      <trkpt lat="50.05377" lon="2.18542">
        <ele>55.8</ele>
        <time>2023-10-04T14:14:55Z</time>
      </trkpt>
      <trkpt lat="50.05376" lon="2.18541">
        <ele>55.8</ele>
        <time>2023-10-04T14:14:56Z</time>
      </trkpt>
      <trkpt lat="50.05376" lon="2.1854">
        <ele>55.7</ele>
        <time>2023-10-04T14:14:57Z</time>
      </trkpt>
      <trkpt lat="50.05375" lon="2.18537">
        <ele>55.7</ele>
        <time>2023-10-04T14:14:58Z</time>
      </trkpt>
      <trkpt lat="50.05374" lon="2.18536">
        <ele>55.6</ele>
        <time>2023-10-04T14:14:59Z</time>
      </trkpt>
      <trkpt lat="50.05374" lon="2.18535">
        <ele>55.6</ele>
        <time>2023-10-04T14:15:00Z</time>
      </trkpt>
      <trkpt lat="50.05373" lon="2.18534">
        <ele>55.6</ele>
        <time>2023-10-04T14:15:01Z</time>
      </trkpt>
      <trkpt lat="50.05372" lon="2.18532">
        <ele>55.5</ele>
        <time>2023-10-04T14:15:02Z</time>
      </trkpt>
      <trkpt lat="50.05371" lon="2.18531">
        <ele>55.5</ele>
        <time>2023-10-04T14:15:03Z</time>
      </trkpt>
      <trkpt lat="50.05371" lon="2.1853">
        <ele>55.4</ele>
        <time>2023-10-04T14:15:04Z</time>
      </trkpt>
      <trkpt lat="50.05371" lon="2.18528">
        <ele>55.4</ele>
        <time>2023-10-04T14:15:05Z</time>
      </trkpt>
      <trkpt lat="50.0537" lon="2.18527">
        <ele>55.4</ele>
        <time>2023-10-04T14:15:06Z</time>
      </trkpt>
      <trkpt lat="50.0537" lon="2.18525">
        <ele>55.3</ele>
        <time>2023-10-04T14:15:07Z</time>
      </trkpt>
      <trkpt lat="50.0537" lon="2.18523">
        <ele>55.3</ele>
        <time>2023-10-04T14:15:08Z</time>
      </trkpt>
      <trkpt lat="50.05369" lon="2.18522">
        <ele>55.2</ele>
        <time>2023-10-04T14:15:09Z</time>
      </trkpt>
      <trkpt lat="50.05369" lon="2.18519">
        <ele>55.2</ele>
        <time>2023-10-04T14:15:10Z</time>
      </trkpt>
      <trkpt lat="50.05369" lon="2.18518">
        <ele>55.1</ele>
        <time>2023-10-04T14:15:11Z</time>
      </trkpt>
      <trkpt lat="50.05368" lon="2.18516">
        <ele>55.1</ele>
        <time>2023-10-04T14:15:12Z</time>
      </trkpt>
      <trkpt lat="50.05368" lon="2.18515">
        <ele>55.1</ele>
        <time>2023-10-04T14:15:13Z</time>
      </trkpt>
      <trkpt lat="50.05368" lon="2.18513">
        <ele>55</ele>
        <time>2023-10-04T14:15:14Z</time>
      </trkpt>
      <trkpt lat="50.05367" lon="2.18511">
        <ele>55</ele>
        <time>2023-10-04T14:15:15Z</time>
      </trkpt>
      <trkpt lat="50.05366" lon="2.18509">
        <ele>54.9</ele>
        <time>2023-10-04T14:15:16Z</time>
      </trkpt>
      <trkpt lat="50.05366" lon="2.18507">
        <ele>54.9</ele>
        <time>2023-10-04T14:15:17Z</time>
      </trkpt>
      <trkpt lat="50.05366" lon="2.18506">
        <ele>54.8</ele>
        <time>2023-10-04T14:15:18Z</time>
      </trkpt>
      <trkpt lat="50.05365" lon="2.18505">
        <ele>54.8</ele>
        <time>2023-10-04T14:15:19Z</time>
      </trkpt>
      <trkpt lat="50.05364" lon="2.18503">
        <ele>54.8</ele>
        <time>2023-10-04T14:15:20Z</time>
      </trkpt>
      <trkpt lat="50.05364" lon="2.18502">
        <ele>54.7</ele>
        <time>2023-10-04T14:15:21Z</time>
      </trkpt>
      <trkpt lat="50.05363" lon="2.185">
        <ele>54.7</ele>
        <time>2023-10-04T14:15:22Z</time>
      </trkpt>
      <trkpt lat="50.05363" lon="2.18499">
        <ele>54.6</ele>
        <time>2023-10-04T14:15:23Z</time>
      </trkpt>
      <trkpt lat="50.05362" lon="2.18497">
        <ele>54.6</ele>
        <time>2023-10-04T14:15:24Z</time>
      </trkpt>
      <trkpt lat="50.05361" lon="2.18496">
        <ele>54.5</ele>
        <time>2023-10-04T14:15:25Z</time>
      </trkpt>
      <trkpt lat="50.05361" lon="2.18494">
        <ele>54.5</ele>
        <time>2023-10-04T14:15:26Z</time>
      </trkpt>
      <trkpt lat="50.05361" lon="2.18493">
        <ele>54.4</ele>
        <time>2023-10-04T14:15:27Z</time>
      </trkpt>
      <trkpt lat="50.0536" lon="2.18491">
        <ele>54.4</ele>
        <time>2023-10-04T14:15:28Z</time>
      </trkpt>
      <trkpt lat="50.05359" lon="2.1849">
        <ele>54.4</ele>
        <time>2023-10-04T14:15:29Z</time>
      </trkpt>
      <trkpt lat="50.05359" lon="2.18488">
        <ele>54.3</ele>
        <time>2023-10-04T14:15:30Z</time>
      </trkpt>
      <trkpt lat="50.05358" lon="2.18487">
        <ele>54.3</ele>
        <time>2023-10-04T14:15:31Z</time>
      </trkpt>
      <trkpt lat="50.05357" lon="2.18486">
        <ele>54.2</ele>
        <time>2023-10-04T14:15:32Z</time>
      </trkpt>
      <trkpt lat="50.05357" lon="2.18484">
        <ele>54.2</ele>
        <time>2023-10-04T14:15:33Z</time>
      </trkpt>
      <trkpt lat="50.05356" lon="2.18483">
        <ele>54.2</ele>
        <time>2023-10-04T14:15:34Z</time>
      </trkpt>
      <trkpt lat="50.05356" lon="2.18482">
        <ele>54.1</ele>
        <time>2023-10-04T14:15:35Z</time>
      </trkpt>
      <trkpt lat="50.05355" lon="2.1848">
        <ele>54.1</ele>
        <time>2023-10-04T14:15:36Z</time>
      </trkpt>
      <trkpt lat="50.05355" lon="2.18479">
        <ele>54</ele>
        <time>2023-10-04T14:15:37Z</time>
      </trkpt>
      <trkpt lat="50.05355" lon="2.18477">
        <ele>54</ele>
        <time>2023-10-04T14:15:38Z</time>
      </trkpt>
      <trkpt lat="50.05354" lon="2.18476">
        <ele>53.9</ele>
        <time>2023-10-04T14:15:39Z</time>
      </trkpt>
      <trkpt lat="50.05354" lon="2.18474">
        <ele>53.9</ele>
        <time>2023-10-04T14:15:40Z</time>
      </trkpt>
      <trkpt lat="50.05353" lon="2.18472">
        <ele>53.8</ele>
        <time>2023-10-04T14:15:41Z</time>
      </trkpt>
      <trkpt lat="50.05353" lon="2.18471">
        <ele>53.8</ele>
        <time>2023-10-04T14:15:42Z</time>
      </trkpt>
      <trkpt lat="50.05352" lon="2.18469">
        <ele>53.7</ele>
        <time>2023-10-04T14:15:43Z</time>
      </trkpt>
      <trkpt lat="50.05352" lon="2.18468">
        <ele>53.7</ele>
        <time>2023-10-04T14:15:44Z</time>
      </trkpt>
      <trkpt lat="50.05351" lon="2.18467">
        <ele>53.6</ele>
        <time>2023-10-04T14:15:45Z</time>
      </trkpt>
      <trkpt lat="50.05351" lon="2.18465">
        <ele>53.6</ele>
        <time>2023-10-04T14:15:46Z</time>
      </trkpt>
      <trkpt lat="50.0535" lon="2.18464">
        <ele>53.5</ele>
        <time>2023-10-04T14:15:47Z</time>
      </trkpt>
      <trkpt lat="50.0535" lon="2.18463">
        <ele>53.5</ele>
        <time>2023-10-04T14:15:48Z</time>
      </trkpt>
      <trkpt lat="50.05349" lon="2.18461">
        <ele>53.4</ele>
        <time>2023-10-04T14:15:49Z</time>
      </trkpt>
      <trkpt lat="50.05349" lon="2.1846">
        <ele>53.4</ele>
        <time>2023-10-04T14:15:50Z</time>
      </trkpt>
      <trkpt lat="50.05348" lon="2.18458">
        <ele>53.3</ele>
        <time>2023-10-04T14:15:51Z</time>
      </trkpt>
      <trkpt lat="50.05348" lon="2.18456">
        <ele>53.2</ele>
        <time>2023-10-04T14:15:52Z</time>
      </trkpt>
      <trkpt lat="50.05348" lon="2.18455">
        <ele>53.2</ele>
        <time>2023-10-04T14:15:53Z</time>
      </trkpt>
      <trkpt lat="50.05347" lon="2.18453">
        <ele>53.1</ele>
        <time>2023-10-04T14:15:54Z</time>
      </trkpt>
      <trkpt lat="50.05347" lon="2.18452">
        <ele>53</ele>
        <time>2023-10-04T14:15:55Z</time>
      </trkpt>
      <trkpt lat="50.05347" lon="2.1845">
        <ele>53</ele>
        <time>2023-10-04T14:15:56Z</time>
      </trkpt>
      <trkpt lat="50.05346" lon="2.18449">
        <ele>52.9</ele>
        <time>2023-10-04T14:15:57Z</time>
      </trkpt>
      <trkpt lat="50.05346" lon="2.18448">
        <ele>52.8</ele>
        <time>2023-10-04T14:15:58Z</time>
      </trkpt>
      <trkpt lat="50.05346" lon="2.18446">
        <ele>52.8</ele>
        <time>2023-10-04T14:15:59Z</time>
      </trkpt>
      <trkpt lat="50.05345" lon="2.18445">
        <ele>52.7</ele>
        <time>2023-10-04T14:16:00Z</time>
      </trkpt>
      <trkpt lat="50.05345" lon="2.18443">
        <ele>52.6</ele>
        <time>2023-10-04T14:16:01Z</time>
      </trkpt>
      <trkpt lat="50.05345" lon="2.18442">
        <ele>52.6</ele>
        <time>2023-10-04T14:16:02Z</time>
      </trkpt>
      <trkpt lat="50.05344" lon="2.1844">
        <ele>52.5</ele>
        <time>2023-10-04T14:16:03Z</time>
      </trkpt>
      <trkpt lat="50.05343" lon="2.18439">
        <ele>52.4</ele>
        <time>2023-10-04T14:16:04Z</time>
      </trkpt>
      <trkpt lat="50.05343" lon="2.18437">
        <ele>52.3</ele>
        <time>2023-10-04T14:16:05Z</time>
      </trkpt>
      <trkpt lat="50.05342" lon="2.18436">
        <ele>52.2</ele>
        <time>2023-10-04T14:16:06Z</time>
      </trkpt>
      <trkpt lat="50.05342" lon="2.18434">
        <ele>52.2</ele>
        <time>2023-10-04T14:16:07Z</time>
      </trkpt>
      <trkpt lat="50.05341" lon="2.18432">
        <ele>52.1</ele>
        <time>2023-10-04T14:16:08Z</time>
      </trkpt>
      <trkpt lat="50.05341" lon="2.18431">
        <ele>52</ele>
        <time>2023-10-04T14:16:09Z</time>
      </trkpt>
      <trkpt lat="50.0534" lon="2.18428">
        <ele>51.8</ele>
        <time>2023-10-04T14:16:10Z</time>
      </trkpt>
      <trkpt lat="50.05339" lon="2.18427">
        <ele>51.8</ele>
        <time>2023-10-04T14:16:11Z</time>
      </trkpt>
      <trkpt lat="50.05339" lon="2.18426">
        <ele>51.7</ele>
        <time>2023-10-04T14:16:12Z</time>
      </trkpt>
      <trkpt lat="50.05338" lon="2.18423">
        <ele>51.5</ele>
        <time>2023-10-04T14:16:13Z</time>
      </trkpt>
      <trkpt lat="50.05337" lon="2.18422">
        <ele>51.5</ele>
        <time>2023-10-04T14:16:14Z</time>
      </trkpt>
      <trkpt lat="50.05337" lon="2.18421">
        <ele>51.4</ele>
        <time>2023-10-04T14:16:15Z</time>
      </trkpt>
      <trkpt lat="50.05336" lon="2.1842">
        <ele>51.3</ele>
        <time>2023-10-04T14:16:16Z</time>
      </trkpt>
      <trkpt lat="50.05336" lon="2.18418">
        <ele>51.2</ele>
        <time>2023-10-04T14:16:17Z</time>
      </trkpt>
      <trkpt lat="50.05335" lon="2.18417">
        <ele>51.2</ele>
        <time>2023-10-04T14:16:18Z</time>
      </trkpt>
      <trkpt lat="50.05334" lon="2.18415">
        <ele>51.1</ele>
        <time>2023-10-04T14:16:19Z</time>
      </trkpt>
      <trkpt lat="50.05333" lon="2.18414">
        <ele>51</ele>
        <time>2023-10-04T14:16:20Z</time>
      </trkpt>
      <trkpt lat="50.05333" lon="2.18413">
        <ele>50.9</ele>
        <time>2023-10-04T14:16:21Z</time>
      </trkpt>
      <trkpt lat="50.05331" lon="2.1841">
        <ele>50.7</ele>
        <time>2023-10-04T14:16:22Z</time>
      </trkpt>
      <trkpt lat="50.05331" lon="2.1841">
        <ele>50.7</ele>
        <time>2023-10-04T14:16:23Z</time>
      </trkpt>
      <trkpt lat="50.0533" lon="2.18409">
        <ele>50.6</ele>
        <time>2023-10-04T14:16:24Z</time>
      </trkpt>
      <trkpt lat="50.05329" lon="2.18407">
        <ele>50.5</ele>
        <time>2023-10-04T14:16:25Z</time>
      </trkpt>
      <trkpt lat="50.05328" lon="2.18406">
        <ele>50.4</ele>
        <time>2023-10-04T14:16:26Z</time>
      </trkpt>
      <trkpt lat="50.05327" lon="2.18404">
        <ele>50.3</ele>
        <time>2023-10-04T14:16:27Z</time>
      </trkpt>
      <trkpt lat="50.05326" lon="2.18403">
        <ele>50.2</ele>
        <time>2023-10-04T14:16:28Z</time>
      </trkpt>
      <trkpt lat="50.05325" lon="2.184">
        <ele>50</ele>
        <time>2023-10-04T14:16:29Z</time>
      </trkpt>
      <trkpt lat="50.05324" lon="2.18399">
        <ele>49.9</ele>
        <time>2023-10-04T14:16:30Z</time>
      </trkpt>
      <trkpt lat="50.05323" lon="2.18398">
        <ele>49.9</ele>
        <time>2023-10-04T14:16:31Z</time>
      </trkpt>
      <trkpt lat="50.05323" lon="2.18397">
        <ele>49.8</ele>
        <time>2023-10-04T14:16:32Z</time>
      </trkpt>
      <trkpt lat="50.05322" lon="2.18396">
        <ele>49.7</ele>
        <time>2023-10-04T14:16:33Z</time>
      </trkpt>
      <trkpt lat="50.05321" lon="2.18395">
        <ele>49.6</ele>
        <time>2023-10-04T14:16:34Z</time>
      </trkpt>
      <trkpt lat="50.05321" lon="2.18394">
        <ele>49.6</ele>
        <time>2023-10-04T14:16:35Z</time>
      </trkpt>
      <trkpt lat="50.0532" lon="2.18393">
        <ele>49.5</ele>
        <time>2023-10-04T14:16:36Z</time>
      </trkpt>
      <trkpt lat="50.05319" lon="2.18391">
        <ele>49.4</ele>
        <time>2023-10-04T14:16:37Z</time>
      </trkpt>
      <trkpt lat="50.05318" lon="2.1839">
        <ele>49.3</ele>
        <time>2023-10-04T14:16:38Z</time>
      </trkpt>
      <trkpt lat="50.05318" lon="2.18389">
        <ele>49.3</ele>
        <time>2023-10-04T14:16:39Z</time>
      </trkpt>
      <trkpt lat="50.05317" lon="2.18388">
        <ele>49.2</ele>
        <time>2023-10-04T14:16:40Z</time>
      </trkpt>
      <trkpt lat="50.05316" lon="2.18386">
        <ele>49.1</ele>
        <time>2023-10-04T14:16:41Z</time>
      </trkpt>
      <trkpt lat="50.05316" lon="2.18385">
        <ele>49</ele>
        <time>2023-10-04T14:16:42Z</time>
      </trkpt>
      <trkpt lat="50.05315" lon="2.18384">
        <ele>49</ele>
        <time>2023-10-04T14:16:43Z</time>
      </trkpt>
      <trkpt lat="50.05315" lon="2.18383">
        <ele>48.9</ele>
        <time>2023-10-04T14:16:44Z</time>
      </trkpt>
      <trkpt lat="50.05314" lon="2.18382">
        <ele>48.8</ele>
        <time>2023-10-04T14:16:45Z</time>
      </trkpt>
      <trkpt lat="50.05314" lon="2.1838">
        <ele>48.8</ele>
        <time>2023-10-04T14:16:46Z</time>
      </trkpt>
      <trkpt lat="50.05313" lon="2.18379">
        <ele>48.7</ele>
        <time>2023-10-04T14:16:47Z</time>
      </trkpt>
      <trkpt lat="50.05313" lon="2.18378">
        <ele>48.6</ele>
        <time>2023-10-04T14:16:48Z</time>
      </trkpt>
      <trkpt lat="50.05312" lon="2.18377">
        <ele>48.5</ele>
        <time>2023-10-04T14:16:49Z</time>
      </trkpt>
      <trkpt lat="50.05312" lon="2.18376">
        <ele>48.5</ele>
        <time>2023-10-04T14:16:50Z</time>
      </trkpt>
      <trkpt lat="50.05312" lon="2.18374">
        <ele>48.4</ele>
        <time>2023-10-04T14:16:51Z</time>
      </trkpt>
      <trkpt lat="50.05311" lon="2.18373">
        <ele>48.4</ele>
        <time>2023-10-04T14:16:52Z</time>
      </trkpt>
      <trkpt lat="50.05311" lon="2.18373">
        <ele>48.3</ele>
        <time>2023-10-04T14:16:53Z</time>
      </trkpt>
      <trkpt lat="50.0531" lon="2.18372">
        <ele>48.2</ele>
        <time>2023-10-04T14:16:54Z</time>
      </trkpt>
      <trkpt lat="50.05309" lon="2.18371">
        <ele>48.2</ele>
        <time>2023-10-04T14:16:55Z</time>
      </trkpt>
      <trkpt lat="50.05308" lon="2.18371">
        <ele>48.1</ele>
        <time>2023-10-04T14:16:56Z</time>
      </trkpt>
      <trkpt lat="50.05308" lon="2.1837">
        <ele>48</ele>
        <time>2023-10-04T14:16:57Z</time>
      </trkpt>
      <trkpt lat="50.05307" lon="2.1837">
        <ele>48</ele>
        <time>2023-10-04T14:16:58Z</time>
      </trkpt>
      <trkpt lat="50.05306" lon="2.1837">
        <ele>47.9</ele>
        <time>2023-10-04T14:16:59Z</time>
      </trkpt>
      <trkpt lat="50.05305" lon="2.1837">
        <ele>47.9</ele>
        <time>2023-10-04T14:17:00Z</time>
      </trkpt>
      <trkpt lat="50.05304" lon="2.1837">
        <ele>47.8</ele>
        <time>2023-10-04T14:17:01Z</time>
      </trkpt>
      <trkpt lat="50.05304" lon="2.18369">
        <ele>47.8</ele>
        <time>2023-10-04T14:17:02Z</time>
      </trkpt>
      <trkpt lat="50.05303" lon="2.18369">
        <ele>47.7</ele>
        <time>2023-10-04T14:17:03Z</time>
      </trkpt>
      <trkpt lat="50.05302" lon="2.1837">
        <ele>47.6</ele>
        <time>2023-10-04T14:17:04Z</time>
      </trkpt>
      <trkpt lat="50.05301" lon="2.1837">
        <ele>47.6</ele>
        <time>2023-10-04T14:17:05Z</time>
      </trkpt>
      <trkpt lat="50.05299" lon="2.1837">
        <ele>47.5</ele>
        <time>2023-10-04T14:17:06Z</time>
      </trkpt>
      <trkpt lat="50.05298" lon="2.1837">
        <ele>47.4</ele>
        <time>2023-10-04T14:17:07Z</time>
      </trkpt>
      <trkpt lat="50.05297" lon="2.1837">
        <ele>47.3</ele>
        <time>2023-10-04T14:17:08Z</time>
      </trkpt>
      <trkpt lat="50.05296" lon="2.18371">
        <ele>47.2</ele>
        <time>2023-10-04T14:17:09Z</time>
      </trkpt>
      <trkpt lat="50.05294" lon="2.1837">
        <ele>47</ele>
        <time>2023-10-04T14:17:10Z</time>
      </trkpt>
      <trkpt lat="50.05293" lon="2.1837">
        <ele>46.9</ele>
        <time>2023-10-04T14:17:11Z</time>
      </trkpt>
      <trkpt lat="50.05292" lon="2.1837">
        <ele>46.9</ele>
        <time>2023-10-04T14:17:12Z</time>
      </trkpt>
      <trkpt lat="50.05291" lon="2.1837">
        <ele>46.8</ele>
        <time>2023-10-04T14:17:13Z</time>
      </trkpt>
      <trkpt lat="50.05289" lon="2.18369">
        <ele>46.6</ele>
        <time>2023-10-04T14:17:14Z</time>
      </trkpt>
      <trkpt lat="50.05288" lon="2.18369">
        <ele>46.5</ele>
        <time>2023-10-04T14:17:15Z</time>
      </trkpt>
      <trkpt lat="50.05287" lon="2.18368">
        <ele>46.4</ele>
        <time>2023-10-04T14:17:16Z</time>
      </trkpt>
      <trkpt lat="50.05284" lon="2.18367">
        <ele>46.3</ele>
        <time>2023-10-04T14:17:17Z</time>
      </trkpt>
      <trkpt lat="50.05284" lon="2.18367">
        <ele>46.2</ele>
        <time>2023-10-04T14:17:18Z</time>
      </trkpt>
      <trkpt lat="50.05283" lon="2.18367">
        <ele>46.1</ele>
        <time>2023-10-04T14:17:19Z</time>
      </trkpt>
      <trkpt lat="50.05281" lon="2.18366">
        <ele>46</ele>
        <time>2023-10-04T14:17:20Z</time>
      </trkpt>
      <trkpt lat="50.0528" lon="2.18366">
        <ele>45.9</ele>
        <time>2023-10-04T14:17:21Z</time>
      </trkpt>
      <trkpt lat="50.05279" lon="2.18366">
        <ele>45.9</ele>
        <time>2023-10-04T14:17:22Z</time>
      </trkpt>
      <trkpt lat="50.05277" lon="2.18365">
        <ele>45.7</ele>
        <time>2023-10-04T14:17:23Z</time>
      </trkpt>
      <trkpt lat="50.05276" lon="2.18365">
        <ele>45.6</ele>
        <time>2023-10-04T14:17:24Z</time>
      </trkpt>
      <trkpt lat="50.05275" lon="2.18365">
        <ele>45.6</ele>
        <time>2023-10-04T14:17:25Z</time>
      </trkpt>
      <trkpt lat="50.05274" lon="2.18365">
        <ele>45.5</ele>
        <time>2023-10-04T14:17:26Z</time>
      </trkpt>
      <trkpt lat="50.05273" lon="2.18365">
        <ele>45.4</ele>
        <time>2023-10-04T14:17:27Z</time>
      </trkpt>
      <trkpt lat="50.05272" lon="2.18365">
        <ele>45.3</ele>
        <time>2023-10-04T14:17:28Z</time>
      </trkpt>
      <trkpt lat="50.05271" lon="2.18364">
        <ele>45.3</ele>
        <time>2023-10-04T14:17:29Z</time>
      </trkpt>
      <trkpt lat="50.0527" lon="2.18364">
        <ele>45.2</ele>
        <time>2023-10-04T14:17:30Z</time>
      </trkpt>
      <trkpt lat="50.05269" lon="2.18364">
        <ele>45.1</ele>
        <time>2023-10-04T14:17:31Z</time>
      </trkpt>
      <trkpt lat="50.05268" lon="2.18364">
        <ele>45.1</ele>
        <time>2023-10-04T14:17:32Z</time>
      </trkpt>
      <trkpt lat="50.05267" lon="2.18364">
        <ele>45</ele>
        <time>2023-10-04T14:17:33Z</time>
      </trkpt>
      <trkpt lat="50.05266" lon="2.18364">
        <ele>44.9</ele>
        <time>2023-10-04T14:17:34Z</time>
      </trkpt>
      <trkpt lat="50.05265" lon="2.18364">
        <ele>44.8</ele>
        <time>2023-10-04T14:17:35Z</time>
      </trkpt>
      <trkpt lat="50.05263" lon="2.18364">
        <ele>44.8</ele>
        <time>2023-10-04T14:17:36Z</time>
      </trkpt>
      <trkpt lat="50.05262" lon="2.18364">
        <ele>44.7</ele>
        <time>2023-10-04T14:17:37Z</time>
      </trkpt>
      <trkpt lat="50.05261" lon="2.18364">
        <ele>44.6</ele>
        <time>2023-10-04T14:17:38Z</time>
      </trkpt>
      <trkpt lat="50.05261" lon="2.18363">
        <ele>44.6</ele>
        <time>2023-10-04T14:17:39Z</time>
      </trkpt>
      <trkpt lat="50.0526" lon="2.18363">
        <ele>44.5</ele>
        <time>2023-10-04T14:17:40Z</time>
      </trkpt>
      <trkpt lat="50.05259" lon="2.18363">
        <ele>44.4</ele>
        <time>2023-10-04T14:17:41Z</time>
      </trkpt>
      <trkpt lat="50.05258" lon="2.18363">
        <ele>44.4</ele>
        <time>2023-10-04T14:17:42Z</time>
      </trkpt>
      <trkpt lat="50.05257" lon="2.18362">
        <ele>44.3</ele>
        <time>2023-10-04T14:17:43Z</time>
      </trkpt>
      <trkpt lat="50.05256" lon="2.18362">
        <ele>44.2</ele>
        <time>2023-10-04T14:17:44Z</time>
      </trkpt>
      <trkpt lat="50.05255" lon="2.18362">
        <ele>44.2</ele>
        <time>2023-10-04T14:17:45Z</time>
      </trkpt>
      <trkpt lat="50.05253" lon="2.18362">
        <ele>44.1</ele>
        <time>2023-10-04T14:17:46Z</time>
      </trkpt>
      <trkpt lat="50.05252" lon="2.18361">
        <ele>44</ele>
        <time>2023-10-04T14:17:47Z</time>
      </trkpt>
      <trkpt lat="50.05252" lon="2.18361">
        <ele>44</ele>
        <time>2023-10-04T14:17:48Z</time>
      </trkpt>
      <trkpt lat="50.05251" lon="2.18361">
        <ele>43.9</ele>
        <time>2023-10-04T14:17:49Z</time>
      </trkpt>
      <trkpt lat="50.0525" lon="2.18361">
        <ele>43.8</ele>
        <time>2023-10-04T14:17:50Z</time>
      </trkpt>
      <trkpt lat="50.05249" lon="2.18361">
        <ele>43.8</ele>
        <time>2023-10-04T14:17:51Z</time>
      </trkpt>
      <trkpt lat="50.05248" lon="2.18361">
        <ele>43.7</ele>
        <time>2023-10-04T14:17:52Z</time>
      </trkpt>
      <trkpt lat="50.05247" lon="2.1836">
        <ele>43.7</ele>
        <time>2023-10-04T14:17:53Z</time>
      </trkpt>
      <trkpt lat="50.05246" lon="2.1836">
        <ele>43.6</ele>
        <time>2023-10-04T14:17:54Z</time>
      </trkpt>
      <trkpt lat="50.05244" lon="2.1836">
        <ele>43.5</ele>
        <time>2023-10-04T14:17:55Z</time>
      </trkpt>
      <trkpt lat="50.05242" lon="2.18361">
        <ele>43.4</ele>
        <time>2023-10-04T14:17:56Z</time>
      </trkpt>
      <trkpt lat="50.05241" lon="2.18361">
        <ele>43.4</ele>
        <time>2023-10-04T14:17:57Z</time>
      </trkpt>
      <trkpt lat="50.05241" lon="2.18361">
        <ele>43.3</ele>
        <time>2023-10-04T14:17:58Z</time>
      </trkpt>
      <trkpt lat="50.05238" lon="2.18361">
        <ele>43.2</ele>
        <time>2023-10-04T14:17:59Z</time>
      </trkpt>
      <trkpt lat="50.05238" lon="2.18361">
        <ele>43.1</ele>
        <time>2023-10-04T14:18:00Z</time>
      </trkpt>
      <trkpt lat="50.05237" lon="2.18361">
        <ele>43.1</ele>
        <time>2023-10-04T14:18:01Z</time>
      </trkpt>
      <trkpt lat="50.05236" lon="2.18361">
        <ele>43</ele>
        <time>2023-10-04T14:18:02Z</time>
      </trkpt>
      <trkpt lat="50.05234" lon="2.18361">
        <ele>43</ele>
        <time>2023-10-04T14:18:03Z</time>
      </trkpt>
      <trkpt lat="50.05233" lon="2.18361">
        <ele>42.9</ele>
        <time>2023-10-04T14:18:04Z</time>
      </trkpt>
      <trkpt lat="50.05231" lon="2.1836">
        <ele>42.8</ele>
        <time>2023-10-04T14:18:05Z</time>
      </trkpt>
      <trkpt lat="50.05231" lon="2.1836">
        <ele>42.8</ele>
        <time>2023-10-04T14:18:06Z</time>
      </trkpt>
      <trkpt lat="50.0523" lon="2.1836">
        <ele>42.7</ele>
        <time>2023-10-04T14:18:07Z</time>
      </trkpt>
      <trkpt lat="50.05228" lon="2.18359">
        <ele>42.6</ele>
        <time>2023-10-04T14:18:08Z</time>
      </trkpt>
      <trkpt lat="50.05227" lon="2.18359">
        <ele>42.6</ele>
        <time>2023-10-04T14:18:09Z</time>
      </trkpt>
      <trkpt lat="50.05226" lon="2.18359">
        <ele>42.5</ele>
        <time>2023-10-04T14:18:10Z</time>
      </trkpt>
      <trkpt lat="50.05225" lon="2.18358">
        <ele>42.5</ele>
        <time>2023-10-04T14:18:11Z</time>
      </trkpt>
      <trkpt lat="50.05224" lon="2.18358">
        <ele>42.4</ele>
        <time>2023-10-04T14:18:12Z</time>
      </trkpt>
      <trkpt lat="50.05223" lon="2.18358">
        <ele>42.4</ele>
        <time>2023-10-04T14:18:13Z</time>
      </trkpt>
      <trkpt lat="50.05222" lon="2.18358">
        <ele>42.4</ele>
        <time>2023-10-04T14:18:14Z</time>
      </trkpt>
      <trkpt lat="50.05221" lon="2.18357">
        <ele>42.3</ele>
        <time>2023-10-04T14:18:15Z</time>
      </trkpt>
      <trkpt lat="50.0522" lon="2.18357">
        <ele>42.3</ele>
        <time>2023-10-04T14:18:16Z</time>
      </trkpt>
      <trkpt lat="50.0522" lon="2.18356">
        <ele>42.2</ele>
        <time>2023-10-04T14:18:17Z</time>
      </trkpt>
      <trkpt lat="50.05219" lon="2.18356">
        <ele>42.2</ele>
        <time>2023-10-04T14:18:18Z</time>
      </trkpt>
      <trkpt lat="50.05218" lon="2.18356">
        <ele>42.2</ele>
        <time>2023-10-04T14:18:19Z</time>
      </trkpt>
      <trkpt lat="50.05217" lon="2.18355">
        <ele>42.1</ele>
        <time>2023-10-04T14:18:20Z</time>
      </trkpt>
      <trkpt lat="50.05216" lon="2.18355">
        <ele>42.1</ele>
        <time>2023-10-04T14:18:21Z</time>
      </trkpt>
      <trkpt lat="50.05215" lon="2.18354">
        <ele>42.1</ele>
        <time>2023-10-04T14:18:22Z</time>
      </trkpt>
      <trkpt lat="50.05215" lon="2.18354">
        <ele>42</ele>
        <time>2023-10-04T14:18:23Z</time>
      </trkpt>
      <trkpt lat="50.05214" lon="2.18353">
        <ele>42</ele>
        <time>2023-10-04T14:18:24Z</time>
      </trkpt>
      <trkpt lat="50.05213" lon="2.18353">
        <ele>42</ele>
        <time>2023-10-04T14:18:25Z</time>
      </trkpt>
      <trkpt lat="50.05212" lon="2.18352">
        <ele>41.9</ele>
        <time>2023-10-04T14:18:26Z</time>
      </trkpt>
      <trkpt lat="50.05211" lon="2.18352">
        <ele>41.9</ele>
        <time>2023-10-04T14:18:27Z</time>
      </trkpt>
      <trkpt lat="50.05211" lon="2.18351">
        <ele>41.9</ele>
        <time>2023-10-04T14:18:28Z</time>
      </trkpt>
      <trkpt lat="50.0521" lon="2.1835">
        <ele>41.9</ele>
        <time>2023-10-04T14:18:29Z</time>
      </trkpt>
      <trkpt lat="50.05209" lon="2.1835">
        <ele>41.8</ele>
        <time>2023-10-04T14:18:30Z</time>
      </trkpt>
      <trkpt lat="50.05208" lon="2.18349">
        <ele>41.8</ele>
        <time>2023-10-04T14:18:31Z</time>
      </trkpt>
      <trkpt lat="50.05208" lon="2.18348">
        <ele>41.8</ele>
        <time>2023-10-04T14:18:32Z</time>
      </trkpt>
      <trkpt lat="50.05207" lon="2.18348">
        <ele>41.7</ele>
        <time>2023-10-04T14:18:33Z</time>
      </trkpt>
      <trkpt lat="50.05206" lon="2.18348">
        <ele>41.7</ele>
        <time>2023-10-04T14:18:34Z</time>
      </trkpt>
      <trkpt lat="50.05205" lon="2.18347">
        <ele>41.7</ele>
        <time>2023-10-04T14:18:35Z</time>
      </trkpt>
      <trkpt lat="50.05204" lon="2.18347">
        <ele>41.6</ele>
        <time>2023-10-04T14:18:36Z</time>
      </trkpt>
      <trkpt lat="50.05204" lon="2.18347">
        <ele>41.6</ele>
        <time>2023-10-04T14:18:37Z</time>
      </trkpt>
      <trkpt lat="50.05203" lon="2.18347">
        <ele>41.6</ele>
        <time>2023-10-04T14:18:38Z</time>
      </trkpt>
      <trkpt lat="50.05202" lon="2.18348">
        <ele>41.6</ele>
        <time>2023-10-04T14:18:39Z</time>
      </trkpt>
      <trkpt lat="50.05201" lon="2.18348">
        <ele>41.5</ele>
        <time>2023-10-04T14:18:40Z</time>
      </trkpt>
      <trkpt lat="50.052" lon="2.18348">
        <ele>41.5</ele>
        <time>2023-10-04T14:18:41Z</time>
      </trkpt>
      <trkpt lat="50.05199" lon="2.18348">
        <ele>41.5</ele>
        <time>2023-10-04T14:18:42Z</time>
      </trkpt>
      <trkpt lat="50.05198" lon="2.18347">
        <ele>41.4</ele>
        <time>2023-10-04T14:18:43Z</time>
      </trkpt>
      <trkpt lat="50.05197" lon="2.18346">
        <ele>41.4</ele>
        <time>2023-10-04T14:18:44Z</time>
      </trkpt>
      <trkpt lat="50.05196" lon="2.18344">
        <ele>41.3</ele>
        <time>2023-10-04T14:18:45Z</time>
      </trkpt>
      <trkpt lat="50.05195" lon="2.18343">
        <ele>41.3</ele>
        <time>2023-10-04T14:18:46Z</time>
      </trkpt>
      <trkpt lat="50.05193" lon="2.18341">
        <ele>41.2</ele>
        <time>2023-10-04T14:18:47Z</time>
      </trkpt>
      <trkpt lat="50.05193" lon="2.1834">
        <ele>41.2</ele>
        <time>2023-10-04T14:18:48Z</time>
      </trkpt>
      <trkpt lat="50.05192" lon="2.18339">
        <ele>41.1</ele>
        <time>2023-10-04T14:18:49Z</time>
      </trkpt>
      <trkpt lat="50.05192" lon="2.18337">
        <ele>41.1</ele>
        <time>2023-10-04T14:18:50Z</time>
      </trkpt>
      <trkpt lat="50.05191" lon="2.18336">
        <ele>41.1</ele>
        <time>2023-10-04T14:18:51Z</time>
      </trkpt>
      <trkpt lat="50.0519" lon="2.18336">
        <ele>41.1</ele>
        <time>2023-10-04T14:18:52Z</time>
      </trkpt>
      <trkpt lat="50.0519" lon="2.18337">
        <ele>40.8</ele>
        <time>2023-10-04T14:18:53Z</time>
      </trkpt>
      <trkpt lat="50.05189" lon="2.18337">
        <ele>40.8</ele>
        <time>2023-10-04T14:18:54Z</time>
      </trkpt>
      <trkpt lat="50.05189" lon="2.18337">
        <ele>40.8</ele>
        <time>2023-10-04T14:18:55Z</time>
      </trkpt>
      <trkpt lat="50.05189" lon="2.18338">
        <ele>40.7</ele>
        <time>2023-10-04T14:18:56Z</time>
      </trkpt>
      <trkpt lat="50.05189" lon="2.18338">
        <ele>40.7</ele>
        <time>2023-10-04T14:18:57Z</time>
      </trkpt>
      <trkpt lat="50.05189" lon="2.18339">
        <ele>40.7</ele>
        <time>2023-10-04T14:18:58Z</time>
      </trkpt>
      <trkpt lat="50.05189" lon="2.18339">
        <ele>40.7</ele>
        <time>2023-10-04T14:18:59Z</time>
      </trkpt>
      <trkpt lat="50.05189" lon="2.18339">
        <ele>40.7</ele>
        <time>2023-10-04T14:19:00Z</time>
      </trkpt>
      <trkpt lat="50.05189" lon="2.18339">
        <ele>40.7</ele>
        <time>2023-10-04T14:19:01Z</time>
      </trkpt>
      <trkpt lat="50.05189" lon="2.18339">
        <ele>40.7</ele>
        <time>2023-10-04T14:19:02Z</time>
      </trkpt>
      <trkpt lat="50.05189" lon="2.18339">
        <ele>40.7</ele>
        <time>2023-10-04T14:19:03Z</time>
      </trkpt>
      <trkpt lat="50.05189" lon="2.18339">
        <ele>40.7</ele>
        <time>2023-10-04T14:19:04Z</time>
      </trkpt>
      <trkpt lat="50.05189" lon="2.18339">
        <ele>40.7</ele>
        <time>2023-10-04T14:19:05Z</time>
      </trkpt>
      <trkpt lat="50.05189" lon="2.18339">
        <ele>40.7</ele>
        <time>2023-10-04T14:19:06Z</time>
      </trkpt>
      <trkpt lat="50.05189" lon="2.18339">
        <ele>40.7</ele>
        <time>2023-10-04T14:19:07Z</time>
      </trkpt>
      <trkpt lat="50.05189" lon="2.18339">
        <ele>40.7</ele>
        <time>2023-10-04T14:19:08Z</time>
      </trkpt>
      <trkpt lat="50.05189" lon="2.18339">
        <ele>40.7</ele>
        <time>2023-10-04T14:19:09Z</time>
      </trkpt>
      <trkpt lat="50.05189" lon="2.18339">
        <ele>40.7</ele>
        <time>2023-10-04T14:19:10Z</time>
      </trkpt>
      <trkpt lat="50.0519" lon="2.18339">
        <ele>40.7</ele>
        <time>2023-10-04T14:19:11Z</time>
      </trkpt>
      <trkpt lat="50.0519" lon="2.18339">
        <ele>40.7</ele>
        <time>2023-10-04T14:19:12Z</time>
      </trkpt>
      <trkpt lat="50.0519" lon="2.18339">
        <ele>40.7</ele>
        <time>2023-10-04T14:19:13Z</time>
      </trkpt>
      <trkpt lat="50.0519" lon="2.18339">
        <ele>40.7</ele>
        <time>2023-10-04T14:19:14Z</time>
      </trkpt>
      <trkpt lat="50.0519" lon="2.18339">
        <ele>40.7</ele>
        <time>2023-10-04T14:19:15Z</time>
      </trkpt>
      <trkpt lat="50.0519" lon="2.18339">
        <ele>40.7</ele>
        <time>2023-10-04T14:19:16Z</time>
      </trkpt>
      <trkpt lat="50.0519" lon="2.18339">
        <ele>40.7</ele>
        <time>2023-10-04T14:19:17Z</time>
      </trkpt>
      <trkpt lat="50.0519" lon="2.18339">
        <ele>40.7</ele>
        <time>2023-10-04T14:19:18Z</time>
      </trkpt>
      <trkpt lat="50.0519" lon="2.18339">
        <ele>40.7</ele>
        <time>2023-10-04T14:19:19Z</time>
      </trkpt>
      <trkpt lat="50.0519" lon="2.18339">
        <ele>40.7</ele>
        <time>2023-10-04T14:19:20Z</time>
      </trkpt>
      <trkpt lat="50.0519" lon="2.18339">
        <ele>40.7</ele>
        <time>2023-10-04T14:19:21Z</time>
      </trkpt>
      <trkpt lat="50.0519" lon="2.18339">
        <ele>40.7</ele>
        <time>2023-10-04T14:19:22Z</time>
      </trkpt>
      <trkpt lat="50.0519" lon="2.18339">
        <ele>40.7</ele>
        <time>2023-10-04T14:19:23Z</time>
      </trkpt>
      <trkpt lat="50.0519" lon="2.18339">
        <ele>40.7</ele>
        <time>2023-10-04T14:19:24Z</time>
      </trkpt>
      <trkpt lat="50.0519" lon="2.18339">
        <ele>40.7</ele>
        <time>2023-10-04T14:19:25Z</time>
      </trkpt>
      <trkpt lat="50.0519" lon="2.18339">
        <ele>40.7</ele>
        <time>2023-10-04T14:19:26Z</time>
      </trkpt>
      <trkpt lat="50.0519" lon="2.18339">
        <ele>40.7</ele>
        <time>2023-10-04T14:19:27Z</time>
      </trkpt>
      <trkpt lat="50.0519" lon="2.18339">
        <ele>40.7</ele>
        <time>2023-10-04T14:19:28Z</time>
      </trkpt>
      <trkpt lat="50.0519" lon="2.18339">
        <ele>40.7</ele>
        <time>2023-10-04T14:19:29Z</time>
      </trkpt>
      <trkpt lat="50.0519" lon="2.18339">
        <ele>40.7</ele>
        <time>2023-10-04T14:19:30Z</time>
      </trkpt>
      <trkpt lat="50.0519" lon="2.18339">
        <ele>40.7</ele>
        <time>2023-10-04T14:19:31Z</time>
      </trkpt>
      <trkpt lat="50.0519" lon="2.18339">
        <ele>40.7</ele>
        <time>2023-10-04T14:19:32Z</time>
      </trkpt>
      <trkpt lat="50.0519" lon="2.18339">
        <ele>40.7</ele>
        <time>2023-10-04T14:19:33Z</time>
      </trkpt>
      <trkpt lat="50.0519" lon="2.18339">
        <ele>40.7</ele>
        <time>2023-10-04T14:19:34Z</time>
      </trkpt>
      <trkpt lat="50.0519" lon="2.18339">
        <ele>40.7</ele>
        <time>2023-10-04T14:19:35Z</time>
      </trkpt>
      <trkpt lat="50.0519" lon="2.18339">
        <ele>40.7</ele>
        <time>2023-10-04T14:19:36Z</time>
      </trkpt>
      <trkpt lat="50.0519" lon="2.18339">
        <ele>40.7</ele>
        <time>2023-10-04T14:19:37Z</time>
      </trkpt>
      <trkpt lat="50.0519" lon="2.18339">
        <ele>40.7</ele>
        <time>2023-10-04T14:19:38Z</time>
      </trkpt>
      <trkpt lat="50.0519" lon="2.18339">
        <ele>40.7</ele>
        <time>2023-10-04T14:19:39Z</time>
      </trkpt>
      <trkpt lat="50.0519" lon="2.18339">
        <ele>40.7</ele>
        <time>2023-10-04T14:19:40Z</time>
      </trkpt>
      <trkpt lat="50.0519" lon="2.18339">
        <ele>40.7</ele>
        <time>2023-10-04T14:19:41Z</time>
      </trkpt>
      <trkpt lat="50.0519" lon="2.18339">
        <ele>40.7</ele>
        <time>2023-10-04T14:19:42Z</time>
      </trkpt>
      <trkpt lat="50.0519" lon="2.18339">
        <ele>40.7</ele>
        <time>2023-10-04T14:19:43Z</time>
      </trkpt>
      <trkpt lat="50.0519" lon="2.18339">
        <ele>40.7</ele>
        <time>2023-10-04T14:19:44Z</time>
      </trkpt>
      <trkpt lat="50.0519" lon="2.18339">
        <ele>40.7</ele>
        <time>2023-10-04T14:19:45Z</time>
      </trkpt>
      <trkpt lat="50.0519" lon="2.18339">
        <ele>40.7</ele>
        <time>2023-10-04T14:19:46Z</time>
      </trkpt>
      <trkpt lat="50.0519" lon="2.18339">
        <ele>40.7</ele>
        <time>2023-10-04T14:19:47Z</time>
      </trkpt>
      <trkpt lat="50.05191" lon="2.1834">
        <ele>40.7</ele>
        <time>2023-10-04T14:19:48Z</time>
      </trkpt>
      <trkpt lat="50.05192" lon="2.18341">
        <ele>40.6</ele>
        <time>2023-10-04T14:19:49Z</time>
      </trkpt>
      <trkpt lat="50.05192" lon="2.1834">
        <ele>40.6</ele>
        <time>2023-10-04T14:19:50Z</time>
      </trkpt>
      <trkpt lat="50.05192" lon="2.1834">
        <ele>40.6</ele>
        <time>2023-10-04T14:19:51Z</time>
      </trkpt>
      <trkpt lat="50.05191" lon="2.18339">
        <ele>40.6</ele>
        <time>2023-10-04T14:19:52Z</time>
      </trkpt>
      <trkpt lat="50.05191" lon="2.18338">
        <ele>40.6</ele>
        <time>2023-10-04T14:19:53Z</time>
      </trkpt>
      <trkpt lat="50.05191" lon="2.18337">
        <ele>40.6</ele>
        <time>2023-10-04T14:19:54Z</time>
      </trkpt>
      <trkpt lat="50.0519" lon="2.18336">
        <ele>40.6</ele>
        <time>2023-10-04T14:19:55Z</time>
      </trkpt>
      <trkpt lat="50.0519" lon="2.18334">
        <ele>40.5</ele>
        <time>2023-10-04T14:19:56Z</time>
      </trkpt>
      <trkpt lat="50.0519" lon="2.18333">
        <ele>40.5</ele>
        <time>2023-10-04T14:19:57Z</time>
      </trkpt>
      <trkpt lat="50.05189" lon="2.18332">
        <ele>40.5</ele>
        <time>2023-10-04T14:19:58Z</time>
      </trkpt>
      <trkpt lat="50.05188" lon="2.1833">
        <ele>40.5</ele>
        <time>2023-10-04T14:19:59Z</time>
      </trkpt>
      <trkpt lat="50.05188" lon="2.18329">
        <ele>40.4</ele>
        <time>2023-10-04T14:20:00Z</time>
      </trkpt>
      <trkpt lat="50.05187" lon="2.18328">
        <ele>40.4</ele>
        <time>2023-10-04T14:20:01Z</time>
      </trkpt>
      <trkpt lat="50.05187" lon="2.18327">
        <ele>40.4</ele>
        <time>2023-10-04T14:20:02Z</time>
      </trkpt>
      <trkpt lat="50.05187" lon="2.18326">
        <ele>40.4</ele>
        <time>2023-10-04T14:20:03Z</time>
      </trkpt>
      <trkpt lat="50.05186" lon="2.18325">
        <ele>40.3</ele>
        <time>2023-10-04T14:20:04Z</time>
      </trkpt>
      <trkpt lat="50.05186" lon="2.18323">
        <ele>40.3</ele>
        <time>2023-10-04T14:20:05Z</time>
      </trkpt>
      <trkpt lat="50.05186" lon="2.18322">
        <ele>40.3</ele>
        <time>2023-10-04T14:20:06Z</time>
      </trkpt>
      <trkpt lat="50.05186" lon="2.1832">
        <ele>40.3</ele>
        <time>2023-10-04T14:20:07Z</time>
      </trkpt>
      <trkpt lat="50.05186" lon="2.18319">
        <ele>40.3</ele>
        <time>2023-10-04T14:20:08Z</time>
      </trkpt>
      <trkpt lat="50.05186" lon="2.18317">
        <ele>40.2</ele>
        <time>2023-10-04T14:20:09Z</time>
      </trkpt>
      <trkpt lat="50.05186" lon="2.18316">
        <ele>40.2</ele>
        <time>2023-10-04T14:20:10Z</time>
      </trkpt>
      <trkpt lat="50.05187" lon="2.18314">
        <ele>40.2</ele>
        <time>2023-10-04T14:20:11Z</time>
      </trkpt>
      <trkpt lat="50.05187" lon="2.18313">
        <ele>40.2</ele>
        <time>2023-10-04T14:20:12Z</time>
      </trkpt>
      <trkpt lat="50.05188" lon="2.18311">
        <ele>40.1</ele>
        <time>2023-10-04T14:20:13Z</time>
      </trkpt>
      <trkpt lat="50.05189" lon="2.18308">
        <ele>40.1</ele>
        <time>2023-10-04T14:20:14Z</time>
      </trkpt>
      <trkpt lat="50.0519" lon="2.18307">
        <ele>40.1</ele>
        <time>2023-10-04T14:20:15Z</time>
      </trkpt>
      <trkpt lat="50.0519" lon="2.18306">
        <ele>40.1</ele>
        <time>2023-10-04T14:20:16Z</time>
      </trkpt>
      <trkpt lat="50.05191" lon="2.18305">
        <ele>40</ele>
        <time>2023-10-04T14:20:17Z</time>
      </trkpt>
      <trkpt lat="50.05191" lon="2.18303">
        <ele>40</ele>
        <time>2023-10-04T14:20:18Z</time>
      </trkpt>
      <trkpt lat="50.05191" lon="2.18302">
        <ele>40</ele>
        <time>2023-10-04T14:20:19Z</time>
      </trkpt>
      <trkpt lat="50.05191" lon="2.183">
        <ele>40</ele>
        <time>2023-10-04T14:20:20Z</time>
      </trkpt>
      <trkpt lat="50.05192" lon="2.18298">
        <ele>39.9</ele>
        <time>2023-10-04T14:20:21Z</time>
      </trkpt>
      <trkpt lat="50.05192" lon="2.18296">
        <ele>39.9</ele>
        <time>2023-10-04T14:20:22Z</time>
      </trkpt>
      <trkpt lat="50.05192" lon="2.18295">
        <ele>39.9</ele>
        <time>2023-10-04T14:20:23Z</time>
      </trkpt>
      <trkpt lat="50.05193" lon="2.18293">
        <ele>39.9</ele>
        <time>2023-10-04T14:20:24Z</time>
      </trkpt>
      <trkpt lat="50.05193" lon="2.18291">
        <ele>39.9</ele>
        <time>2023-10-04T14:20:25Z</time>
      </trkpt>
      <trkpt lat="50.05193" lon="2.1829">
        <ele>39.8</ele>
        <time>2023-10-04T14:20:26Z</time>
      </trkpt>
      <trkpt lat="50.05193" lon="2.18288">
        <ele>39.8</ele>
        <time>2023-10-04T14:20:27Z</time>
      </trkpt>
      <trkpt lat="50.05194" lon="2.18286">
        <ele>39.8</ele>
        <time>2023-10-04T14:20:28Z</time>
      </trkpt>
      <trkpt lat="50.05194" lon="2.18283">
        <ele>39.8</ele>
        <time>2023-10-04T14:20:29Z</time>
      </trkpt>
      <trkpt lat="50.05194" lon="2.18282">
        <ele>39.7</ele>
        <time>2023-10-04T14:20:30Z</time>
      </trkpt>
      <trkpt lat="50.05194" lon="2.18281">
        <ele>39.7</ele>
        <time>2023-10-04T14:20:31Z</time>
      </trkpt>
      <trkpt lat="50.05195" lon="2.18279">
        <ele>39.7</ele>
        <time>2023-10-04T14:20:32Z</time>
      </trkpt>
      <trkpt lat="50.05195" lon="2.18277">
        <ele>39.7</ele>
        <time>2023-10-04T14:20:33Z</time>
      </trkpt>
      <trkpt lat="50.05195" lon="2.18276">
        <ele>39.7</ele>
        <time>2023-10-04T14:20:34Z</time>
      </trkpt>
      <trkpt lat="50.05195" lon="2.18274">
        <ele>39.6</ele>
        <time>2023-10-04T14:20:35Z</time>
      </trkpt>
      <trkpt lat="50.05196" lon="2.18273">
        <ele>39.6</ele>
        <time>2023-10-04T14:20:36Z</time>
      </trkpt>
      <trkpt lat="50.05196" lon="2.18271">
        <ele>39.6</ele>
        <time>2023-10-04T14:20:37Z</time>
      </trkpt>
      <trkpt lat="50.05196" lon="2.18269">
        <ele>39.6</ele>
        <time>2023-10-04T14:20:38Z</time>
      </trkpt>
      <trkpt lat="50.05196" lon="2.18268">
        <ele>39.6</ele>
        <time>2023-10-04T14:20:39Z</time>
      </trkpt>
      <trkpt lat="50.05196" lon="2.18266">
        <ele>39.5</ele>
        <time>2023-10-04T14:20:40Z</time>
      </trkpt>
      <trkpt lat="50.05197" lon="2.18264">
        <ele>39.5</ele>
        <time>2023-10-04T14:20:41Z</time>
      </trkpt>
      <trkpt lat="50.05197" lon="2.18263">
        <ele>39.5</ele>
        <time>2023-10-04T14:20:42Z</time>
      </trkpt>
      <trkpt lat="50.05197" lon="2.18261">
        <ele>39.5</ele>
        <time>2023-10-04T14:20:43Z</time>
      </trkpt>
      <trkpt lat="50.05198" lon="2.1826">
        <ele>39.5</ele>
        <time>2023-10-04T14:20:44Z</time>
      </trkpt>
      <trkpt lat="50.05198" lon="2.18259">
        <ele>39.5</ele>
        <time>2023-10-04T14:20:45Z</time>
      </trkpt>
      <trkpt lat="50.05198" lon="2.18257">
        <ele>39.4</ele>
        <time>2023-10-04T14:20:46Z</time>
      </trkpt>
      <trkpt lat="50.05198" lon="2.18255">
        <ele>39.4</ele>
        <time>2023-10-04T14:20:47Z</time>
      </trkpt>
      <trkpt lat="50.05198" lon="2.18254">
        <ele>39.4</ele>
        <time>2023-10-04T14:20:48Z</time>
      </trkpt>
      <trkpt lat="50.05198" lon="2.18252">
        <ele>39.4</ele>
        <time>2023-10-04T14:20:49Z</time>
      </trkpt>
      <trkpt lat="50.05198" lon="2.18251">
        <ele>39.4</ele>
        <time>2023-10-04T14:20:50Z</time>
      </trkpt>
      <trkpt lat="50.05198" lon="2.18249">
        <ele>39.4</ele>
        <time>2023-10-04T14:20:51Z</time>
      </trkpt>
      <trkpt lat="50.05198" lon="2.18247">
        <ele>39.3</ele>
        <time>2023-10-04T14:20:52Z</time>
      </trkpt>
      <trkpt lat="50.05198" lon="2.18246">
        <ele>39.3</ele>
        <time>2023-10-04T14:20:53Z</time>
      </trkpt>
      <trkpt lat="50.05198" lon="2.18245">
        <ele>39.3</ele>
        <time>2023-10-04T14:20:54Z</time>
      </trkpt>
      <trkpt lat="50.05199" lon="2.18244">
        <ele>39.3</ele>
        <time>2023-10-04T14:20:55Z</time>
      </trkpt>
      <trkpt lat="50.05199" lon="2.18242">
        <ele>39.3</ele>
        <time>2023-10-04T14:20:56Z</time>
      </trkpt>
      <trkpt lat="50.05199" lon="2.18241">
        <ele>39.3</ele>
        <time>2023-10-04T14:20:57Z</time>
      </trkpt>
      <trkpt lat="50.05199" lon="2.18239">
        <ele>39.2</ele>
        <time>2023-10-04T14:20:58Z</time>
      </trkpt>
      <trkpt lat="50.05199" lon="2.18237">
        <ele>39.2</ele>
        <time>2023-10-04T14:20:59Z</time>
      </trkpt>
      <trkpt lat="50.05199" lon="2.18236">
        <ele>39.2</ele>
        <time>2023-10-04T14:21:00Z</time>
      </trkpt>
      <trkpt lat="50.05199" lon="2.18234">
        <ele>39.2</ele>
        <time>2023-10-04T14:21:01Z</time>
      </trkpt>
      <trkpt lat="50.05199" lon="2.18232">
        <ele>39.2</ele>
        <time>2023-10-04T14:21:02Z</time>
      </trkpt>
      <trkpt lat="50.05199" lon="2.1823">
        <ele>39.1</ele>
        <time>2023-10-04T14:21:03Z</time>
      </trkpt>
      <trkpt lat="50.05199" lon="2.18229">
        <ele>39.1</ele>
        <time>2023-10-04T14:21:04Z</time>
      </trkpt>
      <trkpt lat="50.05199" lon="2.18227">
        <ele>39.1</ele>
        <time>2023-10-04T14:21:05Z</time>
      </trkpt>
      <trkpt lat="50.05198" lon="2.18226">
        <ele>39.1</ele>
        <time>2023-10-04T14:21:06Z</time>
      </trkpt>
      <trkpt lat="50.05198" lon="2.18224">
        <ele>39</ele>
        <time>2023-10-04T14:21:07Z</time>
      </trkpt>
      <trkpt lat="50.05198" lon="2.18223">
        <ele>39</ele>
        <time>2023-10-04T14:21:08Z</time>
      </trkpt>
      <trkpt lat="50.05198" lon="2.18221">
        <ele>39</ele>
        <time>2023-10-04T14:21:09Z</time>
      </trkpt>
      <trkpt lat="50.05197" lon="2.18219">
        <ele>39</ele>
        <time>2023-10-04T14:21:10Z</time>
      </trkpt>
      <trkpt lat="50.05197" lon="2.18218">
        <ele>39</ele>
        <time>2023-10-04T14:21:11Z</time>
      </trkpt>
      <trkpt lat="50.05196" lon="2.18215">
        <ele>38.9</ele>
        <time>2023-10-04T14:21:12Z</time>
      </trkpt>
      <trkpt lat="50.05195" lon="2.18214">
        <ele>38.9</ele>
        <time>2023-10-04T14:21:13Z</time>
      </trkpt>
      <trkpt lat="50.05195" lon="2.18213">
        <ele>38.9</ele>
        <time>2023-10-04T14:21:14Z</time>
      </trkpt>
      <trkpt lat="50.05194" lon="2.18211">
        <ele>38.9</ele>
        <time>2023-10-04T14:21:15Z</time>
      </trkpt>
      <trkpt lat="50.05194" lon="2.18209">
        <ele>38.8</ele>
        <time>2023-10-04T14:21:16Z</time>
      </trkpt>
      <trkpt lat="50.05193" lon="2.18208">
        <ele>38.8</ele>
        <time>2023-10-04T14:21:17Z</time>
      </trkpt>
      <trkpt lat="50.05193" lon="2.18206">
        <ele>38.8</ele>
        <time>2023-10-04T14:21:18Z</time>
      </trkpt>
      <trkpt lat="50.05192" lon="2.18205">
        <ele>38.8</ele>
        <time>2023-10-04T14:21:19Z</time>
      </trkpt>
      <trkpt lat="50.05192" lon="2.18204">
        <ele>38.7</ele>
        <time>2023-10-04T14:21:20Z</time>
      </trkpt>
      <trkpt lat="50.05191" lon="2.18202">
        <ele>38.7</ele>
        <time>2023-10-04T14:21:21Z</time>
      </trkpt>
      <trkpt lat="50.05191" lon="2.18201">
        <ele>38.7</ele>
        <time>2023-10-04T14:21:22Z</time>
      </trkpt>
      <trkpt lat="50.0519" lon="2.18199">
        <ele>38.7</ele>
        <time>2023-10-04T14:21:23Z</time>
      </trkpt>
      <trkpt lat="50.0519" lon="2.18197">
        <ele>38.7</ele>
        <time>2023-10-04T14:21:24Z</time>
      </trkpt>
      <trkpt lat="50.05189" lon="2.18196">
        <ele>38.6</ele>
        <time>2023-10-04T14:21:25Z</time>
      </trkpt>
      <trkpt lat="50.05189" lon="2.18194">
        <ele>38.6</ele>
        <time>2023-10-04T14:21:26Z</time>
      </trkpt>
      <trkpt lat="50.05188" lon="2.18193">
        <ele>38.6</ele>
        <time>2023-10-04T14:21:27Z</time>
      </trkpt>
      <trkpt lat="50.05188" lon="2.18191">
        <ele>38.6</ele>
        <time>2023-10-04T14:21:28Z</time>
      </trkpt>
      <trkpt lat="50.05187" lon="2.1819">
        <ele>38.6</ele>
        <time>2023-10-04T14:21:29Z</time>
      </trkpt>
      <trkpt lat="50.05187" lon="2.18188">
        <ele>38.5</ele>
        <time>2023-10-04T14:21:30Z</time>
      </trkpt>
      <trkpt lat="50.05186" lon="2.18187">
        <ele>38.5</ele>
        <time>2023-10-04T14:21:31Z</time>
      </trkpt>
      <trkpt lat="50.05186" lon="2.18185">
        <ele>38.5</ele>
        <time>2023-10-04T14:21:32Z</time>
      </trkpt>
      <trkpt lat="50.05185" lon="2.18182">
        <ele>38.5</ele>
        <time>2023-10-04T14:21:33Z</time>
      </trkpt>
      <trkpt lat="50.05185" lon="2.18181">
        <ele>38.5</ele>
        <time>2023-10-04T14:21:34Z</time>
      </trkpt>
      <trkpt lat="50.05185" lon="2.1818">
        <ele>38.5</ele>
        <time>2023-10-04T14:21:35Z</time>
      </trkpt>
      <trkpt lat="50.05184" lon="2.18177">
        <ele>38.4</ele>
        <time>2023-10-04T14:21:36Z</time>
      </trkpt>
      <trkpt lat="50.05184" lon="2.18176">
        <ele>38.4</ele>
        <time>2023-10-04T14:21:37Z</time>
      </trkpt>
      <trkpt lat="50.05184" lon="2.18174">
        <ele>38.4</ele>
        <time>2023-10-04T14:21:38Z</time>
      </trkpt>
      <trkpt lat="50.05183" lon="2.18173">
        <ele>38.4</ele>
        <time>2023-10-04T14:21:39Z</time>
      </trkpt>
      <trkpt lat="50.05183" lon="2.18171">
        <ele>38.4</ele>
        <time>2023-10-04T14:21:40Z</time>
      </trkpt>
      <trkpt lat="50.05183" lon="2.1817">
        <ele>38.4</ele>
        <time>2023-10-04T14:21:41Z</time>
      </trkpt>
      <trkpt lat="50.05183" lon="2.18168">
        <ele>38.4</ele>
        <time>2023-10-04T14:21:42Z</time>
      </trkpt>
      <trkpt lat="50.05183" lon="2.18167">
        <ele>38.3</ele>
        <time>2023-10-04T14:21:43Z</time>
      </trkpt>
      <trkpt lat="50.05183" lon="2.18165">
        <ele>38.3</ele>
        <time>2023-10-04T14:21:44Z</time>
      </trkpt>
      <trkpt lat="50.05183" lon="2.18164">
        <ele>38.3</ele>
        <time>2023-10-04T14:21:45Z</time>
      </trkpt>
      <trkpt lat="50.05183" lon="2.18163">
        <ele>38.3</ele>
        <time>2023-10-04T14:21:46Z</time>
      </trkpt>
      <trkpt lat="50.05183" lon="2.18161">
        <ele>38.3</ele>
        <time>2023-10-04T14:21:47Z</time>
      </trkpt>
      <trkpt lat="50.05182" lon="2.1816">
        <ele>38.3</ele>
        <time>2023-10-04T14:21:48Z</time>
      </trkpt>
      <trkpt lat="50.05182" lon="2.18158">
        <ele>38.3</ele>
        <time>2023-10-04T14:21:49Z</time>
      </trkpt>
      <trkpt lat="50.05181" lon="2.18157">
        <ele>38.3</ele>
        <time>2023-10-04T14:21:50Z</time>
      </trkpt>
      <trkpt lat="50.05181" lon="2.18155">
        <ele>38.3</ele>
        <time>2023-10-04T14:21:51Z</time>
      </trkpt>
      <trkpt lat="50.0518" lon="2.18152">
        <ele>38.2</ele>
        <time>2023-10-04T14:21:52Z</time>
      </trkpt>
      <trkpt lat="50.05179" lon="2.18151">
        <ele>38.2</ele>
        <time>2023-10-04T14:21:53Z</time>
      </trkpt>
      <trkpt lat="50.05179" lon="2.18149">
        <ele>38.2</ele>
        <time>2023-10-04T14:21:54Z</time>
      </trkpt>
      <trkpt lat="50.05178" lon="2.18146">
        <ele>38.2</ele>
        <time>2023-10-04T14:21:55Z</time>
      </trkpt>
      <trkpt lat="50.05178" lon="2.18145">
        <ele>38.2</ele>
        <time>2023-10-04T14:21:56Z</time>
      </trkpt>
      <trkpt lat="50.05178" lon="2.18143">
        <ele>38.2</ele>
        <time>2023-10-04T14:21:57Z</time>
      </trkpt>
      <trkpt lat="50.05177" lon="2.18142">
        <ele>38.2</ele>
        <time>2023-10-04T14:21:58Z</time>
      </trkpt>
      <trkpt lat="50.05177" lon="2.1814">
        <ele>38.2</ele>
        <time>2023-10-04T14:21:59Z</time>
      </trkpt>
      <trkpt lat="50.05176" lon="2.18139">
        <ele>38.2</ele>
        <time>2023-10-04T14:22:00Z</time>
      </trkpt>
      <trkpt lat="50.05175" lon="2.18136">
        <ele>38.1</ele>
        <time>2023-10-04T14:22:01Z</time>
      </trkpt>
      <trkpt lat="50.05174" lon="2.18135">
        <ele>38.1</ele>
        <time>2023-10-04T14:22:02Z</time>
      </trkpt>
      <trkpt lat="50.05174" lon="2.18134">
        <ele>38.1</ele>
        <time>2023-10-04T14:22:03Z</time>
      </trkpt>
      <trkpt lat="50.05172" lon="2.18132">
        <ele>38.1</ele>
        <time>2023-10-04T14:22:04Z</time>
      </trkpt>
      <trkpt lat="50.05172" lon="2.18131">
        <ele>38.1</ele>
        <time>2023-10-04T14:22:05Z</time>
      </trkpt>
      <trkpt lat="50.05171" lon="2.1813">
        <ele>38.1</ele>
        <time>2023-10-04T14:22:06Z</time>
      </trkpt>
      <trkpt lat="50.0517" lon="2.18129">
        <ele>38.1</ele>
        <time>2023-10-04T14:22:07Z</time>
      </trkpt>
      <trkpt lat="50.05169" lon="2.18128">
        <ele>38.1</ele>
        <time>2023-10-04T14:22:08Z</time>
      </trkpt>
      <trkpt lat="50.05169" lon="2.18126">
        <ele>38.1</ele>
        <time>2023-10-04T14:22:09Z</time>
      </trkpt>
      <trkpt lat="50.05168" lon="2.18125">
        <ele>38.1</ele>
        <time>2023-10-04T14:22:10Z</time>
      </trkpt>
      <trkpt lat="50.05167" lon="2.18124">
        <ele>38.1</ele>
        <time>2023-10-04T14:22:11Z</time>
      </trkpt>
      <trkpt lat="50.05167" lon="2.18123">
        <ele>38.1</ele>
        <time>2023-10-04T14:22:12Z</time>
      </trkpt>
      <trkpt lat="50.05166" lon="2.18122">
        <ele>38.1</ele>
        <time>2023-10-04T14:22:13Z</time>
      </trkpt>
      <trkpt lat="50.05165" lon="2.18121">
        <ele>38.1</ele>
        <time>2023-10-04T14:22:14Z</time>
      </trkpt>
      <trkpt lat="50.05164" lon="2.1812">
        <ele>38.1</ele>
        <time>2023-10-04T14:22:15Z</time>
      </trkpt>
      <trkpt lat="50.05162" lon="2.18119">
        <ele>38</ele>
        <time>2023-10-04T14:22:16Z</time>
      </trkpt>
      <trkpt lat="50.05161" lon="2.18118">
        <ele>38</ele>
        <time>2023-10-04T14:22:17Z</time>
      </trkpt>
      <trkpt lat="50.0516" lon="2.18118">
        <ele>38</ele>
        <time>2023-10-04T14:22:18Z</time>
      </trkpt>
      <trkpt lat="50.05158" lon="2.18116">
        <ele>38</ele>
        <time>2023-10-04T14:22:19Z</time>
      </trkpt>
      <trkpt lat="50.05157" lon="2.18115">
        <ele>38</ele>
        <time>2023-10-04T14:22:20Z</time>
      </trkpt>
      <trkpt lat="50.05157" lon="2.18115">
        <ele>38</ele>
        <time>2023-10-04T14:22:21Z</time>
      </trkpt>
      <trkpt lat="50.05155" lon="2.18114">
        <ele>38</ele>
        <time>2023-10-04T14:22:22Z</time>
      </trkpt>
      <trkpt lat="50.05154" lon="2.18113">
        <ele>38</ele>
        <time>2023-10-04T14:22:23Z</time>
      </trkpt>
      <trkpt lat="50.05153" lon="2.18113">
        <ele>38</ele>
        <time>2023-10-04T14:22:24Z</time>
      </trkpt>
      <trkpt lat="50.05152" lon="2.18111">
        <ele>37.9</ele>
        <time>2023-10-04T14:22:25Z</time>
      </trkpt>
      <trkpt lat="50.05151" lon="2.1811">
        <ele>37.9</ele>
        <time>2023-10-04T14:22:26Z</time>
      </trkpt>
      <trkpt lat="50.0515" lon="2.18109">
        <ele>37.9</ele>
        <time>2023-10-04T14:22:27Z</time>
      </trkpt>
      <trkpt lat="50.0515" lon="2.18108">
        <ele>37.9</ele>
        <time>2023-10-04T14:22:28Z</time>
      </trkpt>
      <trkpt lat="50.05149" lon="2.18107">
        <ele>37.9</ele>
        <time>2023-10-04T14:22:29Z</time>
      </trkpt>
      <trkpt lat="50.05148" lon="2.18106">
        <ele>37.9</ele>
        <time>2023-10-04T14:22:30Z</time>
      </trkpt>
      <trkpt lat="50.05147" lon="2.18105">
        <ele>37.9</ele>
        <time>2023-10-04T14:22:31Z</time>
      </trkpt>
      <trkpt lat="50.05146" lon="2.18104">
        <ele>37.8</ele>
        <time>2023-10-04T14:22:32Z</time>
      </trkpt>
      <trkpt lat="50.05145" lon="2.18103">
        <ele>37.8</ele>
        <time>2023-10-04T14:22:33Z</time>
      </trkpt>
      <trkpt lat="50.05144" lon="2.18103">
        <ele>37.8</ele>
        <time>2023-10-04T14:22:34Z</time>
      </trkpt>
      <trkpt lat="50.05143" lon="2.18102">
        <ele>37.8</ele>
        <time>2023-10-04T14:22:35Z</time>
      </trkpt>
      <trkpt lat="50.05142" lon="2.18102">
        <ele>37.8</ele>
        <time>2023-10-04T14:22:36Z</time>
      </trkpt>
      <trkpt lat="50.05141" lon="2.18101">
        <ele>37.8</ele>
        <time>2023-10-04T14:22:37Z</time>
      </trkpt>
      <trkpt lat="50.05141" lon="2.181">
        <ele>37.8</ele>
        <time>2023-10-04T14:22:38Z</time>
      </trkpt>
      <trkpt lat="50.0514" lon="2.18099">
        <ele>37.7</ele>
        <time>2023-10-04T14:22:39Z</time>
      </trkpt>
      <trkpt lat="50.05139" lon="2.18099">
        <ele>37.7</ele>
        <time>2023-10-04T14:22:40Z</time>
      </trkpt>
      <trkpt lat="50.05139" lon="2.18098">
        <ele>37.7</ele>
        <time>2023-10-04T14:22:41Z</time>
      </trkpt>
      <trkpt lat="50.05139" lon="2.18097">
        <ele>37.7</ele>
        <time>2023-10-04T14:22:42Z</time>
      </trkpt>
      <trkpt lat="50.05138" lon="2.18096">
        <ele>37.7</ele>
        <time>2023-10-04T14:22:43Z</time>
      </trkpt>
      <trkpt lat="50.05138" lon="2.18094">
        <ele>37.7</ele>
        <time>2023-10-04T14:22:44Z</time>
      </trkpt>
      <trkpt lat="50.05137" lon="2.18093">
        <ele>37.7</ele>
        <time>2023-10-04T14:22:45Z</time>
      </trkpt>
      <trkpt lat="50.05137" lon="2.18092">
        <ele>37.7</ele>
        <time>2023-10-04T14:22:46Z</time>
      </trkpt>
      <trkpt lat="50.05136" lon="2.18091">
        <ele>37.6</ele>
        <time>2023-10-04T14:22:47Z</time>
      </trkpt>
      <trkpt lat="50.05136" lon="2.1809">
        <ele>37.6</ele>
        <time>2023-10-04T14:22:48Z</time>
      </trkpt>
      <trkpt lat="50.05136" lon="2.18089">
        <ele>37.6</ele>
        <time>2023-10-04T14:22:49Z</time>
      </trkpt>
      <trkpt lat="50.05135" lon="2.18088">
        <ele>37.6</ele>
        <time>2023-10-04T14:22:50Z</time>
      </trkpt>
      <trkpt lat="50.05135" lon="2.18087">
        <ele>37.6</ele>
        <time>2023-10-04T14:22:51Z</time>
      </trkpt>
      <trkpt lat="50.05135" lon="2.18086">
        <ele>37.6</ele>
        <time>2023-10-04T14:22:52Z</time>
      </trkpt>
      <trkpt lat="50.05134" lon="2.18084">
        <ele>37.6</ele>
        <time>2023-10-04T14:22:53Z</time>
      </trkpt>
      <trkpt lat="50.05134" lon="2.18083">
        <ele>37.6</ele>
        <time>2023-10-04T14:22:54Z</time>
      </trkpt>
      <trkpt lat="50.05134" lon="2.18081">
        <ele>37.5</ele>
        <time>2023-10-04T14:22:55Z</time>
      </trkpt>
      <trkpt lat="50.05134" lon="2.1808">
        <ele>37.5</ele>
        <time>2023-10-04T14:22:56Z</time>
      </trkpt>
      <trkpt lat="50.05133" lon="2.18078">
        <ele>37.5</ele>
        <time>2023-10-04T14:22:57Z</time>
      </trkpt>
      <trkpt lat="50.05132" lon="2.18077">
        <ele>37.5</ele>
        <time>2023-10-04T14:22:58Z</time>
      </trkpt>
      <trkpt lat="50.05132" lon="2.18075">
        <ele>37.5</ele>
        <time>2023-10-04T14:22:59Z</time>
      </trkpt>
      <trkpt lat="50.05131" lon="2.18074">
        <ele>37.4</ele>
        <time>2023-10-04T14:23:00Z</time>
      </trkpt>
      <trkpt lat="50.0513" lon="2.18072">
        <ele>37.4</ele>
        <time>2023-10-04T14:23:01Z</time>
      </trkpt>
      <trkpt lat="50.0513" lon="2.18071">
        <ele>37.4</ele>
        <time>2023-10-04T14:23:02Z</time>
      </trkpt>
      <trkpt lat="50.05129" lon="2.18069">
        <ele>37.4</ele>
        <time>2023-10-04T14:23:03Z</time>
      </trkpt>
      <trkpt lat="50.05129" lon="2.18068">
        <ele>37.4</ele>
        <time>2023-10-04T14:23:04Z</time>
      </trkpt>
      <trkpt lat="50.05129" lon="2.18066">
        <ele>37.4</ele>
        <time>2023-10-04T14:23:05Z</time>
      </trkpt>
      <trkpt lat="50.05128" lon="2.18064">
        <ele>37.3</ele>
        <time>2023-10-04T14:23:06Z</time>
      </trkpt>
      <trkpt lat="50.05128" lon="2.18061">
        <ele>37.3</ele>
        <time>2023-10-04T14:23:07Z</time>
      </trkpt>
      <trkpt lat="50.05127" lon="2.1806">
        <ele>37.3</ele>
        <time>2023-10-04T14:23:08Z</time>
      </trkpt>
      <trkpt lat="50.05127" lon="2.18059">
        <ele>37.3</ele>
        <time>2023-10-04T14:23:09Z</time>
      </trkpt>
      <trkpt lat="50.05127" lon="2.18057">
        <ele>37.3</ele>
        <time>2023-10-04T14:23:10Z</time>
      </trkpt>
      <trkpt lat="50.05127" lon="2.18056">
        <ele>37.2</ele>
        <time>2023-10-04T14:23:11Z</time>
      </trkpt>
      <trkpt lat="50.05126" lon="2.18054">
        <ele>37.2</ele>
        <time>2023-10-04T14:23:12Z</time>
      </trkpt>
      <trkpt lat="50.05126" lon="2.18053">
        <ele>37.2</ele>
        <time>2023-10-04T14:23:13Z</time>
      </trkpt>
      <trkpt lat="50.05126" lon="2.18051">
        <ele>37.2</ele>
        <time>2023-10-04T14:23:14Z</time>
      </trkpt>
      <trkpt lat="50.05125" lon="2.18049">
        <ele>37.2</ele>
        <time>2023-10-04T14:23:15Z</time>
      </trkpt>
      <trkpt lat="50.05125" lon="2.18048">
        <ele>37.2</ele>
        <time>2023-10-04T14:23:16Z</time>
      </trkpt>
      <trkpt lat="50.05125" lon="2.18046">
        <ele>37.1</ele>
        <time>2023-10-04T14:23:17Z</time>
      </trkpt>
      <trkpt lat="50.05125" lon="2.18045">
        <ele>37.1</ele>
        <time>2023-10-04T14:23:18Z</time>
      </trkpt>
      <trkpt lat="50.05125" lon="2.18043">
        <ele>37.1</ele>
        <time>2023-10-04T14:23:19Z</time>
      </trkpt>
      <trkpt lat="50.05124" lon="2.18042">
        <ele>37.1</ele>
        <time>2023-10-04T14:23:20Z</time>
      </trkpt>
      <trkpt lat="50.05124" lon="2.1804">
        <ele>37.1</ele>
        <time>2023-10-04T14:23:21Z</time>
      </trkpt>
      <trkpt lat="50.05124" lon="2.18039">
        <ele>37.1</ele>
        <time>2023-10-04T14:23:22Z</time>
      </trkpt>
      <trkpt lat="50.05124" lon="2.18037">
        <ele>37</ele>
        <time>2023-10-04T14:23:23Z</time>
      </trkpt>
      <trkpt lat="50.05124" lon="2.18036">
        <ele>37</ele>
        <time>2023-10-04T14:23:24Z</time>
      </trkpt>
      <trkpt lat="50.05124" lon="2.18034">
        <ele>37</ele>
        <time>2023-10-04T14:23:25Z</time>
      </trkpt>
      <trkpt lat="50.05124" lon="2.18032">
        <ele>37</ele>
        <time>2023-10-04T14:23:26Z</time>
      </trkpt>
      <trkpt lat="50.05124" lon="2.18031">
        <ele>37</ele>
        <time>2023-10-04T14:23:27Z</time>
      </trkpt>
      <trkpt lat="50.05124" lon="2.18029">
        <ele>37</ele>
        <time>2023-10-04T14:23:28Z</time>
      </trkpt>
      <trkpt lat="50.05124" lon="2.18028">
        <ele>37</ele>
        <time>2023-10-04T14:23:29Z</time>
      </trkpt>
      <trkpt lat="50.05124" lon="2.18026">
        <ele>36.9</ele>
        <time>2023-10-04T14:23:30Z</time>
      </trkpt>
      <trkpt lat="50.05125" lon="2.18024">
        <ele>36.9</ele>
        <time>2023-10-04T14:23:31Z</time>
      </trkpt>
      <trkpt lat="50.05125" lon="2.18022">
        <ele>36.9</ele>
        <time>2023-10-04T14:23:32Z</time>
      </trkpt>
      <trkpt lat="50.05125" lon="2.18021">
        <ele>36.9</ele>
        <time>2023-10-04T14:23:33Z</time>
      </trkpt>
      <trkpt lat="50.05126" lon="2.18019">
        <ele>36.9</ele>
        <time>2023-10-04T14:23:34Z</time>
      </trkpt>
      <trkpt lat="50.05126" lon="2.18018">
        <ele>36.9</ele>
        <time>2023-10-04T14:23:35Z</time>
      </trkpt>
      <trkpt lat="50.05127" lon="2.18016">
        <ele>36.8</ele>
        <time>2023-10-04T14:23:36Z</time>
      </trkpt>
      <trkpt lat="50.05127" lon="2.18015">
        <ele>36.8</ele>
        <time>2023-10-04T14:23:37Z</time>
      </trkpt>
      <trkpt lat="50.05128" lon="2.18013">
        <ele>36.8</ele>
        <time>2023-10-04T14:23:38Z</time>
      </trkpt>
      <trkpt lat="50.05128" lon="2.18011">
        <ele>36.8</ele>
        <time>2023-10-04T14:23:39Z</time>
      </trkpt>
      <trkpt lat="50.05128" lon="2.18008">
        <ele>36.8</ele>
        <time>2023-10-04T14:23:40Z</time>
      </trkpt>
      <trkpt lat="50.05129" lon="2.18007">
        <ele>36.8</ele>
        <time>2023-10-04T14:23:41Z</time>
      </trkpt>
      <trkpt lat="50.05129" lon="2.18006">
        <ele>36.7</ele>
        <time>2023-10-04T14:23:42Z</time>
      </trkpt>
      <trkpt lat="50.05129" lon="2.18004">
        <ele>36.7</ele>
        <time>2023-10-04T14:23:43Z</time>
      </trkpt>
      <trkpt lat="50.0513" lon="2.18003">
        <ele>36.7</ele>
        <time>2023-10-04T14:23:44Z</time>
      </trkpt>
      <trkpt lat="50.0513" lon="2.18001">
        <ele>36.7</ele>
        <time>2023-10-04T14:23:45Z</time>
      </trkpt>
      <trkpt lat="50.0513" lon="2.17999">
        <ele>36.7</ele>
        <time>2023-10-04T14:23:46Z</time>
      </trkpt>
      <trkpt lat="50.05131" lon="2.17997">
        <ele>36.7</ele>
        <time>2023-10-04T14:23:47Z</time>
      </trkpt>
      <trkpt lat="50.05131" lon="2.17996">
        <ele>36.7</ele>
        <time>2023-10-04T14:23:48Z</time>
      </trkpt>
      <trkpt lat="50.05131" lon="2.17993">
        <ele>36.6</ele>
        <time>2023-10-04T14:23:49Z</time>
      </trkpt>
      <trkpt lat="50.05132" lon="2.17991">
        <ele>36.6</ele>
        <time>2023-10-04T14:23:50Z</time>
      </trkpt>
      <trkpt lat="50.05132" lon="2.1799">
        <ele>36.6</ele>
        <time>2023-10-04T14:23:51Z</time>
      </trkpt>
      <trkpt lat="50.05132" lon="2.17988">
        <ele>36.6</ele>
        <time>2023-10-04T14:23:52Z</time>
      </trkpt>
      <trkpt lat="50.05132" lon="2.17987">
        <ele>36.6</ele>
        <time>2023-10-04T14:23:53Z</time>
      </trkpt>
      <trkpt lat="50.05133" lon="2.17985">
        <ele>36.6</ele>
        <time>2023-10-04T14:23:54Z</time>
      </trkpt>
      <trkpt lat="50.05133" lon="2.17984">
        <ele>36.6</ele>
        <time>2023-10-04T14:23:55Z</time>
      </trkpt>
      <trkpt lat="50.05133" lon="2.17982">
        <ele>36.6</ele>
        <time>2023-10-04T14:23:56Z</time>
      </trkpt>
      <trkpt lat="50.05133" lon="2.17981">
        <ele>36.6</ele>
        <time>2023-10-04T14:23:57Z</time>
      </trkpt>
      <trkpt lat="50.05134" lon="2.17979">
        <ele>36.6</ele>
        <time>2023-10-04T14:23:58Z</time>
      </trkpt>
      <trkpt lat="50.05134" lon="2.17977">
        <ele>36.6</ele>
        <time>2023-10-04T14:23:59Z</time>
      </trkpt>
      <trkpt lat="50.05134" lon="2.17976">
        <ele>36.5</ele>
        <time>2023-10-04T14:24:00Z</time>
      </trkpt>
      <trkpt lat="50.05134" lon="2.17974">
        <ele>36.5</ele>
        <time>2023-10-04T14:24:01Z</time>
      </trkpt>
      <trkpt lat="50.05135" lon="2.17972">
        <ele>36.5</ele>
        <time>2023-10-04T14:24:02Z</time>
      </trkpt>
      <trkpt lat="50.05135" lon="2.17971">
        <ele>36.5</ele>
        <time>2023-10-04T14:24:03Z</time>
      </trkpt>
      <trkpt lat="50.05135" lon="2.17969">
        <ele>36.5</ele>
        <time>2023-10-04T14:24:04Z</time>
      </trkpt>
      <trkpt lat="50.05135" lon="2.17968">
        <ele>36.5</ele>
        <time>2023-10-04T14:24:05Z</time>
      </trkpt>
      <trkpt lat="50.05135" lon="2.17966">
        <ele>36.5</ele>
        <time>2023-10-04T14:24:06Z</time>
      </trkpt>
      <trkpt lat="50.05135" lon="2.17965">
        <ele>36.6</ele>
        <time>2023-10-04T14:24:07Z</time>
      </trkpt>
      <trkpt lat="50.05135" lon="2.17963">
        <ele>36.6</ele>
        <time>2023-10-04T14:24:08Z</time>
      </trkpt>
      <trkpt lat="50.05135" lon="2.17961">
        <ele>36.6</ele>
        <time>2023-10-04T14:24:09Z</time>
      </trkpt>
      <trkpt lat="50.05135" lon="2.1796">
        <ele>36.6</ele>
        <time>2023-10-04T14:24:10Z</time>
      </trkpt>
      <trkpt lat="50.05135" lon="2.17958">
        <ele>36.6</ele>
        <time>2023-10-04T14:24:11Z</time>
      </trkpt>
      <trkpt lat="50.05135" lon="2.17956">
        <ele>36.6</ele>
        <time>2023-10-04T14:24:12Z</time>
      </trkpt>
      <trkpt lat="50.05135" lon="2.17953">
        <ele>36.6</ele>
        <time>2023-10-04T14:24:13Z</time>
      </trkpt>
      <trkpt lat="50.05135" lon="2.17951">
        <ele>36.6</ele>
        <time>2023-10-04T14:24:14Z</time>
      </trkpt>
      <trkpt lat="50.05135" lon="2.1795">
        <ele>36.6</ele>
        <time>2023-10-04T14:24:15Z</time>
      </trkpt>
      <trkpt lat="50.05135" lon="2.17949">
        <ele>36.6</ele>
        <time>2023-10-04T14:24:16Z</time>
      </trkpt>
      <trkpt lat="50.05135" lon="2.17947">
        <ele>36.6</ele>
        <time>2023-10-04T14:24:17Z</time>
      </trkpt>
      <trkpt lat="50.05135" lon="2.17945">
        <ele>36.6</ele>
        <time>2023-10-04T14:24:18Z</time>
      </trkpt>
      <trkpt lat="50.05135" lon="2.17944">
        <ele>36.6</ele>
        <time>2023-10-04T14:24:19Z</time>
      </trkpt>
      <trkpt lat="50.05135" lon="2.17942">
        <ele>36.6</ele>
        <time>2023-10-04T14:24:20Z</time>
      </trkpt>
      <trkpt lat="50.05134" lon="2.1794">
        <ele>36.6</ele>
        <time>2023-10-04T14:24:21Z</time>
      </trkpt>
      <trkpt lat="50.05134" lon="2.17939">
        <ele>36.6</ele>
        <time>2023-10-04T14:24:22Z</time>
      </trkpt>
      <trkpt lat="50.05134" lon="2.17937">
        <ele>36.6</ele>
        <time>2023-10-04T14:24:23Z</time>
      </trkpt>
      <trkpt lat="50.05134" lon="2.17935">
        <ele>36.6</ele>
        <time>2023-10-04T14:24:24Z</time>
      </trkpt>
      <trkpt lat="50.05133" lon="2.17932">
        <ele>36.6</ele>
        <time>2023-10-04T14:24:25Z</time>
      </trkpt>
      <trkpt lat="50.05133" lon="2.1793">
        <ele>36.6</ele>
        <time>2023-10-04T14:24:26Z</time>
      </trkpt>
      <trkpt lat="50.05133" lon="2.17929">
        <ele>36.6</ele>
        <time>2023-10-04T14:24:27Z</time>
      </trkpt>
      <trkpt lat="50.05133" lon="2.17927">
        <ele>36.6</ele>
        <time>2023-10-04T14:24:28Z</time>
      </trkpt>
      <trkpt lat="50.05133" lon="2.17926">
        <ele>36.6</ele>
        <time>2023-10-04T14:24:29Z</time>
      </trkpt>
      <trkpt lat="50.05133" lon="2.17924">
        <ele>36.6</ele>
        <time>2023-10-04T14:24:30Z</time>
      </trkpt>
      <trkpt lat="50.05133" lon="2.17923">
        <ele>36.7</ele>
        <time>2023-10-04T14:24:31Z</time>
      </trkpt>
      <trkpt lat="50.05133" lon="2.17921">
        <ele>36.7</ele>
        <time>2023-10-04T14:24:32Z</time>
      </trkpt>
      <trkpt lat="50.05133" lon="2.1792">
        <ele>36.7</ele>
        <time>2023-10-04T14:24:33Z</time>
      </trkpt>
      <trkpt lat="50.05132" lon="2.17918">
        <ele>36.7</ele>
        <time>2023-10-04T14:24:34Z</time>
      </trkpt>
      <trkpt lat="50.05132" lon="2.17916">
        <ele>36.7</ele>
        <time>2023-10-04T14:24:35Z</time>
      </trkpt>
      <trkpt lat="50.05132" lon="2.17915">
        <ele>36.7</ele>
        <time>2023-10-04T14:24:36Z</time>
      </trkpt>
      <trkpt lat="50.05132" lon="2.17913">
        <ele>36.7</ele>
        <time>2023-10-04T14:24:37Z</time>
      </trkpt>
      <trkpt lat="50.05132" lon="2.17911">
        <ele>36.7</ele>
        <time>2023-10-04T14:24:38Z</time>
      </trkpt>
      <trkpt lat="50.05132" lon="2.1791">
        <ele>36.7</ele>
        <time>2023-10-04T14:24:39Z</time>
      </trkpt>
      <trkpt lat="50.05132" lon="2.17908">
        <ele>36.7</ele>
        <time>2023-10-04T14:24:40Z</time>
      </trkpt>
      <trkpt lat="50.05132" lon="2.17906">
        <ele>36.7</ele>
        <time>2023-10-04T14:24:41Z</time>
      </trkpt>
      <trkpt lat="50.05131" lon="2.17904">
        <ele>36.7</ele>
        <time>2023-10-04T14:24:42Z</time>
      </trkpt>
      <trkpt lat="50.05131" lon="2.17903">
        <ele>36.7</ele>
        <time>2023-10-04T14:24:43Z</time>
      </trkpt>
      <trkpt lat="50.05131" lon="2.17902">
        <ele>36.7</ele>
        <time>2023-10-04T14:24:44Z</time>
      </trkpt>
      <trkpt lat="50.05131" lon="2.179">
        <ele>36.7</ele>
        <time>2023-10-04T14:24:45Z</time>
      </trkpt>
      <trkpt lat="50.05131" lon="2.17899">
        <ele>36.7</ele>
        <time>2023-10-04T14:24:46Z</time>
      </trkpt>
      <trkpt lat="50.05131" lon="2.17897">
        <ele>36.7</ele>
        <time>2023-10-04T14:24:47Z</time>
      </trkpt>
      <trkpt lat="50.05131" lon="2.17895">
        <ele>36.7</ele>
        <time>2023-10-04T14:24:48Z</time>
      </trkpt>
      <trkpt lat="50.05131" lon="2.17894">
        <ele>36.7</ele>
        <time>2023-10-04T14:24:49Z</time>
      </trkpt>
      <trkpt lat="50.05131" lon="2.17892">
        <ele>36.7</ele>
        <time>2023-10-04T14:24:50Z</time>
      </trkpt>
      <trkpt lat="50.05131" lon="2.17891">
        <ele>36.7</ele>
        <time>2023-10-04T14:24:51Z</time>
      </trkpt>
      <trkpt lat="50.05131" lon="2.17889">
        <ele>36.7</ele>
        <time>2023-10-04T14:24:52Z</time>
      </trkpt>
      <trkpt lat="50.05131" lon="2.17887">
        <ele>36.7</ele>
        <time>2023-10-04T14:24:53Z</time>
      </trkpt>
      <trkpt lat="50.05131" lon="2.17886">
        <ele>36.7</ele>
        <time>2023-10-04T14:24:54Z</time>
      </trkpt>
      <trkpt lat="50.05131" lon="2.17884">
        <ele>36.7</ele>
        <time>2023-10-04T14:24:55Z</time>
      </trkpt>
      <trkpt lat="50.05131" lon="2.17883">
        <ele>36.7</ele>
        <time>2023-10-04T14:24:56Z</time>
      </trkpt>
      <trkpt lat="50.0513" lon="2.17882">
        <ele>36.7</ele>
        <time>2023-10-04T14:24:57Z</time>
      </trkpt>
      <trkpt lat="50.0513" lon="2.17881">
        <ele>36.7</ele>
        <time>2023-10-04T14:24:58Z</time>
      </trkpt>
      <trkpt lat="50.0513" lon="2.17879">
        <ele>36.7</ele>
        <time>2023-10-04T14:24:59Z</time>
      </trkpt>
      <trkpt lat="50.0513" lon="2.17877">
        <ele>36.7</ele>
        <time>2023-10-04T14:25:00Z</time>
      </trkpt>
      <trkpt lat="50.0513" lon="2.17876">
        <ele>36.7</ele>
        <time>2023-10-04T14:25:01Z</time>
      </trkpt>
      <trkpt lat="50.0513" lon="2.17874">
        <ele>36.7</ele>
        <time>2023-10-04T14:25:02Z</time>
      </trkpt>
      <trkpt lat="50.0513" lon="2.17872">
        <ele>36.7</ele>
        <time>2023-10-04T14:25:03Z</time>
      </trkpt>
      <trkpt lat="50.0513" lon="2.1787">
        <ele>36.7</ele>
        <time>2023-10-04T14:25:04Z</time>
      </trkpt>
      <trkpt lat="50.0513" lon="2.17869">
        <ele>36.7</ele>
        <time>2023-10-04T14:25:05Z</time>
      </trkpt>
      <trkpt lat="50.0513" lon="2.17867">
        <ele>36.7</ele>
        <time>2023-10-04T14:25:06Z</time>
      </trkpt>
      <trkpt lat="50.0513" lon="2.17866">
        <ele>36.7</ele>
        <time>2023-10-04T14:25:07Z</time>
      </trkpt>
      <trkpt lat="50.0513" lon="2.17864">
        <ele>36.7</ele>
        <time>2023-10-04T14:25:08Z</time>
      </trkpt>
      <trkpt lat="50.0513" lon="2.17862">
        <ele>36.7</ele>
        <time>2023-10-04T14:25:09Z</time>
      </trkpt>
      <trkpt lat="50.0513" lon="2.1786">
        <ele>36.7</ele>
        <time>2023-10-04T14:25:10Z</time>
      </trkpt>
      <trkpt lat="50.0513" lon="2.17858">
        <ele>36.7</ele>
        <time>2023-10-04T14:25:11Z</time>
      </trkpt>
      <trkpt lat="50.0513" lon="2.17857">
        <ele>36.7</ele>
        <time>2023-10-04T14:25:12Z</time>
      </trkpt>
      <trkpt lat="50.0513" lon="2.17855">
        <ele>36.7</ele>
        <time>2023-10-04T14:25:13Z</time>
      </trkpt>
      <trkpt lat="50.0513" lon="2.17854">
        <ele>36.7</ele>
        <time>2023-10-04T14:25:14Z</time>
      </trkpt>
      <trkpt lat="50.05131" lon="2.17852">
        <ele>36.7</ele>
        <time>2023-10-04T14:25:15Z</time>
      </trkpt>
      <trkpt lat="50.05131" lon="2.1785">
        <ele>36.7</ele>
        <time>2023-10-04T14:25:16Z</time>
      </trkpt>
      <trkpt lat="50.05131" lon="2.17848">
        <ele>36.7</ele>
        <time>2023-10-04T14:25:17Z</time>
      </trkpt>
      <trkpt lat="50.05132" lon="2.17847">
        <ele>36.6</ele>
        <time>2023-10-04T14:25:18Z</time>
      </trkpt>
      <trkpt lat="50.05132" lon="2.17845">
        <ele>36.6</ele>
        <time>2023-10-04T14:25:19Z</time>
      </trkpt>
      <trkpt lat="50.05132" lon="2.17843">
        <ele>36.6</ele>
        <time>2023-10-04T14:25:20Z</time>
      </trkpt>
      <trkpt lat="50.05132" lon="2.17842">
        <ele>36.6</ele>
        <time>2023-10-04T14:25:21Z</time>
      </trkpt>
      <trkpt lat="50.05132" lon="2.1784">
        <ele>36.6</ele>
        <time>2023-10-04T14:25:22Z</time>
      </trkpt>
      <trkpt lat="50.05133" lon="2.17839">
        <ele>36.6</ele>
        <time>2023-10-04T14:25:23Z</time>
      </trkpt>
      <trkpt lat="50.05133" lon="2.17837">
        <ele>36.6</ele>
        <time>2023-10-04T14:25:24Z</time>
      </trkpt>
      <trkpt lat="50.05133" lon="2.17836">
        <ele>36.6</ele>
        <time>2023-10-04T14:25:25Z</time>
      </trkpt>
      <trkpt lat="50.05133" lon="2.17832">
        <ele>36.6</ele>
        <time>2023-10-04T14:25:26Z</time>
      </trkpt>
      <trkpt lat="50.05133" lon="2.17831">
        <ele>36.6</ele>
        <time>2023-10-04T14:25:27Z</time>
      </trkpt>
      <trkpt lat="50.05133" lon="2.1783">
        <ele>36.6</ele>
        <time>2023-10-04T14:25:28Z</time>
      </trkpt>
      <trkpt lat="50.05133" lon="2.17828">
        <ele>36.6</ele>
        <time>2023-10-04T14:25:29Z</time>
      </trkpt>
      <trkpt lat="50.05133" lon="2.17826">
        <ele>36.6</ele>
        <time>2023-10-04T14:25:30Z</time>
      </trkpt>
      <trkpt lat="50.05133" lon="2.17824">
        <ele>36.6</ele>
        <time>2023-10-04T14:25:31Z</time>
      </trkpt>
      <trkpt lat="50.05134" lon="2.17822">
        <ele>36.6</ele>
        <time>2023-10-04T14:25:32Z</time>
      </trkpt>
      <trkpt lat="50.05134" lon="2.17821">
        <ele>36.6</ele>
        <time>2023-10-04T14:25:33Z</time>
      </trkpt>
      <trkpt lat="50.05134" lon="2.17819">
        <ele>36.6</ele>
        <time>2023-10-04T14:25:34Z</time>
      </trkpt>
      <trkpt lat="50.05134" lon="2.17817">
        <ele>36.6</ele>
        <time>2023-10-04T14:25:35Z</time>
      </trkpt>
      <trkpt lat="50.05134" lon="2.17815">
        <ele>36.6</ele>
        <time>2023-10-04T14:25:36Z</time>
      </trkpt>
      <trkpt lat="50.05134" lon="2.17813">
        <ele>36.6</ele>
        <time>2023-10-04T14:25:37Z</time>
      </trkpt>
      <trkpt lat="50.05134" lon="2.17812">
        <ele>36.6</ele>
        <time>2023-10-04T14:25:38Z</time>
      </trkpt>
      <trkpt lat="50.05134" lon="2.1781">
        <ele>36.6</ele>
        <time>2023-10-04T14:25:39Z</time>
      </trkpt>
      <trkpt lat="50.05134" lon="2.17809">
        <ele>36.6</ele>
        <time>2023-10-04T14:25:40Z</time>
      </trkpt>
      <trkpt lat="50.05134" lon="2.17807">
        <ele>36.6</ele>
        <time>2023-10-04T14:25:41Z</time>
      </trkpt>
      <trkpt lat="50.05134" lon="2.17805">
        <ele>36.6</ele>
        <time>2023-10-04T14:25:42Z</time>
      </trkpt>
      <trkpt lat="50.05135" lon="2.17803">
        <ele>36.6</ele>
        <time>2023-10-04T14:25:43Z</time>
      </trkpt>
      <trkpt lat="50.05135" lon="2.17802">
        <ele>36.6</ele>
        <time>2023-10-04T14:25:44Z</time>
      </trkpt>
      <trkpt lat="50.05135" lon="2.178">
        <ele>36.6</ele>
        <time>2023-10-04T14:25:45Z</time>
      </trkpt>
      <trkpt lat="50.05136" lon="2.17798">
        <ele>36.7</ele>
        <time>2023-10-04T14:25:46Z</time>
      </trkpt>
      <trkpt lat="50.05136" lon="2.17797">
        <ele>36.7</ele>
        <time>2023-10-04T14:25:47Z</time>
      </trkpt>
      <trkpt lat="50.05136" lon="2.17795">
        <ele>36.7</ele>
        <time>2023-10-04T14:25:48Z</time>
      </trkpt>
      <trkpt lat="50.05137" lon="2.17794">
        <ele>36.7</ele>
        <time>2023-10-04T14:25:49Z</time>
      </trkpt>
      <trkpt lat="50.05137" lon="2.17793">
        <ele>36.7</ele>
        <time>2023-10-04T14:25:50Z</time>
      </trkpt>
      <trkpt lat="50.05137" lon="2.17791">
        <ele>36.7</ele>
        <time>2023-10-04T14:25:51Z</time>
      </trkpt>
      <trkpt lat="50.05137" lon="2.17789">
        <ele>36.7</ele>
        <time>2023-10-04T14:25:52Z</time>
      </trkpt>
      <trkpt lat="50.05138" lon="2.17788">
        <ele>36.7</ele>
        <time>2023-10-04T14:25:53Z</time>
      </trkpt>
      <trkpt lat="50.05138" lon="2.17786">
        <ele>36.7</ele>
        <time>2023-10-04T14:25:54Z</time>
      </trkpt>
      <trkpt lat="50.05138" lon="2.17785">
        <ele>36.7</ele>
        <time>2023-10-04T14:25:55Z</time>
      </trkpt>
      <trkpt lat="50.05138" lon="2.17783">
        <ele>36.7</ele>
        <time>2023-10-04T14:25:56Z</time>
      </trkpt>
      <trkpt lat="50.05139" lon="2.17782">
        <ele>36.7</ele>
        <time>2023-10-04T14:25:57Z</time>
      </trkpt>
      <trkpt lat="50.05139" lon="2.1778">
        <ele>36.8</ele>
        <time>2023-10-04T14:25:58Z</time>
      </trkpt>
      <trkpt lat="50.05139" lon="2.17779">
        <ele>36.8</ele>
        <time>2023-10-04T14:25:59Z</time>
      </trkpt>
      <trkpt lat="50.05139" lon="2.17777">
        <ele>36.8</ele>
        <time>2023-10-04T14:26:00Z</time>
      </trkpt>
      <trkpt lat="50.05139" lon="2.17775">
        <ele>36.8</ele>
        <time>2023-10-04T14:26:01Z</time>
      </trkpt>
      <trkpt lat="50.0514" lon="2.17774">
        <ele>36.8</ele>
        <time>2023-10-04T14:26:02Z</time>
      </trkpt>
      <trkpt lat="50.0514" lon="2.17772">
        <ele>36.8</ele>
        <time>2023-10-04T14:26:03Z</time>
      </trkpt>
      <trkpt lat="50.0514" lon="2.1777">
        <ele>36.8</ele>
        <time>2023-10-04T14:26:04Z</time>
      </trkpt>
      <trkpt lat="50.0514" lon="2.17767">
        <ele>36.9</ele>
        <time>2023-10-04T14:26:05Z</time>
      </trkpt>
      <trkpt lat="50.0514" lon="2.17766">
        <ele>36.9</ele>
        <time>2023-10-04T14:26:06Z</time>
      </trkpt>
      <trkpt lat="50.0514" lon="2.17764">
        <ele>36.9</ele>
        <time>2023-10-04T14:26:07Z</time>
      </trkpt>
      <trkpt lat="50.05141" lon="2.17763">
        <ele>36.9</ele>
        <time>2023-10-04T14:26:08Z</time>
      </trkpt>
      <trkpt lat="50.05141" lon="2.17761">
        <ele>36.9</ele>
        <time>2023-10-04T14:26:09Z</time>
      </trkpt>
      <trkpt lat="50.05141" lon="2.17759">
        <ele>36.9</ele>
        <time>2023-10-04T14:26:10Z</time>
      </trkpt>
      <trkpt lat="50.05141" lon="2.17758">
        <ele>36.9</ele>
        <time>2023-10-04T14:26:11Z</time>
      </trkpt>
      <trkpt lat="50.05142" lon="2.17756">
        <ele>36.9</ele>
        <time>2023-10-04T14:26:12Z</time>
      </trkpt>
      <trkpt lat="50.05142" lon="2.17754">
        <ele>36.9</ele>
        <time>2023-10-04T14:26:13Z</time>
      </trkpt>
      <trkpt lat="50.05142" lon="2.17753">
        <ele>36.9</ele>
        <time>2023-10-04T14:26:14Z</time>
      </trkpt>
      <trkpt lat="50.05142" lon="2.17751">
        <ele>36.9</ele>
        <time>2023-10-04T14:26:15Z</time>
      </trkpt>
      <trkpt lat="50.05142" lon="2.17749">
        <ele>37</ele>
        <time>2023-10-04T14:26:16Z</time>
      </trkpt>
      <trkpt lat="50.05143" lon="2.17747">
        <ele>37</ele>
        <time>2023-10-04T14:26:17Z</time>
      </trkpt>
      <trkpt lat="50.05143" lon="2.17745">
        <ele>37</ele>
        <time>2023-10-04T14:26:18Z</time>
      </trkpt>
      <trkpt lat="50.05143" lon="2.17744">
        <ele>37</ele>
        <time>2023-10-04T14:26:19Z</time>
      </trkpt>
      <trkpt lat="50.05143" lon="2.17742">
        <ele>37</ele>
        <time>2023-10-04T14:26:20Z</time>
      </trkpt>
      <trkpt lat="50.05143" lon="2.17741">
        <ele>37</ele>
        <time>2023-10-04T14:26:21Z</time>
      </trkpt>
      <trkpt lat="50.05143" lon="2.17739">
        <ele>37</ele>
        <time>2023-10-04T14:26:22Z</time>
      </trkpt>
      <trkpt lat="50.05143" lon="2.17738">
        <ele>37</ele>
        <time>2023-10-04T14:26:23Z</time>
      </trkpt>
      <trkpt lat="50.05143" lon="2.17736">
        <ele>37</ele>
        <time>2023-10-04T14:26:24Z</time>
      </trkpt>
      <trkpt lat="50.05143" lon="2.17734">
        <ele>37</ele>
        <time>2023-10-04T14:26:25Z</time>
      </trkpt>
      <trkpt lat="50.05144" lon="2.17733">
        <ele>37</ele>
        <time>2023-10-04T14:26:26Z</time>
      </trkpt>
      <trkpt lat="50.05144" lon="2.17731">
        <ele>37</ele>
        <time>2023-10-04T14:26:27Z</time>
      </trkpt>
      <trkpt lat="50.05144" lon="2.1773">
        <ele>37</ele>
        <time>2023-10-04T14:26:28Z</time>
      </trkpt>
      <trkpt lat="50.05144" lon="2.17728">
        <ele>37</ele>
        <time>2023-10-04T14:26:29Z</time>
      </trkpt>
      <trkpt lat="50.05144" lon="2.17727">
        <ele>37</ele>
        <time>2023-10-04T14:26:30Z</time>
      </trkpt>
      <trkpt lat="50.05144" lon="2.17726">
        <ele>37</ele>
        <time>2023-10-04T14:26:31Z</time>
      </trkpt>
      <trkpt lat="50.05144" lon="2.17724">
        <ele>37</ele>
        <time>2023-10-04T14:26:32Z</time>
      </trkpt>
      <trkpt lat="50.05144" lon="2.17723">
        <ele>37</ele>
        <time>2023-10-04T14:26:33Z</time>
      </trkpt>
      <trkpt lat="50.05144" lon="2.17721">
        <ele>37</ele>
        <time>2023-10-04T14:26:34Z</time>
      </trkpt>
      <trkpt lat="50.05144" lon="2.17719">
        <ele>37</ele>
        <time>2023-10-04T14:26:35Z</time>
      </trkpt>
      <trkpt lat="50.05144" lon="2.17718">
        <ele>37</ele>
        <time>2023-10-04T14:26:36Z</time>
      </trkpt>
      <trkpt lat="50.05144" lon="2.17717">
        <ele>37</ele>
        <time>2023-10-04T14:26:37Z</time>
      </trkpt>
      <trkpt lat="50.05144" lon="2.17715">
        <ele>37</ele>
        <time>2023-10-04T14:26:38Z</time>
      </trkpt>
      <trkpt lat="50.05144" lon="2.17714">
        <ele>37</ele>
        <time>2023-10-04T14:26:39Z</time>
      </trkpt>
      <trkpt lat="50.05144" lon="2.17712">
        <ele>37</ele>
        <time>2023-10-04T14:26:40Z</time>
      </trkpt>
      <trkpt lat="50.05144" lon="2.17711">
        <ele>37</ele>
        <time>2023-10-04T14:26:41Z</time>
      </trkpt>
      <trkpt lat="50.05144" lon="2.17709">
        <ele>37</ele>
        <time>2023-10-04T14:26:42Z</time>
      </trkpt>
      <trkpt lat="50.05144" lon="2.17707">
        <ele>37</ele>
        <time>2023-10-04T14:26:43Z</time>
      </trkpt>
      <trkpt lat="50.05144" lon="2.17705">
        <ele>37</ele>
        <time>2023-10-04T14:26:44Z</time>
      </trkpt>
      <trkpt lat="50.05144" lon="2.17704">
        <ele>37</ele>
        <time>2023-10-04T14:26:45Z</time>
      </trkpt>
      <trkpt lat="50.05144" lon="2.17702">
        <ele>37</ele>
        <time>2023-10-04T14:26:46Z</time>
      </trkpt>
      <trkpt lat="50.05145" lon="2.17701">
        <ele>37</ele>
        <time>2023-10-04T14:26:47Z</time>
      </trkpt>
      <trkpt lat="50.05145" lon="2.17699">
        <ele>37</ele>
        <time>2023-10-04T14:26:48Z</time>
      </trkpt>
      <trkpt lat="50.05145" lon="2.17698">
        <ele>37</ele>
        <time>2023-10-04T14:26:49Z</time>
      </trkpt>
      <trkpt lat="50.05145" lon="2.17696">
        <ele>37</ele>
        <time>2023-10-04T14:26:50Z</time>
      </trkpt>
      <trkpt lat="50.05145" lon="2.17694">
        <ele>37</ele>
        <time>2023-10-04T14:26:51Z</time>
      </trkpt>
      <trkpt lat="50.05145" lon="2.17693">
        <ele>37</ele>
        <time>2023-10-04T14:26:52Z</time>
      </trkpt>
      <trkpt lat="50.05146" lon="2.17691">
        <ele>37</ele>
        <time>2023-10-04T14:26:53Z</time>
      </trkpt>
      <trkpt lat="50.05147" lon="2.17688">
        <ele>37</ele>
        <time>2023-10-04T14:26:54Z</time>
      </trkpt>
      <trkpt lat="50.05147" lon="2.17687">
        <ele>37</ele>
        <time>2023-10-04T14:26:55Z</time>
      </trkpt>
      <trkpt lat="50.05147" lon="2.17685">
        <ele>37</ele>
        <time>2023-10-04T14:26:56Z</time>
      </trkpt>
      <trkpt lat="50.05149" lon="2.17683">
        <ele>37</ele>
        <time>2023-10-04T14:26:57Z</time>
      </trkpt>
      <trkpt lat="50.05149" lon="2.17682">
        <ele>37</ele>
        <time>2023-10-04T14:26:58Z</time>
      </trkpt>
      <trkpt lat="50.0515" lon="2.17681">
        <ele>37</ele>
        <time>2023-10-04T14:26:59Z</time>
      </trkpt>
      <trkpt lat="50.0515" lon="2.17679">
        <ele>37</ele>
        <time>2023-10-04T14:27:00Z</time>
      </trkpt>
      <trkpt lat="50.05151" lon="2.17677">
        <ele>37</ele>
        <time>2023-10-04T14:27:01Z</time>
      </trkpt>
      <trkpt lat="50.05152" lon="2.17676">
        <ele>37</ele>
        <time>2023-10-04T14:27:02Z</time>
      </trkpt>
      <trkpt lat="50.05152" lon="2.17674">
        <ele>37</ele>
        <time>2023-10-04T14:27:03Z</time>
      </trkpt>
      <trkpt lat="50.05153" lon="2.17673">
        <ele>37</ele>
        <time>2023-10-04T14:27:04Z</time>
      </trkpt>
      <trkpt lat="50.05153" lon="2.17671">
        <ele>37</ele>
        <time>2023-10-04T14:27:05Z</time>
      </trkpt>
      <trkpt lat="50.05153" lon="2.17669">
        <ele>37</ele>
        <time>2023-10-04T14:27:06Z</time>
      </trkpt>
      <trkpt lat="50.05153" lon="2.17668">
        <ele>36.9</ele>
        <time>2023-10-04T14:27:07Z</time>
      </trkpt>
      <trkpt lat="50.05154" lon="2.17666">
        <ele>36.9</ele>
        <time>2023-10-04T14:27:08Z</time>
      </trkpt>
      <trkpt lat="50.05154" lon="2.17665">
        <ele>36.9</ele>
        <time>2023-10-04T14:27:09Z</time>
      </trkpt>
      <trkpt lat="50.05154" lon="2.17663">
        <ele>36.9</ele>
        <time>2023-10-04T14:27:10Z</time>
      </trkpt>
      <trkpt lat="50.05154" lon="2.17662">
        <ele>36.9</ele>
        <time>2023-10-04T14:27:11Z</time>
      </trkpt>
      <trkpt lat="50.05154" lon="2.1766">
        <ele>36.9</ele>
        <time>2023-10-04T14:27:12Z</time>
      </trkpt>
      <trkpt lat="50.05154" lon="2.17658">
        <ele>36.9</ele>
        <time>2023-10-04T14:27:13Z</time>
      </trkpt>
      <trkpt lat="50.05154" lon="2.17657">
        <ele>36.9</ele>
        <time>2023-10-04T14:27:14Z</time>
      </trkpt>
      <trkpt lat="50.05154" lon="2.17655">
        <ele>36.9</ele>
        <time>2023-10-04T14:27:15Z</time>
      </trkpt>
      <trkpt lat="50.05154" lon="2.17653">
        <ele>36.9</ele>
        <time>2023-10-04T14:27:16Z</time>
      </trkpt>
      <trkpt lat="50.05154" lon="2.17652">
        <ele>36.9</ele>
        <time>2023-10-04T14:27:17Z</time>
      </trkpt>
      <trkpt lat="50.05155" lon="2.17651">
        <ele>36.9</ele>
        <time>2023-10-04T14:27:18Z</time>
      </trkpt>
      <trkpt lat="50.05155" lon="2.17649">
        <ele>36.9</ele>
        <time>2023-10-04T14:27:19Z</time>
      </trkpt>
      <trkpt lat="50.05155" lon="2.17648">
        <ele>36.9</ele>
        <time>2023-10-04T14:27:20Z</time>
      </trkpt>
      <trkpt lat="50.05156" lon="2.17646">
        <ele>36.9</ele>
        <time>2023-10-04T14:27:21Z</time>
      </trkpt>
      <trkpt lat="50.05156" lon="2.17643">
        <ele>36.9</ele>
        <time>2023-10-04T14:27:22Z</time>
      </trkpt>
      <trkpt lat="50.05156" lon="2.17641">
        <ele>36.9</ele>
        <time>2023-10-04T14:27:23Z</time>
      </trkpt>
      <trkpt lat="50.05156" lon="2.1764">
        <ele>36.9</ele>
        <time>2023-10-04T14:27:24Z</time>
      </trkpt>
      <trkpt lat="50.05157" lon="2.17638">
        <ele>36.9</ele>
        <time>2023-10-04T14:27:25Z</time>
      </trkpt>
      <trkpt lat="50.05157" lon="2.17636">
        <ele>36.9</ele>
        <time>2023-10-04T14:27:26Z</time>
      </trkpt>
      <trkpt lat="50.05157" lon="2.17635">
        <ele>36.9</ele>
        <time>2023-10-04T14:27:27Z</time>
      </trkpt>
      <trkpt lat="50.05157" lon="2.17633">
        <ele>36.9</ele>
        <time>2023-10-04T14:27:28Z</time>
      </trkpt>
      <trkpt lat="50.05157" lon="2.17632">
        <ele>36.9</ele>
        <time>2023-10-04T14:27:29Z</time>
      </trkpt>
      <trkpt lat="50.05157" lon="2.17631">
        <ele>36.9</ele>
        <time>2023-10-04T14:27:30Z</time>
      </trkpt>
      <trkpt lat="50.05157" lon="2.1763">
        <ele>36.9</ele>
        <time>2023-10-04T14:27:31Z</time>
      </trkpt>
      <trkpt lat="50.05157" lon="2.17628">
        <ele>36.9</ele>
        <time>2023-10-04T14:27:32Z</time>
      </trkpt>
      <trkpt lat="50.05157" lon="2.17627">
        <ele>36.9</ele>
        <time>2023-10-04T14:27:33Z</time>
      </trkpt>
      <trkpt lat="50.05158" lon="2.17626">
        <ele>36.9</ele>
        <time>2023-10-04T14:27:34Z</time>
      </trkpt>
      <trkpt lat="50.05158" lon="2.17624">
        <ele>36.9</ele>
        <time>2023-10-04T14:27:35Z</time>
      </trkpt>
      <trkpt lat="50.05158" lon="2.17622">
        <ele>36.9</ele>
        <time>2023-10-04T14:27:36Z</time>
      </trkpt>
      <trkpt lat="50.05158" lon="2.17621">
        <ele>36.9</ele>
        <time>2023-10-04T14:27:37Z</time>
      </trkpt>
      <trkpt lat="50.05159" lon="2.17619">
        <ele>36.9</ele>
        <time>2023-10-04T14:27:38Z</time>
      </trkpt>
      <trkpt lat="50.05159" lon="2.17618">
        <ele>36.9</ele>
        <time>2023-10-04T14:27:39Z</time>
      </trkpt>
      <trkpt lat="50.05159" lon="2.17616">
        <ele>36.9</ele>
        <time>2023-10-04T14:27:40Z</time>
      </trkpt>
      <trkpt lat="50.05159" lon="2.17615">
        <ele>36.9</ele>
        <time>2023-10-04T14:27:41Z</time>
      </trkpt>
      <trkpt lat="50.05159" lon="2.17613">
        <ele>36.9</ele>
        <time>2023-10-04T14:27:42Z</time>
      </trkpt>
      <trkpt lat="50.05159" lon="2.17612">
        <ele>36.9</ele>
        <time>2023-10-04T14:27:43Z</time>
      </trkpt>
      <trkpt lat="50.05159" lon="2.1761">
        <ele>36.9</ele>
        <time>2023-10-04T14:27:44Z</time>
      </trkpt>
      <trkpt lat="50.05159" lon="2.17608">
        <ele>36.9</ele>
        <time>2023-10-04T14:27:45Z</time>
      </trkpt>
      <trkpt lat="50.05159" lon="2.17606">
        <ele>36.9</ele>
        <time>2023-10-04T14:27:46Z</time>
      </trkpt>
      <trkpt lat="50.05159" lon="2.17604">
        <ele>37</ele>
        <time>2023-10-04T14:27:47Z</time>
      </trkpt>
      <trkpt lat="50.05159" lon="2.17603">
        <ele>37</ele>
        <time>2023-10-04T14:27:48Z</time>
      </trkpt>
      <trkpt lat="50.05159" lon="2.17601">
        <ele>37</ele>
        <time>2023-10-04T14:27:49Z</time>
      </trkpt>
      <trkpt lat="50.05159" lon="2.17599">
        <ele>37</ele>
        <time>2023-10-04T14:27:50Z</time>
      </trkpt>
      <trkpt lat="50.05159" lon="2.17597">
        <ele>37</ele>
        <time>2023-10-04T14:27:51Z</time>
      </trkpt>
      <trkpt lat="50.05159" lon="2.17596">
        <ele>37</ele>
        <time>2023-10-04T14:27:52Z</time>
      </trkpt>
      <trkpt lat="50.05159" lon="2.17595">
        <ele>37</ele>
        <time>2023-10-04T14:27:53Z</time>
      </trkpt>
      <trkpt lat="50.05159" lon="2.17593">
        <ele>37</ele>
        <time>2023-10-04T14:27:54Z</time>
      </trkpt>
      <trkpt lat="50.05159" lon="2.17592">
        <ele>37</ele>
        <time>2023-10-04T14:27:55Z</time>
      </trkpt>
      <trkpt lat="50.05159" lon="2.17591">
        <ele>37</ele>
        <time>2023-10-04T14:27:56Z</time>
      </trkpt>
      <trkpt lat="50.05159" lon="2.1759">
        <ele>37</ele>
        <time>2023-10-04T14:27:57Z</time>
      </trkpt>
      <trkpt lat="50.05159" lon="2.17589">
        <ele>37.1</ele>
        <time>2023-10-04T14:27:58Z</time>
      </trkpt>
      <trkpt lat="50.05159" lon="2.17587">
        <ele>37.1</ele>
        <time>2023-10-04T14:27:59Z</time>
      </trkpt>
      <trkpt lat="50.05159" lon="2.17586">
        <ele>37.1</ele>
        <time>2023-10-04T14:28:00Z</time>
      </trkpt>
      <trkpt lat="50.0516" lon="2.17585">
        <ele>37.1</ele>
        <time>2023-10-04T14:28:01Z</time>
      </trkpt>
      <trkpt lat="50.0516" lon="2.17583">
        <ele>37.1</ele>
        <time>2023-10-04T14:28:02Z</time>
      </trkpt>
      <trkpt lat="50.0516" lon="2.17581">
        <ele>37.1</ele>
        <time>2023-10-04T14:28:03Z</time>
      </trkpt>
      <trkpt lat="50.0516" lon="2.17579">
        <ele>37.1</ele>
        <time>2023-10-04T14:28:04Z</time>
      </trkpt>
      <trkpt lat="50.0516" lon="2.17578">
        <ele>37.1</ele>
        <time>2023-10-04T14:28:05Z</time>
      </trkpt>
      <trkpt lat="50.0516" lon="2.17576">
        <ele>37.1</ele>
        <time>2023-10-04T14:28:06Z</time>
      </trkpt>
      <trkpt lat="50.0516" lon="2.17574">
        <ele>37.2</ele>
        <time>2023-10-04T14:28:07Z</time>
      </trkpt>
      <trkpt lat="50.05161" lon="2.17572">
        <ele>37.2</ele>
        <time>2023-10-04T14:28:08Z</time>
      </trkpt>
      <trkpt lat="50.05161" lon="2.17571">
        <ele>37.2</ele>
        <time>2023-10-04T14:28:09Z</time>
      </trkpt>
      <trkpt lat="50.05161" lon="2.17569">
        <ele>37.2</ele>
        <time>2023-10-04T14:28:10Z</time>
      </trkpt>
      <trkpt lat="50.05161" lon="2.17568">
        <ele>37.2</ele>
        <time>2023-10-04T14:28:11Z</time>
      </trkpt>
      <trkpt lat="50.05161" lon="2.17567">
        <ele>37.2</ele>
        <time>2023-10-04T14:28:12Z</time>
      </trkpt>
      <trkpt lat="50.05161" lon="2.17565">
        <ele>37.2</ele>
        <time>2023-10-04T14:28:13Z</time>
      </trkpt>
      <trkpt lat="50.05161" lon="2.17563">
        <ele>37.2</ele>
        <time>2023-10-04T14:28:14Z</time>
      </trkpt>
      <trkpt lat="50.05161" lon="2.17562">
        <ele>37.3</ele>
        <time>2023-10-04T14:28:15Z</time>
      </trkpt>
      <trkpt lat="50.05161" lon="2.17561">
        <ele>37.3</ele>
        <time>2023-10-04T14:28:16Z</time>
      </trkpt>
      <trkpt lat="50.05161" lon="2.1756">
        <ele>37.3</ele>
        <time>2023-10-04T14:28:17Z</time>
      </trkpt>
      <trkpt lat="50.05161" lon="2.17558">
        <ele>37.3</ele>
        <time>2023-10-04T14:28:18Z</time>
      </trkpt>
      <trkpt lat="50.05162" lon="2.17557">
        <ele>37.3</ele>
        <time>2023-10-04T14:28:19Z</time>
      </trkpt>
      <trkpt lat="50.05162" lon="2.17556">
        <ele>37.3</ele>
        <time>2023-10-04T14:28:20Z</time>
      </trkpt>
      <trkpt lat="50.05162" lon="2.17554">
        <ele>37.3</ele>
        <time>2023-10-04T14:28:21Z</time>
      </trkpt>
      <trkpt lat="50.05162" lon="2.17553">
        <ele>37.3</ele>
        <time>2023-10-04T14:28:22Z</time>
      </trkpt>
      <trkpt lat="50.05162" lon="2.17551">
        <ele>37.3</ele>
        <time>2023-10-04T14:28:23Z</time>
      </trkpt>
      <trkpt lat="50.05162" lon="2.1755">
        <ele>37.3</ele>
        <time>2023-10-04T14:28:24Z</time>
      </trkpt>
      <trkpt lat="50.05162" lon="2.17548">
        <ele>37.4</ele>
        <time>2023-10-04T14:28:25Z</time>
      </trkpt>
      <trkpt lat="50.05163" lon="2.17547">
        <ele>37.4</ele>
        <time>2023-10-04T14:28:26Z</time>
      </trkpt>
      <trkpt lat="50.05163" lon="2.17545">
        <ele>37.4</ele>
        <time>2023-10-04T14:28:27Z</time>
      </trkpt>
      <trkpt lat="50.05163" lon="2.17543">
        <ele>37.4</ele>
        <time>2023-10-04T14:28:28Z</time>
      </trkpt>
      <trkpt lat="50.05163" lon="2.17542">
        <ele>37.4</ele>
        <time>2023-10-04T14:28:29Z</time>
      </trkpt>
      <trkpt lat="50.05163" lon="2.1754">
        <ele>37.4</ele>
        <time>2023-10-04T14:28:30Z</time>
      </trkpt>
      <trkpt lat="50.05163" lon="2.17538">
        <ele>37.4</ele>
        <time>2023-10-04T14:28:31Z</time>
      </trkpt>
      <trkpt lat="50.05163" lon="2.17536">
        <ele>37.4</ele>
        <time>2023-10-04T14:28:32Z</time>
      </trkpt>
      <trkpt lat="50.05163" lon="2.17535">
        <ele>37.4</ele>
        <time>2023-10-04T14:28:33Z</time>
      </trkpt>
      <trkpt lat="50.05163" lon="2.17532">
        <ele>37.5</ele>
        <time>2023-10-04T14:28:34Z</time>
      </trkpt>
      <trkpt lat="50.05163" lon="2.1753">
        <ele>37.5</ele>
        <time>2023-10-04T14:28:35Z</time>
      </trkpt>
      <trkpt lat="50.05163" lon="2.17529">
        <ele>37.5</ele>
        <time>2023-10-04T14:28:36Z</time>
      </trkpt>
      <trkpt lat="50.05163" lon="2.17526">
        <ele>37.5</ele>
        <time>2023-10-04T14:28:37Z</time>
      </trkpt>
      <trkpt lat="50.05163" lon="2.17525">
        <ele>37.5</ele>
        <time>2023-10-04T14:28:38Z</time>
      </trkpt>
      <trkpt lat="50.05163" lon="2.17523">
        <ele>37.5</ele>
        <time>2023-10-04T14:28:39Z</time>
      </trkpt>
      <trkpt lat="50.05163" lon="2.17522">
        <ele>37.5</ele>
        <time>2023-10-04T14:28:40Z</time>
      </trkpt>
      <trkpt lat="50.05163" lon="2.1752">
        <ele>37.5</ele>
        <time>2023-10-04T14:28:41Z</time>
      </trkpt>
      <trkpt lat="50.05164" lon="2.17519">
        <ele>37.6</ele>
        <time>2023-10-04T14:28:42Z</time>
      </trkpt>
      <trkpt lat="50.05164" lon="2.17517">
        <ele>37.6</ele>
        <time>2023-10-04T14:28:43Z</time>
      </trkpt>
      <trkpt lat="50.05164" lon="2.17516">
        <ele>37.6</ele>
        <time>2023-10-04T14:28:44Z</time>
      </trkpt>
      <trkpt lat="50.05164" lon="2.17514">
        <ele>37.6</ele>
        <time>2023-10-04T14:28:45Z</time>
      </trkpt>
      <trkpt lat="50.05164" lon="2.17512">
        <ele>37.6</ele>
        <time>2023-10-04T14:28:46Z</time>
      </trkpt>
      <trkpt lat="50.05164" lon="2.17511">
        <ele>37.6</ele>
        <time>2023-10-04T14:28:47Z</time>
      </trkpt>
      <trkpt lat="50.05164" lon="2.17509">
        <ele>37.6</ele>
        <time>2023-10-04T14:28:48Z</time>
      </trkpt>
      <trkpt lat="50.05164" lon="2.17508">
        <ele>37.6</ele>
        <time>2023-10-04T14:28:49Z</time>
      </trkpt>
      <trkpt lat="50.05164" lon="2.17507">
        <ele>37.6</ele>
        <time>2023-10-04T14:28:50Z</time>
      </trkpt>
      <trkpt lat="50.05164" lon="2.17505">
        <ele>37.6</ele>
        <time>2023-10-04T14:28:51Z</time>
      </trkpt>
      <trkpt lat="50.05164" lon="2.17504">
        <ele>37.7</ele>
        <time>2023-10-04T14:28:52Z</time>
      </trkpt>
      <trkpt lat="50.05164" lon="2.17503">
        <ele>37.7</ele>
        <time>2023-10-04T14:28:53Z</time>
      </trkpt>
      <trkpt lat="50.05164" lon="2.17501">
        <ele>37.7</ele>
        <time>2023-10-04T14:28:54Z</time>
      </trkpt>
      <trkpt lat="50.05165" lon="2.175">
        <ele>37.7</ele>
        <time>2023-10-04T14:28:55Z</time>
      </trkpt>
      <trkpt lat="50.05165" lon="2.17499">
        <ele>37.7</ele>
        <time>2023-10-04T14:28:56Z</time>
      </trkpt>
      <trkpt lat="50.05165" lon="2.17497">
        <ele>37.7</ele>
        <time>2023-10-04T14:28:57Z</time>
      </trkpt>
      <trkpt lat="50.05165" lon="2.17496">
        <ele>37.7</ele>
        <time>2023-10-04T14:28:58Z</time>
      </trkpt>
      <trkpt lat="50.05165" lon="2.17494">
        <ele>37.7</ele>
        <time>2023-10-04T14:28:59Z</time>
      </trkpt>
      <trkpt lat="50.05165" lon="2.17493">
        <ele>37.7</ele>
        <time>2023-10-04T14:29:00Z</time>
      </trkpt>
      <trkpt lat="50.05165" lon="2.17491">
        <ele>37.8</ele>
        <time>2023-10-04T14:29:01Z</time>
      </trkpt>
      <trkpt lat="50.05165" lon="2.1749">
        <ele>37.8</ele>
        <time>2023-10-04T14:29:02Z</time>
      </trkpt>
      <trkpt lat="50.05165" lon="2.17488">
        <ele>37.8</ele>
        <time>2023-10-04T14:29:03Z</time>
      </trkpt>
      <trkpt lat="50.05164" lon="2.17486">
        <ele>37.8</ele>
        <time>2023-10-04T14:29:04Z</time>
      </trkpt>
      <trkpt lat="50.05164" lon="2.17484">
        <ele>37.8</ele>
        <time>2023-10-04T14:29:05Z</time>
      </trkpt>
      <trkpt lat="50.05164" lon="2.17483">
        <ele>37.8</ele>
        <time>2023-10-04T14:29:06Z</time>
      </trkpt>
      <trkpt lat="50.05164" lon="2.17482">
        <ele>37.8</ele>
        <time>2023-10-04T14:29:07Z</time>
      </trkpt>
      <trkpt lat="50.05164" lon="2.1748">
        <ele>37.9</ele>
        <time>2023-10-04T14:29:08Z</time>
      </trkpt>
      <trkpt lat="50.05164" lon="2.17479">
        <ele>37.9</ele>
        <time>2023-10-04T14:29:09Z</time>
      </trkpt>
      <trkpt lat="50.05164" lon="2.17477">
        <ele>37.9</ele>
        <time>2023-10-04T14:29:10Z</time>
      </trkpt>
      <trkpt lat="50.05165" lon="2.17476">
        <ele>37.9</ele>
        <time>2023-10-04T14:29:11Z</time>
      </trkpt>
      <trkpt lat="50.05165" lon="2.17475">
        <ele>37.9</ele>
        <time>2023-10-04T14:29:12Z</time>
      </trkpt>
      <trkpt lat="50.05165" lon="2.17474">
        <ele>37.9</ele>
        <time>2023-10-04T14:29:13Z</time>
      </trkpt>
      <trkpt lat="50.05165" lon="2.17472">
        <ele>37.9</ele>
        <time>2023-10-04T14:29:14Z</time>
      </trkpt>
      <trkpt lat="50.05165" lon="2.17471">
        <ele>38</ele>
        <time>2023-10-04T14:29:15Z</time>
      </trkpt>
      <trkpt lat="50.05165" lon="2.17469">
        <ele>38</ele>
        <time>2023-10-04T14:29:16Z</time>
      </trkpt>
      <trkpt lat="50.05165" lon="2.17468">
        <ele>38</ele>
        <time>2023-10-04T14:29:17Z</time>
      </trkpt>
      <trkpt lat="50.05165" lon="2.17467">
        <ele>38</ele>
        <time>2023-10-04T14:29:18Z</time>
      </trkpt>
      <trkpt lat="50.05165" lon="2.17466">
        <ele>38</ele>
        <time>2023-10-04T14:29:19Z</time>
      </trkpt>
      <trkpt lat="50.05164" lon="2.17465">
        <ele>38</ele>
        <time>2023-10-04T14:29:20Z</time>
      </trkpt>
      <trkpt lat="50.05164" lon="2.17463">
        <ele>38</ele>
        <time>2023-10-04T14:29:21Z</time>
      </trkpt>
      <trkpt lat="50.05164" lon="2.17462">
        <ele>38</ele>
        <time>2023-10-04T14:29:22Z</time>
      </trkpt>
      <trkpt lat="50.05164" lon="2.17461">
        <ele>38</ele>
        <time>2023-10-04T14:29:23Z</time>
      </trkpt>
      <trkpt lat="50.05163" lon="2.17459">
        <ele>38</ele>
        <time>2023-10-04T14:29:24Z</time>
      </trkpt>
      <trkpt lat="50.05163" lon="2.17457">
        <ele>38</ele>
        <time>2023-10-04T14:29:25Z</time>
      </trkpt>
      <trkpt lat="50.05162" lon="2.17456">
        <ele>38</ele>
        <time>2023-10-04T14:29:26Z</time>
      </trkpt>
      <trkpt lat="50.05162" lon="2.17455">
        <ele>38.1</ele>
        <time>2023-10-04T14:29:27Z</time>
      </trkpt>
      <trkpt lat="50.05162" lon="2.17454">
        <ele>38.1</ele>
        <time>2023-10-04T14:29:28Z</time>
      </trkpt>
      <trkpt lat="50.05161" lon="2.17452">
        <ele>38.1</ele>
        <time>2023-10-04T14:29:29Z</time>
      </trkpt>
      <trkpt lat="50.05161" lon="2.17451">
        <ele>38.1</ele>
        <time>2023-10-04T14:29:30Z</time>
      </trkpt>
      <trkpt lat="50.0516" lon="2.17449">
        <ele>38.1</ele>
        <time>2023-10-04T14:29:31Z</time>
      </trkpt>
      <trkpt lat="50.0516" lon="2.17448">
        <ele>38.1</ele>
        <time>2023-10-04T14:29:32Z</time>
      </trkpt>
      <trkpt lat="50.05159" lon="2.17446">
        <ele>38.1</ele>
        <time>2023-10-04T14:29:33Z</time>
      </trkpt>
      <trkpt lat="50.05159" lon="2.17445">
        <ele>38.1</ele>
        <time>2023-10-04T14:29:34Z</time>
      </trkpt>
      <trkpt lat="50.05158" lon="2.17444">
        <ele>38.1</ele>
        <time>2023-10-04T14:29:35Z</time>
      </trkpt>
      <trkpt lat="50.05158" lon="2.17442">
        <ele>38.1</ele>
        <time>2023-10-04T14:29:36Z</time>
      </trkpt>
      <trkpt lat="50.05158" lon="2.17441">
        <ele>38.1</ele>
        <time>2023-10-04T14:29:37Z</time>
      </trkpt>
      <trkpt lat="50.05157" lon="2.17439">
        <ele>38.1</ele>
        <time>2023-10-04T14:29:38Z</time>
      </trkpt>
      <trkpt lat="50.05157" lon="2.17438">
        <ele>38.2</ele>
        <time>2023-10-04T14:29:39Z</time>
      </trkpt>
      <trkpt lat="50.05157" lon="2.17436">
        <ele>38.2</ele>
        <time>2023-10-04T14:29:40Z</time>
      </trkpt>
      <trkpt lat="50.05156" lon="2.17435">
        <ele>38.2</ele>
        <time>2023-10-04T14:29:41Z</time>
      </trkpt>
      <trkpt lat="50.05156" lon="2.17433">
        <ele>38.2</ele>
        <time>2023-10-04T14:29:42Z</time>
      </trkpt>
      <trkpt lat="50.05156" lon="2.17432">
        <ele>38.2</ele>
        <time>2023-10-04T14:29:43Z</time>
      </trkpt>
      <trkpt lat="50.05155" lon="2.1743">
        <ele>38.2</ele>
        <time>2023-10-04T14:29:44Z</time>
      </trkpt>
      <trkpt lat="50.05155" lon="2.17428">
        <ele>38.3</ele>
        <time>2023-10-04T14:29:45Z</time>
      </trkpt>
      <trkpt lat="50.05154" lon="2.17427">
        <ele>38.3</ele>
        <time>2023-10-04T14:29:46Z</time>
      </trkpt>
      <trkpt lat="50.05154" lon="2.17425">
        <ele>38.3</ele>
        <time>2023-10-04T14:29:47Z</time>
      </trkpt>
      <trkpt lat="50.05153" lon="2.17424">
        <ele>38.3</ele>
        <time>2023-10-04T14:29:48Z</time>
      </trkpt>
      <trkpt lat="50.05153" lon="2.17422">
        <ele>38.3</ele>
        <time>2023-10-04T14:29:49Z</time>
      </trkpt>
      <trkpt lat="50.05152" lon="2.1742">
        <ele>38.4</ele>
        <time>2023-10-04T14:29:50Z</time>
      </trkpt>
      <trkpt lat="50.05152" lon="2.17418">
        <ele>38.4</ele>
        <time>2023-10-04T14:29:51Z</time>
      </trkpt>
      <trkpt lat="50.05152" lon="2.17417">
        <ele>38.4</ele>
        <time>2023-10-04T14:29:52Z</time>
      </trkpt>
      <trkpt lat="50.05152" lon="2.17415">
        <ele>38.4</ele>
        <time>2023-10-04T14:29:53Z</time>
      </trkpt>
      <trkpt lat="50.05151" lon="2.17414">
        <ele>38.5</ele>
        <time>2023-10-04T14:29:54Z</time>
      </trkpt>
      <trkpt lat="50.05151" lon="2.17412">
        <ele>38.5</ele>
        <time>2023-10-04T14:29:55Z</time>
      </trkpt>
      <trkpt lat="50.05151" lon="2.17411">
        <ele>38.5</ele>
        <time>2023-10-04T14:29:56Z</time>
      </trkpt>
      <trkpt lat="50.05151" lon="2.17409">
        <ele>38.5</ele>
        <time>2023-10-04T14:29:57Z</time>
      </trkpt>
      <trkpt lat="50.0515" lon="2.17408">
        <ele>38.6</ele>
        <time>2023-10-04T14:29:58Z</time>
      </trkpt>
      <trkpt lat="50.0515" lon="2.17406">
        <ele>38.6</ele>
        <time>2023-10-04T14:29:59Z</time>
      </trkpt>
      <trkpt lat="50.0515" lon="2.17404">
        <ele>38.6</ele>
        <time>2023-10-04T14:30:00Z</time>
      </trkpt>
      <trkpt lat="50.05149" lon="2.17402">
        <ele>38.6</ele>
        <time>2023-10-04T14:30:01Z</time>
      </trkpt>
      <trkpt lat="50.05149" lon="2.17401">
        <ele>38.7</ele>
        <time>2023-10-04T14:30:02Z</time>
      </trkpt>
      <trkpt lat="50.05149" lon="2.17399">
        <ele>38.7</ele>
        <time>2023-10-04T14:30:03Z</time>
      </trkpt>
      <trkpt lat="50.05148" lon="2.17397">
        <ele>38.8</ele>
        <time>2023-10-04T14:30:04Z</time>
      </trkpt>
      <trkpt lat="50.05148" lon="2.17396">
        <ele>38.8</ele>
        <time>2023-10-04T14:30:05Z</time>
      </trkpt>
      <trkpt lat="50.05148" lon="2.17395">
        <ele>38.8</ele>
        <time>2023-10-04T14:30:06Z</time>
      </trkpt>
      <trkpt lat="50.05147" lon="2.17393">
        <ele>38.9</ele>
        <time>2023-10-04T14:30:07Z</time>
      </trkpt>
      <trkpt lat="50.05147" lon="2.17392">
        <ele>38.9</ele>
        <time>2023-10-04T14:30:08Z</time>
      </trkpt>
      <trkpt lat="50.05146" lon="2.1739">
        <ele>38.9</ele>
        <time>2023-10-04T14:30:09Z</time>
      </trkpt>
      <trkpt lat="50.05146" lon="2.17389">
        <ele>39</ele>
        <time>2023-10-04T14:30:10Z</time>
      </trkpt>
      <trkpt lat="50.05146" lon="2.17387">
        <ele>39</ele>
        <time>2023-10-04T14:30:11Z</time>
      </trkpt>
      <trkpt lat="50.05145" lon="2.17385">
        <ele>39</ele>
        <time>2023-10-04T14:30:12Z</time>
      </trkpt>
      <trkpt lat="50.05145" lon="2.17383">
        <ele>39.1</ele>
        <time>2023-10-04T14:30:13Z</time>
      </trkpt>
      <trkpt lat="50.05145" lon="2.17382">
        <ele>39.1</ele>
        <time>2023-10-04T14:30:14Z</time>
      </trkpt>
      <trkpt lat="50.05144" lon="2.17381">
        <ele>39.1</ele>
        <time>2023-10-04T14:30:15Z</time>
      </trkpt>
      <trkpt lat="50.05144" lon="2.1738">
        <ele>39.2</ele>
        <time>2023-10-04T14:30:16Z</time>
      </trkpt>
      <trkpt lat="50.05144" lon="2.17378">
        <ele>39.2</ele>
        <time>2023-10-04T14:30:17Z</time>
      </trkpt>
      <trkpt lat="50.05144" lon="2.17377">
        <ele>39.2</ele>
        <time>2023-10-04T14:30:18Z</time>
      </trkpt>
      <trkpt lat="50.05144" lon="2.17376">
        <ele>39.2</ele>
        <time>2023-10-04T14:30:19Z</time>
      </trkpt>
      <trkpt lat="50.05143" lon="2.17375">
        <ele>39.3</ele>
        <time>2023-10-04T14:30:20Z</time>
      </trkpt>
      <trkpt lat="50.05143" lon="2.17373">
        <ele>39.3</ele>
        <time>2023-10-04T14:30:21Z</time>
      </trkpt>
      <trkpt lat="50.05143" lon="2.17372">
        <ele>39.3</ele>
        <time>2023-10-04T14:30:22Z</time>
      </trkpt>
      <trkpt lat="50.05143" lon="2.1737">
        <ele>39.4</ele>
        <time>2023-10-04T14:30:23Z</time>
      </trkpt>
      <trkpt lat="50.05143" lon="2.17369">
        <ele>39.4</ele>
        <time>2023-10-04T14:30:24Z</time>
      </trkpt>
      <trkpt lat="50.05142" lon="2.17366">
        <ele>39.5</ele>
        <time>2023-10-04T14:30:25Z</time>
      </trkpt>
      <trkpt lat="50.05142" lon="2.17364">
        <ele>39.5</ele>
        <time>2023-10-04T14:30:26Z</time>
      </trkpt>
      <trkpt lat="50.05142" lon="2.17363">
        <ele>39.5</ele>
        <time>2023-10-04T14:30:27Z</time>
      </trkpt>
      <trkpt lat="50.05141" lon="2.1736">
        <ele>39.6</ele>
        <time>2023-10-04T14:30:28Z</time>
      </trkpt>
      <trkpt lat="50.05141" lon="2.17359">
        <ele>39.6</ele>
        <time>2023-10-04T14:30:29Z</time>
      </trkpt>
      <trkpt lat="50.05141" lon="2.17357">
        <ele>39.7</ele>
        <time>2023-10-04T14:30:30Z</time>
      </trkpt>
      <trkpt lat="50.05141" lon="2.17356">
        <ele>39.7</ele>
        <time>2023-10-04T14:30:31Z</time>
      </trkpt>
      <trkpt lat="50.05141" lon="2.17354">
        <ele>39.7</ele>
        <time>2023-10-04T14:30:32Z</time>
      </trkpt>
      <trkpt lat="50.05141" lon="2.17353">
        <ele>39.7</ele>
        <time>2023-10-04T14:30:33Z</time>
      </trkpt>
      <trkpt lat="50.05141" lon="2.17352">
        <ele>39.8</ele>
        <time>2023-10-04T14:30:34Z</time>
      </trkpt>
      <trkpt lat="50.05141" lon="2.17352">
        <ele>39.8</ele>
        <time>2023-10-04T14:30:35Z</time>
      </trkpt>
      <trkpt lat="50.05141" lon="2.17351">
        <ele>39.8</ele>
        <time>2023-10-04T14:30:36Z</time>
      </trkpt>
      <trkpt lat="50.05141" lon="2.17351">
        <ele>39.8</ele>
        <time>2023-10-04T14:30:37Z</time>
      </trkpt>
      <trkpt lat="50.05141" lon="2.1735">
        <ele>39.8</ele>
        <time>2023-10-04T14:30:38Z</time>
      </trkpt>
      <trkpt lat="50.05141" lon="2.1735">
        <ele>39.8</ele>
        <time>2023-10-04T14:30:39Z</time>
      </trkpt>
      <trkpt lat="50.05141" lon="2.17349">
        <ele>39.8</ele>
        <time>2023-10-04T14:30:40Z</time>
      </trkpt>
      <trkpt lat="50.0514" lon="2.17348">
        <ele>39.9</ele>
        <time>2023-10-04T14:30:41Z</time>
      </trkpt>
      <trkpt lat="50.0514" lon="2.17347">
        <ele>39.9</ele>
        <time>2023-10-04T14:30:42Z</time>
      </trkpt>
      <trkpt lat="50.05139" lon="2.17346">
        <ele>39.9</ele>
        <time>2023-10-04T14:30:43Z</time>
      </trkpt>
      <trkpt lat="50.05139" lon="2.17345">
        <ele>39.9</ele>
        <time>2023-10-04T14:30:44Z</time>
      </trkpt>
      <trkpt lat="50.05139" lon="2.17345">
        <ele>39.9</ele>
        <time>2023-10-04T14:30:45Z</time>
      </trkpt>
      <trkpt lat="50.0514" lon="2.17345">
        <ele>39.9</ele>
        <time>2023-10-04T14:30:46Z</time>
      </trkpt>
      <trkpt lat="50.0514" lon="2.17345">
        <ele>39.9</ele>
        <time>2023-10-04T14:30:47Z</time>
      </trkpt>
      <trkpt lat="50.0514" lon="2.17345">
        <ele>40</ele>
        <time>2023-10-04T14:30:48Z</time>
      </trkpt>
      <trkpt lat="50.05141" lon="2.17346">
        <ele>40</ele>
        <time>2023-10-04T14:30:49Z</time>
      </trkpt>
      <trkpt lat="50.05141" lon="2.17346">
        <ele>40</ele>
        <time>2023-10-04T14:30:50Z</time>
      </trkpt>
      <trkpt lat="50.05141" lon="2.17346">
        <ele>40</ele>
        <time>2023-10-04T14:30:51Z</time>
      </trkpt>
      <trkpt lat="50.05142" lon="2.17346">
        <ele>40</ele>
        <time>2023-10-04T14:30:52Z</time>
      </trkpt>
      <trkpt lat="50.05142" lon="2.17347">
        <ele>40</ele>
        <time>2023-10-04T14:30:53Z</time>
      </trkpt>
      <trkpt lat="50.05142" lon="2.17347">
        <ele>40</ele>
        <time>2023-10-04T14:30:54Z</time>
      </trkpt>
      <trkpt lat="50.05142" lon="2.17347">
        <ele>40</ele>
        <time>2023-10-04T14:30:55Z</time>
      </trkpt>
      <trkpt lat="50.05142" lon="2.17348">
        <ele>40</ele>
        <time>2023-10-04T14:30:56Z</time>
      </trkpt>
      <trkpt lat="50.05142" lon="2.17348">
        <ele>40</ele>
        <time>2023-10-04T14:30:57Z</time>
      </trkpt>
      <trkpt lat="50.05142" lon="2.17348">
        <ele>40.1</ele>
        <time>2023-10-04T14:30:58Z</time>
      </trkpt>
      <trkpt lat="50.05142" lon="2.17349">
        <ele>40.1</ele>
        <time>2023-10-04T14:30:59Z</time>
      </trkpt>
      <trkpt lat="50.05142" lon="2.17349">
        <ele>40.1</ele>
        <time>2023-10-04T14:31:00Z</time>
      </trkpt>
      <trkpt lat="50.05142" lon="2.17349">
        <ele>40.1</ele>
        <time>2023-10-04T14:31:01Z</time>
      </trkpt>
      <trkpt lat="50.05142" lon="2.17349">
        <ele>40.1</ele>
        <time>2023-10-04T14:31:02Z</time>
      </trkpt>
      <trkpt lat="50.05142" lon="2.17349">
        <ele>40.1</ele>
        <time>2023-10-04T14:31:03Z</time>
      </trkpt>
      <trkpt lat="50.05142" lon="2.17349">
        <ele>40.1</ele>
        <time>2023-10-04T14:31:04Z</time>
      </trkpt>
      <trkpt lat="50.05142" lon="2.17349">
        <ele>40.1</ele>
        <time>2023-10-04T14:31:05Z</time>
      </trkpt>
      <trkpt lat="50.05142" lon="2.17349">
        <ele>40.1</ele>
        <time>2023-10-04T14:31:06Z</time>
      </trkpt>
      <trkpt lat="50.05142" lon="2.17349">
        <ele>40.1</ele>
        <time>2023-10-04T14:31:07Z</time>
      </trkpt>
      <trkpt lat="50.05142" lon="2.17349">
        <ele>40.1</ele>
        <time>2023-10-04T14:31:08Z</time>
      </trkpt>
      <trkpt lat="50.05142" lon="2.17349">
        <ele>40.1</ele>
        <time>2023-10-04T14:31:09Z</time>
      </trkpt>
      <trkpt lat="50.05142" lon="2.17349">
        <ele>40.1</ele>
        <time>2023-10-04T14:31:10Z</time>
      </trkpt>
      <trkpt lat="50.05142" lon="2.17349">
        <ele>40.1</ele>
        <time>2023-10-04T14:31:11Z</time>
      </trkpt>
      <trkpt lat="50.05142" lon="2.17349">
        <ele>40.1</ele>
        <time>2023-10-04T14:31:12Z</time>
      </trkpt>
      <trkpt lat="50.05143" lon="2.1735">
        <ele>40.1</ele>
        <time>2023-10-04T14:31:13Z</time>
      </trkpt>
      <trkpt lat="50.05143" lon="2.17351">
        <ele>40.1</ele>
        <time>2023-10-04T14:31:15Z</time>
      </trkpt>
      <trkpt lat="50.05143" lon="2.17351">
        <ele>40.1</ele>
        <time>2023-10-04T14:31:16Z</time>
      </trkpt>
      <trkpt lat="50.05143" lon="2.17351">
        <ele>40.1</ele>
        <time>2023-10-04T14:31:17Z</time>
      </trkpt>
      <trkpt lat="50.05143" lon="2.17351">
        <ele>40.1</ele>
        <time>2023-10-04T14:31:18Z</time>
      </trkpt>
      <trkpt lat="50.05143" lon="2.17351">
        <ele>40.1</ele>
        <time>2023-10-04T14:31:19Z</time>
      </trkpt>
      <trkpt lat="50.05143" lon="2.17351">
        <ele>40.1</ele>
        <time>2023-10-04T14:31:20Z</time>
      </trkpt>
      <trkpt lat="50.05143" lon="2.1735">
        <ele>40.2</ele>
        <time>2023-10-04T14:31:21Z</time>
      </trkpt>
      <trkpt lat="50.05143" lon="2.17349">
        <ele>40.2</ele>
        <time>2023-10-04T14:31:22Z</time>
      </trkpt>
      <trkpt lat="50.05143" lon="2.17348">
        <ele>40.2</ele>
        <time>2023-10-04T14:31:23Z</time>
      </trkpt>
      <trkpt lat="50.05143" lon="2.17347">
        <ele>40.2</ele>
        <time>2023-10-04T14:31:24Z</time>
      </trkpt>
      <trkpt lat="50.05143" lon="2.17346">
        <ele>40.3</ele>
        <time>2023-10-04T14:31:25Z</time>
      </trkpt>
      <trkpt lat="50.05143" lon="2.17345">
        <ele>40.3</ele>
        <time>2023-10-04T14:31:26Z</time>
      </trkpt>
      <trkpt lat="50.05143" lon="2.17344">
        <ele>40.3</ele>
        <time>2023-10-04T14:31:27Z</time>
      </trkpt>
      <trkpt lat="50.05143" lon="2.17343">
        <ele>40.3</ele>
        <time>2023-10-04T14:31:28Z</time>
      </trkpt>
      <trkpt lat="50.05143" lon="2.17342">
        <ele>40.3</ele>
        <time>2023-10-04T14:31:29Z</time>
      </trkpt>
      <trkpt lat="50.05143" lon="2.17341">
        <ele>40.4</ele>
        <time>2023-10-04T14:31:30Z</time>
      </trkpt>
      <trkpt lat="50.05143" lon="2.17339">
        <ele>40.4</ele>
        <time>2023-10-04T14:31:31Z</time>
      </trkpt>
      <trkpt lat="50.05143" lon="2.17338">
        <ele>40.6</ele>
        <time>2023-10-04T14:31:32Z</time>
      </trkpt>
      <trkpt lat="50.05143" lon="2.17337">
        <ele>40.7</ele>
        <time>2023-10-04T14:31:33Z</time>
      </trkpt>
      <trkpt lat="50.05144" lon="2.17336">
        <ele>40.8</ele>
        <time>2023-10-04T14:31:34Z</time>
      </trkpt>
      <trkpt lat="50.05144" lon="2.17335">
        <ele>40.9</ele>
        <time>2023-10-04T14:31:35Z</time>
      </trkpt>
      <trkpt lat="50.05145" lon="2.17334">
        <ele>40.9</ele>
        <time>2023-10-04T14:31:36Z</time>
      </trkpt>
      <trkpt lat="50.05145" lon="2.17333">
        <ele>41</ele>
        <time>2023-10-04T14:31:37Z</time>
      </trkpt>
      <trkpt lat="50.05146" lon="2.17332">
        <ele>41.1</ele>
        <time>2023-10-04T14:31:38Z</time>
      </trkpt>
      <trkpt lat="50.05146" lon="2.17331">
        <ele>41.1</ele>
        <time>2023-10-04T14:31:39Z</time>
      </trkpt>
      <trkpt lat="50.05147" lon="2.1733">
        <ele>41.2</ele>
        <time>2023-10-04T14:31:40Z</time>
      </trkpt>
      <trkpt lat="50.05147" lon="2.17329">
        <ele>41.3</ele>
        <time>2023-10-04T14:31:41Z</time>
      </trkpt>
      <trkpt lat="50.05148" lon="2.17328">
        <ele>41.3</ele>
        <time>2023-10-04T14:31:42Z</time>
      </trkpt>
      <trkpt lat="50.05148" lon="2.17327">
        <ele>41.4</ele>
        <time>2023-10-04T14:31:43Z</time>
      </trkpt>
      <trkpt lat="50.05149" lon="2.17327">
        <ele>41.5</ele>
        <time>2023-10-04T14:31:44Z</time>
      </trkpt>
      <trkpt lat="50.05149" lon="2.17326">
        <ele>41.5</ele>
        <time>2023-10-04T14:31:45Z</time>
      </trkpt>
      <trkpt lat="50.05149" lon="2.17326">
        <ele>41.6</ele>
        <time>2023-10-04T14:31:46Z</time>
      </trkpt>
      <trkpt lat="50.0515" lon="2.17325">
        <ele>41.6</ele>
        <time>2023-10-04T14:31:47Z</time>
      </trkpt>
      <trkpt lat="50.0515" lon="2.17325">
        <ele>41.6</ele>
        <time>2023-10-04T14:31:48Z</time>
      </trkpt>
      <trkpt lat="50.0515" lon="2.17324">
        <ele>41.7</ele>
        <time>2023-10-04T14:31:49Z</time>
      </trkpt>
      <trkpt lat="50.0515" lon="2.17324">
        <ele>41.7</ele>
        <time>2023-10-04T14:31:50Z</time>
      </trkpt>
      <trkpt lat="50.0515" lon="2.17323">
        <ele>41.8</ele>
        <time>2023-10-04T14:31:51Z</time>
      </trkpt>
      <trkpt lat="50.05151" lon="2.17322">
        <ele>41.8</ele>
        <time>2023-10-04T14:31:52Z</time>
      </trkpt>
      <trkpt lat="50.05152" lon="2.1732">
        <ele>42</ele>
        <time>2023-10-04T14:31:53Z</time>
      </trkpt>
      <trkpt lat="50.05152" lon="2.17318">
        <ele>42.1</ele>
        <time>2023-10-04T14:31:54Z</time>
      </trkpt>
      <trkpt lat="50.05153" lon="2.17316">
        <ele>42.3</ele>
        <time>2023-10-04T14:31:55Z</time>
      </trkpt>
      <trkpt lat="50.05154" lon="2.17314">
        <ele>42.5</ele>
        <time>2023-10-04T14:31:56Z</time>
      </trkpt>
      <trkpt lat="50.05155" lon="2.17313">
        <ele>42.5</ele>
        <time>2023-10-04T14:31:57Z</time>
      </trkpt>
      <trkpt lat="50.05155" lon="2.17312">
        <ele>42.6</ele>
        <time>2023-10-04T14:31:58Z</time>
      </trkpt>
      <trkpt lat="50.05156" lon="2.1731">
        <ele>42.7</ele>
        <time>2023-10-04T14:31:59Z</time>
      </trkpt>
      <trkpt lat="50.05156" lon="2.17309">
        <ele>42.8</ele>
        <time>2023-10-04T14:32:00Z</time>
      </trkpt>
      <trkpt lat="50.05157" lon="2.17308">
        <ele>42.9</ele>
        <time>2023-10-04T14:32:01Z</time>
      </trkpt>
      <trkpt lat="50.05158" lon="2.17307">
        <ele>43</ele>
        <time>2023-10-04T14:32:02Z</time>
      </trkpt>
      <trkpt lat="50.05159" lon="2.17306">
        <ele>43.1</ele>
        <time>2023-10-04T14:32:03Z</time>
      </trkpt>
      <trkpt lat="50.05159" lon="2.17306">
        <ele>43.2</ele>
        <time>2023-10-04T14:32:04Z</time>
      </trkpt>
      <trkpt lat="50.0516" lon="2.17305">
        <ele>43.3</ele>
        <time>2023-10-04T14:32:05Z</time>
      </trkpt>
      <trkpt lat="50.05161" lon="2.17304">
        <ele>43.3</ele>
        <time>2023-10-04T14:32:06Z</time>
      </trkpt>
      <trkpt lat="50.05161" lon="2.17303">
        <ele>43.3</ele>
        <time>2023-10-04T14:32:07Z</time>
      </trkpt>
      <trkpt lat="50.05162" lon="2.17302">
        <ele>43.4</ele>
        <time>2023-10-04T14:32:08Z</time>
      </trkpt>
      <trkpt lat="50.05163" lon="2.17301">
        <ele>43.5</ele>
        <time>2023-10-04T14:32:09Z</time>
      </trkpt>
      <trkpt lat="50.05164" lon="2.173">
        <ele>43.5</ele>
        <time>2023-10-04T14:32:10Z</time>
      </trkpt>
      <trkpt lat="50.05165" lon="2.17299">
        <ele>43.6</ele>
        <time>2023-10-04T14:32:11Z</time>
      </trkpt>
      <trkpt lat="50.05166" lon="2.17298">
        <ele>43.6</ele>
        <time>2023-10-04T14:32:12Z</time>
      </trkpt>
      <trkpt lat="50.05166" lon="2.17297">
        <ele>43.7</ele>
        <time>2023-10-04T14:32:13Z</time>
      </trkpt>
      <trkpt lat="50.05167" lon="2.17296">
        <ele>43.8</ele>
        <time>2023-10-04T14:32:14Z</time>
      </trkpt>
      <trkpt lat="50.05167" lon="2.17294">
        <ele>43.8</ele>
        <time>2023-10-04T14:32:15Z</time>
      </trkpt>
      <trkpt lat="50.05167" lon="2.17293">
        <ele>43.9</ele>
        <time>2023-10-04T14:32:16Z</time>
      </trkpt>
      <trkpt lat="50.05168" lon="2.17292">
        <ele>43.9</ele>
        <time>2023-10-04T14:32:17Z</time>
      </trkpt>
      <trkpt lat="50.05168" lon="2.1729">
        <ele>44</ele>
        <time>2023-10-04T14:32:18Z</time>
      </trkpt>
      <trkpt lat="50.05168" lon="2.17289">
        <ele>44.1</ele>
        <time>2023-10-04T14:32:19Z</time>
      </trkpt>
      <trkpt lat="50.05169" lon="2.17287">
        <ele>44.1</ele>
        <time>2023-10-04T14:32:20Z</time>
      </trkpt>
      <trkpt lat="50.05169" lon="2.17286">
        <ele>44.2</ele>
        <time>2023-10-04T14:32:21Z</time>
      </trkpt>
      <trkpt lat="50.05169" lon="2.17284">
        <ele>44.2</ele>
        <time>2023-10-04T14:32:22Z</time>
      </trkpt>
      <trkpt lat="50.05169" lon="2.17283">
        <ele>44.3</ele>
        <time>2023-10-04T14:32:23Z</time>
      </trkpt>
      <trkpt lat="50.05169" lon="2.17281">
        <ele>44.4</ele>
        <time>2023-10-04T14:32:24Z</time>
      </trkpt>
      <trkpt lat="50.0517" lon="2.17279">
        <ele>44.5</ele>
        <time>2023-10-04T14:32:25Z</time>
      </trkpt>
      <trkpt lat="50.0517" lon="2.17277">
        <ele>44.5</ele>
        <time>2023-10-04T14:32:26Z</time>
      </trkpt>
      <trkpt lat="50.0517" lon="2.17276">
        <ele>44.6</ele>
        <time>2023-10-04T14:32:27Z</time>
      </trkpt>
      <trkpt lat="50.0517" lon="2.17274">
        <ele>44.7</ele>
        <time>2023-10-04T14:32:28Z</time>
      </trkpt>
      <trkpt lat="50.0517" lon="2.17273">
        <ele>44.7</ele>
        <time>2023-10-04T14:32:29Z</time>
      </trkpt>
      <trkpt lat="50.05171" lon="2.17272">
        <ele>44.8</ele>
        <time>2023-10-04T14:32:30Z</time>
      </trkpt>
      <trkpt lat="50.05171" lon="2.1727">
        <ele>44.9</ele>
        <time>2023-10-04T14:32:31Z</time>
      </trkpt>
      <trkpt lat="50.05171" lon="2.17268">
        <ele>44.9</ele>
        <time>2023-10-04T14:32:32Z</time>
      </trkpt>
      <trkpt lat="50.05171" lon="2.17267">
        <ele>45</ele>
        <time>2023-10-04T14:32:33Z</time>
      </trkpt>
      <trkpt lat="50.05171" lon="2.17266">
        <ele>45.1</ele>
        <time>2023-10-04T14:32:34Z</time>
      </trkpt>
      <trkpt lat="50.05171" lon="2.17264">
        <ele>45.1</ele>
        <time>2023-10-04T14:32:35Z</time>
      </trkpt>
      <trkpt lat="50.05171" lon="2.17263">
        <ele>45.2</ele>
        <time>2023-10-04T14:32:36Z</time>
      </trkpt>
      <trkpt lat="50.05172" lon="2.17262">
        <ele>45.3</ele>
        <time>2023-10-04T14:32:37Z</time>
      </trkpt>
      <trkpt lat="50.05172" lon="2.1726">
        <ele>45.3</ele>
        <time>2023-10-04T14:32:38Z</time>
      </trkpt>
      <trkpt lat="50.05172" lon="2.17259">
        <ele>45.4</ele>
        <time>2023-10-04T14:32:39Z</time>
      </trkpt>
      <trkpt lat="50.05172" lon="2.17257">
        <ele>45.4</ele>
        <time>2023-10-04T14:32:40Z</time>
      </trkpt>
      <trkpt lat="50.05173" lon="2.17256">
        <ele>45.5</ele>
        <time>2023-10-04T14:32:41Z</time>
      </trkpt>
      <trkpt lat="50.05173" lon="2.17255">
        <ele>45.6</ele>
        <time>2023-10-04T14:32:42Z</time>
      </trkpt>
      <trkpt lat="50.05173" lon="2.17254">
        <ele>45.6</ele>
        <time>2023-10-04T14:32:43Z</time>
      </trkpt>
      <trkpt lat="50.05173" lon="2.17252">
        <ele>45.7</ele>
        <time>2023-10-04T14:32:44Z</time>
      </trkpt>
      <trkpt lat="50.05174" lon="2.17251">
        <ele>45.8</ele>
        <time>2023-10-04T14:32:45Z</time>
      </trkpt>
      <trkpt lat="50.05174" lon="2.1725">
        <ele>45.8</ele>
        <time>2023-10-04T14:32:46Z</time>
      </trkpt>
      <trkpt lat="50.05175" lon="2.17249">
        <ele>45.9</ele>
        <time>2023-10-04T14:32:47Z</time>
      </trkpt>
      <trkpt lat="50.05175" lon="2.17248">
        <ele>45.9</ele>
        <time>2023-10-04T14:32:48Z</time>
      </trkpt>
      <trkpt lat="50.05176" lon="2.17247">
        <ele>46</ele>
        <time>2023-10-04T14:32:49Z</time>
      </trkpt>
      <trkpt lat="50.05177" lon="2.17246">
        <ele>46.1</ele>
        <time>2023-10-04T14:32:50Z</time>
      </trkpt>
      <trkpt lat="50.05177" lon="2.17245">
        <ele>46.1</ele>
        <time>2023-10-04T14:32:51Z</time>
      </trkpt>
      <trkpt lat="50.05177" lon="2.17244">
        <ele>46.2</ele>
        <time>2023-10-04T14:32:52Z</time>
      </trkpt>
      <trkpt lat="50.05178" lon="2.17242">
        <ele>46.2</ele>
        <time>2023-10-04T14:32:53Z</time>
      </trkpt>
      <trkpt lat="50.05178" lon="2.17241">
        <ele>46.3</ele>
        <time>2023-10-04T14:32:54Z</time>
      </trkpt>
      <trkpt lat="50.05179" lon="2.17239">
        <ele>46.3</ele>
        <time>2023-10-04T14:32:55Z</time>
      </trkpt>
      <trkpt lat="50.05179" lon="2.17237">
        <ele>46.4</ele>
        <time>2023-10-04T14:32:56Z</time>
      </trkpt>
      <trkpt lat="50.05179" lon="2.17236">
        <ele>46.4</ele>
        <time>2023-10-04T14:32:57Z</time>
      </trkpt>
      <trkpt lat="50.0518" lon="2.17234">
        <ele>46.5</ele>
        <time>2023-10-04T14:32:58Z</time>
      </trkpt>
      <trkpt lat="50.0518" lon="2.17233">
        <ele>46.6</ele>
        <time>2023-10-04T14:32:59Z</time>
      </trkpt>
      <trkpt lat="50.05181" lon="2.17231">
        <ele>46.6</ele>
        <time>2023-10-04T14:33:00Z</time>
      </trkpt>
      <trkpt lat="50.05181" lon="2.1723">
        <ele>46.6</ele>
        <time>2023-10-04T14:33:01Z</time>
      </trkpt>
      <trkpt lat="50.05181" lon="2.17228">
        <ele>46.7</ele>
        <time>2023-10-04T14:33:02Z</time>
      </trkpt>
      <trkpt lat="50.05181" lon="2.17227">
        <ele>46.7</ele>
        <time>2023-10-04T14:33:03Z</time>
      </trkpt>
      <trkpt lat="50.05182" lon="2.17225">
        <ele>46.8</ele>
        <time>2023-10-04T14:33:04Z</time>
      </trkpt>
      <trkpt lat="50.05182" lon="2.17224">
        <ele>46.8</ele>
        <time>2023-10-04T14:33:05Z</time>
      </trkpt>
      <trkpt lat="50.05183" lon="2.17223">
        <ele>46.8</ele>
        <time>2023-10-04T14:33:06Z</time>
      </trkpt>
      <trkpt lat="50.05183" lon="2.17221">
        <ele>46.9</ele>
        <time>2023-10-04T14:33:07Z</time>
      </trkpt>
      <trkpt lat="50.05184" lon="2.1722">
        <ele>46.9</ele>
        <time>2023-10-04T14:33:08Z</time>
      </trkpt>
      <trkpt lat="50.05184" lon="2.17218">
        <ele>47</ele>
        <time>2023-10-04T14:33:09Z</time>
      </trkpt>
      <trkpt lat="50.05184" lon="2.17217">
        <ele>47</ele>
        <time>2023-10-04T14:33:10Z</time>
      </trkpt>
      <trkpt lat="50.05185" lon="2.17215">
        <ele>47</ele>
        <time>2023-10-04T14:33:11Z</time>
      </trkpt>
      <trkpt lat="50.05185" lon="2.17213">
        <ele>47.1</ele>
        <time>2023-10-04T14:33:12Z</time>
      </trkpt>
      <trkpt lat="50.05186" lon="2.17212">
        <ele>47.1</ele>
        <time>2023-10-04T14:33:13Z</time>
      </trkpt>
      <trkpt lat="50.05186" lon="2.1721">
        <ele>47.1</ele>
        <time>2023-10-04T14:33:14Z</time>
      </trkpt>
      <trkpt lat="50.05186" lon="2.17209">
        <ele>47.1</ele>
        <time>2023-10-04T14:33:15Z</time>
      </trkpt>
      <trkpt lat="50.05187" lon="2.17207">
        <ele>47.2</ele>
        <time>2023-10-04T14:33:16Z</time>
      </trkpt>
      <trkpt lat="50.05187" lon="2.17206">
        <ele>47.2</ele>
        <time>2023-10-04T14:33:17Z</time>
      </trkpt>
      <trkpt lat="50.05187" lon="2.17204">
        <ele>47.2</ele>
        <time>2023-10-04T14:33:18Z</time>
      </trkpt>
      <trkpt lat="50.05187" lon="2.17203">
        <ele>47.2</ele>
        <time>2023-10-04T14:33:19Z</time>
      </trkpt>
      <trkpt lat="50.05188" lon="2.17201">
        <ele>47.2</ele>
        <time>2023-10-04T14:33:20Z</time>
      </trkpt>
      <trkpt lat="50.05188" lon="2.172">
        <ele>47.3</ele>
        <time>2023-10-04T14:33:21Z</time>
      </trkpt>
      <trkpt lat="50.05188" lon="2.17198">
        <ele>47.3</ele>
        <time>2023-10-04T14:33:22Z</time>
      </trkpt>
      <trkpt lat="50.05189" lon="2.17197">
        <ele>47.3</ele>
        <time>2023-10-04T14:33:23Z</time>
      </trkpt>
      <trkpt lat="50.05189" lon="2.17195">
        <ele>47.3</ele>
        <time>2023-10-04T14:33:24Z</time>
      </trkpt>
      <trkpt lat="50.05189" lon="2.17193">
        <ele>47.3</ele>
        <time>2023-10-04T14:33:25Z</time>
      </trkpt>
      <trkpt lat="50.0519" lon="2.17192">
        <ele>47.3</ele>
        <time>2023-10-04T14:33:26Z</time>
      </trkpt>
      <trkpt lat="50.0519" lon="2.17191">
        <ele>47.3</ele>
        <time>2023-10-04T14:33:27Z</time>
      </trkpt>
      <trkpt lat="50.05191" lon="2.17189">
        <ele>47.4</ele>
        <time>2023-10-04T14:33:28Z</time>
      </trkpt>
      <trkpt lat="50.05191" lon="2.17188">
        <ele>47.4</ele>
        <time>2023-10-04T14:33:29Z</time>
      </trkpt>
      <trkpt lat="50.05191" lon="2.17187">
        <ele>47.4</ele>
        <time>2023-10-04T14:33:30Z</time>
      </trkpt>
      <trkpt lat="50.05192" lon="2.17185">
        <ele>47.4</ele>
        <time>2023-10-04T14:33:31Z</time>
      </trkpt>
      <trkpt lat="50.05192" lon="2.17183">
        <ele>47.4</ele>
        <time>2023-10-04T14:33:32Z</time>
      </trkpt>
      <trkpt lat="50.05193" lon="2.17182">
        <ele>47.4</ele>
        <time>2023-10-04T14:33:33Z</time>
      </trkpt>
      <trkpt lat="50.05194" lon="2.1718">
        <ele>47.4</ele>
        <time>2023-10-04T14:33:34Z</time>
      </trkpt>
      <trkpt lat="50.05194" lon="2.17179">
        <ele>47.4</ele>
        <time>2023-10-04T14:33:35Z</time>
      </trkpt>
      <trkpt lat="50.05195" lon="2.17178">
        <ele>47.4</ele>
        <time>2023-10-04T14:33:36Z</time>
      </trkpt>
      <trkpt lat="50.05195" lon="2.17177">
        <ele>47.4</ele>
        <time>2023-10-04T14:33:37Z</time>
      </trkpt>
      <trkpt lat="50.05196" lon="2.17175">
        <ele>47.4</ele>
        <time>2023-10-04T14:33:38Z</time>
      </trkpt>
      <trkpt lat="50.05196" lon="2.17174">
        <ele>47.4</ele>
        <time>2023-10-04T14:33:39Z</time>
      </trkpt>
      <trkpt lat="50.05197" lon="2.17173">
        <ele>47.4</ele>
        <time>2023-10-04T14:33:40Z</time>
      </trkpt>
      <trkpt lat="50.05197" lon="2.17171">
        <ele>47.4</ele>
        <time>2023-10-04T14:33:41Z</time>
      </trkpt>
      <trkpt lat="50.05198" lon="2.1717">
        <ele>47.5</ele>
        <time>2023-10-04T14:33:42Z</time>
      </trkpt>
      <trkpt lat="50.05198" lon="2.17168">
        <ele>47.5</ele>
        <time>2023-10-04T14:33:43Z</time>
      </trkpt>
      <trkpt lat="50.05198" lon="2.17167">
        <ele>47.5</ele>
        <time>2023-10-04T14:33:44Z</time>
      </trkpt>
      <trkpt lat="50.05199" lon="2.17166">
        <ele>47.5</ele>
        <time>2023-10-04T14:33:45Z</time>
      </trkpt>
      <trkpt lat="50.05199" lon="2.17164">
        <ele>47.5</ele>
        <time>2023-10-04T14:33:46Z</time>
      </trkpt>
      <trkpt lat="50.05199" lon="2.17163">
        <ele>47.5</ele>
        <time>2023-10-04T14:33:47Z</time>
      </trkpt>
      <trkpt lat="50.052" lon="2.17162">
        <ele>47.5</ele>
        <time>2023-10-04T14:33:48Z</time>
      </trkpt>
      <trkpt lat="50.052" lon="2.1716">
        <ele>47.5</ele>
        <time>2023-10-04T14:33:49Z</time>
      </trkpt>
      <trkpt lat="50.05201" lon="2.17159">
        <ele>47.5</ele>
        <time>2023-10-04T14:33:50Z</time>
      </trkpt>
      <trkpt lat="50.05202" lon="2.17157">
        <ele>47.5</ele>
        <time>2023-10-04T14:33:51Z</time>
      </trkpt>
      <trkpt lat="50.05202" lon="2.17156">
        <ele>47.5</ele>
        <time>2023-10-04T14:33:52Z</time>
      </trkpt>
      <trkpt lat="50.05202" lon="2.17155">
        <ele>47.5</ele>
        <time>2023-10-04T14:33:53Z</time>
      </trkpt>
      <trkpt lat="50.05202" lon="2.17154">
        <ele>47.5</ele>
        <time>2023-10-04T14:33:54Z</time>
      </trkpt>
      <trkpt lat="50.05203" lon="2.17152">
        <ele>47.5</ele>
        <time>2023-10-04T14:33:55Z</time>
      </trkpt>
      <trkpt lat="50.05203" lon="2.17151">
        <ele>47.5</ele>
        <time>2023-10-04T14:33:56Z</time>
      </trkpt>
      <trkpt lat="50.05204" lon="2.17149">
        <ele>47.5</ele>
        <time>2023-10-04T14:33:57Z</time>
      </trkpt>
      <trkpt lat="50.05204" lon="2.17146">
        <ele>47.5</ele>
        <time>2023-10-04T14:33:58Z</time>
      </trkpt>
      <trkpt lat="50.05205" lon="2.17145">
        <ele>47.6</ele>
        <time>2023-10-04T14:33:59Z</time>
      </trkpt>
      <trkpt lat="50.05205" lon="2.17143">
        <ele>47.6</ele>
        <time>2023-10-04T14:34:00Z</time>
      </trkpt>
      <trkpt lat="50.05205" lon="2.17142">
        <ele>47.6</ele>
        <time>2023-10-04T14:34:01Z</time>
      </trkpt>
      <trkpt lat="50.05206" lon="2.1714">
        <ele>47.6</ele>
        <time>2023-10-04T14:34:02Z</time>
      </trkpt>
      <trkpt lat="50.05206" lon="2.17138">
        <ele>47.6</ele>
        <time>2023-10-04T14:34:03Z</time>
      </trkpt>
      <trkpt lat="50.05206" lon="2.17137">
        <ele>47.6</ele>
        <time>2023-10-04T14:34:04Z</time>
      </trkpt>
      <trkpt lat="50.05206" lon="2.17136">
        <ele>47.6</ele>
        <time>2023-10-04T14:34:05Z</time>
      </trkpt>
      <trkpt lat="50.05207" lon="2.17134">
        <ele>47.6</ele>
        <time>2023-10-04T14:34:06Z</time>
      </trkpt>
      <trkpt lat="50.05207" lon="2.17133">
        <ele>47.6</ele>
        <time>2023-10-04T14:34:07Z</time>
      </trkpt>
      <trkpt lat="50.05207" lon="2.17132">
        <ele>47.6</ele>
        <time>2023-10-04T14:34:08Z</time>
      </trkpt>
      <trkpt lat="50.05208" lon="2.1713">
        <ele>47.6</ele>
        <time>2023-10-04T14:34:09Z</time>
      </trkpt>
      <trkpt lat="50.05208" lon="2.17129">
        <ele>47.7</ele>
        <time>2023-10-04T14:34:10Z</time>
      </trkpt>
      <trkpt lat="50.05209" lon="2.17128">
        <ele>47.7</ele>
        <time>2023-10-04T14:34:11Z</time>
      </trkpt>
      <trkpt lat="50.05209" lon="2.17126">
        <ele>47.7</ele>
        <time>2023-10-04T14:34:12Z</time>
      </trkpt>
      <trkpt lat="50.0521" lon="2.17125">
        <ele>47.7</ele>
        <time>2023-10-04T14:34:13Z</time>
      </trkpt>
      <trkpt lat="50.0521" lon="2.17123">
        <ele>47.7</ele>
        <time>2023-10-04T14:34:14Z</time>
      </trkpt>
      <trkpt lat="50.05211" lon="2.17122">
        <ele>47.7</ele>
        <time>2023-10-04T14:34:15Z</time>
      </trkpt>
      <trkpt lat="50.05211" lon="2.1712">
        <ele>47.7</ele>
        <time>2023-10-04T14:34:16Z</time>
      </trkpt>
      <trkpt lat="50.05212" lon="2.17119">
        <ele>47.8</ele>
        <time>2023-10-04T14:34:17Z</time>
      </trkpt>
      <trkpt lat="50.05212" lon="2.17117">
        <ele>47.8</ele>
        <time>2023-10-04T14:34:18Z</time>
      </trkpt>
      <trkpt lat="50.05213" lon="2.17115">
        <ele>47.8</ele>
        <time>2023-10-04T14:34:19Z</time>
      </trkpt>
      <trkpt lat="50.05214" lon="2.17114">
        <ele>47.8</ele>
        <time>2023-10-04T14:34:20Z</time>
      </trkpt>
      <trkpt lat="50.05215" lon="2.17113">
        <ele>47.8</ele>
        <time>2023-10-04T14:34:21Z</time>
      </trkpt>
      <trkpt lat="50.05215" lon="2.17112">
        <ele>47.8</ele>
        <time>2023-10-04T14:34:22Z</time>
      </trkpt>
      <trkpt lat="50.05216" lon="2.17111">
        <ele>47.8</ele>
        <time>2023-10-04T14:34:23Z</time>
      </trkpt>
      <trkpt lat="50.05216" lon="2.1711">
        <ele>47.9</ele>
        <time>2023-10-04T14:34:24Z</time>
      </trkpt>
      <trkpt lat="50.05217" lon="2.17109">
        <ele>47.9</ele>
        <time>2023-10-04T14:34:25Z</time>
      </trkpt>
      <trkpt lat="50.05217" lon="2.17107">
        <ele>47.9</ele>
        <time>2023-10-04T14:34:26Z</time>
      </trkpt>
      <trkpt lat="50.05218" lon="2.17106">
        <ele>47.9</ele>
        <time>2023-10-04T14:34:27Z</time>
      </trkpt>
      <trkpt lat="50.05218" lon="2.17105">
        <ele>47.9</ele>
        <time>2023-10-04T14:34:28Z</time>
      </trkpt>
      <trkpt lat="50.05219" lon="2.17103">
        <ele>47.9</ele>
        <time>2023-10-04T14:34:29Z</time>
      </trkpt>
      <trkpt lat="50.05219" lon="2.17102">
        <ele>47.9</ele>
        <time>2023-10-04T14:34:30Z</time>
      </trkpt>
      <trkpt lat="50.0522" lon="2.17101">
        <ele>47.9</ele>
        <time>2023-10-04T14:34:31Z</time>
      </trkpt>
      <trkpt lat="50.0522" lon="2.171">
        <ele>47.9</ele>
        <time>2023-10-04T14:34:32Z</time>
      </trkpt>
      <trkpt lat="50.05221" lon="2.17099">
        <ele>47.9</ele>
        <time>2023-10-04T14:34:33Z</time>
      </trkpt>
      <trkpt lat="50.05221" lon="2.17098">
        <ele>47.9</ele>
        <time>2023-10-04T14:34:34Z</time>
      </trkpt>
      <trkpt lat="50.05221" lon="2.17096">
        <ele>47.9</ele>
        <time>2023-10-04T14:34:35Z</time>
      </trkpt>
      <trkpt lat="50.05222" lon="2.17095">
        <ele>47.9</ele>
        <time>2023-10-04T14:34:36Z</time>
      </trkpt>
      <trkpt lat="50.05223" lon="2.17093">
        <ele>48</ele>
        <time>2023-10-04T14:34:37Z</time>
      </trkpt>
      <trkpt lat="50.05223" lon="2.17092">
        <ele>48</ele>
        <time>2023-10-04T14:34:38Z</time>
      </trkpt>
      <trkpt lat="50.05224" lon="2.1709">
        <ele>48</ele>
        <time>2023-10-04T14:34:39Z</time>
      </trkpt>
      <trkpt lat="50.05225" lon="2.17089">
        <ele>48</ele>
        <time>2023-10-04T14:34:40Z</time>
      </trkpt>
      <trkpt lat="50.05226" lon="2.17088">
        <ele>48</ele>
        <time>2023-10-04T14:34:41Z</time>
      </trkpt>
      <trkpt lat="50.05226" lon="2.17087">
        <ele>48</ele>
        <time>2023-10-04T14:34:42Z</time>
      </trkpt>
      <trkpt lat="50.05227" lon="2.17085">
        <ele>48</ele>
        <time>2023-10-04T14:34:43Z</time>
      </trkpt>
      <trkpt lat="50.05227" lon="2.17084">
        <ele>48</ele>
        <time>2023-10-04T14:34:44Z</time>
      </trkpt>
      <trkpt lat="50.05228" lon="2.17083">
        <ele>48</ele>
        <time>2023-10-04T14:34:45Z</time>
      </trkpt>
      <trkpt lat="50.05228" lon="2.17082">
        <ele>48</ele>
        <time>2023-10-04T14:34:46Z</time>
      </trkpt>
      <trkpt lat="50.05229" lon="2.1708">
        <ele>48</ele>
        <time>2023-10-04T14:34:47Z</time>
      </trkpt>
      <trkpt lat="50.05229" lon="2.17079">
        <ele>48</ele>
        <time>2023-10-04T14:34:48Z</time>
      </trkpt>
      <trkpt lat="50.0523" lon="2.17078">
        <ele>48</ele>
        <time>2023-10-04T14:34:49Z</time>
      </trkpt>
      <trkpt lat="50.05231" lon="2.17076">
        <ele>48</ele>
        <time>2023-10-04T14:34:50Z</time>
      </trkpt>
      <trkpt lat="50.05232" lon="2.17075">
        <ele>48</ele>
        <time>2023-10-04T14:34:51Z</time>
      </trkpt>
      <trkpt lat="50.05232" lon="2.17074">
        <ele>48</ele>
        <time>2023-10-04T14:34:52Z</time>
      </trkpt>
      <trkpt lat="50.05233" lon="2.17073">
        <ele>48</ele>
        <time>2023-10-04T14:34:53Z</time>
      </trkpt>
      <trkpt lat="50.05233" lon="2.17072">
        <ele>48</ele>
        <time>2023-10-04T14:34:54Z</time>
      </trkpt>
      <trkpt lat="50.05233" lon="2.17071">
        <ele>48</ele>
        <time>2023-10-04T14:34:55Z</time>
      </trkpt>
      <trkpt lat="50.05234" lon="2.1707">
        <ele>47.9</ele>
        <time>2023-10-04T14:34:56Z</time>
      </trkpt>
      <trkpt lat="50.05235" lon="2.17069">
        <ele>47.9</ele>
        <time>2023-10-04T14:34:57Z</time>
      </trkpt>
      <trkpt lat="50.05235" lon="2.17067">
        <ele>47.9</ele>
        <time>2023-10-04T14:34:58Z</time>
      </trkpt>
      <trkpt lat="50.05236" lon="2.17066">
        <ele>47.9</ele>
        <time>2023-10-04T14:34:59Z</time>
      </trkpt>
      <trkpt lat="50.05236" lon="2.17065">
        <ele>47.9</ele>
        <time>2023-10-04T14:35:00Z</time>
      </trkpt>
      <trkpt lat="50.05237" lon="2.17064">
        <ele>47.9</ele>
        <time>2023-10-04T14:35:01Z</time>
      </trkpt>
      <trkpt lat="50.05237" lon="2.17062">
        <ele>47.9</ele>
        <time>2023-10-04T14:35:02Z</time>
      </trkpt>
      <trkpt lat="50.05238" lon="2.17061">
        <ele>47.9</ele>
        <time>2023-10-04T14:35:03Z</time>
      </trkpt>
      <trkpt lat="50.05238" lon="2.1706">
        <ele>47.9</ele>
        <time>2023-10-04T14:35:04Z</time>
      </trkpt>
      <trkpt lat="50.05239" lon="2.17058">
        <ele>47.9</ele>
        <time>2023-10-04T14:35:05Z</time>
      </trkpt>
      <trkpt lat="50.05239" lon="2.17057">
        <ele>47.9</ele>
        <time>2023-10-04T14:35:06Z</time>
      </trkpt>
      <trkpt lat="50.0524" lon="2.17055">
        <ele>47.8</ele>
        <time>2023-10-04T14:35:07Z</time>
      </trkpt>
      <trkpt lat="50.05241" lon="2.17054">
        <ele>47.8</ele>
        <time>2023-10-04T14:35:08Z</time>
      </trkpt>
      <trkpt lat="50.05241" lon="2.17052">
        <ele>47.8</ele>
        <time>2023-10-04T14:35:09Z</time>
      </trkpt>
      <trkpt lat="50.05241" lon="2.17051">
        <ele>47.8</ele>
        <time>2023-10-04T14:35:10Z</time>
      </trkpt>
      <trkpt lat="50.05242" lon="2.1705">
        <ele>47.8</ele>
        <time>2023-10-04T14:35:11Z</time>
      </trkpt>
      <trkpt lat="50.05242" lon="2.17048">
        <ele>47.8</ele>
        <time>2023-10-04T14:35:12Z</time>
      </trkpt>
      <trkpt lat="50.05243" lon="2.17047">
        <ele>47.8</ele>
        <time>2023-10-04T14:35:13Z</time>
      </trkpt>
      <trkpt lat="50.05244" lon="2.17045">
        <ele>47.8</ele>
        <time>2023-10-04T14:35:14Z</time>
      </trkpt>
      <trkpt lat="50.05244" lon="2.17043">
        <ele>47.7</ele>
        <time>2023-10-04T14:35:15Z</time>
      </trkpt>
      <trkpt lat="50.05245" lon="2.17042">
        <ele>47.7</ele>
        <time>2023-10-04T14:35:16Z</time>
      </trkpt>
      <trkpt lat="50.05245" lon="2.1704">
        <ele>47.7</ele>
        <time>2023-10-04T14:35:17Z</time>
      </trkpt>
      <trkpt lat="50.05246" lon="2.17039">
        <ele>47.7</ele>
        <time>2023-10-04T14:35:18Z</time>
      </trkpt>
      <trkpt lat="50.05246" lon="2.17037">
        <ele>47.7</ele>
        <time>2023-10-04T14:35:19Z</time>
      </trkpt>
      <trkpt lat="50.05247" lon="2.17036">
        <ele>47.7</ele>
        <time>2023-10-04T14:35:20Z</time>
      </trkpt>
      <trkpt lat="50.05247" lon="2.17034">
        <ele>47.7</ele>
        <time>2023-10-04T14:35:21Z</time>
      </trkpt>
      <trkpt lat="50.05248" lon="2.17033">
        <ele>47.6</ele>
        <time>2023-10-04T14:35:22Z</time>
      </trkpt>
      <trkpt lat="50.05248" lon="2.17031">
        <ele>47.6</ele>
        <time>2023-10-04T14:35:23Z</time>
      </trkpt>
      <trkpt lat="50.05249" lon="2.1703">
        <ele>47.6</ele>
        <time>2023-10-04T14:35:24Z</time>
      </trkpt>
      <trkpt lat="50.0525" lon="2.17027">
        <ele>47.6</ele>
        <time>2023-10-04T14:35:25Z</time>
      </trkpt>
      <trkpt lat="50.0525" lon="2.17026">
        <ele>47.6</ele>
        <time>2023-10-04T14:35:26Z</time>
      </trkpt>
      <trkpt lat="50.05251" lon="2.17025">
        <ele>47.6</ele>
        <time>2023-10-04T14:35:27Z</time>
      </trkpt>
      <trkpt lat="50.05251" lon="2.17024">
        <ele>47.6</ele>
        <time>2023-10-04T14:35:28Z</time>
      </trkpt>
      <trkpt lat="50.05252" lon="2.17022">
        <ele>47.6</ele>
        <time>2023-10-04T14:35:29Z</time>
      </trkpt>
      <trkpt lat="50.05252" lon="2.17021">
        <ele>47.6</ele>
        <time>2023-10-04T14:35:30Z</time>
      </trkpt>
      <trkpt lat="50.05253" lon="2.1702">
        <ele>47.6</ele>
        <time>2023-10-04T14:35:31Z</time>
      </trkpt>
      <trkpt lat="50.05254" lon="2.17018">
        <ele>47.5</ele>
        <time>2023-10-04T14:35:32Z</time>
      </trkpt>
      <trkpt lat="50.05254" lon="2.17017">
        <ele>47.5</ele>
        <time>2023-10-04T14:35:33Z</time>
      </trkpt>
      <trkpt lat="50.05255" lon="2.17015">
        <ele>47.5</ele>
        <time>2023-10-04T14:35:34Z</time>
      </trkpt>
      <trkpt lat="50.05256" lon="2.17014">
        <ele>47.5</ele>
        <time>2023-10-04T14:35:35Z</time>
      </trkpt>
      <trkpt lat="50.05256" lon="2.17012">
        <ele>47.5</ele>
        <time>2023-10-04T14:35:36Z</time>
      </trkpt>
      <trkpt lat="50.05257" lon="2.17011">
        <ele>47.5</ele>
        <time>2023-10-04T14:35:37Z</time>
      </trkpt>
      <trkpt lat="50.05257" lon="2.17009">
        <ele>47.5</ele>
        <time>2023-10-04T14:35:38Z</time>
      </trkpt>
      <trkpt lat="50.05258" lon="2.17008">
        <ele>47.5</ele>
        <time>2023-10-04T14:35:39Z</time>
      </trkpt>
      <trkpt lat="50.05258" lon="2.17006">
        <ele>47.5</ele>
        <time>2023-10-04T14:35:40Z</time>
      </trkpt>
      <trkpt lat="50.05259" lon="2.17005">
        <ele>47.5</ele>
        <time>2023-10-04T14:35:41Z</time>
      </trkpt>
      <trkpt lat="50.05259" lon="2.17003">
        <ele>47.5</ele>
        <time>2023-10-04T14:35:42Z</time>
      </trkpt>
      <trkpt lat="50.0526" lon="2.17002">
        <ele>47.5</ele>
        <time>2023-10-04T14:35:43Z</time>
      </trkpt>
      <trkpt lat="50.05261" lon="2.17">
        <ele>47.5</ele>
        <time>2023-10-04T14:35:44Z</time>
      </trkpt>
      <trkpt lat="50.05261" lon="2.16999">
        <ele>47.4</ele>
        <time>2023-10-04T14:35:45Z</time>
      </trkpt>
      <trkpt lat="50.05262" lon="2.16997">
        <ele>47.4</ele>
        <time>2023-10-04T14:35:46Z</time>
      </trkpt>
      <trkpt lat="50.05262" lon="2.16996">
        <ele>47.4</ele>
        <time>2023-10-04T14:35:47Z</time>
      </trkpt>
      <trkpt lat="50.05263" lon="2.16994">
        <ele>47.4</ele>
        <time>2023-10-04T14:35:48Z</time>
      </trkpt>
      <trkpt lat="50.05263" lon="2.16993">
        <ele>47.4</ele>
        <time>2023-10-04T14:35:49Z</time>
      </trkpt>
      <trkpt lat="50.05264" lon="2.16991">
        <ele>47.4</ele>
        <time>2023-10-04T14:35:50Z</time>
      </trkpt>
      <trkpt lat="50.05264" lon="2.16989">
        <ele>47.4</ele>
        <time>2023-10-04T14:35:51Z</time>
      </trkpt>
      <trkpt lat="50.05265" lon="2.16986">
        <ele>47.4</ele>
        <time>2023-10-04T14:35:52Z</time>
      </trkpt>
      <trkpt lat="50.05265" lon="2.16985">
        <ele>47.4</ele>
        <time>2023-10-04T14:35:53Z</time>
      </trkpt>
      <trkpt lat="50.05266" lon="2.16984">
        <ele>47.5</ele>
        <time>2023-10-04T14:35:54Z</time>
      </trkpt>
      <trkpt lat="50.05266" lon="2.16983">
        <ele>47.5</ele>
        <time>2023-10-04T14:35:55Z</time>
      </trkpt>
      <trkpt lat="50.05267" lon="2.16981">
        <ele>47.5</ele>
        <time>2023-10-04T14:35:56Z</time>
      </trkpt>
      <trkpt lat="50.05267" lon="2.1698">
        <ele>47.5</ele>
        <time>2023-10-04T14:35:57Z</time>
      </trkpt>
      <trkpt lat="50.05267" lon="2.16978">
        <ele>47.5</ele>
        <time>2023-10-04T14:35:58Z</time>
      </trkpt>
      <trkpt lat="50.05268" lon="2.16976">
        <ele>47.5</ele>
        <time>2023-10-04T14:35:59Z</time>
      </trkpt>
      <trkpt lat="50.05268" lon="2.16975">
        <ele>47.5</ele>
        <time>2023-10-04T14:36:00Z</time>
      </trkpt>
      <trkpt lat="50.05269" lon="2.16973">
        <ele>47.5</ele>
        <time>2023-10-04T14:36:01Z</time>
      </trkpt>
      <trkpt lat="50.05269" lon="2.16972">
        <ele>47.5</ele>
        <time>2023-10-04T14:36:02Z</time>
      </trkpt>
      <trkpt lat="50.0527" lon="2.16971">
        <ele>47.5</ele>
        <time>2023-10-04T14:36:03Z</time>
      </trkpt>
      <trkpt lat="50.05271" lon="2.1697">
        <ele>47.6</ele>
        <time>2023-10-04T14:36:04Z</time>
      </trkpt>
      <trkpt lat="50.05272" lon="2.1697">
        <ele>47.6</ele>
        <time>2023-10-04T14:36:05Z</time>
      </trkpt>
      <trkpt lat="50.05272" lon="2.1697">
        <ele>47.6</ele>
        <time>2023-10-04T14:36:06Z</time>
      </trkpt>
      <trkpt lat="50.05273" lon="2.1697">
        <ele>47.6</ele>
        <time>2023-10-04T14:36:07Z</time>
      </trkpt>
      <trkpt lat="50.05274" lon="2.1697">
        <ele>47.6</ele>
        <time>2023-10-04T14:36:08Z</time>
      </trkpt>
      <trkpt lat="50.05274" lon="2.1697">
        <ele>47.6</ele>
        <time>2023-10-04T14:36:09Z</time>
      </trkpt>
      <trkpt lat="50.05274" lon="2.16971">
        <ele>47.6</ele>
        <time>2023-10-04T14:36:10Z</time>
      </trkpt>
      <trkpt lat="50.05274" lon="2.16971">
        <ele>47.6</ele>
        <time>2023-10-04T14:36:11Z</time>
      </trkpt>
      <trkpt lat="50.05274" lon="2.16971">
        <ele>47.6</ele>
        <time>2023-10-04T14:36:12Z</time>
      </trkpt>
      <trkpt lat="50.05274" lon="2.16971">
        <ele>47.6</ele>
        <time>2023-10-04T14:36:13Z</time>
      </trkpt>
      <trkpt lat="50.05274" lon="2.16971">
        <ele>47.6</ele>
        <time>2023-10-04T14:36:14Z</time>
      </trkpt>
      <trkpt lat="50.05274" lon="2.16971">
        <ele>47.6</ele>
        <time>2023-10-04T14:36:15Z</time>
      </trkpt>
      <trkpt lat="50.05274" lon="2.16971">
        <ele>47.6</ele>
        <time>2023-10-04T14:36:16Z</time>
      </trkpt>
      <trkpt lat="50.05274" lon="2.16971">
        <ele>47.6</ele>
        <time>2023-10-04T14:36:17Z</time>
      </trkpt>
      <trkpt lat="50.05274" lon="2.1697">
        <ele>47.6</ele>
        <time>2023-10-04T14:36:18Z</time>
      </trkpt>
      <trkpt lat="50.05274" lon="2.16969">
        <ele>47.6</ele>
        <time>2023-10-04T14:36:19Z</time>
      </trkpt>
      <trkpt lat="50.05274" lon="2.16969">
        <ele>47.6</ele>
        <time>2023-10-04T14:36:20Z</time>
      </trkpt>
      <trkpt lat="50.05274" lon="2.16968">
        <ele>47.7</ele>
        <time>2023-10-04T14:36:21Z</time>
      </trkpt>
      <trkpt lat="50.05274" lon="2.16967">
        <ele>47.7</ele>
        <time>2023-10-04T14:36:22Z</time>
      </trkpt>
      <trkpt lat="50.05274" lon="2.16966">
        <ele>47.7</ele>
        <time>2023-10-04T14:36:23Z</time>
      </trkpt>
      <trkpt lat="50.05274" lon="2.16963">
        <ele>47.7</ele>
        <time>2023-10-04T14:36:24Z</time>
      </trkpt>
      <trkpt lat="50.05274" lon="2.16961">
        <ele>47.7</ele>
        <time>2023-10-04T14:36:25Z</time>
      </trkpt>
      <trkpt lat="50.05274" lon="2.1696">
        <ele>47.7</ele>
        <time>2023-10-04T14:36:26Z</time>
      </trkpt>
      <trkpt lat="50.05275" lon="2.16958">
        <ele>47.8</ele>
        <time>2023-10-04T14:36:27Z</time>
      </trkpt>
      <trkpt lat="50.05275" lon="2.16956">
        <ele>47.8</ele>
        <time>2023-10-04T14:36:28Z</time>
      </trkpt>
      <trkpt lat="50.05276" lon="2.16953">
        <ele>47.8</ele>
        <time>2023-10-04T14:36:29Z</time>
      </trkpt>
      <trkpt lat="50.05277" lon="2.16952">
        <ele>47.8</ele>
        <time>2023-10-04T14:36:30Z</time>
      </trkpt>
      <trkpt lat="50.05277" lon="2.16951">
        <ele>47.8</ele>
        <time>2023-10-04T14:36:31Z</time>
      </trkpt>
      <trkpt lat="50.05277" lon="2.16949">
        <ele>47.9</ele>
        <time>2023-10-04T14:36:32Z</time>
      </trkpt>
      <trkpt lat="50.05278" lon="2.16948">
        <ele>47.9</ele>
        <time>2023-10-04T14:36:33Z</time>
      </trkpt>
      <trkpt lat="50.05278" lon="2.16947">
        <ele>47.9</ele>
        <time>2023-10-04T14:36:34Z</time>
      </trkpt>
      <trkpt lat="50.05278" lon="2.16945">
        <ele>47.9</ele>
        <time>2023-10-04T14:36:35Z</time>
      </trkpt>
      <trkpt lat="50.05278" lon="2.16944">
        <ele>47.9</ele>
        <time>2023-10-04T14:36:36Z</time>
      </trkpt>
      <trkpt lat="50.05278" lon="2.16942">
        <ele>47.9</ele>
        <time>2023-10-04T14:36:37Z</time>
      </trkpt>
      <trkpt lat="50.05278" lon="2.16941">
        <ele>47.9</ele>
        <time>2023-10-04T14:36:38Z</time>
      </trkpt>
      <trkpt lat="50.05279" lon="2.16937">
        <ele>48</ele>
        <time>2023-10-04T14:36:39Z</time>
      </trkpt>
      <trkpt lat="50.05279" lon="2.16936">
        <ele>48</ele>
        <time>2023-10-04T14:36:40Z</time>
      </trkpt>
      <trkpt lat="50.05279" lon="2.16935">
        <ele>48</ele>
        <time>2023-10-04T14:36:41Z</time>
      </trkpt>
      <trkpt lat="50.0528" lon="2.16933">
        <ele>48</ele>
        <time>2023-10-04T14:36:42Z</time>
      </trkpt>
      <trkpt lat="50.0528" lon="2.16932">
        <ele>48</ele>
        <time>2023-10-04T14:36:43Z</time>
      </trkpt>
      <trkpt lat="50.0528" lon="2.1693">
        <ele>48.1</ele>
        <time>2023-10-04T14:36:44Z</time>
      </trkpt>
      <trkpt lat="50.05281" lon="2.16929">
        <ele>48.1</ele>
        <time>2023-10-04T14:36:45Z</time>
      </trkpt>
      <trkpt lat="50.05281" lon="2.16927">
        <ele>48.1</ele>
        <time>2023-10-04T14:36:46Z</time>
      </trkpt>
      <trkpt lat="50.05282" lon="2.16926">
        <ele>48.1</ele>
        <time>2023-10-04T14:36:47Z</time>
      </trkpt>
      <trkpt lat="50.05282" lon="2.16925">
        <ele>48.1</ele>
        <time>2023-10-04T14:36:48Z</time>
      </trkpt>
      <trkpt lat="50.05283" lon="2.16923">
        <ele>48.1</ele>
        <time>2023-10-04T14:36:49Z</time>
      </trkpt>
      <trkpt lat="50.05283" lon="2.16922">
        <ele>48.1</ele>
        <time>2023-10-04T14:36:50Z</time>
      </trkpt>
      <trkpt lat="50.05283" lon="2.16921">
        <ele>48.1</ele>
        <time>2023-10-04T14:36:51Z</time>
      </trkpt>
      <trkpt lat="50.05284" lon="2.1692">
        <ele>48.1</ele>
        <time>2023-10-04T14:36:52Z</time>
      </trkpt>
      <trkpt lat="50.05284" lon="2.16919">
        <ele>48.1</ele>
        <time>2023-10-04T14:36:53Z</time>
      </trkpt>
      <trkpt lat="50.05285" lon="2.16917">
        <ele>48.1</ele>
        <time>2023-10-04T14:36:54Z</time>
      </trkpt>
      <trkpt lat="50.05285" lon="2.16916">
        <ele>48.1</ele>
        <time>2023-10-04T14:36:55Z</time>
      </trkpt>
      <trkpt lat="50.05286" lon="2.16914">
        <ele>48.1</ele>
        <time>2023-10-04T14:36:56Z</time>
      </trkpt>
      <trkpt lat="50.05286" lon="2.16913">
        <ele>48.1</ele>
        <time>2023-10-04T14:36:57Z</time>
      </trkpt>
      <trkpt lat="50.05287" lon="2.16912">
        <ele>48.1</ele>
        <time>2023-10-04T14:36:58Z</time>
      </trkpt>
      <trkpt lat="50.05288" lon="2.1691">
        <ele>48.1</ele>
        <time>2023-10-04T14:36:59Z</time>
      </trkpt>
      <trkpt lat="50.05288" lon="2.16909">
        <ele>48.1</ele>
        <time>2023-10-04T14:37:00Z</time>
      </trkpt>
      <trkpt lat="50.05289" lon="2.16907">
        <ele>48.1</ele>
        <time>2023-10-04T14:37:01Z</time>
      </trkpt>
      <trkpt lat="50.05289" lon="2.16906">
        <ele>48.1</ele>
        <time>2023-10-04T14:37:02Z</time>
      </trkpt>
      <trkpt lat="50.0529" lon="2.16904">
        <ele>48.1</ele>
        <time>2023-10-04T14:37:03Z</time>
      </trkpt>
      <trkpt lat="50.0529" lon="2.16903">
        <ele>48.1</ele>
        <time>2023-10-04T14:37:04Z</time>
      </trkpt>
      <trkpt lat="50.05291" lon="2.16901">
        <ele>48.1</ele>
        <time>2023-10-04T14:37:05Z</time>
      </trkpt>
      <trkpt lat="50.05291" lon="2.169">
        <ele>48.1</ele>
        <time>2023-10-04T14:37:06Z</time>
      </trkpt>
      <trkpt lat="50.05292" lon="2.16898">
        <ele>48.1</ele>
        <time>2023-10-04T14:37:07Z</time>
      </trkpt>
      <trkpt lat="50.05292" lon="2.16897">
        <ele>48.1</ele>
        <time>2023-10-04T14:37:08Z</time>
      </trkpt>
      <trkpt lat="50.05292" lon="2.16895">
        <ele>48.1</ele>
        <time>2023-10-04T14:37:09Z</time>
      </trkpt>
      <trkpt lat="50.05293" lon="2.16894">
        <ele>48.1</ele>
        <time>2023-10-04T14:37:10Z</time>
      </trkpt>
      <trkpt lat="50.05293" lon="2.16892">
        <ele>48.1</ele>
        <time>2023-10-04T14:37:11Z</time>
      </trkpt>
      <trkpt lat="50.05293" lon="2.16891">
        <ele>48</ele>
        <time>2023-10-04T14:37:12Z</time>
      </trkpt>
      <trkpt lat="50.05294" lon="2.16889">
        <ele>48</ele>
        <time>2023-10-04T14:37:13Z</time>
      </trkpt>
      <trkpt lat="50.05295" lon="2.16888">
        <ele>48</ele>
        <time>2023-10-04T14:37:14Z</time>
      </trkpt>
      <trkpt lat="50.05295" lon="2.16886">
        <ele>48</ele>
        <time>2023-10-04T14:37:15Z</time>
      </trkpt>
      <trkpt lat="50.05296" lon="2.16884">
        <ele>48</ele>
        <time>2023-10-04T14:37:16Z</time>
      </trkpt>
      <trkpt lat="50.05296" lon="2.16883">
        <ele>47.9</ele>
        <time>2023-10-04T14:37:17Z</time>
      </trkpt>
      <trkpt lat="50.05297" lon="2.16882">
        <ele>47.9</ele>
        <time>2023-10-04T14:37:18Z</time>
      </trkpt>
      <trkpt lat="50.05297" lon="2.1688">
        <ele>47.9</ele>
        <time>2023-10-04T14:37:19Z</time>
      </trkpt>
      <trkpt lat="50.05297" lon="2.16879">
        <ele>47.9</ele>
        <time>2023-10-04T14:37:20Z</time>
      </trkpt>
      <trkpt lat="50.05298" lon="2.16877">
        <ele>47.9</ele>
        <time>2023-10-04T14:37:21Z</time>
      </trkpt>
      <trkpt lat="50.05298" lon="2.16876">
        <ele>47.8</ele>
        <time>2023-10-04T14:37:22Z</time>
      </trkpt>
      <trkpt lat="50.05299" lon="2.16874">
        <ele>47.8</ele>
        <time>2023-10-04T14:37:23Z</time>
      </trkpt>
      <trkpt lat="50.05299" lon="2.16873">
        <ele>47.8</ele>
        <time>2023-10-04T14:37:24Z</time>
      </trkpt>
      <trkpt lat="50.053" lon="2.16872">
        <ele>47.8</ele>
        <time>2023-10-04T14:37:25Z</time>
      </trkpt>
      <trkpt lat="50.053" lon="2.16871">
        <ele>47.7</ele>
        <time>2023-10-04T14:37:26Z</time>
      </trkpt>
      <trkpt lat="50.05301" lon="2.1687">
        <ele>47.7</ele>
        <time>2023-10-04T14:37:27Z</time>
      </trkpt>
      <trkpt lat="50.05301" lon="2.16868">
        <ele>47.7</ele>
        <time>2023-10-04T14:37:28Z</time>
      </trkpt>
      <trkpt lat="50.05301" lon="2.16867">
        <ele>47.7</ele>
        <time>2023-10-04T14:37:29Z</time>
      </trkpt>
      <trkpt lat="50.05302" lon="2.16866">
        <ele>47.7</ele>
        <time>2023-10-04T14:37:30Z</time>
      </trkpt>
      <trkpt lat="50.05302" lon="2.16864">
        <ele>47.6</ele>
        <time>2023-10-04T14:37:31Z</time>
      </trkpt>
      <trkpt lat="50.05303" lon="2.16863">
        <ele>47.6</ele>
        <time>2023-10-04T14:37:32Z</time>
      </trkpt>
      <trkpt lat="50.05303" lon="2.16862">
        <ele>47.6</ele>
        <time>2023-10-04T14:37:33Z</time>
      </trkpt>
      <trkpt lat="50.05303" lon="2.1686">
        <ele>47.5</ele>
        <time>2023-10-04T14:37:34Z</time>
      </trkpt>
      <trkpt lat="50.05304" lon="2.16859">
        <ele>47.5</ele>
        <time>2023-10-04T14:37:35Z</time>
      </trkpt>
      <trkpt lat="50.05304" lon="2.16858">
        <ele>47.5</ele>
        <time>2023-10-04T14:37:36Z</time>
      </trkpt>
      <trkpt lat="50.05305" lon="2.16856">
        <ele>47.4</ele>
        <time>2023-10-04T14:37:37Z</time>
      </trkpt>
      <trkpt lat="50.05305" lon="2.16855">
        <ele>47.4</ele>
        <time>2023-10-04T14:37:38Z</time>
      </trkpt>
      <trkpt lat="50.05306" lon="2.16854">
        <ele>47.4</ele>
        <time>2023-10-04T14:37:39Z</time>
      </trkpt>
      <trkpt lat="50.05306" lon="2.16852">
        <ele>47.3</ele>
        <time>2023-10-04T14:37:40Z</time>
      </trkpt>
      <trkpt lat="50.05307" lon="2.16851">
        <ele>47.3</ele>
        <time>2023-10-04T14:37:41Z</time>
      </trkpt>
      <trkpt lat="50.05307" lon="2.16849">
        <ele>47.3</ele>
        <time>2023-10-04T14:37:42Z</time>
      </trkpt>
      <trkpt lat="50.05307" lon="2.16848">
        <ele>47.2</ele>
        <time>2023-10-04T14:37:43Z</time>
      </trkpt>
      <trkpt lat="50.05308" lon="2.16846">
        <ele>47.2</ele>
        <time>2023-10-04T14:37:44Z</time>
      </trkpt>
      <trkpt lat="50.05308" lon="2.16845">
        <ele>47.2</ele>
        <time>2023-10-04T14:37:45Z</time>
      </trkpt>
      <trkpt lat="50.05309" lon="2.16843">
        <ele>47.1</ele>
        <time>2023-10-04T14:37:46Z</time>
      </trkpt>
      <trkpt lat="50.05309" lon="2.16842">
        <ele>47.1</ele>
        <time>2023-10-04T14:37:47Z</time>
      </trkpt>
      <trkpt lat="50.0531" lon="2.16841">
        <ele>47.1</ele>
        <time>2023-10-04T14:37:48Z</time>
      </trkpt>
      <trkpt lat="50.0531" lon="2.16839">
        <ele>47</ele>
        <time>2023-10-04T14:37:49Z</time>
      </trkpt>
      <trkpt lat="50.05311" lon="2.16838">
        <ele>47</ele>
        <time>2023-10-04T14:37:50Z</time>
      </trkpt>
      <trkpt lat="50.05311" lon="2.16836">
        <ele>47</ele>
        <time>2023-10-04T14:37:51Z</time>
      </trkpt>
      <trkpt lat="50.05312" lon="2.16835">
        <ele>46.9</ele>
        <time>2023-10-04T14:37:52Z</time>
      </trkpt>
      <trkpt lat="50.05312" lon="2.16833">
        <ele>46.9</ele>
        <time>2023-10-04T14:37:53Z</time>
      </trkpt>
      <trkpt lat="50.05313" lon="2.16832">
        <ele>46.9</ele>
        <time>2023-10-04T14:37:54Z</time>
      </trkpt>
      <trkpt lat="50.05313" lon="2.1683">
        <ele>46.9</ele>
        <time>2023-10-04T14:37:55Z</time>
      </trkpt>
      <trkpt lat="50.05314" lon="2.16829">
        <ele>46.8</ele>
        <time>2023-10-04T14:37:56Z</time>
      </trkpt>
      <trkpt lat="50.05314" lon="2.16827">
        <ele>46.8</ele>
        <time>2023-10-04T14:37:57Z</time>
      </trkpt>
      <trkpt lat="50.05315" lon="2.16826">
        <ele>46.8</ele>
        <time>2023-10-04T14:37:58Z</time>
      </trkpt>
      <trkpt lat="50.05315" lon="2.16825">
        <ele>46.8</ele>
        <time>2023-10-04T14:37:59Z</time>
      </trkpt>
      <trkpt lat="50.05316" lon="2.16823">
        <ele>46.7</ele>
        <time>2023-10-04T14:38:00Z</time>
      </trkpt>
      <trkpt lat="50.05316" lon="2.16821">
        <ele>46.7</ele>
        <time>2023-10-04T14:38:01Z</time>
      </trkpt>
      <trkpt lat="50.05317" lon="2.16818">
        <ele>46.7</ele>
        <time>2023-10-04T14:38:02Z</time>
      </trkpt>
      <trkpt lat="50.05318" lon="2.16817">
        <ele>46.7</ele>
        <time>2023-10-04T14:38:03Z</time>
      </trkpt>
      <trkpt lat="50.05318" lon="2.16816">
        <ele>46.7</ele>
        <time>2023-10-04T14:38:04Z</time>
      </trkpt>
      <trkpt lat="50.05319" lon="2.16814">
        <ele>46.7</ele>
        <time>2023-10-04T14:38:05Z</time>
      </trkpt>
      <trkpt lat="50.05319" lon="2.16813">
        <ele>46.6</ele>
        <time>2023-10-04T14:38:06Z</time>
      </trkpt>
      <trkpt lat="50.0532" lon="2.16811">
        <ele>46.6</ele>
        <time>2023-10-04T14:38:07Z</time>
      </trkpt>
      <trkpt lat="50.05321" lon="2.16808">
        <ele>46.6</ele>
        <time>2023-10-04T14:38:08Z</time>
      </trkpt>
      <trkpt lat="50.05321" lon="2.16807">
        <ele>46.6</ele>
        <time>2023-10-04T14:38:09Z</time>
      </trkpt>
      <trkpt lat="50.05322" lon="2.16805">
        <ele>46.6</ele>
        <time>2023-10-04T14:38:10Z</time>
      </trkpt>
      <trkpt lat="50.05322" lon="2.16804">
        <ele>46.6</ele>
        <time>2023-10-04T14:38:11Z</time>
      </trkpt>
      <trkpt lat="50.05323" lon="2.16802">
        <ele>46.6</ele>
        <time>2023-10-04T14:38:12Z</time>
      </trkpt>
      <trkpt lat="50.05323" lon="2.168">
        <ele>46.6</ele>
        <time>2023-10-04T14:38:13Z</time>
      </trkpt>
      <trkpt lat="50.05324" lon="2.16798">
        <ele>46.6</ele>
        <time>2023-10-04T14:38:14Z</time>
      </trkpt>
      <trkpt lat="50.05324" lon="2.16796">
        <ele>46.6</ele>
        <time>2023-10-04T14:38:15Z</time>
      </trkpt>
      <trkpt lat="50.05325" lon="2.16794">
        <ele>46.6</ele>
        <time>2023-10-04T14:38:16Z</time>
      </trkpt>
      <trkpt lat="50.05325" lon="2.16793">
        <ele>46.6</ele>
        <time>2023-10-04T14:38:17Z</time>
      </trkpt>
      <trkpt lat="50.05325" lon="2.16791">
        <ele>46.6</ele>
        <time>2023-10-04T14:38:18Z</time>
      </trkpt>
      <trkpt lat="50.05326" lon="2.1679">
        <ele>46.7</ele>
        <time>2023-10-04T14:38:19Z</time>
      </trkpt>
      <trkpt lat="50.05326" lon="2.16788">
        <ele>46.7</ele>
        <time>2023-10-04T14:38:20Z</time>
      </trkpt>
      <trkpt lat="50.05326" lon="2.16787">
        <ele>46.7</ele>
        <time>2023-10-04T14:38:21Z</time>
      </trkpt>
      <trkpt lat="50.05327" lon="2.16785">
        <ele>46.7</ele>
        <time>2023-10-04T14:38:22Z</time>
      </trkpt>
      <trkpt lat="50.05327" lon="2.16784">
        <ele>46.7</ele>
        <time>2023-10-04T14:38:23Z</time>
      </trkpt>
      <trkpt lat="50.05327" lon="2.16783">
        <ele>46.7</ele>
        <time>2023-10-04T14:38:24Z</time>
      </trkpt>
      <trkpt lat="50.05328" lon="2.16781">
        <ele>46.8</ele>
        <time>2023-10-04T14:38:25Z</time>
      </trkpt>
      <trkpt lat="50.05328" lon="2.1678">
        <ele>46.8</ele>
        <time>2023-10-04T14:38:26Z</time>
      </trkpt>
      <trkpt lat="50.05328" lon="2.16779">
        <ele>46.8</ele>
        <time>2023-10-04T14:38:27Z</time>
      </trkpt>
      <trkpt lat="50.05329" lon="2.16777">
        <ele>46.8</ele>
        <time>2023-10-04T14:38:28Z</time>
      </trkpt>
      <trkpt lat="50.05329" lon="2.16776">
        <ele>46.8</ele>
        <time>2023-10-04T14:38:29Z</time>
      </trkpt>
      <trkpt lat="50.05329" lon="2.16775">
        <ele>46.9</ele>
        <time>2023-10-04T14:38:30Z</time>
      </trkpt>
      <trkpt lat="50.0533" lon="2.16774">
        <ele>46.9</ele>
        <time>2023-10-04T14:38:31Z</time>
      </trkpt>
      <trkpt lat="50.0533" lon="2.16772">
        <ele>46.9</ele>
        <time>2023-10-04T14:38:32Z</time>
      </trkpt>
      <trkpt lat="50.0533" lon="2.1677">
        <ele>46.9</ele>
        <time>2023-10-04T14:38:33Z</time>
      </trkpt>
      <trkpt lat="50.05331" lon="2.16769">
        <ele>47</ele>
        <time>2023-10-04T14:38:34Z</time>
      </trkpt>
      <trkpt lat="50.05331" lon="2.16767">
        <ele>47</ele>
        <time>2023-10-04T14:38:35Z</time>
      </trkpt>
      <trkpt lat="50.05331" lon="2.16766">
        <ele>47</ele>
        <time>2023-10-04T14:38:36Z</time>
      </trkpt>
      <trkpt lat="50.05331" lon="2.16764">
        <ele>47.1</ele>
        <time>2023-10-04T14:38:37Z</time>
      </trkpt>
      <trkpt lat="50.05332" lon="2.16763">
        <ele>47.1</ele>
        <time>2023-10-04T14:38:38Z</time>
      </trkpt>
      <trkpt lat="50.05332" lon="2.16761">
        <ele>47.2</ele>
        <time>2023-10-04T14:38:39Z</time>
      </trkpt>
      <trkpt lat="50.05332" lon="2.16759">
        <ele>47.2</ele>
        <time>2023-10-04T14:38:40Z</time>
      </trkpt>
      <trkpt lat="50.05333" lon="2.16757">
        <ele>47.3</ele>
        <time>2023-10-04T14:38:41Z</time>
      </trkpt>
      <trkpt lat="50.05333" lon="2.16755">
        <ele>47.3</ele>
        <time>2023-10-04T14:38:42Z</time>
      </trkpt>
      <trkpt lat="50.05333" lon="2.16754">
        <ele>47.4</ele>
        <time>2023-10-04T14:38:43Z</time>
      </trkpt>
      <trkpt lat="50.05334" lon="2.16752">
        <ele>47.4</ele>
        <time>2023-10-04T14:38:44Z</time>
      </trkpt>
      <trkpt lat="50.05334" lon="2.16751">
        <ele>47.5</ele>
        <time>2023-10-04T14:38:45Z</time>
      </trkpt>
      <trkpt lat="50.05334" lon="2.16749">
        <ele>47.5</ele>
        <time>2023-10-04T14:38:46Z</time>
      </trkpt>
      <trkpt lat="50.05334" lon="2.16748">
        <ele>47.5</ele>
        <time>2023-10-04T14:38:47Z</time>
      </trkpt>
      <trkpt lat="50.05335" lon="2.16746">
        <ele>47.6</ele>
        <time>2023-10-04T14:38:48Z</time>
      </trkpt>
      <trkpt lat="50.05335" lon="2.16745">
        <ele>47.6</ele>
        <time>2023-10-04T14:38:49Z</time>
      </trkpt>
      <trkpt lat="50.05335" lon="2.16743">
        <ele>47.7</ele>
        <time>2023-10-04T14:38:50Z</time>
      </trkpt>
      <trkpt lat="50.05336" lon="2.16742">
        <ele>47.7</ele>
        <time>2023-10-04T14:38:51Z</time>
      </trkpt>
      <trkpt lat="50.05336" lon="2.1674">
        <ele>47.8</ele>
        <time>2023-10-04T14:38:52Z</time>
      </trkpt>
      <trkpt lat="50.05336" lon="2.16738">
        <ele>47.9</ele>
        <time>2023-10-04T14:38:53Z</time>
      </trkpt>
      <trkpt lat="50.05336" lon="2.16737">
        <ele>47.9</ele>
        <time>2023-10-04T14:38:54Z</time>
      </trkpt>
      <trkpt lat="50.05337" lon="2.16735">
        <ele>48</ele>
        <time>2023-10-04T14:38:55Z</time>
      </trkpt>
      <trkpt lat="50.05337" lon="2.16734">
        <ele>48</ele>
        <time>2023-10-04T14:38:56Z</time>
      </trkpt>
      <trkpt lat="50.05337" lon="2.16732">
        <ele>48.1</ele>
        <time>2023-10-04T14:38:57Z</time>
      </trkpt>
      <trkpt lat="50.05338" lon="2.1673">
        <ele>48.1</ele>
        <time>2023-10-04T14:38:58Z</time>
      </trkpt>
      <trkpt lat="50.05338" lon="2.16729">
        <ele>48.2</ele>
        <time>2023-10-04T14:38:59Z</time>
      </trkpt>
      <trkpt lat="50.05338" lon="2.16727">
        <ele>48.2</ele>
        <time>2023-10-04T14:39:00Z</time>
      </trkpt>
      <trkpt lat="50.05338" lon="2.16726">
        <ele>48.3</ele>
        <time>2023-10-04T14:39:01Z</time>
      </trkpt>
      <trkpt lat="50.05339" lon="2.16724">
        <ele>48.3</ele>
        <time>2023-10-04T14:39:02Z</time>
      </trkpt>
      <trkpt lat="50.05339" lon="2.16723">
        <ele>48.4</ele>
        <time>2023-10-04T14:39:03Z</time>
      </trkpt>
      <trkpt lat="50.05339" lon="2.16721">
        <ele>48.4</ele>
        <time>2023-10-04T14:39:04Z</time>
      </trkpt>
      <trkpt lat="50.05339" lon="2.16719">
        <ele>48.5</ele>
        <time>2023-10-04T14:39:05Z</time>
      </trkpt>
      <trkpt lat="50.05339" lon="2.16718">
        <ele>48.5</ele>
        <time>2023-10-04T14:39:06Z</time>
      </trkpt>
      <trkpt lat="50.0534" lon="2.16716">
        <ele>48.6</ele>
        <time>2023-10-04T14:39:07Z</time>
      </trkpt>
      <trkpt lat="50.0534" lon="2.16715">
        <ele>48.6</ele>
        <time>2023-10-04T14:39:08Z</time>
      </trkpt>
      <trkpt lat="50.0534" lon="2.16713">
        <ele>48.7</ele>
        <time>2023-10-04T14:39:09Z</time>
      </trkpt>
      <trkpt lat="50.0534" lon="2.16712">
        <ele>48.7</ele>
        <time>2023-10-04T14:39:10Z</time>
      </trkpt>
      <trkpt lat="50.05341" lon="2.1671">
        <ele>48.8</ele>
        <time>2023-10-04T14:39:11Z</time>
      </trkpt>
      <trkpt lat="50.05341" lon="2.16708">
        <ele>48.9</ele>
        <time>2023-10-04T14:39:12Z</time>
      </trkpt>
      <trkpt lat="50.05341" lon="2.16707">
        <ele>48.9</ele>
        <time>2023-10-04T14:39:13Z</time>
      </trkpt>
      <trkpt lat="50.05342" lon="2.16705">
        <ele>49</ele>
        <time>2023-10-04T14:39:14Z</time>
      </trkpt>
      <trkpt lat="50.05342" lon="2.16704">
        <ele>49</ele>
        <time>2023-10-04T14:39:15Z</time>
      </trkpt>
      <trkpt lat="50.05342" lon="2.16702">
        <ele>49.1</ele>
        <time>2023-10-04T14:39:16Z</time>
      </trkpt>
      <trkpt lat="50.05342" lon="2.16701">
        <ele>49.1</ele>
        <time>2023-10-04T14:39:17Z</time>
      </trkpt>
      <trkpt lat="50.05342" lon="2.16699">
        <ele>49.2</ele>
        <time>2023-10-04T14:39:18Z</time>
      </trkpt>
      <trkpt lat="50.05343" lon="2.16697">
        <ele>49.2</ele>
        <time>2023-10-04T14:39:19Z</time>
      </trkpt>
      <trkpt lat="50.05343" lon="2.16696">
        <ele>49.3</ele>
        <time>2023-10-04T14:39:20Z</time>
      </trkpt>
      <trkpt lat="50.05343" lon="2.16695">
        <ele>49.3</ele>
        <time>2023-10-04T14:39:21Z</time>
      </trkpt>
      <trkpt lat="50.05343" lon="2.16693">
        <ele>49.4</ele>
        <time>2023-10-04T14:39:22Z</time>
      </trkpt>
      <trkpt lat="50.05343" lon="2.16691">
        <ele>49.4</ele>
        <time>2023-10-04T14:39:23Z</time>
      </trkpt>
      <trkpt lat="50.05344" lon="2.1669">
        <ele>49.5</ele>
        <time>2023-10-04T14:39:24Z</time>
      </trkpt>
      <trkpt lat="50.05344" lon="2.16688">
        <ele>49.6</ele>
        <time>2023-10-04T14:39:25Z</time>
      </trkpt>
      <trkpt lat="50.05344" lon="2.16686">
        <ele>49.6</ele>
        <time>2023-10-04T14:39:26Z</time>
      </trkpt>
      <trkpt lat="50.05344" lon="2.16685">
        <ele>49.7</ele>
        <time>2023-10-04T14:39:27Z</time>
      </trkpt>
      <trkpt lat="50.05344" lon="2.16683">
        <ele>49.7</ele>
        <time>2023-10-04T14:39:28Z</time>
      </trkpt>
      <trkpt lat="50.05345" lon="2.16681">
        <ele>49.8</ele>
        <time>2023-10-04T14:39:29Z</time>
      </trkpt>
      <trkpt lat="50.05345" lon="2.1668">
        <ele>49.8</ele>
        <time>2023-10-04T14:39:30Z</time>
      </trkpt>
      <trkpt lat="50.05345" lon="2.16679">
        <ele>49.8</ele>
        <time>2023-10-04T14:39:31Z</time>
      </trkpt>
      <trkpt lat="50.05346" lon="2.16678">
        <ele>49.9</ele>
        <time>2023-10-04T14:39:32Z</time>
      </trkpt>
      <trkpt lat="50.05346" lon="2.16676">
        <ele>49.9</ele>
        <time>2023-10-04T14:39:33Z</time>
      </trkpt>
      <trkpt lat="50.05346" lon="2.16675">
        <ele>50</ele>
        <time>2023-10-04T14:39:34Z</time>
      </trkpt>
      <trkpt lat="50.05347" lon="2.16673">
        <ele>50</ele>
        <time>2023-10-04T14:39:35Z</time>
      </trkpt>
      <trkpt lat="50.05347" lon="2.16671">
        <ele>50.1</ele>
        <time>2023-10-04T14:39:36Z</time>
      </trkpt>
      <trkpt lat="50.05347" lon="2.1667">
        <ele>50.1</ele>
        <time>2023-10-04T14:39:37Z</time>
      </trkpt>
      <trkpt lat="50.05348" lon="2.16668">
        <ele>50.2</ele>
        <time>2023-10-04T14:39:38Z</time>
      </trkpt>
      <trkpt lat="50.05348" lon="2.16667">
        <ele>50.2</ele>
        <time>2023-10-04T14:39:39Z</time>
      </trkpt>
      <trkpt lat="50.05348" lon="2.16665">
        <ele>50.3</ele>
        <time>2023-10-04T14:39:40Z</time>
      </trkpt>
      <trkpt lat="50.05349" lon="2.16663">
        <ele>50.4</ele>
        <time>2023-10-04T14:39:41Z</time>
      </trkpt>
      <trkpt lat="50.05349" lon="2.16662">
        <ele>50.4</ele>
        <time>2023-10-04T14:39:42Z</time>
      </trkpt>
      <trkpt lat="50.0535" lon="2.1666">
        <ele>50.4</ele>
        <time>2023-10-04T14:39:43Z</time>
      </trkpt>
      <trkpt lat="50.0535" lon="2.16659">
        <ele>50.5</ele>
        <time>2023-10-04T14:39:44Z</time>
      </trkpt>
      <trkpt lat="50.0535" lon="2.16657">
        <ele>50.5</ele>
        <time>2023-10-04T14:39:45Z</time>
      </trkpt>
      <trkpt lat="50.0535" lon="2.16656">
        <ele>50.6</ele>
        <time>2023-10-04T14:39:46Z</time>
      </trkpt>
      <trkpt lat="50.0535" lon="2.16654">
        <ele>50.6</ele>
        <time>2023-10-04T14:39:47Z</time>
      </trkpt>
      <trkpt lat="50.0535" lon="2.16653">
        <ele>50.7</ele>
        <time>2023-10-04T14:39:48Z</time>
      </trkpt>
      <trkpt lat="50.0535" lon="2.16652">
        <ele>50.7</ele>
        <time>2023-10-04T14:39:49Z</time>
      </trkpt>
      <trkpt lat="50.0535" lon="2.1665">
        <ele>50.7</ele>
        <time>2023-10-04T14:39:50Z</time>
      </trkpt>
      <trkpt lat="50.05351" lon="2.16648">
        <ele>50.8</ele>
        <time>2023-10-04T14:39:51Z</time>
      </trkpt>
      <trkpt lat="50.05351" lon="2.16647">
        <ele>50.8</ele>
        <time>2023-10-04T14:39:52Z</time>
      </trkpt>
      <trkpt lat="50.05351" lon="2.16645">
        <ele>50.9</ele>
        <time>2023-10-04T14:39:53Z</time>
      </trkpt>
      <trkpt lat="50.05352" lon="2.16643">
        <ele>50.9</ele>
        <time>2023-10-04T14:39:54Z</time>
      </trkpt>
      <trkpt lat="50.05352" lon="2.16642">
        <ele>50.9</ele>
        <time>2023-10-04T14:39:55Z</time>
      </trkpt>
      <trkpt lat="50.05352" lon="2.16641">
        <ele>51</ele>
        <time>2023-10-04T14:39:56Z</time>
      </trkpt>
      <trkpt lat="50.05352" lon="2.16639">
        <ele>51</ele>
        <time>2023-10-04T14:39:57Z</time>
      </trkpt>
      <trkpt lat="50.05352" lon="2.16638">
        <ele>51</ele>
        <time>2023-10-04T14:39:58Z</time>
      </trkpt>
      <trkpt lat="50.05352" lon="2.16636">
        <ele>51.1</ele>
        <time>2023-10-04T14:39:59Z</time>
      </trkpt>
      <trkpt lat="50.05353" lon="2.16634">
        <ele>51.1</ele>
        <time>2023-10-04T14:40:00Z</time>
      </trkpt>
      <trkpt lat="50.05353" lon="2.16632">
        <ele>51.1</ele>
        <time>2023-10-04T14:40:01Z</time>
      </trkpt>
      <trkpt lat="50.05353" lon="2.16631">
        <ele>51.2</ele>
        <time>2023-10-04T14:40:02Z</time>
      </trkpt>
      <trkpt lat="50.05353" lon="2.1663">
        <ele>51.2</ele>
        <time>2023-10-04T14:40:03Z</time>
      </trkpt>
      <trkpt lat="50.05353" lon="2.16628">
        <ele>51.2</ele>
        <time>2023-10-04T14:40:04Z</time>
      </trkpt>
      <trkpt lat="50.05354" lon="2.16626">
        <ele>51.2</ele>
        <time>2023-10-04T14:40:05Z</time>
      </trkpt>
      <trkpt lat="50.05354" lon="2.16624">
        <ele>51.3</ele>
        <time>2023-10-04T14:40:06Z</time>
      </trkpt>
      <trkpt lat="50.05354" lon="2.16622">
        <ele>51.3</ele>
        <time>2023-10-04T14:40:07Z</time>
      </trkpt>
      <trkpt lat="50.05354" lon="2.16621">
        <ele>51.4</ele>
        <time>2023-10-04T14:40:08Z</time>
      </trkpt>
      <trkpt lat="50.05354" lon="2.16618">
        <ele>51.4</ele>
        <time>2023-10-04T14:40:09Z</time>
      </trkpt>
      <trkpt lat="50.05355" lon="2.16617">
        <ele>51.4</ele>
        <time>2023-10-04T14:40:10Z</time>
      </trkpt>
      <trkpt lat="50.05355" lon="2.16616">
        <ele>51.4</ele>
        <time>2023-10-04T14:40:11Z</time>
      </trkpt>
      <trkpt lat="50.05355" lon="2.16615">
        <ele>51.5</ele>
        <time>2023-10-04T14:40:12Z</time>
      </trkpt>
      <trkpt lat="50.05355" lon="2.16614">
        <ele>51.5</ele>
        <time>2023-10-04T14:40:13Z</time>
      </trkpt>
      <trkpt lat="50.05356" lon="2.16612">
        <ele>51.5</ele>
        <time>2023-10-04T14:40:14Z</time>
      </trkpt>
      <trkpt lat="50.05356" lon="2.1661">
        <ele>51.5</ele>
        <time>2023-10-04T14:40:15Z</time>
      </trkpt>
      <trkpt lat="50.05356" lon="2.16609">
        <ele>51.6</ele>
        <time>2023-10-04T14:40:16Z</time>
      </trkpt>
      <trkpt lat="50.05356" lon="2.16607">
        <ele>51.6</ele>
        <time>2023-10-04T14:40:17Z</time>
      </trkpt>
      <trkpt lat="50.05356" lon="2.16606">
        <ele>51.6</ele>
        <time>2023-10-04T14:40:18Z</time>
      </trkpt>
      <trkpt lat="50.05356" lon="2.16604">
        <ele>51.6</ele>
        <time>2023-10-04T14:40:19Z</time>
      </trkpt>
      <trkpt lat="50.05356" lon="2.16602">
        <ele>51.7</ele>
        <time>2023-10-04T14:40:20Z</time>
      </trkpt>
      <trkpt lat="50.05357" lon="2.16601">
        <ele>51.7</ele>
        <time>2023-10-04T14:40:21Z</time>
      </trkpt>
      <trkpt lat="50.05357" lon="2.16599">
        <ele>51.7</ele>
        <time>2023-10-04T14:40:22Z</time>
      </trkpt>
      <trkpt lat="50.05357" lon="2.16597">
        <ele>51.7</ele>
        <time>2023-10-04T14:40:23Z</time>
      </trkpt>
      <trkpt lat="50.05357" lon="2.16596">
        <ele>51.7</ele>
        <time>2023-10-04T14:40:24Z</time>
      </trkpt>
      <trkpt lat="50.05357" lon="2.16593">
        <ele>51.8</ele>
        <time>2023-10-04T14:40:25Z</time>
      </trkpt>
      <trkpt lat="50.05357" lon="2.16592">
        <ele>51.8</ele>
        <time>2023-10-04T14:40:26Z</time>
      </trkpt>
      <trkpt lat="50.05357" lon="2.16591">
        <ele>51.8</ele>
        <time>2023-10-04T14:40:27Z</time>
      </trkpt>
      <trkpt lat="50.05358" lon="2.1659">
        <ele>51.8</ele>
        <time>2023-10-04T14:40:28Z</time>
      </trkpt>
      <trkpt lat="50.05358" lon="2.16588">
        <ele>51.8</ele>
        <time>2023-10-04T14:40:29Z</time>
      </trkpt>
      <trkpt lat="50.05358" lon="2.16587">
        <ele>51.8</ele>
        <time>2023-10-04T14:40:30Z</time>
      </trkpt>
      <trkpt lat="50.05358" lon="2.16585">
        <ele>51.8</ele>
        <time>2023-10-04T14:40:31Z</time>
      </trkpt>
      <trkpt lat="50.05358" lon="2.16584">
        <ele>51.9</ele>
        <time>2023-10-04T14:40:32Z</time>
      </trkpt>
      <trkpt lat="50.05358" lon="2.16582">
        <ele>51.9</ele>
        <time>2023-10-04T14:40:33Z</time>
      </trkpt>
      <trkpt lat="50.05358" lon="2.16581">
        <ele>51.9</ele>
        <time>2023-10-04T14:40:34Z</time>
      </trkpt>
      <trkpt lat="50.05358" lon="2.16579">
        <ele>51.9</ele>
        <time>2023-10-04T14:40:35Z</time>
      </trkpt>
      <trkpt lat="50.05358" lon="2.16577">
        <ele>51.9</ele>
        <time>2023-10-04T14:40:36Z</time>
      </trkpt>
      <trkpt lat="50.05358" lon="2.16576">
        <ele>51.9</ele>
        <time>2023-10-04T14:40:37Z</time>
      </trkpt>
      <trkpt lat="50.05358" lon="2.16574">
        <ele>51.9</ele>
        <time>2023-10-04T14:40:38Z</time>
      </trkpt>
      <trkpt lat="50.05358" lon="2.16572">
        <ele>51.9</ele>
        <time>2023-10-04T14:40:39Z</time>
      </trkpt>
      <trkpt lat="50.05359" lon="2.1657">
        <ele>51.9</ele>
        <time>2023-10-04T14:40:40Z</time>
      </trkpt>
      <trkpt lat="50.05359" lon="2.16569">
        <ele>51.9</ele>
        <time>2023-10-04T14:40:41Z</time>
      </trkpt>
      <trkpt lat="50.05359" lon="2.16567">
        <ele>51.9</ele>
        <time>2023-10-04T14:40:42Z</time>
      </trkpt>
      <trkpt lat="50.05359" lon="2.16565">
        <ele>51.9</ele>
        <time>2023-10-04T14:40:43Z</time>
      </trkpt>
      <trkpt lat="50.05359" lon="2.16562">
        <ele>51.9</ele>
        <time>2023-10-04T14:40:44Z</time>
      </trkpt>
      <trkpt lat="50.05359" lon="2.16561">
        <ele>51.9</ele>
        <time>2023-10-04T14:40:45Z</time>
      </trkpt>
      <trkpt lat="50.0536" lon="2.1656">
        <ele>51.9</ele>
        <time>2023-10-04T14:40:46Z</time>
      </trkpt>
      <trkpt lat="50.0536" lon="2.16556">
        <ele>51.9</ele>
        <time>2023-10-04T14:40:47Z</time>
      </trkpt>
      <trkpt lat="50.0536" lon="2.16555">
        <ele>52</ele>
        <time>2023-10-04T14:40:48Z</time>
      </trkpt>
      <trkpt lat="50.0536" lon="2.16554">
        <ele>52</ele>
        <time>2023-10-04T14:40:49Z</time>
      </trkpt>
      <trkpt lat="50.05361" lon="2.16552">
        <ele>52</ele>
        <time>2023-10-04T14:40:50Z</time>
      </trkpt>
      <trkpt lat="50.05361" lon="2.1655">
        <ele>52</ele>
        <time>2023-10-04T14:40:51Z</time>
      </trkpt>
      <trkpt lat="50.05361" lon="2.16549">
        <ele>52</ele>
        <time>2023-10-04T14:40:52Z</time>
      </trkpt>
      <trkpt lat="50.05361" lon="2.16547">
        <ele>52</ele>
        <time>2023-10-04T14:40:53Z</time>
      </trkpt>
      <trkpt lat="50.05361" lon="2.16546">
        <ele>52</ele>
        <time>2023-10-04T14:40:54Z</time>
      </trkpt>
      <trkpt lat="50.05361" lon="2.16544">
        <ele>52</ele>
        <time>2023-10-04T14:40:55Z</time>
      </trkpt>
      <trkpt lat="50.05362" lon="2.16543">
        <ele>52</ele>
        <time>2023-10-04T14:40:56Z</time>
      </trkpt>
      <trkpt lat="50.05362" lon="2.16541">
        <ele>52.1</ele>
        <time>2023-10-04T14:40:57Z</time>
      </trkpt>
      <trkpt lat="50.05362" lon="2.16539">
        <ele>52.1</ele>
        <time>2023-10-04T14:40:58Z</time>
      </trkpt>
      <trkpt lat="50.05362" lon="2.16538">
        <ele>52.1</ele>
        <time>2023-10-04T14:40:59Z</time>
      </trkpt>
      <trkpt lat="50.05362" lon="2.16537">
        <ele>52.1</ele>
        <time>2023-10-04T14:41:00Z</time>
      </trkpt>
      <trkpt lat="50.05362" lon="2.16535">
        <ele>52.1</ele>
        <time>2023-10-04T14:41:01Z</time>
      </trkpt>
      <trkpt lat="50.05362" lon="2.16534">
        <ele>52.1</ele>
        <time>2023-10-04T14:41:02Z</time>
      </trkpt>
      <trkpt lat="50.05362" lon="2.16532">
        <ele>52.1</ele>
        <time>2023-10-04T14:41:03Z</time>
      </trkpt>
      <trkpt lat="50.05362" lon="2.16531">
        <ele>52.1</ele>
        <time>2023-10-04T14:41:04Z</time>
      </trkpt>
      <trkpt lat="50.05363" lon="2.16529">
        <ele>52.2</ele>
        <time>2023-10-04T14:41:05Z</time>
      </trkpt>
      <trkpt lat="50.05363" lon="2.16528">
        <ele>52.2</ele>
        <time>2023-10-04T14:41:06Z</time>
      </trkpt>
      <trkpt lat="50.05363" lon="2.16526">
        <ele>52.2</ele>
        <time>2023-10-04T14:41:07Z</time>
      </trkpt>
      <trkpt lat="50.05363" lon="2.16524">
        <ele>52.2</ele>
        <time>2023-10-04T14:41:08Z</time>
      </trkpt>
      <trkpt lat="50.05363" lon="2.16523">
        <ele>52.2</ele>
        <time>2023-10-04T14:41:09Z</time>
      </trkpt>
      <trkpt lat="50.05363" lon="2.16521">
        <ele>52.2</ele>
        <time>2023-10-04T14:41:10Z</time>
      </trkpt>
      <trkpt lat="50.05363" lon="2.1652">
        <ele>52.3</ele>
        <time>2023-10-04T14:41:11Z</time>
      </trkpt>
      <trkpt lat="50.05363" lon="2.16518">
        <ele>52.3</ele>
        <time>2023-10-04T14:41:12Z</time>
      </trkpt>
      <trkpt lat="50.05364" lon="2.16517">
        <ele>52.3</ele>
        <time>2023-10-04T14:41:13Z</time>
      </trkpt>
      <trkpt lat="50.05364" lon="2.16516">
        <ele>52.3</ele>
        <time>2023-10-04T14:41:14Z</time>
      </trkpt>
      <trkpt lat="50.05364" lon="2.16514">
        <ele>52.3</ele>
        <time>2023-10-04T14:41:15Z</time>
      </trkpt>
      <trkpt lat="50.05364" lon="2.16513">
        <ele>52.3</ele>
        <time>2023-10-04T14:41:16Z</time>
      </trkpt>
      <trkpt lat="50.05364" lon="2.16511">
        <ele>52.4</ele>
        <time>2023-10-04T14:41:17Z</time>
      </trkpt>
      <trkpt lat="50.05365" lon="2.16509">
        <ele>52.4</ele>
        <time>2023-10-04T14:41:18Z</time>
      </trkpt>
      <trkpt lat="50.05365" lon="2.16508">
        <ele>52.4</ele>
        <time>2023-10-04T14:41:19Z</time>
      </trkpt>
      <trkpt lat="50.05365" lon="2.16506">
        <ele>52.4</ele>
        <time>2023-10-04T14:41:20Z</time>
      </trkpt>
      <trkpt lat="50.05365" lon="2.16505">
        <ele>52.4</ele>
        <time>2023-10-04T14:41:21Z</time>
      </trkpt>
      <trkpt lat="50.05365" lon="2.16503">
        <ele>52.4</ele>
        <time>2023-10-04T14:41:22Z</time>
      </trkpt>
      <trkpt lat="50.05366" lon="2.16502">
        <ele>52.5</ele>
        <time>2023-10-04T14:41:23Z</time>
      </trkpt>
      <trkpt lat="50.05366" lon="2.165">
        <ele>52.5</ele>
        <time>2023-10-04T14:41:24Z</time>
      </trkpt>
      <trkpt lat="50.05366" lon="2.16499">
        <ele>52.5</ele>
        <time>2023-10-04T14:41:25Z</time>
      </trkpt>
      <trkpt lat="50.05367" lon="2.16498">
        <ele>52.5</ele>
        <time>2023-10-04T14:41:26Z</time>
      </trkpt>
      <trkpt lat="50.05367" lon="2.16496">
        <ele>52.5</ele>
        <time>2023-10-04T14:41:27Z</time>
      </trkpt>
      <trkpt lat="50.05367" lon="2.16495">
        <ele>52.6</ele>
        <time>2023-10-04T14:41:28Z</time>
      </trkpt>
      <trkpt lat="50.05368" lon="2.16493">
        <ele>52.6</ele>
        <time>2023-10-04T14:41:29Z</time>
      </trkpt>
      <trkpt lat="50.05368" lon="2.16492">
        <ele>52.6</ele>
        <time>2023-10-04T14:41:30Z</time>
      </trkpt>
      <trkpt lat="50.05369" lon="2.16491">
        <ele>52.6</ele>
        <time>2023-10-04T14:41:31Z</time>
      </trkpt>
      <trkpt lat="50.05369" lon="2.1649">
        <ele>52.6</ele>
        <time>2023-10-04T14:41:32Z</time>
      </trkpt>
      <trkpt lat="50.0537" lon="2.16488">
        <ele>52.7</ele>
        <time>2023-10-04T14:41:33Z</time>
      </trkpt>
      <trkpt lat="50.0537" lon="2.16487">
        <ele>52.7</ele>
        <time>2023-10-04T14:41:34Z</time>
      </trkpt>
      <trkpt lat="50.0537" lon="2.16486">
        <ele>52.7</ele>
        <time>2023-10-04T14:41:35Z</time>
      </trkpt>
      <trkpt lat="50.0537" lon="2.16484">
        <ele>52.7</ele>
        <time>2023-10-04T14:41:36Z</time>
      </trkpt>
      <trkpt lat="50.0537" lon="2.16483">
        <ele>52.7</ele>
        <time>2023-10-04T14:41:37Z</time>
      </trkpt>
      <trkpt lat="50.05371" lon="2.16482">
        <ele>52.7</ele>
        <time>2023-10-04T14:41:38Z</time>
      </trkpt>
      <trkpt lat="50.05371" lon="2.1648">
        <ele>52.8</ele>
        <time>2023-10-04T14:41:39Z</time>
      </trkpt>
      <trkpt lat="50.05371" lon="2.16479">
        <ele>52.8</ele>
        <time>2023-10-04T14:41:40Z</time>
      </trkpt>
      <trkpt lat="50.05371" lon="2.16477">
        <ele>52.8</ele>
        <time>2023-10-04T14:41:41Z</time>
      </trkpt>
      <trkpt lat="50.05371" lon="2.16476">
        <ele>52.8</ele>
        <time>2023-10-04T14:41:42Z</time>
      </trkpt>
      <trkpt lat="50.05372" lon="2.16475">
        <ele>52.8</ele>
        <time>2023-10-04T14:41:43Z</time>
      </trkpt>
      <trkpt lat="50.05372" lon="2.16474">
        <ele>52.9</ele>
        <time>2023-10-04T14:41:44Z</time>
      </trkpt>
      <trkpt lat="50.05371" lon="2.16472">
        <ele>52.9</ele>
        <time>2023-10-04T14:41:45Z</time>
      </trkpt>
      <trkpt lat="50.05371" lon="2.16471">
        <ele>52.9</ele>
        <time>2023-10-04T14:41:46Z</time>
      </trkpt>
      <trkpt lat="50.05371" lon="2.16469">
        <ele>52.9</ele>
        <time>2023-10-04T14:41:47Z</time>
      </trkpt>
      <trkpt lat="50.05371" lon="2.16468">
        <ele>52.9</ele>
        <time>2023-10-04T14:41:48Z</time>
      </trkpt>
      <trkpt lat="50.05371" lon="2.16466">
        <ele>52.9</ele>
        <time>2023-10-04T14:41:49Z</time>
      </trkpt>
      <trkpt lat="50.05371" lon="2.16465">
        <ele>53</ele>
        <time>2023-10-04T14:41:50Z</time>
      </trkpt>
      <trkpt lat="50.05371" lon="2.16463">
        <ele>53</ele>
        <time>2023-10-04T14:41:51Z</time>
      </trkpt>
      <trkpt lat="50.05371" lon="2.16462">
        <ele>53</ele>
        <time>2023-10-04T14:41:52Z</time>
      </trkpt>
      <trkpt lat="50.05372" lon="2.1646">
        <ele>53</ele>
        <time>2023-10-04T14:41:53Z</time>
      </trkpt>
      <trkpt lat="50.05372" lon="2.16459">
        <ele>53</ele>
        <time>2023-10-04T14:41:54Z</time>
      </trkpt>
      <trkpt lat="50.05372" lon="2.16458">
        <ele>53.1</ele>
        <time>2023-10-04T14:41:55Z</time>
      </trkpt>
      <trkpt lat="50.05372" lon="2.16456">
        <ele>53.1</ele>
        <time>2023-10-04T14:41:56Z</time>
      </trkpt>
      <trkpt lat="50.05373" lon="2.16455">
        <ele>53.1</ele>
        <time>2023-10-04T14:41:57Z</time>
      </trkpt>
      <trkpt lat="50.05373" lon="2.16453">
        <ele>53.1</ele>
        <time>2023-10-04T14:41:58Z</time>
      </trkpt>
      <trkpt lat="50.05373" lon="2.16452">
        <ele>53.1</ele>
        <time>2023-10-04T14:41:59Z</time>
      </trkpt>
      <trkpt lat="50.05373" lon="2.1645">
        <ele>53.2</ele>
        <time>2023-10-04T14:42:00Z</time>
      </trkpt>
      <trkpt lat="50.05374" lon="2.16447">
        <ele>53.2</ele>
        <time>2023-10-04T14:42:01Z</time>
      </trkpt>
      <trkpt lat="50.05374" lon="2.16446">
        <ele>53.2</ele>
        <time>2023-10-04T14:42:02Z</time>
      </trkpt>
      <trkpt lat="50.05374" lon="2.16444">
        <ele>53.2</ele>
        <time>2023-10-04T14:42:03Z</time>
      </trkpt>
      <trkpt lat="50.05375" lon="2.16443">
        <ele>53.2</ele>
        <time>2023-10-04T14:42:04Z</time>
      </trkpt>
      <trkpt lat="50.05375" lon="2.16441">
        <ele>53.2</ele>
        <time>2023-10-04T14:42:05Z</time>
      </trkpt>
      <trkpt lat="50.05375" lon="2.1644">
        <ele>53.2</ele>
        <time>2023-10-04T14:42:06Z</time>
      </trkpt>
      <trkpt lat="50.05375" lon="2.16439">
        <ele>53.3</ele>
        <time>2023-10-04T14:42:07Z</time>
      </trkpt>
      <trkpt lat="50.05376" lon="2.16437">
        <ele>53.3</ele>
        <time>2023-10-04T14:42:08Z</time>
      </trkpt>
      <trkpt lat="50.05376" lon="2.16436">
        <ele>53.3</ele>
        <time>2023-10-04T14:42:09Z</time>
      </trkpt>
      <trkpt lat="50.05376" lon="2.16434">
        <ele>53.3</ele>
        <time>2023-10-04T14:42:10Z</time>
      </trkpt>
      <trkpt lat="50.05377" lon="2.16433">
        <ele>53.3</ele>
        <time>2023-10-04T14:42:11Z</time>
      </trkpt>
      <trkpt lat="50.05377" lon="2.16431">
        <ele>53.3</ele>
        <time>2023-10-04T14:42:12Z</time>
      </trkpt>
      <trkpt lat="50.05377" lon="2.1643">
        <ele>53.3</ele>
        <time>2023-10-04T14:42:13Z</time>
      </trkpt>
      <trkpt lat="50.05377" lon="2.16428">
        <ele>53.3</ele>
        <time>2023-10-04T14:42:14Z</time>
      </trkpt>
      <trkpt lat="50.05377" lon="2.16427">
        <ele>53.4</ele>
        <time>2023-10-04T14:42:15Z</time>
      </trkpt>
      <trkpt lat="50.05377" lon="2.16426">
        <ele>53.4</ele>
        <time>2023-10-04T14:42:16Z</time>
      </trkpt>
      <trkpt lat="50.05377" lon="2.16424">
        <ele>53.4</ele>
        <time>2023-10-04T14:42:17Z</time>
      </trkpt>
      <trkpt lat="50.05377" lon="2.16423">
        <ele>53.4</ele>
        <time>2023-10-04T14:42:18Z</time>
      </trkpt>
      <trkpt lat="50.05377" lon="2.16422">
        <ele>53.4</ele>
        <time>2023-10-04T14:42:19Z</time>
      </trkpt>
      <trkpt lat="50.05377" lon="2.16421">
        <ele>53.4</ele>
        <time>2023-10-04T14:42:20Z</time>
      </trkpt>
      <trkpt lat="50.05377" lon="2.16419">
        <ele>53.4</ele>
        <time>2023-10-04T14:42:21Z</time>
      </trkpt>
      <trkpt lat="50.05377" lon="2.16417">
        <ele>53.5</ele>
        <time>2023-10-04T14:42:22Z</time>
      </trkpt>
      <trkpt lat="50.05377" lon="2.16416">
        <ele>53.5</ele>
        <time>2023-10-04T14:42:23Z</time>
      </trkpt>
      <trkpt lat="50.05378" lon="2.16414">
        <ele>53.5</ele>
        <time>2023-10-04T14:42:24Z</time>
      </trkpt>
      <trkpt lat="50.05378" lon="2.16412">
        <ele>53.5</ele>
        <time>2023-10-04T14:42:25Z</time>
      </trkpt>
      <trkpt lat="50.05378" lon="2.1641">
        <ele>53.5</ele>
        <time>2023-10-04T14:42:26Z</time>
      </trkpt>
      <trkpt lat="50.05378" lon="2.16409">
        <ele>53.6</ele>
        <time>2023-10-04T14:42:27Z</time>
      </trkpt>
      <trkpt lat="50.05378" lon="2.16408">
        <ele>53.6</ele>
        <time>2023-10-04T14:42:28Z</time>
      </trkpt>
      <trkpt lat="50.05379" lon="2.16406">
        <ele>53.6</ele>
        <time>2023-10-04T14:42:29Z</time>
      </trkpt>
      <trkpt lat="50.05379" lon="2.16405">
        <ele>53.6</ele>
        <time>2023-10-04T14:42:30Z</time>
      </trkpt>
      <trkpt lat="50.05379" lon="2.16403">
        <ele>53.6</ele>
        <time>2023-10-04T14:42:31Z</time>
      </trkpt>
      <trkpt lat="50.0538" lon="2.16402">
        <ele>53.6</ele>
        <time>2023-10-04T14:42:32Z</time>
      </trkpt>
      <trkpt lat="50.0538" lon="2.16401">
        <ele>53.6</ele>
        <time>2023-10-04T14:42:33Z</time>
      </trkpt>
      <trkpt lat="50.05381" lon="2.164">
        <ele>53.7</ele>
        <time>2023-10-04T14:42:34Z</time>
      </trkpt>
      <trkpt lat="50.05381" lon="2.16399">
        <ele>53.7</ele>
        <time>2023-10-04T14:42:35Z</time>
      </trkpt>
      <trkpt lat="50.05381" lon="2.16399">
        <ele>53.7</ele>
        <time>2023-10-04T14:42:36Z</time>
      </trkpt>
      <trkpt lat="50.05382" lon="2.16398">
        <ele>53.7</ele>
        <time>2023-10-04T14:42:37Z</time>
      </trkpt>
      <trkpt lat="50.05382" lon="2.16397">
        <ele>53.7</ele>
        <time>2023-10-04T14:42:38Z</time>
      </trkpt>
      <trkpt lat="50.05382" lon="2.16396">
        <ele>53.7</ele>
        <time>2023-10-04T14:42:39Z</time>
      </trkpt>
      <trkpt lat="50.05383" lon="2.16395">
        <ele>53.7</ele>
        <time>2023-10-04T14:42:40Z</time>
      </trkpt>
      <trkpt lat="50.05383" lon="2.16393">
        <ele>53.7</ele>
        <time>2023-10-04T14:42:41Z</time>
      </trkpt>
      <trkpt lat="50.05384" lon="2.16392">
        <ele>53.7</ele>
        <time>2023-10-04T14:42:42Z</time>
      </trkpt>
      <trkpt lat="50.05384" lon="2.1639">
        <ele>53.7</ele>
        <time>2023-10-04T14:42:43Z</time>
      </trkpt>
      <trkpt lat="50.05384" lon="2.16389">
        <ele>53.7</ele>
        <time>2023-10-04T14:42:44Z</time>
      </trkpt>
      <trkpt lat="50.05385" lon="2.16388">
        <ele>53.7</ele>
        <time>2023-10-04T14:42:45Z</time>
      </trkpt>
      <trkpt lat="50.05385" lon="2.16387">
        <ele>53.7</ele>
        <time>2023-10-04T14:42:46Z</time>
      </trkpt>
      <trkpt lat="50.05385" lon="2.16386">
        <ele>53.7</ele>
        <time>2023-10-04T14:42:47Z</time>
      </trkpt>
      <trkpt lat="50.05385" lon="2.16385">
        <ele>53.8</ele>
        <time>2023-10-04T14:42:48Z</time>
      </trkpt>
      <trkpt lat="50.05385" lon="2.16384">
        <ele>53.8</ele>
        <time>2023-10-04T14:42:49Z</time>
      </trkpt>
      <trkpt lat="50.05385" lon="2.16383">
        <ele>53.8</ele>
        <time>2023-10-04T14:42:50Z</time>
      </trkpt>
      <trkpt lat="50.05386" lon="2.16381">
        <ele>53.8</ele>
        <time>2023-10-04T14:42:51Z</time>
      </trkpt>
      <trkpt lat="50.05386" lon="2.1638">
        <ele>53.8</ele>
        <time>2023-10-04T14:42:52Z</time>
      </trkpt>
      <trkpt lat="50.05386" lon="2.16378">
        <ele>53.8</ele>
        <time>2023-10-04T14:42:53Z</time>
      </trkpt>
      <trkpt lat="50.05387" lon="2.16377">
        <ele>53.8</ele>
        <time>2023-10-04T14:42:54Z</time>
      </trkpt>
      <trkpt lat="50.05387" lon="2.16376">
        <ele>53.8</ele>
        <time>2023-10-04T14:42:55Z</time>
      </trkpt>
      <trkpt lat="50.05386" lon="2.16375">
        <ele>53.8</ele>
        <time>2023-10-04T14:42:56Z</time>
      </trkpt>
      <trkpt lat="50.05386" lon="2.16374">
        <ele>53.8</ele>
        <time>2023-10-04T14:42:57Z</time>
      </trkpt>
      <trkpt lat="50.05387" lon="2.16373">
        <ele>53.8</ele>
        <time>2023-10-04T14:42:58Z</time>
      </trkpt>
      <trkpt lat="50.05387" lon="2.16372">
        <ele>53.8</ele>
        <time>2023-10-04T14:42:59Z</time>
      </trkpt>
      <trkpt lat="50.05388" lon="2.16371">
        <ele>53.8</ele>
        <time>2023-10-04T14:43:00Z</time>
      </trkpt>
      <trkpt lat="50.05389" lon="2.16369">
        <ele>53.8</ele>
        <time>2023-10-04T14:43:01Z</time>
      </trkpt>
      <trkpt lat="50.05389" lon="2.16368">
        <ele>53.8</ele>
        <time>2023-10-04T14:43:02Z</time>
      </trkpt>
      <trkpt lat="50.0539" lon="2.16367">
        <ele>53.8</ele>
        <time>2023-10-04T14:43:03Z</time>
      </trkpt>
      <trkpt lat="50.05391" lon="2.16366">
        <ele>53.8</ele>
        <time>2023-10-04T14:43:04Z</time>
      </trkpt>
      <trkpt lat="50.05391" lon="2.16364">
        <ele>53.8</ele>
        <time>2023-10-04T14:43:05Z</time>
      </trkpt>
      <trkpt lat="50.05392" lon="2.16363">
        <ele>53.8</ele>
        <time>2023-10-04T14:43:06Z</time>
      </trkpt>
      <trkpt lat="50.05392" lon="2.16361">
        <ele>53.8</ele>
        <time>2023-10-04T14:43:07Z</time>
      </trkpt>
      <trkpt lat="50.05393" lon="2.1636">
        <ele>53.8</ele>
        <time>2023-10-04T14:43:08Z</time>
      </trkpt>
      <trkpt lat="50.05393" lon="2.16358">
        <ele>53.8</ele>
        <time>2023-10-04T14:43:09Z</time>
      </trkpt>
      <trkpt lat="50.05393" lon="2.16356">
        <ele>53.8</ele>
        <time>2023-10-04T14:43:10Z</time>
      </trkpt>
      <trkpt lat="50.05394" lon="2.16354">
        <ele>53.8</ele>
        <time>2023-10-04T14:43:11Z</time>
      </trkpt>
      <trkpt lat="50.05394" lon="2.16353">
        <ele>53.8</ele>
        <time>2023-10-04T14:43:12Z</time>
      </trkpt>
      <trkpt lat="50.05395" lon="2.16351">
        <ele>53.8</ele>
        <time>2023-10-04T14:43:13Z</time>
      </trkpt>
      <trkpt lat="50.05395" lon="2.1635">
        <ele>53.8</ele>
        <time>2023-10-04T14:43:14Z</time>
      </trkpt>
      <trkpt lat="50.05395" lon="2.16349">
        <ele>53.8</ele>
        <time>2023-10-04T14:43:15Z</time>
      </trkpt>
      <trkpt lat="50.05395" lon="2.16348">
        <ele>53.8</ele>
        <time>2023-10-04T14:43:16Z</time>
      </trkpt>
      <trkpt lat="50.05395" lon="2.16346">
        <ele>53.8</ele>
        <time>2023-10-04T14:43:17Z</time>
      </trkpt>
      <trkpt lat="50.05395" lon="2.16344">
        <ele>53.8</ele>
        <time>2023-10-04T14:43:18Z</time>
      </trkpt>
      <trkpt lat="50.05396" lon="2.16343">
        <ele>53.8</ele>
        <time>2023-10-04T14:43:19Z</time>
      </trkpt>
      <trkpt lat="50.05396" lon="2.16342">
        <ele>53.8</ele>
        <time>2023-10-04T14:43:20Z</time>
      </trkpt>
      <trkpt lat="50.05397" lon="2.16341">
        <ele>53.8</ele>
        <time>2023-10-04T14:43:21Z</time>
      </trkpt>
      <trkpt lat="50.05397" lon="2.1634">
        <ele>53.8</ele>
        <time>2023-10-04T14:43:22Z</time>
      </trkpt>
      <trkpt lat="50.05397" lon="2.16338">
        <ele>53.8</ele>
        <time>2023-10-04T14:43:23Z</time>
      </trkpt>
      <trkpt lat="50.05397" lon="2.16337">
        <ele>53.8</ele>
        <time>2023-10-04T14:43:24Z</time>
      </trkpt>
      <trkpt lat="50.05398" lon="2.16335">
        <ele>53.7</ele>
        <time>2023-10-04T14:43:25Z</time>
      </trkpt>
      <trkpt lat="50.05398" lon="2.16334">
        <ele>53.7</ele>
        <time>2023-10-04T14:43:26Z</time>
      </trkpt>
      <trkpt lat="50.05397" lon="2.16333">
        <ele>53.7</ele>
        <time>2023-10-04T14:43:27Z</time>
      </trkpt>
      <trkpt lat="50.05396" lon="2.16331">
        <ele>53.7</ele>
        <time>2023-10-04T14:43:28Z</time>
      </trkpt>
      <trkpt lat="50.05395" lon="2.16331">
        <ele>53.6</ele>
        <time>2023-10-04T14:43:29Z</time>
      </trkpt>
      <trkpt lat="50.05394" lon="2.1633">
        <ele>53.6</ele>
        <time>2023-10-04T14:43:30Z</time>
      </trkpt>
      <trkpt lat="50.05393" lon="2.1633">
        <ele>53.6</ele>
        <time>2023-10-04T14:43:31Z</time>
      </trkpt>
      <trkpt lat="50.05393" lon="2.1633">
        <ele>53.6</ele>
        <time>2023-10-04T14:43:32Z</time>
      </trkpt>
      <trkpt lat="50.05392" lon="2.1633">
        <ele>53.5</ele>
        <time>2023-10-04T14:43:33Z</time>
      </trkpt>
      <trkpt lat="50.05392" lon="2.16331">
        <ele>53.5</ele>
        <time>2023-10-04T14:43:34Z</time>
      </trkpt>
      <trkpt lat="50.05392" lon="2.1633">
        <ele>53.5</ele>
        <time>2023-10-04T14:43:35Z</time>
      </trkpt>
      <trkpt lat="50.05392" lon="2.1633">
        <ele>53.5</ele>
        <time>2023-10-04T14:43:36Z</time>
      </trkpt>
      <trkpt lat="50.05392" lon="2.16329">
        <ele>53.5</ele>
        <time>2023-10-04T14:43:37Z</time>
      </trkpt>
      <trkpt lat="50.05392" lon="2.16329">
        <ele>53.5</ele>
        <time>2023-10-04T14:43:38Z</time>
      </trkpt>
      <trkpt lat="50.05393" lon="2.16328">
        <ele>53.5</ele>
        <time>2023-10-04T14:43:39Z</time>
      </trkpt>
      <trkpt lat="50.05394" lon="2.16327">
        <ele>53.4</ele>
        <time>2023-10-04T14:43:40Z</time>
      </trkpt>
      <trkpt lat="50.05395" lon="2.16325">
        <ele>53.3</ele>
        <time>2023-10-04T14:43:41Z</time>
      </trkpt>
      <trkpt lat="50.05396" lon="2.16324">
        <ele>53.3</ele>
        <time>2023-10-04T14:43:42Z</time>
      </trkpt>
      <trkpt lat="50.05397" lon="2.16323">
        <ele>53.3</ele>
        <time>2023-10-04T14:43:43Z</time>
      </trkpt>
      <trkpt lat="50.05398" lon="2.16322">
        <ele>53.2</ele>
        <time>2023-10-04T14:43:44Z</time>
      </trkpt>
      <trkpt lat="50.05399" lon="2.1632">
        <ele>53.2</ele>
        <time>2023-10-04T14:43:45Z</time>
      </trkpt>
      <trkpt lat="50.05399" lon="2.16318">
        <ele>53.1</ele>
        <time>2023-10-04T14:43:46Z</time>
      </trkpt>
      <trkpt lat="50.054" lon="2.16317">
        <ele>53</ele>
        <time>2023-10-04T14:43:47Z</time>
      </trkpt>
      <trkpt lat="50.05401" lon="2.16315">
        <ele>53</ele>
        <time>2023-10-04T14:43:48Z</time>
      </trkpt>
      <trkpt lat="50.05402" lon="2.16314">
        <ele>52.9</ele>
        <time>2023-10-04T14:43:49Z</time>
      </trkpt>
      <trkpt lat="50.05402" lon="2.16313">
        <ele>52.9</ele>
        <time>2023-10-04T14:43:50Z</time>
      </trkpt>
      <trkpt lat="50.05403" lon="2.16311">
        <ele>52.8</ele>
        <time>2023-10-04T14:43:51Z</time>
      </trkpt>
      <trkpt lat="50.05404" lon="2.16309">
        <ele>52.8</ele>
        <time>2023-10-04T14:43:52Z</time>
      </trkpt>
      <trkpt lat="50.05404" lon="2.16308">
        <ele>52.7</ele>
        <time>2023-10-04T14:43:53Z</time>
      </trkpt>
      <trkpt lat="50.05405" lon="2.16307">
        <ele>52.6</ele>
        <time>2023-10-04T14:43:54Z</time>
      </trkpt>
      <trkpt lat="50.05406" lon="2.16305">
        <ele>52.6</ele>
        <time>2023-10-04T14:43:55Z</time>
      </trkpt>
      <trkpt lat="50.05406" lon="2.16304">
        <ele>52.5</ele>
        <time>2023-10-04T14:43:56Z</time>
      </trkpt>
      <trkpt lat="50.05407" lon="2.16303">
        <ele>52.5</ele>
        <time>2023-10-04T14:43:57Z</time>
      </trkpt>
      <trkpt lat="50.05407" lon="2.16302">
        <ele>52.4</ele>
        <time>2023-10-04T14:43:58Z</time>
      </trkpt>
      <trkpt lat="50.05408" lon="2.16301">
        <ele>52.4</ele>
        <time>2023-10-04T14:43:59Z</time>
      </trkpt>
      <trkpt lat="50.05409" lon="2.16298">
        <ele>52.2</ele>
        <time>2023-10-04T14:44:00Z</time>
      </trkpt>
      <trkpt lat="50.05409" lon="2.16297">
        <ele>52.2</ele>
        <time>2023-10-04T14:44:01Z</time>
      </trkpt>
      <trkpt lat="50.05409" lon="2.16295">
        <ele>52.1</ele>
        <time>2023-10-04T14:44:02Z</time>
      </trkpt>
      <trkpt lat="50.0541" lon="2.16292">
        <ele>52</ele>
        <time>2023-10-04T14:44:03Z</time>
      </trkpt>
      <trkpt lat="50.0541" lon="2.16291">
        <ele>52</ele>
        <time>2023-10-04T14:44:04Z</time>
      </trkpt>
      <trkpt lat="50.05411" lon="2.1629">
        <ele>51.9</ele>
        <time>2023-10-04T14:44:05Z</time>
      </trkpt>
      <trkpt lat="50.05411" lon="2.16288">
        <ele>51.9</ele>
        <time>2023-10-04T14:44:06Z</time>
      </trkpt>
      <trkpt lat="50.05411" lon="2.16287">
        <ele>51.8</ele>
        <time>2023-10-04T14:44:07Z</time>
      </trkpt>
      <trkpt lat="50.05412" lon="2.16286">
        <ele>51.8</ele>
        <time>2023-10-04T14:44:08Z</time>
      </trkpt>
      <trkpt lat="50.05412" lon="2.16284">
        <ele>51.7</ele>
        <time>2023-10-04T14:44:09Z</time>
      </trkpt>
      <trkpt lat="50.05413" lon="2.16282">
        <ele>51.6</ele>
        <time>2023-10-04T14:44:10Z</time>
      </trkpt>
      <trkpt lat="50.05414" lon="2.1628">
        <ele>51.5</ele>
        <time>2023-10-04T14:44:11Z</time>
      </trkpt>
      <trkpt lat="50.05414" lon="2.16278">
        <ele>51.5</ele>
        <time>2023-10-04T14:44:12Z</time>
      </trkpt>
      <trkpt lat="50.05415" lon="2.16276">
        <ele>51.4</ele>
        <time>2023-10-04T14:44:13Z</time>
      </trkpt>
      <trkpt lat="50.05415" lon="2.16275">
        <ele>51.3</ele>
        <time>2023-10-04T14:44:14Z</time>
      </trkpt>
      <trkpt lat="50.05416" lon="2.16274">
        <ele>51.3</ele>
        <time>2023-10-04T14:44:15Z</time>
      </trkpt>
      <trkpt lat="50.05416" lon="2.16273">
        <ele>51.2</ele>
        <time>2023-10-04T14:44:16Z</time>
      </trkpt>
      <trkpt lat="50.05416" lon="2.16272">
        <ele>51.2</ele>
        <time>2023-10-04T14:44:17Z</time>
      </trkpt>
      <trkpt lat="50.05417" lon="2.16271">
        <ele>51.2</ele>
        <time>2023-10-04T14:44:18Z</time>
      </trkpt>
      <trkpt lat="50.05417" lon="2.16269">
        <ele>51.1</ele>
        <time>2023-10-04T14:44:19Z</time>
      </trkpt>
      <trkpt lat="50.05418" lon="2.16268">
        <ele>51</ele>
        <time>2023-10-04T14:44:20Z</time>
      </trkpt>
      <trkpt lat="50.05418" lon="2.16266">
        <ele>51</ele>
        <time>2023-10-04T14:44:21Z</time>
      </trkpt>
      <trkpt lat="50.05419" lon="2.16265">
        <ele>50.9</ele>
        <time>2023-10-04T14:44:22Z</time>
      </trkpt>
      <trkpt lat="50.05419" lon="2.16262">
        <ele>50.9</ele>
        <time>2023-10-04T14:44:23Z</time>
      </trkpt>
      <trkpt lat="50.05419" lon="2.1626">
        <ele>50.8</ele>
        <time>2023-10-04T14:44:24Z</time>
      </trkpt>
      <trkpt lat="50.0542" lon="2.16259">
        <ele>50.8</ele>
        <time>2023-10-04T14:44:25Z</time>
      </trkpt>
      <trkpt lat="50.05419" lon="2.16257">
        <ele>50.7</ele>
        <time>2023-10-04T14:44:26Z</time>
      </trkpt>
      <trkpt lat="50.05418" lon="2.16257">
        <ele>50.7</ele>
        <time>2023-10-04T14:44:27Z</time>
      </trkpt>
      <trkpt lat="50.05418" lon="2.16256">
        <ele>50.7</ele>
        <time>2023-10-04T14:44:28Z</time>
      </trkpt>
      <trkpt lat="50.05418" lon="2.16255">
        <ele>50.7</ele>
        <time>2023-10-04T14:44:29Z</time>
      </trkpt>
      <trkpt lat="50.05418" lon="2.16255">
        <ele>50.7</ele>
        <time>2023-10-04T14:44:30Z</time>
      </trkpt>
      <trkpt lat="50.05419" lon="2.16254">
        <ele>50.7</ele>
        <time>2023-10-04T14:44:31Z</time>
      </trkpt>
      <trkpt lat="50.05419" lon="2.16253">
        <ele>50.7</ele>
        <time>2023-10-04T14:44:32Z</time>
      </trkpt>
      <trkpt lat="50.05419" lon="2.16252">
        <ele>50.6</ele>
        <time>2023-10-04T14:44:33Z</time>
      </trkpt>
      <trkpt lat="50.0542" lon="2.16251">
        <ele>50.6</ele>
        <time>2023-10-04T14:44:34Z</time>
      </trkpt>
      <trkpt lat="50.0542" lon="2.1625">
        <ele>50.6</ele>
        <time>2023-10-04T14:44:35Z</time>
      </trkpt>
      <trkpt lat="50.0542" lon="2.16249">
        <ele>50.6</ele>
        <time>2023-10-04T14:44:36Z</time>
      </trkpt>
      <trkpt lat="50.05421" lon="2.16247">
        <ele>50.6</ele>
        <time>2023-10-04T14:44:37Z</time>
      </trkpt>
      <trkpt lat="50.05421" lon="2.16245">
        <ele>50.5</ele>
        <time>2023-10-04T14:44:38Z</time>
      </trkpt>
      <trkpt lat="50.05422" lon="2.16242">
        <ele>50.5</ele>
        <time>2023-10-04T14:44:39Z</time>
      </trkpt>
      <trkpt lat="50.05422" lon="2.1624">
        <ele>50.5</ele>
        <time>2023-10-04T14:44:40Z</time>
      </trkpt>
      <trkpt lat="50.05423" lon="2.16238">
        <ele>50.5</ele>
        <time>2023-10-04T14:44:41Z</time>
      </trkpt>
      <trkpt lat="50.05423" lon="2.16235">
        <ele>50.5</ele>
        <time>2023-10-04T14:44:42Z</time>
      </trkpt>
      <trkpt lat="50.05423" lon="2.16233">
        <ele>50.5</ele>
        <time>2023-10-04T14:44:43Z</time>
      </trkpt>
      <trkpt lat="50.05424" lon="2.16231">
        <ele>50.5</ele>
        <time>2023-10-04T14:44:44Z</time>
      </trkpt>
      <trkpt lat="50.05424" lon="2.16227">
        <ele>50.5</ele>
        <time>2023-10-04T14:44:45Z</time>
      </trkpt>
      <trkpt lat="50.05425" lon="2.16226">
        <ele>50.5</ele>
        <time>2023-10-04T14:44:46Z</time>
      </trkpt>
      <trkpt lat="50.05425" lon="2.16225">
        <ele>50.5</ele>
        <time>2023-10-04T14:44:47Z</time>
      </trkpt>
      <trkpt lat="50.05425" lon="2.16224">
        <ele>50.5</ele>
        <time>2023-10-04T14:44:48Z</time>
      </trkpt>
      <trkpt lat="50.05426" lon="2.16223">
        <ele>50.5</ele>
        <time>2023-10-04T14:44:49Z</time>
      </trkpt>
      <trkpt lat="50.05426" lon="2.16222">
        <ele>50.5</ele>
        <time>2023-10-04T14:44:50Z</time>
      </trkpt>
      <trkpt lat="50.05426" lon="2.16221">
        <ele>50.5</ele>
        <time>2023-10-04T14:44:51Z</time>
      </trkpt>
      <trkpt lat="50.05426" lon="2.1622">
        <ele>50.5</ele>
        <time>2023-10-04T14:44:52Z</time>
      </trkpt>
      <trkpt lat="50.05427" lon="2.16219">
        <ele>50.5</ele>
        <time>2023-10-04T14:44:53Z</time>
      </trkpt>
      <trkpt lat="50.05427" lon="2.16218">
        <ele>50.5</ele>
        <time>2023-10-04T14:44:54Z</time>
      </trkpt>
      <trkpt lat="50.05427" lon="2.16217">
        <ele>50.5</ele>
        <time>2023-10-04T14:44:55Z</time>
      </trkpt>
      <trkpt lat="50.05427" lon="2.16216">
        <ele>50.5</ele>
        <time>2023-10-04T14:44:56Z</time>
      </trkpt>
      <trkpt lat="50.05427" lon="2.16214">
        <ele>50.5</ele>
        <time>2023-10-04T14:44:57Z</time>
      </trkpt>
      <trkpt lat="50.05427" lon="2.16213">
        <ele>50.5</ele>
        <time>2023-10-04T14:44:58Z</time>
      </trkpt>
      <trkpt lat="50.05428" lon="2.16212">
        <ele>50.5</ele>
        <time>2023-10-04T14:44:59Z</time>
      </trkpt>
      <trkpt lat="50.05428" lon="2.16209">
        <ele>50.6</ele>
        <time>2023-10-04T14:45:00Z</time>
      </trkpt>
      <trkpt lat="50.05428" lon="2.16208">
        <ele>50.6</ele>
        <time>2023-10-04T14:45:01Z</time>
      </trkpt>
      <trkpt lat="50.05429" lon="2.16207">
        <ele>50.6</ele>
        <time>2023-10-04T14:45:02Z</time>
      </trkpt>
      <trkpt lat="50.05429" lon="2.16206">
        <ele>50.6</ele>
        <time>2023-10-04T14:45:03Z</time>
      </trkpt>
      <trkpt lat="50.0543" lon="2.16205">
        <ele>50.6</ele>
        <time>2023-10-04T14:45:04Z</time>
      </trkpt>
      <trkpt lat="50.0543" lon="2.16203">
        <ele>50.7</ele>
        <time>2023-10-04T14:45:05Z</time>
      </trkpt>
      <trkpt lat="50.05431" lon="2.16202">
        <ele>50.7</ele>
        <time>2023-10-04T14:45:06Z</time>
      </trkpt>
      <trkpt lat="50.05431" lon="2.162">
        <ele>50.7</ele>
        <time>2023-10-04T14:45:07Z</time>
      </trkpt>
      <trkpt lat="50.05432" lon="2.16199">
        <ele>50.7</ele>
        <time>2023-10-04T14:45:08Z</time>
      </trkpt>
      <trkpt lat="50.05432" lon="2.16197">
        <ele>50.7</ele>
        <time>2023-10-04T14:45:09Z</time>
      </trkpt>
      <trkpt lat="50.05432" lon="2.16196">
        <ele>50.8</ele>
        <time>2023-10-04T14:45:10Z</time>
      </trkpt>
      <trkpt lat="50.05433" lon="2.16194">
        <ele>50.8</ele>
        <time>2023-10-04T14:45:11Z</time>
      </trkpt>
      <trkpt lat="50.05433" lon="2.16192">
        <ele>50.8</ele>
        <time>2023-10-04T14:45:12Z</time>
      </trkpt>
      <trkpt lat="50.05434" lon="2.16191">
        <ele>50.8</ele>
        <time>2023-10-04T14:45:13Z</time>
      </trkpt>
      <trkpt lat="50.05434" lon="2.16189">
        <ele>50.9</ele>
        <time>2023-10-04T14:45:14Z</time>
      </trkpt>
      <trkpt lat="50.05435" lon="2.16188">
        <ele>50.9</ele>
        <time>2023-10-04T14:45:15Z</time>
      </trkpt>
      <trkpt lat="50.05435" lon="2.16187">
        <ele>50.9</ele>
        <time>2023-10-04T14:45:16Z</time>
      </trkpt>
      <trkpt lat="50.05436" lon="2.16186">
        <ele>50.9</ele>
        <time>2023-10-04T14:45:17Z</time>
      </trkpt>
      <trkpt lat="50.05436" lon="2.16186">
        <ele>51</ele>
        <time>2023-10-04T14:45:18Z</time>
      </trkpt>
      <trkpt lat="50.05436" lon="2.16185">
        <ele>51</ele>
        <time>2023-10-04T14:45:19Z</time>
      </trkpt>
      <trkpt lat="50.05437" lon="2.16185">
        <ele>51</ele>
        <time>2023-10-04T14:45:20Z</time>
      </trkpt>
      <trkpt lat="50.05437" lon="2.16184">
        <ele>51</ele>
        <time>2023-10-04T14:45:21Z</time>
      </trkpt>
      <trkpt lat="50.05437" lon="2.16183">
        <ele>51</ele>
        <time>2023-10-04T14:45:22Z</time>
      </trkpt>
      <trkpt lat="50.05437" lon="2.16183">
        <ele>51</ele>
        <time>2023-10-04T14:45:23Z</time>
      </trkpt>
      <trkpt lat="50.05437" lon="2.16182">
        <ele>51</ele>
        <time>2023-10-04T14:45:24Z</time>
      </trkpt>
      <trkpt lat="50.05438" lon="2.16181">
        <ele>51.1</ele>
        <time>2023-10-04T14:45:25Z</time>
      </trkpt>
      <trkpt lat="50.05438" lon="2.1618">
        <ele>51.1</ele>
        <time>2023-10-04T14:45:26Z</time>
      </trkpt>
      <trkpt lat="50.05438" lon="2.16179">
        <ele>51.1</ele>
        <time>2023-10-04T14:45:27Z</time>
      </trkpt>
      <trkpt lat="50.05439" lon="2.16177">
        <ele>51.2</ele>
        <time>2023-10-04T14:45:28Z</time>
      </trkpt>
      <trkpt lat="50.05439" lon="2.16176">
        <ele>51.2</ele>
        <time>2023-10-04T14:45:29Z</time>
      </trkpt>
      <trkpt lat="50.05439" lon="2.16175">
        <ele>51.2</ele>
        <time>2023-10-04T14:45:30Z</time>
      </trkpt>
      <trkpt lat="50.0544" lon="2.16173">
        <ele>51.3</ele>
        <time>2023-10-04T14:45:31Z</time>
      </trkpt>
      <trkpt lat="50.0544" lon="2.16172">
        <ele>51.3</ele>
        <time>2023-10-04T14:45:32Z</time>
      </trkpt>
      <trkpt lat="50.05441" lon="2.16168">
        <ele>51.4</ele>
        <time>2023-10-04T14:45:33Z</time>
      </trkpt>
      <trkpt lat="50.05441" lon="2.16167">
        <ele>51.4</ele>
        <time>2023-10-04T14:45:34Z</time>
      </trkpt>
      <trkpt lat="50.05441" lon="2.16165">
        <ele>51.5</ele>
        <time>2023-10-04T14:45:35Z</time>
      </trkpt>
      <trkpt lat="50.05441" lon="2.16163">
        <ele>51.5</ele>
        <time>2023-10-04T14:45:36Z</time>
      </trkpt>
      <trkpt lat="50.05442" lon="2.16161">
        <ele>51.6</ele>
        <time>2023-10-04T14:45:37Z</time>
      </trkpt>
      <trkpt lat="50.05442" lon="2.16157">
        <ele>51.7</ele>
        <time>2023-10-04T14:45:38Z</time>
      </trkpt>
      <trkpt lat="50.05443" lon="2.16156">
        <ele>51.8</ele>
        <time>2023-10-04T14:45:39Z</time>
      </trkpt>
      <trkpt lat="50.05443" lon="2.16155">
        <ele>51.8</ele>
        <time>2023-10-04T14:45:40Z</time>
      </trkpt>
      <trkpt lat="50.05443" lon="2.16153">
        <ele>51.9</ele>
        <time>2023-10-04T14:45:41Z</time>
      </trkpt>
      <trkpt lat="50.05443" lon="2.16152">
        <ele>51.9</ele>
        <time>2023-10-04T14:45:42Z</time>
      </trkpt>
      <trkpt lat="50.05444" lon="2.1615">
        <ele>52</ele>
        <time>2023-10-04T14:45:43Z</time>
      </trkpt>
      <trkpt lat="50.05444" lon="2.16149">
        <ele>52</ele>
        <time>2023-10-04T14:45:44Z</time>
      </trkpt>
      <trkpt lat="50.05444" lon="2.16148">
        <ele>52</ele>
        <time>2023-10-04T14:45:45Z</time>
      </trkpt>
      <trkpt lat="50.05445" lon="2.16146">
        <ele>52.1</ele>
        <time>2023-10-04T14:45:46Z</time>
      </trkpt>
      <trkpt lat="50.05445" lon="2.16145">
        <ele>52.2</ele>
        <time>2023-10-04T14:45:47Z</time>
      </trkpt>
      <trkpt lat="50.05446" lon="2.16143">
        <ele>52.2</ele>
        <time>2023-10-04T14:45:48Z</time>
      </trkpt>
      <trkpt lat="50.05446" lon="2.16141">
        <ele>52.3</ele>
        <time>2023-10-04T14:45:49Z</time>
      </trkpt>
      <trkpt lat="50.05446" lon="2.1614">
        <ele>52.3</ele>
        <time>2023-10-04T14:45:50Z</time>
      </trkpt>
      <trkpt lat="50.05446" lon="2.16138">
        <ele>52.4</ele>
        <time>2023-10-04T14:45:51Z</time>
      </trkpt>
      <trkpt lat="50.05447" lon="2.16137">
        <ele>52.4</ele>
        <time>2023-10-04T14:45:52Z</time>
      </trkpt>
      <trkpt lat="50.05447" lon="2.16136">
        <ele>52.5</ele>
        <time>2023-10-04T14:45:53Z</time>
      </trkpt>
      <trkpt lat="50.05447" lon="2.16134">
        <ele>52.5</ele>
        <time>2023-10-04T14:45:54Z</time>
      </trkpt>
      <trkpt lat="50.05448" lon="2.16133">
        <ele>52.6</ele>
        <time>2023-10-04T14:45:55Z</time>
      </trkpt>
      <trkpt lat="50.05448" lon="2.16131">
        <ele>52.6</ele>
        <time>2023-10-04T14:45:56Z</time>
      </trkpt>
      <trkpt lat="50.05449" lon="2.1613">
        <ele>52.7</ele>
        <time>2023-10-04T14:45:57Z</time>
      </trkpt>
      <trkpt lat="50.05449" lon="2.16129">
        <ele>52.7</ele>
        <time>2023-10-04T14:45:58Z</time>
      </trkpt>
      <trkpt lat="50.05449" lon="2.16128">
        <ele>52.7</ele>
        <time>2023-10-04T14:45:59Z</time>
      </trkpt>
      <trkpt lat="50.05449" lon="2.16127">
        <ele>52.8</ele>
        <time>2023-10-04T14:46:00Z</time>
      </trkpt>
      <trkpt lat="50.0545" lon="2.16125">
        <ele>52.9</ele>
        <time>2023-10-04T14:46:01Z</time>
      </trkpt>
      <trkpt lat="50.0545" lon="2.16124">
        <ele>52.9</ele>
        <time>2023-10-04T14:46:02Z</time>
      </trkpt>
      <trkpt lat="50.0545" lon="2.16123">
        <ele>53</ele>
        <time>2023-10-04T14:46:03Z</time>
      </trkpt>
      <trkpt lat="50.0545" lon="2.16121">
        <ele>53</ele>
        <time>2023-10-04T14:46:04Z</time>
      </trkpt>
      <trkpt lat="50.05451" lon="2.1612">
        <ele>53.1</ele>
        <time>2023-10-04T14:46:05Z</time>
      </trkpt>
      <trkpt lat="50.05451" lon="2.16118">
        <ele>53.1</ele>
        <time>2023-10-04T14:46:06Z</time>
      </trkpt>
      <trkpt lat="50.05451" lon="2.16116">
        <ele>53.2</ele>
        <time>2023-10-04T14:46:07Z</time>
      </trkpt>
      <trkpt lat="50.05451" lon="2.16115">
        <ele>53.2</ele>
        <time>2023-10-04T14:46:08Z</time>
      </trkpt>
      <trkpt lat="50.05451" lon="2.16114">
        <ele>53.3</ele>
        <time>2023-10-04T14:46:09Z</time>
      </trkpt>
      <trkpt lat="50.05452" lon="2.16112">
        <ele>53.3</ele>
        <time>2023-10-04T14:46:10Z</time>
      </trkpt>
      <trkpt lat="50.05452" lon="2.16111">
        <ele>53.4</ele>
        <time>2023-10-04T14:46:11Z</time>
      </trkpt>
      <trkpt lat="50.05452" lon="2.16109">
        <ele>53.4</ele>
        <time>2023-10-04T14:46:12Z</time>
      </trkpt>
      <trkpt lat="50.05452" lon="2.16108">
        <ele>53.5</ele>
        <time>2023-10-04T14:46:13Z</time>
      </trkpt>
      <trkpt lat="50.05453" lon="2.16107">
        <ele>53.5</ele>
        <time>2023-10-04T14:46:14Z</time>
      </trkpt>
      <trkpt lat="50.05453" lon="2.16104">
        <ele>53.6</ele>
        <time>2023-10-04T14:46:15Z</time>
      </trkpt>
      <trkpt lat="50.05453" lon="2.16103">
        <ele>53.7</ele>
        <time>2023-10-04T14:46:16Z</time>
      </trkpt>
      <trkpt lat="50.05454" lon="2.16102">
        <ele>53.7</ele>
        <time>2023-10-04T14:46:17Z</time>
      </trkpt>
      <trkpt lat="50.05454" lon="2.16101">
        <ele>53.7</ele>
        <time>2023-10-04T14:46:18Z</time>
      </trkpt>
      <trkpt lat="50.05454" lon="2.161">
        <ele>53.8</ele>
        <time>2023-10-04T14:46:19Z</time>
      </trkpt>
      <trkpt lat="50.05454" lon="2.16099">
        <ele>53.8</ele>
        <time>2023-10-04T14:46:20Z</time>
      </trkpt>
      <trkpt lat="50.05455" lon="2.16097">
        <ele>53.9</ele>
        <time>2023-10-04T14:46:21Z</time>
      </trkpt>
      <trkpt lat="50.05455" lon="2.16096">
        <ele>53.9</ele>
        <time>2023-10-04T14:46:22Z</time>
      </trkpt>
      <trkpt lat="50.05455" lon="2.16094">
        <ele>54</ele>
        <time>2023-10-04T14:46:23Z</time>
      </trkpt>
      <trkpt lat="50.05456" lon="2.16093">
        <ele>54</ele>
        <time>2023-10-04T14:46:24Z</time>
      </trkpt>
      <trkpt lat="50.05456" lon="2.16092">
        <ele>54.1</ele>
        <time>2023-10-04T14:46:25Z</time>
      </trkpt>
      <trkpt lat="50.05456" lon="2.1609">
        <ele>54.2</ele>
        <time>2023-10-04T14:46:26Z</time>
      </trkpt>
      <trkpt lat="50.05456" lon="2.16089">
        <ele>54.2</ele>
        <time>2023-10-04T14:46:27Z</time>
      </trkpt>
      <trkpt lat="50.05456" lon="2.16087">
        <ele>54.3</ele>
        <time>2023-10-04T14:46:28Z</time>
      </trkpt>
      <trkpt lat="50.05456" lon="2.16086">
        <ele>54.3</ele>
        <time>2023-10-04T14:46:29Z</time>
      </trkpt>
      <trkpt lat="50.05456" lon="2.16084">
        <ele>54.4</ele>
        <time>2023-10-04T14:46:30Z</time>
      </trkpt>
      <trkpt lat="50.05456" lon="2.16083">
        <ele>54.4</ele>
        <time>2023-10-04T14:46:31Z</time>
      </trkpt>
      <trkpt lat="50.05456" lon="2.16081">
        <ele>54.5</ele>
        <time>2023-10-04T14:46:32Z</time>
      </trkpt>
      <trkpt lat="50.05456" lon="2.16079">
        <ele>54.5</ele>
        <time>2023-10-04T14:46:33Z</time>
      </trkpt>
      <trkpt lat="50.05457" lon="2.16078">
        <ele>54.6</ele>
        <time>2023-10-04T14:46:34Z</time>
      </trkpt>
      <trkpt lat="50.05457" lon="2.16076">
        <ele>54.7</ele>
        <time>2023-10-04T14:46:35Z</time>
      </trkpt>
      <trkpt lat="50.05457" lon="2.16075">
        <ele>54.7</ele>
        <time>2023-10-04T14:46:36Z</time>
      </trkpt>
      <trkpt lat="50.05457" lon="2.16073">
        <ele>54.8</ele>
        <time>2023-10-04T14:46:37Z</time>
      </trkpt>
      <trkpt lat="50.05457" lon="2.16072">
        <ele>54.8</ele>
        <time>2023-10-04T14:46:38Z</time>
      </trkpt>
      <trkpt lat="50.05457" lon="2.1607">
        <ele>54.9</ele>
        <time>2023-10-04T14:46:39Z</time>
      </trkpt>
      <trkpt lat="50.05457" lon="2.16069">
        <ele>54.9</ele>
        <time>2023-10-04T14:46:40Z</time>
      </trkpt>
      <trkpt lat="50.05457" lon="2.16067">
        <ele>54.9</ele>
        <time>2023-10-04T14:46:41Z</time>
      </trkpt>
      <trkpt lat="50.05457" lon="2.16066">
        <ele>55</ele>
        <time>2023-10-04T14:46:42Z</time>
      </trkpt>
      <trkpt lat="50.05457" lon="2.16065">
        <ele>55</ele>
        <time>2023-10-04T14:46:43Z</time>
      </trkpt>
      <trkpt lat="50.05457" lon="2.16063">
        <ele>55</ele>
        <time>2023-10-04T14:46:44Z</time>
      </trkpt>
      <trkpt lat="50.05457" lon="2.16062">
        <ele>55.1</ele>
        <time>2023-10-04T14:46:45Z</time>
      </trkpt>
      <trkpt lat="50.05457" lon="2.1606">
        <ele>55.1</ele>
        <time>2023-10-04T14:46:46Z</time>
      </trkpt>
      <trkpt lat="50.05457" lon="2.16059">
        <ele>55.2</ele>
        <time>2023-10-04T14:46:47Z</time>
      </trkpt>
      <trkpt lat="50.05457" lon="2.16058">
        <ele>55.2</ele>
        <time>2023-10-04T14:46:48Z</time>
      </trkpt>
      <trkpt lat="50.05457" lon="2.16056">
        <ele>55.2</ele>
        <time>2023-10-04T14:46:49Z</time>
      </trkpt>
      <trkpt lat="50.05457" lon="2.16055">
        <ele>55.3</ele>
        <time>2023-10-04T14:46:50Z</time>
      </trkpt>
      <trkpt lat="50.05457" lon="2.16053">
        <ele>55.3</ele>
        <time>2023-10-04T14:46:51Z</time>
      </trkpt>
      <trkpt lat="50.05457" lon="2.16051">
        <ele>55.4</ele>
        <time>2023-10-04T14:46:52Z</time>
      </trkpt>
      <trkpt lat="50.05457" lon="2.16048">
        <ele>55.4</ele>
        <time>2023-10-04T14:46:53Z</time>
      </trkpt>
      <trkpt lat="50.05457" lon="2.16047">
        <ele>55.5</ele>
        <time>2023-10-04T14:46:54Z</time>
      </trkpt>
      <trkpt lat="50.05457" lon="2.16045">
        <ele>55.5</ele>
        <time>2023-10-04T14:46:55Z</time>
      </trkpt>
      <trkpt lat="50.05457" lon="2.16044">
        <ele>55.5</ele>
        <time>2023-10-04T14:46:56Z</time>
      </trkpt>
      <trkpt lat="50.05457" lon="2.16042">
        <ele>55.6</ele>
        <time>2023-10-04T14:46:57Z</time>
      </trkpt>
      <trkpt lat="50.05457" lon="2.16041">
        <ele>55.6</ele>
        <time>2023-10-04T14:46:58Z</time>
      </trkpt>
      <trkpt lat="50.05457" lon="2.16039">
        <ele>55.6</ele>
        <time>2023-10-04T14:46:59Z</time>
      </trkpt>
      <trkpt lat="50.05457" lon="2.16038">
        <ele>55.7</ele>
        <time>2023-10-04T14:47:00Z</time>
      </trkpt>
      <trkpt lat="50.05457" lon="2.16036">
        <ele>55.7</ele>
        <time>2023-10-04T14:47:01Z</time>
      </trkpt>
      <trkpt lat="50.05457" lon="2.16035">
        <ele>55.7</ele>
        <time>2023-10-04T14:47:02Z</time>
      </trkpt>
      <trkpt lat="50.05456" lon="2.16034">
        <ele>55.7</ele>
        <time>2023-10-04T14:47:03Z</time>
      </trkpt>
      <trkpt lat="50.05456" lon="2.16033">
        <ele>55.8</ele>
        <time>2023-10-04T14:47:04Z</time>
      </trkpt>
      <trkpt lat="50.05456" lon="2.16032">
        <ele>55.8</ele>
        <time>2023-10-04T14:47:05Z</time>
      </trkpt>
      <trkpt lat="50.05456" lon="2.1603">
        <ele>55.8</ele>
        <time>2023-10-04T14:47:06Z</time>
      </trkpt>
      <trkpt lat="50.05456" lon="2.16029">
        <ele>55.9</ele>
        <time>2023-10-04T14:47:07Z</time>
      </trkpt>
      <trkpt lat="50.05456" lon="2.16027">
        <ele>55.9</ele>
        <time>2023-10-04T14:47:08Z</time>
      </trkpt>
      <trkpt lat="50.05456" lon="2.16026">
        <ele>55.9</ele>
        <time>2023-10-04T14:47:09Z</time>
      </trkpt>
      <trkpt lat="50.05456" lon="2.16024">
        <ele>56</ele>
        <time>2023-10-04T14:47:10Z</time>
      </trkpt>
      <trkpt lat="50.05456" lon="2.16023">
        <ele>56</ele>
        <time>2023-10-04T14:47:11Z</time>
      </trkpt>
      <trkpt lat="50.05456" lon="2.16021">
        <ele>56</ele>
        <time>2023-10-04T14:47:12Z</time>
      </trkpt>
      <trkpt lat="50.05456" lon="2.1602">
        <ele>56.1</ele>
        <time>2023-10-04T14:47:13Z</time>
      </trkpt>
      <trkpt lat="50.05456" lon="2.16018">
        <ele>56.1</ele>
        <time>2023-10-04T14:47:14Z</time>
      </trkpt>
      <trkpt lat="50.05456" lon="2.16016">
        <ele>56.1</ele>
        <time>2023-10-04T14:47:15Z</time>
      </trkpt>
      <trkpt lat="50.05456" lon="2.16015">
        <ele>56.2</ele>
        <time>2023-10-04T14:47:16Z</time>
      </trkpt>
      <trkpt lat="50.05456" lon="2.16013">
        <ele>56.2</ele>
        <time>2023-10-04T14:47:17Z</time>
      </trkpt>
      <trkpt lat="50.05456" lon="2.16012">
        <ele>56.3</ele>
        <time>2023-10-04T14:47:18Z</time>
      </trkpt>
      <trkpt lat="50.05456" lon="2.1601">
        <ele>56.3</ele>
        <time>2023-10-04T14:47:19Z</time>
      </trkpt>
      <trkpt lat="50.05456" lon="2.16009">
        <ele>56.3</ele>
        <time>2023-10-04T14:47:20Z</time>
      </trkpt>
      <trkpt lat="50.05456" lon="2.16007">
        <ele>56.4</ele>
        <time>2023-10-04T14:47:21Z</time>
      </trkpt>
      <trkpt lat="50.05456" lon="2.16006">
        <ele>56.4</ele>
        <time>2023-10-04T14:47:22Z</time>
      </trkpt>
      <trkpt lat="50.05457" lon="2.16004">
        <ele>56.4</ele>
        <time>2023-10-04T14:47:23Z</time>
      </trkpt>
      <trkpt lat="50.05457" lon="2.16003">
        <ele>56.4</ele>
        <time>2023-10-04T14:47:24Z</time>
      </trkpt>
      <trkpt lat="50.05457" lon="2.16002">
        <ele>56.5</ele>
        <time>2023-10-04T14:47:25Z</time>
      </trkpt>
      <trkpt lat="50.05457" lon="2.16">
        <ele>56.5</ele>
        <time>2023-10-04T14:47:26Z</time>
      </trkpt>
      <trkpt lat="50.05457" lon="2.15999">
        <ele>56.5</ele>
        <time>2023-10-04T14:47:27Z</time>
      </trkpt>
      <trkpt lat="50.05457" lon="2.15996">
        <ele>56.6</ele>
        <time>2023-10-04T14:47:28Z</time>
      </trkpt>
      <trkpt lat="50.05457" lon="2.15995">
        <ele>56.6</ele>
        <time>2023-10-04T14:47:29Z</time>
      </trkpt>
      <trkpt lat="50.05457" lon="2.15993">
        <ele>56.7</ele>
        <time>2023-10-04T14:47:30Z</time>
      </trkpt>
      <trkpt lat="50.05457" lon="2.15991">
        <ele>56.7</ele>
        <time>2023-10-04T14:47:31Z</time>
      </trkpt>
      <trkpt lat="50.05458" lon="2.1599">
        <ele>56.8</ele>
        <time>2023-10-04T14:47:32Z</time>
      </trkpt>
      <trkpt lat="50.05458" lon="2.15988">
        <ele>56.8</ele>
        <time>2023-10-04T14:47:33Z</time>
      </trkpt>
      <trkpt lat="50.05458" lon="2.15987">
        <ele>56.8</ele>
        <time>2023-10-04T14:47:34Z</time>
      </trkpt>
      <trkpt lat="50.05458" lon="2.15985">
        <ele>56.9</ele>
        <time>2023-10-04T14:47:35Z</time>
      </trkpt>
      <trkpt lat="50.05458" lon="2.15984">
        <ele>56.9</ele>
        <time>2023-10-04T14:47:36Z</time>
      </trkpt>
      <trkpt lat="50.05458" lon="2.15983">
        <ele>56.9</ele>
        <time>2023-10-04T14:47:37Z</time>
      </trkpt>
      <trkpt lat="50.05458" lon="2.15982">
        <ele>56.9</ele>
        <time>2023-10-04T14:47:38Z</time>
      </trkpt>
      <trkpt lat="50.05458" lon="2.15981">
        <ele>57</ele>
        <time>2023-10-04T14:47:39Z</time>
      </trkpt>
      <trkpt lat="50.05458" lon="2.15979">
        <ele>57</ele>
        <time>2023-10-04T14:47:40Z</time>
      </trkpt>
      <trkpt lat="50.05458" lon="2.15978">
        <ele>57</ele>
        <time>2023-10-04T14:47:41Z</time>
      </trkpt>
      <trkpt lat="50.05458" lon="2.15977">
        <ele>57.1</ele>
        <time>2023-10-04T14:47:42Z</time>
      </trkpt>
      <trkpt lat="50.05458" lon="2.15976">
        <ele>57.1</ele>
        <time>2023-10-04T14:47:43Z</time>
      </trkpt>
      <trkpt lat="50.05458" lon="2.15975">
        <ele>57.1</ele>
        <time>2023-10-04T14:47:44Z</time>
      </trkpt>
      <trkpt lat="50.05458" lon="2.15973">
        <ele>57.1</ele>
        <time>2023-10-04T14:47:45Z</time>
      </trkpt>
      <trkpt lat="50.05458" lon="2.15972">
        <ele>57.2</ele>
        <time>2023-10-04T14:47:46Z</time>
      </trkpt>
      <trkpt lat="50.05458" lon="2.1597">
        <ele>57.2</ele>
        <time>2023-10-04T14:47:47Z</time>
      </trkpt>
      <trkpt lat="50.05459" lon="2.15969">
        <ele>57.2</ele>
        <time>2023-10-04T14:47:48Z</time>
      </trkpt>
      <trkpt lat="50.05459" lon="2.15968">
        <ele>57.3</ele>
        <time>2023-10-04T14:47:49Z</time>
      </trkpt>
      <trkpt lat="50.05459" lon="2.15965">
        <ele>57.3</ele>
        <time>2023-10-04T14:47:50Z</time>
      </trkpt>
      <trkpt lat="50.05459" lon="2.15964">
        <ele>57.4</ele>
        <time>2023-10-04T14:47:51Z</time>
      </trkpt>
      <trkpt lat="50.05459" lon="2.15963">
        <ele>57.4</ele>
        <time>2023-10-04T14:47:52Z</time>
      </trkpt>
      <trkpt lat="50.05459" lon="2.15962">
        <ele>57.4</ele>
        <time>2023-10-04T14:47:53Z</time>
      </trkpt>
      <trkpt lat="50.05459" lon="2.15961">
        <ele>57.5</ele>
        <time>2023-10-04T14:47:54Z</time>
      </trkpt>
      <trkpt lat="50.05459" lon="2.15959">
        <ele>57.5</ele>
        <time>2023-10-04T14:47:55Z</time>
      </trkpt>
      <trkpt lat="50.05459" lon="2.15958">
        <ele>57.5</ele>
        <time>2023-10-04T14:47:56Z</time>
      </trkpt>
      <trkpt lat="50.05459" lon="2.15957">
        <ele>57.6</ele>
        <time>2023-10-04T14:47:57Z</time>
      </trkpt>
      <trkpt lat="50.05459" lon="2.15955">
        <ele>57.6</ele>
        <time>2023-10-04T14:47:58Z</time>
      </trkpt>
      <trkpt lat="50.05459" lon="2.15954">
        <ele>57.6</ele>
        <time>2023-10-04T14:47:59Z</time>
      </trkpt>
      <trkpt lat="50.05459" lon="2.15953">
        <ele>57.7</ele>
        <time>2023-10-04T14:48:00Z</time>
      </trkpt>
      <trkpt lat="50.05459" lon="2.1595">
        <ele>57.7</ele>
        <time>2023-10-04T14:48:01Z</time>
      </trkpt>
      <trkpt lat="50.0546" lon="2.15949">
        <ele>57.7</ele>
        <time>2023-10-04T14:48:02Z</time>
      </trkpt>
      <trkpt lat="50.0546" lon="2.15948">
        <ele>57.8</ele>
        <time>2023-10-04T14:48:03Z</time>
      </trkpt>
      <trkpt lat="50.0546" lon="2.15947">
        <ele>57.8</ele>
        <time>2023-10-04T14:48:04Z</time>
      </trkpt>
      <trkpt lat="50.0546" lon="2.15945">
        <ele>57.8</ele>
        <time>2023-10-04T14:48:05Z</time>
      </trkpt>
      <trkpt lat="50.0546" lon="2.15943">
        <ele>57.9</ele>
        <time>2023-10-04T14:48:06Z</time>
      </trkpt>
      <trkpt lat="50.0546" lon="2.15942">
        <ele>57.9</ele>
        <time>2023-10-04T14:48:07Z</time>
      </trkpt>
      <trkpt lat="50.0546" lon="2.1594">
        <ele>58</ele>
        <time>2023-10-04T14:48:08Z</time>
      </trkpt>
      <trkpt lat="50.05461" lon="2.15939">
        <ele>58</ele>
        <time>2023-10-04T14:48:09Z</time>
      </trkpt>
      <trkpt lat="50.05461" lon="2.15938">
        <ele>58</ele>
        <time>2023-10-04T14:48:10Z</time>
      </trkpt>
      <trkpt lat="50.05461" lon="2.15937">
        <ele>58.1</ele>
        <time>2023-10-04T14:48:11Z</time>
      </trkpt>
      <trkpt lat="50.05461" lon="2.15935">
        <ele>58.1</ele>
        <time>2023-10-04T14:48:12Z</time>
      </trkpt>
      <trkpt lat="50.05461" lon="2.15934">
        <ele>58.1</ele>
        <time>2023-10-04T14:48:13Z</time>
      </trkpt>
      <trkpt lat="50.0546" lon="2.15933">
        <ele>58.2</ele>
        <time>2023-10-04T14:48:14Z</time>
      </trkpt>
      <trkpt lat="50.0546" lon="2.15933">
        <ele>58.2</ele>
        <time>2023-10-04T14:48:15Z</time>
      </trkpt>
      <trkpt lat="50.0546" lon="2.15933">
        <ele>58.2</ele>
        <time>2023-10-04T14:48:16Z</time>
      </trkpt>
      <trkpt lat="50.05459" lon="2.15933">
        <ele>58.2</ele>
        <time>2023-10-04T14:48:17Z</time>
      </trkpt>
      <trkpt lat="50.05459" lon="2.15934">
        <ele>58.2</ele>
        <time>2023-10-04T14:48:18Z</time>
      </trkpt>
      <trkpt lat="50.05458" lon="2.15934">
        <ele>58.2</ele>
        <time>2023-10-04T14:48:19Z</time>
      </trkpt>
      <trkpt lat="50.05458" lon="2.15933">
        <ele>58.3</ele>
        <time>2023-10-04T14:48:20Z</time>
      </trkpt>
      <trkpt lat="50.05458" lon="2.15933">
        <ele>58.3</ele>
        <time>2023-10-04T14:48:21Z</time>
      </trkpt>
      <trkpt lat="50.05459" lon="2.15932">
        <ele>58.3</ele>
        <time>2023-10-04T14:48:22Z</time>
      </trkpt>
      <trkpt lat="50.05459" lon="2.1593">
        <ele>58.3</ele>
        <time>2023-10-04T14:48:23Z</time>
      </trkpt>
      <trkpt lat="50.05459" lon="2.15929">
        <ele>58.4</ele>
        <time>2023-10-04T14:48:24Z</time>
      </trkpt>
      <trkpt lat="50.05459" lon="2.15927">
        <ele>58.4</ele>
        <time>2023-10-04T14:48:25Z</time>
      </trkpt>
      <trkpt lat="50.05459" lon="2.15925">
        <ele>58.5</ele>
        <time>2023-10-04T14:48:26Z</time>
      </trkpt>
      <trkpt lat="50.0546" lon="2.15924">
        <ele>58.5</ele>
        <time>2023-10-04T14:48:27Z</time>
      </trkpt>
      <trkpt lat="50.0546" lon="2.15923">
        <ele>58.5</ele>
        <time>2023-10-04T14:48:28Z</time>
      </trkpt>
      <trkpt lat="50.0546" lon="2.15922">
        <ele>58.6</ele>
        <time>2023-10-04T14:48:29Z</time>
      </trkpt>
      <trkpt lat="50.05461" lon="2.1592">
        <ele>58.6</ele>
        <time>2023-10-04T14:48:30Z</time>
      </trkpt>
      <trkpt lat="50.05461" lon="2.15919">
        <ele>58.7</ele>
        <time>2023-10-04T14:48:31Z</time>
      </trkpt>
      <trkpt lat="50.05462" lon="2.15918">
        <ele>58.7</ele>
        <time>2023-10-04T14:48:32Z</time>
      </trkpt>
      <trkpt lat="50.05462" lon="2.15917">
        <ele>58.7</ele>
        <time>2023-10-04T14:48:33Z</time>
      </trkpt>
      <trkpt lat="50.05462" lon="2.15915">
        <ele>58.8</ele>
        <time>2023-10-04T14:48:34Z</time>
      </trkpt>
      <trkpt lat="50.05463" lon="2.15914">
        <ele>58.8</ele>
        <time>2023-10-04T14:48:35Z</time>
      </trkpt>
      <trkpt lat="50.05463" lon="2.15912">
        <ele>58.9</ele>
        <time>2023-10-04T14:48:36Z</time>
      </trkpt>
      <trkpt lat="50.05463" lon="2.1591">
        <ele>58.9</ele>
        <time>2023-10-04T14:48:37Z</time>
      </trkpt>
      <trkpt lat="50.05464" lon="2.15909">
        <ele>59</ele>
        <time>2023-10-04T14:48:38Z</time>
      </trkpt>
      <trkpt lat="50.05464" lon="2.15907">
        <ele>59</ele>
        <time>2023-10-04T14:48:39Z</time>
      </trkpt>
      <trkpt lat="50.05464" lon="2.15906">
        <ele>59</ele>
        <time>2023-10-04T14:48:40Z</time>
      </trkpt>
      <trkpt lat="50.05464" lon="2.15905">
        <ele>59.1</ele>
        <time>2023-10-04T14:48:41Z</time>
      </trkpt>
      <trkpt lat="50.05465" lon="2.15904">
        <ele>59.1</ele>
        <time>2023-10-04T14:48:42Z</time>
      </trkpt>
      <trkpt lat="50.05465" lon="2.15902">
        <ele>59.1</ele>
        <time>2023-10-04T14:48:43Z</time>
      </trkpt>
      <trkpt lat="50.05465" lon="2.15901">
        <ele>59.2</ele>
        <time>2023-10-04T14:48:44Z</time>
      </trkpt>
      <trkpt lat="50.05465" lon="2.159">
        <ele>59.2</ele>
        <time>2023-10-04T14:48:45Z</time>
      </trkpt>
      <trkpt lat="50.05466" lon="2.15898">
        <ele>59.3</ele>
        <time>2023-10-04T14:48:46Z</time>
      </trkpt>
      <trkpt lat="50.05466" lon="2.15897">
        <ele>59.3</ele>
        <time>2023-10-04T14:48:47Z</time>
      </trkpt>
      <trkpt lat="50.05466" lon="2.15896">
        <ele>59.3</ele>
        <time>2023-10-04T14:48:48Z</time>
      </trkpt>
      <trkpt lat="50.05466" lon="2.15895">
        <ele>59.3</ele>
        <time>2023-10-04T14:48:49Z</time>
      </trkpt>
      <trkpt lat="50.05466" lon="2.15894">
        <ele>59.4</ele>
        <time>2023-10-04T14:48:50Z</time>
      </trkpt>
      <trkpt lat="50.05467" lon="2.15892">
        <ele>59.4</ele>
        <time>2023-10-04T14:48:51Z</time>
      </trkpt>
      <trkpt lat="50.05467" lon="2.15891">
        <ele>59.5</ele>
        <time>2023-10-04T14:48:52Z</time>
      </trkpt>
      <trkpt lat="50.05468" lon="2.15889">
        <ele>59.5</ele>
        <time>2023-10-04T14:48:53Z</time>
      </trkpt>
      <trkpt lat="50.05468" lon="2.15888">
        <ele>59.6</ele>
        <time>2023-10-04T14:48:54Z</time>
      </trkpt>
      <trkpt lat="50.05468" lon="2.15887">
        <ele>59.6</ele>
        <time>2023-10-04T14:48:55Z</time>
      </trkpt>
      <trkpt lat="50.05469" lon="2.15886">
        <ele>59.6</ele>
        <time>2023-10-04T14:48:56Z</time>
      </trkpt>
      <trkpt lat="50.05469" lon="2.15885">
        <ele>59.6</ele>
        <time>2023-10-04T14:48:57Z</time>
      </trkpt>
      <trkpt lat="50.05469" lon="2.15884">
        <ele>59.7</ele>
        <time>2023-10-04T14:48:58Z</time>
      </trkpt>
      <trkpt lat="50.05469" lon="2.15883">
        <ele>59.7</ele>
        <time>2023-10-04T14:48:59Z</time>
      </trkpt>
      <trkpt lat="50.05469" lon="2.15882">
        <ele>59.7</ele>
        <time>2023-10-04T14:49:00Z</time>
      </trkpt>
      <trkpt lat="50.05469" lon="2.15881">
        <ele>59.8</ele>
        <time>2023-10-04T14:49:01Z</time>
      </trkpt>
      <trkpt lat="50.05469" lon="2.15879">
        <ele>59.8</ele>
        <time>2023-10-04T14:49:02Z</time>
      </trkpt>
      <trkpt lat="50.05469" lon="2.15878">
        <ele>59.8</ele>
        <time>2023-10-04T14:49:03Z</time>
      </trkpt>
      <trkpt lat="50.05469" lon="2.15877">
        <ele>59.9</ele>
        <time>2023-10-04T14:49:04Z</time>
      </trkpt>
      <trkpt lat="50.05469" lon="2.15875">
        <ele>59.9</ele>
        <time>2023-10-04T14:49:05Z</time>
      </trkpt>
      <trkpt lat="50.05469" lon="2.15874">
        <ele>59.9</ele>
        <time>2023-10-04T14:49:06Z</time>
      </trkpt>
      <trkpt lat="50.05469" lon="2.15873">
        <ele>60</ele>
        <time>2023-10-04T14:49:07Z</time>
      </trkpt>
      <trkpt lat="50.05469" lon="2.15871">
        <ele>60</ele>
        <time>2023-10-04T14:49:08Z</time>
      </trkpt>
      <trkpt lat="50.05469" lon="2.1587">
        <ele>60.1</ele>
        <time>2023-10-04T14:49:09Z</time>
      </trkpt>
      <trkpt lat="50.05469" lon="2.15869">
        <ele>60.1</ele>
        <time>2023-10-04T14:49:10Z</time>
      </trkpt>
      <trkpt lat="50.05469" lon="2.15868">
        <ele>60.1</ele>
        <time>2023-10-04T14:49:11Z</time>
      </trkpt>
      <trkpt lat="50.05469" lon="2.15866">
        <ele>60.2</ele>
        <time>2023-10-04T14:49:12Z</time>
      </trkpt>
      <trkpt lat="50.05469" lon="2.15865">
        <ele>60.2</ele>
        <time>2023-10-04T14:49:13Z</time>
      </trkpt>
      <trkpt lat="50.05469" lon="2.15864">
        <ele>60.2</ele>
        <time>2023-10-04T14:49:14Z</time>
      </trkpt>
      <trkpt lat="50.05469" lon="2.15863">
        <ele>60.2</ele>
        <time>2023-10-04T14:49:15Z</time>
      </trkpt>
      <trkpt lat="50.05469" lon="2.15862">
        <ele>60.3</ele>
        <time>2023-10-04T14:49:16Z</time>
      </trkpt>
      <trkpt lat="50.05469" lon="2.1586">
        <ele>60.3</ele>
        <time>2023-10-04T14:49:17Z</time>
      </trkpt>
      <trkpt lat="50.05469" lon="2.15859">
        <ele>60.4</ele>
        <time>2023-10-04T14:49:18Z</time>
      </trkpt>
      <trkpt lat="50.05469" lon="2.15858">
        <ele>60.4</ele>
        <time>2023-10-04T14:49:19Z</time>
      </trkpt>
      <trkpt lat="50.05469" lon="2.15856">
        <ele>60.4</ele>
        <time>2023-10-04T14:49:20Z</time>
      </trkpt>
      <trkpt lat="50.05469" lon="2.15855">
        <ele>60.5</ele>
        <time>2023-10-04T14:49:21Z</time>
      </trkpt>
      <trkpt lat="50.05469" lon="2.15853">
        <ele>60.5</ele>
        <time>2023-10-04T14:49:22Z</time>
      </trkpt>
      <trkpt lat="50.05469" lon="2.15852">
        <ele>60.5</ele>
        <time>2023-10-04T14:49:23Z</time>
      </trkpt>
      <trkpt lat="50.05469" lon="2.1585">
        <ele>60.6</ele>
        <time>2023-10-04T14:49:24Z</time>
      </trkpt>
      <trkpt lat="50.0547" lon="2.15849">
        <ele>60.6</ele>
        <time>2023-10-04T14:49:25Z</time>
      </trkpt>
      <trkpt lat="50.0547" lon="2.15847">
        <ele>60.7</ele>
        <time>2023-10-04T14:49:26Z</time>
      </trkpt>
      <trkpt lat="50.0547" lon="2.15846">
        <ele>60.7</ele>
        <time>2023-10-04T14:49:27Z</time>
      </trkpt>
      <trkpt lat="50.0547" lon="2.15845">
        <ele>60.7</ele>
        <time>2023-10-04T14:49:28Z</time>
      </trkpt>
      <trkpt lat="50.0547" lon="2.15844">
        <ele>60.7</ele>
        <time>2023-10-04T14:49:29Z</time>
      </trkpt>
      <trkpt lat="50.0547" lon="2.15842">
        <ele>60.8</ele>
        <time>2023-10-04T14:49:30Z</time>
      </trkpt>
      <trkpt lat="50.0547" lon="2.15841">
        <ele>60.8</ele>
        <time>2023-10-04T14:49:31Z</time>
      </trkpt>
      <trkpt lat="50.0547" lon="2.1584">
        <ele>60.8</ele>
        <time>2023-10-04T14:49:32Z</time>
      </trkpt>
      <trkpt lat="50.0547" lon="2.15838">
        <ele>60.9</ele>
        <time>2023-10-04T14:49:33Z</time>
      </trkpt>
      <trkpt lat="50.0547" lon="2.15837">
        <ele>60.9</ele>
        <time>2023-10-04T14:49:34Z</time>
      </trkpt>
      <trkpt lat="50.0547" lon="2.15835">
        <ele>60.9</ele>
        <time>2023-10-04T14:49:35Z</time>
      </trkpt>
      <trkpt lat="50.05471" lon="2.15834">
        <ele>61</ele>
        <time>2023-10-04T14:49:36Z</time>
      </trkpt>
      <trkpt lat="50.05471" lon="2.15832">
        <ele>61</ele>
        <time>2023-10-04T14:49:37Z</time>
      </trkpt>
      <trkpt lat="50.05471" lon="2.15831">
        <ele>61</ele>
        <time>2023-10-04T14:49:38Z</time>
      </trkpt>
      <trkpt lat="50.05471" lon="2.15829">
        <ele>61.1</ele>
        <time>2023-10-04T14:49:39Z</time>
      </trkpt>
      <trkpt lat="50.05471" lon="2.15828">
        <ele>61.1</ele>
        <time>2023-10-04T14:49:40Z</time>
      </trkpt>
      <trkpt lat="50.05471" lon="2.15827">
        <ele>61.1</ele>
        <time>2023-10-04T14:49:41Z</time>
      </trkpt>
      <trkpt lat="50.05471" lon="2.15826">
        <ele>61.2</ele>
        <time>2023-10-04T14:49:42Z</time>
      </trkpt>
      <trkpt lat="50.05471" lon="2.15825">
        <ele>61.2</ele>
        <time>2023-10-04T14:49:43Z</time>
      </trkpt>
      <trkpt lat="50.05471" lon="2.15823">
        <ele>61.2</ele>
        <time>2023-10-04T14:49:44Z</time>
      </trkpt>
      <trkpt lat="50.05471" lon="2.15822">
        <ele>61.2</ele>
        <time>2023-10-04T14:49:45Z</time>
      </trkpt>
      <trkpt lat="50.05472" lon="2.1582">
        <ele>61.3</ele>
        <time>2023-10-04T14:49:46Z</time>
      </trkpt>
      <trkpt lat="50.05472" lon="2.15819">
        <ele>61.3</ele>
        <time>2023-10-04T14:49:47Z</time>
      </trkpt>
      <trkpt lat="50.05472" lon="2.15818">
        <ele>61.3</ele>
        <time>2023-10-04T14:49:48Z</time>
      </trkpt>
      <trkpt lat="50.05472" lon="2.15817">
        <ele>61.4</ele>
        <time>2023-10-04T14:49:49Z</time>
      </trkpt>
      <trkpt lat="50.05472" lon="2.15815">
        <ele>61.4</ele>
        <time>2023-10-04T14:49:50Z</time>
      </trkpt>
      <trkpt lat="50.05472" lon="2.15814">
        <ele>61.4</ele>
        <time>2023-10-04T14:49:51Z</time>
      </trkpt>
      <trkpt lat="50.05472" lon="2.15813">
        <ele>61.4</ele>
        <time>2023-10-04T14:49:52Z</time>
      </trkpt>
      <trkpt lat="50.05472" lon="2.15812">
        <ele>61.5</ele>
        <time>2023-10-04T14:49:53Z</time>
      </trkpt>
      <trkpt lat="50.05472" lon="2.1581">
        <ele>61.5</ele>
        <time>2023-10-04T14:49:54Z</time>
      </trkpt>
      <trkpt lat="50.05472" lon="2.15809">
        <ele>61.5</ele>
        <time>2023-10-04T14:49:55Z</time>
      </trkpt>
      <trkpt lat="50.05472" lon="2.15808">
        <ele>61.6</ele>
        <time>2023-10-04T14:49:56Z</time>
      </trkpt>
      <trkpt lat="50.05472" lon="2.15806">
        <ele>61.6</ele>
        <time>2023-10-04T14:49:57Z</time>
      </trkpt>
      <trkpt lat="50.05473" lon="2.15805">
        <ele>61.6</ele>
        <time>2023-10-04T14:49:58Z</time>
      </trkpt>
      <trkpt lat="50.05473" lon="2.15804">
        <ele>61.6</ele>
        <time>2023-10-04T14:49:59Z</time>
      </trkpt>
      <trkpt lat="50.05473" lon="2.15803">
        <ele>61.7</ele>
        <time>2023-10-04T14:50:00Z</time>
      </trkpt>
      <trkpt lat="50.05473" lon="2.15802">
        <ele>61.7</ele>
        <time>2023-10-04T14:50:01Z</time>
      </trkpt>
      <trkpt lat="50.05473" lon="2.158">
        <ele>61.7</ele>
        <time>2023-10-04T14:50:02Z</time>
      </trkpt>
      <trkpt lat="50.05473" lon="2.15799">
        <ele>61.8</ele>
        <time>2023-10-04T14:50:03Z</time>
      </trkpt>
      <trkpt lat="50.05474" lon="2.15798">
        <ele>61.8</ele>
        <time>2023-10-04T14:50:04Z</time>
      </trkpt>
      <trkpt lat="50.05474" lon="2.15796">
        <ele>61.9</ele>
        <time>2023-10-04T14:50:05Z</time>
      </trkpt>
      <trkpt lat="50.05474" lon="2.15795">
        <ele>61.9</ele>
        <time>2023-10-04T14:50:06Z</time>
      </trkpt>
      <trkpt lat="50.05474" lon="2.15793">
        <ele>61.9</ele>
        <time>2023-10-04T14:50:07Z</time>
      </trkpt>
      <trkpt lat="50.05475" lon="2.15792">
        <ele>62</ele>
        <time>2023-10-04T14:50:08Z</time>
      </trkpt>
      <trkpt lat="50.05475" lon="2.15791">
        <ele>62</ele>
        <time>2023-10-04T14:50:09Z</time>
      </trkpt>
      <trkpt lat="50.05475" lon="2.1579">
        <ele>62</ele>
        <time>2023-10-04T14:50:10Z</time>
      </trkpt>
      <trkpt lat="50.05475" lon="2.1579">
        <ele>62.1</ele>
        <time>2023-10-04T14:50:11Z</time>
      </trkpt>
      <trkpt lat="50.05475" lon="2.15789">
        <ele>62.1</ele>
        <time>2023-10-04T14:50:12Z</time>
      </trkpt>
      <trkpt lat="50.05476" lon="2.15788">
        <ele>62.1</ele>
        <time>2023-10-04T14:50:13Z</time>
      </trkpt>
      <trkpt lat="50.05476" lon="2.15787">
        <ele>62.1</ele>
        <time>2023-10-04T14:50:14Z</time>
      </trkpt>
      <trkpt lat="50.05476" lon="2.15786">
        <ele>62.2</ele>
        <time>2023-10-04T14:50:15Z</time>
      </trkpt>
      <trkpt lat="50.05476" lon="2.15785">
        <ele>62.2</ele>
        <time>2023-10-04T14:50:16Z</time>
      </trkpt>
      <trkpt lat="50.05477" lon="2.15785">
        <ele>62.2</ele>
        <time>2023-10-04T14:50:17Z</time>
      </trkpt>
      <trkpt lat="50.05477" lon="2.15784">
        <ele>62.2</ele>
        <time>2023-10-04T14:50:18Z</time>
      </trkpt>
      <trkpt lat="50.05476" lon="2.15783">
        <ele>62.3</ele>
        <time>2023-10-04T14:50:19Z</time>
      </trkpt>
      <trkpt lat="50.05476" lon="2.15783">
        <ele>62.3</ele>
        <time>2023-10-04T14:50:20Z</time>
      </trkpt>
      <trkpt lat="50.05475" lon="2.15782">
        <ele>62.3</ele>
        <time>2023-10-04T14:50:21Z</time>
      </trkpt>
      <trkpt lat="50.05475" lon="2.15782">
        <ele>62.3</ele>
        <time>2023-10-04T14:50:22Z</time>
      </trkpt>
      <trkpt lat="50.05474" lon="2.15783">
        <ele>62.4</ele>
        <time>2023-10-04T14:50:23Z</time>
      </trkpt>
      <trkpt lat="50.05474" lon="2.15783">
        <ele>62.4</ele>
        <time>2023-10-04T14:50:24Z</time>
      </trkpt>
      <trkpt lat="50.05474" lon="2.15783">
        <ele>62.4</ele>
        <time>2023-10-04T14:50:25Z</time>
      </trkpt>
      <trkpt lat="50.05474" lon="2.15784">
        <ele>62.4</ele>
        <time>2023-10-04T14:50:26Z</time>
      </trkpt>
      <trkpt lat="50.05474" lon="2.15784">
        <ele>62.4</ele>
        <time>2023-10-04T14:50:27Z</time>
      </trkpt>
      <trkpt lat="50.05474" lon="2.15784">
        <ele>62.4</ele>
        <time>2023-10-04T14:50:28Z</time>
      </trkpt>
      <trkpt lat="50.05474" lon="2.15784">
        <ele>62.4</ele>
        <time>2023-10-04T14:50:29Z</time>
      </trkpt>
      <trkpt lat="50.05474" lon="2.15784">
        <ele>62.4</ele>
        <time>2023-10-04T14:50:30Z</time>
      </trkpt>
      <trkpt lat="50.05474" lon="2.15784">
        <ele>62.4</ele>
        <time>2023-10-04T14:50:31Z</time>
      </trkpt>
      <trkpt lat="50.05474" lon="2.15784">
        <ele>62.4</ele>
        <time>2023-10-04T14:50:32Z</time>
      </trkpt>
      <trkpt lat="50.05474" lon="2.15784">
        <ele>62.4</ele>
        <time>2023-10-04T14:50:33Z</time>
      </trkpt>
      <trkpt lat="50.05474" lon="2.15784">
        <ele>62.4</ele>
        <time>2023-10-04T14:50:34Z</time>
      </trkpt>
      <trkpt lat="50.05474" lon="2.15784">
        <ele>62.4</ele>
        <time>2023-10-04T14:50:35Z</time>
      </trkpt>
      <trkpt lat="50.05474" lon="2.15784">
        <ele>62.4</ele>
        <time>2023-10-04T14:50:36Z</time>
      </trkpt>
      <trkpt lat="50.05474" lon="2.15784">
        <ele>62.4</ele>
        <time>2023-10-04T14:50:37Z</time>
      </trkpt>
      <trkpt lat="50.05474" lon="2.15784">
        <ele>62.4</ele>
        <time>2023-10-04T14:50:38Z</time>
      </trkpt>
      <trkpt lat="50.05474" lon="2.15784">
        <ele>62.4</ele>
        <time>2023-10-04T14:50:39Z</time>
      </trkpt>
      <trkpt lat="50.05474" lon="2.15784">
        <ele>62.4</ele>
        <time>2023-10-04T14:50:40Z</time>
      </trkpt>
      <trkpt lat="50.05474" lon="2.15784">
        <ele>62.4</ele>
        <time>2023-10-04T14:50:41Z</time>
      </trkpt>
      <trkpt lat="50.05474" lon="2.15784">
        <ele>62.4</ele>
        <time>2023-10-04T14:50:42Z</time>
      </trkpt>
      <trkpt lat="50.05474" lon="2.15784">
        <ele>62.4</ele>
        <time>2023-10-04T14:50:43Z</time>
      </trkpt>
      <trkpt lat="50.05474" lon="2.15784">
        <ele>62.4</ele>
        <time>2023-10-04T14:50:44Z</time>
      </trkpt>
      <trkpt lat="50.05474" lon="2.15784">
        <ele>62.4</ele>
        <time>2023-10-04T14:50:45Z</time>
      </trkpt>
      <trkpt lat="50.05474" lon="2.15784">
        <ele>62.4</ele>
        <time>2023-10-04T14:50:46Z</time>
      </trkpt>
      <trkpt lat="50.05474" lon="2.15784">
        <ele>62.4</ele>
        <time>2023-10-04T14:50:47Z</time>
      </trkpt>
      <trkpt lat="50.05474" lon="2.15784">
        <ele>62.4</ele>
        <time>2023-10-04T14:50:48Z</time>
      </trkpt>
      <trkpt lat="50.05474" lon="2.15784">
        <ele>62.4</ele>
        <time>2023-10-04T14:50:49Z</time>
      </trkpt>
      <trkpt lat="50.05474" lon="2.15784">
        <ele>62.4</ele>
        <time>2023-10-04T14:50:50Z</time>
      </trkpt>
      <trkpt lat="50.05474" lon="2.15784">
        <ele>62.4</ele>
        <time>2023-10-04T14:50:51Z</time>
      </trkpt>
      <trkpt lat="50.05474" lon="2.15784">
        <ele>62.4</ele>
        <time>2023-10-04T14:50:52Z</time>
      </trkpt>
      <trkpt lat="50.05474" lon="2.15784">
        <ele>62.4</ele>
        <time>2023-10-04T14:50:53Z</time>
      </trkpt>
      <trkpt lat="50.05474" lon="2.15784">
        <ele>62.4</ele>
        <time>2023-10-04T14:50:54Z</time>
      </trkpt>
      <trkpt lat="50.05474" lon="2.15784">
        <ele>62.4</ele>
        <time>2023-10-04T14:50:55Z</time>
      </trkpt>
      <trkpt lat="50.05474" lon="2.15784">
        <ele>62.4</ele>
        <time>2023-10-04T14:50:56Z</time>
      </trkpt>
      <trkpt lat="50.05474" lon="2.15784">
        <ele>62.4</ele>
        <time>2023-10-04T14:50:57Z</time>
      </trkpt>
      <trkpt lat="50.05474" lon="2.15784">
        <ele>62.4</ele>
        <time>2023-10-04T14:50:58Z</time>
      </trkpt>
      <trkpt lat="50.05474" lon="2.15784">
        <ele>62.4</ele>
        <time>2023-10-04T14:50:59Z</time>
      </trkpt>
      <trkpt lat="50.05474" lon="2.15784">
        <ele>62.4</ele>
        <time>2023-10-04T14:51:00Z</time>
      </trkpt>
      <trkpt lat="50.05474" lon="2.15784">
        <ele>62.4</ele>
        <time>2023-10-04T14:51:01Z</time>
      </trkpt>
      <trkpt lat="50.05474" lon="2.15784">
        <ele>62.4</ele>
        <time>2023-10-04T14:51:02Z</time>
      </trkpt>
      <trkpt lat="50.05474" lon="2.15784">
        <ele>62.4</ele>
        <time>2023-10-04T14:51:03Z</time>
      </trkpt>
      <trkpt lat="50.05474" lon="2.15784">
        <ele>62.4</ele>
        <time>2023-10-04T14:51:04Z</time>
      </trkpt>
      <trkpt lat="50.05474" lon="2.15784">
        <ele>62.4</ele>
        <time>2023-10-04T14:51:05Z</time>
      </trkpt>
      <trkpt lat="50.05474" lon="2.15784">
        <ele>62.4</ele>
        <time>2023-10-04T14:51:06Z</time>
      </trkpt>
      <trkpt lat="50.05474" lon="2.15784">
        <ele>62.4</ele>
        <time>2023-10-04T14:51:07Z</time>
      </trkpt>
      <trkpt lat="50.05474" lon="2.15787">
        <ele>62.5</ele>
        <time>2023-10-04T14:51:08Z</time>
      </trkpt>
      <trkpt lat="50.05475" lon="2.15789">
        <ele>62.6</ele>
        <time>2023-10-04T14:51:09Z</time>
      </trkpt>
      <trkpt lat="50.05475" lon="2.1579">
        <ele>62.6</ele>
        <time>2023-10-04T14:51:10Z</time>
      </trkpt>
      <trkpt lat="50.05475" lon="2.15791">
        <ele>62.6</ele>
        <time>2023-10-04T14:51:11Z</time>
      </trkpt>
      <trkpt lat="50.05475" lon="2.15791">
        <ele>62.7</ele>
        <time>2023-10-04T14:51:12Z</time>
      </trkpt>
      <trkpt lat="50.05475" lon="2.15791">
        <ele>62.7</ele>
        <time>2023-10-04T14:51:13Z</time>
      </trkpt>
      <trkpt lat="50.05475" lon="2.15791">
        <ele>62.7</ele>
        <time>2023-10-04T14:51:14Z</time>
      </trkpt>
      <trkpt lat="50.05475" lon="2.15791">
        <ele>62.7</ele>
        <time>2023-10-04T14:51:15Z</time>
      </trkpt>
      <trkpt lat="50.05475" lon="2.15791">
        <ele>62.7</ele>
        <time>2023-10-04T14:51:16Z</time>
      </trkpt>
      <trkpt lat="50.05475" lon="2.15791">
        <ele>62.7</ele>
        <time>2023-10-04T14:51:17Z</time>
      </trkpt>
      <trkpt lat="50.05475" lon="2.15791">
        <ele>62.7</ele>
        <time>2023-10-04T14:51:18Z</time>
      </trkpt>
      <trkpt lat="50.05475" lon="2.15791">
        <ele>62.7</ele>
        <time>2023-10-04T14:51:19Z</time>
      </trkpt>
      <trkpt lat="50.05475" lon="2.15791">
        <ele>62.7</ele>
        <time>2023-10-04T14:51:20Z</time>
      </trkpt>
      <trkpt lat="50.05475" lon="2.15791">
        <ele>62.7</ele>
        <time>2023-10-04T14:51:21Z</time>
      </trkpt>
      <trkpt lat="50.05475" lon="2.15791">
        <ele>62.7</ele>
        <time>2023-10-04T14:51:22Z</time>
      </trkpt>
      <trkpt lat="50.05475" lon="2.15791">
        <ele>62.7</ele>
        <time>2023-10-04T14:51:23Z</time>
      </trkpt>
      <trkpt lat="50.05475" lon="2.15791">
        <ele>62.7</ele>
        <time>2023-10-04T14:51:24Z</time>
      </trkpt>
      <trkpt lat="50.05475" lon="2.15791">
        <ele>62.7</ele>
        <time>2023-10-04T14:51:25Z</time>
      </trkpt>
      <trkpt lat="50.05475" lon="2.15791">
        <ele>62.7</ele>
        <time>2023-10-04T14:51:26Z</time>
      </trkpt>
      <trkpt lat="50.05475" lon="2.15791">
        <ele>62.7</ele>
        <time>2023-10-04T14:51:27Z</time>
      </trkpt>
      <trkpt lat="50.05475" lon="2.15791">
        <ele>62.7</ele>
        <time>2023-10-04T14:51:28Z</time>
      </trkpt>
      <trkpt lat="50.05475" lon="2.15791">
        <ele>62.7</ele>
        <time>2023-10-04T14:51:29Z</time>
      </trkpt>
      <trkpt lat="50.05475" lon="2.15791">
        <ele>62.7</ele>
        <time>2023-10-04T14:51:30Z</time>
      </trkpt>
      <trkpt lat="50.05475" lon="2.15791">
        <ele>62.7</ele>
        <time>2023-10-04T14:51:31Z</time>
      </trkpt>
      <trkpt lat="50.05475" lon="2.1579">
        <ele>62.7</ele>
        <time>2023-10-04T14:51:32Z</time>
      </trkpt>
      <trkpt lat="50.05475" lon="2.1579">
        <ele>62.7</ele>
        <time>2023-10-04T14:51:33Z</time>
      </trkpt>
      <trkpt lat="50.05475" lon="2.1579">
        <ele>62.7</ele>
        <time>2023-10-04T14:51:34Z</time>
      </trkpt>
      <trkpt lat="50.05474" lon="2.1579">
        <ele>62.7</ele>
        <time>2023-10-04T14:51:35Z</time>
      </trkpt>
      <trkpt lat="50.05474" lon="2.1579">
        <ele>62.7</ele>
        <time>2023-10-04T14:51:36Z</time>
      </trkpt>
      <trkpt lat="50.05474" lon="2.1579">
        <ele>62.7</ele>
        <time>2023-10-04T14:51:37Z</time>
      </trkpt>
      <trkpt lat="50.05474" lon="2.1579">
        <ele>62.7</ele>
        <time>2023-10-04T14:51:38Z</time>
      </trkpt>
      <trkpt lat="50.05474" lon="2.15789">
        <ele>62.8</ele>
        <time>2023-10-04T14:51:39Z</time>
      </trkpt>
      <trkpt lat="50.05474" lon="2.15787">
        <ele>62.8</ele>
        <time>2023-10-04T14:51:40Z</time>
      </trkpt>
      <trkpt lat="50.05473" lon="2.15786">
        <ele>62.8</ele>
        <time>2023-10-04T14:51:41Z</time>
      </trkpt>
      <trkpt lat="50.05473" lon="2.15785">
        <ele>62.9</ele>
        <time>2023-10-04T14:51:42Z</time>
      </trkpt>
      <trkpt lat="50.05472" lon="2.15784">
        <ele>62.9</ele>
        <time>2023-10-04T14:51:43Z</time>
      </trkpt>
      <trkpt lat="50.05471" lon="2.15783">
        <ele>63</ele>
        <time>2023-10-04T14:51:44Z</time>
      </trkpt>
      <trkpt lat="50.05471" lon="2.15782">
        <ele>63</ele>
        <time>2023-10-04T14:51:45Z</time>
      </trkpt>
      <trkpt lat="50.05471" lon="2.15782">
        <ele>63</ele>
        <time>2023-10-04T14:51:46Z</time>
      </trkpt>
      <trkpt lat="50.0547" lon="2.15782">
        <ele>63</ele>
        <time>2023-10-04T14:51:47Z</time>
      </trkpt>
      <trkpt lat="50.0547" lon="2.15782">
        <ele>63</ele>
        <time>2023-10-04T14:51:48Z</time>
      </trkpt>
      <trkpt lat="50.0547" lon="2.15782">
        <ele>63</ele>
        <time>2023-10-04T14:51:49Z</time>
      </trkpt>
      <trkpt lat="50.0547" lon="2.15782">
        <ele>63</ele>
        <time>2023-10-04T14:51:50Z</time>
      </trkpt>
      <trkpt lat="50.0547" lon="2.15781">
        <ele>63</ele>
        <time>2023-10-04T14:51:51Z</time>
      </trkpt>
      <trkpt lat="50.05469" lon="2.15781">
        <ele>63.1</ele>
        <time>2023-10-04T14:51:52Z</time>
      </trkpt>
      <trkpt lat="50.05469" lon="2.1578">
        <ele>63.1</ele>
        <time>2023-10-04T14:51:53Z</time>
      </trkpt>
      <trkpt lat="50.05468" lon="2.15779">
        <ele>63</ele>
        <time>2023-10-04T14:51:54Z</time>
      </trkpt>
      <trkpt lat="50.05467" lon="2.15779">
        <ele>62.9</ele>
        <time>2023-10-04T14:51:55Z</time>
      </trkpt>
      <trkpt lat="50.05466" lon="2.15778">
        <ele>62.9</ele>
        <time>2023-10-04T14:51:56Z</time>
      </trkpt>
      <trkpt lat="50.05465" lon="2.15778">
        <ele>62.8</ele>
        <time>2023-10-04T14:51:57Z</time>
      </trkpt>
      <trkpt lat="50.05464" lon="2.15777">
        <ele>62.7</ele>
        <time>2023-10-04T14:51:58Z</time>
      </trkpt>
      <trkpt lat="50.05463" lon="2.15776">
        <ele>62.7</ele>
        <time>2023-10-04T14:51:59Z</time>
      </trkpt>
      <trkpt lat="50.05462" lon="2.15776">
        <ele>62.6</ele>
        <time>2023-10-04T14:52:00Z</time>
      </trkpt>
      <trkpt lat="50.05461" lon="2.15775">
        <ele>62.6</ele>
        <time>2023-10-04T14:52:01Z</time>
      </trkpt>
      <trkpt lat="50.0546" lon="2.15775">
        <ele>62.5</ele>
        <time>2023-10-04T14:52:02Z</time>
      </trkpt>
      <trkpt lat="50.05459" lon="2.15775">
        <ele>62.5</ele>
        <time>2023-10-04T14:52:03Z</time>
      </trkpt>
      <trkpt lat="50.05459" lon="2.15774">
        <ele>62.4</ele>
        <time>2023-10-04T14:52:04Z</time>
      </trkpt>
      <trkpt lat="50.05458" lon="2.15774">
        <ele>62.4</ele>
        <time>2023-10-04T14:52:05Z</time>
      </trkpt>
      <trkpt lat="50.05457" lon="2.15773">
        <ele>62.3</ele>
        <time>2023-10-04T14:52:06Z</time>
      </trkpt>
      <trkpt lat="50.05457" lon="2.15773">
        <ele>62.3</ele>
        <time>2023-10-04T14:52:07Z</time>
      </trkpt>
      <trkpt lat="50.05456" lon="2.15772">
        <ele>62.2</ele>
        <time>2023-10-04T14:52:08Z</time>
      </trkpt>
      <trkpt lat="50.05455" lon="2.15771">
        <ele>62.2</ele>
        <time>2023-10-04T14:52:09Z</time>
      </trkpt>
      <trkpt lat="50.05455" lon="2.15771">
        <ele>62.1</ele>
        <time>2023-10-04T14:52:10Z</time>
      </trkpt>
      <trkpt lat="50.05454" lon="2.1577">
        <ele>62.1</ele>
        <time>2023-10-04T14:52:11Z</time>
      </trkpt>
      <trkpt lat="50.05453" lon="2.15769">
        <ele>62</ele>
        <time>2023-10-04T14:52:12Z</time>
      </trkpt>
      <trkpt lat="50.05453" lon="2.15769">
        <ele>62</ele>
        <time>2023-10-04T14:52:13Z</time>
      </trkpt>
      <trkpt lat="50.05452" lon="2.15768">
        <ele>61.9</ele>
        <time>2023-10-04T14:52:14Z</time>
      </trkpt>
      <trkpt lat="50.05451" lon="2.15767">
        <ele>61.8</ele>
        <time>2023-10-04T14:52:15Z</time>
      </trkpt>
      <trkpt lat="50.0545" lon="2.15766">
        <ele>61.7</ele>
        <time>2023-10-04T14:52:16Z</time>
      </trkpt>
      <trkpt lat="50.05449" lon="2.15764">
        <ele>61.6</ele>
        <time>2023-10-04T14:52:17Z</time>
      </trkpt>
      <trkpt lat="50.05448" lon="2.15762">
        <ele>61.4</ele>
        <time>2023-10-04T14:52:18Z</time>
      </trkpt>
      <trkpt lat="50.05447" lon="2.15761">
        <ele>61.3</ele>
        <time>2023-10-04T14:52:19Z</time>
      </trkpt>
      <trkpt lat="50.05445" lon="2.15759">
        <ele>61.1</ele>
        <time>2023-10-04T14:52:20Z</time>
      </trkpt>
      <trkpt lat="50.05444" lon="2.15756">
        <ele>61</ele>
        <time>2023-10-04T14:52:21Z</time>
      </trkpt>
      <trkpt lat="50.05443" lon="2.15756">
        <ele>60.9</ele>
        <time>2023-10-04T14:52:22Z</time>
      </trkpt>
      <trkpt lat="50.05442" lon="2.15755">
        <ele>60.8</ele>
        <time>2023-10-04T14:52:23Z</time>
      </trkpt>
      <trkpt lat="50.05442" lon="2.15754">
        <ele>60.7</ele>
        <time>2023-10-04T14:52:24Z</time>
      </trkpt>
      <trkpt lat="50.05441" lon="2.15753">
        <ele>60.6</ele>
        <time>2023-10-04T14:52:25Z</time>
      </trkpt>
      <trkpt lat="50.0544" lon="2.15752">
        <ele>60.6</ele>
        <time>2023-10-04T14:52:26Z</time>
      </trkpt>
      <trkpt lat="50.0544" lon="2.15751">
        <ele>60.5</ele>
        <time>2023-10-04T14:52:27Z</time>
      </trkpt>
      <trkpt lat="50.05439" lon="2.1575">
        <ele>60.4</ele>
        <time>2023-10-04T14:52:28Z</time>
      </trkpt>
      <trkpt lat="50.05439" lon="2.15749">
        <ele>60.4</ele>
        <time>2023-10-04T14:52:29Z</time>
      </trkpt>
      <trkpt lat="50.05438" lon="2.15749">
        <ele>60.3</ele>
        <time>2023-10-04T14:52:30Z</time>
      </trkpt>
      <trkpt lat="50.05437" lon="2.15747">
        <ele>60.2</ele>
        <time>2023-10-04T14:52:31Z</time>
      </trkpt>
      <trkpt lat="50.05437" lon="2.15746">
        <ele>60.2</ele>
        <time>2023-10-04T14:52:32Z</time>
      </trkpt>
      <trkpt lat="50.05436" lon="2.15745">
        <ele>60.1</ele>
        <time>2023-10-04T14:52:33Z</time>
      </trkpt>
      <trkpt lat="50.05436" lon="2.15745">
        <ele>60</ele>
        <time>2023-10-04T14:52:34Z</time>
      </trkpt>
      <trkpt lat="50.05435" lon="2.15744">
        <ele>60</ele>
        <time>2023-10-04T14:52:35Z</time>
      </trkpt>
      <trkpt lat="50.05434" lon="2.15743">
        <ele>59.9</ele>
        <time>2023-10-04T14:52:36Z</time>
      </trkpt>
      <trkpt lat="50.05433" lon="2.15742">
        <ele>59.8</ele>
        <time>2023-10-04T14:52:37Z</time>
      </trkpt>
      <trkpt lat="50.05433" lon="2.15741">
        <ele>59.8</ele>
        <time>2023-10-04T14:52:38Z</time>
      </trkpt>
      <trkpt lat="50.05432" lon="2.1574">
        <ele>59.7</ele>
        <time>2023-10-04T14:52:39Z</time>
      </trkpt>
      <trkpt lat="50.05431" lon="2.15739">
        <ele>59.6</ele>
        <time>2023-10-04T14:52:40Z</time>
      </trkpt>
      <trkpt lat="50.05431" lon="2.15739">
        <ele>59.6</ele>
        <time>2023-10-04T14:52:41Z</time>
      </trkpt>
      <trkpt lat="50.0543" lon="2.15738">
        <ele>59.5</ele>
        <time>2023-10-04T14:52:42Z</time>
      </trkpt>
      <trkpt lat="50.05429" lon="2.15737">
        <ele>59.4</ele>
        <time>2023-10-04T14:52:43Z</time>
      </trkpt>
      <trkpt lat="50.05428" lon="2.15736">
        <ele>59.4</ele>
        <time>2023-10-04T14:52:44Z</time>
      </trkpt>
      <trkpt lat="50.05428" lon="2.15735">
        <ele>59.3</ele>
        <time>2023-10-04T14:52:45Z</time>
      </trkpt>
      <trkpt lat="50.05427" lon="2.15734">
        <ele>59.2</ele>
        <time>2023-10-04T14:52:46Z</time>
      </trkpt>
      <trkpt lat="50.05426" lon="2.15733">
        <ele>59.2</ele>
        <time>2023-10-04T14:52:47Z</time>
      </trkpt>
      <trkpt lat="50.05425" lon="2.15732">
        <ele>59.1</ele>
        <time>2023-10-04T14:52:48Z</time>
      </trkpt>
      <trkpt lat="50.05424" lon="2.15731">
        <ele>59</ele>
        <time>2023-10-04T14:52:49Z</time>
      </trkpt>
      <trkpt lat="50.05423" lon="2.1573">
        <ele>58.9</ele>
        <time>2023-10-04T14:52:50Z</time>
      </trkpt>
      <trkpt lat="50.05423" lon="2.15728">
        <ele>58.8</ele>
        <time>2023-10-04T14:52:51Z</time>
      </trkpt>
      <trkpt lat="50.05422" lon="2.15727">
        <ele>58.7</ele>
        <time>2023-10-04T14:52:52Z</time>
      </trkpt>
      <trkpt lat="50.05421" lon="2.15726">
        <ele>58.7</ele>
        <time>2023-10-04T14:52:53Z</time>
      </trkpt>
      <trkpt lat="50.05419" lon="2.15724">
        <ele>58.5</ele>
        <time>2023-10-04T14:52:54Z</time>
      </trkpt>
      <trkpt lat="50.05419" lon="2.15723">
        <ele>58.5</ele>
        <time>2023-10-04T14:52:55Z</time>
      </trkpt>
      <trkpt lat="50.05418" lon="2.15722">
        <ele>58.4</ele>
        <time>2023-10-04T14:52:56Z</time>
      </trkpt>
      <trkpt lat="50.05417" lon="2.1572">
        <ele>58.3</ele>
        <time>2023-10-04T14:52:57Z</time>
      </trkpt>
      <trkpt lat="50.05416" lon="2.15719">
        <ele>58.2</ele>
        <time>2023-10-04T14:52:58Z</time>
      </trkpt>
      <trkpt lat="50.05416" lon="2.15718">
        <ele>58.1</ele>
        <time>2023-10-04T14:52:59Z</time>
      </trkpt>
      <trkpt lat="50.05415" lon="2.15717">
        <ele>58.1</ele>
        <time>2023-10-04T14:53:00Z</time>
      </trkpt>
      <trkpt lat="50.05414" lon="2.15716">
        <ele>58</ele>
        <time>2023-10-04T14:53:01Z</time>
      </trkpt>
      <trkpt lat="50.05413" lon="2.15715">
        <ele>57.9</ele>
        <time>2023-10-04T14:53:02Z</time>
      </trkpt>
      <trkpt lat="50.05413" lon="2.15715">
        <ele>57.9</ele>
        <time>2023-10-04T14:53:03Z</time>
      </trkpt>
      <trkpt lat="50.05412" lon="2.15714">
        <ele>57.9</ele>
        <time>2023-10-04T14:53:04Z</time>
      </trkpt>
      <trkpt lat="50.05412" lon="2.15714">
        <ele>57.8</ele>
        <time>2023-10-04T14:53:05Z</time>
      </trkpt>
      <trkpt lat="50.05411" lon="2.15713">
        <ele>57.8</ele>
        <time>2023-10-04T14:53:06Z</time>
      </trkpt>
      <trkpt lat="50.05411" lon="2.15712">
        <ele>57.7</ele>
        <time>2023-10-04T14:53:07Z</time>
      </trkpt>
      <trkpt lat="50.0541" lon="2.15711">
        <ele>57.7</ele>
        <time>2023-10-04T14:53:08Z</time>
      </trkpt>
      <trkpt lat="50.0541" lon="2.15711">
        <ele>57.6</ele>
        <time>2023-10-04T14:53:09Z</time>
      </trkpt>
      <trkpt lat="50.05409" lon="2.1571">
        <ele>57.6</ele>
        <time>2023-10-04T14:53:10Z</time>
      </trkpt>
      <trkpt lat="50.05409" lon="2.15709">
        <ele>57.5</ele>
        <time>2023-10-04T14:53:11Z</time>
      </trkpt>
      <trkpt lat="50.05408" lon="2.15709">
        <ele>57.5</ele>
        <time>2023-10-04T14:53:12Z</time>
      </trkpt>
      <trkpt lat="50.05407" lon="2.15709">
        <ele>57.4</ele>
        <time>2023-10-04T14:53:13Z</time>
      </trkpt>
      <trkpt lat="50.05406" lon="2.15709">
        <ele>57.4</ele>
        <time>2023-10-04T14:53:14Z</time>
      </trkpt>
      <trkpt lat="50.05406" lon="2.15708">
        <ele>57.3</ele>
        <time>2023-10-04T14:53:15Z</time>
      </trkpt>
      <trkpt lat="50.05405" lon="2.15707">
        <ele>57.3</ele>
        <time>2023-10-04T14:53:16Z</time>
      </trkpt>
      <trkpt lat="50.05404" lon="2.15706">
        <ele>57.2</ele>
        <time>2023-10-04T14:53:17Z</time>
      </trkpt>
      <trkpt lat="50.05404" lon="2.15706">
        <ele>57.1</ele>
        <time>2023-10-04T14:53:18Z</time>
      </trkpt>
      <trkpt lat="50.05403" lon="2.15705">
        <ele>57.1</ele>
        <time>2023-10-04T14:53:19Z</time>
      </trkpt>
      <trkpt lat="50.05402" lon="2.15704">
        <ele>57</ele>
        <time>2023-10-04T14:53:20Z</time>
      </trkpt>
      <trkpt lat="50.05402" lon="2.15703">
        <ele>57</ele>
        <time>2023-10-04T14:53:21Z</time>
      </trkpt>
      <trkpt lat="50.05401" lon="2.15702">
        <ele>56.9</ele>
        <time>2023-10-04T14:53:22Z</time>
      </trkpt>
      <trkpt lat="50.054" lon="2.15701">
        <ele>56.8</ele>
        <time>2023-10-04T14:53:23Z</time>
      </trkpt>
      <trkpt lat="50.05399" lon="2.157">
        <ele>56.7</ele>
        <time>2023-10-04T14:53:24Z</time>
      </trkpt>
      <trkpt lat="50.05398" lon="2.15699">
        <ele>56.7</ele>
        <time>2023-10-04T14:53:25Z</time>
      </trkpt>
      <trkpt lat="50.05398" lon="2.15698">
        <ele>56.6</ele>
        <time>2023-10-04T14:53:26Z</time>
      </trkpt>
      <trkpt lat="50.05397" lon="2.15697">
        <ele>56.6</ele>
        <time>2023-10-04T14:53:27Z</time>
      </trkpt>
      <trkpt lat="50.05396" lon="2.15697">
        <ele>56.5</ele>
        <time>2023-10-04T14:53:28Z</time>
      </trkpt>
      <trkpt lat="50.05396" lon="2.15696">
        <ele>56.5</ele>
        <time>2023-10-04T14:53:29Z</time>
      </trkpt>
      <trkpt lat="50.05395" lon="2.15695">
        <ele>56.4</ele>
        <time>2023-10-04T14:53:30Z</time>
      </trkpt>
      <trkpt lat="50.05394" lon="2.15695">
        <ele>56.4</ele>
        <time>2023-10-04T14:53:31Z</time>
      </trkpt>
      <trkpt lat="50.05394" lon="2.15694">
        <ele>56.3</ele>
        <time>2023-10-04T14:53:32Z</time>
      </trkpt>
      <trkpt lat="50.05393" lon="2.15693">
        <ele>56.3</ele>
        <time>2023-10-04T14:53:33Z</time>
      </trkpt>
      <trkpt lat="50.05392" lon="2.15692">
        <ele>56.2</ele>
        <time>2023-10-04T14:53:34Z</time>
      </trkpt>
      <trkpt lat="50.05391" lon="2.1569">
        <ele>56.1</ele>
        <time>2023-10-04T14:53:35Z</time>
      </trkpt>
      <trkpt lat="50.0539" lon="2.15689">
        <ele>56.1</ele>
        <time>2023-10-04T14:53:36Z</time>
      </trkpt>
      <trkpt lat="50.05389" lon="2.15689">
        <ele>56</ele>
        <time>2023-10-04T14:53:37Z</time>
      </trkpt>
      <trkpt lat="50.05388" lon="2.15688">
        <ele>55.9</ele>
        <time>2023-10-04T14:53:38Z</time>
      </trkpt>
      <trkpt lat="50.05388" lon="2.15687">
        <ele>55.9</ele>
        <time>2023-10-04T14:53:39Z</time>
      </trkpt>
      <trkpt lat="50.05387" lon="2.15686">
        <ele>55.8</ele>
        <time>2023-10-04T14:53:40Z</time>
      </trkpt>
      <trkpt lat="50.05386" lon="2.15686">
        <ele>55.8</ele>
        <time>2023-10-04T14:53:41Z</time>
      </trkpt>
      <trkpt lat="50.05385" lon="2.15685">
        <ele>55.7</ele>
        <time>2023-10-04T14:53:42Z</time>
      </trkpt>
      <trkpt lat="50.05384" lon="2.15684">
        <ele>55.6</ele>
        <time>2023-10-04T14:53:43Z</time>
      </trkpt>
      <trkpt lat="50.05383" lon="2.15683">
        <ele>55.6</ele>
        <time>2023-10-04T14:53:44Z</time>
      </trkpt>
      <trkpt lat="50.05382" lon="2.15682">
        <ele>55.5</ele>
        <time>2023-10-04T14:53:45Z</time>
      </trkpt>
      <trkpt lat="50.05381" lon="2.15681">
        <ele>55.5</ele>
        <time>2023-10-04T14:53:46Z</time>
      </trkpt>
      <trkpt lat="50.0538" lon="2.1568">
        <ele>55.4</ele>
        <time>2023-10-04T14:53:47Z</time>
      </trkpt>
      <trkpt lat="50.05379" lon="2.1568">
        <ele>55.4</ele>
        <time>2023-10-04T14:53:48Z</time>
      </trkpt>
      <trkpt lat="50.05378" lon="2.15679">
        <ele>55.3</ele>
        <time>2023-10-04T14:53:49Z</time>
      </trkpt>
      <trkpt lat="50.05378" lon="2.15678">
        <ele>55.3</ele>
        <time>2023-10-04T14:53:50Z</time>
      </trkpt>
      <trkpt lat="50.05377" lon="2.15677">
        <ele>55.3</ele>
        <time>2023-10-04T14:53:51Z</time>
      </trkpt>
      <trkpt lat="50.05376" lon="2.15676">
        <ele>55.2</ele>
        <time>2023-10-04T14:53:52Z</time>
      </trkpt>
      <trkpt lat="50.05375" lon="2.15675">
        <ele>55.2</ele>
        <time>2023-10-04T14:53:53Z</time>
      </trkpt>
      <trkpt lat="50.05375" lon="2.15674">
        <ele>55.1</ele>
        <time>2023-10-04T14:53:54Z</time>
      </trkpt>
      <trkpt lat="50.05374" lon="2.15673">
        <ele>55.1</ele>
        <time>2023-10-04T14:53:55Z</time>
      </trkpt>
      <trkpt lat="50.05373" lon="2.15672">
        <ele>55</ele>
        <time>2023-10-04T14:53:56Z</time>
      </trkpt>
      <trkpt lat="50.05373" lon="2.15671">
        <ele>55</ele>
        <time>2023-10-04T14:53:57Z</time>
      </trkpt>
      <trkpt lat="50.05372" lon="2.15671">
        <ele>54.9</ele>
        <time>2023-10-04T14:53:58Z</time>
      </trkpt>
      <trkpt lat="50.05371" lon="2.1567">
        <ele>54.9</ele>
        <time>2023-10-04T14:53:59Z</time>
      </trkpt>
      <trkpt lat="50.0537" lon="2.15669">
        <ele>54.8</ele>
        <time>2023-10-04T14:54:00Z</time>
      </trkpt>
      <trkpt lat="50.0537" lon="2.15668">
        <ele>54.8</ele>
        <time>2023-10-04T14:54:01Z</time>
      </trkpt>
      <trkpt lat="50.05369" lon="2.15667">
        <ele>54.8</ele>
        <time>2023-10-04T14:54:02Z</time>
      </trkpt>
      <trkpt lat="50.05368" lon="2.15667">
        <ele>54.7</ele>
        <time>2023-10-04T14:54:03Z</time>
      </trkpt>
      <trkpt lat="50.05367" lon="2.15666">
        <ele>54.7</ele>
        <time>2023-10-04T14:54:04Z</time>
      </trkpt>
      <trkpt lat="50.05367" lon="2.15665">
        <ele>54.6</ele>
        <time>2023-10-04T14:54:05Z</time>
      </trkpt>
      <trkpt lat="50.05366" lon="2.15664">
        <ele>54.6</ele>
        <time>2023-10-04T14:54:06Z</time>
      </trkpt>
      <trkpt lat="50.05365" lon="2.15663">
        <ele>54.5</ele>
        <time>2023-10-04T14:54:07Z</time>
      </trkpt>
      <trkpt lat="50.05364" lon="2.15662">
        <ele>54.5</ele>
        <time>2023-10-04T14:54:08Z</time>
      </trkpt>
      <trkpt lat="50.05363" lon="2.15661">
        <ele>54.4</ele>
        <time>2023-10-04T14:54:09Z</time>
      </trkpt>
      <trkpt lat="50.05363" lon="2.1566">
        <ele>54.4</ele>
        <time>2023-10-04T14:54:10Z</time>
      </trkpt>
      <trkpt lat="50.05362" lon="2.15659">
        <ele>54.4</ele>
        <time>2023-10-04T14:54:11Z</time>
      </trkpt>
      <trkpt lat="50.05361" lon="2.15658">
        <ele>54.3</ele>
        <time>2023-10-04T14:54:12Z</time>
      </trkpt>
      <trkpt lat="50.0536" lon="2.15657">
        <ele>54.3</ele>
        <time>2023-10-04T14:54:13Z</time>
      </trkpt>
      <trkpt lat="50.05359" lon="2.15656">
        <ele>54.3</ele>
        <time>2023-10-04T14:54:14Z</time>
      </trkpt>
      <trkpt lat="50.05359" lon="2.15655">
        <ele>54.2</ele>
        <time>2023-10-04T14:54:15Z</time>
      </trkpt>
      <trkpt lat="50.05358" lon="2.15654">
        <ele>54.2</ele>
        <time>2023-10-04T14:54:16Z</time>
      </trkpt>
      <trkpt lat="50.05357" lon="2.15654">
        <ele>54.1</ele>
        <time>2023-10-04T14:54:17Z</time>
      </trkpt>
      <trkpt lat="50.05356" lon="2.15653">
        <ele>54.1</ele>
        <time>2023-10-04T14:54:18Z</time>
      </trkpt>
      <trkpt lat="50.05356" lon="2.15652">
        <ele>54.1</ele>
        <time>2023-10-04T14:54:19Z</time>
      </trkpt>
      <trkpt lat="50.05355" lon="2.15651">
        <ele>54.1</ele>
        <time>2023-10-04T14:54:20Z</time>
      </trkpt>
      <trkpt lat="50.05354" lon="2.1565">
        <ele>54</ele>
        <time>2023-10-04T14:54:21Z</time>
      </trkpt>
      <trkpt lat="50.05353" lon="2.15649">
        <ele>54</ele>
        <time>2023-10-04T14:54:22Z</time>
      </trkpt>
      <trkpt lat="50.05353" lon="2.15647">
        <ele>53.9</ele>
        <time>2023-10-04T14:54:23Z</time>
      </trkpt>
      <trkpt lat="50.05352" lon="2.15646">
        <ele>53.9</ele>
        <time>2023-10-04T14:54:24Z</time>
      </trkpt>
      <trkpt lat="50.05351" lon="2.15645">
        <ele>53.9</ele>
        <time>2023-10-04T14:54:25Z</time>
      </trkpt>
      <trkpt lat="50.05351" lon="2.15644">
        <ele>53.9</ele>
        <time>2023-10-04T14:54:26Z</time>
      </trkpt>
      <trkpt lat="50.0535" lon="2.15643">
        <ele>53.8</ele>
        <time>2023-10-04T14:54:27Z</time>
      </trkpt>
      <trkpt lat="50.05349" lon="2.15642">
        <ele>53.8</ele>
        <time>2023-10-04T14:54:28Z</time>
      </trkpt>
      <trkpt lat="50.05348" lon="2.15641">
        <ele>53.8</ele>
        <time>2023-10-04T14:54:29Z</time>
      </trkpt>
      <trkpt lat="50.05347" lon="2.15639">
        <ele>53.7</ele>
        <time>2023-10-04T14:54:30Z</time>
      </trkpt>
      <trkpt lat="50.05347" lon="2.15638">
        <ele>53.7</ele>
        <time>2023-10-04T14:54:31Z</time>
      </trkpt>
      <trkpt lat="50.05346" lon="2.15637">
        <ele>53.7</ele>
        <time>2023-10-04T14:54:32Z</time>
      </trkpt>
      <trkpt lat="50.05345" lon="2.15636">
        <ele>53.6</ele>
        <time>2023-10-04T14:54:33Z</time>
      </trkpt>
      <trkpt lat="50.05344" lon="2.15635">
        <ele>53.6</ele>
        <time>2023-10-04T14:54:34Z</time>
      </trkpt>
      <trkpt lat="50.05343" lon="2.15634">
        <ele>53.6</ele>
        <time>2023-10-04T14:54:35Z</time>
      </trkpt>
      <trkpt lat="50.05342" lon="2.15633">
        <ele>53.5</ele>
        <time>2023-10-04T14:54:36Z</time>
      </trkpt>
      <trkpt lat="50.05341" lon="2.15632">
        <ele>53.5</ele>
        <time>2023-10-04T14:54:37Z</time>
      </trkpt>
      <trkpt lat="50.05341" lon="2.15631">
        <ele>53.5</ele>
        <time>2023-10-04T14:54:38Z</time>
      </trkpt>
      <trkpt lat="50.0534" lon="2.1563">
        <ele>53.5</ele>
        <time>2023-10-04T14:54:39Z</time>
      </trkpt>
      <trkpt lat="50.05339" lon="2.15629">
        <ele>53.4</ele>
        <time>2023-10-04T14:54:40Z</time>
      </trkpt>
      <trkpt lat="50.05338" lon="2.15628">
        <ele>53.4</ele>
        <time>2023-10-04T14:54:41Z</time>
      </trkpt>
      <trkpt lat="50.05338" lon="2.15627">
        <ele>53.4</ele>
        <time>2023-10-04T14:54:42Z</time>
      </trkpt>
      <trkpt lat="50.05337" lon="2.15626">
        <ele>53.4</ele>
        <time>2023-10-04T14:54:43Z</time>
      </trkpt>
      <trkpt lat="50.05336" lon="2.15625">
        <ele>53.3</ele>
        <time>2023-10-04T14:54:44Z</time>
      </trkpt>
      <trkpt lat="50.05336" lon="2.15624">
        <ele>53.3</ele>
        <time>2023-10-04T14:54:45Z</time>
      </trkpt>
      <trkpt lat="50.05335" lon="2.15623">
        <ele>53.3</ele>
        <time>2023-10-04T14:54:46Z</time>
      </trkpt>
      <trkpt lat="50.05334" lon="2.15622">
        <ele>53.3</ele>
        <time>2023-10-04T14:54:47Z</time>
      </trkpt>
      <trkpt lat="50.05334" lon="2.15621">
        <ele>53.3</ele>
        <time>2023-10-04T14:54:48Z</time>
      </trkpt>
      <trkpt lat="50.05333" lon="2.1562">
        <ele>53.2</ele>
        <time>2023-10-04T14:54:49Z</time>
      </trkpt>
      <trkpt lat="50.05332" lon="2.15619">
        <ele>53.2</ele>
        <time>2023-10-04T14:54:50Z</time>
      </trkpt>
      <trkpt lat="50.05332" lon="2.15617">
        <ele>53.2</ele>
        <time>2023-10-04T14:54:51Z</time>
      </trkpt>
      <trkpt lat="50.05331" lon="2.15616">
        <ele>53.2</ele>
        <time>2023-10-04T14:54:52Z</time>
      </trkpt>
      <trkpt lat="50.05331" lon="2.15615">
        <ele>53.1</ele>
        <time>2023-10-04T14:54:53Z</time>
      </trkpt>
      <trkpt lat="50.0533" lon="2.15614">
        <ele>53.1</ele>
        <time>2023-10-04T14:54:54Z</time>
      </trkpt>
      <trkpt lat="50.0533" lon="2.15613">
        <ele>53.1</ele>
        <time>2023-10-04T14:54:55Z</time>
      </trkpt>
      <trkpt lat="50.05329" lon="2.15611">
        <ele>53.1</ele>
        <time>2023-10-04T14:54:56Z</time>
      </trkpt>
      <trkpt lat="50.05329" lon="2.1561">
        <ele>53</ele>
        <time>2023-10-04T14:54:57Z</time>
      </trkpt>
      <trkpt lat="50.05328" lon="2.15609">
        <ele>53</ele>
        <time>2023-10-04T14:54:58Z</time>
      </trkpt>
      <trkpt lat="50.05327" lon="2.15607">
        <ele>53</ele>
        <time>2023-10-04T14:54:59Z</time>
      </trkpt>
      <trkpt lat="50.05327" lon="2.15606">
        <ele>53</ele>
        <time>2023-10-04T14:55:00Z</time>
      </trkpt>
      <trkpt lat="50.05326" lon="2.15605">
        <ele>53</ele>
        <time>2023-10-04T14:55:01Z</time>
      </trkpt>
      <trkpt lat="50.05326" lon="2.15604">
        <ele>52.9</ele>
        <time>2023-10-04T14:55:02Z</time>
      </trkpt>
      <trkpt lat="50.05325" lon="2.15602">
        <ele>52.9</ele>
        <time>2023-10-04T14:55:03Z</time>
      </trkpt>
      <trkpt lat="50.05325" lon="2.15601">
        <ele>52.9</ele>
        <time>2023-10-04T14:55:04Z</time>
      </trkpt>
      <trkpt lat="50.05324" lon="2.15599">
        <ele>52.9</ele>
        <time>2023-10-04T14:55:05Z</time>
      </trkpt>
      <trkpt lat="50.05324" lon="2.15598">
        <ele>52.8</ele>
        <time>2023-10-04T14:55:06Z</time>
      </trkpt>
      <trkpt lat="50.05323" lon="2.15596">
        <ele>52.8</ele>
        <time>2023-10-04T14:55:07Z</time>
      </trkpt>
      <trkpt lat="50.05322" lon="2.15595">
        <ele>52.8</ele>
        <time>2023-10-04T14:55:08Z</time>
      </trkpt>
      <trkpt lat="50.05322" lon="2.15594">
        <ele>52.8</ele>
        <time>2023-10-04T14:55:09Z</time>
      </trkpt>
      <trkpt lat="50.05321" lon="2.15593">
        <ele>52.8</ele>
        <time>2023-10-04T14:55:10Z</time>
      </trkpt>
      <trkpt lat="50.05321" lon="2.15591">
        <ele>52.8</ele>
        <time>2023-10-04T14:55:11Z</time>
      </trkpt>
      <trkpt lat="50.0532" lon="2.1559">
        <ele>52.7</ele>
        <time>2023-10-04T14:55:12Z</time>
      </trkpt>
      <trkpt lat="50.0532" lon="2.15589">
        <ele>52.7</ele>
        <time>2023-10-04T14:55:13Z</time>
      </trkpt>
      <trkpt lat="50.05319" lon="2.15587">
        <ele>52.7</ele>
        <time>2023-10-04T14:55:14Z</time>
      </trkpt>
      <trkpt lat="50.05319" lon="2.15586">
        <ele>52.7</ele>
        <time>2023-10-04T14:55:15Z</time>
      </trkpt>
      <trkpt lat="50.05318" lon="2.15585">
        <ele>52.7</ele>
        <time>2023-10-04T14:55:16Z</time>
      </trkpt>
      <trkpt lat="50.05317" lon="2.15583">
        <ele>52.6</ele>
        <time>2023-10-04T14:55:17Z</time>
      </trkpt>
      <trkpt lat="50.05317" lon="2.15582">
        <ele>52.6</ele>
        <time>2023-10-04T14:55:18Z</time>
      </trkpt>
      <trkpt lat="50.05316" lon="2.1558">
        <ele>52.6</ele>
        <time>2023-10-04T14:55:19Z</time>
      </trkpt>
      <trkpt lat="50.05316" lon="2.15579">
        <ele>52.6</ele>
        <time>2023-10-04T14:55:20Z</time>
      </trkpt>
      <trkpt lat="50.05315" lon="2.15578">
        <ele>52.6</ele>
        <time>2023-10-04T14:55:21Z</time>
      </trkpt>
      <trkpt lat="50.05314" lon="2.15576">
        <ele>52.5</ele>
        <time>2023-10-04T14:55:22Z</time>
      </trkpt>
      <trkpt lat="50.05313" lon="2.15574">
        <ele>52.5</ele>
        <time>2023-10-04T14:55:23Z</time>
      </trkpt>
      <trkpt lat="50.05313" lon="2.15573">
        <ele>52.5</ele>
        <time>2023-10-04T14:55:24Z</time>
      </trkpt>
      <trkpt lat="50.05312" lon="2.15571">
        <ele>52.5</ele>
        <time>2023-10-04T14:55:25Z</time>
      </trkpt>
      <trkpt lat="50.05312" lon="2.1557">
        <ele>52.5</ele>
        <time>2023-10-04T14:55:26Z</time>
      </trkpt>
      <trkpt lat="50.05311" lon="2.15569">
        <ele>52.5</ele>
        <time>2023-10-04T14:55:27Z</time>
      </trkpt>
      <trkpt lat="50.05311" lon="2.15567">
        <ele>52.4</ele>
        <time>2023-10-04T14:55:28Z</time>
      </trkpt>
      <trkpt lat="50.05309" lon="2.15565">
        <ele>52.4</ele>
        <time>2023-10-04T14:55:29Z</time>
      </trkpt>
      <trkpt lat="50.05309" lon="2.15564">
        <ele>52.4</ele>
        <time>2023-10-04T14:55:30Z</time>
      </trkpt>
      <trkpt lat="50.05308" lon="2.15563">
        <ele>52.4</ele>
        <time>2023-10-04T14:55:31Z</time>
      </trkpt>
      <trkpt lat="50.05308" lon="2.15561">
        <ele>52.4</ele>
        <time>2023-10-04T14:55:32Z</time>
      </trkpt>
      <trkpt lat="50.05307" lon="2.15559">
        <ele>52.3</ele>
        <time>2023-10-04T14:55:33Z</time>
      </trkpt>
      <trkpt lat="50.05307" lon="2.15558">
        <ele>52.3</ele>
        <time>2023-10-04T14:55:34Z</time>
      </trkpt>
      <trkpt lat="50.05306" lon="2.15556">
        <ele>52.3</ele>
        <time>2023-10-04T14:55:35Z</time>
      </trkpt>
      <trkpt lat="50.05305" lon="2.15555">
        <ele>52.3</ele>
        <time>2023-10-04T14:55:36Z</time>
      </trkpt>
      <trkpt lat="50.05305" lon="2.15554">
        <ele>52.3</ele>
        <time>2023-10-04T14:55:37Z</time>
      </trkpt>
      <trkpt lat="50.05304" lon="2.15554">
        <ele>52.3</ele>
        <time>2023-10-04T14:55:38Z</time>
      </trkpt>
      <trkpt lat="50.05303" lon="2.15553">
        <ele>52.2</ele>
        <time>2023-10-04T14:55:39Z</time>
      </trkpt>
      <trkpt lat="50.05302" lon="2.15552">
        <ele>52.2</ele>
        <time>2023-10-04T14:55:40Z</time>
      </trkpt>
      <trkpt lat="50.05302" lon="2.1555">
        <ele>52.2</ele>
        <time>2023-10-04T14:55:41Z</time>
      </trkpt>
      <trkpt lat="50.053" lon="2.15548">
        <ele>52.2</ele>
        <time>2023-10-04T14:55:42Z</time>
      </trkpt>
      <trkpt lat="50.053" lon="2.15547">
        <ele>52.2</ele>
        <time>2023-10-04T14:55:43Z</time>
      </trkpt>
      <trkpt lat="50.05299" lon="2.15546">
        <ele>52.1</ele>
        <time>2023-10-04T14:55:44Z</time>
      </trkpt>
      <trkpt lat="50.05298" lon="2.15544">
        <ele>52.1</ele>
        <time>2023-10-04T14:55:45Z</time>
      </trkpt>
      <trkpt lat="50.05298" lon="2.15542">
        <ele>52.1</ele>
        <time>2023-10-04T14:55:46Z</time>
      </trkpt>
      <trkpt lat="50.05297" lon="2.15541">
        <ele>52</ele>
        <time>2023-10-04T14:55:47Z</time>
      </trkpt>
      <trkpt lat="50.05297" lon="2.1554">
        <ele>52</ele>
        <time>2023-10-04T14:55:48Z</time>
      </trkpt>
      <trkpt lat="50.05296" lon="2.15539">
        <ele>52</ele>
        <time>2023-10-04T14:55:49Z</time>
      </trkpt>
      <trkpt lat="50.05295" lon="2.15537">
        <ele>52</ele>
        <time>2023-10-04T14:55:50Z</time>
      </trkpt>
      <trkpt lat="50.05295" lon="2.15536">
        <ele>51.9</ele>
        <time>2023-10-04T14:55:51Z</time>
      </trkpt>
      <trkpt lat="50.05294" lon="2.15535">
        <ele>51.9</ele>
        <time>2023-10-04T14:55:52Z</time>
      </trkpt>
      <trkpt lat="50.05293" lon="2.15534">
        <ele>51.9</ele>
        <time>2023-10-04T14:55:53Z</time>
      </trkpt>
      <trkpt lat="50.05293" lon="2.15533">
        <ele>51.9</ele>
        <time>2023-10-04T14:55:54Z</time>
      </trkpt>
      <trkpt lat="50.05293" lon="2.15532">
        <ele>51.8</ele>
        <time>2023-10-04T14:55:55Z</time>
      </trkpt>
      <trkpt lat="50.05292" lon="2.15531">
        <ele>51.8</ele>
        <time>2023-10-04T14:55:56Z</time>
      </trkpt>
      <trkpt lat="50.05292" lon="2.1553">
        <ele>51.8</ele>
        <time>2023-10-04T14:55:57Z</time>
      </trkpt>
      <trkpt lat="50.05291" lon="2.15529">
        <ele>51.7</ele>
        <time>2023-10-04T14:55:58Z</time>
      </trkpt>
      <trkpt lat="50.05291" lon="2.15528">
        <ele>51.7</ele>
        <time>2023-10-04T14:55:59Z</time>
      </trkpt>
      <trkpt lat="50.0529" lon="2.15527">
        <ele>51.7</ele>
        <time>2023-10-04T14:56:00Z</time>
      </trkpt>
      <trkpt lat="50.0529" lon="2.15526">
        <ele>51.6</ele>
        <time>2023-10-04T14:56:01Z</time>
      </trkpt>
      <trkpt lat="50.05289" lon="2.15524">
        <ele>51.6</ele>
        <time>2023-10-04T14:56:02Z</time>
      </trkpt>
      <trkpt lat="50.05289" lon="2.15523">
        <ele>51.6</ele>
        <time>2023-10-04T14:56:03Z</time>
      </trkpt>
      <trkpt lat="50.05288" lon="2.15521">
        <ele>51.5</ele>
        <time>2023-10-04T14:56:04Z</time>
      </trkpt>
      <trkpt lat="50.05287" lon="2.15519">
        <ele>51.5</ele>
        <time>2023-10-04T14:56:05Z</time>
      </trkpt>
      <trkpt lat="50.05287" lon="2.15518">
        <ele>51.4</ele>
        <time>2023-10-04T14:56:06Z</time>
      </trkpt>
      <trkpt lat="50.05286" lon="2.15517">
        <ele>51.4</ele>
        <time>2023-10-04T14:56:07Z</time>
      </trkpt>
      <trkpt lat="50.05285" lon="2.15515">
        <ele>51.3</ele>
        <time>2023-10-04T14:56:08Z</time>
      </trkpt>
      <trkpt lat="50.05285" lon="2.15514">
        <ele>51.3</ele>
        <time>2023-10-04T14:56:09Z</time>
      </trkpt>
      <trkpt lat="50.05284" lon="2.15512">
        <ele>51.2</ele>
        <time>2023-10-04T14:56:10Z</time>
      </trkpt>
      <trkpt lat="50.05284" lon="2.15511">
        <ele>51.2</ele>
        <time>2023-10-04T14:56:11Z</time>
      </trkpt>
      <trkpt lat="50.05283" lon="2.1551">
        <ele>51.1</ele>
        <time>2023-10-04T14:56:12Z</time>
      </trkpt>
      <trkpt lat="50.05283" lon="2.15508">
        <ele>51.1</ele>
        <time>2023-10-04T14:56:13Z</time>
      </trkpt>
      <trkpt lat="50.05282" lon="2.15507">
        <ele>51</ele>
        <time>2023-10-04T14:56:14Z</time>
      </trkpt>
      <trkpt lat="50.05281" lon="2.15506">
        <ele>51</ele>
        <time>2023-10-04T14:56:15Z</time>
      </trkpt>
      <trkpt lat="50.05281" lon="2.15504">
        <ele>50.9</ele>
        <time>2023-10-04T14:56:16Z</time>
      </trkpt>
      <trkpt lat="50.0528" lon="2.15503">
        <ele>50.9</ele>
        <time>2023-10-04T14:56:17Z</time>
      </trkpt>
      <trkpt lat="50.0528" lon="2.15501">
        <ele>50.8</ele>
        <time>2023-10-04T14:56:18Z</time>
      </trkpt>
      <trkpt lat="50.05279" lon="2.155">
        <ele>50.8</ele>
        <time>2023-10-04T14:56:19Z</time>
      </trkpt>
      <trkpt lat="50.05279" lon="2.15499">
        <ele>50.7</ele>
        <time>2023-10-04T14:56:20Z</time>
      </trkpt>
      <trkpt lat="50.05278" lon="2.15498">
        <ele>50.7</ele>
        <time>2023-10-04T14:56:21Z</time>
      </trkpt>
      <trkpt lat="50.05278" lon="2.15496">
        <ele>50.6</ele>
        <time>2023-10-04T14:56:22Z</time>
      </trkpt>
      <trkpt lat="50.05277" lon="2.15495">
        <ele>50.6</ele>
        <time>2023-10-04T14:56:23Z</time>
      </trkpt>
      <trkpt lat="50.05277" lon="2.15493">
        <ele>50.6</ele>
        <time>2023-10-04T14:56:24Z</time>
      </trkpt>
      <trkpt lat="50.05276" lon="2.15492">
        <ele>50.5</ele>
        <time>2023-10-04T14:56:25Z</time>
      </trkpt>
      <trkpt lat="50.05276" lon="2.15491">
        <ele>50.5</ele>
        <time>2023-10-04T14:56:26Z</time>
      </trkpt>
      <trkpt lat="50.05275" lon="2.15489">
        <ele>50.4</ele>
        <time>2023-10-04T14:56:27Z</time>
      </trkpt>
      <trkpt lat="50.05275" lon="2.15488">
        <ele>50.4</ele>
        <time>2023-10-04T14:56:28Z</time>
      </trkpt>
      <trkpt lat="50.05274" lon="2.15487">
        <ele>50.4</ele>
        <time>2023-10-04T14:56:29Z</time>
      </trkpt>
      <trkpt lat="50.05274" lon="2.15485">
        <ele>50.3</ele>
        <time>2023-10-04T14:56:30Z</time>
      </trkpt>
      <trkpt lat="50.05273" lon="2.15484">
        <ele>50.3</ele>
        <time>2023-10-04T14:56:31Z</time>
      </trkpt>
      <trkpt lat="50.05273" lon="2.15482">
        <ele>50.2</ele>
        <time>2023-10-04T14:56:32Z</time>
      </trkpt>
      <trkpt lat="50.05272" lon="2.15481">
        <ele>50.2</ele>
        <time>2023-10-04T14:56:33Z</time>
      </trkpt>
      <trkpt lat="50.05272" lon="2.15479">
        <ele>50.1</ele>
        <time>2023-10-04T14:56:34Z</time>
      </trkpt>
      <trkpt lat="50.05271" lon="2.15478">
        <ele>50.1</ele>
        <time>2023-10-04T14:56:35Z</time>
      </trkpt>
      <trkpt lat="50.0527" lon="2.15477">
        <ele>50.1</ele>
        <time>2023-10-04T14:56:36Z</time>
      </trkpt>
      <trkpt lat="50.0527" lon="2.15475">
        <ele>50</ele>
        <time>2023-10-04T14:56:37Z</time>
      </trkpt>
      <trkpt lat="50.05269" lon="2.15474">
        <ele>50</ele>
        <time>2023-10-04T14:56:38Z</time>
      </trkpt>
      <trkpt lat="50.05269" lon="2.15472">
        <ele>49.9</ele>
        <time>2023-10-04T14:56:39Z</time>
      </trkpt>
      <trkpt lat="50.05268" lon="2.15471">
        <ele>49.9</ele>
        <time>2023-10-04T14:56:40Z</time>
      </trkpt>
      <trkpt lat="50.05268" lon="2.15469">
        <ele>49.8</ele>
        <time>2023-10-04T14:56:41Z</time>
      </trkpt>
      <trkpt lat="50.05267" lon="2.15467">
        <ele>49.7</ele>
        <time>2023-10-04T14:56:42Z</time>
      </trkpt>
      <trkpt lat="50.05266" lon="2.15466">
        <ele>49.7</ele>
        <time>2023-10-04T14:56:43Z</time>
      </trkpt>
      <trkpt lat="50.05266" lon="2.15465">
        <ele>49.6</ele>
        <time>2023-10-04T14:56:44Z</time>
      </trkpt>
      <trkpt lat="50.05265" lon="2.15464">
        <ele>49.6</ele>
        <time>2023-10-04T14:56:45Z</time>
      </trkpt>
      <trkpt lat="50.05265" lon="2.15462">
        <ele>49.5</ele>
        <time>2023-10-04T14:56:46Z</time>
      </trkpt>
      <trkpt lat="50.05264" lon="2.15461">
        <ele>49.4</ele>
        <time>2023-10-04T14:56:47Z</time>
      </trkpt>
      <trkpt lat="50.05264" lon="2.1546">
        <ele>49.4</ele>
        <time>2023-10-04T14:56:48Z</time>
      </trkpt>
      <trkpt lat="50.05263" lon="2.15458">
        <ele>49.3</ele>
        <time>2023-10-04T14:56:49Z</time>
      </trkpt>
      <trkpt lat="50.05263" lon="2.15457">
        <ele>49.2</ele>
        <time>2023-10-04T14:56:50Z</time>
      </trkpt>
      <trkpt lat="50.05262" lon="2.15455">
        <ele>49.1</ele>
        <time>2023-10-04T14:56:51Z</time>
      </trkpt>
      <trkpt lat="50.05262" lon="2.15454">
        <ele>49</ele>
        <time>2023-10-04T14:56:52Z</time>
      </trkpt>
      <trkpt lat="50.05261" lon="2.15453">
        <ele>48.9</ele>
        <time>2023-10-04T14:56:53Z</time>
      </trkpt>
      <trkpt lat="50.05261" lon="2.15452">
        <ele>48.8</ele>
        <time>2023-10-04T14:56:54Z</time>
      </trkpt>
      <trkpt lat="50.0526" lon="2.1545">
        <ele>48.8</ele>
        <time>2023-10-04T14:56:55Z</time>
      </trkpt>
      <trkpt lat="50.0526" lon="2.15449">
        <ele>48.7</ele>
        <time>2023-10-04T14:56:56Z</time>
      </trkpt>
      <trkpt lat="50.05259" lon="2.15447">
        <ele>48.5</ele>
        <time>2023-10-04T14:56:57Z</time>
      </trkpt>
      <trkpt lat="50.05259" lon="2.15446">
        <ele>48.4</ele>
        <time>2023-10-04T14:56:58Z</time>
      </trkpt>
      <trkpt lat="50.05259" lon="2.15444">
        <ele>48.3</ele>
        <time>2023-10-04T14:56:59Z</time>
      </trkpt>
      <trkpt lat="50.05258" lon="2.15443">
        <ele>48.2</ele>
        <time>2023-10-04T14:57:00Z</time>
      </trkpt>
      <trkpt lat="50.05258" lon="2.15442">
        <ele>48.1</ele>
        <time>2023-10-04T14:57:01Z</time>
      </trkpt>
      <trkpt lat="50.05257" lon="2.1544">
        <ele>48</ele>
        <time>2023-10-04T14:57:02Z</time>
      </trkpt>
      <trkpt lat="50.05257" lon="2.15439">
        <ele>47.8</ele>
        <time>2023-10-04T14:57:03Z</time>
      </trkpt>
      <trkpt lat="50.05256" lon="2.15437">
        <ele>47.7</ele>
        <time>2023-10-04T14:57:04Z</time>
      </trkpt>
      <trkpt lat="50.05256" lon="2.15435">
        <ele>47.5</ele>
        <time>2023-10-04T14:57:05Z</time>
      </trkpt>
      <trkpt lat="50.05255" lon="2.15434">
        <ele>47.4</ele>
        <time>2023-10-04T14:57:06Z</time>
      </trkpt>
      <trkpt lat="50.05255" lon="2.15433">
        <ele>47.3</ele>
        <time>2023-10-04T14:57:07Z</time>
      </trkpt>
      <trkpt lat="50.05254" lon="2.15432">
        <ele>47.2</ele>
        <time>2023-10-04T14:57:08Z</time>
      </trkpt>
      <trkpt lat="50.05254" lon="2.1543">
        <ele>47.1</ele>
        <time>2023-10-04T14:57:09Z</time>
      </trkpt>
      <trkpt lat="50.05254" lon="2.15429">
        <ele>47</ele>
        <time>2023-10-04T14:57:10Z</time>
      </trkpt>
      <trkpt lat="50.05253" lon="2.15428">
        <ele>46.8</ele>
        <time>2023-10-04T14:57:11Z</time>
      </trkpt>
      <trkpt lat="50.05253" lon="2.15427">
        <ele>46.7</ele>
        <time>2023-10-04T14:57:12Z</time>
      </trkpt>
      <trkpt lat="50.05253" lon="2.15425">
        <ele>46.6</ele>
        <time>2023-10-04T14:57:13Z</time>
      </trkpt>
      <trkpt lat="50.05252" lon="2.15425">
        <ele>46.5</ele>
        <time>2023-10-04T14:57:14Z</time>
      </trkpt>
      <trkpt lat="50.05252" lon="2.15424">
        <ele>46.4</ele>
        <time>2023-10-04T14:57:15Z</time>
      </trkpt>
      <trkpt lat="50.05251" lon="2.15423">
        <ele>46.3</ele>
        <time>2023-10-04T14:57:16Z</time>
      </trkpt>
      <trkpt lat="50.05251" lon="2.15422">
        <ele>46.1</ele>
        <time>2023-10-04T14:57:17Z</time>
      </trkpt>
      <trkpt lat="50.0525" lon="2.15421">
        <ele>46</ele>
        <time>2023-10-04T14:57:18Z</time>
      </trkpt>
      <trkpt lat="50.05249" lon="2.1542">
        <ele>45.9</ele>
        <time>2023-10-04T14:57:19Z</time>
      </trkpt>
      <trkpt lat="50.05248" lon="2.15419">
        <ele>45.7</ele>
        <time>2023-10-04T14:57:20Z</time>
      </trkpt>
      <trkpt lat="50.05248" lon="2.15418">
        <ele>45.6</ele>
        <time>2023-10-04T14:57:21Z</time>
      </trkpt>
      <trkpt lat="50.05247" lon="2.15417">
        <ele>45.5</ele>
        <time>2023-10-04T14:57:22Z</time>
      </trkpt>
      <trkpt lat="50.05246" lon="2.15416">
        <ele>45.3</ele>
        <time>2023-10-04T14:57:23Z</time>
      </trkpt>
      <trkpt lat="50.05246" lon="2.15416">
        <ele>45.2</ele>
        <time>2023-10-04T14:57:24Z</time>
      </trkpt>
      <trkpt lat="50.05245" lon="2.15415">
        <ele>45.1</ele>
        <time>2023-10-04T14:57:25Z</time>
      </trkpt>
      <trkpt lat="50.05244" lon="2.15415">
        <ele>44.9</ele>
        <time>2023-10-04T14:57:26Z</time>
      </trkpt>
      <trkpt lat="50.05243" lon="2.15415">
        <ele>44.7</ele>
        <time>2023-10-04T14:57:27Z</time>
      </trkpt>
      <trkpt lat="50.05242" lon="2.15414">
        <ele>44.6</ele>
        <time>2023-10-04T14:57:28Z</time>
      </trkpt>
      <trkpt lat="50.05241" lon="2.15415">
        <ele>44.4</ele>
        <time>2023-10-04T14:57:29Z</time>
      </trkpt>
      <trkpt lat="50.0524" lon="2.15415">
        <ele>44.3</ele>
        <time>2023-10-04T14:57:30Z</time>
      </trkpt>
      <trkpt lat="50.05239" lon="2.15415">
        <ele>44.1</ele>
        <time>2023-10-04T14:57:31Z</time>
      </trkpt>
      <trkpt lat="50.05238" lon="2.15415">
        <ele>44</ele>
        <time>2023-10-04T14:57:32Z</time>
      </trkpt>
      <trkpt lat="50.05237" lon="2.15414">
        <ele>43.8</ele>
        <time>2023-10-04T14:57:33Z</time>
      </trkpt>
      <trkpt lat="50.05236" lon="2.15414">
        <ele>43.7</ele>
        <time>2023-10-04T14:57:34Z</time>
      </trkpt>
      <trkpt lat="50.05235" lon="2.15414">
        <ele>43.5</ele>
        <time>2023-10-04T14:57:35Z</time>
      </trkpt>
      <trkpt lat="50.05234" lon="2.15414">
        <ele>43.3</ele>
        <time>2023-10-04T14:57:36Z</time>
      </trkpt>
      <trkpt lat="50.05233" lon="2.15414">
        <ele>43.2</ele>
        <time>2023-10-04T14:57:37Z</time>
      </trkpt>
      <trkpt lat="50.05232" lon="2.15413">
        <ele>43</ele>
        <time>2023-10-04T14:57:38Z</time>
      </trkpt>
      <trkpt lat="50.05231" lon="2.15413">
        <ele>42.9</ele>
        <time>2023-10-04T14:57:39Z</time>
      </trkpt>
      <trkpt lat="50.0523" lon="2.15413">
        <ele>42.7</ele>
        <time>2023-10-04T14:57:40Z</time>
      </trkpt>
      <trkpt lat="50.05229" lon="2.15413">
        <ele>42.6</ele>
        <time>2023-10-04T14:57:41Z</time>
      </trkpt>
      <trkpt lat="50.05228" lon="2.15413">
        <ele>42.4</ele>
        <time>2023-10-04T14:57:42Z</time>
      </trkpt>
      <trkpt lat="50.05227" lon="2.15413">
        <ele>42.3</ele>
        <time>2023-10-04T14:57:43Z</time>
      </trkpt>
      <trkpt lat="50.05226" lon="2.15413">
        <ele>42.2</ele>
        <time>2023-10-04T14:57:44Z</time>
      </trkpt>
      <trkpt lat="50.05226" lon="2.15413">
        <ele>42.1</ele>
        <time>2023-10-04T14:57:45Z</time>
      </trkpt>
      <trkpt lat="50.05225" lon="2.15413">
        <ele>42</ele>
        <time>2023-10-04T14:57:46Z</time>
      </trkpt>
      <trkpt lat="50.05224" lon="2.15413">
        <ele>41.8</ele>
        <time>2023-10-04T14:57:47Z</time>
      </trkpt>
      <trkpt lat="50.05223" lon="2.15413">
        <ele>41.7</ele>
        <time>2023-10-04T14:57:48Z</time>
      </trkpt>
      <trkpt lat="50.05223" lon="2.15414">
        <ele>41.6</ele>
        <time>2023-10-04T14:57:49Z</time>
      </trkpt>
      <trkpt lat="50.05222" lon="2.15414">
        <ele>41.5</ele>
        <time>2023-10-04T14:57:50Z</time>
      </trkpt>
      <trkpt lat="50.05221" lon="2.15414">
        <ele>41.4</ele>
        <time>2023-10-04T14:57:51Z</time>
      </trkpt>
      <trkpt lat="50.0522" lon="2.15414">
        <ele>41.2</ele>
        <time>2023-10-04T14:57:52Z</time>
      </trkpt>
      <trkpt lat="50.0522" lon="2.15414">
        <ele>41.1</ele>
        <time>2023-10-04T14:57:53Z</time>
      </trkpt>
      <trkpt lat="50.05219" lon="2.15414">
        <ele>41</ele>
        <time>2023-10-04T14:57:54Z</time>
      </trkpt>
      <trkpt lat="50.05218" lon="2.15414">
        <ele>40.9</ele>
        <time>2023-10-04T14:57:55Z</time>
      </trkpt>
      <trkpt lat="50.05217" lon="2.15414">
        <ele>40.8</ele>
        <time>2023-10-04T14:57:56Z</time>
      </trkpt>
      <trkpt lat="50.05216" lon="2.15414">
        <ele>40.6</ele>
        <time>2023-10-04T14:57:57Z</time>
      </trkpt>
      <trkpt lat="50.05215" lon="2.15414">
        <ele>40.4</ele>
        <time>2023-10-04T14:57:58Z</time>
      </trkpt>
      <trkpt lat="50.05214" lon="2.15414">
        <ele>40.3</ele>
        <time>2023-10-04T14:57:59Z</time>
      </trkpt>
      <trkpt lat="50.05213" lon="2.15414">
        <ele>40.1</ele>
        <time>2023-10-04T14:58:00Z</time>
      </trkpt>
      <trkpt lat="50.05212" lon="2.15414">
        <ele>40</ele>
        <time>2023-10-04T14:58:01Z</time>
      </trkpt>
      <trkpt lat="50.05211" lon="2.15415">
        <ele>39.8</ele>
        <time>2023-10-04T14:58:02Z</time>
      </trkpt>
      <trkpt lat="50.0521" lon="2.15415">
        <ele>39.7</ele>
        <time>2023-10-04T14:58:03Z</time>
      </trkpt>
      <trkpt lat="50.05209" lon="2.15415">
        <ele>39.6</ele>
        <time>2023-10-04T14:58:04Z</time>
      </trkpt>
      <trkpt lat="50.05208" lon="2.15416">
        <ele>39.4</ele>
        <time>2023-10-04T14:58:05Z</time>
      </trkpt>
      <trkpt lat="50.05207" lon="2.15416">
        <ele>39.3</ele>
        <time>2023-10-04T14:58:06Z</time>
      </trkpt>
      <trkpt lat="50.05206" lon="2.15417">
        <ele>39.1</ele>
        <time>2023-10-04T14:58:07Z</time>
      </trkpt>
      <trkpt lat="50.05205" lon="2.15417">
        <ele>39</ele>
        <time>2023-10-04T14:58:08Z</time>
      </trkpt>
      <trkpt lat="50.05204" lon="2.15418">
        <ele>38.9</ele>
        <time>2023-10-04T14:58:09Z</time>
      </trkpt>
      <trkpt lat="50.05203" lon="2.15418">
        <ele>38.8</ele>
        <time>2023-10-04T14:58:10Z</time>
      </trkpt>
      <trkpt lat="50.05202" lon="2.15418">
        <ele>38.7</ele>
        <time>2023-10-04T14:58:11Z</time>
      </trkpt>
      <trkpt lat="50.05201" lon="2.15419">
        <ele>38.5</ele>
        <time>2023-10-04T14:58:12Z</time>
      </trkpt>
      <trkpt lat="50.052" lon="2.15419">
        <ele>38.4</ele>
        <time>2023-10-04T14:58:13Z</time>
      </trkpt>
      <trkpt lat="50.05199" lon="2.15419">
        <ele>38.3</ele>
        <time>2023-10-04T14:58:14Z</time>
      </trkpt>
      <trkpt lat="50.05198" lon="2.15419">
        <ele>38.2</ele>
        <time>2023-10-04T14:58:15Z</time>
      </trkpt>
      <trkpt lat="50.05197" lon="2.15419">
        <ele>38.1</ele>
        <time>2023-10-04T14:58:16Z</time>
      </trkpt>
      <trkpt lat="50.05196" lon="2.15419">
        <ele>38</ele>
        <time>2023-10-04T14:58:17Z</time>
      </trkpt>
      <trkpt lat="50.05195" lon="2.15419">
        <ele>37.9</ele>
        <time>2023-10-04T14:58:18Z</time>
      </trkpt>
      <trkpt lat="50.05194" lon="2.15419">
        <ele>37.8</ele>
        <time>2023-10-04T14:58:19Z</time>
      </trkpt>
      <trkpt lat="50.05192" lon="2.15419">
        <ele>37.6</ele>
        <time>2023-10-04T14:58:20Z</time>
      </trkpt>
      <trkpt lat="50.05191" lon="2.15419">
        <ele>37.5</ele>
        <time>2023-10-04T14:58:21Z</time>
      </trkpt>
      <trkpt lat="50.05189" lon="2.15419">
        <ele>37.3</ele>
        <time>2023-10-04T14:58:22Z</time>
      </trkpt>
      <trkpt lat="50.05187" lon="2.1542">
        <ele>37.1</ele>
        <time>2023-10-04T14:58:23Z</time>
      </trkpt>
      <trkpt lat="50.05186" lon="2.1542">
        <ele>37</ele>
        <time>2023-10-04T14:58:24Z</time>
      </trkpt>
      <trkpt lat="50.05185" lon="2.1542">
        <ele>37</ele>
        <time>2023-10-04T14:58:25Z</time>
      </trkpt>
      <trkpt lat="50.05184" lon="2.1542">
        <ele>36.9</ele>
        <time>2023-10-04T14:58:26Z</time>
      </trkpt>
      <trkpt lat="50.05184" lon="2.1542">
        <ele>36.8</ele>
        <time>2023-10-04T14:58:27Z</time>
      </trkpt>
      <trkpt lat="50.05183" lon="2.1542">
        <ele>36.7</ele>
        <time>2023-10-04T14:58:28Z</time>
      </trkpt>
      <trkpt lat="50.05182" lon="2.1542">
        <ele>36.7</ele>
        <time>2023-10-04T14:58:29Z</time>
      </trkpt>
      <trkpt lat="50.05181" lon="2.1542">
        <ele>36.6</ele>
        <time>2023-10-04T14:58:30Z</time>
      </trkpt>
      <trkpt lat="50.05181" lon="2.1542">
        <ele>36.5</ele>
        <time>2023-10-04T14:58:31Z</time>
      </trkpt>
      <trkpt lat="50.0518" lon="2.1542">
        <ele>36.5</ele>
        <time>2023-10-04T14:58:32Z</time>
      </trkpt>
      <trkpt lat="50.05179" lon="2.1542">
        <ele>36.4</ele>
        <time>2023-10-04T14:58:33Z</time>
      </trkpt>
      <trkpt lat="50.05178" lon="2.1542">
        <ele>36.3</ele>
        <time>2023-10-04T14:58:34Z</time>
      </trkpt>
      <trkpt lat="50.05177" lon="2.1542">
        <ele>36.3</ele>
        <time>2023-10-04T14:58:35Z</time>
      </trkpt>
      <trkpt lat="50.05176" lon="2.15419">
        <ele>36.2</ele>
        <time>2023-10-04T14:58:36Z</time>
      </trkpt>
      <trkpt lat="50.05175" lon="2.15419">
        <ele>36.1</ele>
        <time>2023-10-04T14:58:37Z</time>
      </trkpt>
      <trkpt lat="50.05174" lon="2.15419">
        <ele>36</ele>
        <time>2023-10-04T14:58:38Z</time>
      </trkpt>
      <trkpt lat="50.05173" lon="2.15418">
        <ele>35.9</ele>
        <time>2023-10-04T14:58:39Z</time>
      </trkpt>
      <trkpt lat="50.05171" lon="2.15418">
        <ele>35.8</ele>
        <time>2023-10-04T14:58:40Z</time>
      </trkpt>
      <trkpt lat="50.0517" lon="2.15417">
        <ele>35.8</ele>
        <time>2023-10-04T14:58:41Z</time>
      </trkpt>
      <trkpt lat="50.05169" lon="2.15417">
        <ele>35.7</ele>
        <time>2023-10-04T14:58:42Z</time>
      </trkpt>
      <trkpt lat="50.05169" lon="2.15417">
        <ele>35.6</ele>
        <time>2023-10-04T14:58:43Z</time>
      </trkpt>
      <trkpt lat="50.05168" lon="2.15417">
        <ele>35.6</ele>
        <time>2023-10-04T14:58:44Z</time>
      </trkpt>
      <trkpt lat="50.05167" lon="2.15416">
        <ele>35.5</ele>
        <time>2023-10-04T14:58:45Z</time>
      </trkpt>
      <trkpt lat="50.05166" lon="2.15416">
        <ele>35.5</ele>
        <time>2023-10-04T14:58:46Z</time>
      </trkpt>
      <trkpt lat="50.05164" lon="2.15415">
        <ele>35.4</ele>
        <time>2023-10-04T14:58:47Z</time>
      </trkpt>
      <trkpt lat="50.05163" lon="2.15415">
        <ele>35.3</ele>
        <time>2023-10-04T14:58:48Z</time>
      </trkpt>
      <trkpt lat="50.05161" lon="2.15414">
        <ele>35.2</ele>
        <time>2023-10-04T14:58:49Z</time>
      </trkpt>
      <trkpt lat="50.05161" lon="2.15413">
        <ele>35.1</ele>
        <time>2023-10-04T14:58:50Z</time>
      </trkpt>
      <trkpt lat="50.0516" lon="2.15413">
        <ele>35.1</ele>
        <time>2023-10-04T14:58:51Z</time>
      </trkpt>
      <trkpt lat="50.05158" lon="2.15412">
        <ele>35</ele>
        <time>2023-10-04T14:58:52Z</time>
      </trkpt>
      <trkpt lat="50.05157" lon="2.15411">
        <ele>34.9</ele>
        <time>2023-10-04T14:58:53Z</time>
      </trkpt>
      <trkpt lat="50.05156" lon="2.1541">
        <ele>34.9</ele>
        <time>2023-10-04T14:58:54Z</time>
      </trkpt>
      <trkpt lat="50.05154" lon="2.15409">
        <ele>34.8</ele>
        <time>2023-10-04T14:58:55Z</time>
      </trkpt>
      <trkpt lat="50.05152" lon="2.15408">
        <ele>34.7</ele>
        <time>2023-10-04T14:58:56Z</time>
      </trkpt>
      <trkpt lat="50.05152" lon="2.15408">
        <ele>34.7</ele>
        <time>2023-10-04T14:58:57Z</time>
      </trkpt>
      <trkpt lat="50.05151" lon="2.15408">
        <ele>34.6</ele>
        <time>2023-10-04T14:58:58Z</time>
      </trkpt>
      <trkpt lat="50.0515" lon="2.15407">
        <ele>34.6</ele>
        <time>2023-10-04T14:58:59Z</time>
      </trkpt>
      <trkpt lat="50.05149" lon="2.15407">
        <ele>34.5</ele>
        <time>2023-10-04T14:59:00Z</time>
      </trkpt>
      <trkpt lat="50.05148" lon="2.15406">
        <ele>34.5</ele>
        <time>2023-10-04T14:59:01Z</time>
      </trkpt>
      <trkpt lat="50.05147" lon="2.15406">
        <ele>34.5</ele>
        <time>2023-10-04T14:59:02Z</time>
      </trkpt>
      <trkpt lat="50.05147" lon="2.15406">
        <ele>34.4</ele>
        <time>2023-10-04T14:59:03Z</time>
      </trkpt>
      <trkpt lat="50.05146" lon="2.15406">
        <ele>34.4</ele>
        <time>2023-10-04T14:59:04Z</time>
      </trkpt>
      <trkpt lat="50.05146" lon="2.15406">
        <ele>34.4</ele>
        <time>2023-10-04T14:59:05Z</time>
      </trkpt>
      <trkpt lat="50.05145" lon="2.15407">
        <ele>34.4</ele>
        <time>2023-10-04T14:59:06Z</time>
      </trkpt>
      <trkpt lat="50.05145" lon="2.15407">
        <ele>34.4</ele>
        <time>2023-10-04T14:59:07Z</time>
      </trkpt>
      <trkpt lat="50.05144" lon="2.15407">
        <ele>34.3</ele>
        <time>2023-10-04T14:59:08Z</time>
      </trkpt>
      <trkpt lat="50.05143" lon="2.15406">
        <ele>34.3</ele>
        <time>2023-10-04T14:59:09Z</time>
      </trkpt>
      <trkpt lat="50.05142" lon="2.15406">
        <ele>34.3</ele>
        <time>2023-10-04T14:59:10Z</time>
      </trkpt>
      <trkpt lat="50.05141" lon="2.15406">
        <ele>34.2</ele>
        <time>2023-10-04T14:59:11Z</time>
      </trkpt>
      <trkpt lat="50.0514" lon="2.15406">
        <ele>34.2</ele>
        <time>2023-10-04T14:59:12Z</time>
      </trkpt>
      <trkpt lat="50.0514" lon="2.15407">
        <ele>34.2</ele>
        <time>2023-10-04T14:59:13Z</time>
      </trkpt>
      <trkpt lat="50.05139" lon="2.15407">
        <ele>34.1</ele>
        <time>2023-10-04T14:59:14Z</time>
      </trkpt>
      <trkpt lat="50.05138" lon="2.15407">
        <ele>34.1</ele>
        <time>2023-10-04T14:59:15Z</time>
      </trkpt>
      <trkpt lat="50.05137" lon="2.15407">
        <ele>34</ele>
        <time>2023-10-04T14:59:16Z</time>
      </trkpt>
      <trkpt lat="50.05136" lon="2.15407">
        <ele>34</ele>
        <time>2023-10-04T14:59:17Z</time>
      </trkpt>
      <trkpt lat="50.05135" lon="2.15407">
        <ele>34</ele>
        <time>2023-10-04T14:59:18Z</time>
      </trkpt>
      <trkpt lat="50.05133" lon="2.15407">
        <ele>33.9</ele>
        <time>2023-10-04T14:59:19Z</time>
      </trkpt>
      <trkpt lat="50.05132" lon="2.15407">
        <ele>33.9</ele>
        <time>2023-10-04T14:59:20Z</time>
      </trkpt>
      <trkpt lat="50.05131" lon="2.15408">
        <ele>33.9</ele>
        <time>2023-10-04T14:59:21Z</time>
      </trkpt>
      <trkpt lat="50.05129" lon="2.15408">
        <ele>33.9</ele>
        <time>2023-10-04T14:59:22Z</time>
      </trkpt>
      <trkpt lat="50.05128" lon="2.15409">
        <ele>33.9</ele>
        <time>2023-10-04T14:59:23Z</time>
      </trkpt>
      <trkpt lat="50.05127" lon="2.15409">
        <ele>33.8</ele>
        <time>2023-10-04T14:59:24Z</time>
      </trkpt>
      <trkpt lat="50.05126" lon="2.1541">
        <ele>33.8</ele>
        <time>2023-10-04T14:59:25Z</time>
      </trkpt>
      <trkpt lat="50.05124" lon="2.1541">
        <ele>33.8</ele>
        <time>2023-10-04T14:59:26Z</time>
      </trkpt>
      <trkpt lat="50.05123" lon="2.15411">
        <ele>33.8</ele>
        <time>2023-10-04T14:59:27Z</time>
      </trkpt>
      <trkpt lat="50.05122" lon="2.15411">
        <ele>33.8</ele>
        <time>2023-10-04T14:59:28Z</time>
      </trkpt>
      <trkpt lat="50.0512" lon="2.15411">
        <ele>33.8</ele>
        <time>2023-10-04T14:59:29Z</time>
      </trkpt>
      <trkpt lat="50.05119" lon="2.15411">
        <ele>33.8</ele>
        <time>2023-10-04T14:59:30Z</time>
      </trkpt>
      <trkpt lat="50.05119" lon="2.15411">
        <ele>33.8</ele>
        <time>2023-10-04T14:59:31Z</time>
      </trkpt>
      <trkpt lat="50.05118" lon="2.15411">
        <ele>33.7</ele>
        <time>2023-10-04T14:59:32Z</time>
      </trkpt>
      <trkpt lat="50.05118" lon="2.15412">
        <ele>33.7</ele>
        <time>2023-10-04T14:59:33Z</time>
      </trkpt>
      <trkpt lat="50.05117" lon="2.15412">
        <ele>33.7</ele>
        <time>2023-10-04T14:59:34Z</time>
      </trkpt>
      <trkpt lat="50.05116" lon="2.15413">
        <ele>33.6</ele>
        <time>2023-10-04T14:59:35Z</time>
      </trkpt>
      <trkpt lat="50.05115" lon="2.15414">
        <ele>33.6</ele>
        <time>2023-10-04T14:59:36Z</time>
      </trkpt>
      <trkpt lat="50.05115" lon="2.15414">
        <ele>33.5</ele>
        <time>2023-10-04T14:59:37Z</time>
      </trkpt>
      <trkpt lat="50.05114" lon="2.15415">
        <ele>33.5</ele>
        <time>2023-10-04T14:59:38Z</time>
      </trkpt>
      <trkpt lat="50.05113" lon="2.15416">
        <ele>33.5</ele>
        <time>2023-10-04T14:59:39Z</time>
      </trkpt>
      <trkpt lat="50.05112" lon="2.15417">
        <ele>33.4</ele>
        <time>2023-10-04T14:59:40Z</time>
      </trkpt>
      <trkpt lat="50.05111" lon="2.15417">
        <ele>33.4</ele>
        <time>2023-10-04T14:59:41Z</time>
      </trkpt>
      <trkpt lat="50.05111" lon="2.15418">
        <ele>33.3</ele>
        <time>2023-10-04T14:59:42Z</time>
      </trkpt>
      <trkpt lat="50.0511" lon="2.15419">
        <ele>33.3</ele>
        <time>2023-10-04T14:59:43Z</time>
      </trkpt>
      <trkpt lat="50.0511" lon="2.15419">
        <ele>33.3</ele>
        <time>2023-10-04T14:59:44Z</time>
      </trkpt>
      <trkpt lat="50.05109" lon="2.1542">
        <ele>33.2</ele>
        <time>2023-10-04T14:59:45Z</time>
      </trkpt>
      <trkpt lat="50.05108" lon="2.15421">
        <ele>33.2</ele>
        <time>2023-10-04T14:59:46Z</time>
      </trkpt>
      <trkpt lat="50.05108" lon="2.15422">
        <ele>33.2</ele>
        <time>2023-10-04T14:59:47Z</time>
      </trkpt>
      <trkpt lat="50.05107" lon="2.15423">
        <ele>33.1</ele>
        <time>2023-10-04T14:59:48Z</time>
      </trkpt>
      <trkpt lat="50.05106" lon="2.15424">
        <ele>33.1</ele>
        <time>2023-10-04T14:59:49Z</time>
      </trkpt>
      <trkpt lat="50.05105" lon="2.15426">
        <ele>33</ele>
        <time>2023-10-04T14:59:50Z</time>
      </trkpt>
      <trkpt lat="50.05104" lon="2.15427">
        <ele>33</ele>
        <time>2023-10-04T14:59:51Z</time>
      </trkpt>
      <trkpt lat="50.05103" lon="2.15428">
        <ele>32.9</ele>
        <time>2023-10-04T14:59:52Z</time>
      </trkpt>
      <trkpt lat="50.05103" lon="2.15429">
        <ele>32.9</ele>
        <time>2023-10-04T14:59:53Z</time>
      </trkpt>
      <trkpt lat="50.05102" lon="2.15431">
        <ele>32.8</ele>
        <time>2023-10-04T14:59:54Z</time>
      </trkpt>
      <trkpt lat="50.05102" lon="2.15432">
        <ele>32.8</ele>
        <time>2023-10-04T14:59:55Z</time>
      </trkpt>
      <trkpt lat="50.05101" lon="2.15433">
        <ele>32.7</ele>
        <time>2023-10-04T14:59:56Z</time>
      </trkpt>
      <trkpt lat="50.051" lon="2.15434">
        <ele>32.7</ele>
        <time>2023-10-04T14:59:57Z</time>
      </trkpt>
      <trkpt lat="50.05099" lon="2.15436">
        <ele>32.7</ele>
        <time>2023-10-04T14:59:58Z</time>
      </trkpt>
      <trkpt lat="50.05099" lon="2.15437">
        <ele>32.6</ele>
        <time>2023-10-04T14:59:59Z</time>
      </trkpt>
      <trkpt lat="50.05098" lon="2.1544">
        <ele>32.5</ele>
        <time>2023-10-04T15:00:00Z</time>
      </trkpt>
      <trkpt lat="50.05097" lon="2.15441">
        <ele>32.5</ele>
        <time>2023-10-04T15:00:01Z</time>
      </trkpt>
      <trkpt lat="50.05097" lon="2.15442">
        <ele>32.5</ele>
        <time>2023-10-04T15:00:02Z</time>
      </trkpt>
      <trkpt lat="50.05096" lon="2.15443">
        <ele>32.4</ele>
        <time>2023-10-04T15:00:03Z</time>
      </trkpt>
      <trkpt lat="50.05096" lon="2.15445">
        <ele>32.4</ele>
        <time>2023-10-04T15:00:04Z</time>
      </trkpt>
      <trkpt lat="50.05095" lon="2.15446">
        <ele>32.3</ele>
        <time>2023-10-04T15:00:05Z</time>
      </trkpt>
      <trkpt lat="50.05094" lon="2.15447">
        <ele>32.3</ele>
        <time>2023-10-04T15:00:06Z</time>
      </trkpt>
      <trkpt lat="50.05094" lon="2.15448">
        <ele>32.3</ele>
        <time>2023-10-04T15:00:07Z</time>
      </trkpt>
      <trkpt lat="50.05093" lon="2.15449">
        <ele>32.2</ele>
        <time>2023-10-04T15:00:08Z</time>
      </trkpt>
      <trkpt lat="50.05092" lon="2.1545">
        <ele>32.2</ele>
        <time>2023-10-04T15:00:09Z</time>
      </trkpt>
      <trkpt lat="50.05091" lon="2.1545">
        <ele>32.2</ele>
        <time>2023-10-04T15:00:10Z</time>
      </trkpt>
      <trkpt lat="50.0509" lon="2.15451">
        <ele>32.1</ele>
        <time>2023-10-04T15:00:11Z</time>
      </trkpt>
      <trkpt lat="50.05088" lon="2.15451">
        <ele>32.1</ele>
        <time>2023-10-04T15:00:12Z</time>
      </trkpt>
      <trkpt lat="50.05087" lon="2.15452">
        <ele>32</ele>
        <time>2023-10-04T15:00:13Z</time>
      </trkpt>
      <trkpt lat="50.05087" lon="2.15452">
        <ele>32</ele>
        <time>2023-10-04T15:00:14Z</time>
      </trkpt>
      <trkpt lat="50.05086" lon="2.15452">
        <ele>32</ele>
        <time>2023-10-04T15:00:15Z</time>
      </trkpt>
      <trkpt lat="50.05085" lon="2.15453">
        <ele>32</ele>
        <time>2023-10-04T15:00:16Z</time>
      </trkpt>
      <trkpt lat="50.05084" lon="2.15453">
        <ele>31.9</ele>
        <time>2023-10-04T15:00:17Z</time>
      </trkpt>
      <trkpt lat="50.05083" lon="2.15453">
        <ele>31.9</ele>
        <time>2023-10-04T15:00:18Z</time>
      </trkpt>
      <trkpt lat="50.05082" lon="2.15454">
        <ele>31.9</ele>
        <time>2023-10-04T15:00:19Z</time>
      </trkpt>
      <trkpt lat="50.05081" lon="2.15454">
        <ele>31.8</ele>
        <time>2023-10-04T15:00:20Z</time>
      </trkpt>
      <trkpt lat="50.05079" lon="2.15455">
        <ele>31.8</ele>
        <time>2023-10-04T15:00:21Z</time>
      </trkpt>
      <trkpt lat="50.05079" lon="2.15455">
        <ele>31.8</ele>
        <time>2023-10-04T15:00:22Z</time>
      </trkpt>
      <trkpt lat="50.05078" lon="2.15456">
        <ele>31.8</ele>
        <time>2023-10-04T15:00:23Z</time>
      </trkpt>
      <trkpt lat="50.05077" lon="2.15456">
        <ele>31.8</ele>
        <time>2023-10-04T15:00:24Z</time>
      </trkpt>
      <trkpt lat="50.05076" lon="2.15457">
        <ele>31.7</ele>
        <time>2023-10-04T15:00:25Z</time>
      </trkpt>
      <trkpt lat="50.05075" lon="2.15457">
        <ele>31.7</ele>
        <time>2023-10-04T15:00:26Z</time>
      </trkpt>
      <trkpt lat="50.05074" lon="2.15458">
        <ele>31.7</ele>
        <time>2023-10-04T15:00:27Z</time>
      </trkpt>
      <trkpt lat="50.05073" lon="2.15458">
        <ele>31.7</ele>
        <time>2023-10-04T15:00:28Z</time>
      </trkpt>
      <trkpt lat="50.05072" lon="2.15459">
        <ele>31.6</ele>
        <time>2023-10-04T15:00:29Z</time>
      </trkpt>
      <trkpt lat="50.05071" lon="2.15459">
        <ele>31.6</ele>
        <time>2023-10-04T15:00:30Z</time>
      </trkpt>
      <trkpt lat="50.0507" lon="2.1546">
        <ele>31.6</ele>
        <time>2023-10-04T15:00:31Z</time>
      </trkpt>
      <trkpt lat="50.05068" lon="2.1546">
        <ele>31.6</ele>
        <time>2023-10-04T15:00:32Z</time>
      </trkpt>
      <trkpt lat="50.05068" lon="2.1546">
        <ele>31.5</ele>
        <time>2023-10-04T15:00:33Z</time>
      </trkpt>
      <trkpt lat="50.05067" lon="2.1546">
        <ele>31.5</ele>
        <time>2023-10-04T15:00:34Z</time>
      </trkpt>
      <trkpt lat="50.05066" lon="2.1546">
        <ele>31.5</ele>
        <time>2023-10-04T15:00:35Z</time>
      </trkpt>
      <trkpt lat="50.05065" lon="2.1546">
        <ele>31.5</ele>
        <time>2023-10-04T15:00:36Z</time>
      </trkpt>
      <trkpt lat="50.05064" lon="2.1546">
        <ele>31.5</ele>
        <time>2023-10-04T15:00:37Z</time>
      </trkpt>
      <trkpt lat="50.05064" lon="2.1546">
        <ele>31.5</ele>
        <time>2023-10-04T15:00:38Z</time>
      </trkpt>
      <trkpt lat="50.05063" lon="2.1546">
        <ele>31.5</ele>
        <time>2023-10-04T15:00:39Z</time>
      </trkpt>
      <trkpt lat="50.05063" lon="2.1546">
        <ele>31.5</ele>
        <time>2023-10-04T15:00:40Z</time>
      </trkpt>
      <trkpt lat="50.05062" lon="2.1546">
        <ele>31.5</ele>
        <time>2023-10-04T15:00:41Z</time>
      </trkpt>
      <trkpt lat="50.05061" lon="2.1546">
        <ele>31.5</ele>
        <time>2023-10-04T15:00:42Z</time>
      </trkpt>
      <trkpt lat="50.0506" lon="2.1546">
        <ele>31.5</ele>
        <time>2023-10-04T15:00:43Z</time>
      </trkpt>
      <trkpt lat="50.0506" lon="2.15461">
        <ele>31.5</ele>
        <time>2023-10-04T15:00:44Z</time>
      </trkpt>
      <trkpt lat="50.05059" lon="2.15461">
        <ele>31.5</ele>
        <time>2023-10-04T15:00:45Z</time>
      </trkpt>
      <trkpt lat="50.05058" lon="2.15462">
        <ele>31.5</ele>
        <time>2023-10-04T15:00:46Z</time>
      </trkpt>
      <trkpt lat="50.05057" lon="2.15462">
        <ele>31.5</ele>
        <time>2023-10-04T15:00:47Z</time>
      </trkpt>
      <trkpt lat="50.05056" lon="2.15462">
        <ele>31.5</ele>
        <time>2023-10-04T15:00:48Z</time>
      </trkpt>
      <trkpt lat="50.05055" lon="2.15463">
        <ele>31.5</ele>
        <time>2023-10-04T15:00:49Z</time>
      </trkpt>
      <trkpt lat="50.05055" lon="2.15463">
        <ele>31.5</ele>
        <time>2023-10-04T15:00:50Z</time>
      </trkpt>
      <trkpt lat="50.05054" lon="2.15464">
        <ele>31.5</ele>
        <time>2023-10-04T15:00:51Z</time>
      </trkpt>
      <trkpt lat="50.05053" lon="2.15464">
        <ele>31.5</ele>
        <time>2023-10-04T15:00:52Z</time>
      </trkpt>
      <trkpt lat="50.05052" lon="2.15465">
        <ele>31.5</ele>
        <time>2023-10-04T15:00:53Z</time>
      </trkpt>
      <trkpt lat="50.05051" lon="2.15465">
        <ele>31.5</ele>
        <time>2023-10-04T15:00:54Z</time>
      </trkpt>
      <trkpt lat="50.0505" lon="2.15466">
        <ele>31.5</ele>
        <time>2023-10-04T15:00:55Z</time>
      </trkpt>
      <trkpt lat="50.05049" lon="2.15466">
        <ele>31.5</ele>
        <time>2023-10-04T15:00:56Z</time>
      </trkpt>
      <trkpt lat="50.05048" lon="2.15466">
        <ele>31.5</ele>
        <time>2023-10-04T15:00:57Z</time>
      </trkpt>
      <trkpt lat="50.05047" lon="2.15466">
        <ele>31.5</ele>
        <time>2023-10-04T15:00:58Z</time>
      </trkpt>
      <trkpt lat="50.05046" lon="2.15467">
        <ele>31.5</ele>
        <time>2023-10-04T15:00:59Z</time>
      </trkpt>
      <trkpt lat="50.05045" lon="2.15467">
        <ele>31.5</ele>
        <time>2023-10-04T15:01:00Z</time>
      </trkpt>
      <trkpt lat="50.05044" lon="2.15468">
        <ele>31.5</ele>
        <time>2023-10-04T15:01:01Z</time>
      </trkpt>
      <trkpt lat="50.05043" lon="2.15469">
        <ele>31.5</ele>
        <time>2023-10-04T15:01:02Z</time>
      </trkpt>
      <trkpt lat="50.05043" lon="2.15469">
        <ele>31.5</ele>
        <time>2023-10-04T15:01:03Z</time>
      </trkpt>
      <trkpt lat="50.05042" lon="2.1547">
        <ele>31.5</ele>
        <time>2023-10-04T15:01:04Z</time>
      </trkpt>
      <trkpt lat="50.05041" lon="2.15471">
        <ele>31.5</ele>
        <time>2023-10-04T15:01:05Z</time>
      </trkpt>
      <trkpt lat="50.0504" lon="2.15472">
        <ele>31.5</ele>
        <time>2023-10-04T15:01:06Z</time>
      </trkpt>
      <trkpt lat="50.05038" lon="2.15473">
        <ele>31.5</ele>
        <time>2023-10-04T15:01:07Z</time>
      </trkpt>
      <trkpt lat="50.05038" lon="2.15473">
        <ele>31.5</ele>
        <time>2023-10-04T15:01:08Z</time>
      </trkpt>
      <trkpt lat="50.05036" lon="2.15475">
        <ele>31.5</ele>
        <time>2023-10-04T15:01:09Z</time>
      </trkpt>
      <trkpt lat="50.05035" lon="2.15476">
        <ele>31.5</ele>
        <time>2023-10-04T15:01:10Z</time>
      </trkpt>
      <trkpt lat="50.05034" lon="2.15477">
        <ele>31.5</ele>
        <time>2023-10-04T15:01:11Z</time>
      </trkpt>
      <trkpt lat="50.05033" lon="2.15478">
        <ele>31.5</ele>
        <time>2023-10-04T15:01:12Z</time>
      </trkpt>
      <trkpt lat="50.05032" lon="2.15479">
        <ele>31.5</ele>
        <time>2023-10-04T15:01:13Z</time>
      </trkpt>
      <trkpt lat="50.05031" lon="2.1548">
        <ele>31.5</ele>
        <time>2023-10-04T15:01:14Z</time>
      </trkpt>
      <trkpt lat="50.05029" lon="2.15482">
        <ele>31.5</ele>
        <time>2023-10-04T15:01:15Z</time>
      </trkpt>
      <trkpt lat="50.05028" lon="2.15484">
        <ele>31.5</ele>
        <time>2023-10-04T15:01:16Z</time>
      </trkpt>
      <trkpt lat="50.05027" lon="2.15485">
        <ele>31.5</ele>
        <time>2023-10-04T15:01:17Z</time>
      </trkpt>
      <trkpt lat="50.05027" lon="2.15486">
        <ele>31.5</ele>
        <time>2023-10-04T15:01:18Z</time>
      </trkpt>
      <trkpt lat="50.05026" lon="2.15488">
        <ele>31.5</ele>
        <time>2023-10-04T15:01:19Z</time>
      </trkpt>
      <trkpt lat="50.05025" lon="2.15489">
        <ele>31.5</ele>
        <time>2023-10-04T15:01:20Z</time>
      </trkpt>
      <trkpt lat="50.05024" lon="2.15491">
        <ele>31.5</ele>
        <time>2023-10-04T15:01:21Z</time>
      </trkpt>
      <trkpt lat="50.05023" lon="2.15492">
        <ele>31.5</ele>
        <time>2023-10-04T15:01:22Z</time>
      </trkpt>
      <trkpt lat="50.05022" lon="2.15493">
        <ele>31.5</ele>
        <time>2023-10-04T15:01:23Z</time>
      </trkpt>
      <trkpt lat="50.05021" lon="2.15494">
        <ele>31.5</ele>
        <time>2023-10-04T15:01:24Z</time>
      </trkpt>
      <trkpt lat="50.0502" lon="2.15495">
        <ele>31.5</ele>
        <time>2023-10-04T15:01:25Z</time>
      </trkpt>
      <trkpt lat="50.0502" lon="2.15496">
        <ele>31.5</ele>
        <time>2023-10-04T15:01:26Z</time>
      </trkpt>
      <trkpt lat="50.05019" lon="2.15497">
        <ele>31.5</ele>
        <time>2023-10-04T15:01:27Z</time>
      </trkpt>
      <trkpt lat="50.05018" lon="2.15498">
        <ele>31.5</ele>
        <time>2023-10-04T15:01:28Z</time>
      </trkpt>
      <trkpt lat="50.05018" lon="2.15499">
        <ele>31.5</ele>
        <time>2023-10-04T15:01:29Z</time>
      </trkpt>
      <trkpt lat="50.05017" lon="2.15499">
        <ele>31.5</ele>
        <time>2023-10-04T15:01:30Z</time>
      </trkpt>
      <trkpt lat="50.05016" lon="2.155">
        <ele>31.5</ele>
        <time>2023-10-04T15:01:31Z</time>
      </trkpt>
      <trkpt lat="50.05016" lon="2.15501">
        <ele>31.5</ele>
        <time>2023-10-04T15:01:32Z</time>
      </trkpt>
      <trkpt lat="50.05015" lon="2.15501">
        <ele>31.5</ele>
        <time>2023-10-04T15:01:33Z</time>
      </trkpt>
      <trkpt lat="50.05015" lon="2.15502">
        <ele>31.5</ele>
        <time>2023-10-04T15:01:34Z</time>
      </trkpt>
      <trkpt lat="50.05014" lon="2.15502">
        <ele>31.5</ele>
        <time>2023-10-04T15:01:35Z</time>
      </trkpt>
      <trkpt lat="50.05014" lon="2.15502">
        <ele>31.5</ele>
        <time>2023-10-04T15:01:36Z</time>
      </trkpt>
      <trkpt lat="50.05014" lon="2.15502">
        <ele>31.5</ele>
        <time>2023-10-04T15:01:37Z</time>
      </trkpt>
      <trkpt lat="50.05014" lon="2.15502">
        <ele>31.5</ele>
        <time>2023-10-04T15:01:38Z</time>
      </trkpt>
      <trkpt lat="50.05014" lon="2.15503">
        <ele>31.5</ele>
        <time>2023-10-04T15:01:39Z</time>
      </trkpt>
      <trkpt lat="50.05013" lon="2.15504">
        <ele>31.5</ele>
        <time>2023-10-04T15:01:40Z</time>
      </trkpt>
      <trkpt lat="50.05013" lon="2.15504">
        <ele>31.5</ele>
        <time>2023-10-04T15:01:41Z</time>
      </trkpt>
      <trkpt lat="50.05013" lon="2.15505">
        <ele>31.5</ele>
        <time>2023-10-04T15:01:42Z</time>
      </trkpt>
      <trkpt lat="50.05012" lon="2.15506">
        <ele>31.5</ele>
        <time>2023-10-04T15:01:43Z</time>
      </trkpt>
      <trkpt lat="50.05012" lon="2.15507">
        <ele>31.5</ele>
        <time>2023-10-04T15:01:44Z</time>
      </trkpt>
      <trkpt lat="50.05011" lon="2.15509">
        <ele>31.5</ele>
        <time>2023-10-04T15:01:45Z</time>
      </trkpt>
      <trkpt lat="50.05011" lon="2.1551">
        <ele>31.5</ele>
        <time>2023-10-04T15:01:46Z</time>
      </trkpt>
      <trkpt lat="50.05011" lon="2.1551">
        <ele>31.5</ele>
        <time>2023-10-04T15:01:47Z</time>
      </trkpt>
      <trkpt lat="50.0501" lon="2.15511">
        <ele>31.5</ele>
        <time>2023-10-04T15:01:48Z</time>
      </trkpt>
      <trkpt lat="50.0501" lon="2.15512">
        <ele>31.5</ele>
        <time>2023-10-04T15:01:49Z</time>
      </trkpt>
      <trkpt lat="50.05009" lon="2.15514">
        <ele>31.5</ele>
        <time>2023-10-04T15:01:50Z</time>
      </trkpt>
      <trkpt lat="50.05009" lon="2.15515">
        <ele>31.5</ele>
        <time>2023-10-04T15:01:51Z</time>
      </trkpt>
      <trkpt lat="50.05008" lon="2.15516">
        <ele>31.4</ele>
        <time>2023-10-04T15:01:52Z</time>
      </trkpt>
      <trkpt lat="50.05007" lon="2.15517">
        <ele>31.4</ele>
        <time>2023-10-04T15:01:53Z</time>
      </trkpt>
      <trkpt lat="50.05007" lon="2.15518">
        <ele>31.4</ele>
        <time>2023-10-04T15:01:54Z</time>
      </trkpt>
      <trkpt lat="50.05006" lon="2.1552">
        <ele>31.4</ele>
        <time>2023-10-04T15:01:55Z</time>
      </trkpt>
      <trkpt lat="50.05006" lon="2.15521">
        <ele>31.4</ele>
        <time>2023-10-04T15:01:56Z</time>
      </trkpt>
      <trkpt lat="50.05005" lon="2.15523">
        <ele>31.4</ele>
        <time>2023-10-04T15:01:57Z</time>
      </trkpt>
      <trkpt lat="50.05005" lon="2.15524">
        <ele>31.4</ele>
        <time>2023-10-04T15:01:58Z</time>
      </trkpt>
      <trkpt lat="50.05004" lon="2.15525">
        <ele>31.3</ele>
        <time>2023-10-04T15:01:59Z</time>
      </trkpt>
      <trkpt lat="50.05003" lon="2.15528">
        <ele>31.3</ele>
        <time>2023-10-04T15:02:00Z</time>
      </trkpt>
      <trkpt lat="50.05002" lon="2.15529">
        <ele>31.3</ele>
        <time>2023-10-04T15:02:01Z</time>
      </trkpt>
      <trkpt lat="50.05002" lon="2.1553">
        <ele>31.3</ele>
        <time>2023-10-04T15:02:02Z</time>
      </trkpt>
      <trkpt lat="50.05001" lon="2.15533">
        <ele>31.3</ele>
        <time>2023-10-04T15:02:03Z</time>
      </trkpt>
      <trkpt lat="50.05" lon="2.15535">
        <ele>31.2</ele>
        <time>2023-10-04T15:02:04Z</time>
      </trkpt>
      <trkpt lat="50.05" lon="2.15537">
        <ele>31.2</ele>
        <time>2023-10-04T15:02:05Z</time>
      </trkpt>
      <trkpt lat="50.04999" lon="2.15539">
        <ele>31.2</ele>
        <time>2023-10-04T15:02:06Z</time>
      </trkpt>
      <trkpt lat="50.04999" lon="2.15541">
        <ele>31.2</ele>
        <time>2023-10-04T15:02:07Z</time>
      </trkpt>
      <trkpt lat="50.04999" lon="2.15542">
        <ele>31.2</ele>
        <time>2023-10-04T15:02:08Z</time>
      </trkpt>
      <trkpt lat="50.04998" lon="2.15543">
        <ele>31.2</ele>
        <time>2023-10-04T15:02:09Z</time>
      </trkpt>
      <trkpt lat="50.04998" lon="2.15544">
        <ele>31.2</ele>
        <time>2023-10-04T15:02:10Z</time>
      </trkpt>
      <trkpt lat="50.04998" lon="2.15545">
        <ele>31.2</ele>
        <time>2023-10-04T15:02:11Z</time>
      </trkpt>
      <trkpt lat="50.04998" lon="2.15546">
        <ele>31.2</ele>
        <time>2023-10-04T15:02:12Z</time>
      </trkpt>
      <trkpt lat="50.04998" lon="2.15547">
        <ele>31.2</ele>
        <time>2023-10-04T15:02:13Z</time>
      </trkpt>
      <trkpt lat="50.04997" lon="2.15548">
        <ele>31.2</ele>
        <time>2023-10-04T15:02:14Z</time>
      </trkpt>
      <trkpt lat="50.04997" lon="2.1555">
        <ele>31.2</ele>
        <time>2023-10-04T15:02:15Z</time>
      </trkpt>
      <trkpt lat="50.04997" lon="2.15549">
        <ele>31.2</ele>
        <time>2023-10-04T15:02:16Z</time>
      </trkpt>
      <trkpt lat="50.04997" lon="2.15549">
        <ele>31.2</ele>
        <time>2023-10-04T15:02:18Z</time>
      </trkpt>
      <trkpt lat="50.04996" lon="2.15549">
        <ele>31.2</ele>
        <time>2023-10-04T15:02:19Z</time>
      </trkpt>
      <trkpt lat="50.04996" lon="2.15549">
        <ele>31.2</ele>
        <time>2023-10-04T15:02:20Z</time>
      </trkpt>
      <trkpt lat="50.04996" lon="2.15549">
        <ele>31.2</ele>
        <time>2023-10-04T15:02:21Z</time>
      </trkpt>
      <trkpt lat="50.04996" lon="2.15549">
        <ele>31.2</ele>
        <time>2023-10-04T15:02:22Z</time>
      </trkpt>
      <trkpt lat="50.04996" lon="2.15549">
        <ele>31.2</ele>
        <time>2023-10-04T15:02:23Z</time>
      </trkpt>
      <trkpt lat="50.04996" lon="2.15548">
        <ele>31.2</ele>
        <time>2023-10-04T15:02:24Z</time>
      </trkpt>
      <trkpt lat="50.04996" lon="2.15548">
        <ele>31.2</ele>
        <time>2023-10-04T15:02:25Z</time>
      </trkpt>
      <trkpt lat="50.04995" lon="2.15548">
        <ele>31.2</ele>
        <time>2023-10-04T15:02:26Z</time>
      </trkpt>
      <trkpt lat="50.04995" lon="2.15548">
        <ele>31.2</ele>
        <time>2023-10-04T15:02:27Z</time>
      </trkpt>
      <trkpt lat="50.04995" lon="2.15548">
        <ele>31.2</ele>
        <time>2023-10-04T15:02:28Z</time>
      </trkpt>
      <trkpt lat="50.04995" lon="2.15548">
        <ele>31.2</ele>
        <time>2023-10-04T15:02:29Z</time>
      </trkpt>
      <trkpt lat="50.04995" lon="2.15548">
        <ele>31.2</ele>
        <time>2023-10-04T15:02:30Z</time>
      </trkpt>
      <trkpt lat="50.04995" lon="2.15548">
        <ele>31.2</ele>
        <time>2023-10-04T15:02:31Z</time>
      </trkpt>
      <trkpt lat="50.04995" lon="2.15547">
        <ele>31.2</ele>
        <time>2023-10-04T15:02:32Z</time>
      </trkpt>
      <trkpt lat="50.04994" lon="2.15547">
        <ele>31.2</ele>
        <time>2023-10-04T15:02:33Z</time>
      </trkpt>
      <trkpt lat="50.04994" lon="2.15547">
        <ele>31.2</ele>
        <time>2023-10-04T15:02:34Z</time>
      </trkpt>
      <trkpt lat="50.04994" lon="2.15547">
        <ele>31.2</ele>
        <time>2023-10-04T15:02:35Z</time>
      </trkpt>
      <trkpt lat="50.04994" lon="2.15547">
        <ele>31.2</ele>
        <time>2023-10-04T15:02:36Z</time>
      </trkpt>
      <trkpt lat="50.04994" lon="2.15547">
        <ele>31.2</ele>
        <time>2023-10-04T15:02:38Z</time>
      </trkpt>
      <trkpt lat="50.04994" lon="2.15547">
        <ele>31.2</ele>
        <time>2023-10-04T15:02:39Z</time>
      </trkpt>
      <trkpt lat="50.04994" lon="2.15546">
        <ele>31.2</ele>
        <time>2023-10-04T15:02:40Z</time>
      </trkpt>
      <trkpt lat="50.04993" lon="2.15546">
        <ele>31.2</ele>
        <time>2023-10-04T15:02:41Z</time>
      </trkpt>
      <trkpt lat="50.04993" lon="2.15546">
        <ele>31.2</ele>
        <time>2023-10-04T15:02:42Z</time>
      </trkpt>
      <trkpt lat="50.04993" lon="2.15546">
        <ele>31.2</ele>
        <time>2023-10-04T15:02:45Z</time>
      </trkpt>
      <trkpt lat="50.04993" lon="2.15546">
        <ele>31.2</ele>
        <time>2023-10-04T15:02:47Z</time>
      </trkpt>
      <trkpt lat="50.04993" lon="2.15546">
        <ele>31.2</ele>
        <time>2023-10-04T15:02:49Z</time>
      </trkpt>
      <trkpt lat="50.04993" lon="2.15546">
        <ele>31.2</ele>
        <time>2023-10-04T15:02:50Z</time>
      </trkpt>
      <trkpt lat="50.04993" lon="2.15545">
        <ele>31.2</ele>
        <time>2023-10-04T15:02:51Z</time>
      </trkpt>
      <trkpt lat="50.04992" lon="2.15545">
        <ele>31.2</ele>
        <time>2023-10-04T15:02:52Z</time>
      </trkpt>
      <trkpt lat="50.04991" lon="2.15545">
        <ele>31.2</ele>
        <time>2023-10-04T15:02:53Z</time>
      </trkpt>
      <trkpt lat="50.0499" lon="2.15545">
        <ele>31.2</ele>
        <time>2023-10-04T15:02:54Z</time>
      </trkpt>
      <trkpt lat="50.04989" lon="2.15545">
        <ele>31.2</ele>
        <time>2023-10-04T15:02:55Z</time>
      </trkpt>
      <trkpt lat="50.04988" lon="2.15545">
        <ele>31.2</ele>
        <time>2023-10-04T15:02:56Z</time>
      </trkpt>
      <trkpt lat="50.04987" lon="2.15545">
        <ele>31.2</ele>
        <time>2023-10-04T15:02:57Z</time>
      </trkpt>
      <trkpt lat="50.04986" lon="2.15545">
        <ele>31.2</ele>
        <time>2023-10-04T15:02:58Z</time>
      </trkpt>
      <trkpt lat="50.04986" lon="2.15545">
        <ele>31.2</ele>
        <time>2023-10-04T15:02:59Z</time>
      </trkpt>
      <trkpt lat="50.04984" lon="2.15546">
        <ele>31.2</ele>
        <time>2023-10-04T15:03:00Z</time>
      </trkpt>
      <trkpt lat="50.04983" lon="2.15547">
        <ele>31.2</ele>
        <time>2023-10-04T15:03:01Z</time>
      </trkpt>
      <trkpt lat="50.04981" lon="2.15549">
        <ele>31.2</ele>
        <time>2023-10-04T15:03:02Z</time>
      </trkpt>
      <trkpt lat="50.0498" lon="2.1555">
        <ele>31.2</ele>
        <time>2023-10-04T15:03:03Z</time>
      </trkpt>
      <trkpt lat="50.0498" lon="2.1555">
        <ele>31.2</ele>
        <time>2023-10-04T15:03:04Z</time>
      </trkpt>
      <trkpt lat="50.04979" lon="2.15552">
        <ele>31.2</ele>
        <time>2023-10-04T15:03:05Z</time>
      </trkpt>
      <trkpt lat="50.04978" lon="2.15553">
        <ele>31.2</ele>
        <time>2023-10-04T15:03:06Z</time>
      </trkpt>
      <trkpt lat="50.04977" lon="2.15554">
        <ele>31.2</ele>
        <time>2023-10-04T15:03:07Z</time>
      </trkpt>
      <trkpt lat="50.04977" lon="2.15555">
        <ele>31.2</ele>
        <time>2023-10-04T15:03:08Z</time>
      </trkpt>
      <trkpt lat="50.04976" lon="2.15557">
        <ele>31.2</ele>
        <time>2023-10-04T15:03:09Z</time>
      </trkpt>
      <trkpt lat="50.04975" lon="2.15558">
        <ele>31.2</ele>
        <time>2023-10-04T15:03:10Z</time>
      </trkpt>
      <trkpt lat="50.04974" lon="2.15559">
        <ele>31.2</ele>
        <time>2023-10-04T15:03:11Z</time>
      </trkpt>
      <trkpt lat="50.04974" lon="2.1556">
        <ele>31.2</ele>
        <time>2023-10-04T15:03:12Z</time>
      </trkpt>
      <trkpt lat="50.04973" lon="2.15561">
        <ele>31.2</ele>
        <time>2023-10-04T15:03:13Z</time>
      </trkpt>
      <trkpt lat="50.04971" lon="2.15564">
        <ele>31.2</ele>
        <time>2023-10-04T15:03:14Z</time>
      </trkpt>
      <trkpt lat="50.0497" lon="2.15565">
        <ele>31.2</ele>
        <time>2023-10-04T15:03:15Z</time>
      </trkpt>
      <trkpt lat="50.04969" lon="2.15566">
        <ele>31.2</ele>
        <time>2023-10-04T15:03:16Z</time>
      </trkpt>
      <trkpt lat="50.04968" lon="2.15567">
        <ele>31.2</ele>
        <time>2023-10-04T15:03:17Z</time>
      </trkpt>
      <trkpt lat="50.04966" lon="2.15569">
        <ele>31.2</ele>
        <time>2023-10-04T15:03:18Z</time>
      </trkpt>
      <trkpt lat="50.04965" lon="2.1557">
        <ele>31.2</ele>
        <time>2023-10-04T15:03:19Z</time>
      </trkpt>
      <trkpt lat="50.04963" lon="2.15572">
        <ele>31.2</ele>
        <time>2023-10-04T15:03:20Z</time>
      </trkpt>
      <trkpt lat="50.04962" lon="2.15572">
        <ele>31.2</ele>
        <time>2023-10-04T15:03:21Z</time>
      </trkpt>
      <trkpt lat="50.04961" lon="2.15573">
        <ele>31.2</ele>
        <time>2023-10-04T15:03:22Z</time>
      </trkpt>
      <trkpt lat="50.04961" lon="2.15573">
        <ele>31.2</ele>
        <time>2023-10-04T15:03:23Z</time>
      </trkpt>
      <trkpt lat="50.0496" lon="2.15574">
        <ele>31.2</ele>
        <time>2023-10-04T15:03:24Z</time>
      </trkpt>
      <trkpt lat="50.04959" lon="2.15575">
        <ele>31.2</ele>
        <time>2023-10-04T15:03:25Z</time>
      </trkpt>
      <trkpt lat="50.04959" lon="2.15576">
        <ele>31.2</ele>
        <time>2023-10-04T15:03:26Z</time>
      </trkpt>
      <trkpt lat="50.04959" lon="2.15577">
        <ele>31.2</ele>
        <time>2023-10-04T15:03:27Z</time>
      </trkpt>
      <trkpt lat="50.04958" lon="2.15578">
        <ele>31.2</ele>
        <time>2023-10-04T15:03:28Z</time>
      </trkpt>
      <trkpt lat="50.04958" lon="2.15579">
        <ele>31.2</ele>
        <time>2023-10-04T15:03:29Z</time>
      </trkpt>
      <trkpt lat="50.04958" lon="2.15581">
        <ele>31.2</ele>
        <time>2023-10-04T15:03:30Z</time>
      </trkpt>
      <trkpt lat="50.04957" lon="2.15582">
        <ele>31.2</ele>
        <time>2023-10-04T15:03:31Z</time>
      </trkpt>
      <trkpt lat="50.04957" lon="2.15583">
        <ele>31.2</ele>
        <time>2023-10-04T15:03:32Z</time>
      </trkpt>
      <trkpt lat="50.04957" lon="2.15584">
        <ele>31.2</ele>
        <time>2023-10-04T15:03:33Z</time>
      </trkpt>
      <trkpt lat="50.04956" lon="2.15586">
        <ele>31.2</ele>
        <time>2023-10-04T15:03:34Z</time>
      </trkpt>
      <trkpt lat="50.04956" lon="2.15587">
        <ele>31.2</ele>
        <time>2023-10-04T15:03:35Z</time>
      </trkpt>
      <trkpt lat="50.04955" lon="2.15588">
        <ele>31.2</ele>
        <time>2023-10-04T15:03:36Z</time>
      </trkpt>
      <trkpt lat="50.04955" lon="2.15589">
        <ele>31.2</ele>
        <time>2023-10-04T15:03:37Z</time>
      </trkpt>
      <trkpt lat="50.04954" lon="2.1559">
        <ele>31.2</ele>
        <time>2023-10-04T15:03:38Z</time>
      </trkpt>
      <trkpt lat="50.04954" lon="2.15591">
        <ele>31.2</ele>
        <time>2023-10-04T15:03:39Z</time>
      </trkpt>
      <trkpt lat="50.04953" lon="2.15591">
        <ele>31.2</ele>
        <time>2023-10-04T15:03:40Z</time>
      </trkpt>
      <trkpt lat="50.04952" lon="2.15592">
        <ele>31.2</ele>
        <time>2023-10-04T15:03:41Z</time>
      </trkpt>
      <trkpt lat="50.04951" lon="2.15593">
        <ele>31.2</ele>
        <time>2023-10-04T15:03:42Z</time>
      </trkpt>
      <trkpt lat="50.04951" lon="2.15593">
        <ele>31.2</ele>
        <time>2023-10-04T15:03:43Z</time>
      </trkpt>
      <trkpt lat="50.04949" lon="2.15594">
        <ele>31.2</ele>
        <time>2023-10-04T15:03:44Z</time>
      </trkpt>
      <trkpt lat="50.04948" lon="2.15595">
        <ele>31.2</ele>
        <time>2023-10-04T15:03:45Z</time>
      </trkpt>
      <trkpt lat="50.04947" lon="2.15595">
        <ele>31.2</ele>
        <time>2023-10-04T15:03:46Z</time>
      </trkpt>
      <trkpt lat="50.04946" lon="2.15596">
        <ele>31.2</ele>
        <time>2023-10-04T15:03:47Z</time>
      </trkpt>
      <trkpt lat="50.04944" lon="2.15597">
        <ele>31.2</ele>
        <time>2023-10-04T15:03:48Z</time>
      </trkpt>
      <trkpt lat="50.04943" lon="2.15599">
        <ele>31.2</ele>
        <time>2023-10-04T15:03:49Z</time>
      </trkpt>
      <trkpt lat="50.04942" lon="2.156">
        <ele>31.2</ele>
        <time>2023-10-04T15:03:50Z</time>
      </trkpt>
      <trkpt lat="50.0494" lon="2.15602">
        <ele>31.2</ele>
        <time>2023-10-04T15:03:51Z</time>
      </trkpt>
      <trkpt lat="50.0494" lon="2.15603">
        <ele>31.2</ele>
        <time>2023-10-04T15:03:52Z</time>
      </trkpt>
      <trkpt lat="50.04939" lon="2.15603">
        <ele>31.2</ele>
        <time>2023-10-04T15:03:53Z</time>
      </trkpt>
      <trkpt lat="50.04937" lon="2.15605">
        <ele>31.2</ele>
        <time>2023-10-04T15:03:54Z</time>
      </trkpt>
      <trkpt lat="50.04937" lon="2.15606">
        <ele>31.2</ele>
        <time>2023-10-04T15:03:55Z</time>
      </trkpt>
      <trkpt lat="50.04936" lon="2.15607">
        <ele>31.2</ele>
        <time>2023-10-04T15:03:56Z</time>
      </trkpt>
      <trkpt lat="50.04935" lon="2.15608">
        <ele>31.2</ele>
        <time>2023-10-04T15:03:57Z</time>
      </trkpt>
      <trkpt lat="50.04934" lon="2.15609">
        <ele>31.2</ele>
        <time>2023-10-04T15:03:58Z</time>
      </trkpt>
      <trkpt lat="50.04933" lon="2.15611">
        <ele>31.2</ele>
        <time>2023-10-04T15:03:59Z</time>
      </trkpt>
      <trkpt lat="50.04932" lon="2.15612">
        <ele>31.2</ele>
        <time>2023-10-04T15:04:00Z</time>
      </trkpt>
      <trkpt lat="50.04931" lon="2.15612">
        <ele>31.2</ele>
        <time>2023-10-04T15:04:01Z</time>
      </trkpt>
      <trkpt lat="50.04931" lon="2.15613">
        <ele>31.2</ele>
        <time>2023-10-04T15:04:02Z</time>
      </trkpt>
      <trkpt lat="50.0493" lon="2.15614">
        <ele>31.2</ele>
        <time>2023-10-04T15:04:03Z</time>
      </trkpt>
      <trkpt lat="50.04929" lon="2.15615">
        <ele>31.2</ele>
        <time>2023-10-04T15:04:04Z</time>
      </trkpt>
      <trkpt lat="50.04929" lon="2.15616">
        <ele>31.2</ele>
        <time>2023-10-04T15:04:05Z</time>
      </trkpt>
      <trkpt lat="50.04928" lon="2.15617">
        <ele>31.2</ele>
        <time>2023-10-04T15:04:06Z</time>
      </trkpt>
      <trkpt lat="50.04928" lon="2.15618">
        <ele>31.2</ele>
        <time>2023-10-04T15:04:07Z</time>
      </trkpt>
      <trkpt lat="50.04927" lon="2.15619">
        <ele>31.2</ele>
        <time>2023-10-04T15:04:08Z</time>
      </trkpt>
      <trkpt lat="50.04926" lon="2.1562">
        <ele>31.2</ele>
        <time>2023-10-04T15:04:09Z</time>
      </trkpt>
      <trkpt lat="50.04926" lon="2.15621">
        <ele>31.2</ele>
        <time>2023-10-04T15:04:10Z</time>
      </trkpt>
      <trkpt lat="50.04925" lon="2.15622">
        <ele>31.2</ele>
        <time>2023-10-04T15:04:11Z</time>
      </trkpt>
      <trkpt lat="50.04924" lon="2.15623">
        <ele>31.2</ele>
        <time>2023-10-04T15:04:12Z</time>
      </trkpt>
      <trkpt lat="50.04924" lon="2.15624">
        <ele>31.2</ele>
        <time>2023-10-04T15:04:13Z</time>
      </trkpt>
      <trkpt lat="50.04923" lon="2.15625">
        <ele>31.2</ele>
        <time>2023-10-04T15:04:14Z</time>
      </trkpt>
      <trkpt lat="50.04923" lon="2.15626">
        <ele>31.2</ele>
        <time>2023-10-04T15:04:15Z</time>
      </trkpt>
      <trkpt lat="50.04922" lon="2.15627">
        <ele>31.2</ele>
        <time>2023-10-04T15:04:16Z</time>
      </trkpt>
      <trkpt lat="50.04921" lon="2.15628">
        <ele>31.2</ele>
        <time>2023-10-04T15:04:17Z</time>
      </trkpt>
      <trkpt lat="50.0492" lon="2.15629">
        <ele>31.2</ele>
        <time>2023-10-04T15:04:18Z</time>
      </trkpt>
      <trkpt lat="50.0492" lon="2.15631">
        <ele>31.2</ele>
        <time>2023-10-04T15:04:19Z</time>
      </trkpt>
      <trkpt lat="50.04919" lon="2.15632">
        <ele>31.2</ele>
        <time>2023-10-04T15:04:20Z</time>
      </trkpt>
      <trkpt lat="50.04918" lon="2.15633">
        <ele>31.2</ele>
        <time>2023-10-04T15:04:21Z</time>
      </trkpt>
      <trkpt lat="50.04918" lon="2.15634">
        <ele>31.2</ele>
        <time>2023-10-04T15:04:22Z</time>
      </trkpt>
      <trkpt lat="50.04917" lon="2.15636">
        <ele>31.2</ele>
        <time>2023-10-04T15:04:23Z</time>
      </trkpt>
      <trkpt lat="50.04916" lon="2.15637">
        <ele>31.2</ele>
        <time>2023-10-04T15:04:24Z</time>
      </trkpt>
      <trkpt lat="50.04916" lon="2.15638">
        <ele>31.2</ele>
        <time>2023-10-04T15:04:25Z</time>
      </trkpt>
      <trkpt lat="50.04915" lon="2.15639">
        <ele>31.2</ele>
        <time>2023-10-04T15:04:26Z</time>
      </trkpt>
      <trkpt lat="50.04914" lon="2.1564">
        <ele>31.2</ele>
        <time>2023-10-04T15:04:27Z</time>
      </trkpt>
      <trkpt lat="50.04913" lon="2.15641">
        <ele>31.2</ele>
        <time>2023-10-04T15:04:28Z</time>
      </trkpt>
      <trkpt lat="50.04913" lon="2.15642">
        <ele>31.2</ele>
        <time>2023-10-04T15:04:29Z</time>
      </trkpt>
      <trkpt lat="50.04912" lon="2.15644">
        <ele>31.2</ele>
        <time>2023-10-04T15:04:30Z</time>
      </trkpt>
      <trkpt lat="50.04911" lon="2.15645">
        <ele>31.2</ele>
        <time>2023-10-04T15:04:31Z</time>
      </trkpt>
      <trkpt lat="50.0491" lon="2.15646">
        <ele>31.2</ele>
        <time>2023-10-04T15:04:32Z</time>
      </trkpt>
      <trkpt lat="50.0491" lon="2.15647">
        <ele>31.2</ele>
        <time>2023-10-04T15:04:33Z</time>
      </trkpt>
      <trkpt lat="50.04909" lon="2.15648">
        <ele>31.2</ele>
        <time>2023-10-04T15:04:34Z</time>
      </trkpt>
      <trkpt lat="50.04908" lon="2.15649">
        <ele>31.2</ele>
        <time>2023-10-04T15:04:35Z</time>
      </trkpt>
      <trkpt lat="50.04907" lon="2.1565">
        <ele>31.2</ele>
        <time>2023-10-04T15:04:36Z</time>
      </trkpt>
      <trkpt lat="50.04907" lon="2.15651">
        <ele>31.2</ele>
        <time>2023-10-04T15:04:37Z</time>
      </trkpt>
      <trkpt lat="50.04906" lon="2.15651">
        <ele>31.2</ele>
        <time>2023-10-04T15:04:38Z</time>
      </trkpt>
      <trkpt lat="50.04905" lon="2.15652">
        <ele>31.2</ele>
        <time>2023-10-04T15:04:39Z</time>
      </trkpt>
      <trkpt lat="50.04905" lon="2.15653">
        <ele>31.2</ele>
        <time>2023-10-04T15:04:40Z</time>
      </trkpt>
      <trkpt lat="50.04904" lon="2.15654">
        <ele>31.2</ele>
        <time>2023-10-04T15:04:42Z</time>
      </trkpt>
      <trkpt lat="50.04903" lon="2.15656">
        <ele>31.2</ele>
        <time>2023-10-04T15:04:43Z</time>
      </trkpt>
      <trkpt lat="50.04903" lon="2.15657">
        <ele>31.2</ele>
        <time>2023-10-04T15:04:44Z</time>
      </trkpt>
      <trkpt lat="50.04902" lon="2.15658">
        <ele>31.2</ele>
        <time>2023-10-04T15:04:45Z</time>
      </trkpt>
      <trkpt lat="50.04901" lon="2.15659">
        <ele>31.2</ele>
        <time>2023-10-04T15:04:46Z</time>
      </trkpt>
      <trkpt lat="50.04901" lon="2.1566">
        <ele>31.2</ele>
        <time>2023-10-04T15:04:47Z</time>
      </trkpt>
      <trkpt lat="50.049" lon="2.15661">
        <ele>31.2</ele>
        <time>2023-10-04T15:04:48Z</time>
      </trkpt>
      <trkpt lat="50.04899" lon="2.15662">
        <ele>31.2</ele>
        <time>2023-10-04T15:04:49Z</time>
      </trkpt>
      <trkpt lat="50.04898" lon="2.15663">
        <ele>31.2</ele>
        <time>2023-10-04T15:04:50Z</time>
      </trkpt>
      <trkpt lat="50.04898" lon="2.15664">
        <ele>31.2</ele>
        <time>2023-10-04T15:04:51Z</time>
      </trkpt>
      <trkpt lat="50.04897" lon="2.15665">
        <ele>31.2</ele>
        <time>2023-10-04T15:04:52Z</time>
      </trkpt>
      <trkpt lat="50.04896" lon="2.15667">
        <ele>31.2</ele>
        <time>2023-10-04T15:04:53Z</time>
      </trkpt>
      <trkpt lat="50.04895" lon="2.15668">
        <ele>31.2</ele>
        <time>2023-10-04T15:04:54Z</time>
      </trkpt>
      <trkpt lat="50.04895" lon="2.15669">
        <ele>31.2</ele>
        <time>2023-10-04T15:04:55Z</time>
      </trkpt>
      <trkpt lat="50.04894" lon="2.1567">
        <ele>31.2</ele>
        <time>2023-10-04T15:04:56Z</time>
      </trkpt>
      <trkpt lat="50.04893" lon="2.15671">
        <ele>31.2</ele>
        <time>2023-10-04T15:04:57Z</time>
      </trkpt>
      <trkpt lat="50.04892" lon="2.15673">
        <ele>31.2</ele>
        <time>2023-10-04T15:04:58Z</time>
      </trkpt>
      <trkpt lat="50.04892" lon="2.15674">
        <ele>31.2</ele>
        <time>2023-10-04T15:04:59Z</time>
      </trkpt>
      <trkpt lat="50.04891" lon="2.15675">
        <ele>31.2</ele>
        <time>2023-10-04T15:05:00Z</time>
      </trkpt>
      <trkpt lat="50.0489" lon="2.15676">
        <ele>31.2</ele>
        <time>2023-10-04T15:05:01Z</time>
      </trkpt>
      <trkpt lat="50.04889" lon="2.15677">
        <ele>31.2</ele>
        <time>2023-10-04T15:05:02Z</time>
      </trkpt>
      <trkpt lat="50.04889" lon="2.15678">
        <ele>31.2</ele>
        <time>2023-10-04T15:05:03Z</time>
      </trkpt>
      <trkpt lat="50.04888" lon="2.15679">
        <ele>31.2</ele>
        <time>2023-10-04T15:05:04Z</time>
      </trkpt>
      <trkpt lat="50.04887" lon="2.1568">
        <ele>31.2</ele>
        <time>2023-10-04T15:05:05Z</time>
      </trkpt>
      <trkpt lat="50.04886" lon="2.15681">
        <ele>31.2</ele>
        <time>2023-10-04T15:05:06Z</time>
      </trkpt>
      <trkpt lat="50.04886" lon="2.15682">
        <ele>31.2</ele>
        <time>2023-10-04T15:05:07Z</time>
      </trkpt>
      <trkpt lat="50.04885" lon="2.15684">
        <ele>31.3</ele>
        <time>2023-10-04T15:05:08Z</time>
      </trkpt>
      <trkpt lat="50.04885" lon="2.15685">
        <ele>31.3</ele>
        <time>2023-10-04T15:05:09Z</time>
      </trkpt>
      <trkpt lat="50.04884" lon="2.15686">
        <ele>31.3</ele>
        <time>2023-10-04T15:05:10Z</time>
      </trkpt>
      <trkpt lat="50.04884" lon="2.15687">
        <ele>31.3</ele>
        <time>2023-10-04T15:05:11Z</time>
      </trkpt>
      <trkpt lat="50.04883" lon="2.15689">
        <ele>31.3</ele>
        <time>2023-10-04T15:05:12Z</time>
      </trkpt>
      <trkpt lat="50.04883" lon="2.1569">
        <ele>31.3</ele>
        <time>2023-10-04T15:05:13Z</time>
      </trkpt>
      <trkpt lat="50.04882" lon="2.15692">
        <ele>31.3</ele>
        <time>2023-10-04T15:05:14Z</time>
      </trkpt>
      <trkpt lat="50.04881" lon="2.15693">
        <ele>31.3</ele>
        <time>2023-10-04T15:05:15Z</time>
      </trkpt>
      <trkpt lat="50.04881" lon="2.15694">
        <ele>31.3</ele>
        <time>2023-10-04T15:05:16Z</time>
      </trkpt>
      <trkpt lat="50.0488" lon="2.15695">
        <ele>31.3</ele>
        <time>2023-10-04T15:05:17Z</time>
      </trkpt>
      <trkpt lat="50.0488" lon="2.15696">
        <ele>31.3</ele>
        <time>2023-10-04T15:05:18Z</time>
      </trkpt>
      <trkpt lat="50.04879" lon="2.15697">
        <ele>31.3</ele>
        <time>2023-10-04T15:05:19Z</time>
      </trkpt>
      <trkpt lat="50.04878" lon="2.15699">
        <ele>31.3</ele>
        <time>2023-10-04T15:05:20Z</time>
      </trkpt>
      <trkpt lat="50.04878" lon="2.157">
        <ele>31.3</ele>
        <time>2023-10-04T15:05:21Z</time>
      </trkpt>
      <trkpt lat="50.04877" lon="2.15701">
        <ele>31.3</ele>
        <time>2023-10-04T15:05:22Z</time>
      </trkpt>
      <trkpt lat="50.04876" lon="2.15702">
        <ele>31.3</ele>
        <time>2023-10-04T15:05:23Z</time>
      </trkpt>
      <trkpt lat="50.04876" lon="2.15703">
        <ele>31.3</ele>
        <time>2023-10-04T15:05:24Z</time>
      </trkpt>
      <trkpt lat="50.04875" lon="2.15704">
        <ele>31.3</ele>
        <time>2023-10-04T15:05:25Z</time>
      </trkpt>
      <trkpt lat="50.04874" lon="2.15705">
        <ele>31.3</ele>
        <time>2023-10-04T15:05:26Z</time>
      </trkpt>
      <trkpt lat="50.04874" lon="2.15706">
        <ele>31.3</ele>
        <time>2023-10-04T15:05:27Z</time>
      </trkpt>
      <trkpt lat="50.04873" lon="2.15708">
        <ele>31.3</ele>
        <time>2023-10-04T15:05:28Z</time>
      </trkpt>
      <trkpt lat="50.04872" lon="2.15709">
        <ele>31.4</ele>
        <time>2023-10-04T15:05:29Z</time>
      </trkpt>
      <trkpt lat="50.04871" lon="2.1571">
        <ele>31.4</ele>
        <time>2023-10-04T15:05:30Z</time>
      </trkpt>
      <trkpt lat="50.04871" lon="2.1571">
        <ele>31.4</ele>
        <time>2023-10-04T15:05:31Z</time>
      </trkpt>
      <trkpt lat="50.0487" lon="2.15711">
        <ele>31.4</ele>
        <time>2023-10-04T15:05:32Z</time>
      </trkpt>
      <trkpt lat="50.04869" lon="2.15712">
        <ele>31.4</ele>
        <time>2023-10-04T15:05:33Z</time>
      </trkpt>
      <trkpt lat="50.04868" lon="2.15713">
        <ele>31.4</ele>
        <time>2023-10-04T15:05:34Z</time>
      </trkpt>
      <trkpt lat="50.04867" lon="2.15713">
        <ele>31.4</ele>
        <time>2023-10-04T15:05:35Z</time>
      </trkpt>
      <trkpt lat="50.04866" lon="2.15713">
        <ele>31.4</ele>
        <time>2023-10-04T15:05:36Z</time>
      </trkpt>
      <trkpt lat="50.04866" lon="2.15712">
        <ele>31.4</ele>
        <time>2023-10-04T15:05:37Z</time>
      </trkpt>
      <trkpt lat="50.04866" lon="2.15711">
        <ele>31.4</ele>
        <time>2023-10-04T15:05:38Z</time>
      </trkpt>
      <trkpt lat="50.04866" lon="2.1571">
        <ele>31.4</ele>
        <time>2023-10-04T15:05:39Z</time>
      </trkpt>
      <trkpt lat="50.04866" lon="2.15709">
        <ele>31.4</ele>
        <time>2023-10-04T15:05:40Z</time>
      </trkpt>
      <trkpt lat="50.04866" lon="2.15709">
        <ele>31.4</ele>
        <time>2023-10-04T15:05:41Z</time>
      </trkpt>
      <trkpt lat="50.04866" lon="2.15709">
        <ele>31.4</ele>
        <time>2023-10-04T15:05:42Z</time>
      </trkpt>
      <trkpt lat="50.04866" lon="2.15708">
        <ele>31.4</ele>
        <time>2023-10-04T15:05:43Z</time>
      </trkpt>
      <trkpt lat="50.04867" lon="2.15708">
        <ele>31.4</ele>
        <time>2023-10-04T15:05:44Z</time>
      </trkpt>
      <trkpt lat="50.04867" lon="2.15708">
        <ele>31.4</ele>
        <time>2023-10-04T15:05:45Z</time>
      </trkpt>
      <trkpt lat="50.04867" lon="2.15708">
        <ele>31.4</ele>
        <time>2023-10-04T15:05:46Z</time>
      </trkpt>
      <trkpt lat="50.04867" lon="2.15708">
        <ele>31.4</ele>
        <time>2023-10-04T15:05:47Z</time>
      </trkpt>
      <trkpt lat="50.04867" lon="2.15708">
        <ele>31.4</ele>
        <time>2023-10-04T15:05:48Z</time>
      </trkpt>
      <trkpt lat="50.04867" lon="2.15708">
        <ele>31.4</ele>
        <time>2023-10-04T15:05:49Z</time>
      </trkpt>
      <trkpt lat="50.04867" lon="2.15708">
        <ele>31.4</ele>
        <time>2023-10-04T15:05:50Z</time>
      </trkpt>
      <trkpt lat="50.04867" lon="2.15708">
        <ele>31.4</ele>
        <time>2023-10-04T15:05:51Z</time>
      </trkpt>
      <trkpt lat="50.04867" lon="2.15708">
        <ele>31.4</ele>
        <time>2023-10-04T15:05:52Z</time>
      </trkpt>
      <trkpt lat="50.04867" lon="2.15708">
        <ele>31.4</ele>
        <time>2023-10-04T15:05:53Z</time>
      </trkpt>
      <trkpt lat="50.04867" lon="2.15708">
        <ele>31.4</ele>
        <time>2023-10-04T15:05:54Z</time>
      </trkpt>
      <trkpt lat="50.04867" lon="2.15708">
        <ele>31.4</ele>
        <time>2023-10-04T15:05:55Z</time>
      </trkpt>
      <trkpt lat="50.04867" lon="2.15708">
        <ele>31.4</ele>
        <time>2023-10-04T15:05:56Z</time>
      </trkpt>
      <trkpt lat="50.04867" lon="2.15708">
        <ele>31.4</ele>
        <time>2023-10-04T15:05:57Z</time>
      </trkpt>
      <trkpt lat="50.04867" lon="2.15708">
        <ele>31.4</ele>
        <time>2023-10-04T15:05:58Z</time>
      </trkpt>
      <trkpt lat="50.04867" lon="2.15708">
        <ele>31.4</ele>
        <time>2023-10-04T15:05:59Z</time>
      </trkpt>
      <trkpt lat="50.04867" lon="2.15708">
        <ele>31.4</ele>
        <time>2023-10-04T15:06:00Z</time>
      </trkpt>
      <trkpt lat="50.04867" lon="2.15708">
        <ele>31.4</ele>
        <time>2023-10-04T15:06:01Z</time>
      </trkpt>
      <trkpt lat="50.04867" lon="2.15708">
        <ele>31.4</ele>
        <time>2023-10-04T15:06:02Z</time>
      </trkpt>
      <trkpt lat="50.04867" lon="2.15708">
        <ele>31.4</ele>
        <time>2023-10-04T15:06:03Z</time>
      </trkpt>
      <trkpt lat="50.04867" lon="2.15708">
        <ele>31.4</ele>
        <time>2023-10-04T15:06:04Z</time>
      </trkpt>
      <trkpt lat="50.04867" lon="2.15708">
        <ele>31.4</ele>
        <time>2023-10-04T15:06:05Z</time>
      </trkpt>
      <trkpt lat="50.04867" lon="2.15708">
        <ele>31.4</ele>
        <time>2023-10-04T15:06:06Z</time>
      </trkpt>
      <trkpt lat="50.04867" lon="2.15708">
        <ele>31.4</ele>
        <time>2023-10-04T15:06:07Z</time>
      </trkpt>
      <trkpt lat="50.04867" lon="2.15708">
        <ele>31.4</ele>
        <time>2023-10-04T15:06:08Z</time>
      </trkpt>
      <trkpt lat="50.04867" lon="2.15708">
        <ele>31.4</ele>
        <time>2023-10-04T15:06:09Z</time>
      </trkpt>
      <trkpt lat="50.04868" lon="2.15707">
        <ele>31.4</ele>
        <time>2023-10-04T15:06:10Z</time>
      </trkpt>
      <trkpt lat="50.04869" lon="2.15706">
        <ele>31.4</ele>
        <time>2023-10-04T15:06:11Z</time>
      </trkpt>
      <trkpt lat="50.04869" lon="2.15706">
        <ele>31.4</ele>
        <time>2023-10-04T15:06:12Z</time>
      </trkpt>
      <trkpt lat="50.04869" lon="2.15706">
        <ele>31.4</ele>
        <time>2023-10-04T15:06:13Z</time>
      </trkpt>
      <trkpt lat="50.04869" lon="2.15706">
        <ele>31.4</ele>
        <time>2023-10-04T15:06:14Z</time>
      </trkpt>
      <trkpt lat="50.04869" lon="2.15706">
        <ele>31.4</ele>
        <time>2023-10-04T15:06:15Z</time>
      </trkpt>
      <trkpt lat="50.04869" lon="2.15706">
        <ele>31.4</ele>
        <time>2023-10-04T15:06:16Z</time>
      </trkpt>
      <trkpt lat="50.04869" lon="2.15706">
        <ele>31.4</ele>
        <time>2023-10-04T15:06:17Z</time>
      </trkpt>
      <trkpt lat="50.04869" lon="2.15706">
        <ele>31.4</ele>
        <time>2023-10-04T15:06:18Z</time>
      </trkpt>
      <trkpt lat="50.04869" lon="2.15706">
        <ele>31.4</ele>
        <time>2023-10-04T15:06:19Z</time>
      </trkpt>
      <trkpt lat="50.04869" lon="2.15706">
        <ele>31.4</ele>
        <time>2023-10-04T15:06:20Z</time>
      </trkpt>
      <trkpt lat="50.04869" lon="2.15706">
        <ele>31.4</ele>
        <time>2023-10-04T15:06:21Z</time>
      </trkpt>
      <trkpt lat="50.04869" lon="2.15706">
        <ele>31.4</ele>
        <time>2023-10-04T15:06:22Z</time>
      </trkpt>
      <trkpt lat="50.04869" lon="2.15706">
        <ele>31.4</ele>
        <time>2023-10-04T15:06:23Z</time>
      </trkpt>
      <trkpt lat="50.04868" lon="2.15707">
        <ele>31.4</ele>
        <time>2023-10-04T15:06:24Z</time>
      </trkpt>
      <trkpt lat="50.04868" lon="2.15707">
        <ele>31.4</ele>
        <time>2023-10-04T15:06:25Z</time>
      </trkpt>
      <trkpt lat="50.04868" lon="2.15707">
        <ele>31.4</ele>
        <time>2023-10-04T15:06:26Z</time>
      </trkpt>
      <trkpt lat="50.04868" lon="2.15707">
        <ele>31.4</ele>
        <time>2023-10-04T15:06:27Z</time>
      </trkpt>
      <trkpt lat="50.04868" lon="2.15707">
        <ele>31.4</ele>
        <time>2023-10-04T15:06:28Z</time>
      </trkpt>
      <trkpt lat="50.04869" lon="2.15707">
        <ele>31.4</ele>
        <time>2023-10-04T15:06:29Z</time>
      </trkpt>
      <trkpt lat="50.04869" lon="2.15708">
        <ele>31.4</ele>
        <time>2023-10-04T15:06:30Z</time>
      </trkpt>
      <trkpt lat="50.04869" lon="2.15708">
        <ele>31.4</ele>
        <time>2023-10-04T15:06:31Z</time>
      </trkpt>
      <trkpt lat="50.04868" lon="2.15708">
        <ele>31.4</ele>
        <time>2023-10-04T15:06:32Z</time>
      </trkpt>
      <trkpt lat="50.04868" lon="2.15708">
        <ele>31.4</ele>
        <time>2023-10-04T15:06:33Z</time>
      </trkpt>
      <trkpt lat="50.04868" lon="2.15708">
        <ele>31.4</ele>
        <time>2023-10-04T15:06:34Z</time>
      </trkpt>
      <trkpt lat="50.04868" lon="2.15708">
        <ele>31.4</ele>
        <time>2023-10-04T15:06:35Z</time>
      </trkpt>
      <trkpt lat="50.04868" lon="2.15708">
        <ele>31.4</ele>
        <time>2023-10-04T15:06:36Z</time>
      </trkpt>
      <trkpt lat="50.04868" lon="2.15708">
        <ele>31.4</ele>
        <time>2023-10-04T15:06:37Z</time>
      </trkpt>
      <trkpt lat="50.04868" lon="2.15708">
        <ele>31.4</ele>
        <time>2023-10-04T15:06:38Z</time>
      </trkpt>
      <trkpt lat="50.04868" lon="2.15708">
        <ele>31.4</ele>
        <time>2023-10-04T15:06:39Z</time>
      </trkpt>
      <trkpt lat="50.04868" lon="2.15708">
        <ele>31.4</ele>
        <time>2023-10-04T15:06:40Z</time>
      </trkpt>
      <trkpt lat="50.04868" lon="2.15708">
        <ele>31.4</ele>
        <time>2023-10-04T15:06:41Z</time>
      </trkpt>
      <trkpt lat="50.04868" lon="2.15708">
        <ele>31.4</ele>
        <time>2023-10-04T15:06:42Z</time>
      </trkpt>
      <trkpt lat="50.04868" lon="2.15708">
        <ele>31.4</ele>
        <time>2023-10-04T15:06:43Z</time>
      </trkpt>
      <trkpt lat="50.04868" lon="2.15708">
        <ele>31.4</ele>
        <time>2023-10-04T15:06:44Z</time>
      </trkpt>
      <trkpt lat="50.04868" lon="2.15708">
        <ele>31.4</ele>
        <time>2023-10-04T15:06:45Z</time>
      </trkpt>
      <trkpt lat="50.04868" lon="2.15708">
        <ele>31.4</ele>
        <time>2023-10-04T15:06:46Z</time>
      </trkpt>
      <trkpt lat="50.04868" lon="2.15708">
        <ele>31.4</ele>
        <time>2023-10-04T15:06:47Z</time>
      </trkpt>
      <trkpt lat="50.04869" lon="2.15709">
        <ele>31.4</ele>
        <time>2023-10-04T15:06:48Z</time>
      </trkpt>
      <trkpt lat="50.04869" lon="2.15709">
        <ele>31.4</ele>
        <time>2023-10-04T15:06:49Z</time>
      </trkpt>
      <trkpt lat="50.04869" lon="2.15709">
        <ele>31.4</ele>
        <time>2023-10-04T15:06:50Z</time>
      </trkpt>
      <trkpt lat="50.04869" lon="2.15709">
        <ele>31.5</ele>
        <time>2023-10-04T15:06:51Z</time>
      </trkpt>
      <trkpt lat="50.04869" lon="2.15708">
        <ele>31.5</ele>
        <time>2023-10-04T15:06:52Z</time>
      </trkpt>
      <trkpt lat="50.04869" lon="2.15709">
        <ele>31.5</ele>
        <time>2023-10-04T15:06:53Z</time>
      </trkpt>
      <trkpt lat="50.04868" lon="2.15709">
        <ele>31.5</ele>
        <time>2023-10-04T15:06:54Z</time>
      </trkpt>
      <trkpt lat="50.04868" lon="2.15709">
        <ele>31.5</ele>
        <time>2023-10-04T15:06:55Z</time>
      </trkpt>
      <trkpt lat="50.04868" lon="2.15709">
        <ele>31.5</ele>
        <time>2023-10-04T15:06:56Z</time>
      </trkpt>
      <trkpt lat="50.04868" lon="2.15709">
        <ele>31.5</ele>
        <time>2023-10-04T15:06:57Z</time>
      </trkpt>
      <trkpt lat="50.04869" lon="2.15709">
        <ele>31.5</ele>
        <time>2023-10-04T15:06:58Z</time>
      </trkpt>
      <trkpt lat="50.04869" lon="2.15709">
        <ele>31.5</ele>
        <time>2023-10-04T15:06:59Z</time>
      </trkpt>
      <trkpt lat="50.04869" lon="2.15709">
        <ele>31.5</ele>
        <time>2023-10-04T15:07:00Z</time>
      </trkpt>
      <trkpt lat="50.04869" lon="2.15709">
        <ele>31.5</ele>
        <time>2023-10-04T15:07:01Z</time>
      </trkpt>
      <trkpt lat="50.04869" lon="2.15709">
        <ele>31.5</ele>
        <time>2023-10-04T15:07:02Z</time>
      </trkpt>
      <trkpt lat="50.04869" lon="2.15709">
        <ele>31.5</ele>
        <time>2023-10-04T15:07:03Z</time>
      </trkpt>
      <trkpt lat="50.04869" lon="2.15709">
        <ele>31.5</ele>
        <time>2023-10-04T15:07:04Z</time>
      </trkpt>
      <trkpt lat="50.04869" lon="2.15709">
        <ele>31.5</ele>
        <time>2023-10-04T15:07:05Z</time>
      </trkpt>
      <trkpt lat="50.04869" lon="2.15709">
        <ele>31.5</ele>
        <time>2023-10-04T15:07:06Z</time>
      </trkpt>
      <trkpt lat="50.04869" lon="2.15709">
        <ele>31.5</ele>
        <time>2023-10-04T15:07:07Z</time>
      </trkpt>
      <trkpt lat="50.04869" lon="2.15709">
        <ele>31.5</ele>
        <time>2023-10-04T15:07:08Z</time>
      </trkpt>
      <trkpt lat="50.04869" lon="2.15709">
        <ele>31.5</ele>
        <time>2023-10-04T15:07:09Z</time>
      </trkpt>
      <trkpt lat="50.04869" lon="2.15709">
        <ele>31.5</ele>
        <time>2023-10-04T15:07:10Z</time>
      </trkpt>
      <trkpt lat="50.04869" lon="2.15709">
        <ele>31.5</ele>
        <time>2023-10-04T15:07:11Z</time>
      </trkpt>
      <trkpt lat="50.04869" lon="2.15709">
        <ele>31.5</ele>
        <time>2023-10-04T15:07:12Z</time>
      </trkpt>
      <trkpt lat="50.04869" lon="2.15709">
        <ele>31.5</ele>
        <time>2023-10-04T15:07:13Z</time>
      </trkpt>
      <trkpt lat="50.04869" lon="2.15709">
        <ele>31.5</ele>
        <time>2023-10-04T15:07:14Z</time>
      </trkpt>
      <trkpt lat="50.04869" lon="2.15709">
        <ele>31.5</ele>
        <time>2023-10-04T15:07:15Z</time>
      </trkpt>
      <trkpt lat="50.04869" lon="2.15709">
        <ele>31.5</ele>
        <time>2023-10-04T15:07:16Z</time>
      </trkpt>
      <trkpt lat="50.04869" lon="2.15709">
        <ele>31.5</ele>
        <time>2023-10-04T15:07:17Z</time>
      </trkpt>
      <trkpt lat="50.04869" lon="2.15709">
        <ele>31.5</ele>
        <time>2023-10-04T15:07:18Z</time>
      </trkpt>
      <trkpt lat="50.04869" lon="2.15709">
        <ele>31.5</ele>
        <time>2023-10-04T15:07:19Z</time>
      </trkpt>
      <trkpt lat="50.04869" lon="2.15709">
        <ele>31.5</ele>
        <time>2023-10-04T15:07:20Z</time>
      </trkpt>
      <trkpt lat="50.04869" lon="2.15709">
        <ele>31.5</ele>
        <time>2023-10-04T15:07:21Z</time>
      </trkpt>
      <trkpt lat="50.04869" lon="2.15709">
        <ele>31.5</ele>
        <time>2023-10-04T15:07:22Z</time>
      </trkpt>
      <trkpt lat="50.04869" lon="2.15709">
        <ele>31.5</ele>
        <time>2023-10-04T15:07:23Z</time>
      </trkpt>
      <trkpt lat="50.04869" lon="2.15709">
        <ele>31.5</ele>
        <time>2023-10-04T15:07:24Z</time>
      </trkpt>
      <trkpt lat="50.04869" lon="2.15709">
        <ele>31.5</ele>
        <time>2023-10-04T15:07:25Z</time>
      </trkpt>
      <trkpt lat="50.04869" lon="2.15709">
        <ele>31.5</ele>
        <time>2023-10-04T15:07:26Z</time>
      </trkpt>
      <trkpt lat="50.04869" lon="2.15709">
        <ele>31.5</ele>
        <time>2023-10-04T15:07:27Z</time>
      </trkpt>
      <trkpt lat="50.04869" lon="2.15709">
        <ele>31.5</ele>
        <time>2023-10-04T15:07:28Z</time>
      </trkpt>
      <trkpt lat="50.04869" lon="2.15709">
        <ele>31.5</ele>
        <time>2023-10-04T15:07:29Z</time>
      </trkpt>
      <trkpt lat="50.04869" lon="2.15709">
        <ele>31.5</ele>
        <time>2023-10-04T15:07:30Z</time>
      </trkpt>
      <trkpt lat="50.04869" lon="2.15709">
        <ele>31.5</ele>
        <time>2023-10-04T15:07:31Z</time>
      </trkpt>
      <trkpt lat="50.04869" lon="2.15709">
        <ele>31.5</ele>
        <time>2023-10-04T15:07:32Z</time>
      </trkpt>
      <trkpt lat="50.04869" lon="2.15709">
        <ele>31.5</ele>
        <time>2023-10-04T15:07:33Z</time>
      </trkpt>
      <trkpt lat="50.04869" lon="2.15709">
        <ele>31.5</ele>
        <time>2023-10-04T15:07:34Z</time>
      </trkpt>
      <trkpt lat="50.04869" lon="2.15709">
        <ele>31.5</ele>
        <time>2023-10-04T15:07:35Z</time>
      </trkpt>
      <trkpt lat="50.04869" lon="2.15709">
        <ele>31.5</ele>
        <time>2023-10-04T15:07:36Z</time>
      </trkpt>
      <trkpt lat="50.04869" lon="2.15709">
        <ele>31.5</ele>
        <time>2023-10-04T15:07:37Z</time>
      </trkpt>
      <trkpt lat="50.04869" lon="2.15709">
        <ele>31.5</ele>
        <time>2023-10-04T15:07:38Z</time>
      </trkpt>
      <trkpt lat="50.04869" lon="2.15709">
        <ele>31.5</ele>
        <time>2023-10-04T15:07:39Z</time>
      </trkpt>
      <trkpt lat="50.04869" lon="2.15709">
        <ele>31.5</ele>
        <time>2023-10-04T15:07:40Z</time>
      </trkpt>
      <trkpt lat="50.04869" lon="2.15709">
        <ele>31.5</ele>
        <time>2023-10-04T15:07:41Z</time>
      </trkpt>
      <trkpt lat="50.04869" lon="2.15709">
        <ele>31.5</ele>
        <time>2023-10-04T15:07:42Z</time>
      </trkpt>
      <trkpt lat="50.04869" lon="2.15709">
        <ele>31.5</ele>
        <time>2023-10-04T15:07:43Z</time>
      </trkpt>
      <trkpt lat="50.04869" lon="2.15709">
        <ele>31.5</ele>
        <time>2023-10-04T15:07:44Z</time>
      </trkpt>
      <trkpt lat="50.04869" lon="2.15709">
        <ele>31.5</ele>
        <time>2023-10-04T15:07:45Z</time>
      </trkpt>
      <trkpt lat="50.04869" lon="2.15709">
        <ele>31.5</ele>
        <time>2023-10-04T15:07:46Z</time>
      </trkpt>
      <trkpt lat="50.04869" lon="2.15709">
        <ele>31.5</ele>
        <time>2023-10-04T15:07:47Z</time>
      </trkpt>
      <trkpt lat="50.04869" lon="2.15709">
        <ele>31.5</ele>
        <time>2023-10-04T15:07:48Z</time>
      </trkpt>
      <trkpt lat="50.04869" lon="2.15709">
        <ele>31.5</ele>
        <time>2023-10-04T15:07:49Z</time>
      </trkpt>
      <trkpt lat="50.04869" lon="2.15709">
        <ele>31.5</ele>
        <time>2023-10-04T15:07:50Z</time>
      </trkpt>
      <trkpt lat="50.04869" lon="2.15709">
        <ele>31.5</ele>
        <time>2023-10-04T15:07:51Z</time>
      </trkpt>
      <trkpt lat="50.04869" lon="2.15709">
        <ele>31.5</ele>
        <time>2023-10-04T15:07:52Z</time>
      </trkpt>
      <trkpt lat="50.04869" lon="2.15709">
        <ele>31.5</ele>
        <time>2023-10-04T15:07:53Z</time>
      </trkpt>
      <trkpt lat="50.04869" lon="2.15709">
        <ele>31.5</ele>
        <time>2023-10-04T15:07:54Z</time>
      </trkpt>
      <trkpt lat="50.04869" lon="2.15709">
        <ele>31.5</ele>
        <time>2023-10-04T15:07:55Z</time>
      </trkpt>
      <trkpt lat="50.04869" lon="2.15709">
        <ele>31.5</ele>
        <time>2023-10-04T15:07:56Z</time>
      </trkpt>
      <trkpt lat="50.04869" lon="2.15709">
        <ele>31.5</ele>
        <time>2023-10-04T15:07:57Z</time>
      </trkpt>
      <trkpt lat="50.04869" lon="2.15709">
        <ele>31.5</ele>
        <time>2023-10-04T15:07:58Z</time>
      </trkpt>
      <trkpt lat="50.04869" lon="2.15709">
        <ele>31.5</ele>
        <time>2023-10-04T15:07:59Z</time>
      </trkpt>
      <trkpt lat="50.04869" lon="2.15709">
        <ele>31.5</ele>
        <time>2023-10-04T15:08:00Z</time>
      </trkpt>
      <trkpt lat="50.04869" lon="2.15709">
        <ele>31.5</ele>
        <time>2023-10-04T15:08:01Z</time>
      </trkpt>
      <trkpt lat="50.04869" lon="2.15709">
        <ele>31.5</ele>
        <time>2023-10-04T15:08:02Z</time>
      </trkpt>
      <trkpt lat="50.04869" lon="2.15709">
        <ele>31.5</ele>
        <time>2023-10-04T15:08:03Z</time>
      </trkpt>
      <trkpt lat="50.04869" lon="2.15709">
        <ele>31.5</ele>
        <time>2023-10-04T15:08:04Z</time>
      </trkpt>
      <trkpt lat="50.04869" lon="2.15709">
        <ele>31.5</ele>
        <time>2023-10-04T15:08:05Z</time>
      </trkpt>
      <trkpt lat="50.04869" lon="2.15709">
        <ele>31.5</ele>
        <time>2023-10-04T15:08:06Z</time>
      </trkpt>
      <trkpt lat="50.04869" lon="2.15709">
        <ele>31.5</ele>
        <time>2023-10-04T15:08:07Z</time>
      </trkpt>
      <trkpt lat="50.04869" lon="2.15709">
        <ele>31.5</ele>
        <time>2023-10-04T15:08:08Z</time>
      </trkpt>
      <trkpt lat="50.04869" lon="2.15709">
        <ele>31.5</ele>
        <time>2023-10-04T15:08:09Z</time>
      </trkpt>
      <trkpt lat="50.04869" lon="2.15709">
        <ele>31.5</ele>
        <time>2023-10-04T15:08:10Z</time>
      </trkpt>
      <trkpt lat="50.04869" lon="2.15709">
        <ele>31.5</ele>
        <time>2023-10-04T15:08:11Z</time>
      </trkpt>
      <trkpt lat="50.04869" lon="2.15709">
        <ele>31.5</ele>
        <time>2023-10-04T15:08:12Z</time>
      </trkpt>
      <trkpt lat="50.04869" lon="2.15709">
        <ele>31.5</ele>
        <time>2023-10-04T15:08:13Z</time>
      </trkpt>
      <trkpt lat="50.04869" lon="2.15709">
        <ele>31.5</ele>
        <time>2023-10-04T15:08:14Z</time>
      </trkpt>
      <trkpt lat="50.04869" lon="2.15709">
        <ele>31.5</ele>
        <time>2023-10-04T15:08:15Z</time>
      </trkpt>
      <trkpt lat="50.04869" lon="2.15709">
        <ele>31.5</ele>
        <time>2023-10-04T15:08:16Z</time>
      </trkpt>
      <trkpt lat="50.04869" lon="2.15709">
        <ele>31.5</ele>
        <time>2023-10-04T15:08:17Z</time>
      </trkpt>
      <trkpt lat="50.04869" lon="2.15709">
        <ele>31.5</ele>
        <time>2023-10-04T15:08:18Z</time>
      </trkpt>
      <trkpt lat="50.04869" lon="2.15709">
        <ele>31.5</ele>
        <time>2023-10-04T15:08:19Z</time>
      </trkpt>
      <trkpt lat="50.04869" lon="2.15709">
        <ele>31.5</ele>
        <time>2023-10-04T15:08:20Z</time>
      </trkpt>
      <trkpt lat="50.04869" lon="2.15709">
        <ele>31.5</ele>
        <time>2023-10-04T15:08:21Z</time>
      </trkpt>
      <trkpt lat="50.04869" lon="2.15709">
        <ele>31.5</ele>
        <time>2023-10-04T15:08:22Z</time>
      </trkpt>
      <trkpt lat="50.04869" lon="2.15709">
        <ele>31.5</ele>
        <time>2023-10-04T15:08:23Z</time>
      </trkpt>
      <trkpt lat="50.04869" lon="2.15709">
        <ele>31.5</ele>
        <time>2023-10-04T15:08:24Z</time>
      </trkpt>
      <trkpt lat="50.04869" lon="2.15709">
        <ele>31.5</ele>
        <time>2023-10-04T15:08:25Z</time>
      </trkpt>
      <trkpt lat="50.04869" lon="2.15709">
        <ele>31.5</ele>
        <time>2023-10-04T15:08:26Z</time>
      </trkpt>
      <trkpt lat="50.04869" lon="2.15709">
        <ele>31.5</ele>
        <time>2023-10-04T15:08:27Z</time>
      </trkpt>
      <trkpt lat="50.04869" lon="2.15709">
        <ele>31.5</ele>
        <time>2023-10-04T15:08:28Z</time>
      </trkpt>
      <trkpt lat="50.04869" lon="2.15709">
        <ele>31.5</ele>
        <time>2023-10-04T15:08:29Z</time>
      </trkpt>
      <trkpt lat="50.04869" lon="2.15709">
        <ele>31.5</ele>
        <time>2023-10-04T15:08:30Z</time>
      </trkpt>
      <trkpt lat="50.04869" lon="2.15709">
        <ele>31.5</ele>
        <time>2023-10-04T15:08:31Z</time>
      </trkpt>
      <trkpt lat="50.04869" lon="2.15709">
        <ele>31.5</ele>
        <time>2023-10-04T15:08:32Z</time>
      </trkpt>
      <trkpt lat="50.04869" lon="2.15709">
        <ele>31.5</ele>
        <time>2023-10-04T15:08:33Z</time>
      </trkpt>
      <trkpt lat="50.04869" lon="2.15709">
        <ele>31.5</ele>
        <time>2023-10-04T15:08:34Z</time>
      </trkpt>
      <trkpt lat="50.04869" lon="2.15709">
        <ele>31.5</ele>
        <time>2023-10-04T15:08:35Z</time>
      </trkpt>
      <trkpt lat="50.04869" lon="2.15709">
        <ele>31.5</ele>
        <time>2023-10-04T15:08:36Z</time>
      </trkpt>
      <trkpt lat="50.04869" lon="2.15709">
        <ele>31.5</ele>
        <time>2023-10-04T15:08:37Z</time>
      </trkpt>
      <trkpt lat="50.04869" lon="2.15709">
        <ele>31.5</ele>
        <time>2023-10-04T15:08:38Z</time>
      </trkpt>
      <trkpt lat="50.04869" lon="2.15709">
        <ele>31.5</ele>
        <time>2023-10-04T15:08:39Z</time>
      </trkpt>
      <trkpt lat="50.04869" lon="2.15708">
        <ele>31.5</ele>
        <time>2023-10-04T15:08:40Z</time>
      </trkpt>
      <trkpt lat="50.04869" lon="2.15707">
        <ele>31.5</ele>
        <time>2023-10-04T15:08:41Z</time>
      </trkpt>
      <trkpt lat="50.04869" lon="2.15707">
        <ele>31.5</ele>
        <time>2023-10-04T15:08:42Z</time>
      </trkpt>
      <trkpt lat="50.04869" lon="2.15707">
        <ele>31.5</ele>
        <time>2023-10-04T15:08:43Z</time>
      </trkpt>
      <trkpt lat="50.04869" lon="2.15707">
        <ele>31.5</ele>
        <time>2023-10-04T15:08:44Z</time>
      </trkpt>
      <trkpt lat="50.04869" lon="2.15707">
        <ele>31.5</ele>
        <time>2023-10-04T15:08:45Z</time>
      </trkpt>
      <trkpt lat="50.04869" lon="2.15707">
        <ele>31.5</ele>
        <time>2023-10-04T15:08:46Z</time>
      </trkpt>
      <trkpt lat="50.04869" lon="2.15707">
        <ele>31.5</ele>
        <time>2023-10-04T15:08:47Z</time>
      </trkpt>
      <trkpt lat="50.04869" lon="2.15707">
        <ele>31.5</ele>
        <time>2023-10-04T15:08:48Z</time>
      </trkpt>
      <trkpt lat="50.04869" lon="2.15707">
        <ele>31.5</ele>
        <time>2023-10-04T15:08:49Z</time>
      </trkpt>
      <trkpt lat="50.04869" lon="2.15707">
        <ele>31.5</ele>
        <time>2023-10-04T15:08:50Z</time>
      </trkpt>
      <trkpt lat="50.04869" lon="2.15707">
        <ele>31.5</ele>
        <time>2023-10-04T15:08:51Z</time>
      </trkpt>
      <trkpt lat="50.04869" lon="2.15707">
        <ele>31.5</ele>
        <time>2023-10-04T15:08:52Z</time>
      </trkpt>
      <trkpt lat="50.04869" lon="2.15707">
        <ele>31.5</ele>
        <time>2023-10-04T15:08:53Z</time>
      </trkpt>
      <trkpt lat="50.04869" lon="2.15707">
        <ele>31.5</ele>
        <time>2023-10-04T15:08:54Z</time>
      </trkpt>
      <trkpt lat="50.04869" lon="2.15707">
        <ele>31.5</ele>
        <time>2023-10-04T15:08:55Z</time>
      </trkpt>
      <trkpt lat="50.04869" lon="2.15707">
        <ele>31.5</ele>
        <time>2023-10-04T15:08:56Z</time>
      </trkpt>
      <trkpt lat="50.04869" lon="2.15707">
        <ele>31.5</ele>
        <time>2023-10-04T15:08:57Z</time>
      </trkpt>
      <trkpt lat="50.04869" lon="2.15707">
        <ele>31.5</ele>
        <time>2023-10-04T15:08:58Z</time>
      </trkpt>
      <trkpt lat="50.04869" lon="2.15707">
        <ele>31.5</ele>
        <time>2023-10-04T15:08:59Z</time>
      </trkpt>
      <trkpt lat="50.04868" lon="2.15707">
        <ele>31.5</ele>
        <time>2023-10-04T15:09:00Z</time>
      </trkpt>
      <trkpt lat="50.04868" lon="2.15707">
        <ele>31.5</ele>
        <time>2023-10-04T15:09:01Z</time>
      </trkpt>
      <trkpt lat="50.04868" lon="2.15707">
        <ele>31.5</ele>
        <time>2023-10-04T15:09:02Z</time>
      </trkpt>
      <trkpt lat="50.04868" lon="2.15707">
        <ele>31.5</ele>
        <time>2023-10-04T15:09:03Z</time>
      </trkpt>
      <trkpt lat="50.04868" lon="2.15707">
        <ele>31.5</ele>
        <time>2023-10-04T15:09:04Z</time>
      </trkpt>
      <trkpt lat="50.04869" lon="2.15707">
        <ele>31.5</ele>
        <time>2023-10-04T15:09:06Z</time>
      </trkpt>
      <trkpt lat="50.04869" lon="2.15707">
        <ele>31.5</ele>
        <time>2023-10-04T15:09:07Z</time>
      </trkpt>
      <trkpt lat="50.04869" lon="2.15707">
        <ele>31.5</ele>
        <time>2023-10-04T15:09:08Z</time>
      </trkpt>
      <trkpt lat="50.04869" lon="2.15707">
        <ele>31.5</ele>
        <time>2023-10-04T15:09:09Z</time>
      </trkpt>
      <trkpt lat="50.04869" lon="2.15707">
        <ele>31.5</ele>
        <time>2023-10-04T15:09:10Z</time>
      </trkpt>
      <trkpt lat="50.04869" lon="2.15707">
        <ele>31.5</ele>
        <time>2023-10-04T15:09:11Z</time>
      </trkpt>
      <trkpt lat="50.04869" lon="2.15707">
        <ele>31.5</ele>
        <time>2023-10-04T15:09:12Z</time>
      </trkpt>
      <trkpt lat="50.04869" lon="2.15707">
        <ele>31.5</ele>
        <time>2023-10-04T15:09:13Z</time>
      </trkpt>
      <trkpt lat="50.04869" lon="2.15707">
        <ele>31.5</ele>
        <time>2023-10-04T15:09:14Z</time>
      </trkpt>
      <trkpt lat="50.04869" lon="2.15707">
        <ele>31.5</ele>
        <time>2023-10-04T15:09:15Z</time>
      </trkpt>
      <trkpt lat="50.04869" lon="2.15707">
        <ele>31.5</ele>
        <time>2023-10-04T15:09:16Z</time>
      </trkpt>
      <trkpt lat="50.04869" lon="2.15707">
        <ele>31.5</ele>
        <time>2023-10-04T15:09:17Z</time>
      </trkpt>
      <trkpt lat="50.04869" lon="2.15707">
        <ele>31.5</ele>
        <time>2023-10-04T15:09:18Z</time>
      </trkpt>
      <trkpt lat="50.04869" lon="2.15707">
        <ele>31.5</ele>
        <time>2023-10-04T15:09:19Z</time>
      </trkpt>
      <trkpt lat="50.04869" lon="2.15707">
        <ele>31.5</ele>
        <time>2023-10-04T15:09:20Z</time>
      </trkpt>
      <trkpt lat="50.04869" lon="2.15707">
        <ele>31.5</ele>
        <time>2023-10-04T15:09:21Z</time>
      </trkpt>
      <trkpt lat="50.04869" lon="2.15707">
        <ele>31.5</ele>
        <time>2023-10-04T15:09:22Z</time>
      </trkpt>
      <trkpt lat="50.04869" lon="2.15707">
        <ele>31.5</ele>
        <time>2023-10-04T15:09:23Z</time>
      </trkpt>
      <trkpt lat="50.0487" lon="2.15707">
        <ele>31.5</ele>
        <time>2023-10-04T15:09:24Z</time>
      </trkpt>
      <trkpt lat="50.0487" lon="2.15707">
        <ele>31.5</ele>
        <time>2023-10-04T15:09:25Z</time>
      </trkpt>
      <trkpt lat="50.0487" lon="2.15706">
        <ele>31.5</ele>
        <time>2023-10-04T15:09:26Z</time>
      </trkpt>
      <trkpt lat="50.0487" lon="2.15706">
        <ele>31.5</ele>
        <time>2023-10-04T15:09:27Z</time>
      </trkpt>
      <trkpt lat="50.0487" lon="2.15706">
        <ele>31.5</ele>
        <time>2023-10-04T15:09:28Z</time>
      </trkpt>
      <trkpt lat="50.0487" lon="2.15706">
        <ele>31.5</ele>
        <time>2023-10-04T15:09:29Z</time>
      </trkpt>
      <trkpt lat="50.04871" lon="2.15706">
        <ele>31.5</ele>
        <time>2023-10-04T15:09:30Z</time>
      </trkpt>
      <trkpt lat="50.04871" lon="2.15706">
        <ele>31.5</ele>
        <time>2023-10-04T15:09:31Z</time>
      </trkpt>
      <trkpt lat="50.04871" lon="2.15706">
        <ele>31.5</ele>
        <time>2023-10-04T15:09:32Z</time>
      </trkpt>
      <trkpt lat="50.04871" lon="2.15706">
        <ele>31.5</ele>
        <time>2023-10-04T15:09:33Z</time>
      </trkpt>
      <trkpt lat="50.04871" lon="2.15706">
        <ele>31.5</ele>
        <time>2023-10-04T15:09:34Z</time>
      </trkpt>
      <trkpt lat="50.04871" lon="2.15706">
        <ele>31.5</ele>
        <time>2023-10-04T15:09:35Z</time>
      </trkpt>
      <trkpt lat="50.04871" lon="2.15706">
        <ele>31.5</ele>
        <time>2023-10-04T15:09:36Z</time>
      </trkpt>
      <trkpt lat="50.04871" lon="2.15706">
        <ele>31.5</ele>
        <time>2023-10-04T15:09:37Z</time>
      </trkpt>
      <trkpt lat="50.04871" lon="2.15706">
        <ele>31.5</ele>
        <time>2023-10-04T15:09:38Z</time>
      </trkpt>
      <trkpt lat="50.04871" lon="2.15705">
        <ele>31.5</ele>
        <time>2023-10-04T15:09:39Z</time>
      </trkpt>
      <trkpt lat="50.04871" lon="2.15706">
        <ele>31.5</ele>
        <time>2023-10-04T15:09:40Z</time>
      </trkpt>
      <trkpt lat="50.04871" lon="2.15706">
        <ele>31.5</ele>
        <time>2023-10-04T15:09:41Z</time>
      </trkpt>
      <trkpt lat="50.04871" lon="2.15706">
        <ele>31.5</ele>
        <time>2023-10-04T15:09:42Z</time>
      </trkpt>
      <trkpt lat="50.04871" lon="2.15707">
        <ele>31.5</ele>
        <time>2023-10-04T15:09:43Z</time>
      </trkpt>
      <trkpt lat="50.04871" lon="2.15707">
        <ele>31.5</ele>
        <time>2023-10-04T15:09:44Z</time>
      </trkpt>
      <trkpt lat="50.04871" lon="2.15707">
        <ele>31.5</ele>
        <time>2023-10-04T15:09:45Z</time>
      </trkpt>
      <trkpt lat="50.04871" lon="2.15707">
        <ele>31.5</ele>
        <time>2023-10-04T15:09:46Z</time>
      </trkpt>
      <trkpt lat="50.04871" lon="2.15707">
        <ele>31.5</ele>
        <time>2023-10-04T15:09:47Z</time>
      </trkpt>
      <trkpt lat="50.04871" lon="2.15708">
        <ele>31.5</ele>
        <time>2023-10-04T15:09:48Z</time>
      </trkpt>
      <trkpt lat="50.0487" lon="2.15709">
        <ele>31.6</ele>
        <time>2023-10-04T15:09:49Z</time>
      </trkpt>
      <trkpt lat="50.0487" lon="2.15711">
        <ele>31.6</ele>
        <time>2023-10-04T15:09:50Z</time>
      </trkpt>
      <trkpt lat="50.04869" lon="2.15712">
        <ele>31.6</ele>
        <time>2023-10-04T15:09:51Z</time>
      </trkpt>
      <trkpt lat="50.04868" lon="2.15713">
        <ele>31.6</ele>
        <time>2023-10-04T15:09:52Z</time>
      </trkpt>
      <trkpt lat="50.04868" lon="2.15714">
        <ele>31.6</ele>
        <time>2023-10-04T15:09:53Z</time>
      </trkpt>
      <trkpt lat="50.04867" lon="2.15715">
        <ele>31.6</ele>
        <time>2023-10-04T15:09:54Z</time>
      </trkpt>
      <trkpt lat="50.04867" lon="2.15716">
        <ele>31.6</ele>
        <time>2023-10-04T15:09:55Z</time>
      </trkpt>
      <trkpt lat="50.04866" lon="2.15717">
        <ele>31.6</ele>
        <time>2023-10-04T15:09:56Z</time>
      </trkpt>
      <trkpt lat="50.04866" lon="2.15718">
        <ele>31.6</ele>
        <time>2023-10-04T15:09:57Z</time>
      </trkpt>
      <trkpt lat="50.04866" lon="2.15719">
        <ele>31.6</ele>
        <time>2023-10-04T15:09:58Z</time>
      </trkpt>
      <trkpt lat="50.04865" lon="2.15719">
        <ele>31.6</ele>
        <time>2023-10-04T15:09:59Z</time>
      </trkpt>
      <trkpt lat="50.04865" lon="2.15719">
        <ele>31.6</ele>
        <time>2023-10-04T15:10:00Z</time>
      </trkpt>
      <trkpt lat="50.04865" lon="2.1572">
        <ele>31.6</ele>
        <time>2023-10-04T15:10:01Z</time>
      </trkpt>
      <trkpt lat="50.04865" lon="2.15721">
        <ele>31.6</ele>
        <time>2023-10-04T15:10:02Z</time>
      </trkpt>
      <trkpt lat="50.04864" lon="2.15723">
        <ele>31.6</ele>
        <time>2023-10-04T15:10:03Z</time>
      </trkpt>
      <trkpt lat="50.04864" lon="2.15724">
        <ele>31.7</ele>
        <time>2023-10-04T15:10:04Z</time>
      </trkpt>
      <trkpt lat="50.04863" lon="2.15726">
        <ele>31.7</ele>
        <time>2023-10-04T15:10:05Z</time>
      </trkpt>
      <trkpt lat="50.04863" lon="2.15727">
        <ele>31.7</ele>
        <time>2023-10-04T15:10:06Z</time>
      </trkpt>
      <trkpt lat="50.04862" lon="2.15728">
        <ele>31.7</ele>
        <time>2023-10-04T15:10:07Z</time>
      </trkpt>
      <trkpt lat="50.04862" lon="2.15729">
        <ele>31.7</ele>
        <time>2023-10-04T15:10:08Z</time>
      </trkpt>
      <trkpt lat="50.04862" lon="2.1573">
        <ele>31.7</ele>
        <time>2023-10-04T15:10:09Z</time>
      </trkpt>
      <trkpt lat="50.04862" lon="2.15732">
        <ele>31.7</ele>
        <time>2023-10-04T15:10:10Z</time>
      </trkpt>
      <trkpt lat="50.04861" lon="2.15732">
        <ele>31.7</ele>
        <time>2023-10-04T15:10:11Z</time>
      </trkpt>
    </trkseg>
  </trk>
</gpx>